<?xml version="1.0" encoding="UTF-8" standalone="no" ?>
<gpx xmlns="http://www.topografix.com/GPX/1/1" xmlns:xsi="http://www.w3.org/2001/XMLSchema-instance" xsi:schemaLocation="http://www.topografix.com/GPX/1/1 http://www.topografix.com/GPX/1/1/gpx.xsd" version="1.1" creator="VisuGPX - https://www.visugpx.com">
  <metadata>
    <name>83-V-Tourtour</name>
    <desc><![CDATA[grp_trc:]]></desc>
  </metadata>
  <trk>
    <name><![CDATA[TOURTOUR le grand défend. ]]></name>
    <cmt><![CDATA[11:18:52]]></cmt>
    <desc><![CDATA[comment ...]]></desc>
    <trkseg>
      <trkpt lat="43.59449" lon="6.30427">
        <ele>667</ele>
        <time>2022-12-11T10:18:52Z</time>
      </trkpt>
      <trkpt lat="43.59449" lon="6.30427">
        <ele>667</ele>
        <time>2022-12-11T10:18:53Z</time>
      </trkpt>
      <trkpt lat="43.59449" lon="6.30427">
        <ele>667</ele>
        <time>2022-12-11T10:18:54Z</time>
      </trkpt>
      <trkpt lat="43.59449" lon="6.30427">
        <ele>667</ele>
        <time>2022-12-11T10:18:55Z</time>
      </trkpt>
      <trkpt lat="43.59449" lon="6.30427">
        <ele>667</ele>
        <time>2022-12-11T10:18:56Z</time>
      </trkpt>
      <trkpt lat="43.59449" lon="6.30427">
        <ele>667</ele>
        <time>2022-12-11T10:18:57Z</time>
      </trkpt>
      <trkpt lat="43.59449" lon="6.30427">
        <ele>667</ele>
        <time>2022-12-11T10:18:58Z</time>
      </trkpt>
      <trkpt lat="43.59449" lon="6.30427">
        <ele>667</ele>
        <time>2022-12-11T10:18:59Z</time>
      </trkpt>
      <trkpt lat="43.59449" lon="6.30427">
        <ele>667</ele>
        <time>2022-12-11T10:19:00Z</time>
      </trkpt>
      <trkpt lat="43.59449" lon="6.30427">
        <ele>667</ele>
        <time>2022-12-11T10:19:01Z</time>
      </trkpt>
      <trkpt lat="43.59449" lon="6.30427">
        <ele>667</ele>
        <time>2022-12-11T10:19:02Z</time>
      </trkpt>
      <trkpt lat="43.59449" lon="6.30427">
        <ele>667</ele>
        <time>2022-12-11T10:19:03Z</time>
      </trkpt>
      <trkpt lat="43.59449" lon="6.30427">
        <ele>667</ele>
        <time>2022-12-11T10:19:04Z</time>
      </trkpt>
      <trkpt lat="43.59449" lon="6.30427">
        <ele>667</ele>
        <time>2022-12-11T10:19:05Z</time>
      </trkpt>
      <trkpt lat="43.59449" lon="6.30427">
        <ele>667</ele>
        <time>2022-12-11T10:19:06Z</time>
      </trkpt>
      <trkpt lat="43.59449" lon="6.30428">
        <ele>667</ele>
        <time>2022-12-11T10:19:07Z</time>
      </trkpt>
      <trkpt lat="43.59449" lon="6.30429">
        <ele>667</ele>
        <time>2022-12-11T10:19:08Z</time>
      </trkpt>
      <trkpt lat="43.59449" lon="6.30429">
        <ele>667</ele>
        <time>2022-12-11T10:19:09Z</time>
      </trkpt>
      <trkpt lat="43.59449" lon="6.30431">
        <ele>667</ele>
        <time>2022-12-11T10:19:10Z</time>
      </trkpt>
      <trkpt lat="43.59449" lon="6.30432">
        <ele>667</ele>
        <time>2022-12-11T10:19:11Z</time>
      </trkpt>
      <trkpt lat="43.59448" lon="6.30434">
        <ele>667</ele>
        <time>2022-12-11T10:19:12Z</time>
      </trkpt>
      <trkpt lat="43.59448" lon="6.30435">
        <ele>665</ele>
        <time>2022-12-11T10:19:13Z</time>
      </trkpt>
      <trkpt lat="43.59449" lon="6.30437">
        <ele>664</ele>
        <time>2022-12-11T10:19:14Z</time>
      </trkpt>
      <trkpt lat="43.59449" lon="6.30438">
        <ele>663</ele>
        <time>2022-12-11T10:19:15Z</time>
      </trkpt>
      <trkpt lat="43.59449" lon="6.3044">
        <ele>663</ele>
        <time>2022-12-11T10:19:16Z</time>
      </trkpt>
      <trkpt lat="43.59449" lon="6.30441">
        <ele>663</ele>
        <time>2022-12-11T10:19:17Z</time>
      </trkpt>
      <trkpt lat="43.59449" lon="6.30442">
        <ele>662</ele>
        <time>2022-12-11T10:19:18Z</time>
      </trkpt>
      <trkpt lat="43.59449" lon="6.30443">
        <ele>662</ele>
        <time>2022-12-11T10:19:19Z</time>
      </trkpt>
      <trkpt lat="43.59449" lon="6.30444">
        <ele>662</ele>
        <time>2022-12-11T10:19:20Z</time>
      </trkpt>
      <trkpt lat="43.59449" lon="6.30445">
        <ele>662</ele>
        <time>2022-12-11T10:19:21Z</time>
      </trkpt>
      <trkpt lat="43.59449" lon="6.30446">
        <ele>662</ele>
        <time>2022-12-11T10:19:22Z</time>
      </trkpt>
      <trkpt lat="43.59448" lon="6.30447">
        <ele>661</ele>
        <time>2022-12-11T10:19:23Z</time>
      </trkpt>
      <trkpt lat="43.59448" lon="6.30448">
        <ele>660</ele>
        <time>2022-12-11T10:19:24Z</time>
      </trkpt>
      <trkpt lat="43.59447" lon="6.3045">
        <ele>660</ele>
        <time>2022-12-11T10:19:25Z</time>
      </trkpt>
      <trkpt lat="43.59447" lon="6.30451">
        <ele>660</ele>
        <time>2022-12-11T10:19:26Z</time>
      </trkpt>
      <trkpt lat="43.59446" lon="6.30452">
        <ele>660</ele>
        <time>2022-12-11T10:19:27Z</time>
      </trkpt>
      <trkpt lat="43.59446" lon="6.30453">
        <ele>659</ele>
        <time>2022-12-11T10:19:28Z</time>
      </trkpt>
      <trkpt lat="43.59445" lon="6.30455">
        <ele>659</ele>
        <time>2022-12-11T10:19:29Z</time>
      </trkpt>
      <trkpt lat="43.59445" lon="6.30456">
        <ele>659</ele>
        <time>2022-12-11T10:19:30Z</time>
      </trkpt>
      <trkpt lat="43.59444" lon="6.30458">
        <ele>659</ele>
        <time>2022-12-11T10:19:31Z</time>
      </trkpt>
      <trkpt lat="43.59444" lon="6.30459">
        <ele>658</ele>
        <time>2022-12-11T10:19:32Z</time>
      </trkpt>
      <trkpt lat="43.59443" lon="6.30461">
        <ele>658</ele>
        <time>2022-12-11T10:19:33Z</time>
      </trkpt>
      <trkpt lat="43.59444" lon="6.30464">
        <ele>658</ele>
        <time>2022-12-11T10:19:34Z</time>
      </trkpt>
      <trkpt lat="43.59445" lon="6.30466">
        <ele>658</ele>
        <time>2022-12-11T10:19:35Z</time>
      </trkpt>
      <trkpt lat="43.59445" lon="6.30467">
        <ele>658</ele>
        <time>2022-12-11T10:19:36Z</time>
      </trkpt>
      <trkpt lat="43.59445" lon="6.3047">
        <ele>657</ele>
        <time>2022-12-11T10:19:37Z</time>
      </trkpt>
      <trkpt lat="43.59445" lon="6.30471">
        <ele>657</ele>
        <time>2022-12-11T10:19:38Z</time>
      </trkpt>
      <trkpt lat="43.59445" lon="6.30473">
        <ele>656</ele>
        <time>2022-12-11T10:19:39Z</time>
      </trkpt>
      <trkpt lat="43.59445" lon="6.30475">
        <ele>656</ele>
        <time>2022-12-11T10:19:40Z</time>
      </trkpt>
      <trkpt lat="43.59445" lon="6.30476">
        <ele>656</ele>
        <time>2022-12-11T10:19:41Z</time>
      </trkpt>
      <trkpt lat="43.59444" lon="6.30478">
        <ele>656</ele>
        <time>2022-12-11T10:19:42Z</time>
      </trkpt>
      <trkpt lat="43.59444" lon="6.3048">
        <ele>655</ele>
        <time>2022-12-11T10:19:43Z</time>
      </trkpt>
      <trkpt lat="43.59444" lon="6.30482">
        <ele>655</ele>
        <time>2022-12-11T10:19:44Z</time>
      </trkpt>
      <trkpt lat="43.59443" lon="6.30484">
        <ele>655</ele>
        <time>2022-12-11T10:19:45Z</time>
      </trkpt>
      <trkpt lat="43.59443" lon="6.30485">
        <ele>655</ele>
        <time>2022-12-11T10:19:46Z</time>
      </trkpt>
      <trkpt lat="43.59443" lon="6.30487">
        <ele>654</ele>
        <time>2022-12-11T10:19:47Z</time>
      </trkpt>
      <trkpt lat="43.59442" lon="6.30489">
        <ele>654</ele>
        <time>2022-12-11T10:19:48Z</time>
      </trkpt>
      <trkpt lat="43.59442" lon="6.30491">
        <ele>654</ele>
        <time>2022-12-11T10:19:49Z</time>
      </trkpt>
      <trkpt lat="43.59442" lon="6.30492">
        <ele>654</ele>
        <time>2022-12-11T10:19:50Z</time>
      </trkpt>
      <trkpt lat="43.59442" lon="6.30494">
        <ele>654</ele>
        <time>2022-12-11T10:19:51Z</time>
      </trkpt>
      <trkpt lat="43.59442" lon="6.30495">
        <ele>655</ele>
        <time>2022-12-11T10:19:52Z</time>
      </trkpt>
      <trkpt lat="43.59441" lon="6.30497">
        <ele>655</ele>
        <time>2022-12-11T10:19:53Z</time>
      </trkpt>
      <trkpt lat="43.59441" lon="6.30498">
        <ele>655</ele>
        <time>2022-12-11T10:19:54Z</time>
      </trkpt>
      <trkpt lat="43.59441" lon="6.305">
        <ele>655</ele>
        <time>2022-12-11T10:19:55Z</time>
      </trkpt>
      <trkpt lat="43.59441" lon="6.30501">
        <ele>655</ele>
        <time>2022-12-11T10:19:56Z</time>
      </trkpt>
      <trkpt lat="43.59441" lon="6.30502">
        <ele>655</ele>
        <time>2022-12-11T10:19:57Z</time>
      </trkpt>
      <trkpt lat="43.59441" lon="6.30504">
        <ele>655</ele>
        <time>2022-12-11T10:19:58Z</time>
      </trkpt>
      <trkpt lat="43.59441" lon="6.30505">
        <ele>655</ele>
        <time>2022-12-11T10:19:59Z</time>
      </trkpt>
      <trkpt lat="43.59441" lon="6.30507">
        <ele>655</ele>
        <time>2022-12-11T10:20:00Z</time>
      </trkpt>
      <trkpt lat="43.59441" lon="6.30508">
        <ele>655</ele>
        <time>2022-12-11T10:20:01Z</time>
      </trkpt>
      <trkpt lat="43.59441" lon="6.3051">
        <ele>655</ele>
        <time>2022-12-11T10:20:02Z</time>
      </trkpt>
      <trkpt lat="43.59441" lon="6.30512">
        <ele>655</ele>
        <time>2022-12-11T10:20:03Z</time>
      </trkpt>
      <trkpt lat="43.59441" lon="6.30513">
        <ele>656</ele>
        <time>2022-12-11T10:20:04Z</time>
      </trkpt>
      <trkpt lat="43.59441" lon="6.30515">
        <ele>656</ele>
        <time>2022-12-11T10:20:05Z</time>
      </trkpt>
      <trkpt lat="43.59441" lon="6.30516">
        <ele>656</ele>
        <time>2022-12-11T10:20:06Z</time>
      </trkpt>
      <trkpt lat="43.5944" lon="6.30518">
        <ele>656</ele>
        <time>2022-12-11T10:20:07Z</time>
      </trkpt>
      <trkpt lat="43.5944" lon="6.30519">
        <ele>656</ele>
        <time>2022-12-11T10:20:08Z</time>
      </trkpt>
      <trkpt lat="43.5944" lon="6.30521">
        <ele>655</ele>
        <time>2022-12-11T10:20:09Z</time>
      </trkpt>
      <trkpt lat="43.5944" lon="6.30522">
        <ele>655</ele>
        <time>2022-12-11T10:20:10Z</time>
      </trkpt>
      <trkpt lat="43.5944" lon="6.30524">
        <ele>655</ele>
        <time>2022-12-11T10:20:11Z</time>
      </trkpt>
      <trkpt lat="43.5944" lon="6.30525">
        <ele>655</ele>
        <time>2022-12-11T10:20:12Z</time>
      </trkpt>
      <trkpt lat="43.59439" lon="6.30527">
        <ele>655</ele>
        <time>2022-12-11T10:20:13Z</time>
      </trkpt>
      <trkpt lat="43.59439" lon="6.30528">
        <ele>655</ele>
        <time>2022-12-11T10:20:14Z</time>
      </trkpt>
      <trkpt lat="43.59439" lon="6.3053">
        <ele>655</ele>
        <time>2022-12-11T10:20:15Z</time>
      </trkpt>
      <trkpt lat="43.59439" lon="6.30531">
        <ele>655</ele>
        <time>2022-12-11T10:20:16Z</time>
      </trkpt>
      <trkpt lat="43.59438" lon="6.30532">
        <ele>655</ele>
        <time>2022-12-11T10:20:17Z</time>
      </trkpt>
      <trkpt lat="43.59438" lon="6.30534">
        <ele>655</ele>
        <time>2022-12-11T10:20:18Z</time>
      </trkpt>
      <trkpt lat="43.59438" lon="6.30535">
        <ele>655</ele>
        <time>2022-12-11T10:20:19Z</time>
      </trkpt>
      <trkpt lat="43.59438" lon="6.30536">
        <ele>655</ele>
        <time>2022-12-11T10:20:20Z</time>
      </trkpt>
      <trkpt lat="43.59437" lon="6.30538">
        <ele>655</ele>
        <time>2022-12-11T10:20:21Z</time>
      </trkpt>
      <trkpt lat="43.59437" lon="6.30539">
        <ele>655</ele>
        <time>2022-12-11T10:20:22Z</time>
      </trkpt>
      <trkpt lat="43.59437" lon="6.30541">
        <ele>655</ele>
        <time>2022-12-11T10:20:23Z</time>
      </trkpt>
      <trkpt lat="43.59437" lon="6.30543">
        <ele>654</ele>
        <time>2022-12-11T10:20:24Z</time>
      </trkpt>
      <trkpt lat="43.59437" lon="6.30544">
        <ele>654</ele>
        <time>2022-12-11T10:20:25Z</time>
      </trkpt>
      <trkpt lat="43.59437" lon="6.30546">
        <ele>654</ele>
        <time>2022-12-11T10:20:26Z</time>
      </trkpt>
      <trkpt lat="43.59436" lon="6.30547">
        <ele>653</ele>
        <time>2022-12-11T10:20:27Z</time>
      </trkpt>
      <trkpt lat="43.59436" lon="6.30549">
        <ele>653</ele>
        <time>2022-12-11T10:20:28Z</time>
      </trkpt>
      <trkpt lat="43.59436" lon="6.3055">
        <ele>653</ele>
        <time>2022-12-11T10:20:29Z</time>
      </trkpt>
      <trkpt lat="43.59436" lon="6.30552">
        <ele>653</ele>
        <time>2022-12-11T10:20:30Z</time>
      </trkpt>
      <trkpt lat="43.59436" lon="6.30553">
        <ele>653</ele>
        <time>2022-12-11T10:20:31Z</time>
      </trkpt>
      <trkpt lat="43.59436" lon="6.30555">
        <ele>653</ele>
        <time>2022-12-11T10:20:32Z</time>
      </trkpt>
      <trkpt lat="43.59435" lon="6.30556">
        <ele>653</ele>
        <time>2022-12-11T10:20:33Z</time>
      </trkpt>
      <trkpt lat="43.59435" lon="6.30558">
        <ele>653</ele>
        <time>2022-12-11T10:20:34Z</time>
      </trkpt>
      <trkpt lat="43.59435" lon="6.30559">
        <ele>653</ele>
        <time>2022-12-11T10:20:35Z</time>
      </trkpt>
      <trkpt lat="43.59435" lon="6.3056">
        <ele>653</ele>
        <time>2022-12-11T10:20:36Z</time>
      </trkpt>
      <trkpt lat="43.59434" lon="6.30562">
        <ele>653</ele>
        <time>2022-12-11T10:20:37Z</time>
      </trkpt>
      <trkpt lat="43.59434" lon="6.30563">
        <ele>653</ele>
        <time>2022-12-11T10:20:38Z</time>
      </trkpt>
      <trkpt lat="43.59434" lon="6.30564">
        <ele>653</ele>
        <time>2022-12-11T10:20:39Z</time>
      </trkpt>
      <trkpt lat="43.59433" lon="6.30566">
        <ele>653</ele>
        <time>2022-12-11T10:20:40Z</time>
      </trkpt>
      <trkpt lat="43.59433" lon="6.30567">
        <ele>653</ele>
        <time>2022-12-11T10:20:41Z</time>
      </trkpt>
      <trkpt lat="43.59433" lon="6.30569">
        <ele>653</ele>
        <time>2022-12-11T10:20:42Z</time>
      </trkpt>
      <trkpt lat="43.59433" lon="6.30571">
        <ele>653</ele>
        <time>2022-12-11T10:20:43Z</time>
      </trkpt>
      <trkpt lat="43.59432" lon="6.30573">
        <ele>653</ele>
        <time>2022-12-11T10:20:44Z</time>
      </trkpt>
      <trkpt lat="43.59432" lon="6.30574">
        <ele>654</ele>
        <time>2022-12-11T10:20:45Z</time>
      </trkpt>
      <trkpt lat="43.59432" lon="6.30576">
        <ele>654</ele>
        <time>2022-12-11T10:20:46Z</time>
      </trkpt>
      <trkpt lat="43.59432" lon="6.30578">
        <ele>654</ele>
        <time>2022-12-11T10:20:47Z</time>
      </trkpt>
      <trkpt lat="43.59432" lon="6.3058">
        <ele>654</ele>
        <time>2022-12-11T10:20:48Z</time>
      </trkpt>
      <trkpt lat="43.59431" lon="6.30581">
        <ele>654</ele>
        <time>2022-12-11T10:20:49Z</time>
      </trkpt>
      <trkpt lat="43.59431" lon="6.30583">
        <ele>654</ele>
        <time>2022-12-11T10:20:50Z</time>
      </trkpt>
      <trkpt lat="43.59431" lon="6.30584">
        <ele>654</ele>
        <time>2022-12-11T10:20:51Z</time>
      </trkpt>
      <trkpt lat="43.5943" lon="6.30586">
        <ele>654</ele>
        <time>2022-12-11T10:20:52Z</time>
      </trkpt>
      <trkpt lat="43.5943" lon="6.30588">
        <ele>654</ele>
        <time>2022-12-11T10:20:53Z</time>
      </trkpt>
      <trkpt lat="43.5943" lon="6.30589">
        <ele>654</ele>
        <time>2022-12-11T10:20:54Z</time>
      </trkpt>
      <trkpt lat="43.5943" lon="6.30591">
        <ele>654</ele>
        <time>2022-12-11T10:20:55Z</time>
      </trkpt>
      <trkpt lat="43.59429" lon="6.30592">
        <ele>654</ele>
        <time>2022-12-11T10:20:56Z</time>
      </trkpt>
      <trkpt lat="43.59429" lon="6.30593">
        <ele>654</ele>
        <time>2022-12-11T10:20:57Z</time>
      </trkpt>
      <trkpt lat="43.59429" lon="6.30595">
        <ele>653</ele>
        <time>2022-12-11T10:20:58Z</time>
      </trkpt>
      <trkpt lat="43.59429" lon="6.30597">
        <ele>653</ele>
        <time>2022-12-11T10:20:59Z</time>
      </trkpt>
      <trkpt lat="43.59429" lon="6.30598">
        <ele>653</ele>
        <time>2022-12-11T10:21:00Z</time>
      </trkpt>
      <trkpt lat="43.59428" lon="6.306">
        <ele>653</ele>
        <time>2022-12-11T10:21:01Z</time>
      </trkpt>
      <trkpt lat="43.59428" lon="6.30601">
        <ele>653</ele>
        <time>2022-12-11T10:21:02Z</time>
      </trkpt>
      <trkpt lat="43.59428" lon="6.30603">
        <ele>653</ele>
        <time>2022-12-11T10:21:03Z</time>
      </trkpt>
      <trkpt lat="43.59428" lon="6.30605">
        <ele>653</ele>
        <time>2022-12-11T10:21:04Z</time>
      </trkpt>
      <trkpt lat="43.59427" lon="6.30606">
        <ele>653</ele>
        <time>2022-12-11T10:21:05Z</time>
      </trkpt>
      <trkpt lat="43.59427" lon="6.30608">
        <ele>653</ele>
        <time>2022-12-11T10:21:06Z</time>
      </trkpt>
      <trkpt lat="43.59427" lon="6.3061">
        <ele>653</ele>
        <time>2022-12-11T10:21:07Z</time>
      </trkpt>
      <trkpt lat="43.59427" lon="6.30611">
        <ele>653</ele>
        <time>2022-12-11T10:21:08Z</time>
      </trkpt>
      <trkpt lat="43.59427" lon="6.30613">
        <ele>653</ele>
        <time>2022-12-11T10:21:09Z</time>
      </trkpt>
      <trkpt lat="43.59427" lon="6.30614">
        <ele>653</ele>
        <time>2022-12-11T10:21:10Z</time>
      </trkpt>
      <trkpt lat="43.59427" lon="6.30616">
        <ele>653</ele>
        <time>2022-12-11T10:21:11Z</time>
      </trkpt>
      <trkpt lat="43.59427" lon="6.30617">
        <ele>653</ele>
        <time>2022-12-11T10:21:12Z</time>
      </trkpt>
      <trkpt lat="43.59427" lon="6.30618">
        <ele>653</ele>
        <time>2022-12-11T10:21:13Z</time>
      </trkpt>
      <trkpt lat="43.59427" lon="6.3062">
        <ele>653</ele>
        <time>2022-12-11T10:21:14Z</time>
      </trkpt>
      <trkpt lat="43.59427" lon="6.30621">
        <ele>653</ele>
        <time>2022-12-11T10:21:15Z</time>
      </trkpt>
      <trkpt lat="43.59426" lon="6.30622">
        <ele>653</ele>
        <time>2022-12-11T10:21:16Z</time>
      </trkpt>
      <trkpt lat="43.59426" lon="6.30623">
        <ele>653</ele>
        <time>2022-12-11T10:21:17Z</time>
      </trkpt>
      <trkpt lat="43.59426" lon="6.30625">
        <ele>653</ele>
        <time>2022-12-11T10:21:18Z</time>
      </trkpt>
      <trkpt lat="43.59425" lon="6.30626">
        <ele>653</ele>
        <time>2022-12-11T10:21:19Z</time>
      </trkpt>
      <trkpt lat="43.59424" lon="6.30627">
        <ele>653</ele>
        <time>2022-12-11T10:21:20Z</time>
      </trkpt>
      <trkpt lat="43.59423" lon="6.30628">
        <ele>653</ele>
        <time>2022-12-11T10:21:21Z</time>
      </trkpt>
      <trkpt lat="43.59423" lon="6.30629">
        <ele>653</ele>
        <time>2022-12-11T10:21:22Z</time>
      </trkpt>
      <trkpt lat="43.59422" lon="6.30631">
        <ele>653</ele>
        <time>2022-12-11T10:21:23Z</time>
      </trkpt>
      <trkpt lat="43.59421" lon="6.30632">
        <ele>653</ele>
        <time>2022-12-11T10:21:24Z</time>
      </trkpt>
      <trkpt lat="43.59421" lon="6.30633">
        <ele>653</ele>
        <time>2022-12-11T10:21:25Z</time>
      </trkpt>
      <trkpt lat="43.59419" lon="6.30635">
        <ele>653</ele>
        <time>2022-12-11T10:21:26Z</time>
      </trkpt>
      <trkpt lat="43.59418" lon="6.30636">
        <ele>654</ele>
        <time>2022-12-11T10:21:27Z</time>
      </trkpt>
      <trkpt lat="43.59417" lon="6.30638">
        <ele>654</ele>
        <time>2022-12-11T10:21:28Z</time>
      </trkpt>
      <trkpt lat="43.59416" lon="6.30639">
        <ele>654</ele>
        <time>2022-12-11T10:21:29Z</time>
      </trkpt>
      <trkpt lat="43.59414" lon="6.3064">
        <ele>654</ele>
        <time>2022-12-11T10:21:30Z</time>
      </trkpt>
      <trkpt lat="43.59413" lon="6.3064">
        <ele>654</ele>
        <time>2022-12-11T10:21:31Z</time>
      </trkpt>
      <trkpt lat="43.59412" lon="6.3064">
        <ele>654</ele>
        <time>2022-12-11T10:21:32Z</time>
      </trkpt>
      <trkpt lat="43.5941" lon="6.30641">
        <ele>654</ele>
        <time>2022-12-11T10:21:33Z</time>
      </trkpt>
      <trkpt lat="43.59409" lon="6.30641">
        <ele>654</ele>
        <time>2022-12-11T10:21:34Z</time>
      </trkpt>
      <trkpt lat="43.59408" lon="6.3064">
        <ele>654</ele>
        <time>2022-12-11T10:21:35Z</time>
      </trkpt>
      <trkpt lat="43.59407" lon="6.3064">
        <ele>654</ele>
        <time>2022-12-11T10:21:36Z</time>
      </trkpt>
      <trkpt lat="43.59406" lon="6.30641">
        <ele>654</ele>
        <time>2022-12-11T10:21:37Z</time>
      </trkpt>
      <trkpt lat="43.59405" lon="6.30641">
        <ele>655</ele>
        <time>2022-12-11T10:21:38Z</time>
      </trkpt>
      <trkpt lat="43.59404" lon="6.30642">
        <ele>655</ele>
        <time>2022-12-11T10:21:39Z</time>
      </trkpt>
      <trkpt lat="43.59403" lon="6.30642">
        <ele>655</ele>
        <time>2022-12-11T10:21:40Z</time>
      </trkpt>
      <trkpt lat="43.59402" lon="6.30643">
        <ele>655</ele>
        <time>2022-12-11T10:21:41Z</time>
      </trkpt>
      <trkpt lat="43.59402" lon="6.30644">
        <ele>656</ele>
        <time>2022-12-11T10:21:42Z</time>
      </trkpt>
      <trkpt lat="43.59401" lon="6.30644">
        <ele>656</ele>
        <time>2022-12-11T10:21:43Z</time>
      </trkpt>
      <trkpt lat="43.594" lon="6.30644">
        <ele>657</ele>
        <time>2022-12-11T10:21:44Z</time>
      </trkpt>
      <trkpt lat="43.59399" lon="6.30645">
        <ele>657</ele>
        <time>2022-12-11T10:21:45Z</time>
      </trkpt>
      <trkpt lat="43.59398" lon="6.30645">
        <ele>657</ele>
        <time>2022-12-11T10:21:46Z</time>
      </trkpt>
      <trkpt lat="43.59397" lon="6.30646">
        <ele>657</ele>
        <time>2022-12-11T10:21:47Z</time>
      </trkpt>
      <trkpt lat="43.59396" lon="6.30646">
        <ele>657</ele>
        <time>2022-12-11T10:21:48Z</time>
      </trkpt>
      <trkpt lat="43.59395" lon="6.30647">
        <ele>657</ele>
        <time>2022-12-11T10:21:49Z</time>
      </trkpt>
      <trkpt lat="43.59394" lon="6.30647">
        <ele>658</ele>
        <time>2022-12-11T10:21:50Z</time>
      </trkpt>
      <trkpt lat="43.59393" lon="6.30648">
        <ele>659</ele>
        <time>2022-12-11T10:21:51Z</time>
      </trkpt>
      <trkpt lat="43.59392" lon="6.30649">
        <ele>659</ele>
        <time>2022-12-11T10:21:52Z</time>
      </trkpt>
      <trkpt lat="43.59391" lon="6.30649">
        <ele>659</ele>
        <time>2022-12-11T10:21:53Z</time>
      </trkpt>
      <trkpt lat="43.59391" lon="6.30649">
        <ele>659</ele>
        <time>2022-12-11T10:21:54Z</time>
      </trkpt>
      <trkpt lat="43.5939" lon="6.30649">
        <ele>660</ele>
        <time>2022-12-11T10:21:55Z</time>
      </trkpt>
      <trkpt lat="43.59389" lon="6.30649">
        <ele>660</ele>
        <time>2022-12-11T10:21:56Z</time>
      </trkpt>
      <trkpt lat="43.59388" lon="6.30649">
        <ele>660</ele>
        <time>2022-12-11T10:21:57Z</time>
      </trkpt>
      <trkpt lat="43.59387" lon="6.3065">
        <ele>660</ele>
        <time>2022-12-11T10:21:58Z</time>
      </trkpt>
      <trkpt lat="43.59386" lon="6.3065">
        <ele>660</ele>
        <time>2022-12-11T10:21:59Z</time>
      </trkpt>
      <trkpt lat="43.59384" lon="6.3065">
        <ele>661</ele>
        <time>2022-12-11T10:22:00Z</time>
      </trkpt>
      <trkpt lat="43.59383" lon="6.30651">
        <ele>661</ele>
        <time>2022-12-11T10:22:01Z</time>
      </trkpt>
      <trkpt lat="43.59382" lon="6.30651">
        <ele>661</ele>
        <time>2022-12-11T10:22:02Z</time>
      </trkpt>
      <trkpt lat="43.59381" lon="6.30652">
        <ele>661</ele>
        <time>2022-12-11T10:22:03Z</time>
      </trkpt>
      <trkpt lat="43.5938" lon="6.30653">
        <ele>661</ele>
        <time>2022-12-11T10:22:04Z</time>
      </trkpt>
      <trkpt lat="43.59379" lon="6.30654">
        <ele>661</ele>
        <time>2022-12-11T10:22:05Z</time>
      </trkpt>
      <trkpt lat="43.59378" lon="6.30655">
        <ele>661</ele>
        <time>2022-12-11T10:22:06Z</time>
      </trkpt>
      <trkpt lat="43.59378" lon="6.30656">
        <ele>661</ele>
        <time>2022-12-11T10:22:07Z</time>
      </trkpt>
      <trkpt lat="43.59378" lon="6.30658">
        <ele>661</ele>
        <time>2022-12-11T10:22:08Z</time>
      </trkpt>
      <trkpt lat="43.59379" lon="6.30659">
        <ele>661</ele>
        <time>2022-12-11T10:22:09Z</time>
      </trkpt>
      <trkpt lat="43.5938" lon="6.3066">
        <ele>661</ele>
        <time>2022-12-11T10:22:10Z</time>
      </trkpt>
      <trkpt lat="43.59381" lon="6.30661">
        <ele>661</ele>
        <time>2022-12-11T10:22:11Z</time>
      </trkpt>
      <trkpt lat="43.59382" lon="6.30661">
        <ele>661</ele>
        <time>2022-12-11T10:22:12Z</time>
      </trkpt>
      <trkpt lat="43.59383" lon="6.30662">
        <ele>661</ele>
        <time>2022-12-11T10:22:13Z</time>
      </trkpt>
      <trkpt lat="43.59384" lon="6.30663">
        <ele>661</ele>
        <time>2022-12-11T10:22:14Z</time>
      </trkpt>
      <trkpt lat="43.59385" lon="6.30664">
        <ele>661</ele>
        <time>2022-12-11T10:22:15Z</time>
      </trkpt>
      <trkpt lat="43.59386" lon="6.30665">
        <ele>661</ele>
        <time>2022-12-11T10:22:16Z</time>
      </trkpt>
      <trkpt lat="43.59387" lon="6.30665">
        <ele>661</ele>
        <time>2022-12-11T10:22:17Z</time>
      </trkpt>
      <trkpt lat="43.59388" lon="6.30665">
        <ele>661</ele>
        <time>2022-12-11T10:22:18Z</time>
      </trkpt>
      <trkpt lat="43.59389" lon="6.30666">
        <ele>661</ele>
        <time>2022-12-11T10:22:19Z</time>
      </trkpt>
      <trkpt lat="43.5939" lon="6.30666">
        <ele>661</ele>
        <time>2022-12-11T10:22:20Z</time>
      </trkpt>
      <trkpt lat="43.59391" lon="6.30666">
        <ele>661</ele>
        <time>2022-12-11T10:22:21Z</time>
      </trkpt>
      <trkpt lat="43.59392" lon="6.30667">
        <ele>661</ele>
        <time>2022-12-11T10:22:22Z</time>
      </trkpt>
      <trkpt lat="43.59393" lon="6.30667">
        <ele>661</ele>
        <time>2022-12-11T10:22:23Z</time>
      </trkpt>
      <trkpt lat="43.59394" lon="6.30668">
        <ele>661</ele>
        <time>2022-12-11T10:22:24Z</time>
      </trkpt>
      <trkpt lat="43.59395" lon="6.30668">
        <ele>661</ele>
        <time>2022-12-11T10:22:25Z</time>
      </trkpt>
      <trkpt lat="43.59396" lon="6.30669">
        <ele>661</ele>
        <time>2022-12-11T10:22:26Z</time>
      </trkpt>
      <trkpt lat="43.59397" lon="6.3067">
        <ele>661</ele>
        <time>2022-12-11T10:22:27Z</time>
      </trkpt>
      <trkpt lat="43.59398" lon="6.30671">
        <ele>661</ele>
        <time>2022-12-11T10:22:28Z</time>
      </trkpt>
      <trkpt lat="43.59399" lon="6.30672">
        <ele>661</ele>
        <time>2022-12-11T10:22:29Z</time>
      </trkpt>
      <trkpt lat="43.594" lon="6.30673">
        <ele>661</ele>
        <time>2022-12-11T10:22:30Z</time>
      </trkpt>
      <trkpt lat="43.59401" lon="6.30674">
        <ele>661</ele>
        <time>2022-12-11T10:22:31Z</time>
      </trkpt>
      <trkpt lat="43.59402" lon="6.30675">
        <ele>662</ele>
        <time>2022-12-11T10:22:32Z</time>
      </trkpt>
      <trkpt lat="43.59403" lon="6.30676">
        <ele>662</ele>
        <time>2022-12-11T10:22:33Z</time>
      </trkpt>
      <trkpt lat="43.59403" lon="6.30677">
        <ele>662</ele>
        <time>2022-12-11T10:22:34Z</time>
      </trkpt>
      <trkpt lat="43.59404" lon="6.30678">
        <ele>662</ele>
        <time>2022-12-11T10:22:35Z</time>
      </trkpt>
      <trkpt lat="43.59405" lon="6.30679">
        <ele>662</ele>
        <time>2022-12-11T10:22:36Z</time>
      </trkpt>
      <trkpt lat="43.59406" lon="6.30679">
        <ele>662</ele>
        <time>2022-12-11T10:22:37Z</time>
      </trkpt>
      <trkpt lat="43.59407" lon="6.3068">
        <ele>662</ele>
        <time>2022-12-11T10:22:38Z</time>
      </trkpt>
      <trkpt lat="43.59408" lon="6.30681">
        <ele>662</ele>
        <time>2022-12-11T10:22:39Z</time>
      </trkpt>
      <trkpt lat="43.59409" lon="6.30681">
        <ele>662</ele>
        <time>2022-12-11T10:22:40Z</time>
      </trkpt>
      <trkpt lat="43.5941" lon="6.30682">
        <ele>662</ele>
        <time>2022-12-11T10:22:41Z</time>
      </trkpt>
      <trkpt lat="43.59411" lon="6.30682">
        <ele>662</ele>
        <time>2022-12-11T10:22:42Z</time>
      </trkpt>
      <trkpt lat="43.59412" lon="6.30683">
        <ele>662</ele>
        <time>2022-12-11T10:22:43Z</time>
      </trkpt>
      <trkpt lat="43.59413" lon="6.30683">
        <ele>662</ele>
        <time>2022-12-11T10:22:44Z</time>
      </trkpt>
      <trkpt lat="43.59414" lon="6.30684">
        <ele>662</ele>
        <time>2022-12-11T10:22:45Z</time>
      </trkpt>
      <trkpt lat="43.59415" lon="6.30684">
        <ele>662</ele>
        <time>2022-12-11T10:22:46Z</time>
      </trkpt>
      <trkpt lat="43.59416" lon="6.30685">
        <ele>662</ele>
        <time>2022-12-11T10:22:47Z</time>
      </trkpt>
      <trkpt lat="43.59417" lon="6.30686">
        <ele>662</ele>
        <time>2022-12-11T10:22:48Z</time>
      </trkpt>
      <trkpt lat="43.59418" lon="6.30686">
        <ele>662</ele>
        <time>2022-12-11T10:22:49Z</time>
      </trkpt>
      <trkpt lat="43.59419" lon="6.30687">
        <ele>662</ele>
        <time>2022-12-11T10:22:50Z</time>
      </trkpt>
      <trkpt lat="43.5942" lon="6.30688">
        <ele>661</ele>
        <time>2022-12-11T10:22:51Z</time>
      </trkpt>
      <trkpt lat="43.59421" lon="6.30688">
        <ele>661</ele>
        <time>2022-12-11T10:22:52Z</time>
      </trkpt>
      <trkpt lat="43.59422" lon="6.30689">
        <ele>661</ele>
        <time>2022-12-11T10:22:53Z</time>
      </trkpt>
      <trkpt lat="43.59423" lon="6.3069">
        <ele>661</ele>
        <time>2022-12-11T10:22:54Z</time>
      </trkpt>
      <trkpt lat="43.59424" lon="6.3069">
        <ele>660</ele>
        <time>2022-12-11T10:22:55Z</time>
      </trkpt>
      <trkpt lat="43.59425" lon="6.30691">
        <ele>660</ele>
        <time>2022-12-11T10:22:56Z</time>
      </trkpt>
      <trkpt lat="43.59427" lon="6.30691">
        <ele>660</ele>
        <time>2022-12-11T10:22:57Z</time>
      </trkpt>
      <trkpt lat="43.59428" lon="6.30692">
        <ele>660</ele>
        <time>2022-12-11T10:22:58Z</time>
      </trkpt>
      <trkpt lat="43.59429" lon="6.30692">
        <ele>660</ele>
        <time>2022-12-11T10:22:59Z</time>
      </trkpt>
      <trkpt lat="43.5943" lon="6.30692">
        <ele>661</ele>
        <time>2022-12-11T10:23:00Z</time>
      </trkpt>
      <trkpt lat="43.59431" lon="6.30691">
        <ele>661</ele>
        <time>2022-12-11T10:23:01Z</time>
      </trkpt>
      <trkpt lat="43.59433" lon="6.30691">
        <ele>661</ele>
        <time>2022-12-11T10:23:02Z</time>
      </trkpt>
      <trkpt lat="43.59433" lon="6.30691">
        <ele>661</ele>
        <time>2022-12-11T10:23:03Z</time>
      </trkpt>
      <trkpt lat="43.59434" lon="6.30691">
        <ele>661</ele>
        <time>2022-12-11T10:23:04Z</time>
      </trkpt>
      <trkpt lat="43.59436" lon="6.30691">
        <ele>661</ele>
        <time>2022-12-11T10:23:05Z</time>
      </trkpt>
      <trkpt lat="43.59437" lon="6.30691">
        <ele>661</ele>
        <time>2022-12-11T10:23:06Z</time>
      </trkpt>
      <trkpt lat="43.59438" lon="6.30691">
        <ele>662</ele>
        <time>2022-12-11T10:23:07Z</time>
      </trkpt>
      <trkpt lat="43.59439" lon="6.30691">
        <ele>662</ele>
        <time>2022-12-11T10:23:08Z</time>
      </trkpt>
      <trkpt lat="43.5944" lon="6.30691">
        <ele>662</ele>
        <time>2022-12-11T10:23:09Z</time>
      </trkpt>
      <trkpt lat="43.59441" lon="6.30692">
        <ele>662</ele>
        <time>2022-12-11T10:23:10Z</time>
      </trkpt>
      <trkpt lat="43.59442" lon="6.30692">
        <ele>662</ele>
        <time>2022-12-11T10:23:11Z</time>
      </trkpt>
      <trkpt lat="43.59443" lon="6.30693">
        <ele>662</ele>
        <time>2022-12-11T10:23:12Z</time>
      </trkpt>
      <trkpt lat="43.59444" lon="6.30694">
        <ele>662</ele>
        <time>2022-12-11T10:23:13Z</time>
      </trkpt>
      <trkpt lat="43.59445" lon="6.30695">
        <ele>662</ele>
        <time>2022-12-11T10:23:14Z</time>
      </trkpt>
      <trkpt lat="43.59445" lon="6.30696">
        <ele>662</ele>
        <time>2022-12-11T10:23:15Z</time>
      </trkpt>
      <trkpt lat="43.59446" lon="6.30697">
        <ele>662</ele>
        <time>2022-12-11T10:23:16Z</time>
      </trkpt>
      <trkpt lat="43.59447" lon="6.30698">
        <ele>662</ele>
        <time>2022-12-11T10:23:17Z</time>
      </trkpt>
      <trkpt lat="43.59448" lon="6.30699">
        <ele>662</ele>
        <time>2022-12-11T10:23:18Z</time>
      </trkpt>
      <trkpt lat="43.59449" lon="6.307">
        <ele>662</ele>
        <time>2022-12-11T10:23:19Z</time>
      </trkpt>
      <trkpt lat="43.59449" lon="6.30701">
        <ele>662</ele>
        <time>2022-12-11T10:23:20Z</time>
      </trkpt>
      <trkpt lat="43.5945" lon="6.30702">
        <ele>662</ele>
        <time>2022-12-11T10:23:21Z</time>
      </trkpt>
      <trkpt lat="43.59451" lon="6.30703">
        <ele>662</ele>
        <time>2022-12-11T10:23:22Z</time>
      </trkpt>
      <trkpt lat="43.59452" lon="6.30704">
        <ele>662</ele>
        <time>2022-12-11T10:23:23Z</time>
      </trkpt>
      <trkpt lat="43.59452" lon="6.30705">
        <ele>662</ele>
        <time>2022-12-11T10:23:24Z</time>
      </trkpt>
      <trkpt lat="43.59453" lon="6.30706">
        <ele>662</ele>
        <time>2022-12-11T10:23:25Z</time>
      </trkpt>
      <trkpt lat="43.59454" lon="6.30707">
        <ele>662</ele>
        <time>2022-12-11T10:23:26Z</time>
      </trkpt>
      <trkpt lat="43.59454" lon="6.30708">
        <ele>662</ele>
        <time>2022-12-11T10:23:27Z</time>
      </trkpt>
      <trkpt lat="43.59455" lon="6.30708">
        <ele>662</ele>
        <time>2022-12-11T10:23:28Z</time>
      </trkpt>
      <trkpt lat="43.59456" lon="6.30709">
        <ele>663</ele>
        <time>2022-12-11T10:23:29Z</time>
      </trkpt>
      <trkpt lat="43.59457" lon="6.30709">
        <ele>663</ele>
        <time>2022-12-11T10:23:30Z</time>
      </trkpt>
      <trkpt lat="43.59458" lon="6.3071">
        <ele>663</ele>
        <time>2022-12-11T10:23:31Z</time>
      </trkpt>
      <trkpt lat="43.59459" lon="6.30711">
        <ele>662</ele>
        <time>2022-12-11T10:23:32Z</time>
      </trkpt>
      <trkpt lat="43.59459" lon="6.30712">
        <ele>662</ele>
        <time>2022-12-11T10:23:33Z</time>
      </trkpt>
      <trkpt lat="43.5946" lon="6.30714">
        <ele>662</ele>
        <time>2022-12-11T10:23:34Z</time>
      </trkpt>
      <trkpt lat="43.59461" lon="6.30715">
        <ele>662</ele>
        <time>2022-12-11T10:23:35Z</time>
      </trkpt>
      <trkpt lat="43.59462" lon="6.30716">
        <ele>662</ele>
        <time>2022-12-11T10:23:36Z</time>
      </trkpt>
      <trkpt lat="43.59463" lon="6.30717">
        <ele>662</ele>
        <time>2022-12-11T10:23:37Z</time>
      </trkpt>
      <trkpt lat="43.59464" lon="6.30717">
        <ele>661</ele>
        <time>2022-12-11T10:23:38Z</time>
      </trkpt>
      <trkpt lat="43.59464" lon="6.30718">
        <ele>661</ele>
        <time>2022-12-11T10:23:39Z</time>
      </trkpt>
      <trkpt lat="43.59465" lon="6.30717">
        <ele>661</ele>
        <time>2022-12-11T10:23:40Z</time>
      </trkpt>
      <trkpt lat="43.59466" lon="6.30717">
        <ele>661</ele>
        <time>2022-12-11T10:23:41Z</time>
      </trkpt>
      <trkpt lat="43.59466" lon="6.30717">
        <ele>661</ele>
        <time>2022-12-11T10:23:42Z</time>
      </trkpt>
      <trkpt lat="43.59466" lon="6.30717">
        <ele>661</ele>
        <time>2022-12-11T10:23:43Z</time>
      </trkpt>
      <trkpt lat="43.59467" lon="6.30717">
        <ele>661</ele>
        <time>2022-12-11T10:23:44Z</time>
      </trkpt>
      <trkpt lat="43.59466" lon="6.30718">
        <ele>661</ele>
        <time>2022-12-11T10:23:45Z</time>
      </trkpt>
      <trkpt lat="43.59466" lon="6.30718">
        <ele>661</ele>
        <time>2022-12-11T10:23:46Z</time>
      </trkpt>
      <trkpt lat="43.59465" lon="6.30719">
        <ele>661</ele>
        <time>2022-12-11T10:23:47Z</time>
      </trkpt>
      <trkpt lat="43.59465" lon="6.3072">
        <ele>661</ele>
        <time>2022-12-11T10:23:48Z</time>
      </trkpt>
      <trkpt lat="43.59464" lon="6.30721">
        <ele>661</ele>
        <time>2022-12-11T10:23:49Z</time>
      </trkpt>
      <trkpt lat="43.59464" lon="6.30721">
        <ele>661</ele>
        <time>2022-12-11T10:23:50Z</time>
      </trkpt>
      <trkpt lat="43.59464" lon="6.30721">
        <ele>661</ele>
        <time>2022-12-11T10:23:51Z</time>
      </trkpt>
      <trkpt lat="43.59464" lon="6.30721">
        <ele>661</ele>
        <time>2022-12-11T10:23:52Z</time>
      </trkpt>
      <trkpt lat="43.59464" lon="6.30721">
        <ele>661</ele>
        <time>2022-12-11T10:23:53Z</time>
      </trkpt>
      <trkpt lat="43.59464" lon="6.30721">
        <ele>661</ele>
        <time>2022-12-11T10:23:54Z</time>
      </trkpt>
      <trkpt lat="43.59464" lon="6.30721">
        <ele>661</ele>
        <time>2022-12-11T10:23:55Z</time>
      </trkpt>
      <trkpt lat="43.59464" lon="6.30721">
        <ele>661</ele>
        <time>2022-12-11T10:23:56Z</time>
      </trkpt>
      <trkpt lat="43.59464" lon="6.30721">
        <ele>661</ele>
        <time>2022-12-11T10:23:57Z</time>
      </trkpt>
      <trkpt lat="43.59464" lon="6.30721">
        <ele>661</ele>
        <time>2022-12-11T10:23:58Z</time>
      </trkpt>
      <trkpt lat="43.59464" lon="6.30721">
        <ele>661</ele>
        <time>2022-12-11T10:23:59Z</time>
      </trkpt>
      <trkpt lat="43.59464" lon="6.30721">
        <ele>661</ele>
        <time>2022-12-11T10:24:00Z</time>
      </trkpt>
      <trkpt lat="43.59464" lon="6.30721">
        <ele>661</ele>
        <time>2022-12-11T10:24:01Z</time>
      </trkpt>
      <trkpt lat="43.59464" lon="6.30722">
        <ele>661</ele>
        <time>2022-12-11T10:24:02Z</time>
      </trkpt>
      <trkpt lat="43.59465" lon="6.30722">
        <ele>661</ele>
        <time>2022-12-11T10:24:03Z</time>
      </trkpt>
      <trkpt lat="43.59465" lon="6.30723">
        <ele>661</ele>
        <time>2022-12-11T10:24:04Z</time>
      </trkpt>
      <trkpt lat="43.59466" lon="6.30724">
        <ele>661</ele>
        <time>2022-12-11T10:24:05Z</time>
      </trkpt>
      <trkpt lat="43.59466" lon="6.30725">
        <ele>661</ele>
        <time>2022-12-11T10:24:06Z</time>
      </trkpt>
      <trkpt lat="43.59466" lon="6.30725">
        <ele>661</ele>
        <time>2022-12-11T10:24:07Z</time>
      </trkpt>
      <trkpt lat="43.59466" lon="6.30725">
        <ele>661</ele>
        <time>2022-12-11T10:24:08Z</time>
      </trkpt>
      <trkpt lat="43.59466" lon="6.30725">
        <ele>661</ele>
        <time>2022-12-11T10:24:09Z</time>
      </trkpt>
      <trkpt lat="43.59466" lon="6.30726">
        <ele>661</ele>
        <time>2022-12-11T10:24:10Z</time>
      </trkpt>
      <trkpt lat="43.59467" lon="6.30726">
        <ele>662</ele>
        <time>2022-12-11T10:24:11Z</time>
      </trkpt>
      <trkpt lat="43.59467" lon="6.30727">
        <ele>662</ele>
        <time>2022-12-11T10:24:12Z</time>
      </trkpt>
      <trkpt lat="43.59468" lon="6.30729">
        <ele>662</ele>
        <time>2022-12-11T10:24:13Z</time>
      </trkpt>
      <trkpt lat="43.59468" lon="6.30731">
        <ele>662</ele>
        <time>2022-12-11T10:24:14Z</time>
      </trkpt>
      <trkpt lat="43.59468" lon="6.30732">
        <ele>662</ele>
        <time>2022-12-11T10:24:15Z</time>
      </trkpt>
      <trkpt lat="43.59468" lon="6.30733">
        <ele>662</ele>
        <time>2022-12-11T10:24:16Z</time>
      </trkpt>
      <trkpt lat="43.59468" lon="6.30734">
        <ele>662</ele>
        <time>2022-12-11T10:24:17Z</time>
      </trkpt>
      <trkpt lat="43.59468" lon="6.30735">
        <ele>662</ele>
        <time>2022-12-11T10:24:18Z</time>
      </trkpt>
      <trkpt lat="43.59468" lon="6.30736">
        <ele>662</ele>
        <time>2022-12-11T10:24:19Z</time>
      </trkpt>
      <trkpt lat="43.59468" lon="6.30737">
        <ele>662</ele>
        <time>2022-12-11T10:24:20Z</time>
      </trkpt>
      <trkpt lat="43.59469" lon="6.30738">
        <ele>662</ele>
        <time>2022-12-11T10:24:21Z</time>
      </trkpt>
      <trkpt lat="43.59469" lon="6.3074">
        <ele>662</ele>
        <time>2022-12-11T10:24:22Z</time>
      </trkpt>
      <trkpt lat="43.59469" lon="6.30743">
        <ele>662</ele>
        <time>2022-12-11T10:24:23Z</time>
      </trkpt>
      <trkpt lat="43.5947" lon="6.30745">
        <ele>662</ele>
        <time>2022-12-11T10:24:24Z</time>
      </trkpt>
      <trkpt lat="43.59471" lon="6.30746">
        <ele>662</ele>
        <time>2022-12-11T10:24:25Z</time>
      </trkpt>
      <trkpt lat="43.59471" lon="6.30748">
        <ele>662</ele>
        <time>2022-12-11T10:24:26Z</time>
      </trkpt>
      <trkpt lat="43.59472" lon="6.30749">
        <ele>662</ele>
        <time>2022-12-11T10:24:27Z</time>
      </trkpt>
      <trkpt lat="43.59472" lon="6.30749">
        <ele>662</ele>
        <time>2022-12-11T10:24:28Z</time>
      </trkpt>
      <trkpt lat="43.59472" lon="6.3075">
        <ele>662</ele>
        <time>2022-12-11T10:24:29Z</time>
      </trkpt>
      <trkpt lat="43.59472" lon="6.30751">
        <ele>662</ele>
        <time>2022-12-11T10:24:30Z</time>
      </trkpt>
      <trkpt lat="43.59473" lon="6.30751">
        <ele>662</ele>
        <time>2022-12-11T10:24:31Z</time>
      </trkpt>
      <trkpt lat="43.59473" lon="6.30752">
        <ele>662</ele>
        <time>2022-12-11T10:24:32Z</time>
      </trkpt>
      <trkpt lat="43.59474" lon="6.30753">
        <ele>663</ele>
        <time>2022-12-11T10:24:33Z</time>
      </trkpt>
      <trkpt lat="43.59474" lon="6.30755">
        <ele>663</ele>
        <time>2022-12-11T10:24:34Z</time>
      </trkpt>
      <trkpt lat="43.59474" lon="6.30756">
        <ele>663</ele>
        <time>2022-12-11T10:24:35Z</time>
      </trkpt>
      <trkpt lat="43.59475" lon="6.30758">
        <ele>663</ele>
        <time>2022-12-11T10:24:36Z</time>
      </trkpt>
      <trkpt lat="43.59475" lon="6.30759">
        <ele>663</ele>
        <time>2022-12-11T10:24:37Z</time>
      </trkpt>
      <trkpt lat="43.59476" lon="6.3076">
        <ele>664</ele>
        <time>2022-12-11T10:24:38Z</time>
      </trkpt>
      <trkpt lat="43.59476" lon="6.30761">
        <ele>664</ele>
        <time>2022-12-11T10:24:39Z</time>
      </trkpt>
      <trkpt lat="43.59476" lon="6.30763">
        <ele>664</ele>
        <time>2022-12-11T10:24:40Z</time>
      </trkpt>
      <trkpt lat="43.59477" lon="6.30764">
        <ele>665</ele>
        <time>2022-12-11T10:24:41Z</time>
      </trkpt>
      <trkpt lat="43.59477" lon="6.30765">
        <ele>665</ele>
        <time>2022-12-11T10:24:42Z</time>
      </trkpt>
      <trkpt lat="43.59478" lon="6.30766">
        <ele>665</ele>
        <time>2022-12-11T10:24:43Z</time>
      </trkpt>
      <trkpt lat="43.59478" lon="6.30766">
        <ele>665</ele>
        <time>2022-12-11T10:24:44Z</time>
      </trkpt>
      <trkpt lat="43.59479" lon="6.30768">
        <ele>665</ele>
        <time>2022-12-11T10:24:45Z</time>
      </trkpt>
      <trkpt lat="43.59481" lon="6.30771">
        <ele>666</ele>
        <time>2022-12-11T10:24:46Z</time>
      </trkpt>
      <trkpt lat="43.59482" lon="6.30773">
        <ele>666</ele>
        <time>2022-12-11T10:24:47Z</time>
      </trkpt>
      <trkpt lat="43.59483" lon="6.30774">
        <ele>666</ele>
        <time>2022-12-11T10:24:48Z</time>
      </trkpt>
      <trkpt lat="43.59485" lon="6.30776">
        <ele>666</ele>
        <time>2022-12-11T10:24:49Z</time>
      </trkpt>
      <trkpt lat="43.59486" lon="6.30778">
        <ele>667</ele>
        <time>2022-12-11T10:24:50Z</time>
      </trkpt>
      <trkpt lat="43.59487" lon="6.30779">
        <ele>667</ele>
        <time>2022-12-11T10:24:51Z</time>
      </trkpt>
      <trkpt lat="43.59487" lon="6.3078">
        <ele>667</ele>
        <time>2022-12-11T10:24:52Z</time>
      </trkpt>
      <trkpt lat="43.59488" lon="6.30781">
        <ele>667</ele>
        <time>2022-12-11T10:24:53Z</time>
      </trkpt>
      <trkpt lat="43.59489" lon="6.30782">
        <ele>667</ele>
        <time>2022-12-11T10:24:54Z</time>
      </trkpt>
      <trkpt lat="43.5949" lon="6.30783">
        <ele>667</ele>
        <time>2022-12-11T10:24:55Z</time>
      </trkpt>
      <trkpt lat="43.5949" lon="6.30784">
        <ele>667</ele>
        <time>2022-12-11T10:24:56Z</time>
      </trkpt>
      <trkpt lat="43.59491" lon="6.30785">
        <ele>667</ele>
        <time>2022-12-11T10:24:57Z</time>
      </trkpt>
      <trkpt lat="43.59491" lon="6.30785">
        <ele>667</ele>
        <time>2022-12-11T10:24:58Z</time>
      </trkpt>
      <trkpt lat="43.59492" lon="6.30786">
        <ele>667</ele>
        <time>2022-12-11T10:24:59Z</time>
      </trkpt>
      <trkpt lat="43.59492" lon="6.30787">
        <ele>667</ele>
        <time>2022-12-11T10:25:00Z</time>
      </trkpt>
      <trkpt lat="43.59492" lon="6.30788">
        <ele>667</ele>
        <time>2022-12-11T10:25:01Z</time>
      </trkpt>
      <trkpt lat="43.59492" lon="6.30789">
        <ele>667</ele>
        <time>2022-12-11T10:25:02Z</time>
      </trkpt>
      <trkpt lat="43.59492" lon="6.30789">
        <ele>667</ele>
        <time>2022-12-11T10:25:03Z</time>
      </trkpt>
      <trkpt lat="43.59492" lon="6.30789">
        <ele>667</ele>
        <time>2022-12-11T10:25:04Z</time>
      </trkpt>
      <trkpt lat="43.59492" lon="6.30789">
        <ele>667</ele>
        <time>2022-12-11T10:25:05Z</time>
      </trkpt>
      <trkpt lat="43.59491" lon="6.30789">
        <ele>667</ele>
        <time>2022-12-11T10:25:06Z</time>
      </trkpt>
      <trkpt lat="43.59491" lon="6.30789">
        <ele>667</ele>
        <time>2022-12-11T10:25:07Z</time>
      </trkpt>
      <trkpt lat="43.59491" lon="6.30789">
        <ele>667</ele>
        <time>2022-12-11T10:25:08Z</time>
      </trkpt>
      <trkpt lat="43.59491" lon="6.30789">
        <ele>667</ele>
        <time>2022-12-11T10:25:09Z</time>
      </trkpt>
      <trkpt lat="43.59491" lon="6.30789">
        <ele>667</ele>
        <time>2022-12-11T10:25:10Z</time>
      </trkpt>
      <trkpt lat="43.59491" lon="6.30789">
        <ele>667</ele>
        <time>2022-12-11T10:25:11Z</time>
      </trkpt>
      <trkpt lat="43.59491" lon="6.30789">
        <ele>667</ele>
        <time>2022-12-11T10:25:12Z</time>
      </trkpt>
      <trkpt lat="43.59491" lon="6.30789">
        <ele>667</ele>
        <time>2022-12-11T10:25:13Z</time>
      </trkpt>
      <trkpt lat="43.59491" lon="6.30789">
        <ele>667</ele>
        <time>2022-12-11T10:25:14Z</time>
      </trkpt>
      <trkpt lat="43.59491" lon="6.30789">
        <ele>667</ele>
        <time>2022-12-11T10:25:15Z</time>
      </trkpt>
      <trkpt lat="43.59491" lon="6.30789">
        <ele>667</ele>
        <time>2022-12-11T10:25:16Z</time>
      </trkpt>
      <trkpt lat="43.59491" lon="6.30789">
        <ele>667</ele>
        <time>2022-12-11T10:25:17Z</time>
      </trkpt>
      <trkpt lat="43.59491" lon="6.30789">
        <ele>667</ele>
        <time>2022-12-11T10:25:18Z</time>
      </trkpt>
      <trkpt lat="43.59491" lon="6.30789">
        <ele>667</ele>
        <time>2022-12-11T10:25:19Z</time>
      </trkpt>
      <trkpt lat="43.59491" lon="6.30789">
        <ele>667</ele>
        <time>2022-12-11T10:25:20Z</time>
      </trkpt>
      <trkpt lat="43.59491" lon="6.30789">
        <ele>667</ele>
        <time>2022-12-11T10:25:21Z</time>
      </trkpt>
      <trkpt lat="43.59491" lon="6.30789">
        <ele>667</ele>
        <time>2022-12-11T10:25:22Z</time>
      </trkpt>
      <trkpt lat="43.59491" lon="6.30789">
        <ele>667</ele>
        <time>2022-12-11T10:25:23Z</time>
      </trkpt>
      <trkpt lat="43.59491" lon="6.30789">
        <ele>667</ele>
        <time>2022-12-11T10:25:24Z</time>
      </trkpt>
      <trkpt lat="43.59491" lon="6.30789">
        <ele>667</ele>
        <time>2022-12-11T10:25:25Z</time>
      </trkpt>
      <trkpt lat="43.59491" lon="6.30789">
        <ele>667</ele>
        <time>2022-12-11T10:25:26Z</time>
      </trkpt>
      <trkpt lat="43.59491" lon="6.30789">
        <ele>667</ele>
        <time>2022-12-11T10:25:27Z</time>
      </trkpt>
      <trkpt lat="43.59491" lon="6.30789">
        <ele>667</ele>
        <time>2022-12-11T10:25:28Z</time>
      </trkpt>
      <trkpt lat="43.59491" lon="6.30789">
        <ele>667</ele>
        <time>2022-12-11T10:25:29Z</time>
      </trkpt>
      <trkpt lat="43.59491" lon="6.30789">
        <ele>667</ele>
        <time>2022-12-11T10:25:30Z</time>
      </trkpt>
      <trkpt lat="43.59491" lon="6.30789">
        <ele>667</ele>
        <time>2022-12-11T10:25:31Z</time>
      </trkpt>
      <trkpt lat="43.59491" lon="6.30789">
        <ele>667</ele>
        <time>2022-12-11T10:25:32Z</time>
      </trkpt>
      <trkpt lat="43.59491" lon="6.30789">
        <ele>667</ele>
        <time>2022-12-11T10:25:33Z</time>
      </trkpt>
      <trkpt lat="43.59491" lon="6.30789">
        <ele>667</ele>
        <time>2022-12-11T10:25:34Z</time>
      </trkpt>
      <trkpt lat="43.59491" lon="6.30789">
        <ele>667</ele>
        <time>2022-12-11T10:25:35Z</time>
      </trkpt>
      <trkpt lat="43.59491" lon="6.30789">
        <ele>667</ele>
        <time>2022-12-11T10:25:36Z</time>
      </trkpt>
      <trkpt lat="43.59491" lon="6.30789">
        <ele>667</ele>
        <time>2022-12-11T10:25:37Z</time>
      </trkpt>
      <trkpt lat="43.59491" lon="6.30789">
        <ele>667</ele>
        <time>2022-12-11T10:25:38Z</time>
      </trkpt>
      <trkpt lat="43.59491" lon="6.30789">
        <ele>667</ele>
        <time>2022-12-11T10:25:39Z</time>
      </trkpt>
      <trkpt lat="43.59491" lon="6.30789">
        <ele>667</ele>
        <time>2022-12-11T10:25:40Z</time>
      </trkpt>
      <trkpt lat="43.5949" lon="6.30786">
        <ele>667</ele>
        <time>2022-12-11T10:25:41Z</time>
      </trkpt>
      <trkpt lat="43.5949" lon="6.30786">
        <ele>667</ele>
        <time>2022-12-11T10:25:42Z</time>
      </trkpt>
      <trkpt lat="43.5949" lon="6.30786">
        <ele>667</ele>
        <time>2022-12-11T10:25:43Z</time>
      </trkpt>
      <trkpt lat="43.5949" lon="6.30786">
        <ele>667</ele>
        <time>2022-12-11T10:25:44Z</time>
      </trkpt>
      <trkpt lat="43.5949" lon="6.30786">
        <ele>667</ele>
        <time>2022-12-11T10:25:45Z</time>
      </trkpt>
      <trkpt lat="43.5949" lon="6.30786">
        <ele>667</ele>
        <time>2022-12-11T10:25:46Z</time>
      </trkpt>
      <trkpt lat="43.5949" lon="6.30786">
        <ele>667</ele>
        <time>2022-12-11T10:25:47Z</time>
      </trkpt>
      <trkpt lat="43.5949" lon="6.30786">
        <ele>667</ele>
        <time>2022-12-11T10:25:48Z</time>
      </trkpt>
      <trkpt lat="43.5949" lon="6.30786">
        <ele>667</ele>
        <time>2022-12-11T10:25:49Z</time>
      </trkpt>
      <trkpt lat="43.5949" lon="6.30786">
        <ele>667</ele>
        <time>2022-12-11T10:25:50Z</time>
      </trkpt>
      <trkpt lat="43.5949" lon="6.30786">
        <ele>667</ele>
        <time>2022-12-11T10:25:51Z</time>
      </trkpt>
      <trkpt lat="43.5949" lon="6.30786">
        <ele>667</ele>
        <time>2022-12-11T10:25:52Z</time>
      </trkpt>
      <trkpt lat="43.59491" lon="6.30786">
        <ele>667</ele>
        <time>2022-12-11T10:25:53Z</time>
      </trkpt>
      <trkpt lat="43.59491" lon="6.30786">
        <ele>667</ele>
        <time>2022-12-11T10:25:54Z</time>
      </trkpt>
      <trkpt lat="43.5949" lon="6.30786">
        <ele>667</ele>
        <time>2022-12-11T10:25:55Z</time>
      </trkpt>
      <trkpt lat="43.5949" lon="6.30786">
        <ele>667</ele>
        <time>2022-12-11T10:25:56Z</time>
      </trkpt>
      <trkpt lat="43.5949" lon="6.30786">
        <ele>667</ele>
        <time>2022-12-11T10:25:57Z</time>
      </trkpt>
      <trkpt lat="43.59489" lon="6.30786">
        <ele>667</ele>
        <time>2022-12-11T10:25:58Z</time>
      </trkpt>
      <trkpt lat="43.59488" lon="6.30786">
        <ele>667</ele>
        <time>2022-12-11T10:25:59Z</time>
      </trkpt>
      <trkpt lat="43.59487" lon="6.30786">
        <ele>667</ele>
        <time>2022-12-11T10:26:00Z</time>
      </trkpt>
      <trkpt lat="43.59486" lon="6.30786">
        <ele>667</ele>
        <time>2022-12-11T10:26:01Z</time>
      </trkpt>
      <trkpt lat="43.59486" lon="6.30786">
        <ele>667</ele>
        <time>2022-12-11T10:26:02Z</time>
      </trkpt>
      <trkpt lat="43.59485" lon="6.30787">
        <ele>667</ele>
        <time>2022-12-11T10:26:03Z</time>
      </trkpt>
      <trkpt lat="43.59485" lon="6.30788">
        <ele>667</ele>
        <time>2022-12-11T10:26:04Z</time>
      </trkpt>
      <trkpt lat="43.59485" lon="6.30788">
        <ele>667</ele>
        <time>2022-12-11T10:26:05Z</time>
      </trkpt>
      <trkpt lat="43.59485" lon="6.30789">
        <ele>667</ele>
        <time>2022-12-11T10:26:06Z</time>
      </trkpt>
      <trkpt lat="43.59485" lon="6.30789">
        <ele>667</ele>
        <time>2022-12-11T10:26:07Z</time>
      </trkpt>
      <trkpt lat="43.59485" lon="6.3079">
        <ele>666</ele>
        <time>2022-12-11T10:26:08Z</time>
      </trkpt>
      <trkpt lat="43.59485" lon="6.30791">
        <ele>666</ele>
        <time>2022-12-11T10:26:09Z</time>
      </trkpt>
      <trkpt lat="43.59485" lon="6.30792">
        <ele>666</ele>
        <time>2022-12-11T10:26:10Z</time>
      </trkpt>
      <trkpt lat="43.59485" lon="6.30793">
        <ele>666</ele>
        <time>2022-12-11T10:26:11Z</time>
      </trkpt>
      <trkpt lat="43.59486" lon="6.30794">
        <ele>666</ele>
        <time>2022-12-11T10:26:12Z</time>
      </trkpt>
      <trkpt lat="43.59486" lon="6.30795">
        <ele>666</ele>
        <time>2022-12-11T10:26:13Z</time>
      </trkpt>
      <trkpt lat="43.59486" lon="6.30796">
        <ele>666</ele>
        <time>2022-12-11T10:26:14Z</time>
      </trkpt>
      <trkpt lat="43.59486" lon="6.30797">
        <ele>666</ele>
        <time>2022-12-11T10:26:15Z</time>
      </trkpt>
      <trkpt lat="43.59486" lon="6.30798">
        <ele>666</ele>
        <time>2022-12-11T10:26:16Z</time>
      </trkpt>
      <trkpt lat="43.59486" lon="6.30799">
        <ele>666</ele>
        <time>2022-12-11T10:26:17Z</time>
      </trkpt>
      <trkpt lat="43.59486" lon="6.308">
        <ele>666</ele>
        <time>2022-12-11T10:26:18Z</time>
      </trkpt>
      <trkpt lat="43.59486" lon="6.30801">
        <ele>666</ele>
        <time>2022-12-11T10:26:19Z</time>
      </trkpt>
      <trkpt lat="43.59486" lon="6.30802">
        <ele>666</ele>
        <time>2022-12-11T10:26:20Z</time>
      </trkpt>
      <trkpt lat="43.59486" lon="6.30803">
        <ele>666</ele>
        <time>2022-12-11T10:26:21Z</time>
      </trkpt>
      <trkpt lat="43.59486" lon="6.30805">
        <ele>666</ele>
        <time>2022-12-11T10:26:22Z</time>
      </trkpt>
      <trkpt lat="43.59486" lon="6.30806">
        <ele>666</ele>
        <time>2022-12-11T10:26:23Z</time>
      </trkpt>
      <trkpt lat="43.59485" lon="6.30808">
        <ele>666</ele>
        <time>2022-12-11T10:26:24Z</time>
      </trkpt>
      <trkpt lat="43.59485" lon="6.30809">
        <ele>666</ele>
        <time>2022-12-11T10:26:25Z</time>
      </trkpt>
      <trkpt lat="43.59485" lon="6.30811">
        <ele>666</ele>
        <time>2022-12-11T10:26:26Z</time>
      </trkpt>
      <trkpt lat="43.59485" lon="6.30812">
        <ele>666</ele>
        <time>2022-12-11T10:26:27Z</time>
      </trkpt>
      <trkpt lat="43.59485" lon="6.30814">
        <ele>666</ele>
        <time>2022-12-11T10:26:28Z</time>
      </trkpt>
      <trkpt lat="43.59484" lon="6.30815">
        <ele>666</ele>
        <time>2022-12-11T10:26:29Z</time>
      </trkpt>
      <trkpt lat="43.59485" lon="6.30818">
        <ele>666</ele>
        <time>2022-12-11T10:26:30Z</time>
      </trkpt>
      <trkpt lat="43.59485" lon="6.30821">
        <ele>666</ele>
        <time>2022-12-11T10:26:31Z</time>
      </trkpt>
      <trkpt lat="43.59485" lon="6.30823">
        <ele>666</ele>
        <time>2022-12-11T10:26:32Z</time>
      </trkpt>
      <trkpt lat="43.59485" lon="6.30824">
        <ele>665</ele>
        <time>2022-12-11T10:26:33Z</time>
      </trkpt>
      <trkpt lat="43.59485" lon="6.30826">
        <ele>665</ele>
        <time>2022-12-11T10:26:34Z</time>
      </trkpt>
      <trkpt lat="43.59485" lon="6.30827">
        <ele>665</ele>
        <time>2022-12-11T10:26:35Z</time>
      </trkpt>
      <trkpt lat="43.59485" lon="6.30829">
        <ele>665</ele>
        <time>2022-12-11T10:26:36Z</time>
      </trkpt>
      <trkpt lat="43.59485" lon="6.3083">
        <ele>665</ele>
        <time>2022-12-11T10:26:37Z</time>
      </trkpt>
      <trkpt lat="43.59486" lon="6.30832">
        <ele>665</ele>
        <time>2022-12-11T10:26:38Z</time>
      </trkpt>
      <trkpt lat="43.59486" lon="6.30833">
        <ele>665</ele>
        <time>2022-12-11T10:26:39Z</time>
      </trkpt>
      <trkpt lat="43.59487" lon="6.30834">
        <ele>665</ele>
        <time>2022-12-11T10:26:40Z</time>
      </trkpt>
      <trkpt lat="43.59487" lon="6.30835">
        <ele>665</ele>
        <time>2022-12-11T10:26:41Z</time>
      </trkpt>
      <trkpt lat="43.59488" lon="6.30836">
        <ele>665</ele>
        <time>2022-12-11T10:26:42Z</time>
      </trkpt>
      <trkpt lat="43.59489" lon="6.30837">
        <ele>665</ele>
        <time>2022-12-11T10:26:43Z</time>
      </trkpt>
      <trkpt lat="43.5949" lon="6.30838">
        <ele>665</ele>
        <time>2022-12-11T10:26:44Z</time>
      </trkpt>
      <trkpt lat="43.59491" lon="6.30839">
        <ele>665</ele>
        <time>2022-12-11T10:26:45Z</time>
      </trkpt>
      <trkpt lat="43.59492" lon="6.3084">
        <ele>665</ele>
        <time>2022-12-11T10:26:46Z</time>
      </trkpt>
      <trkpt lat="43.59492" lon="6.30841">
        <ele>665</ele>
        <time>2022-12-11T10:26:47Z</time>
      </trkpt>
      <trkpt lat="43.59493" lon="6.30842">
        <ele>665</ele>
        <time>2022-12-11T10:26:48Z</time>
      </trkpt>
      <trkpt lat="43.59494" lon="6.30843">
        <ele>666</ele>
        <time>2022-12-11T10:26:49Z</time>
      </trkpt>
      <trkpt lat="43.59495" lon="6.30845">
        <ele>666</ele>
        <time>2022-12-11T10:26:50Z</time>
      </trkpt>
      <trkpt lat="43.59496" lon="6.30846">
        <ele>666</ele>
        <time>2022-12-11T10:26:51Z</time>
      </trkpt>
      <trkpt lat="43.59496" lon="6.30847">
        <ele>666</ele>
        <time>2022-12-11T10:26:52Z</time>
      </trkpt>
      <trkpt lat="43.59497" lon="6.30849">
        <ele>666</ele>
        <time>2022-12-11T10:26:53Z</time>
      </trkpt>
      <trkpt lat="43.59497" lon="6.3085">
        <ele>666</ele>
        <time>2022-12-11T10:26:54Z</time>
      </trkpt>
      <trkpt lat="43.59498" lon="6.30851">
        <ele>666</ele>
        <time>2022-12-11T10:26:55Z</time>
      </trkpt>
      <trkpt lat="43.59499" lon="6.30852">
        <ele>666</ele>
        <time>2022-12-11T10:26:56Z</time>
      </trkpt>
      <trkpt lat="43.59499" lon="6.30854">
        <ele>666</ele>
        <time>2022-12-11T10:26:57Z</time>
      </trkpt>
      <trkpt lat="43.595" lon="6.30855">
        <ele>666</ele>
        <time>2022-12-11T10:26:58Z</time>
      </trkpt>
      <trkpt lat="43.59501" lon="6.30857">
        <ele>666</ele>
        <time>2022-12-11T10:26:59Z</time>
      </trkpt>
      <trkpt lat="43.59501" lon="6.30859">
        <ele>666</ele>
        <time>2022-12-11T10:27:00Z</time>
      </trkpt>
      <trkpt lat="43.59501" lon="6.30861">
        <ele>666</ele>
        <time>2022-12-11T10:27:01Z</time>
      </trkpt>
      <trkpt lat="43.59502" lon="6.30862">
        <ele>666</ele>
        <time>2022-12-11T10:27:02Z</time>
      </trkpt>
      <trkpt lat="43.59502" lon="6.30863">
        <ele>666</ele>
        <time>2022-12-11T10:27:03Z</time>
      </trkpt>
      <trkpt lat="43.59503" lon="6.30864">
        <ele>667</ele>
        <time>2022-12-11T10:27:04Z</time>
      </trkpt>
      <trkpt lat="43.59504" lon="6.30866">
        <ele>667</ele>
        <time>2022-12-11T10:27:05Z</time>
      </trkpt>
      <trkpt lat="43.59504" lon="6.30867">
        <ele>667</ele>
        <time>2022-12-11T10:27:06Z</time>
      </trkpt>
      <trkpt lat="43.59504" lon="6.30869">
        <ele>667</ele>
        <time>2022-12-11T10:27:07Z</time>
      </trkpt>
      <trkpt lat="43.59504" lon="6.3087">
        <ele>667</ele>
        <time>2022-12-11T10:27:08Z</time>
      </trkpt>
      <trkpt lat="43.59505" lon="6.30872">
        <ele>668</ele>
        <time>2022-12-11T10:27:09Z</time>
      </trkpt>
      <trkpt lat="43.59505" lon="6.30873">
        <ele>668</ele>
        <time>2022-12-11T10:27:10Z</time>
      </trkpt>
      <trkpt lat="43.59505" lon="6.30874">
        <ele>668</ele>
        <time>2022-12-11T10:27:11Z</time>
      </trkpt>
      <trkpt lat="43.59505" lon="6.30875">
        <ele>668</ele>
        <time>2022-12-11T10:27:12Z</time>
      </trkpt>
      <trkpt lat="43.59505" lon="6.30877">
        <ele>668</ele>
        <time>2022-12-11T10:27:13Z</time>
      </trkpt>
      <trkpt lat="43.59504" lon="6.30878">
        <ele>668</ele>
        <time>2022-12-11T10:27:14Z</time>
      </trkpt>
      <trkpt lat="43.59504" lon="6.30879">
        <ele>668</ele>
        <time>2022-12-11T10:27:15Z</time>
      </trkpt>
      <trkpt lat="43.59504" lon="6.3088">
        <ele>668</ele>
        <time>2022-12-11T10:27:16Z</time>
      </trkpt>
      <trkpt lat="43.59504" lon="6.30881">
        <ele>668</ele>
        <time>2022-12-11T10:27:17Z</time>
      </trkpt>
      <trkpt lat="43.59504" lon="6.30882">
        <ele>668</ele>
        <time>2022-12-11T10:27:18Z</time>
      </trkpt>
      <trkpt lat="43.59504" lon="6.30882">
        <ele>668</ele>
        <time>2022-12-11T10:27:19Z</time>
      </trkpt>
      <trkpt lat="43.59504" lon="6.30883">
        <ele>668</ele>
        <time>2022-12-11T10:27:20Z</time>
      </trkpt>
      <trkpt lat="43.59504" lon="6.30884">
        <ele>669</ele>
        <time>2022-12-11T10:27:21Z</time>
      </trkpt>
      <trkpt lat="43.59504" lon="6.30885">
        <ele>669</ele>
        <time>2022-12-11T10:27:22Z</time>
      </trkpt>
      <trkpt lat="43.59504" lon="6.30886">
        <ele>669</ele>
        <time>2022-12-11T10:27:23Z</time>
      </trkpt>
      <trkpt lat="43.59503" lon="6.30887">
        <ele>669</ele>
        <time>2022-12-11T10:27:24Z</time>
      </trkpt>
      <trkpt lat="43.59503" lon="6.30888">
        <ele>669</ele>
        <time>2022-12-11T10:27:25Z</time>
      </trkpt>
      <trkpt lat="43.59503" lon="6.30888">
        <ele>669</ele>
        <time>2022-12-11T10:27:26Z</time>
      </trkpt>
      <trkpt lat="43.59502" lon="6.30889">
        <ele>670</ele>
        <time>2022-12-11T10:27:27Z</time>
      </trkpt>
      <trkpt lat="43.59502" lon="6.3089">
        <ele>671</ele>
        <time>2022-12-11T10:27:28Z</time>
      </trkpt>
      <trkpt lat="43.59502" lon="6.30891">
        <ele>671</ele>
        <time>2022-12-11T10:27:29Z</time>
      </trkpt>
      <trkpt lat="43.59501" lon="6.30891">
        <ele>671</ele>
        <time>2022-12-11T10:27:30Z</time>
      </trkpt>
      <trkpt lat="43.59501" lon="6.30892">
        <ele>671</ele>
        <time>2022-12-11T10:27:31Z</time>
      </trkpt>
      <trkpt lat="43.595" lon="6.30893">
        <ele>671</ele>
        <time>2022-12-11T10:27:32Z</time>
      </trkpt>
      <trkpt lat="43.595" lon="6.30894">
        <ele>672</ele>
        <time>2022-12-11T10:27:33Z</time>
      </trkpt>
      <trkpt lat="43.59499" lon="6.30895">
        <ele>672</ele>
        <time>2022-12-11T10:27:34Z</time>
      </trkpt>
      <trkpt lat="43.59499" lon="6.30896">
        <ele>672</ele>
        <time>2022-12-11T10:27:35Z</time>
      </trkpt>
      <trkpt lat="43.59499" lon="6.30897">
        <ele>672</ele>
        <time>2022-12-11T10:27:36Z</time>
      </trkpt>
      <trkpt lat="43.59498" lon="6.30898">
        <ele>672</ele>
        <time>2022-12-11T10:27:37Z</time>
      </trkpt>
      <trkpt lat="43.59497" lon="6.30899">
        <ele>673</ele>
        <time>2022-12-11T10:27:38Z</time>
      </trkpt>
      <trkpt lat="43.59497" lon="6.309">
        <ele>673</ele>
        <time>2022-12-11T10:27:39Z</time>
      </trkpt>
      <trkpt lat="43.59496" lon="6.30901">
        <ele>673</ele>
        <time>2022-12-11T10:27:40Z</time>
      </trkpt>
      <trkpt lat="43.59495" lon="6.30901">
        <ele>673</ele>
        <time>2022-12-11T10:27:41Z</time>
      </trkpt>
      <trkpt lat="43.59494" lon="6.30902">
        <ele>673</ele>
        <time>2022-12-11T10:27:42Z</time>
      </trkpt>
      <trkpt lat="43.59493" lon="6.30902">
        <ele>673</ele>
        <time>2022-12-11T10:27:43Z</time>
      </trkpt>
      <trkpt lat="43.59493" lon="6.30902">
        <ele>673</ele>
        <time>2022-12-11T10:27:44Z</time>
      </trkpt>
      <trkpt lat="43.59493" lon="6.30903">
        <ele>674</ele>
        <time>2022-12-11T10:27:45Z</time>
      </trkpt>
      <trkpt lat="43.59493" lon="6.30904">
        <ele>674</ele>
        <time>2022-12-11T10:27:46Z</time>
      </trkpt>
      <trkpt lat="43.59493" lon="6.30905">
        <ele>674</ele>
        <time>2022-12-11T10:27:47Z</time>
      </trkpt>
      <trkpt lat="43.59493" lon="6.30905">
        <ele>674</ele>
        <time>2022-12-11T10:27:48Z</time>
      </trkpt>
      <trkpt lat="43.59493" lon="6.30906">
        <ele>674</ele>
        <time>2022-12-11T10:27:49Z</time>
      </trkpt>
      <trkpt lat="43.59493" lon="6.30906">
        <ele>674</ele>
        <time>2022-12-11T10:27:50Z</time>
      </trkpt>
      <trkpt lat="43.59492" lon="6.30906">
        <ele>674</ele>
        <time>2022-12-11T10:27:51Z</time>
      </trkpt>
      <trkpt lat="43.59492" lon="6.30906">
        <ele>674</ele>
        <time>2022-12-11T10:27:52Z</time>
      </trkpt>
      <trkpt lat="43.59492" lon="6.30906">
        <ele>674</ele>
        <time>2022-12-11T10:27:53Z</time>
      </trkpt>
      <trkpt lat="43.59492" lon="6.30907">
        <ele>674</ele>
        <time>2022-12-11T10:27:54Z</time>
      </trkpt>
      <trkpt lat="43.59492" lon="6.30909">
        <ele>674</ele>
        <time>2022-12-11T10:27:55Z</time>
      </trkpt>
      <trkpt lat="43.59493" lon="6.3091">
        <ele>674</ele>
        <time>2022-12-11T10:27:56Z</time>
      </trkpt>
      <trkpt lat="43.59493" lon="6.30911">
        <ele>674</ele>
        <time>2022-12-11T10:27:57Z</time>
      </trkpt>
      <trkpt lat="43.59493" lon="6.30912">
        <ele>674</ele>
        <time>2022-12-11T10:27:58Z</time>
      </trkpt>
      <trkpt lat="43.59492" lon="6.30914">
        <ele>674</ele>
        <time>2022-12-11T10:27:59Z</time>
      </trkpt>
      <trkpt lat="43.59492" lon="6.30915">
        <ele>674</ele>
        <time>2022-12-11T10:28:00Z</time>
      </trkpt>
      <trkpt lat="43.59492" lon="6.30916">
        <ele>674</ele>
        <time>2022-12-11T10:28:01Z</time>
      </trkpt>
      <trkpt lat="43.59492" lon="6.30916">
        <ele>674</ele>
        <time>2022-12-11T10:28:02Z</time>
      </trkpt>
      <trkpt lat="43.59492" lon="6.30917">
        <ele>674</ele>
        <time>2022-12-11T10:28:03Z</time>
      </trkpt>
      <trkpt lat="43.59493" lon="6.30918">
        <ele>674</ele>
        <time>2022-12-11T10:28:04Z</time>
      </trkpt>
      <trkpt lat="43.59493" lon="6.30919">
        <ele>674</ele>
        <time>2022-12-11T10:28:05Z</time>
      </trkpt>
      <trkpt lat="43.59493" lon="6.3092">
        <ele>673</ele>
        <time>2022-12-11T10:28:06Z</time>
      </trkpt>
      <trkpt lat="43.59494" lon="6.30921">
        <ele>673</ele>
        <time>2022-12-11T10:28:07Z</time>
      </trkpt>
      <trkpt lat="43.59494" lon="6.30922">
        <ele>673</ele>
        <time>2022-12-11T10:28:08Z</time>
      </trkpt>
      <trkpt lat="43.59494" lon="6.30923">
        <ele>673</ele>
        <time>2022-12-11T10:28:09Z</time>
      </trkpt>
      <trkpt lat="43.59494" lon="6.30923">
        <ele>673</ele>
        <time>2022-12-11T10:28:10Z</time>
      </trkpt>
      <trkpt lat="43.59494" lon="6.30923">
        <ele>673</ele>
        <time>2022-12-11T10:28:11Z</time>
      </trkpt>
      <trkpt lat="43.59494" lon="6.30924">
        <ele>673</ele>
        <time>2022-12-11T10:28:12Z</time>
      </trkpt>
      <trkpt lat="43.59494" lon="6.30924">
        <ele>673</ele>
        <time>2022-12-11T10:28:13Z</time>
      </trkpt>
      <trkpt lat="43.59494" lon="6.30925">
        <ele>673</ele>
        <time>2022-12-11T10:28:14Z</time>
      </trkpt>
      <trkpt lat="43.59495" lon="6.30926">
        <ele>673</ele>
        <time>2022-12-11T10:28:15Z</time>
      </trkpt>
      <trkpt lat="43.59495" lon="6.30927">
        <ele>673</ele>
        <time>2022-12-11T10:28:16Z</time>
      </trkpt>
      <trkpt lat="43.59495" lon="6.30928">
        <ele>673</ele>
        <time>2022-12-11T10:28:17Z</time>
      </trkpt>
      <trkpt lat="43.59495" lon="6.30928">
        <ele>673</ele>
        <time>2022-12-11T10:28:18Z</time>
      </trkpt>
      <trkpt lat="43.59496" lon="6.30929">
        <ele>672</ele>
        <time>2022-12-11T10:28:19Z</time>
      </trkpt>
      <trkpt lat="43.59496" lon="6.3093">
        <ele>672</ele>
        <time>2022-12-11T10:28:20Z</time>
      </trkpt>
      <trkpt lat="43.59496" lon="6.3093">
        <ele>672</ele>
        <time>2022-12-11T10:28:21Z</time>
      </trkpt>
      <trkpt lat="43.59496" lon="6.3093">
        <ele>672</ele>
        <time>2022-12-11T10:28:22Z</time>
      </trkpt>
      <trkpt lat="43.59496" lon="6.30931">
        <ele>672</ele>
        <time>2022-12-11T10:28:23Z</time>
      </trkpt>
      <trkpt lat="43.59496" lon="6.30931">
        <ele>672</ele>
        <time>2022-12-11T10:28:24Z</time>
      </trkpt>
      <trkpt lat="43.59497" lon="6.30932">
        <ele>672</ele>
        <time>2022-12-11T10:28:25Z</time>
      </trkpt>
      <trkpt lat="43.59497" lon="6.30932">
        <ele>672</ele>
        <time>2022-12-11T10:28:26Z</time>
      </trkpt>
      <trkpt lat="43.59497" lon="6.30932">
        <ele>672</ele>
        <time>2022-12-11T10:28:27Z</time>
      </trkpt>
      <trkpt lat="43.59497" lon="6.30932">
        <ele>672</ele>
        <time>2022-12-11T10:28:28Z</time>
      </trkpt>
      <trkpt lat="43.59497" lon="6.30932">
        <ele>672</ele>
        <time>2022-12-11T10:28:29Z</time>
      </trkpt>
      <trkpt lat="43.59497" lon="6.30933">
        <ele>672</ele>
        <time>2022-12-11T10:28:30Z</time>
      </trkpt>
      <trkpt lat="43.59497" lon="6.30933">
        <ele>672</ele>
        <time>2022-12-11T10:28:31Z</time>
      </trkpt>
      <trkpt lat="43.59497" lon="6.30933">
        <ele>672</ele>
        <time>2022-12-11T10:28:32Z</time>
      </trkpt>
      <trkpt lat="43.59496" lon="6.30933">
        <ele>672</ele>
        <time>2022-12-11T10:28:33Z</time>
      </trkpt>
      <trkpt lat="43.59496" lon="6.30933">
        <ele>672</ele>
        <time>2022-12-11T10:28:34Z</time>
      </trkpt>
      <trkpt lat="43.59496" lon="6.30933">
        <ele>672</ele>
        <time>2022-12-11T10:28:35Z</time>
      </trkpt>
      <trkpt lat="43.59496" lon="6.30933">
        <ele>672</ele>
        <time>2022-12-11T10:28:36Z</time>
      </trkpt>
      <trkpt lat="43.59496" lon="6.30933">
        <ele>672</ele>
        <time>2022-12-11T10:28:37Z</time>
      </trkpt>
      <trkpt lat="43.59497" lon="6.30933">
        <ele>672</ele>
        <time>2022-12-11T10:28:38Z</time>
      </trkpt>
      <trkpt lat="43.59497" lon="6.30934">
        <ele>672</ele>
        <time>2022-12-11T10:28:39Z</time>
      </trkpt>
      <trkpt lat="43.59497" lon="6.30934">
        <ele>672</ele>
        <time>2022-12-11T10:28:40Z</time>
      </trkpt>
      <trkpt lat="43.59498" lon="6.30935">
        <ele>672</ele>
        <time>2022-12-11T10:28:41Z</time>
      </trkpt>
      <trkpt lat="43.59498" lon="6.30936">
        <ele>672</ele>
        <time>2022-12-11T10:28:42Z</time>
      </trkpt>
      <trkpt lat="43.59498" lon="6.30936">
        <ele>672</ele>
        <time>2022-12-11T10:28:43Z</time>
      </trkpt>
      <trkpt lat="43.59499" lon="6.30937">
        <ele>672</ele>
        <time>2022-12-11T10:28:44Z</time>
      </trkpt>
      <trkpt lat="43.59499" lon="6.30938">
        <ele>672</ele>
        <time>2022-12-11T10:28:45Z</time>
      </trkpt>
      <trkpt lat="43.59499" lon="6.30938">
        <ele>672</ele>
        <time>2022-12-11T10:28:46Z</time>
      </trkpt>
      <trkpt lat="43.59499" lon="6.30939">
        <ele>672</ele>
        <time>2022-12-11T10:28:47Z</time>
      </trkpt>
      <trkpt lat="43.595" lon="6.3094">
        <ele>672</ele>
        <time>2022-12-11T10:28:48Z</time>
      </trkpt>
      <trkpt lat="43.595" lon="6.30941">
        <ele>672</ele>
        <time>2022-12-11T10:28:49Z</time>
      </trkpt>
      <trkpt lat="43.595" lon="6.30942">
        <ele>672</ele>
        <time>2022-12-11T10:28:50Z</time>
      </trkpt>
      <trkpt lat="43.595" lon="6.30943">
        <ele>673</ele>
        <time>2022-12-11T10:28:51Z</time>
      </trkpt>
      <trkpt lat="43.59501" lon="6.30944">
        <ele>673</ele>
        <time>2022-12-11T10:28:52Z</time>
      </trkpt>
      <trkpt lat="43.59501" lon="6.30945">
        <ele>673</ele>
        <time>2022-12-11T10:28:53Z</time>
      </trkpt>
      <trkpt lat="43.59501" lon="6.30945">
        <ele>673</ele>
        <time>2022-12-11T10:28:54Z</time>
      </trkpt>
      <trkpt lat="43.59501" lon="6.30946">
        <ele>673</ele>
        <time>2022-12-11T10:28:55Z</time>
      </trkpt>
      <trkpt lat="43.59501" lon="6.30946">
        <ele>673</ele>
        <time>2022-12-11T10:28:56Z</time>
      </trkpt>
      <trkpt lat="43.59501" lon="6.30947">
        <ele>674</ele>
        <time>2022-12-11T10:28:57Z</time>
      </trkpt>
      <trkpt lat="43.59502" lon="6.30948">
        <ele>674</ele>
        <time>2022-12-11T10:28:58Z</time>
      </trkpt>
      <trkpt lat="43.59502" lon="6.30949">
        <ele>674</ele>
        <time>2022-12-11T10:28:59Z</time>
      </trkpt>
      <trkpt lat="43.59502" lon="6.3095">
        <ele>674</ele>
        <time>2022-12-11T10:29:00Z</time>
      </trkpt>
      <trkpt lat="43.59503" lon="6.30951">
        <ele>674</ele>
        <time>2022-12-11T10:29:01Z</time>
      </trkpt>
      <trkpt lat="43.59503" lon="6.30952">
        <ele>674</ele>
        <time>2022-12-11T10:29:02Z</time>
      </trkpt>
      <trkpt lat="43.59503" lon="6.30953">
        <ele>674</ele>
        <time>2022-12-11T10:29:03Z</time>
      </trkpt>
      <trkpt lat="43.59503" lon="6.30953">
        <ele>674</ele>
        <time>2022-12-11T10:29:04Z</time>
      </trkpt>
      <trkpt lat="43.59503" lon="6.30953">
        <ele>674</ele>
        <time>2022-12-11T10:29:05Z</time>
      </trkpt>
      <trkpt lat="43.59503" lon="6.30954">
        <ele>674</ele>
        <time>2022-12-11T10:29:06Z</time>
      </trkpt>
      <trkpt lat="43.59504" lon="6.30954">
        <ele>674</ele>
        <time>2022-12-11T10:29:07Z</time>
      </trkpt>
      <trkpt lat="43.59504" lon="6.30955">
        <ele>674</ele>
        <time>2022-12-11T10:29:08Z</time>
      </trkpt>
      <trkpt lat="43.59504" lon="6.30956">
        <ele>674</ele>
        <time>2022-12-11T10:29:09Z</time>
      </trkpt>
      <trkpt lat="43.59504" lon="6.30957">
        <ele>674</ele>
        <time>2022-12-11T10:29:10Z</time>
      </trkpt>
      <trkpt lat="43.59504" lon="6.30957">
        <ele>674</ele>
        <time>2022-12-11T10:29:11Z</time>
      </trkpt>
      <trkpt lat="43.59504" lon="6.30958">
        <ele>674</ele>
        <time>2022-12-11T10:29:12Z</time>
      </trkpt>
      <trkpt lat="43.59505" lon="6.30958">
        <ele>675</ele>
        <time>2022-12-11T10:29:13Z</time>
      </trkpt>
      <trkpt lat="43.59505" lon="6.30959">
        <ele>675</ele>
        <time>2022-12-11T10:29:14Z</time>
      </trkpt>
      <trkpt lat="43.59505" lon="6.3096">
        <ele>675</ele>
        <time>2022-12-11T10:29:15Z</time>
      </trkpt>
      <trkpt lat="43.59506" lon="6.30962">
        <ele>675</ele>
        <time>2022-12-11T10:29:16Z</time>
      </trkpt>
      <trkpt lat="43.59506" lon="6.30964">
        <ele>675</ele>
        <time>2022-12-11T10:29:17Z</time>
      </trkpt>
      <trkpt lat="43.59507" lon="6.30965">
        <ele>675</ele>
        <time>2022-12-11T10:29:18Z</time>
      </trkpt>
      <trkpt lat="43.59507" lon="6.30966">
        <ele>676</ele>
        <time>2022-12-11T10:29:19Z</time>
      </trkpt>
      <trkpt lat="43.59508" lon="6.30967">
        <ele>676</ele>
        <time>2022-12-11T10:29:20Z</time>
      </trkpt>
      <trkpt lat="43.59508" lon="6.30968">
        <ele>676</ele>
        <time>2022-12-11T10:29:21Z</time>
      </trkpt>
      <trkpt lat="43.59509" lon="6.30969">
        <ele>677</ele>
        <time>2022-12-11T10:29:22Z</time>
      </trkpt>
      <trkpt lat="43.5951" lon="6.3097">
        <ele>677</ele>
        <time>2022-12-11T10:29:23Z</time>
      </trkpt>
      <trkpt lat="43.5951" lon="6.30971">
        <ele>677</ele>
        <time>2022-12-11T10:29:24Z</time>
      </trkpt>
      <trkpt lat="43.5951" lon="6.30972">
        <ele>677</ele>
        <time>2022-12-11T10:29:25Z</time>
      </trkpt>
      <trkpt lat="43.59511" lon="6.30973">
        <ele>677</ele>
        <time>2022-12-11T10:29:26Z</time>
      </trkpt>
      <trkpt lat="43.59512" lon="6.30974">
        <ele>677</ele>
        <time>2022-12-11T10:29:27Z</time>
      </trkpt>
      <trkpt lat="43.59512" lon="6.30975">
        <ele>677</ele>
        <time>2022-12-11T10:29:28Z</time>
      </trkpt>
      <trkpt lat="43.59513" lon="6.30976">
        <ele>678</ele>
        <time>2022-12-11T10:29:29Z</time>
      </trkpt>
      <trkpt lat="43.59513" lon="6.30976">
        <ele>679</ele>
        <time>2022-12-11T10:29:30Z</time>
      </trkpt>
      <trkpt lat="43.59513" lon="6.30977">
        <ele>679</ele>
        <time>2022-12-11T10:29:31Z</time>
      </trkpt>
      <trkpt lat="43.59513" lon="6.30977">
        <ele>679</ele>
        <time>2022-12-11T10:29:32Z</time>
      </trkpt>
      <trkpt lat="43.59513" lon="6.30977">
        <ele>679</ele>
        <time>2022-12-11T10:29:33Z</time>
      </trkpt>
      <trkpt lat="43.59513" lon="6.30978">
        <ele>679</ele>
        <time>2022-12-11T10:29:34Z</time>
      </trkpt>
      <trkpt lat="43.59514" lon="6.30978">
        <ele>680</ele>
        <time>2022-12-11T10:29:35Z</time>
      </trkpt>
      <trkpt lat="43.59514" lon="6.30979">
        <ele>680</ele>
        <time>2022-12-11T10:29:36Z</time>
      </trkpt>
      <trkpt lat="43.59515" lon="6.3098">
        <ele>680</ele>
        <time>2022-12-11T10:29:37Z</time>
      </trkpt>
      <trkpt lat="43.59515" lon="6.3098">
        <ele>680</ele>
        <time>2022-12-11T10:29:38Z</time>
      </trkpt>
      <trkpt lat="43.59515" lon="6.30981">
        <ele>680</ele>
        <time>2022-12-11T10:29:39Z</time>
      </trkpt>
      <trkpt lat="43.59515" lon="6.30981">
        <ele>680</ele>
        <time>2022-12-11T10:29:40Z</time>
      </trkpt>
      <trkpt lat="43.59516" lon="6.30981">
        <ele>680</ele>
        <time>2022-12-11T10:29:41Z</time>
      </trkpt>
      <trkpt lat="43.59516" lon="6.30982">
        <ele>680</ele>
        <time>2022-12-11T10:29:42Z</time>
      </trkpt>
      <trkpt lat="43.59516" lon="6.30982">
        <ele>680</ele>
        <time>2022-12-11T10:29:43Z</time>
      </trkpt>
      <trkpt lat="43.59516" lon="6.30982">
        <ele>680</ele>
        <time>2022-12-11T10:29:44Z</time>
      </trkpt>
      <trkpt lat="43.59516" lon="6.30982">
        <ele>680</ele>
        <time>2022-12-11T10:29:45Z</time>
      </trkpt>
      <trkpt lat="43.59516" lon="6.30982">
        <ele>680</ele>
        <time>2022-12-11T10:29:46Z</time>
      </trkpt>
      <trkpt lat="43.59516" lon="6.30982">
        <ele>680</ele>
        <time>2022-12-11T10:29:47Z</time>
      </trkpt>
      <trkpt lat="43.59516" lon="6.30983">
        <ele>680</ele>
        <time>2022-12-11T10:29:48Z</time>
      </trkpt>
      <trkpt lat="43.59516" lon="6.30983">
        <ele>680</ele>
        <time>2022-12-11T10:29:49Z</time>
      </trkpt>
      <trkpt lat="43.59516" lon="6.30983">
        <ele>681</ele>
        <time>2022-12-11T10:29:50Z</time>
      </trkpt>
      <trkpt lat="43.59516" lon="6.30984">
        <ele>681</ele>
        <time>2022-12-11T10:29:51Z</time>
      </trkpt>
      <trkpt lat="43.59516" lon="6.30984">
        <ele>681</ele>
        <time>2022-12-11T10:29:52Z</time>
      </trkpt>
      <trkpt lat="43.59517" lon="6.30985">
        <ele>681</ele>
        <time>2022-12-11T10:29:53Z</time>
      </trkpt>
      <trkpt lat="43.59517" lon="6.30985">
        <ele>681</ele>
        <time>2022-12-11T10:29:54Z</time>
      </trkpt>
      <trkpt lat="43.59518" lon="6.30986">
        <ele>682</ele>
        <time>2022-12-11T10:29:55Z</time>
      </trkpt>
      <trkpt lat="43.59518" lon="6.30987">
        <ele>682</ele>
        <time>2022-12-11T10:29:56Z</time>
      </trkpt>
      <trkpt lat="43.5952" lon="6.30989">
        <ele>682</ele>
        <time>2022-12-11T10:29:57Z</time>
      </trkpt>
      <trkpt lat="43.59522" lon="6.30992">
        <ele>682</ele>
        <time>2022-12-11T10:29:58Z</time>
      </trkpt>
      <trkpt lat="43.59523" lon="6.30994">
        <ele>682</ele>
        <time>2022-12-11T10:29:59Z</time>
      </trkpt>
      <trkpt lat="43.59524" lon="6.30996">
        <ele>683</ele>
        <time>2022-12-11T10:30:00Z</time>
      </trkpt>
      <trkpt lat="43.59525" lon="6.30997">
        <ele>683</ele>
        <time>2022-12-11T10:30:01Z</time>
      </trkpt>
      <trkpt lat="43.59525" lon="6.30998">
        <ele>683</ele>
        <time>2022-12-11T10:30:02Z</time>
      </trkpt>
      <trkpt lat="43.59526" lon="6.31">
        <ele>683</ele>
        <time>2022-12-11T10:30:03Z</time>
      </trkpt>
      <trkpt lat="43.59527" lon="6.31001">
        <ele>684</ele>
        <time>2022-12-11T10:30:04Z</time>
      </trkpt>
      <trkpt lat="43.59528" lon="6.31002">
        <ele>684</ele>
        <time>2022-12-11T10:30:05Z</time>
      </trkpt>
      <trkpt lat="43.59528" lon="6.31003">
        <ele>684</ele>
        <time>2022-12-11T10:30:06Z</time>
      </trkpt>
      <trkpt lat="43.59529" lon="6.31004">
        <ele>684</ele>
        <time>2022-12-11T10:30:07Z</time>
      </trkpt>
      <trkpt lat="43.5953" lon="6.31005">
        <ele>685</ele>
        <time>2022-12-11T10:30:08Z</time>
      </trkpt>
      <trkpt lat="43.5953" lon="6.31007">
        <ele>685</ele>
        <time>2022-12-11T10:30:09Z</time>
      </trkpt>
      <trkpt lat="43.59532" lon="6.31009">
        <ele>685</ele>
        <time>2022-12-11T10:30:10Z</time>
      </trkpt>
      <trkpt lat="43.59533" lon="6.31011">
        <ele>685</ele>
        <time>2022-12-11T10:30:11Z</time>
      </trkpt>
      <trkpt lat="43.59534" lon="6.31013">
        <ele>685</ele>
        <time>2022-12-11T10:30:12Z</time>
      </trkpt>
      <trkpt lat="43.59535" lon="6.31015">
        <ele>686</ele>
        <time>2022-12-11T10:30:13Z</time>
      </trkpt>
      <trkpt lat="43.59536" lon="6.31016">
        <ele>686</ele>
        <time>2022-12-11T10:30:14Z</time>
      </trkpt>
      <trkpt lat="43.59537" lon="6.31018">
        <ele>686</ele>
        <time>2022-12-11T10:30:15Z</time>
      </trkpt>
      <trkpt lat="43.59538" lon="6.31019">
        <ele>686</ele>
        <time>2022-12-11T10:30:16Z</time>
      </trkpt>
      <trkpt lat="43.59538" lon="6.3102">
        <ele>686</ele>
        <time>2022-12-11T10:30:17Z</time>
      </trkpt>
      <trkpt lat="43.59539" lon="6.31021">
        <ele>687</ele>
        <time>2022-12-11T10:30:18Z</time>
      </trkpt>
      <trkpt lat="43.5954" lon="6.31022">
        <ele>687</ele>
        <time>2022-12-11T10:30:19Z</time>
      </trkpt>
      <trkpt lat="43.5954" lon="6.31024">
        <ele>687</ele>
        <time>2022-12-11T10:30:20Z</time>
      </trkpt>
      <trkpt lat="43.59541" lon="6.31025">
        <ele>688</ele>
        <time>2022-12-11T10:30:21Z</time>
      </trkpt>
      <trkpt lat="43.59541" lon="6.31026">
        <ele>688</ele>
        <time>2022-12-11T10:30:22Z</time>
      </trkpt>
      <trkpt lat="43.59542" lon="6.31026">
        <ele>688</ele>
        <time>2022-12-11T10:30:23Z</time>
      </trkpt>
      <trkpt lat="43.59542" lon="6.31027">
        <ele>688</ele>
        <time>2022-12-11T10:30:24Z</time>
      </trkpt>
      <trkpt lat="43.59543" lon="6.31028">
        <ele>688</ele>
        <time>2022-12-11T10:30:25Z</time>
      </trkpt>
      <trkpt lat="43.59543" lon="6.31029">
        <ele>688</ele>
        <time>2022-12-11T10:30:26Z</time>
      </trkpt>
      <trkpt lat="43.59543" lon="6.31031">
        <ele>688</ele>
        <time>2022-12-11T10:30:27Z</time>
      </trkpt>
      <trkpt lat="43.59543" lon="6.31032">
        <ele>688</ele>
        <time>2022-12-11T10:30:28Z</time>
      </trkpt>
      <trkpt lat="43.59544" lon="6.31033">
        <ele>688</ele>
        <time>2022-12-11T10:30:29Z</time>
      </trkpt>
      <trkpt lat="43.59544" lon="6.31034">
        <ele>688</ele>
        <time>2022-12-11T10:30:30Z</time>
      </trkpt>
      <trkpt lat="43.59545" lon="6.31035">
        <ele>688</ele>
        <time>2022-12-11T10:30:31Z</time>
      </trkpt>
      <trkpt lat="43.59545" lon="6.31036">
        <ele>688</ele>
        <time>2022-12-11T10:30:32Z</time>
      </trkpt>
      <trkpt lat="43.59546" lon="6.31037">
        <ele>688</ele>
        <time>2022-12-11T10:30:33Z</time>
      </trkpt>
      <trkpt lat="43.59547" lon="6.31038">
        <ele>688</ele>
        <time>2022-12-11T10:30:34Z</time>
      </trkpt>
      <trkpt lat="43.59547" lon="6.31039">
        <ele>688</ele>
        <time>2022-12-11T10:30:35Z</time>
      </trkpt>
      <trkpt lat="43.59548" lon="6.3104">
        <ele>688</ele>
        <time>2022-12-11T10:30:36Z</time>
      </trkpt>
      <trkpt lat="43.59548" lon="6.31041">
        <ele>688</ele>
        <time>2022-12-11T10:30:37Z</time>
      </trkpt>
      <trkpt lat="43.59549" lon="6.31042">
        <ele>688</ele>
        <time>2022-12-11T10:30:38Z</time>
      </trkpt>
      <trkpt lat="43.59549" lon="6.31043">
        <ele>688</ele>
        <time>2022-12-11T10:30:39Z</time>
      </trkpt>
      <trkpt lat="43.5955" lon="6.31044">
        <ele>688</ele>
        <time>2022-12-11T10:30:40Z</time>
      </trkpt>
      <trkpt lat="43.5955" lon="6.31045">
        <ele>688</ele>
        <time>2022-12-11T10:30:41Z</time>
      </trkpt>
      <trkpt lat="43.59551" lon="6.31046">
        <ele>688</ele>
        <time>2022-12-11T10:30:42Z</time>
      </trkpt>
      <trkpt lat="43.59551" lon="6.31047">
        <ele>688</ele>
        <time>2022-12-11T10:30:43Z</time>
      </trkpt>
      <trkpt lat="43.59552" lon="6.31048">
        <ele>688</ele>
        <time>2022-12-11T10:30:44Z</time>
      </trkpt>
      <trkpt lat="43.59552" lon="6.31049">
        <ele>688</ele>
        <time>2022-12-11T10:30:45Z</time>
      </trkpt>
      <trkpt lat="43.59553" lon="6.3105">
        <ele>689</ele>
        <time>2022-12-11T10:30:46Z</time>
      </trkpt>
      <trkpt lat="43.59553" lon="6.31051">
        <ele>689</ele>
        <time>2022-12-11T10:30:47Z</time>
      </trkpt>
      <trkpt lat="43.59554" lon="6.31051">
        <ele>689</ele>
        <time>2022-12-11T10:30:48Z</time>
      </trkpt>
      <trkpt lat="43.59554" lon="6.31052">
        <ele>689</ele>
        <time>2022-12-11T10:30:49Z</time>
      </trkpt>
      <trkpt lat="43.59554" lon="6.31053">
        <ele>689</ele>
        <time>2022-12-11T10:30:50Z</time>
      </trkpt>
      <trkpt lat="43.59555" lon="6.31054">
        <ele>689</ele>
        <time>2022-12-11T10:30:51Z</time>
      </trkpt>
      <trkpt lat="43.59556" lon="6.31055">
        <ele>690</ele>
        <time>2022-12-11T10:30:52Z</time>
      </trkpt>
      <trkpt lat="43.59556" lon="6.31056">
        <ele>691</ele>
        <time>2022-12-11T10:30:53Z</time>
      </trkpt>
      <trkpt lat="43.59557" lon="6.31057">
        <ele>691</ele>
        <time>2022-12-11T10:30:54Z</time>
      </trkpt>
      <trkpt lat="43.59557" lon="6.31058">
        <ele>691</ele>
        <time>2022-12-11T10:30:55Z</time>
      </trkpt>
      <trkpt lat="43.59557" lon="6.31059">
        <ele>691</ele>
        <time>2022-12-11T10:30:56Z</time>
      </trkpt>
      <trkpt lat="43.59558" lon="6.3106">
        <ele>691</ele>
        <time>2022-12-11T10:30:57Z</time>
      </trkpt>
      <trkpt lat="43.59558" lon="6.31061">
        <ele>691</ele>
        <time>2022-12-11T10:30:58Z</time>
      </trkpt>
      <trkpt lat="43.59559" lon="6.31063">
        <ele>691</ele>
        <time>2022-12-11T10:30:59Z</time>
      </trkpt>
      <trkpt lat="43.59559" lon="6.31064">
        <ele>691</ele>
        <time>2022-12-11T10:31:00Z</time>
      </trkpt>
      <trkpt lat="43.5956" lon="6.31065">
        <ele>691</ele>
        <time>2022-12-11T10:31:01Z</time>
      </trkpt>
      <trkpt lat="43.5956" lon="6.31066">
        <ele>691</ele>
        <time>2022-12-11T10:31:02Z</time>
      </trkpt>
      <trkpt lat="43.59561" lon="6.31067">
        <ele>691</ele>
        <time>2022-12-11T10:31:03Z</time>
      </trkpt>
      <trkpt lat="43.59561" lon="6.31069">
        <ele>691</ele>
        <time>2022-12-11T10:31:04Z</time>
      </trkpt>
      <trkpt lat="43.59561" lon="6.3107">
        <ele>691</ele>
        <time>2022-12-11T10:31:05Z</time>
      </trkpt>
      <trkpt lat="43.59562" lon="6.31071">
        <ele>691</ele>
        <time>2022-12-11T10:31:06Z</time>
      </trkpt>
      <trkpt lat="43.59563" lon="6.31072">
        <ele>691</ele>
        <time>2022-12-11T10:31:07Z</time>
      </trkpt>
      <trkpt lat="43.59563" lon="6.31073">
        <ele>691</ele>
        <time>2022-12-11T10:31:08Z</time>
      </trkpt>
      <trkpt lat="43.59564" lon="6.31074">
        <ele>691</ele>
        <time>2022-12-11T10:31:09Z</time>
      </trkpt>
      <trkpt lat="43.59564" lon="6.31075">
        <ele>691</ele>
        <time>2022-12-11T10:31:10Z</time>
      </trkpt>
      <trkpt lat="43.59565" lon="6.31076">
        <ele>691</ele>
        <time>2022-12-11T10:31:11Z</time>
      </trkpt>
      <trkpt lat="43.59565" lon="6.31077">
        <ele>691</ele>
        <time>2022-12-11T10:31:12Z</time>
      </trkpt>
      <trkpt lat="43.59566" lon="6.31078">
        <ele>691</ele>
        <time>2022-12-11T10:31:13Z</time>
      </trkpt>
      <trkpt lat="43.59567" lon="6.31079">
        <ele>691</ele>
        <time>2022-12-11T10:31:14Z</time>
      </trkpt>
      <trkpt lat="43.59567" lon="6.31081">
        <ele>691</ele>
        <time>2022-12-11T10:31:15Z</time>
      </trkpt>
      <trkpt lat="43.59568" lon="6.31082">
        <ele>691</ele>
        <time>2022-12-11T10:31:16Z</time>
      </trkpt>
      <trkpt lat="43.59568" lon="6.31083">
        <ele>691</ele>
        <time>2022-12-11T10:31:17Z</time>
      </trkpt>
      <trkpt lat="43.59569" lon="6.31083">
        <ele>691</ele>
        <time>2022-12-11T10:31:18Z</time>
      </trkpt>
      <trkpt lat="43.59569" lon="6.31084">
        <ele>691</ele>
        <time>2022-12-11T10:31:19Z</time>
      </trkpt>
      <trkpt lat="43.59569" lon="6.31085">
        <ele>691</ele>
        <time>2022-12-11T10:31:20Z</time>
      </trkpt>
      <trkpt lat="43.59569" lon="6.31087">
        <ele>691</ele>
        <time>2022-12-11T10:31:21Z</time>
      </trkpt>
      <trkpt lat="43.59569" lon="6.31088">
        <ele>691</ele>
        <time>2022-12-11T10:31:22Z</time>
      </trkpt>
      <trkpt lat="43.5957" lon="6.31089">
        <ele>691</ele>
        <time>2022-12-11T10:31:23Z</time>
      </trkpt>
      <trkpt lat="43.5957" lon="6.3109">
        <ele>691</ele>
        <time>2022-12-11T10:31:24Z</time>
      </trkpt>
      <trkpt lat="43.5957" lon="6.31091">
        <ele>691</ele>
        <time>2022-12-11T10:31:25Z</time>
      </trkpt>
      <trkpt lat="43.5957" lon="6.31092">
        <ele>691</ele>
        <time>2022-12-11T10:31:26Z</time>
      </trkpt>
      <trkpt lat="43.5957" lon="6.31093">
        <ele>691</ele>
        <time>2022-12-11T10:31:27Z</time>
      </trkpt>
      <trkpt lat="43.5957" lon="6.31094">
        <ele>691</ele>
        <time>2022-12-11T10:31:28Z</time>
      </trkpt>
      <trkpt lat="43.59571" lon="6.31095">
        <ele>691</ele>
        <time>2022-12-11T10:31:29Z</time>
      </trkpt>
      <trkpt lat="43.59572" lon="6.31096">
        <ele>691</ele>
        <time>2022-12-11T10:31:30Z</time>
      </trkpt>
      <trkpt lat="43.59572" lon="6.31097">
        <ele>691</ele>
        <time>2022-12-11T10:31:31Z</time>
      </trkpt>
      <trkpt lat="43.59573" lon="6.31098">
        <ele>691</ele>
        <time>2022-12-11T10:31:32Z</time>
      </trkpt>
      <trkpt lat="43.59573" lon="6.31098">
        <ele>691</ele>
        <time>2022-12-11T10:31:33Z</time>
      </trkpt>
      <trkpt lat="43.59573" lon="6.31099">
        <ele>691</ele>
        <time>2022-12-11T10:31:34Z</time>
      </trkpt>
      <trkpt lat="43.59574" lon="6.31099">
        <ele>691</ele>
        <time>2022-12-11T10:31:35Z</time>
      </trkpt>
      <trkpt lat="43.59573" lon="6.31099">
        <ele>691</ele>
        <time>2022-12-11T10:31:36Z</time>
      </trkpt>
      <trkpt lat="43.59573" lon="6.31099">
        <ele>691</ele>
        <time>2022-12-11T10:31:37Z</time>
      </trkpt>
      <trkpt lat="43.59572" lon="6.31099">
        <ele>691</ele>
        <time>2022-12-11T10:31:38Z</time>
      </trkpt>
      <trkpt lat="43.59572" lon="6.311">
        <ele>690</ele>
        <time>2022-12-11T10:31:39Z</time>
      </trkpt>
      <trkpt lat="43.59571" lon="6.31101">
        <ele>690</ele>
        <time>2022-12-11T10:31:40Z</time>
      </trkpt>
      <trkpt lat="43.59571" lon="6.31102">
        <ele>690</ele>
        <time>2022-12-11T10:31:41Z</time>
      </trkpt>
      <trkpt lat="43.59572" lon="6.31103">
        <ele>690</ele>
        <time>2022-12-11T10:31:42Z</time>
      </trkpt>
      <trkpt lat="43.59572" lon="6.31104">
        <ele>690</ele>
        <time>2022-12-11T10:31:43Z</time>
      </trkpt>
      <trkpt lat="43.59573" lon="6.31104">
        <ele>690</ele>
        <time>2022-12-11T10:31:44Z</time>
      </trkpt>
      <trkpt lat="43.59574" lon="6.31105">
        <ele>690</ele>
        <time>2022-12-11T10:31:45Z</time>
      </trkpt>
      <trkpt lat="43.59574" lon="6.31107">
        <ele>689</ele>
        <time>2022-12-11T10:31:46Z</time>
      </trkpt>
      <trkpt lat="43.59575" lon="6.31108">
        <ele>689</ele>
        <time>2022-12-11T10:31:47Z</time>
      </trkpt>
      <trkpt lat="43.59576" lon="6.3111">
        <ele>689</ele>
        <time>2022-12-11T10:31:48Z</time>
      </trkpt>
      <trkpt lat="43.59576" lon="6.31111">
        <ele>689</ele>
        <time>2022-12-11T10:31:49Z</time>
      </trkpt>
      <trkpt lat="43.59577" lon="6.31111">
        <ele>689</ele>
        <time>2022-12-11T10:31:50Z</time>
      </trkpt>
      <trkpt lat="43.59577" lon="6.31112">
        <ele>689</ele>
        <time>2022-12-11T10:31:51Z</time>
      </trkpt>
      <trkpt lat="43.59577" lon="6.31113">
        <ele>689</ele>
        <time>2022-12-11T10:31:52Z</time>
      </trkpt>
      <trkpt lat="43.59578" lon="6.31114">
        <ele>689</ele>
        <time>2022-12-11T10:31:53Z</time>
      </trkpt>
      <trkpt lat="43.59578" lon="6.31114">
        <ele>690</ele>
        <time>2022-12-11T10:31:54Z</time>
      </trkpt>
      <trkpt lat="43.59578" lon="6.31115">
        <ele>690</ele>
        <time>2022-12-11T10:31:55Z</time>
      </trkpt>
      <trkpt lat="43.59578" lon="6.31115">
        <ele>690</ele>
        <time>2022-12-11T10:31:56Z</time>
      </trkpt>
      <trkpt lat="43.59578" lon="6.31116">
        <ele>690</ele>
        <time>2022-12-11T10:31:57Z</time>
      </trkpt>
      <trkpt lat="43.59578" lon="6.31116">
        <ele>690</ele>
        <time>2022-12-11T10:31:58Z</time>
      </trkpt>
      <trkpt lat="43.59578" lon="6.31117">
        <ele>690</ele>
        <time>2022-12-11T10:31:59Z</time>
      </trkpt>
      <trkpt lat="43.59579" lon="6.31117">
        <ele>690</ele>
        <time>2022-12-11T10:32:00Z</time>
      </trkpt>
      <trkpt lat="43.59579" lon="6.31117">
        <ele>690</ele>
        <time>2022-12-11T10:32:01Z</time>
      </trkpt>
      <trkpt lat="43.59579" lon="6.31118">
        <ele>689</ele>
        <time>2022-12-11T10:32:02Z</time>
      </trkpt>
      <trkpt lat="43.59579" lon="6.31118">
        <ele>689</ele>
        <time>2022-12-11T10:32:03Z</time>
      </trkpt>
      <trkpt lat="43.5958" lon="6.31119">
        <ele>689</ele>
        <time>2022-12-11T10:32:04Z</time>
      </trkpt>
      <trkpt lat="43.5958" lon="6.3112">
        <ele>688</ele>
        <time>2022-12-11T10:32:05Z</time>
      </trkpt>
      <trkpt lat="43.59581" lon="6.31121">
        <ele>688</ele>
        <time>2022-12-11T10:32:06Z</time>
      </trkpt>
      <trkpt lat="43.59582" lon="6.31122">
        <ele>688</ele>
        <time>2022-12-11T10:32:07Z</time>
      </trkpt>
      <trkpt lat="43.59582" lon="6.31123">
        <ele>688</ele>
        <time>2022-12-11T10:32:08Z</time>
      </trkpt>
      <trkpt lat="43.59582" lon="6.31124">
        <ele>688</ele>
        <time>2022-12-11T10:32:09Z</time>
      </trkpt>
      <trkpt lat="43.59583" lon="6.31125">
        <ele>688</ele>
        <time>2022-12-11T10:32:10Z</time>
      </trkpt>
      <trkpt lat="43.59584" lon="6.31127">
        <ele>688</ele>
        <time>2022-12-11T10:32:11Z</time>
      </trkpt>
      <trkpt lat="43.59584" lon="6.31128">
        <ele>688</ele>
        <time>2022-12-11T10:32:12Z</time>
      </trkpt>
      <trkpt lat="43.59585" lon="6.3113">
        <ele>688</ele>
        <time>2022-12-11T10:32:13Z</time>
      </trkpt>
      <trkpt lat="43.59586" lon="6.31131">
        <ele>688</ele>
        <time>2022-12-11T10:32:14Z</time>
      </trkpt>
      <trkpt lat="43.59586" lon="6.31132">
        <ele>688</ele>
        <time>2022-12-11T10:32:15Z</time>
      </trkpt>
      <trkpt lat="43.59586" lon="6.31132">
        <ele>688</ele>
        <time>2022-12-11T10:32:16Z</time>
      </trkpt>
      <trkpt lat="43.59586" lon="6.31133">
        <ele>688</ele>
        <time>2022-12-11T10:32:17Z</time>
      </trkpt>
      <trkpt lat="43.59587" lon="6.31133">
        <ele>688</ele>
        <time>2022-12-11T10:32:18Z</time>
      </trkpt>
      <trkpt lat="43.59587" lon="6.31133">
        <ele>688</ele>
        <time>2022-12-11T10:32:19Z</time>
      </trkpt>
      <trkpt lat="43.59587" lon="6.31134">
        <ele>688</ele>
        <time>2022-12-11T10:32:20Z</time>
      </trkpt>
      <trkpt lat="43.59588" lon="6.31135">
        <ele>688</ele>
        <time>2022-12-11T10:32:21Z</time>
      </trkpt>
      <trkpt lat="43.5959" lon="6.31137">
        <ele>688</ele>
        <time>2022-12-11T10:32:22Z</time>
      </trkpt>
      <trkpt lat="43.59591" lon="6.31139">
        <ele>688</ele>
        <time>2022-12-11T10:32:23Z</time>
      </trkpt>
      <trkpt lat="43.59592" lon="6.3114">
        <ele>688</ele>
        <time>2022-12-11T10:32:24Z</time>
      </trkpt>
      <trkpt lat="43.59592" lon="6.31141">
        <ele>688</ele>
        <time>2022-12-11T10:32:25Z</time>
      </trkpt>
      <trkpt lat="43.59593" lon="6.31142">
        <ele>688</ele>
        <time>2022-12-11T10:32:26Z</time>
      </trkpt>
      <trkpt lat="43.59593" lon="6.31143">
        <ele>688</ele>
        <time>2022-12-11T10:32:27Z</time>
      </trkpt>
      <trkpt lat="43.59593" lon="6.31143">
        <ele>688</ele>
        <time>2022-12-11T10:32:28Z</time>
      </trkpt>
      <trkpt lat="43.59594" lon="6.31144">
        <ele>688</ele>
        <time>2022-12-11T10:32:29Z</time>
      </trkpt>
      <trkpt lat="43.59594" lon="6.31144">
        <ele>688</ele>
        <time>2022-12-11T10:32:30Z</time>
      </trkpt>
      <trkpt lat="43.59594" lon="6.31145">
        <ele>688</ele>
        <time>2022-12-11T10:32:31Z</time>
      </trkpt>
      <trkpt lat="43.59595" lon="6.31145">
        <ele>688</ele>
        <time>2022-12-11T10:32:32Z</time>
      </trkpt>
      <trkpt lat="43.59595" lon="6.31145">
        <ele>688</ele>
        <time>2022-12-11T10:32:33Z</time>
      </trkpt>
      <trkpt lat="43.59596" lon="6.31146">
        <ele>688</ele>
        <time>2022-12-11T10:32:34Z</time>
      </trkpt>
      <trkpt lat="43.59596" lon="6.31146">
        <ele>688</ele>
        <time>2022-12-11T10:32:35Z</time>
      </trkpt>
      <trkpt lat="43.59597" lon="6.31147">
        <ele>689</ele>
        <time>2022-12-11T10:32:36Z</time>
      </trkpt>
      <trkpt lat="43.59599" lon="6.31149">
        <ele>689</ele>
        <time>2022-12-11T10:32:37Z</time>
      </trkpt>
      <trkpt lat="43.596" lon="6.3115">
        <ele>689</ele>
        <time>2022-12-11T10:32:38Z</time>
      </trkpt>
      <trkpt lat="43.59602" lon="6.31151">
        <ele>689</ele>
        <time>2022-12-11T10:32:39Z</time>
      </trkpt>
      <trkpt lat="43.59603" lon="6.31152">
        <ele>689</ele>
        <time>2022-12-11T10:32:40Z</time>
      </trkpt>
      <trkpt lat="43.59604" lon="6.31153">
        <ele>689</ele>
        <time>2022-12-11T10:32:41Z</time>
      </trkpt>
      <trkpt lat="43.59605" lon="6.31154">
        <ele>689</ele>
        <time>2022-12-11T10:32:42Z</time>
      </trkpt>
      <trkpt lat="43.59605" lon="6.31155">
        <ele>689</ele>
        <time>2022-12-11T10:32:43Z</time>
      </trkpt>
      <trkpt lat="43.59606" lon="6.31156">
        <ele>689</ele>
        <time>2022-12-11T10:32:44Z</time>
      </trkpt>
      <trkpt lat="43.59607" lon="6.31157">
        <ele>689</ele>
        <time>2022-12-11T10:32:45Z</time>
      </trkpt>
      <trkpt lat="43.59608" lon="6.31158">
        <ele>689</ele>
        <time>2022-12-11T10:32:46Z</time>
      </trkpt>
      <trkpt lat="43.59608" lon="6.31159">
        <ele>689</ele>
        <time>2022-12-11T10:32:47Z</time>
      </trkpt>
      <trkpt lat="43.59609" lon="6.3116">
        <ele>689</ele>
        <time>2022-12-11T10:32:48Z</time>
      </trkpt>
      <trkpt lat="43.5961" lon="6.31162">
        <ele>689</ele>
        <time>2022-12-11T10:32:49Z</time>
      </trkpt>
      <trkpt lat="43.59611" lon="6.31163">
        <ele>690</ele>
        <time>2022-12-11T10:32:50Z</time>
      </trkpt>
      <trkpt lat="43.59612" lon="6.31164">
        <ele>691</ele>
        <time>2022-12-11T10:32:51Z</time>
      </trkpt>
      <trkpt lat="43.59613" lon="6.31165">
        <ele>691</ele>
        <time>2022-12-11T10:32:52Z</time>
      </trkpt>
      <trkpt lat="43.59613" lon="6.31166">
        <ele>691</ele>
        <time>2022-12-11T10:32:53Z</time>
      </trkpt>
      <trkpt lat="43.59614" lon="6.31168">
        <ele>691</ele>
        <time>2022-12-11T10:32:54Z</time>
      </trkpt>
      <trkpt lat="43.59615" lon="6.31169">
        <ele>691</ele>
        <time>2022-12-11T10:32:55Z</time>
      </trkpt>
      <trkpt lat="43.59615" lon="6.31171">
        <ele>692</ele>
        <time>2022-12-11T10:32:56Z</time>
      </trkpt>
      <trkpt lat="43.59615" lon="6.31172">
        <ele>692</ele>
        <time>2022-12-11T10:32:57Z</time>
      </trkpt>
      <trkpt lat="43.59616" lon="6.31173">
        <ele>692</ele>
        <time>2022-12-11T10:32:58Z</time>
      </trkpt>
      <trkpt lat="43.59616" lon="6.31174">
        <ele>693</ele>
        <time>2022-12-11T10:32:59Z</time>
      </trkpt>
      <trkpt lat="43.59617" lon="6.31176">
        <ele>693</ele>
        <time>2022-12-11T10:33:00Z</time>
      </trkpt>
      <trkpt lat="43.59617" lon="6.31177">
        <ele>693</ele>
        <time>2022-12-11T10:33:01Z</time>
      </trkpt>
      <trkpt lat="43.59618" lon="6.31178">
        <ele>693</ele>
        <time>2022-12-11T10:33:02Z</time>
      </trkpt>
      <trkpt lat="43.59618" lon="6.31179">
        <ele>693</ele>
        <time>2022-12-11T10:33:03Z</time>
      </trkpt>
      <trkpt lat="43.59619" lon="6.3118">
        <ele>694</ele>
        <time>2022-12-11T10:33:04Z</time>
      </trkpt>
      <trkpt lat="43.5962" lon="6.31181">
        <ele>694</ele>
        <time>2022-12-11T10:33:05Z</time>
      </trkpt>
      <trkpt lat="43.59621" lon="6.31182">
        <ele>694</ele>
        <time>2022-12-11T10:33:06Z</time>
      </trkpt>
      <trkpt lat="43.59621" lon="6.31183">
        <ele>694</ele>
        <time>2022-12-11T10:33:07Z</time>
      </trkpt>
      <trkpt lat="43.59622" lon="6.31184">
        <ele>694</ele>
        <time>2022-12-11T10:33:08Z</time>
      </trkpt>
      <trkpt lat="43.59622" lon="6.31185">
        <ele>694</ele>
        <time>2022-12-11T10:33:09Z</time>
      </trkpt>
      <trkpt lat="43.59622" lon="6.31187">
        <ele>694</ele>
        <time>2022-12-11T10:33:10Z</time>
      </trkpt>
      <trkpt lat="43.59622" lon="6.31188">
        <ele>694</ele>
        <time>2022-12-11T10:33:11Z</time>
      </trkpt>
      <trkpt lat="43.59623" lon="6.31188">
        <ele>694</ele>
        <time>2022-12-11T10:33:12Z</time>
      </trkpt>
      <trkpt lat="43.59623" lon="6.31189">
        <ele>694</ele>
        <time>2022-12-11T10:33:13Z</time>
      </trkpt>
      <trkpt lat="43.59624" lon="6.3119">
        <ele>694</ele>
        <time>2022-12-11T10:33:14Z</time>
      </trkpt>
      <trkpt lat="43.59625" lon="6.31191">
        <ele>694</ele>
        <time>2022-12-11T10:33:15Z</time>
      </trkpt>
      <trkpt lat="43.59625" lon="6.31191">
        <ele>694</ele>
        <time>2022-12-11T10:33:16Z</time>
      </trkpt>
      <trkpt lat="43.59626" lon="6.31192">
        <ele>694</ele>
        <time>2022-12-11T10:33:17Z</time>
      </trkpt>
      <trkpt lat="43.59626" lon="6.31192">
        <ele>694</ele>
        <time>2022-12-11T10:33:18Z</time>
      </trkpt>
      <trkpt lat="43.59627" lon="6.31192">
        <ele>694</ele>
        <time>2022-12-11T10:33:19Z</time>
      </trkpt>
      <trkpt lat="43.59627" lon="6.31192">
        <ele>694</ele>
        <time>2022-12-11T10:33:20Z</time>
      </trkpt>
      <trkpt lat="43.59628" lon="6.31192">
        <ele>694</ele>
        <time>2022-12-11T10:33:21Z</time>
      </trkpt>
      <trkpt lat="43.59628" lon="6.31193">
        <ele>694</ele>
        <time>2022-12-11T10:33:22Z</time>
      </trkpt>
      <trkpt lat="43.59629" lon="6.31193">
        <ele>694</ele>
        <time>2022-12-11T10:33:23Z</time>
      </trkpt>
      <trkpt lat="43.59629" lon="6.31193">
        <ele>694</ele>
        <time>2022-12-11T10:33:24Z</time>
      </trkpt>
      <trkpt lat="43.5963" lon="6.31194">
        <ele>694</ele>
        <time>2022-12-11T10:33:25Z</time>
      </trkpt>
      <trkpt lat="43.5963" lon="6.31194">
        <ele>694</ele>
        <time>2022-12-11T10:33:26Z</time>
      </trkpt>
      <trkpt lat="43.5963" lon="6.31195">
        <ele>694</ele>
        <time>2022-12-11T10:33:27Z</time>
      </trkpt>
      <trkpt lat="43.5963" lon="6.31196">
        <ele>694</ele>
        <time>2022-12-11T10:33:28Z</time>
      </trkpt>
      <trkpt lat="43.5963" lon="6.31196">
        <ele>694</ele>
        <time>2022-12-11T10:33:29Z</time>
      </trkpt>
      <trkpt lat="43.5963" lon="6.31196">
        <ele>694</ele>
        <time>2022-12-11T10:33:30Z</time>
      </trkpt>
      <trkpt lat="43.59629" lon="6.31196">
        <ele>694</ele>
        <time>2022-12-11T10:33:31Z</time>
      </trkpt>
      <trkpt lat="43.59629" lon="6.31196">
        <ele>694</ele>
        <time>2022-12-11T10:33:32Z</time>
      </trkpt>
      <trkpt lat="43.59629" lon="6.31197">
        <ele>694</ele>
        <time>2022-12-11T10:33:33Z</time>
      </trkpt>
      <trkpt lat="43.59629" lon="6.31196">
        <ele>694</ele>
        <time>2022-12-11T10:33:34Z</time>
      </trkpt>
      <trkpt lat="43.59629" lon="6.31196">
        <ele>694</ele>
        <time>2022-12-11T10:33:35Z</time>
      </trkpt>
      <trkpt lat="43.59628" lon="6.31195">
        <ele>694</ele>
        <time>2022-12-11T10:33:36Z</time>
      </trkpt>
      <trkpt lat="43.59628" lon="6.31195">
        <ele>694</ele>
        <time>2022-12-11T10:33:37Z</time>
      </trkpt>
      <trkpt lat="43.59628" lon="6.31194">
        <ele>694</ele>
        <time>2022-12-11T10:33:38Z</time>
      </trkpt>
      <trkpt lat="43.59627" lon="6.31194">
        <ele>694</ele>
        <time>2022-12-11T10:33:39Z</time>
      </trkpt>
      <trkpt lat="43.59627" lon="6.31193">
        <ele>694</ele>
        <time>2022-12-11T10:33:40Z</time>
      </trkpt>
      <trkpt lat="43.59627" lon="6.31193">
        <ele>694</ele>
        <time>2022-12-11T10:33:41Z</time>
      </trkpt>
      <trkpt lat="43.59627" lon="6.31193">
        <ele>694</ele>
        <time>2022-12-11T10:33:42Z</time>
      </trkpt>
      <trkpt lat="43.59627" lon="6.31193">
        <ele>694</ele>
        <time>2022-12-11T10:33:43Z</time>
      </trkpt>
      <trkpt lat="43.59627" lon="6.31192">
        <ele>694</ele>
        <time>2022-12-11T10:33:44Z</time>
      </trkpt>
      <trkpt lat="43.59626" lon="6.31192">
        <ele>694</ele>
        <time>2022-12-11T10:33:45Z</time>
      </trkpt>
      <trkpt lat="43.59626" lon="6.31192">
        <ele>694</ele>
        <time>2022-12-11T10:33:46Z</time>
      </trkpt>
      <trkpt lat="43.59626" lon="6.31191">
        <ele>694</ele>
        <time>2022-12-11T10:33:47Z</time>
      </trkpt>
      <trkpt lat="43.59626" lon="6.31191">
        <ele>694</ele>
        <time>2022-12-11T10:33:48Z</time>
      </trkpt>
      <trkpt lat="43.59626" lon="6.31191">
        <ele>694</ele>
        <time>2022-12-11T10:33:49Z</time>
      </trkpt>
      <trkpt lat="43.59626" lon="6.3119">
        <ele>694</ele>
        <time>2022-12-11T10:33:50Z</time>
      </trkpt>
      <trkpt lat="43.59626" lon="6.3119">
        <ele>694</ele>
        <time>2022-12-11T10:33:51Z</time>
      </trkpt>
      <trkpt lat="43.59626" lon="6.3119">
        <ele>694</ele>
        <time>2022-12-11T10:33:52Z</time>
      </trkpt>
      <trkpt lat="43.59626" lon="6.3119">
        <ele>694</ele>
        <time>2022-12-11T10:33:53Z</time>
      </trkpt>
      <trkpt lat="43.59626" lon="6.3119">
        <ele>694</ele>
        <time>2022-12-11T10:33:54Z</time>
      </trkpt>
      <trkpt lat="43.59626" lon="6.3119">
        <ele>694</ele>
        <time>2022-12-11T10:33:55Z</time>
      </trkpt>
      <trkpt lat="43.59626" lon="6.3119">
        <ele>694</ele>
        <time>2022-12-11T10:33:56Z</time>
      </trkpt>
      <trkpt lat="43.59626" lon="6.3119">
        <ele>694</ele>
        <time>2022-12-11T10:33:57Z</time>
      </trkpt>
      <trkpt lat="43.59626" lon="6.3119">
        <ele>694</ele>
        <time>2022-12-11T10:33:58Z</time>
      </trkpt>
      <trkpt lat="43.59626" lon="6.3119">
        <ele>694</ele>
        <time>2022-12-11T10:33:59Z</time>
      </trkpt>
      <trkpt lat="43.59626" lon="6.3119">
        <ele>694</ele>
        <time>2022-12-11T10:34:00Z</time>
      </trkpt>
      <trkpt lat="43.59626" lon="6.31191">
        <ele>694</ele>
        <time>2022-12-11T10:34:01Z</time>
      </trkpt>
      <trkpt lat="43.59626" lon="6.31192">
        <ele>694</ele>
        <time>2022-12-11T10:34:02Z</time>
      </trkpt>
      <trkpt lat="43.59626" lon="6.31193">
        <ele>694</ele>
        <time>2022-12-11T10:34:03Z</time>
      </trkpt>
      <trkpt lat="43.59626" lon="6.31194">
        <ele>694</ele>
        <time>2022-12-11T10:34:04Z</time>
      </trkpt>
      <trkpt lat="43.59626" lon="6.31195">
        <ele>694</ele>
        <time>2022-12-11T10:34:05Z</time>
      </trkpt>
      <trkpt lat="43.59627" lon="6.31195">
        <ele>694</ele>
        <time>2022-12-11T10:34:06Z</time>
      </trkpt>
      <trkpt lat="43.59627" lon="6.31196">
        <ele>694</ele>
        <time>2022-12-11T10:34:07Z</time>
      </trkpt>
      <trkpt lat="43.59627" lon="6.31196">
        <ele>694</ele>
        <time>2022-12-11T10:34:08Z</time>
      </trkpt>
      <trkpt lat="43.59627" lon="6.31196">
        <ele>694</ele>
        <time>2022-12-11T10:34:09Z</time>
      </trkpt>
      <trkpt lat="43.59627" lon="6.31197">
        <ele>694</ele>
        <time>2022-12-11T10:34:10Z</time>
      </trkpt>
      <trkpt lat="43.59627" lon="6.31197">
        <ele>694</ele>
        <time>2022-12-11T10:34:11Z</time>
      </trkpt>
      <trkpt lat="43.59627" lon="6.31197">
        <ele>694</ele>
        <time>2022-12-11T10:34:12Z</time>
      </trkpt>
      <trkpt lat="43.59627" lon="6.31197">
        <ele>694</ele>
        <time>2022-12-11T10:34:13Z</time>
      </trkpt>
      <trkpt lat="43.59627" lon="6.31197">
        <ele>694</ele>
        <time>2022-12-11T10:34:14Z</time>
      </trkpt>
      <trkpt lat="43.59627" lon="6.31197">
        <ele>694</ele>
        <time>2022-12-11T10:34:15Z</time>
      </trkpt>
      <trkpt lat="43.59627" lon="6.31197">
        <ele>694</ele>
        <time>2022-12-11T10:34:16Z</time>
      </trkpt>
      <trkpt lat="43.59627" lon="6.31197">
        <ele>694</ele>
        <time>2022-12-11T10:34:17Z</time>
      </trkpt>
      <trkpt lat="43.59627" lon="6.31198">
        <ele>694</ele>
        <time>2022-12-11T10:34:18Z</time>
      </trkpt>
      <trkpt lat="43.59627" lon="6.31198">
        <ele>694</ele>
        <time>2022-12-11T10:34:19Z</time>
      </trkpt>
      <trkpt lat="43.59626" lon="6.31197">
        <ele>694</ele>
        <time>2022-12-11T10:34:20Z</time>
      </trkpt>
      <trkpt lat="43.59626" lon="6.31197">
        <ele>694</ele>
        <time>2022-12-11T10:34:21Z</time>
      </trkpt>
      <trkpt lat="43.59625" lon="6.31196">
        <ele>694</ele>
        <time>2022-12-11T10:34:22Z</time>
      </trkpt>
      <trkpt lat="43.59625" lon="6.31196">
        <ele>694</ele>
        <time>2022-12-11T10:34:23Z</time>
      </trkpt>
      <trkpt lat="43.59624" lon="6.31196">
        <ele>694</ele>
        <time>2022-12-11T10:34:24Z</time>
      </trkpt>
      <trkpt lat="43.59624" lon="6.31196">
        <ele>694</ele>
        <time>2022-12-11T10:34:25Z</time>
      </trkpt>
      <trkpt lat="43.59623" lon="6.31195">
        <ele>694</ele>
        <time>2022-12-11T10:34:26Z</time>
      </trkpt>
      <trkpt lat="43.59622" lon="6.31195">
        <ele>694</ele>
        <time>2022-12-11T10:34:27Z</time>
      </trkpt>
      <trkpt lat="43.59622" lon="6.31194">
        <ele>694</ele>
        <time>2022-12-11T10:34:28Z</time>
      </trkpt>
      <trkpt lat="43.59622" lon="6.31195">
        <ele>694</ele>
        <time>2022-12-11T10:34:29Z</time>
      </trkpt>
      <trkpt lat="43.59622" lon="6.31195">
        <ele>694</ele>
        <time>2022-12-11T10:34:30Z</time>
      </trkpt>
      <trkpt lat="43.59621" lon="6.31195">
        <ele>694</ele>
        <time>2022-12-11T10:34:31Z</time>
      </trkpt>
      <trkpt lat="43.59621" lon="6.31195">
        <ele>694</ele>
        <time>2022-12-11T10:34:32Z</time>
      </trkpt>
      <trkpt lat="43.5962" lon="6.31195">
        <ele>694</ele>
        <time>2022-12-11T10:34:33Z</time>
      </trkpt>
      <trkpt lat="43.59619" lon="6.31196">
        <ele>697</ele>
        <time>2022-12-11T10:34:34Z</time>
      </trkpt>
      <trkpt lat="43.59619" lon="6.31196">
        <ele>697</ele>
        <time>2022-12-11T10:34:35Z</time>
      </trkpt>
      <trkpt lat="43.59618" lon="6.31196">
        <ele>698</ele>
        <time>2022-12-11T10:34:36Z</time>
      </trkpt>
      <trkpt lat="43.59618" lon="6.31197">
        <ele>698</ele>
        <time>2022-12-11T10:34:37Z</time>
      </trkpt>
      <trkpt lat="43.59617" lon="6.31198">
        <ele>698</ele>
        <time>2022-12-11T10:34:38Z</time>
      </trkpt>
      <trkpt lat="43.59617" lon="6.31198">
        <ele>698</ele>
        <time>2022-12-11T10:34:39Z</time>
      </trkpt>
      <trkpt lat="43.59616" lon="6.31199">
        <ele>698</ele>
        <time>2022-12-11T10:34:40Z</time>
      </trkpt>
      <trkpt lat="43.59616" lon="6.312">
        <ele>698</ele>
        <time>2022-12-11T10:34:41Z</time>
      </trkpt>
      <trkpt lat="43.59615" lon="6.31201">
        <ele>698</ele>
        <time>2022-12-11T10:34:42Z</time>
      </trkpt>
      <trkpt lat="43.59614" lon="6.31202">
        <ele>698</ele>
        <time>2022-12-11T10:34:43Z</time>
      </trkpt>
      <trkpt lat="43.59613" lon="6.31203">
        <ele>698</ele>
        <time>2022-12-11T10:34:44Z</time>
      </trkpt>
      <trkpt lat="43.59612" lon="6.31205">
        <ele>699</ele>
        <time>2022-12-11T10:34:45Z</time>
      </trkpt>
      <trkpt lat="43.59612" lon="6.31207">
        <ele>699</ele>
        <time>2022-12-11T10:34:46Z</time>
      </trkpt>
      <trkpt lat="43.59611" lon="6.31208">
        <ele>699</ele>
        <time>2022-12-11T10:34:47Z</time>
      </trkpt>
      <trkpt lat="43.59611" lon="6.31209">
        <ele>699</ele>
        <time>2022-12-11T10:34:48Z</time>
      </trkpt>
      <trkpt lat="43.59611" lon="6.3121">
        <ele>699</ele>
        <time>2022-12-11T10:34:49Z</time>
      </trkpt>
      <trkpt lat="43.5961" lon="6.3121">
        <ele>699</ele>
        <time>2022-12-11T10:34:50Z</time>
      </trkpt>
      <trkpt lat="43.5961" lon="6.31211">
        <ele>699</ele>
        <time>2022-12-11T10:34:51Z</time>
      </trkpt>
      <trkpt lat="43.5961" lon="6.31212">
        <ele>699</ele>
        <time>2022-12-11T10:34:52Z</time>
      </trkpt>
      <trkpt lat="43.5961" lon="6.31213">
        <ele>699</ele>
        <time>2022-12-11T10:34:53Z</time>
      </trkpt>
      <trkpt lat="43.59609" lon="6.31214">
        <ele>698</ele>
        <time>2022-12-11T10:34:54Z</time>
      </trkpt>
      <trkpt lat="43.59609" lon="6.31215">
        <ele>698</ele>
        <time>2022-12-11T10:34:55Z</time>
      </trkpt>
      <trkpt lat="43.59608" lon="6.31217">
        <ele>697</ele>
        <time>2022-12-11T10:34:56Z</time>
      </trkpt>
      <trkpt lat="43.59608" lon="6.31218">
        <ele>697</ele>
        <time>2022-12-11T10:34:57Z</time>
      </trkpt>
      <trkpt lat="43.59608" lon="6.31219">
        <ele>696</ele>
        <time>2022-12-11T10:34:58Z</time>
      </trkpt>
      <trkpt lat="43.59608" lon="6.3122">
        <ele>696</ele>
        <time>2022-12-11T10:34:59Z</time>
      </trkpt>
      <trkpt lat="43.59608" lon="6.31221">
        <ele>696</ele>
        <time>2022-12-11T10:35:00Z</time>
      </trkpt>
      <trkpt lat="43.59608" lon="6.31221">
        <ele>696</ele>
        <time>2022-12-11T10:35:01Z</time>
      </trkpt>
      <trkpt lat="43.59608" lon="6.31222">
        <ele>696</ele>
        <time>2022-12-11T10:35:02Z</time>
      </trkpt>
      <trkpt lat="43.59608" lon="6.31223">
        <ele>696</ele>
        <time>2022-12-11T10:35:03Z</time>
      </trkpt>
      <trkpt lat="43.59609" lon="6.31223">
        <ele>696</ele>
        <time>2022-12-11T10:35:04Z</time>
      </trkpt>
      <trkpt lat="43.59609" lon="6.31224">
        <ele>696</ele>
        <time>2022-12-11T10:35:05Z</time>
      </trkpt>
      <trkpt lat="43.59609" lon="6.31224">
        <ele>696</ele>
        <time>2022-12-11T10:35:06Z</time>
      </trkpt>
      <trkpt lat="43.59609" lon="6.31225">
        <ele>696</ele>
        <time>2022-12-11T10:35:07Z</time>
      </trkpt>
      <trkpt lat="43.5961" lon="6.31225">
        <ele>696</ele>
        <time>2022-12-11T10:35:08Z</time>
      </trkpt>
      <trkpt lat="43.5961" lon="6.31226">
        <ele>696</ele>
        <time>2022-12-11T10:35:09Z</time>
      </trkpt>
      <trkpt lat="43.5961" lon="6.31226">
        <ele>696</ele>
        <time>2022-12-11T10:35:10Z</time>
      </trkpt>
      <trkpt lat="43.59611" lon="6.31227">
        <ele>696</ele>
        <time>2022-12-11T10:35:11Z</time>
      </trkpt>
      <trkpt lat="43.59611" lon="6.31228">
        <ele>696</ele>
        <time>2022-12-11T10:35:12Z</time>
      </trkpt>
      <trkpt lat="43.59612" lon="6.31229">
        <ele>696</ele>
        <time>2022-12-11T10:35:13Z</time>
      </trkpt>
      <trkpt lat="43.59612" lon="6.3123">
        <ele>697</ele>
        <time>2022-12-11T10:35:14Z</time>
      </trkpt>
      <trkpt lat="43.59613" lon="6.3123">
        <ele>697</ele>
        <time>2022-12-11T10:35:15Z</time>
      </trkpt>
      <trkpt lat="43.59613" lon="6.31231">
        <ele>697</ele>
        <time>2022-12-11T10:35:16Z</time>
      </trkpt>
      <trkpt lat="43.59614" lon="6.31232">
        <ele>697</ele>
        <time>2022-12-11T10:35:17Z</time>
      </trkpt>
      <trkpt lat="43.59615" lon="6.31233">
        <ele>697</ele>
        <time>2022-12-11T10:35:18Z</time>
      </trkpt>
      <trkpt lat="43.59616" lon="6.31235">
        <ele>697</ele>
        <time>2022-12-11T10:35:19Z</time>
      </trkpt>
      <trkpt lat="43.59617" lon="6.31236">
        <ele>697</ele>
        <time>2022-12-11T10:35:20Z</time>
      </trkpt>
      <trkpt lat="43.59618" lon="6.31237">
        <ele>697</ele>
        <time>2022-12-11T10:35:21Z</time>
      </trkpt>
      <trkpt lat="43.59619" lon="6.31237">
        <ele>698</ele>
        <time>2022-12-11T10:35:22Z</time>
      </trkpt>
      <trkpt lat="43.59619" lon="6.31238">
        <ele>698</ele>
        <time>2022-12-11T10:35:23Z</time>
      </trkpt>
      <trkpt lat="43.5962" lon="6.31238">
        <ele>698</ele>
        <time>2022-12-11T10:35:24Z</time>
      </trkpt>
      <trkpt lat="43.5962" lon="6.31239">
        <ele>698</ele>
        <time>2022-12-11T10:35:25Z</time>
      </trkpt>
      <trkpt lat="43.59621" lon="6.3124">
        <ele>698</ele>
        <time>2022-12-11T10:35:26Z</time>
      </trkpt>
      <trkpt lat="43.59622" lon="6.3124">
        <ele>698</ele>
        <time>2022-12-11T10:35:27Z</time>
      </trkpt>
      <trkpt lat="43.59622" lon="6.31241">
        <ele>698</ele>
        <time>2022-12-11T10:35:28Z</time>
      </trkpt>
      <trkpt lat="43.59622" lon="6.31241">
        <ele>698</ele>
        <time>2022-12-11T10:35:29Z</time>
      </trkpt>
      <trkpt lat="43.59623" lon="6.31241">
        <ele>698</ele>
        <time>2022-12-11T10:35:30Z</time>
      </trkpt>
      <trkpt lat="43.59623" lon="6.31242">
        <ele>699</ele>
        <time>2022-12-11T10:35:31Z</time>
      </trkpt>
      <trkpt lat="43.59623" lon="6.31242">
        <ele>699</ele>
        <time>2022-12-11T10:35:32Z</time>
      </trkpt>
      <trkpt lat="43.59624" lon="6.31242">
        <ele>699</ele>
        <time>2022-12-11T10:35:33Z</time>
      </trkpt>
      <trkpt lat="43.59624" lon="6.31243">
        <ele>699</ele>
        <time>2022-12-11T10:35:34Z</time>
      </trkpt>
      <trkpt lat="43.59625" lon="6.31243">
        <ele>699</ele>
        <time>2022-12-11T10:35:35Z</time>
      </trkpt>
      <trkpt lat="43.59625" lon="6.31243">
        <ele>699</ele>
        <time>2022-12-11T10:35:36Z</time>
      </trkpt>
      <trkpt lat="43.59626" lon="6.31244">
        <ele>700</ele>
        <time>2022-12-11T10:35:37Z</time>
      </trkpt>
      <trkpt lat="43.59626" lon="6.31244">
        <ele>701</ele>
        <time>2022-12-11T10:35:38Z</time>
      </trkpt>
      <trkpt lat="43.59627" lon="6.31245">
        <ele>701</ele>
        <time>2022-12-11T10:35:39Z</time>
      </trkpt>
      <trkpt lat="43.59627" lon="6.31245">
        <ele>701</ele>
        <time>2022-12-11T10:35:40Z</time>
      </trkpt>
      <trkpt lat="43.59628" lon="6.31246">
        <ele>701</ele>
        <time>2022-12-11T10:35:41Z</time>
      </trkpt>
      <trkpt lat="43.59628" lon="6.31246">
        <ele>701</ele>
        <time>2022-12-11T10:35:42Z</time>
      </trkpt>
      <trkpt lat="43.59628" lon="6.31247">
        <ele>701</ele>
        <time>2022-12-11T10:35:43Z</time>
      </trkpt>
      <trkpt lat="43.59629" lon="6.31247">
        <ele>701</ele>
        <time>2022-12-11T10:35:44Z</time>
      </trkpt>
      <trkpt lat="43.5963" lon="6.31248">
        <ele>701</ele>
        <time>2022-12-11T10:35:45Z</time>
      </trkpt>
      <trkpt lat="43.5963" lon="6.31248">
        <ele>701</ele>
        <time>2022-12-11T10:35:46Z</time>
      </trkpt>
      <trkpt lat="43.59631" lon="6.31248">
        <ele>701</ele>
        <time>2022-12-11T10:35:47Z</time>
      </trkpt>
      <trkpt lat="43.59631" lon="6.31249">
        <ele>701</ele>
        <time>2022-12-11T10:35:48Z</time>
      </trkpt>
      <trkpt lat="43.59632" lon="6.31249">
        <ele>701</ele>
        <time>2022-12-11T10:35:49Z</time>
      </trkpt>
      <trkpt lat="43.59632" lon="6.3125">
        <ele>701</ele>
        <time>2022-12-11T10:35:50Z</time>
      </trkpt>
      <trkpt lat="43.59633" lon="6.3125">
        <ele>701</ele>
        <time>2022-12-11T10:35:51Z</time>
      </trkpt>
      <trkpt lat="43.59634" lon="6.3125">
        <ele>702</ele>
        <time>2022-12-11T10:35:52Z</time>
      </trkpt>
      <trkpt lat="43.59635" lon="6.31251">
        <ele>702</ele>
        <time>2022-12-11T10:35:53Z</time>
      </trkpt>
      <trkpt lat="43.59636" lon="6.31251">
        <ele>702</ele>
        <time>2022-12-11T10:35:54Z</time>
      </trkpt>
      <trkpt lat="43.59636" lon="6.31251">
        <ele>702</ele>
        <time>2022-12-11T10:35:55Z</time>
      </trkpt>
      <trkpt lat="43.59637" lon="6.31251">
        <ele>702</ele>
        <time>2022-12-11T10:35:56Z</time>
      </trkpt>
      <trkpt lat="43.59638" lon="6.31251">
        <ele>702</ele>
        <time>2022-12-11T10:35:57Z</time>
      </trkpt>
      <trkpt lat="43.59638" lon="6.31251">
        <ele>702</ele>
        <time>2022-12-11T10:35:58Z</time>
      </trkpt>
      <trkpt lat="43.59639" lon="6.31252">
        <ele>702</ele>
        <time>2022-12-11T10:35:59Z</time>
      </trkpt>
      <trkpt lat="43.59641" lon="6.31253">
        <ele>702</ele>
        <time>2022-12-11T10:36:00Z</time>
      </trkpt>
      <trkpt lat="43.59642" lon="6.31254">
        <ele>701</ele>
        <time>2022-12-11T10:36:01Z</time>
      </trkpt>
      <trkpt lat="43.59643" lon="6.31255">
        <ele>701</ele>
        <time>2022-12-11T10:36:02Z</time>
      </trkpt>
      <trkpt lat="43.59644" lon="6.31256">
        <ele>701</ele>
        <time>2022-12-11T10:36:03Z</time>
      </trkpt>
      <trkpt lat="43.59645" lon="6.31257">
        <ele>701</ele>
        <time>2022-12-11T10:36:04Z</time>
      </trkpt>
      <trkpt lat="43.59645" lon="6.31257">
        <ele>701</ele>
        <time>2022-12-11T10:36:05Z</time>
      </trkpt>
      <trkpt lat="43.59645" lon="6.31258">
        <ele>701</ele>
        <time>2022-12-11T10:36:06Z</time>
      </trkpt>
      <trkpt lat="43.59646" lon="6.31258">
        <ele>701</ele>
        <time>2022-12-11T10:36:07Z</time>
      </trkpt>
      <trkpt lat="43.59646" lon="6.31258">
        <ele>701</ele>
        <time>2022-12-11T10:36:08Z</time>
      </trkpt>
      <trkpt lat="43.59646" lon="6.31259">
        <ele>701</ele>
        <time>2022-12-11T10:36:09Z</time>
      </trkpt>
      <trkpt lat="43.59647" lon="6.31259">
        <ele>701</ele>
        <time>2022-12-11T10:36:10Z</time>
      </trkpt>
      <trkpt lat="43.59647" lon="6.3126">
        <ele>701</ele>
        <time>2022-12-11T10:36:11Z</time>
      </trkpt>
      <trkpt lat="43.59648" lon="6.31262">
        <ele>701</ele>
        <time>2022-12-11T10:36:12Z</time>
      </trkpt>
      <trkpt lat="43.59649" lon="6.31263">
        <ele>701</ele>
        <time>2022-12-11T10:36:13Z</time>
      </trkpt>
      <trkpt lat="43.5965" lon="6.31264">
        <ele>701</ele>
        <time>2022-12-11T10:36:14Z</time>
      </trkpt>
      <trkpt lat="43.59651" lon="6.31265">
        <ele>701</ele>
        <time>2022-12-11T10:36:15Z</time>
      </trkpt>
      <trkpt lat="43.59651" lon="6.31266">
        <ele>701</ele>
        <time>2022-12-11T10:36:16Z</time>
      </trkpt>
      <trkpt lat="43.59652" lon="6.31267">
        <ele>701</ele>
        <time>2022-12-11T10:36:17Z</time>
      </trkpt>
      <trkpt lat="43.59652" lon="6.31267">
        <ele>701</ele>
        <time>2022-12-11T10:36:18Z</time>
      </trkpt>
      <trkpt lat="43.59653" lon="6.31268">
        <ele>701</ele>
        <time>2022-12-11T10:36:19Z</time>
      </trkpt>
      <trkpt lat="43.59653" lon="6.31269">
        <ele>701</ele>
        <time>2022-12-11T10:36:20Z</time>
      </trkpt>
      <trkpt lat="43.59654" lon="6.3127">
        <ele>701</ele>
        <time>2022-12-11T10:36:21Z</time>
      </trkpt>
      <trkpt lat="43.59654" lon="6.31271">
        <ele>701</ele>
        <time>2022-12-11T10:36:22Z</time>
      </trkpt>
      <trkpt lat="43.59655" lon="6.31271">
        <ele>701</ele>
        <time>2022-12-11T10:36:23Z</time>
      </trkpt>
      <trkpt lat="43.59655" lon="6.31272">
        <ele>701</ele>
        <time>2022-12-11T10:36:24Z</time>
      </trkpt>
      <trkpt lat="43.59655" lon="6.31272">
        <ele>701</ele>
        <time>2022-12-11T10:36:25Z</time>
      </trkpt>
      <trkpt lat="43.59655" lon="6.31272">
        <ele>702</ele>
        <time>2022-12-11T10:36:26Z</time>
      </trkpt>
      <trkpt lat="43.59655" lon="6.31273">
        <ele>702</ele>
        <time>2022-12-11T10:36:27Z</time>
      </trkpt>
      <trkpt lat="43.59655" lon="6.31273">
        <ele>702</ele>
        <time>2022-12-11T10:36:28Z</time>
      </trkpt>
      <trkpt lat="43.59656" lon="6.31274">
        <ele>702</ele>
        <time>2022-12-11T10:36:29Z</time>
      </trkpt>
      <trkpt lat="43.59657" lon="6.31275">
        <ele>702</ele>
        <time>2022-12-11T10:36:30Z</time>
      </trkpt>
      <trkpt lat="43.59658" lon="6.31276">
        <ele>703</ele>
        <time>2022-12-11T10:36:31Z</time>
      </trkpt>
      <trkpt lat="43.59659" lon="6.31278">
        <ele>703</ele>
        <time>2022-12-11T10:36:32Z</time>
      </trkpt>
      <trkpt lat="43.5966" lon="6.31279">
        <ele>703</ele>
        <time>2022-12-11T10:36:33Z</time>
      </trkpt>
      <trkpt lat="43.59661" lon="6.3128">
        <ele>703</ele>
        <time>2022-12-11T10:36:34Z</time>
      </trkpt>
      <trkpt lat="43.59661" lon="6.3128">
        <ele>704</ele>
        <time>2022-12-11T10:36:35Z</time>
      </trkpt>
      <trkpt lat="43.59662" lon="6.31281">
        <ele>704</ele>
        <time>2022-12-11T10:36:36Z</time>
      </trkpt>
      <trkpt lat="43.59663" lon="6.31282">
        <ele>705</ele>
        <time>2022-12-11T10:36:37Z</time>
      </trkpt>
      <trkpt lat="43.59663" lon="6.31283">
        <ele>705</ele>
        <time>2022-12-11T10:36:38Z</time>
      </trkpt>
      <trkpt lat="43.59664" lon="6.31284">
        <ele>705</ele>
        <time>2022-12-11T10:36:39Z</time>
      </trkpt>
      <trkpt lat="43.59665" lon="6.31285">
        <ele>705</ele>
        <time>2022-12-11T10:36:40Z</time>
      </trkpt>
      <trkpt lat="43.59666" lon="6.31286">
        <ele>705</ele>
        <time>2022-12-11T10:36:41Z</time>
      </trkpt>
      <trkpt lat="43.59667" lon="6.31287">
        <ele>705</ele>
        <time>2022-12-11T10:36:42Z</time>
      </trkpt>
      <trkpt lat="43.59668" lon="6.31288">
        <ele>706</ele>
        <time>2022-12-11T10:36:43Z</time>
      </trkpt>
      <trkpt lat="43.59669" lon="6.31288">
        <ele>706</ele>
        <time>2022-12-11T10:36:44Z</time>
      </trkpt>
      <trkpt lat="43.5967" lon="6.31289">
        <ele>706</ele>
        <time>2022-12-11T10:36:45Z</time>
      </trkpt>
      <trkpt lat="43.5967" lon="6.3129">
        <ele>706</ele>
        <time>2022-12-11T10:36:46Z</time>
      </trkpt>
      <trkpt lat="43.59671" lon="6.3129">
        <ele>706</ele>
        <time>2022-12-11T10:36:47Z</time>
      </trkpt>
      <trkpt lat="43.59671" lon="6.31291">
        <ele>706</ele>
        <time>2022-12-11T10:36:48Z</time>
      </trkpt>
      <trkpt lat="43.59672" lon="6.31291">
        <ele>706</ele>
        <time>2022-12-11T10:36:49Z</time>
      </trkpt>
      <trkpt lat="43.59672" lon="6.31292">
        <ele>706</ele>
        <time>2022-12-11T10:36:50Z</time>
      </trkpt>
      <trkpt lat="43.59673" lon="6.31292">
        <ele>706</ele>
        <time>2022-12-11T10:36:51Z</time>
      </trkpt>
      <trkpt lat="43.59673" lon="6.31293">
        <ele>706</ele>
        <time>2022-12-11T10:36:52Z</time>
      </trkpt>
      <trkpt lat="43.59673" lon="6.31294">
        <ele>706</ele>
        <time>2022-12-11T10:36:53Z</time>
      </trkpt>
      <trkpt lat="43.59674" lon="6.31294">
        <ele>706</ele>
        <time>2022-12-11T10:36:54Z</time>
      </trkpt>
      <trkpt lat="43.59674" lon="6.31295">
        <ele>706</ele>
        <time>2022-12-11T10:36:55Z</time>
      </trkpt>
      <trkpt lat="43.59674" lon="6.31295">
        <ele>706</ele>
        <time>2022-12-11T10:36:56Z</time>
      </trkpt>
      <trkpt lat="43.59675" lon="6.31296">
        <ele>707</ele>
        <time>2022-12-11T10:36:57Z</time>
      </trkpt>
      <trkpt lat="43.59675" lon="6.31296">
        <ele>708</ele>
        <time>2022-12-11T10:36:58Z</time>
      </trkpt>
      <trkpt lat="43.59675" lon="6.31297">
        <ele>708</ele>
        <time>2022-12-11T10:36:59Z</time>
      </trkpt>
      <trkpt lat="43.59676" lon="6.31297">
        <ele>709</ele>
        <time>2022-12-11T10:37:00Z</time>
      </trkpt>
      <trkpt lat="43.59676" lon="6.31298">
        <ele>709</ele>
        <time>2022-12-11T10:37:01Z</time>
      </trkpt>
      <trkpt lat="43.59677" lon="6.31298">
        <ele>709</ele>
        <time>2022-12-11T10:37:02Z</time>
      </trkpt>
      <trkpt lat="43.59677" lon="6.31299">
        <ele>709</ele>
        <time>2022-12-11T10:37:03Z</time>
      </trkpt>
      <trkpt lat="43.59677" lon="6.31299">
        <ele>709</ele>
        <time>2022-12-11T10:37:04Z</time>
      </trkpt>
      <trkpt lat="43.59677" lon="6.313">
        <ele>709</ele>
        <time>2022-12-11T10:37:05Z</time>
      </trkpt>
      <trkpt lat="43.59678" lon="6.313">
        <ele>710</ele>
        <time>2022-12-11T10:37:06Z</time>
      </trkpt>
      <trkpt lat="43.59678" lon="6.31301">
        <ele>710</ele>
        <time>2022-12-11T10:37:07Z</time>
      </trkpt>
      <trkpt lat="43.59678" lon="6.31301">
        <ele>710</ele>
        <time>2022-12-11T10:37:08Z</time>
      </trkpt>
      <trkpt lat="43.59679" lon="6.31301">
        <ele>710</ele>
        <time>2022-12-11T10:37:09Z</time>
      </trkpt>
      <trkpt lat="43.59679" lon="6.31302">
        <ele>711</ele>
        <time>2022-12-11T10:37:10Z</time>
      </trkpt>
      <trkpt lat="43.5968" lon="6.31302">
        <ele>711</ele>
        <time>2022-12-11T10:37:11Z</time>
      </trkpt>
      <trkpt lat="43.5968" lon="6.31303">
        <ele>711</ele>
        <time>2022-12-11T10:37:12Z</time>
      </trkpt>
      <trkpt lat="43.59681" lon="6.31303">
        <ele>711</ele>
        <time>2022-12-11T10:37:13Z</time>
      </trkpt>
      <trkpt lat="43.59681" lon="6.31303">
        <ele>714</ele>
        <time>2022-12-11T10:37:14Z</time>
      </trkpt>
      <trkpt lat="43.59682" lon="6.31304">
        <ele>714</ele>
        <time>2022-12-11T10:37:15Z</time>
      </trkpt>
      <trkpt lat="43.59683" lon="6.31304">
        <ele>715</ele>
        <time>2022-12-11T10:37:16Z</time>
      </trkpt>
      <trkpt lat="43.59683" lon="6.31305">
        <ele>715</ele>
        <time>2022-12-11T10:37:17Z</time>
      </trkpt>
      <trkpt lat="43.59684" lon="6.31305">
        <ele>715</ele>
        <time>2022-12-11T10:37:18Z</time>
      </trkpt>
      <trkpt lat="43.59684" lon="6.31306">
        <ele>715</ele>
        <time>2022-12-11T10:37:19Z</time>
      </trkpt>
      <trkpt lat="43.59684" lon="6.31306">
        <ele>715</ele>
        <time>2022-12-11T10:37:20Z</time>
      </trkpt>
      <trkpt lat="43.59685" lon="6.31307">
        <ele>715</ele>
        <time>2022-12-11T10:37:21Z</time>
      </trkpt>
      <trkpt lat="43.59685" lon="6.31308">
        <ele>715</ele>
        <time>2022-12-11T10:37:22Z</time>
      </trkpt>
      <trkpt lat="43.59685" lon="6.31308">
        <ele>715</ele>
        <time>2022-12-11T10:37:23Z</time>
      </trkpt>
      <trkpt lat="43.59685" lon="6.31308">
        <ele>716</ele>
        <time>2022-12-11T10:37:24Z</time>
      </trkpt>
      <trkpt lat="43.59685" lon="6.31308">
        <ele>716</ele>
        <time>2022-12-11T10:37:25Z</time>
      </trkpt>
      <trkpt lat="43.59685" lon="6.31308">
        <ele>716</ele>
        <time>2022-12-11T10:37:26Z</time>
      </trkpt>
      <trkpt lat="43.59685" lon="6.31308">
        <ele>716</ele>
        <time>2022-12-11T10:37:27Z</time>
      </trkpt>
      <trkpt lat="43.59685" lon="6.31308">
        <ele>716</ele>
        <time>2022-12-11T10:37:28Z</time>
      </trkpt>
      <trkpt lat="43.59685" lon="6.31308">
        <ele>715</ele>
        <time>2022-12-11T10:37:29Z</time>
      </trkpt>
      <trkpt lat="43.59685" lon="6.31308">
        <ele>715</ele>
        <time>2022-12-11T10:37:30Z</time>
      </trkpt>
      <trkpt lat="43.59685" lon="6.31309">
        <ele>715</ele>
        <time>2022-12-11T10:37:31Z</time>
      </trkpt>
      <trkpt lat="43.59686" lon="6.31309">
        <ele>715</ele>
        <time>2022-12-11T10:37:32Z</time>
      </trkpt>
      <trkpt lat="43.59686" lon="6.3131">
        <ele>715</ele>
        <time>2022-12-11T10:37:33Z</time>
      </trkpt>
      <trkpt lat="43.59687" lon="6.3131">
        <ele>715</ele>
        <time>2022-12-11T10:37:34Z</time>
      </trkpt>
      <trkpt lat="43.59687" lon="6.31311">
        <ele>715</ele>
        <time>2022-12-11T10:37:35Z</time>
      </trkpt>
      <trkpt lat="43.59688" lon="6.31312">
        <ele>715</ele>
        <time>2022-12-11T10:37:36Z</time>
      </trkpt>
      <trkpt lat="43.59688" lon="6.31312">
        <ele>715</ele>
        <time>2022-12-11T10:37:37Z</time>
      </trkpt>
      <trkpt lat="43.59689" lon="6.31313">
        <ele>715</ele>
        <time>2022-12-11T10:37:38Z</time>
      </trkpt>
      <trkpt lat="43.5969" lon="6.31315">
        <ele>715</ele>
        <time>2022-12-11T10:37:39Z</time>
      </trkpt>
      <trkpt lat="43.59691" lon="6.31317">
        <ele>715</ele>
        <time>2022-12-11T10:37:40Z</time>
      </trkpt>
      <trkpt lat="43.59691" lon="6.31318">
        <ele>714</ele>
        <time>2022-12-11T10:37:41Z</time>
      </trkpt>
      <trkpt lat="43.59692" lon="6.31318">
        <ele>714</ele>
        <time>2022-12-11T10:37:42Z</time>
      </trkpt>
      <trkpt lat="43.59692" lon="6.31319">
        <ele>714</ele>
        <time>2022-12-11T10:37:43Z</time>
      </trkpt>
      <trkpt lat="43.59692" lon="6.31319">
        <ele>714</ele>
        <time>2022-12-11T10:37:44Z</time>
      </trkpt>
      <trkpt lat="43.59692" lon="6.31319">
        <ele>714</ele>
        <time>2022-12-11T10:37:45Z</time>
      </trkpt>
      <trkpt lat="43.59692" lon="6.31319">
        <ele>714</ele>
        <time>2022-12-11T10:37:46Z</time>
      </trkpt>
      <trkpt lat="43.59692" lon="6.3132">
        <ele>714</ele>
        <time>2022-12-11T10:37:47Z</time>
      </trkpt>
      <trkpt lat="43.59692" lon="6.3132">
        <ele>714</ele>
        <time>2022-12-11T10:37:48Z</time>
      </trkpt>
      <trkpt lat="43.59693" lon="6.3132">
        <ele>714</ele>
        <time>2022-12-11T10:37:49Z</time>
      </trkpt>
      <trkpt lat="43.59693" lon="6.31321">
        <ele>715</ele>
        <time>2022-12-11T10:37:50Z</time>
      </trkpt>
      <trkpt lat="43.59693" lon="6.31321">
        <ele>715</ele>
        <time>2022-12-11T10:37:51Z</time>
      </trkpt>
      <trkpt lat="43.59693" lon="6.31322">
        <ele>715</ele>
        <time>2022-12-11T10:37:52Z</time>
      </trkpt>
      <trkpt lat="43.59694" lon="6.31323">
        <ele>715</ele>
        <time>2022-12-11T10:37:53Z</time>
      </trkpt>
      <trkpt lat="43.59694" lon="6.31323">
        <ele>715</ele>
        <time>2022-12-11T10:37:54Z</time>
      </trkpt>
      <trkpt lat="43.59695" lon="6.31324">
        <ele>715</ele>
        <time>2022-12-11T10:37:55Z</time>
      </trkpt>
      <trkpt lat="43.59695" lon="6.31325">
        <ele>715</ele>
        <time>2022-12-11T10:37:56Z</time>
      </trkpt>
      <trkpt lat="43.59696" lon="6.31326">
        <ele>716</ele>
        <time>2022-12-11T10:37:57Z</time>
      </trkpt>
      <trkpt lat="43.59696" lon="6.31326">
        <ele>716</ele>
        <time>2022-12-11T10:37:58Z</time>
      </trkpt>
      <trkpt lat="43.59697" lon="6.31327">
        <ele>716</ele>
        <time>2022-12-11T10:37:59Z</time>
      </trkpt>
      <trkpt lat="43.59697" lon="6.31328">
        <ele>716</ele>
        <time>2022-12-11T10:38:00Z</time>
      </trkpt>
      <trkpt lat="43.59698" lon="6.31329">
        <ele>716</ele>
        <time>2022-12-11T10:38:01Z</time>
      </trkpt>
      <trkpt lat="43.59698" lon="6.31329">
        <ele>716</ele>
        <time>2022-12-11T10:38:02Z</time>
      </trkpt>
      <trkpt lat="43.59698" lon="6.3133">
        <ele>717</ele>
        <time>2022-12-11T10:38:03Z</time>
      </trkpt>
      <trkpt lat="43.59699" lon="6.3133">
        <ele>717</ele>
        <time>2022-12-11T10:38:04Z</time>
      </trkpt>
      <trkpt lat="43.59699" lon="6.3133">
        <ele>718</ele>
        <time>2022-12-11T10:38:05Z</time>
      </trkpt>
      <trkpt lat="43.59699" lon="6.31331">
        <ele>718</ele>
        <time>2022-12-11T10:38:06Z</time>
      </trkpt>
      <trkpt lat="43.59699" lon="6.31331">
        <ele>718</ele>
        <time>2022-12-11T10:38:07Z</time>
      </trkpt>
      <trkpt lat="43.59699" lon="6.31331">
        <ele>718</ele>
        <time>2022-12-11T10:38:08Z</time>
      </trkpt>
      <trkpt lat="43.59699" lon="6.31331">
        <ele>718</ele>
        <time>2022-12-11T10:38:09Z</time>
      </trkpt>
      <trkpt lat="43.59699" lon="6.31331">
        <ele>718</ele>
        <time>2022-12-11T10:38:10Z</time>
      </trkpt>
      <trkpt lat="43.59699" lon="6.31332">
        <ele>718</ele>
        <time>2022-12-11T10:38:11Z</time>
      </trkpt>
      <trkpt lat="43.59699" lon="6.31332">
        <ele>718</ele>
        <time>2022-12-11T10:38:12Z</time>
      </trkpt>
      <trkpt lat="43.597" lon="6.31332">
        <ele>718</ele>
        <time>2022-12-11T10:38:13Z</time>
      </trkpt>
      <trkpt lat="43.597" lon="6.31332">
        <ele>718</ele>
        <time>2022-12-11T10:38:14Z</time>
      </trkpt>
      <trkpt lat="43.597" lon="6.31333">
        <ele>718</ele>
        <time>2022-12-11T10:38:15Z</time>
      </trkpt>
      <trkpt lat="43.59701" lon="6.31334">
        <ele>718</ele>
        <time>2022-12-11T10:38:16Z</time>
      </trkpt>
      <trkpt lat="43.59701" lon="6.31334">
        <ele>718</ele>
        <time>2022-12-11T10:38:17Z</time>
      </trkpt>
      <trkpt lat="43.59702" lon="6.31336">
        <ele>718</ele>
        <time>2022-12-11T10:38:18Z</time>
      </trkpt>
      <trkpt lat="43.59702" lon="6.31337">
        <ele>718</ele>
        <time>2022-12-11T10:38:19Z</time>
      </trkpt>
      <trkpt lat="43.59703" lon="6.31339">
        <ele>718</ele>
        <time>2022-12-11T10:38:20Z</time>
      </trkpt>
      <trkpt lat="43.59704" lon="6.3134">
        <ele>718</ele>
        <time>2022-12-11T10:38:21Z</time>
      </trkpt>
      <trkpt lat="43.59704" lon="6.31342">
        <ele>718</ele>
        <time>2022-12-11T10:38:22Z</time>
      </trkpt>
      <trkpt lat="43.59704" lon="6.31342">
        <ele>718</ele>
        <time>2022-12-11T10:38:23Z</time>
      </trkpt>
      <trkpt lat="43.59704" lon="6.31343">
        <ele>718</ele>
        <time>2022-12-11T10:38:24Z</time>
      </trkpt>
      <trkpt lat="43.59704" lon="6.31343">
        <ele>718</ele>
        <time>2022-12-11T10:38:25Z</time>
      </trkpt>
      <trkpt lat="43.59705" lon="6.31343">
        <ele>718</ele>
        <time>2022-12-11T10:38:26Z</time>
      </trkpt>
      <trkpt lat="43.59705" lon="6.31343">
        <ele>718</ele>
        <time>2022-12-11T10:38:27Z</time>
      </trkpt>
      <trkpt lat="43.59705" lon="6.31343">
        <ele>718</ele>
        <time>2022-12-11T10:38:28Z</time>
      </trkpt>
      <trkpt lat="43.59705" lon="6.31343">
        <ele>718</ele>
        <time>2022-12-11T10:38:29Z</time>
      </trkpt>
      <trkpt lat="43.59705" lon="6.31343">
        <ele>718</ele>
        <time>2022-12-11T10:38:30Z</time>
      </trkpt>
      <trkpt lat="43.59705" lon="6.31344">
        <ele>718</ele>
        <time>2022-12-11T10:38:31Z</time>
      </trkpt>
      <trkpt lat="43.59705" lon="6.31344">
        <ele>718</ele>
        <time>2022-12-11T10:38:32Z</time>
      </trkpt>
      <trkpt lat="43.59705" lon="6.31344">
        <ele>718</ele>
        <time>2022-12-11T10:38:33Z</time>
      </trkpt>
      <trkpt lat="43.59705" lon="6.31344">
        <ele>718</ele>
        <time>2022-12-11T10:38:34Z</time>
      </trkpt>
      <trkpt lat="43.59705" lon="6.31344">
        <ele>718</ele>
        <time>2022-12-11T10:38:35Z</time>
      </trkpt>
      <trkpt lat="43.59705" lon="6.31344">
        <ele>718</ele>
        <time>2022-12-11T10:38:36Z</time>
      </trkpt>
      <trkpt lat="43.59705" lon="6.31344">
        <ele>718</ele>
        <time>2022-12-11T10:38:37Z</time>
      </trkpt>
      <trkpt lat="43.59705" lon="6.31344">
        <ele>718</ele>
        <time>2022-12-11T10:38:38Z</time>
      </trkpt>
      <trkpt lat="43.59705" lon="6.31345">
        <ele>718</ele>
        <time>2022-12-11T10:38:39Z</time>
      </trkpt>
      <trkpt lat="43.59705" lon="6.31345">
        <ele>718</ele>
        <time>2022-12-11T10:38:40Z</time>
      </trkpt>
      <trkpt lat="43.59705" lon="6.31345">
        <ele>718</ele>
        <time>2022-12-11T10:38:41Z</time>
      </trkpt>
      <trkpt lat="43.59705" lon="6.31345">
        <ele>718</ele>
        <time>2022-12-11T10:38:42Z</time>
      </trkpt>
      <trkpt lat="43.59705" lon="6.31345">
        <ele>718</ele>
        <time>2022-12-11T10:38:43Z</time>
      </trkpt>
      <trkpt lat="43.59705" lon="6.31345">
        <ele>718</ele>
        <time>2022-12-11T10:38:44Z</time>
      </trkpt>
      <trkpt lat="43.59705" lon="6.31345">
        <ele>718</ele>
        <time>2022-12-11T10:38:45Z</time>
      </trkpt>
      <trkpt lat="43.59705" lon="6.31345">
        <ele>718</ele>
        <time>2022-12-11T10:38:46Z</time>
      </trkpt>
      <trkpt lat="43.59705" lon="6.31345">
        <ele>718</ele>
        <time>2022-12-11T10:38:47Z</time>
      </trkpt>
      <trkpt lat="43.59705" lon="6.31345">
        <ele>718</ele>
        <time>2022-12-11T10:38:48Z</time>
      </trkpt>
      <trkpt lat="43.59705" lon="6.31345">
        <ele>718</ele>
        <time>2022-12-11T10:38:49Z</time>
      </trkpt>
      <trkpt lat="43.59705" lon="6.31345">
        <ele>718</ele>
        <time>2022-12-11T10:38:50Z</time>
      </trkpt>
      <trkpt lat="43.59705" lon="6.31345">
        <ele>718</ele>
        <time>2022-12-11T10:38:51Z</time>
      </trkpt>
      <trkpt lat="43.59705" lon="6.31345">
        <ele>718</ele>
        <time>2022-12-11T10:38:52Z</time>
      </trkpt>
      <trkpt lat="43.59705" lon="6.31345">
        <ele>718</ele>
        <time>2022-12-11T10:38:53Z</time>
      </trkpt>
      <trkpt lat="43.59706" lon="6.31348">
        <ele>718</ele>
        <time>2022-12-11T10:38:54Z</time>
      </trkpt>
      <trkpt lat="43.59706" lon="6.31349">
        <ele>718</ele>
        <time>2022-12-11T10:38:55Z</time>
      </trkpt>
      <trkpt lat="43.59707" lon="6.3135">
        <ele>719</ele>
        <time>2022-12-11T10:38:56Z</time>
      </trkpt>
      <trkpt lat="43.59707" lon="6.3135">
        <ele>719</ele>
        <time>2022-12-11T10:38:57Z</time>
      </trkpt>
      <trkpt lat="43.59707" lon="6.31351">
        <ele>719</ele>
        <time>2022-12-11T10:38:58Z</time>
      </trkpt>
      <trkpt lat="43.59707" lon="6.31351">
        <ele>719</ele>
        <time>2022-12-11T10:38:59Z</time>
      </trkpt>
      <trkpt lat="43.59708" lon="6.31352">
        <ele>719</ele>
        <time>2022-12-11T10:39:00Z</time>
      </trkpt>
      <trkpt lat="43.59708" lon="6.31352">
        <ele>719</ele>
        <time>2022-12-11T10:39:01Z</time>
      </trkpt>
      <trkpt lat="43.59708" lon="6.31353">
        <ele>719</ele>
        <time>2022-12-11T10:39:02Z</time>
      </trkpt>
      <trkpt lat="43.59708" lon="6.31353">
        <ele>719</ele>
        <time>2022-12-11T10:39:03Z</time>
      </trkpt>
      <trkpt lat="43.59708" lon="6.31353">
        <ele>719</ele>
        <time>2022-12-11T10:39:04Z</time>
      </trkpt>
      <trkpt lat="43.59708" lon="6.31353">
        <ele>719</ele>
        <time>2022-12-11T10:39:05Z</time>
      </trkpt>
      <trkpt lat="43.59709" lon="6.31353">
        <ele>719</ele>
        <time>2022-12-11T10:39:06Z</time>
      </trkpt>
      <trkpt lat="43.59709" lon="6.31353">
        <ele>719</ele>
        <time>2022-12-11T10:39:07Z</time>
      </trkpt>
      <trkpt lat="43.59709" lon="6.31353">
        <ele>719</ele>
        <time>2022-12-11T10:39:08Z</time>
      </trkpt>
      <trkpt lat="43.59709" lon="6.31353">
        <ele>719</ele>
        <time>2022-12-11T10:39:09Z</time>
      </trkpt>
      <trkpt lat="43.59709" lon="6.31353">
        <ele>719</ele>
        <time>2022-12-11T10:39:10Z</time>
      </trkpt>
      <trkpt lat="43.59709" lon="6.31353">
        <ele>719</ele>
        <time>2022-12-11T10:39:11Z</time>
      </trkpt>
      <trkpt lat="43.59709" lon="6.31354">
        <ele>719</ele>
        <time>2022-12-11T10:39:12Z</time>
      </trkpt>
      <trkpt lat="43.59709" lon="6.31354">
        <ele>719</ele>
        <time>2022-12-11T10:39:13Z</time>
      </trkpt>
      <trkpt lat="43.59709" lon="6.31354">
        <ele>719</ele>
        <time>2022-12-11T10:39:14Z</time>
      </trkpt>
      <trkpt lat="43.59709" lon="6.31354">
        <ele>719</ele>
        <time>2022-12-11T10:39:15Z</time>
      </trkpt>
      <trkpt lat="43.59709" lon="6.31354">
        <ele>719</ele>
        <time>2022-12-11T10:39:16Z</time>
      </trkpt>
      <trkpt lat="43.59709" lon="6.31354">
        <ele>719</ele>
        <time>2022-12-11T10:39:17Z</time>
      </trkpt>
      <trkpt lat="43.59709" lon="6.31354">
        <ele>719</ele>
        <time>2022-12-11T10:39:18Z</time>
      </trkpt>
      <trkpt lat="43.59709" lon="6.31354">
        <ele>719</ele>
        <time>2022-12-11T10:39:19Z</time>
      </trkpt>
      <trkpt lat="43.59709" lon="6.31355">
        <ele>719</ele>
        <time>2022-12-11T10:39:20Z</time>
      </trkpt>
      <trkpt lat="43.59708" lon="6.31355">
        <ele>719</ele>
        <time>2022-12-11T10:39:21Z</time>
      </trkpt>
      <trkpt lat="43.59708" lon="6.31356">
        <ele>719</ele>
        <time>2022-12-11T10:39:22Z</time>
      </trkpt>
      <trkpt lat="43.59708" lon="6.31357">
        <ele>719</ele>
        <time>2022-12-11T10:39:23Z</time>
      </trkpt>
      <trkpt lat="43.59708" lon="6.31358">
        <ele>719</ele>
        <time>2022-12-11T10:39:24Z</time>
      </trkpt>
      <trkpt lat="43.59708" lon="6.31358">
        <ele>719</ele>
        <time>2022-12-11T10:39:25Z</time>
      </trkpt>
      <trkpt lat="43.59708" lon="6.31359">
        <ele>718</ele>
        <time>2022-12-11T10:39:26Z</time>
      </trkpt>
      <trkpt lat="43.59707" lon="6.31359">
        <ele>718</ele>
        <time>2022-12-11T10:39:27Z</time>
      </trkpt>
      <trkpt lat="43.59708" lon="6.3136">
        <ele>718</ele>
        <time>2022-12-11T10:39:28Z</time>
      </trkpt>
      <trkpt lat="43.59708" lon="6.31361">
        <ele>718</ele>
        <time>2022-12-11T10:39:29Z</time>
      </trkpt>
      <trkpt lat="43.59708" lon="6.31362">
        <ele>718</ele>
        <time>2022-12-11T10:39:30Z</time>
      </trkpt>
      <trkpt lat="43.59708" lon="6.31362">
        <ele>718</ele>
        <time>2022-12-11T10:39:31Z</time>
      </trkpt>
      <trkpt lat="43.59708" lon="6.31362">
        <ele>718</ele>
        <time>2022-12-11T10:39:32Z</time>
      </trkpt>
      <trkpt lat="43.59708" lon="6.31363">
        <ele>718</ele>
        <time>2022-12-11T10:39:33Z</time>
      </trkpt>
      <trkpt lat="43.59708" lon="6.31364">
        <ele>718</ele>
        <time>2022-12-11T10:39:34Z</time>
      </trkpt>
      <trkpt lat="43.59709" lon="6.31365">
        <ele>718</ele>
        <time>2022-12-11T10:39:35Z</time>
      </trkpt>
      <trkpt lat="43.59709" lon="6.31365">
        <ele>718</ele>
        <time>2022-12-11T10:39:36Z</time>
      </trkpt>
      <trkpt lat="43.59709" lon="6.31365">
        <ele>718</ele>
        <time>2022-12-11T10:39:37Z</time>
      </trkpt>
      <trkpt lat="43.59709" lon="6.31366">
        <ele>718</ele>
        <time>2022-12-11T10:39:38Z</time>
      </trkpt>
      <trkpt lat="43.59709" lon="6.31366">
        <ele>718</ele>
        <time>2022-12-11T10:39:39Z</time>
      </trkpt>
      <trkpt lat="43.59709" lon="6.31366">
        <ele>718</ele>
        <time>2022-12-11T10:39:40Z</time>
      </trkpt>
      <trkpt lat="43.59709" lon="6.31366">
        <ele>718</ele>
        <time>2022-12-11T10:39:41Z</time>
      </trkpt>
      <trkpt lat="43.59709" lon="6.31366">
        <ele>718</ele>
        <time>2022-12-11T10:39:42Z</time>
      </trkpt>
      <trkpt lat="43.59709" lon="6.31366">
        <ele>718</ele>
        <time>2022-12-11T10:39:43Z</time>
      </trkpt>
      <trkpt lat="43.59709" lon="6.31366">
        <ele>718</ele>
        <time>2022-12-11T10:39:44Z</time>
      </trkpt>
      <trkpt lat="43.59709" lon="6.31366">
        <ele>718</ele>
        <time>2022-12-11T10:39:45Z</time>
      </trkpt>
      <trkpt lat="43.59709" lon="6.31366">
        <ele>718</ele>
        <time>2022-12-11T10:39:46Z</time>
      </trkpt>
      <trkpt lat="43.59709" lon="6.31366">
        <ele>718</ele>
        <time>2022-12-11T10:39:47Z</time>
      </trkpt>
      <trkpt lat="43.59709" lon="6.31366">
        <ele>718</ele>
        <time>2022-12-11T10:39:48Z</time>
      </trkpt>
      <trkpt lat="43.59709" lon="6.31366">
        <ele>718</ele>
        <time>2022-12-11T10:39:49Z</time>
      </trkpt>
      <trkpt lat="43.5971" lon="6.31367">
        <ele>718</ele>
        <time>2022-12-11T10:39:50Z</time>
      </trkpt>
      <trkpt lat="43.5971" lon="6.31367">
        <ele>718</ele>
        <time>2022-12-11T10:39:51Z</time>
      </trkpt>
      <trkpt lat="43.5971" lon="6.31367">
        <ele>718</ele>
        <time>2022-12-11T10:39:52Z</time>
      </trkpt>
      <trkpt lat="43.5971" lon="6.31367">
        <ele>718</ele>
        <time>2022-12-11T10:39:53Z</time>
      </trkpt>
      <trkpt lat="43.5971" lon="6.31367">
        <ele>718</ele>
        <time>2022-12-11T10:39:54Z</time>
      </trkpt>
      <trkpt lat="43.5971" lon="6.31367">
        <ele>718</ele>
        <time>2022-12-11T10:39:55Z</time>
      </trkpt>
      <trkpt lat="43.5971" lon="6.31367">
        <ele>718</ele>
        <time>2022-12-11T10:39:56Z</time>
      </trkpt>
      <trkpt lat="43.5971" lon="6.31367">
        <ele>718</ele>
        <time>2022-12-11T10:39:57Z</time>
      </trkpt>
      <trkpt lat="43.5971" lon="6.31367">
        <ele>718</ele>
        <time>2022-12-11T10:39:58Z</time>
      </trkpt>
      <trkpt lat="43.5971" lon="6.31367">
        <ele>718</ele>
        <time>2022-12-11T10:39:59Z</time>
      </trkpt>
      <trkpt lat="43.5971" lon="6.31367">
        <ele>718</ele>
        <time>2022-12-11T10:40:00Z</time>
      </trkpt>
      <trkpt lat="43.5971" lon="6.31367">
        <ele>718</ele>
        <time>2022-12-11T10:40:01Z</time>
      </trkpt>
      <trkpt lat="43.5971" lon="6.31367">
        <ele>718</ele>
        <time>2022-12-11T10:40:02Z</time>
      </trkpt>
      <trkpt lat="43.5971" lon="6.31367">
        <ele>718</ele>
        <time>2022-12-11T10:40:03Z</time>
      </trkpt>
      <trkpt lat="43.59709" lon="6.31367">
        <ele>718</ele>
        <time>2022-12-11T10:40:04Z</time>
      </trkpt>
      <trkpt lat="43.59709" lon="6.31367">
        <ele>718</ele>
        <time>2022-12-11T10:40:05Z</time>
      </trkpt>
      <trkpt lat="43.59709" lon="6.31368">
        <ele>718</ele>
        <time>2022-12-11T10:40:06Z</time>
      </trkpt>
      <trkpt lat="43.59709" lon="6.31368">
        <ele>718</ele>
        <time>2022-12-11T10:40:07Z</time>
      </trkpt>
      <trkpt lat="43.59709" lon="6.31369">
        <ele>718</ele>
        <time>2022-12-11T10:40:08Z</time>
      </trkpt>
      <trkpt lat="43.59709" lon="6.31369">
        <ele>718</ele>
        <time>2022-12-11T10:40:09Z</time>
      </trkpt>
      <trkpt lat="43.59709" lon="6.31369">
        <ele>718</ele>
        <time>2022-12-11T10:40:10Z</time>
      </trkpt>
      <trkpt lat="43.59709" lon="6.3137">
        <ele>718</ele>
        <time>2022-12-11T10:40:11Z</time>
      </trkpt>
      <trkpt lat="43.59709" lon="6.31372">
        <ele>718</ele>
        <time>2022-12-11T10:40:12Z</time>
      </trkpt>
      <trkpt lat="43.59709" lon="6.31373">
        <ele>718</ele>
        <time>2022-12-11T10:40:13Z</time>
      </trkpt>
      <trkpt lat="43.59709" lon="6.31375">
        <ele>719</ele>
        <time>2022-12-11T10:40:14Z</time>
      </trkpt>
      <trkpt lat="43.59709" lon="6.31376">
        <ele>719</ele>
        <time>2022-12-11T10:40:15Z</time>
      </trkpt>
      <trkpt lat="43.59709" lon="6.31378">
        <ele>719</ele>
        <time>2022-12-11T10:40:16Z</time>
      </trkpt>
      <trkpt lat="43.5971" lon="6.3138">
        <ele>719</ele>
        <time>2022-12-11T10:40:17Z</time>
      </trkpt>
      <trkpt lat="43.5971" lon="6.31381">
        <ele>719</ele>
        <time>2022-12-11T10:40:18Z</time>
      </trkpt>
      <trkpt lat="43.5971" lon="6.31383">
        <ele>719</ele>
        <time>2022-12-11T10:40:19Z</time>
      </trkpt>
      <trkpt lat="43.59711" lon="6.31385">
        <ele>719</ele>
        <time>2022-12-11T10:40:20Z</time>
      </trkpt>
      <trkpt lat="43.59711" lon="6.31388">
        <ele>719</ele>
        <time>2022-12-11T10:40:21Z</time>
      </trkpt>
      <trkpt lat="43.59712" lon="6.3139">
        <ele>719</ele>
        <time>2022-12-11T10:40:22Z</time>
      </trkpt>
      <trkpt lat="43.59712" lon="6.31392">
        <ele>720</ele>
        <time>2022-12-11T10:40:23Z</time>
      </trkpt>
      <trkpt lat="43.59712" lon="6.31394">
        <ele>720</ele>
        <time>2022-12-11T10:40:24Z</time>
      </trkpt>
      <trkpt lat="43.59713" lon="6.31395">
        <ele>720</ele>
        <time>2022-12-11T10:40:25Z</time>
      </trkpt>
      <trkpt lat="43.59713" lon="6.31396">
        <ele>720</ele>
        <time>2022-12-11T10:40:26Z</time>
      </trkpt>
      <trkpt lat="43.59713" lon="6.31398">
        <ele>720</ele>
        <time>2022-12-11T10:40:27Z</time>
      </trkpt>
      <trkpt lat="43.59713" lon="6.31399">
        <ele>721</ele>
        <time>2022-12-11T10:40:28Z</time>
      </trkpt>
      <trkpt lat="43.59714" lon="6.31401">
        <ele>721</ele>
        <time>2022-12-11T10:40:29Z</time>
      </trkpt>
      <trkpt lat="43.59714" lon="6.31402">
        <ele>721</ele>
        <time>2022-12-11T10:40:30Z</time>
      </trkpt>
      <trkpt lat="43.59714" lon="6.31403">
        <ele>721</ele>
        <time>2022-12-11T10:40:31Z</time>
      </trkpt>
      <trkpt lat="43.59714" lon="6.31403">
        <ele>721</ele>
        <time>2022-12-11T10:40:32Z</time>
      </trkpt>
      <trkpt lat="43.59715" lon="6.31404">
        <ele>721</ele>
        <time>2022-12-11T10:40:33Z</time>
      </trkpt>
      <trkpt lat="43.59715" lon="6.31405">
        <ele>721</ele>
        <time>2022-12-11T10:40:34Z</time>
      </trkpt>
      <trkpt lat="43.59715" lon="6.31405">
        <ele>721</ele>
        <time>2022-12-11T10:40:35Z</time>
      </trkpt>
      <trkpt lat="43.59715" lon="6.31406">
        <ele>721</ele>
        <time>2022-12-11T10:40:36Z</time>
      </trkpt>
      <trkpt lat="43.59715" lon="6.31406">
        <ele>721</ele>
        <time>2022-12-11T10:40:37Z</time>
      </trkpt>
      <trkpt lat="43.59715" lon="6.31407">
        <ele>721</ele>
        <time>2022-12-11T10:40:38Z</time>
      </trkpt>
      <trkpt lat="43.59715" lon="6.31408">
        <ele>721</ele>
        <time>2022-12-11T10:40:39Z</time>
      </trkpt>
      <trkpt lat="43.59715" lon="6.3141">
        <ele>721</ele>
        <time>2022-12-11T10:40:40Z</time>
      </trkpt>
      <trkpt lat="43.59715" lon="6.31411">
        <ele>721</ele>
        <time>2022-12-11T10:40:41Z</time>
      </trkpt>
      <trkpt lat="43.59715" lon="6.31412">
        <ele>721</ele>
        <time>2022-12-11T10:40:42Z</time>
      </trkpt>
      <trkpt lat="43.59715" lon="6.31414">
        <ele>721</ele>
        <time>2022-12-11T10:40:43Z</time>
      </trkpt>
      <trkpt lat="43.59715" lon="6.31414">
        <ele>721</ele>
        <time>2022-12-11T10:40:44Z</time>
      </trkpt>
      <trkpt lat="43.59715" lon="6.31415">
        <ele>722</ele>
        <time>2022-12-11T10:40:45Z</time>
      </trkpt>
      <trkpt lat="43.59715" lon="6.31416">
        <ele>722</ele>
        <time>2022-12-11T10:40:46Z</time>
      </trkpt>
      <trkpt lat="43.59715" lon="6.31416">
        <ele>722</ele>
        <time>2022-12-11T10:40:47Z</time>
      </trkpt>
      <trkpt lat="43.59715" lon="6.31416">
        <ele>722</ele>
        <time>2022-12-11T10:40:48Z</time>
      </trkpt>
      <trkpt lat="43.59714" lon="6.31417">
        <ele>722</ele>
        <time>2022-12-11T10:40:49Z</time>
      </trkpt>
      <trkpt lat="43.59714" lon="6.31418">
        <ele>722</ele>
        <time>2022-12-11T10:40:50Z</time>
      </trkpt>
      <trkpt lat="43.59714" lon="6.31419">
        <ele>722</ele>
        <time>2022-12-11T10:40:51Z</time>
      </trkpt>
      <trkpt lat="43.59714" lon="6.3142">
        <ele>722</ele>
        <time>2022-12-11T10:40:52Z</time>
      </trkpt>
      <trkpt lat="43.59714" lon="6.31421">
        <ele>722</ele>
        <time>2022-12-11T10:40:53Z</time>
      </trkpt>
      <trkpt lat="43.59714" lon="6.31421">
        <ele>722</ele>
        <time>2022-12-11T10:40:54Z</time>
      </trkpt>
      <trkpt lat="43.59714" lon="6.31422">
        <ele>722</ele>
        <time>2022-12-11T10:40:55Z</time>
      </trkpt>
      <trkpt lat="43.59714" lon="6.31422">
        <ele>722</ele>
        <time>2022-12-11T10:40:56Z</time>
      </trkpt>
      <trkpt lat="43.59714" lon="6.31423">
        <ele>722</ele>
        <time>2022-12-11T10:40:57Z</time>
      </trkpt>
      <trkpt lat="43.59714" lon="6.31423">
        <ele>723</ele>
        <time>2022-12-11T10:40:58Z</time>
      </trkpt>
      <trkpt lat="43.59714" lon="6.31424">
        <ele>723</ele>
        <time>2022-12-11T10:40:59Z</time>
      </trkpt>
      <trkpt lat="43.59714" lon="6.31425">
        <ele>723</ele>
        <time>2022-12-11T10:41:00Z</time>
      </trkpt>
      <trkpt lat="43.59714" lon="6.31426">
        <ele>723</ele>
        <time>2022-12-11T10:41:01Z</time>
      </trkpt>
      <trkpt lat="43.59714" lon="6.31427">
        <ele>723</ele>
        <time>2022-12-11T10:41:02Z</time>
      </trkpt>
      <trkpt lat="43.59714" lon="6.31428">
        <ele>723</ele>
        <time>2022-12-11T10:41:03Z</time>
      </trkpt>
      <trkpt lat="43.59714" lon="6.31429">
        <ele>723</ele>
        <time>2022-12-11T10:41:04Z</time>
      </trkpt>
      <trkpt lat="43.59714" lon="6.3143">
        <ele>723</ele>
        <time>2022-12-11T10:41:05Z</time>
      </trkpt>
      <trkpt lat="43.59714" lon="6.3143">
        <ele>723</ele>
        <time>2022-12-11T10:41:06Z</time>
      </trkpt>
      <trkpt lat="43.59714" lon="6.31431">
        <ele>723</ele>
        <time>2022-12-11T10:41:07Z</time>
      </trkpt>
      <trkpt lat="43.59714" lon="6.31431">
        <ele>723</ele>
        <time>2022-12-11T10:41:08Z</time>
      </trkpt>
      <trkpt lat="43.59715" lon="6.31431">
        <ele>723</ele>
        <time>2022-12-11T10:41:09Z</time>
      </trkpt>
      <trkpt lat="43.59715" lon="6.31432">
        <ele>723</ele>
        <time>2022-12-11T10:41:10Z</time>
      </trkpt>
      <trkpt lat="43.59715" lon="6.31432">
        <ele>723</ele>
        <time>2022-12-11T10:41:11Z</time>
      </trkpt>
      <trkpt lat="43.59715" lon="6.31433">
        <ele>723</ele>
        <time>2022-12-11T10:41:12Z</time>
      </trkpt>
      <trkpt lat="43.59715" lon="6.31434">
        <ele>723</ele>
        <time>2022-12-11T10:41:13Z</time>
      </trkpt>
      <trkpt lat="43.59715" lon="6.31435">
        <ele>723</ele>
        <time>2022-12-11T10:41:14Z</time>
      </trkpt>
      <trkpt lat="43.59715" lon="6.31436">
        <ele>723</ele>
        <time>2022-12-11T10:41:15Z</time>
      </trkpt>
      <trkpt lat="43.59715" lon="6.31437">
        <ele>724</ele>
        <time>2022-12-11T10:41:16Z</time>
      </trkpt>
      <trkpt lat="43.59715" lon="6.31438">
        <ele>724</ele>
        <time>2022-12-11T10:41:17Z</time>
      </trkpt>
      <trkpt lat="43.59715" lon="6.31439">
        <ele>724</ele>
        <time>2022-12-11T10:41:18Z</time>
      </trkpt>
      <trkpt lat="43.59716" lon="6.31441">
        <ele>724</ele>
        <time>2022-12-11T10:41:19Z</time>
      </trkpt>
      <trkpt lat="43.59716" lon="6.31442">
        <ele>724</ele>
        <time>2022-12-11T10:41:20Z</time>
      </trkpt>
      <trkpt lat="43.59716" lon="6.31444">
        <ele>724</ele>
        <time>2022-12-11T10:41:21Z</time>
      </trkpt>
      <trkpt lat="43.59717" lon="6.31445">
        <ele>724</ele>
        <time>2022-12-11T10:41:22Z</time>
      </trkpt>
      <trkpt lat="43.59717" lon="6.31446">
        <ele>724</ele>
        <time>2022-12-11T10:41:23Z</time>
      </trkpt>
      <trkpt lat="43.59717" lon="6.31448">
        <ele>724</ele>
        <time>2022-12-11T10:41:24Z</time>
      </trkpt>
      <trkpt lat="43.59718" lon="6.31449">
        <ele>724</ele>
        <time>2022-12-11T10:41:25Z</time>
      </trkpt>
      <trkpt lat="43.59718" lon="6.3145">
        <ele>724</ele>
        <time>2022-12-11T10:41:26Z</time>
      </trkpt>
      <trkpt lat="43.59718" lon="6.31451">
        <ele>724</ele>
        <time>2022-12-11T10:41:27Z</time>
      </trkpt>
      <trkpt lat="43.59718" lon="6.31451">
        <ele>724</ele>
        <time>2022-12-11T10:41:28Z</time>
      </trkpt>
      <trkpt lat="43.59718" lon="6.31452">
        <ele>724</ele>
        <time>2022-12-11T10:41:29Z</time>
      </trkpt>
      <trkpt lat="43.59719" lon="6.31452">
        <ele>724</ele>
        <time>2022-12-11T10:41:30Z</time>
      </trkpt>
      <trkpt lat="43.59719" lon="6.31453">
        <ele>724</ele>
        <time>2022-12-11T10:41:31Z</time>
      </trkpt>
      <trkpt lat="43.59719" lon="6.31454">
        <ele>724</ele>
        <time>2022-12-11T10:41:32Z</time>
      </trkpt>
      <trkpt lat="43.59719" lon="6.31455">
        <ele>725</ele>
        <time>2022-12-11T10:41:33Z</time>
      </trkpt>
      <trkpt lat="43.59719" lon="6.31456">
        <ele>725</ele>
        <time>2022-12-11T10:41:34Z</time>
      </trkpt>
      <trkpt lat="43.59719" lon="6.31457">
        <ele>725</ele>
        <time>2022-12-11T10:41:35Z</time>
      </trkpt>
      <trkpt lat="43.59719" lon="6.31459">
        <ele>725</ele>
        <time>2022-12-11T10:41:36Z</time>
      </trkpt>
      <trkpt lat="43.5972" lon="6.3146">
        <ele>725</ele>
        <time>2022-12-11T10:41:37Z</time>
      </trkpt>
      <trkpt lat="43.5972" lon="6.31461">
        <ele>725</ele>
        <time>2022-12-11T10:41:38Z</time>
      </trkpt>
      <trkpt lat="43.5972" lon="6.31462">
        <ele>725</ele>
        <time>2022-12-11T10:41:39Z</time>
      </trkpt>
      <trkpt lat="43.59721" lon="6.31463">
        <ele>725</ele>
        <time>2022-12-11T10:41:40Z</time>
      </trkpt>
      <trkpt lat="43.59721" lon="6.31464">
        <ele>725</ele>
        <time>2022-12-11T10:41:41Z</time>
      </trkpt>
      <trkpt lat="43.59721" lon="6.31466">
        <ele>725</ele>
        <time>2022-12-11T10:41:42Z</time>
      </trkpt>
      <trkpt lat="43.59722" lon="6.31467">
        <ele>725</ele>
        <time>2022-12-11T10:41:43Z</time>
      </trkpt>
      <trkpt lat="43.59722" lon="6.31468">
        <ele>725</ele>
        <time>2022-12-11T10:41:44Z</time>
      </trkpt>
      <trkpt lat="43.59722" lon="6.31469">
        <ele>725</ele>
        <time>2022-12-11T10:41:45Z</time>
      </trkpt>
      <trkpt lat="43.59723" lon="6.3147">
        <ele>725</ele>
        <time>2022-12-11T10:41:46Z</time>
      </trkpt>
      <trkpt lat="43.59723" lon="6.3147">
        <ele>725</ele>
        <time>2022-12-11T10:41:47Z</time>
      </trkpt>
      <trkpt lat="43.59723" lon="6.31471">
        <ele>725</ele>
        <time>2022-12-11T10:41:48Z</time>
      </trkpt>
      <trkpt lat="43.59723" lon="6.31472">
        <ele>725</ele>
        <time>2022-12-11T10:41:49Z</time>
      </trkpt>
      <trkpt lat="43.59723" lon="6.31473">
        <ele>725</ele>
        <time>2022-12-11T10:41:50Z</time>
      </trkpt>
      <trkpt lat="43.59723" lon="6.31474">
        <ele>726</ele>
        <time>2022-12-11T10:41:51Z</time>
      </trkpt>
      <trkpt lat="43.59723" lon="6.31475">
        <ele>726</ele>
        <time>2022-12-11T10:41:52Z</time>
      </trkpt>
      <trkpt lat="43.59724" lon="6.31476">
        <ele>726</ele>
        <time>2022-12-11T10:41:53Z</time>
      </trkpt>
      <trkpt lat="43.59724" lon="6.31478">
        <ele>726</ele>
        <time>2022-12-11T10:41:54Z</time>
      </trkpt>
      <trkpt lat="43.59724" lon="6.31479">
        <ele>726</ele>
        <time>2022-12-11T10:41:55Z</time>
      </trkpt>
      <trkpt lat="43.59724" lon="6.3148">
        <ele>726</ele>
        <time>2022-12-11T10:41:56Z</time>
      </trkpt>
      <trkpt lat="43.59724" lon="6.31481">
        <ele>726</ele>
        <time>2022-12-11T10:41:57Z</time>
      </trkpt>
      <trkpt lat="43.59724" lon="6.31482">
        <ele>726</ele>
        <time>2022-12-11T10:41:58Z</time>
      </trkpt>
      <trkpt lat="43.59725" lon="6.31483">
        <ele>727</ele>
        <time>2022-12-11T10:41:59Z</time>
      </trkpt>
      <trkpt lat="43.59725" lon="6.31484">
        <ele>727</ele>
        <time>2022-12-11T10:42:00Z</time>
      </trkpt>
      <trkpt lat="43.59725" lon="6.31484">
        <ele>728</ele>
        <time>2022-12-11T10:42:01Z</time>
      </trkpt>
      <trkpt lat="43.59725" lon="6.31485">
        <ele>728</ele>
        <time>2022-12-11T10:42:02Z</time>
      </trkpt>
      <trkpt lat="43.59725" lon="6.31486">
        <ele>728</ele>
        <time>2022-12-11T10:42:03Z</time>
      </trkpt>
      <trkpt lat="43.59725" lon="6.31487">
        <ele>728</ele>
        <time>2022-12-11T10:42:04Z</time>
      </trkpt>
      <trkpt lat="43.59725" lon="6.31488">
        <ele>728</ele>
        <time>2022-12-11T10:42:05Z</time>
      </trkpt>
      <trkpt lat="43.59725" lon="6.3149">
        <ele>728</ele>
        <time>2022-12-11T10:42:06Z</time>
      </trkpt>
      <trkpt lat="43.59725" lon="6.31491">
        <ele>729</ele>
        <time>2022-12-11T10:42:07Z</time>
      </trkpt>
      <trkpt lat="43.59725" lon="6.31492">
        <ele>729</ele>
        <time>2022-12-11T10:42:08Z</time>
      </trkpt>
      <trkpt lat="43.59725" lon="6.31493">
        <ele>729</ele>
        <time>2022-12-11T10:42:09Z</time>
      </trkpt>
      <trkpt lat="43.59726" lon="6.31494">
        <ele>729</ele>
        <time>2022-12-11T10:42:10Z</time>
      </trkpt>
      <trkpt lat="43.59726" lon="6.31495">
        <ele>729</ele>
        <time>2022-12-11T10:42:11Z</time>
      </trkpt>
      <trkpt lat="43.59726" lon="6.31496">
        <ele>730</ele>
        <time>2022-12-11T10:42:12Z</time>
      </trkpt>
      <trkpt lat="43.59726" lon="6.31496">
        <ele>730</ele>
        <time>2022-12-11T10:42:13Z</time>
      </trkpt>
      <trkpt lat="43.59727" lon="6.31497">
        <ele>730</ele>
        <time>2022-12-11T10:42:14Z</time>
      </trkpt>
      <trkpt lat="43.59727" lon="6.31497">
        <ele>730</ele>
        <time>2022-12-11T10:42:15Z</time>
      </trkpt>
      <trkpt lat="43.59727" lon="6.31498">
        <ele>730</ele>
        <time>2022-12-11T10:42:16Z</time>
      </trkpt>
      <trkpt lat="43.59727" lon="6.31498">
        <ele>730</ele>
        <time>2022-12-11T10:42:17Z</time>
      </trkpt>
      <trkpt lat="43.59727" lon="6.31498">
        <ele>730</ele>
        <time>2022-12-11T10:42:18Z</time>
      </trkpt>
      <trkpt lat="43.59727" lon="6.31499">
        <ele>730</ele>
        <time>2022-12-11T10:42:19Z</time>
      </trkpt>
      <trkpt lat="43.59727" lon="6.31499">
        <ele>730</ele>
        <time>2022-12-11T10:42:20Z</time>
      </trkpt>
      <trkpt lat="43.59727" lon="6.31499">
        <ele>731</ele>
        <time>2022-12-11T10:42:21Z</time>
      </trkpt>
      <trkpt lat="43.59727" lon="6.315">
        <ele>731</ele>
        <time>2022-12-11T10:42:22Z</time>
      </trkpt>
      <trkpt lat="43.59728" lon="6.315">
        <ele>731</ele>
        <time>2022-12-11T10:42:23Z</time>
      </trkpt>
      <trkpt lat="43.59728" lon="6.31501">
        <ele>731</ele>
        <time>2022-12-11T10:42:24Z</time>
      </trkpt>
      <trkpt lat="43.59728" lon="6.31502">
        <ele>731</ele>
        <time>2022-12-11T10:42:25Z</time>
      </trkpt>
      <trkpt lat="43.59728" lon="6.31503">
        <ele>731</ele>
        <time>2022-12-11T10:42:26Z</time>
      </trkpt>
      <trkpt lat="43.59729" lon="6.31504">
        <ele>731</ele>
        <time>2022-12-11T10:42:27Z</time>
      </trkpt>
      <trkpt lat="43.59729" lon="6.31506">
        <ele>731</ele>
        <time>2022-12-11T10:42:28Z</time>
      </trkpt>
      <trkpt lat="43.5973" lon="6.31507">
        <ele>731</ele>
        <time>2022-12-11T10:42:29Z</time>
      </trkpt>
      <trkpt lat="43.5973" lon="6.31508">
        <ele>731</ele>
        <time>2022-12-11T10:42:30Z</time>
      </trkpt>
      <trkpt lat="43.59731" lon="6.31509">
        <ele>731</ele>
        <time>2022-12-11T10:42:31Z</time>
      </trkpt>
      <trkpt lat="43.59731" lon="6.3151">
        <ele>731</ele>
        <time>2022-12-11T10:42:32Z</time>
      </trkpt>
      <trkpt lat="43.59731" lon="6.3151">
        <ele>732</ele>
        <time>2022-12-11T10:42:33Z</time>
      </trkpt>
      <trkpt lat="43.59732" lon="6.31511">
        <ele>732</ele>
        <time>2022-12-11T10:42:34Z</time>
      </trkpt>
      <trkpt lat="43.59732" lon="6.31512">
        <ele>732</ele>
        <time>2022-12-11T10:42:35Z</time>
      </trkpt>
      <trkpt lat="43.59732" lon="6.31513">
        <ele>732</ele>
        <time>2022-12-11T10:42:36Z</time>
      </trkpt>
      <trkpt lat="43.59733" lon="6.31514">
        <ele>732</ele>
        <time>2022-12-11T10:42:37Z</time>
      </trkpt>
      <trkpt lat="43.59733" lon="6.31515">
        <ele>732</ele>
        <time>2022-12-11T10:42:38Z</time>
      </trkpt>
      <trkpt lat="43.59733" lon="6.31516">
        <ele>732</ele>
        <time>2022-12-11T10:42:39Z</time>
      </trkpt>
      <trkpt lat="43.59734" lon="6.31516">
        <ele>733</ele>
        <time>2022-12-11T10:42:40Z</time>
      </trkpt>
      <trkpt lat="43.59734" lon="6.31517">
        <ele>733</ele>
        <time>2022-12-11T10:42:41Z</time>
      </trkpt>
      <trkpt lat="43.59734" lon="6.31518">
        <ele>733</ele>
        <time>2022-12-11T10:42:42Z</time>
      </trkpt>
      <trkpt lat="43.59735" lon="6.31518">
        <ele>733</ele>
        <time>2022-12-11T10:42:43Z</time>
      </trkpt>
      <trkpt lat="43.59735" lon="6.31518">
        <ele>733</ele>
        <time>2022-12-11T10:42:44Z</time>
      </trkpt>
      <trkpt lat="43.59735" lon="6.31519">
        <ele>733</ele>
        <time>2022-12-11T10:42:45Z</time>
      </trkpt>
      <trkpt lat="43.59735" lon="6.31519">
        <ele>733</ele>
        <time>2022-12-11T10:42:46Z</time>
      </trkpt>
      <trkpt lat="43.59736" lon="6.3152">
        <ele>733</ele>
        <time>2022-12-11T10:42:48Z</time>
      </trkpt>
      <trkpt lat="43.59736" lon="6.3152">
        <ele>733</ele>
        <time>2022-12-11T10:42:49Z</time>
      </trkpt>
      <trkpt lat="43.59736" lon="6.3152">
        <ele>733</ele>
        <time>2022-12-11T10:42:50Z</time>
      </trkpt>
      <trkpt lat="43.59736" lon="6.3152">
        <ele>733</ele>
        <time>2022-12-11T10:42:51Z</time>
      </trkpt>
      <trkpt lat="43.59736" lon="6.3152">
        <ele>733</ele>
        <time>2022-12-11T10:42:52Z</time>
      </trkpt>
      <trkpt lat="43.59736" lon="6.3152">
        <ele>733</ele>
        <time>2022-12-11T10:42:53Z</time>
      </trkpt>
      <trkpt lat="43.59736" lon="6.3152">
        <ele>733</ele>
        <time>2022-12-11T10:42:54Z</time>
      </trkpt>
      <trkpt lat="43.59736" lon="6.3152">
        <ele>733</ele>
        <time>2022-12-11T10:42:55Z</time>
      </trkpt>
      <trkpt lat="43.59736" lon="6.3152">
        <ele>733</ele>
        <time>2022-12-11T10:42:56Z</time>
      </trkpt>
      <trkpt lat="43.59736" lon="6.3152">
        <ele>733</ele>
        <time>2022-12-11T10:42:57Z</time>
      </trkpt>
      <trkpt lat="43.59737" lon="6.31521">
        <ele>733</ele>
        <time>2022-12-11T10:42:58Z</time>
      </trkpt>
      <trkpt lat="43.59737" lon="6.31521">
        <ele>733</ele>
        <time>2022-12-11T10:42:59Z</time>
      </trkpt>
      <trkpt lat="43.59737" lon="6.31521">
        <ele>733</ele>
        <time>2022-12-11T10:43:00Z</time>
      </trkpt>
      <trkpt lat="43.59737" lon="6.31521">
        <ele>733</ele>
        <time>2022-12-11T10:43:01Z</time>
      </trkpt>
      <trkpt lat="43.59737" lon="6.31522">
        <ele>733</ele>
        <time>2022-12-11T10:43:02Z</time>
      </trkpt>
      <trkpt lat="43.59737" lon="6.31522">
        <ele>733</ele>
        <time>2022-12-11T10:43:03Z</time>
      </trkpt>
      <trkpt lat="43.59737" lon="6.31522">
        <ele>733</ele>
        <time>2022-12-11T10:43:04Z</time>
      </trkpt>
      <trkpt lat="43.59737" lon="6.31522">
        <ele>733</ele>
        <time>2022-12-11T10:43:05Z</time>
      </trkpt>
      <trkpt lat="43.59737" lon="6.31522">
        <ele>733</ele>
        <time>2022-12-11T10:43:06Z</time>
      </trkpt>
      <trkpt lat="43.59737" lon="6.31522">
        <ele>733</ele>
        <time>2022-12-11T10:43:07Z</time>
      </trkpt>
      <trkpt lat="43.59737" lon="6.31522">
        <ele>733</ele>
        <time>2022-12-11T10:43:08Z</time>
      </trkpt>
      <trkpt lat="43.59737" lon="6.31522">
        <ele>733</ele>
        <time>2022-12-11T10:43:09Z</time>
      </trkpt>
      <trkpt lat="43.59737" lon="6.31522">
        <ele>733</ele>
        <time>2022-12-11T10:43:10Z</time>
      </trkpt>
      <trkpt lat="43.59737" lon="6.31522">
        <ele>733</ele>
        <time>2022-12-11T10:43:11Z</time>
      </trkpt>
      <trkpt lat="43.59737" lon="6.31522">
        <ele>733</ele>
        <time>2022-12-11T10:43:12Z</time>
      </trkpt>
      <trkpt lat="43.59738" lon="6.31523">
        <ele>733</ele>
        <time>2022-12-11T10:43:13Z</time>
      </trkpt>
      <trkpt lat="43.59738" lon="6.31524">
        <ele>733</ele>
        <time>2022-12-11T10:43:14Z</time>
      </trkpt>
      <trkpt lat="43.59739" lon="6.31525">
        <ele>733</ele>
        <time>2022-12-11T10:43:15Z</time>
      </trkpt>
      <trkpt lat="43.59739" lon="6.31526">
        <ele>734</ele>
        <time>2022-12-11T10:43:16Z</time>
      </trkpt>
      <trkpt lat="43.5974" lon="6.31527">
        <ele>734</ele>
        <time>2022-12-11T10:43:17Z</time>
      </trkpt>
      <trkpt lat="43.5974" lon="6.31528">
        <ele>734</ele>
        <time>2022-12-11T10:43:18Z</time>
      </trkpt>
      <trkpt lat="43.5974" lon="6.31529">
        <ele>734</ele>
        <time>2022-12-11T10:43:19Z</time>
      </trkpt>
      <trkpt lat="43.59741" lon="6.31531">
        <ele>734</ele>
        <time>2022-12-11T10:43:20Z</time>
      </trkpt>
      <trkpt lat="43.59741" lon="6.31532">
        <ele>734</ele>
        <time>2022-12-11T10:43:21Z</time>
      </trkpt>
      <trkpt lat="43.59741" lon="6.31533">
        <ele>734</ele>
        <time>2022-12-11T10:43:22Z</time>
      </trkpt>
      <trkpt lat="43.59742" lon="6.31534">
        <ele>734</ele>
        <time>2022-12-11T10:43:23Z</time>
      </trkpt>
      <trkpt lat="43.59742" lon="6.31535">
        <ele>735</ele>
        <time>2022-12-11T10:43:24Z</time>
      </trkpt>
      <trkpt lat="43.59742" lon="6.31536">
        <ele>735</ele>
        <time>2022-12-11T10:43:25Z</time>
      </trkpt>
      <trkpt lat="43.59743" lon="6.31538">
        <ele>735</ele>
        <time>2022-12-11T10:43:26Z</time>
      </trkpt>
      <trkpt lat="43.59743" lon="6.31539">
        <ele>735</ele>
        <time>2022-12-11T10:43:27Z</time>
      </trkpt>
      <trkpt lat="43.59744" lon="6.31541">
        <ele>735</ele>
        <time>2022-12-11T10:43:28Z</time>
      </trkpt>
      <trkpt lat="43.59745" lon="6.31542">
        <ele>735</ele>
        <time>2022-12-11T10:43:29Z</time>
      </trkpt>
      <trkpt lat="43.59745" lon="6.31543">
        <ele>735</ele>
        <time>2022-12-11T10:43:30Z</time>
      </trkpt>
      <trkpt lat="43.59746" lon="6.31545">
        <ele>735</ele>
        <time>2022-12-11T10:43:31Z</time>
      </trkpt>
      <trkpt lat="43.59747" lon="6.31547">
        <ele>735</ele>
        <time>2022-12-11T10:43:32Z</time>
      </trkpt>
      <trkpt lat="43.59749" lon="6.31549">
        <ele>735</ele>
        <time>2022-12-11T10:43:33Z</time>
      </trkpt>
      <trkpt lat="43.5975" lon="6.31551">
        <ele>735</ele>
        <time>2022-12-11T10:43:34Z</time>
      </trkpt>
      <trkpt lat="43.59752" lon="6.31554">
        <ele>735</ele>
        <time>2022-12-11T10:43:35Z</time>
      </trkpt>
      <trkpt lat="43.59753" lon="6.31556">
        <ele>735</ele>
        <time>2022-12-11T10:43:36Z</time>
      </trkpt>
      <trkpt lat="43.59753" lon="6.31557">
        <ele>736</ele>
        <time>2022-12-11T10:43:37Z</time>
      </trkpt>
      <trkpt lat="43.59754" lon="6.31559">
        <ele>736</ele>
        <time>2022-12-11T10:43:38Z</time>
      </trkpt>
      <trkpt lat="43.59754" lon="6.3156">
        <ele>737</ele>
        <time>2022-12-11T10:43:39Z</time>
      </trkpt>
      <trkpt lat="43.59754" lon="6.31561">
        <ele>737</ele>
        <time>2022-12-11T10:43:40Z</time>
      </trkpt>
      <trkpt lat="43.59755" lon="6.31562">
        <ele>737</ele>
        <time>2022-12-11T10:43:41Z</time>
      </trkpt>
      <trkpt lat="43.59755" lon="6.31563">
        <ele>737</ele>
        <time>2022-12-11T10:43:42Z</time>
      </trkpt>
      <trkpt lat="43.59755" lon="6.31564">
        <ele>737</ele>
        <time>2022-12-11T10:43:43Z</time>
      </trkpt>
      <trkpt lat="43.59755" lon="6.31564">
        <ele>737</ele>
        <time>2022-12-11T10:43:44Z</time>
      </trkpt>
      <trkpt lat="43.59755" lon="6.31565">
        <ele>737</ele>
        <time>2022-12-11T10:43:45Z</time>
      </trkpt>
      <trkpt lat="43.59755" lon="6.31566">
        <ele>737</ele>
        <time>2022-12-11T10:43:46Z</time>
      </trkpt>
      <trkpt lat="43.59755" lon="6.31567">
        <ele>737</ele>
        <time>2022-12-11T10:43:47Z</time>
      </trkpt>
      <trkpt lat="43.59755" lon="6.31568">
        <ele>737</ele>
        <time>2022-12-11T10:43:48Z</time>
      </trkpt>
      <trkpt lat="43.59755" lon="6.31569">
        <ele>737</ele>
        <time>2022-12-11T10:43:49Z</time>
      </trkpt>
      <trkpt lat="43.59756" lon="6.3157">
        <ele>737</ele>
        <time>2022-12-11T10:43:50Z</time>
      </trkpt>
      <trkpt lat="43.59756" lon="6.3157">
        <ele>737</ele>
        <time>2022-12-11T10:43:51Z</time>
      </trkpt>
      <trkpt lat="43.59756" lon="6.31571">
        <ele>737</ele>
        <time>2022-12-11T10:43:52Z</time>
      </trkpt>
      <trkpt lat="43.59757" lon="6.31572">
        <ele>737</ele>
        <time>2022-12-11T10:43:53Z</time>
      </trkpt>
      <trkpt lat="43.59757" lon="6.31572">
        <ele>737</ele>
        <time>2022-12-11T10:43:54Z</time>
      </trkpt>
      <trkpt lat="43.59757" lon="6.31573">
        <ele>737</ele>
        <time>2022-12-11T10:43:55Z</time>
      </trkpt>
      <trkpt lat="43.59757" lon="6.31574">
        <ele>737</ele>
        <time>2022-12-11T10:43:56Z</time>
      </trkpt>
      <trkpt lat="43.59758" lon="6.31575">
        <ele>737</ele>
        <time>2022-12-11T10:43:57Z</time>
      </trkpt>
      <trkpt lat="43.59758" lon="6.31575">
        <ele>737</ele>
        <time>2022-12-11T10:43:58Z</time>
      </trkpt>
      <trkpt lat="43.59758" lon="6.31576">
        <ele>737</ele>
        <time>2022-12-11T10:43:59Z</time>
      </trkpt>
      <trkpt lat="43.59758" lon="6.31576">
        <ele>737</ele>
        <time>2022-12-11T10:44:00Z</time>
      </trkpt>
      <trkpt lat="43.59758" lon="6.31577">
        <ele>737</ele>
        <time>2022-12-11T10:44:01Z</time>
      </trkpt>
      <trkpt lat="43.59758" lon="6.31578">
        <ele>737</ele>
        <time>2022-12-11T10:44:02Z</time>
      </trkpt>
      <trkpt lat="43.59758" lon="6.31579">
        <ele>737</ele>
        <time>2022-12-11T10:44:03Z</time>
      </trkpt>
      <trkpt lat="43.59758" lon="6.3158">
        <ele>737</ele>
        <time>2022-12-11T10:44:04Z</time>
      </trkpt>
      <trkpt lat="43.59758" lon="6.31581">
        <ele>738</ele>
        <time>2022-12-11T10:44:05Z</time>
      </trkpt>
      <trkpt lat="43.59758" lon="6.31582">
        <ele>738</ele>
        <time>2022-12-11T10:44:06Z</time>
      </trkpt>
      <trkpt lat="43.59758" lon="6.31583">
        <ele>738</ele>
        <time>2022-12-11T10:44:07Z</time>
      </trkpt>
      <trkpt lat="43.59758" lon="6.31585">
        <ele>738</ele>
        <time>2022-12-11T10:44:08Z</time>
      </trkpt>
      <trkpt lat="43.59758" lon="6.31586">
        <ele>738</ele>
        <time>2022-12-11T10:44:09Z</time>
      </trkpt>
      <trkpt lat="43.59758" lon="6.31587">
        <ele>738</ele>
        <time>2022-12-11T10:44:10Z</time>
      </trkpt>
      <trkpt lat="43.59758" lon="6.31588">
        <ele>738</ele>
        <time>2022-12-11T10:44:11Z</time>
      </trkpt>
      <trkpt lat="43.59758" lon="6.31589">
        <ele>738</ele>
        <time>2022-12-11T10:44:12Z</time>
      </trkpt>
      <trkpt lat="43.59758" lon="6.3159">
        <ele>738</ele>
        <time>2022-12-11T10:44:13Z</time>
      </trkpt>
      <trkpt lat="43.59758" lon="6.31591">
        <ele>738</ele>
        <time>2022-12-11T10:44:14Z</time>
      </trkpt>
      <trkpt lat="43.59758" lon="6.31592">
        <ele>738</ele>
        <time>2022-12-11T10:44:15Z</time>
      </trkpt>
      <trkpt lat="43.59758" lon="6.31593">
        <ele>738</ele>
        <time>2022-12-11T10:44:16Z</time>
      </trkpt>
      <trkpt lat="43.59759" lon="6.31594">
        <ele>738</ele>
        <time>2022-12-11T10:44:17Z</time>
      </trkpt>
      <trkpt lat="43.59759" lon="6.31594">
        <ele>738</ele>
        <time>2022-12-11T10:44:18Z</time>
      </trkpt>
      <trkpt lat="43.59759" lon="6.31595">
        <ele>738</ele>
        <time>2022-12-11T10:44:19Z</time>
      </trkpt>
      <trkpt lat="43.59759" lon="6.31595">
        <ele>738</ele>
        <time>2022-12-11T10:44:20Z</time>
      </trkpt>
      <trkpt lat="43.59759" lon="6.31595">
        <ele>738</ele>
        <time>2022-12-11T10:44:21Z</time>
      </trkpt>
      <trkpt lat="43.59759" lon="6.31596">
        <ele>738</ele>
        <time>2022-12-11T10:44:22Z</time>
      </trkpt>
      <trkpt lat="43.59759" lon="6.31597">
        <ele>738</ele>
        <time>2022-12-11T10:44:23Z</time>
      </trkpt>
      <trkpt lat="43.5976" lon="6.31599">
        <ele>738</ele>
        <time>2022-12-11T10:44:24Z</time>
      </trkpt>
      <trkpt lat="43.59761" lon="6.316">
        <ele>737</ele>
        <time>2022-12-11T10:44:25Z</time>
      </trkpt>
      <trkpt lat="43.59762" lon="6.31603">
        <ele>737</ele>
        <time>2022-12-11T10:44:26Z</time>
      </trkpt>
      <trkpt lat="43.59763" lon="6.31604">
        <ele>737</ele>
        <time>2022-12-11T10:44:27Z</time>
      </trkpt>
      <trkpt lat="43.59764" lon="6.31606">
        <ele>737</ele>
        <time>2022-12-11T10:44:28Z</time>
      </trkpt>
      <trkpt lat="43.59765" lon="6.31607">
        <ele>737</ele>
        <time>2022-12-11T10:44:29Z</time>
      </trkpt>
      <trkpt lat="43.59766" lon="6.31608">
        <ele>737</ele>
        <time>2022-12-11T10:44:30Z</time>
      </trkpt>
      <trkpt lat="43.59767" lon="6.31609">
        <ele>737</ele>
        <time>2022-12-11T10:44:31Z</time>
      </trkpt>
      <trkpt lat="43.59768" lon="6.3161">
        <ele>738</ele>
        <time>2022-12-11T10:44:32Z</time>
      </trkpt>
      <trkpt lat="43.59769" lon="6.31611">
        <ele>738</ele>
        <time>2022-12-11T10:44:33Z</time>
      </trkpt>
      <trkpt lat="43.59769" lon="6.31612">
        <ele>738</ele>
        <time>2022-12-11T10:44:34Z</time>
      </trkpt>
      <trkpt lat="43.5977" lon="6.31613">
        <ele>738</ele>
        <time>2022-12-11T10:44:35Z</time>
      </trkpt>
      <trkpt lat="43.59771" lon="6.31614">
        <ele>738</ele>
        <time>2022-12-11T10:44:36Z</time>
      </trkpt>
      <trkpt lat="43.59772" lon="6.31616">
        <ele>738</ele>
        <time>2022-12-11T10:44:37Z</time>
      </trkpt>
      <trkpt lat="43.59772" lon="6.31617">
        <ele>738</ele>
        <time>2022-12-11T10:44:38Z</time>
      </trkpt>
      <trkpt lat="43.59773" lon="6.31618">
        <ele>738</ele>
        <time>2022-12-11T10:44:39Z</time>
      </trkpt>
      <trkpt lat="43.59773" lon="6.31619">
        <ele>738</ele>
        <time>2022-12-11T10:44:40Z</time>
      </trkpt>
      <trkpt lat="43.59774" lon="6.31619">
        <ele>738</ele>
        <time>2022-12-11T10:44:41Z</time>
      </trkpt>
      <trkpt lat="43.59775" lon="6.3162">
        <ele>738</ele>
        <time>2022-12-11T10:44:42Z</time>
      </trkpt>
      <trkpt lat="43.59776" lon="6.31621">
        <ele>738</ele>
        <time>2022-12-11T10:44:43Z</time>
      </trkpt>
      <trkpt lat="43.59777" lon="6.31621">
        <ele>739</ele>
        <time>2022-12-11T10:44:44Z</time>
      </trkpt>
      <trkpt lat="43.59778" lon="6.31622">
        <ele>739</ele>
        <time>2022-12-11T10:44:45Z</time>
      </trkpt>
      <trkpt lat="43.59779" lon="6.31623">
        <ele>739</ele>
        <time>2022-12-11T10:44:46Z</time>
      </trkpt>
      <trkpt lat="43.59779" lon="6.31624">
        <ele>740</ele>
        <time>2022-12-11T10:44:47Z</time>
      </trkpt>
      <trkpt lat="43.5978" lon="6.31625">
        <ele>741</ele>
        <time>2022-12-11T10:44:48Z</time>
      </trkpt>
      <trkpt lat="43.59781" lon="6.31626">
        <ele>741</ele>
        <time>2022-12-11T10:44:49Z</time>
      </trkpt>
      <trkpt lat="43.59781" lon="6.31627">
        <ele>741</ele>
        <time>2022-12-11T10:44:50Z</time>
      </trkpt>
      <trkpt lat="43.59782" lon="6.31628">
        <ele>741</ele>
        <time>2022-12-11T10:44:51Z</time>
      </trkpt>
      <trkpt lat="43.59783" lon="6.31629">
        <ele>742</ele>
        <time>2022-12-11T10:44:52Z</time>
      </trkpt>
      <trkpt lat="43.59783" lon="6.3163">
        <ele>742</ele>
        <time>2022-12-11T10:44:53Z</time>
      </trkpt>
      <trkpt lat="43.59784" lon="6.31631">
        <ele>743</ele>
        <time>2022-12-11T10:44:54Z</time>
      </trkpt>
      <trkpt lat="43.59785" lon="6.31632">
        <ele>743</ele>
        <time>2022-12-11T10:44:55Z</time>
      </trkpt>
      <trkpt lat="43.59785" lon="6.31632">
        <ele>743</ele>
        <time>2022-12-11T10:44:56Z</time>
      </trkpt>
      <trkpt lat="43.59786" lon="6.31633">
        <ele>743</ele>
        <time>2022-12-11T10:44:57Z</time>
      </trkpt>
      <trkpt lat="43.59787" lon="6.31634">
        <ele>743</ele>
        <time>2022-12-11T10:44:58Z</time>
      </trkpt>
      <trkpt lat="43.59788" lon="6.31635">
        <ele>744</ele>
        <time>2022-12-11T10:44:59Z</time>
      </trkpt>
      <trkpt lat="43.59788" lon="6.31635">
        <ele>744</ele>
        <time>2022-12-11T10:45:00Z</time>
      </trkpt>
      <trkpt lat="43.59789" lon="6.31636">
        <ele>744</ele>
        <time>2022-12-11T10:45:01Z</time>
      </trkpt>
      <trkpt lat="43.5979" lon="6.31636">
        <ele>745</ele>
        <time>2022-12-11T10:45:02Z</time>
      </trkpt>
      <trkpt lat="43.59791" lon="6.31636">
        <ele>745</ele>
        <time>2022-12-11T10:45:03Z</time>
      </trkpt>
      <trkpt lat="43.59792" lon="6.31637">
        <ele>745</ele>
        <time>2022-12-11T10:45:04Z</time>
      </trkpt>
      <trkpt lat="43.59793" lon="6.31637">
        <ele>745</ele>
        <time>2022-12-11T10:45:05Z</time>
      </trkpt>
      <trkpt lat="43.59794" lon="6.31636">
        <ele>745</ele>
        <time>2022-12-11T10:45:06Z</time>
      </trkpt>
      <trkpt lat="43.59794" lon="6.31635">
        <ele>745</ele>
        <time>2022-12-11T10:45:07Z</time>
      </trkpt>
      <trkpt lat="43.59795" lon="6.31634">
        <ele>745</ele>
        <time>2022-12-11T10:45:08Z</time>
      </trkpt>
      <trkpt lat="43.59795" lon="6.31634">
        <ele>745</ele>
        <time>2022-12-11T10:45:09Z</time>
      </trkpt>
      <trkpt lat="43.59795" lon="6.31634">
        <ele>745</ele>
        <time>2022-12-11T10:45:10Z</time>
      </trkpt>
      <trkpt lat="43.59795" lon="6.31634">
        <ele>745</ele>
        <time>2022-12-11T10:45:11Z</time>
      </trkpt>
      <trkpt lat="43.59795" lon="6.31634">
        <ele>745</ele>
        <time>2022-12-11T10:45:12Z</time>
      </trkpt>
      <trkpt lat="43.59795" lon="6.31634">
        <ele>745</ele>
        <time>2022-12-11T10:45:13Z</time>
      </trkpt>
      <trkpt lat="43.59795" lon="6.31635">
        <ele>745</ele>
        <time>2022-12-11T10:45:14Z</time>
      </trkpt>
      <trkpt lat="43.59795" lon="6.31635">
        <ele>745</ele>
        <time>2022-12-11T10:45:15Z</time>
      </trkpt>
      <trkpt lat="43.59796" lon="6.31636">
        <ele>745</ele>
        <time>2022-12-11T10:45:16Z</time>
      </trkpt>
      <trkpt lat="43.59796" lon="6.31637">
        <ele>745</ele>
        <time>2022-12-11T10:45:17Z</time>
      </trkpt>
      <trkpt lat="43.59796" lon="6.31637">
        <ele>745</ele>
        <time>2022-12-11T10:45:18Z</time>
      </trkpt>
      <trkpt lat="43.59796" lon="6.31637">
        <ele>745</ele>
        <time>2022-12-11T10:45:19Z</time>
      </trkpt>
      <trkpt lat="43.59796" lon="6.31638">
        <ele>745</ele>
        <time>2022-12-11T10:45:20Z</time>
      </trkpt>
      <trkpt lat="43.59796" lon="6.31637">
        <ele>745</ele>
        <time>2022-12-11T10:45:21Z</time>
      </trkpt>
      <trkpt lat="43.59797" lon="6.31637">
        <ele>745</ele>
        <time>2022-12-11T10:45:22Z</time>
      </trkpt>
      <trkpt lat="43.59797" lon="6.31638">
        <ele>745</ele>
        <time>2022-12-11T10:45:23Z</time>
      </trkpt>
      <trkpt lat="43.59798" lon="6.31639">
        <ele>745</ele>
        <time>2022-12-11T10:45:24Z</time>
      </trkpt>
      <trkpt lat="43.59799" lon="6.31639">
        <ele>745</ele>
        <time>2022-12-11T10:45:25Z</time>
      </trkpt>
      <trkpt lat="43.598" lon="6.3164">
        <ele>745</ele>
        <time>2022-12-11T10:45:26Z</time>
      </trkpt>
      <trkpt lat="43.598" lon="6.3164">
        <ele>745</ele>
        <time>2022-12-11T10:45:27Z</time>
      </trkpt>
      <trkpt lat="43.598" lon="6.31641">
        <ele>745</ele>
        <time>2022-12-11T10:45:28Z</time>
      </trkpt>
      <trkpt lat="43.598" lon="6.31641">
        <ele>745</ele>
        <time>2022-12-11T10:45:29Z</time>
      </trkpt>
      <trkpt lat="43.598" lon="6.31642">
        <ele>745</ele>
        <time>2022-12-11T10:45:30Z</time>
      </trkpt>
      <trkpt lat="43.598" lon="6.31642">
        <ele>745</ele>
        <time>2022-12-11T10:45:31Z</time>
      </trkpt>
      <trkpt lat="43.598" lon="6.31643">
        <ele>745</ele>
        <time>2022-12-11T10:45:32Z</time>
      </trkpt>
      <trkpt lat="43.598" lon="6.31644">
        <ele>745</ele>
        <time>2022-12-11T10:45:33Z</time>
      </trkpt>
      <trkpt lat="43.59801" lon="6.31644">
        <ele>745</ele>
        <time>2022-12-11T10:45:34Z</time>
      </trkpt>
      <trkpt lat="43.59801" lon="6.31645">
        <ele>745</ele>
        <time>2022-12-11T10:45:35Z</time>
      </trkpt>
      <trkpt lat="43.59802" lon="6.31646">
        <ele>745</ele>
        <time>2022-12-11T10:45:36Z</time>
      </trkpt>
      <trkpt lat="43.59802" lon="6.31647">
        <ele>744</ele>
        <time>2022-12-11T10:45:37Z</time>
      </trkpt>
      <trkpt lat="43.59803" lon="6.31649">
        <ele>744</ele>
        <time>2022-12-11T10:45:38Z</time>
      </trkpt>
      <trkpt lat="43.59804" lon="6.3165">
        <ele>744</ele>
        <time>2022-12-11T10:45:39Z</time>
      </trkpt>
      <trkpt lat="43.59805" lon="6.31652">
        <ele>744</ele>
        <time>2022-12-11T10:45:40Z</time>
      </trkpt>
      <trkpt lat="43.59805" lon="6.31653">
        <ele>744</ele>
        <time>2022-12-11T10:45:41Z</time>
      </trkpt>
      <trkpt lat="43.59806" lon="6.31654">
        <ele>744</ele>
        <time>2022-12-11T10:45:42Z</time>
      </trkpt>
      <trkpt lat="43.59806" lon="6.31655">
        <ele>744</ele>
        <time>2022-12-11T10:45:43Z</time>
      </trkpt>
      <trkpt lat="43.59807" lon="6.31656">
        <ele>744</ele>
        <time>2022-12-11T10:45:44Z</time>
      </trkpt>
      <trkpt lat="43.59807" lon="6.31657">
        <ele>744</ele>
        <time>2022-12-11T10:45:45Z</time>
      </trkpt>
      <trkpt lat="43.59808" lon="6.31659">
        <ele>744</ele>
        <time>2022-12-11T10:45:46Z</time>
      </trkpt>
      <trkpt lat="43.59809" lon="6.3166">
        <ele>744</ele>
        <time>2022-12-11T10:45:47Z</time>
      </trkpt>
      <trkpt lat="43.59809" lon="6.31661">
        <ele>744</ele>
        <time>2022-12-11T10:45:48Z</time>
      </trkpt>
      <trkpt lat="43.5981" lon="6.31662">
        <ele>744</ele>
        <time>2022-12-11T10:45:49Z</time>
      </trkpt>
      <trkpt lat="43.5981" lon="6.31663">
        <ele>744</ele>
        <time>2022-12-11T10:45:50Z</time>
      </trkpt>
      <trkpt lat="43.59811" lon="6.31665">
        <ele>744</ele>
        <time>2022-12-11T10:45:51Z</time>
      </trkpt>
      <trkpt lat="43.59811" lon="6.31666">
        <ele>744</ele>
        <time>2022-12-11T10:45:52Z</time>
      </trkpt>
      <trkpt lat="43.59812" lon="6.31667">
        <ele>744</ele>
        <time>2022-12-11T10:45:53Z</time>
      </trkpt>
      <trkpt lat="43.59813" lon="6.31668">
        <ele>744</ele>
        <time>2022-12-11T10:45:54Z</time>
      </trkpt>
      <trkpt lat="43.59813" lon="6.31669">
        <ele>744</ele>
        <time>2022-12-11T10:45:55Z</time>
      </trkpt>
      <trkpt lat="43.59814" lon="6.3167">
        <ele>745</ele>
        <time>2022-12-11T10:45:56Z</time>
      </trkpt>
      <trkpt lat="43.59815" lon="6.31672">
        <ele>745</ele>
        <time>2022-12-11T10:45:57Z</time>
      </trkpt>
      <trkpt lat="43.59815" lon="6.31673">
        <ele>746</ele>
        <time>2022-12-11T10:45:58Z</time>
      </trkpt>
      <trkpt lat="43.59816" lon="6.31674">
        <ele>746</ele>
        <time>2022-12-11T10:45:59Z</time>
      </trkpt>
      <trkpt lat="43.59816" lon="6.31675">
        <ele>746</ele>
        <time>2022-12-11T10:46:00Z</time>
      </trkpt>
      <trkpt lat="43.59817" lon="6.31676">
        <ele>746</ele>
        <time>2022-12-11T10:46:01Z</time>
      </trkpt>
      <trkpt lat="43.59817" lon="6.31677">
        <ele>746</ele>
        <time>2022-12-11T10:46:02Z</time>
      </trkpt>
      <trkpt lat="43.59818" lon="6.31678">
        <ele>746</ele>
        <time>2022-12-11T10:46:03Z</time>
      </trkpt>
      <trkpt lat="43.59818" lon="6.31679">
        <ele>746</ele>
        <time>2022-12-11T10:46:04Z</time>
      </trkpt>
      <trkpt lat="43.59818" lon="6.31679">
        <ele>746</ele>
        <time>2022-12-11T10:46:05Z</time>
      </trkpt>
      <trkpt lat="43.59818" lon="6.31679">
        <ele>746</ele>
        <time>2022-12-11T10:46:06Z</time>
      </trkpt>
      <trkpt lat="43.59818" lon="6.3168">
        <ele>746</ele>
        <time>2022-12-11T10:46:07Z</time>
      </trkpt>
      <trkpt lat="43.59819" lon="6.31681">
        <ele>746</ele>
        <time>2022-12-11T10:46:08Z</time>
      </trkpt>
      <trkpt lat="43.5982" lon="6.31684">
        <ele>745</ele>
        <time>2022-12-11T10:46:09Z</time>
      </trkpt>
      <trkpt lat="43.59822" lon="6.31687">
        <ele>745</ele>
        <time>2022-12-11T10:46:10Z</time>
      </trkpt>
      <trkpt lat="43.59823" lon="6.31689">
        <ele>745</ele>
        <time>2022-12-11T10:46:11Z</time>
      </trkpt>
      <trkpt lat="43.59824" lon="6.3169">
        <ele>745</ele>
        <time>2022-12-11T10:46:12Z</time>
      </trkpt>
      <trkpt lat="43.59824" lon="6.31692">
        <ele>745</ele>
        <time>2022-12-11T10:46:13Z</time>
      </trkpt>
      <trkpt lat="43.59825" lon="6.31694">
        <ele>745</ele>
        <time>2022-12-11T10:46:14Z</time>
      </trkpt>
      <trkpt lat="43.59825" lon="6.31695">
        <ele>745</ele>
        <time>2022-12-11T10:46:15Z</time>
      </trkpt>
      <trkpt lat="43.59826" lon="6.31696">
        <ele>745</ele>
        <time>2022-12-11T10:46:16Z</time>
      </trkpt>
      <trkpt lat="43.59826" lon="6.31698">
        <ele>745</ele>
        <time>2022-12-11T10:46:17Z</time>
      </trkpt>
      <trkpt lat="43.59827" lon="6.31699">
        <ele>745</ele>
        <time>2022-12-11T10:46:18Z</time>
      </trkpt>
      <trkpt lat="43.59827" lon="6.317">
        <ele>745</ele>
        <time>2022-12-11T10:46:19Z</time>
      </trkpt>
      <trkpt lat="43.59827" lon="6.31701">
        <ele>745</ele>
        <time>2022-12-11T10:46:20Z</time>
      </trkpt>
      <trkpt lat="43.59827" lon="6.31702">
        <ele>745</ele>
        <time>2022-12-11T10:46:21Z</time>
      </trkpt>
      <trkpt lat="43.59828" lon="6.31703">
        <ele>745</ele>
        <time>2022-12-11T10:46:22Z</time>
      </trkpt>
      <trkpt lat="43.59828" lon="6.31704">
        <ele>745</ele>
        <time>2022-12-11T10:46:23Z</time>
      </trkpt>
      <trkpt lat="43.59829" lon="6.31705">
        <ele>745</ele>
        <time>2022-12-11T10:46:24Z</time>
      </trkpt>
      <trkpt lat="43.59829" lon="6.31706">
        <ele>745</ele>
        <time>2022-12-11T10:46:25Z</time>
      </trkpt>
      <trkpt lat="43.5983" lon="6.31707">
        <ele>745</ele>
        <time>2022-12-11T10:46:26Z</time>
      </trkpt>
      <trkpt lat="43.59831" lon="6.31708">
        <ele>745</ele>
        <time>2022-12-11T10:46:27Z</time>
      </trkpt>
      <trkpt lat="43.59831" lon="6.31709">
        <ele>745</ele>
        <time>2022-12-11T10:46:28Z</time>
      </trkpt>
      <trkpt lat="43.59831" lon="6.3171">
        <ele>744</ele>
        <time>2022-12-11T10:46:29Z</time>
      </trkpt>
      <trkpt lat="43.59832" lon="6.31711">
        <ele>744</ele>
        <time>2022-12-11T10:46:30Z</time>
      </trkpt>
      <trkpt lat="43.59833" lon="6.31713">
        <ele>744</ele>
        <time>2022-12-11T10:46:31Z</time>
      </trkpt>
      <trkpt lat="43.59833" lon="6.31714">
        <ele>744</ele>
        <time>2022-12-11T10:46:32Z</time>
      </trkpt>
      <trkpt lat="43.59834" lon="6.31715">
        <ele>744</ele>
        <time>2022-12-11T10:46:33Z</time>
      </trkpt>
      <trkpt lat="43.59834" lon="6.31717">
        <ele>744</ele>
        <time>2022-12-11T10:46:34Z</time>
      </trkpt>
      <trkpt lat="43.59835" lon="6.31718">
        <ele>744</ele>
        <time>2022-12-11T10:46:35Z</time>
      </trkpt>
      <trkpt lat="43.59835" lon="6.31719">
        <ele>744</ele>
        <time>2022-12-11T10:46:36Z</time>
      </trkpt>
      <trkpt lat="43.59836" lon="6.3172">
        <ele>743</ele>
        <time>2022-12-11T10:46:37Z</time>
      </trkpt>
      <trkpt lat="43.59836" lon="6.31721">
        <ele>743</ele>
        <time>2022-12-11T10:46:38Z</time>
      </trkpt>
      <trkpt lat="43.59836" lon="6.31722">
        <ele>743</ele>
        <time>2022-12-11T10:46:39Z</time>
      </trkpt>
      <trkpt lat="43.59837" lon="6.31723">
        <ele>743</ele>
        <time>2022-12-11T10:46:40Z</time>
      </trkpt>
      <trkpt lat="43.59837" lon="6.31724">
        <ele>743</ele>
        <time>2022-12-11T10:46:41Z</time>
      </trkpt>
      <trkpt lat="43.59838" lon="6.31725">
        <ele>743</ele>
        <time>2022-12-11T10:46:42Z</time>
      </trkpt>
      <trkpt lat="43.59838" lon="6.31726">
        <ele>743</ele>
        <time>2022-12-11T10:46:43Z</time>
      </trkpt>
      <trkpt lat="43.59839" lon="6.31727">
        <ele>743</ele>
        <time>2022-12-11T10:46:44Z</time>
      </trkpt>
      <trkpt lat="43.59839" lon="6.31728">
        <ele>743</ele>
        <time>2022-12-11T10:46:45Z</time>
      </trkpt>
      <trkpt lat="43.5984" lon="6.3173">
        <ele>744</ele>
        <time>2022-12-11T10:46:46Z</time>
      </trkpt>
      <trkpt lat="43.5984" lon="6.31731">
        <ele>744</ele>
        <time>2022-12-11T10:46:47Z</time>
      </trkpt>
      <trkpt lat="43.59841" lon="6.31733">
        <ele>744</ele>
        <time>2022-12-11T10:46:48Z</time>
      </trkpt>
      <trkpt lat="43.59841" lon="6.31734">
        <ele>744</ele>
        <time>2022-12-11T10:46:49Z</time>
      </trkpt>
      <trkpt lat="43.59842" lon="6.31736">
        <ele>744</ele>
        <time>2022-12-11T10:46:50Z</time>
      </trkpt>
      <trkpt lat="43.59842" lon="6.31737">
        <ele>744</ele>
        <time>2022-12-11T10:46:51Z</time>
      </trkpt>
      <trkpt lat="43.59842" lon="6.31738">
        <ele>744</ele>
        <time>2022-12-11T10:46:52Z</time>
      </trkpt>
      <trkpt lat="43.59843" lon="6.31739">
        <ele>744</ele>
        <time>2022-12-11T10:46:53Z</time>
      </trkpt>
      <trkpt lat="43.59843" lon="6.31741">
        <ele>744</ele>
        <time>2022-12-11T10:46:54Z</time>
      </trkpt>
      <trkpt lat="43.59844" lon="6.31742">
        <ele>744</ele>
        <time>2022-12-11T10:46:55Z</time>
      </trkpt>
      <trkpt lat="43.59844" lon="6.31743">
        <ele>744</ele>
        <time>2022-12-11T10:46:56Z</time>
      </trkpt>
      <trkpt lat="43.59845" lon="6.31745">
        <ele>744</ele>
        <time>2022-12-11T10:46:57Z</time>
      </trkpt>
      <trkpt lat="43.59845" lon="6.31746">
        <ele>744</ele>
        <time>2022-12-11T10:46:58Z</time>
      </trkpt>
      <trkpt lat="43.59845" lon="6.31747">
        <ele>744</ele>
        <time>2022-12-11T10:46:59Z</time>
      </trkpt>
      <trkpt lat="43.59846" lon="6.31749">
        <ele>744</ele>
        <time>2022-12-11T10:47:00Z</time>
      </trkpt>
      <trkpt lat="43.59846" lon="6.31749">
        <ele>744</ele>
        <time>2022-12-11T10:47:01Z</time>
      </trkpt>
      <trkpt lat="43.59846" lon="6.3175">
        <ele>744</ele>
        <time>2022-12-11T10:47:02Z</time>
      </trkpt>
      <trkpt lat="43.59847" lon="6.31751">
        <ele>744</ele>
        <time>2022-12-11T10:47:03Z</time>
      </trkpt>
      <trkpt lat="43.59847" lon="6.31752">
        <ele>744</ele>
        <time>2022-12-11T10:47:04Z</time>
      </trkpt>
      <trkpt lat="43.59847" lon="6.31753">
        <ele>744</ele>
        <time>2022-12-11T10:47:05Z</time>
      </trkpt>
      <trkpt lat="43.59847" lon="6.31753">
        <ele>744</ele>
        <time>2022-12-11T10:47:06Z</time>
      </trkpt>
      <trkpt lat="43.59847" lon="6.31753">
        <ele>744</ele>
        <time>2022-12-11T10:47:07Z</time>
      </trkpt>
      <trkpt lat="43.59847" lon="6.31753">
        <ele>744</ele>
        <time>2022-12-11T10:47:08Z</time>
      </trkpt>
      <trkpt lat="43.59846" lon="6.31753">
        <ele>744</ele>
        <time>2022-12-11T10:47:09Z</time>
      </trkpt>
      <trkpt lat="43.59846" lon="6.31752">
        <ele>744</ele>
        <time>2022-12-11T10:47:10Z</time>
      </trkpt>
      <trkpt lat="43.5978" lon="6.31618">
        <ele>745</ele>
        <time>2022-12-11T10:51:13Z</time>
      </trkpt>
      <trkpt lat="43.59779" lon="6.31618">
        <ele>745</ele>
        <time>2022-12-11T10:51:14Z</time>
      </trkpt>
      <trkpt lat="43.59779" lon="6.31618">
        <ele>745</ele>
        <time>2022-12-11T10:51:15Z</time>
      </trkpt>
      <trkpt lat="43.59779" lon="6.31618">
        <ele>745</ele>
        <time>2022-12-11T10:51:16Z</time>
      </trkpt>
      <trkpt lat="43.59779" lon="6.31618">
        <ele>745</ele>
        <time>2022-12-11T10:51:17Z</time>
      </trkpt>
      <trkpt lat="43.59779" lon="6.31617">
        <ele>745</ele>
        <time>2022-12-11T10:51:18Z</time>
      </trkpt>
      <trkpt lat="43.59779" lon="6.31617">
        <ele>745</ele>
        <time>2022-12-11T10:51:19Z</time>
      </trkpt>
      <trkpt lat="43.59779" lon="6.31617">
        <ele>745</ele>
        <time>2022-12-11T10:51:20Z</time>
      </trkpt>
      <trkpt lat="43.59779" lon="6.31617">
        <ele>745</ele>
        <time>2022-12-11T10:51:21Z</time>
      </trkpt>
      <trkpt lat="43.59779" lon="6.31617">
        <ele>745</ele>
        <time>2022-12-11T10:51:22Z</time>
      </trkpt>
      <trkpt lat="43.59779" lon="6.31617">
        <ele>745</ele>
        <time>2022-12-11T10:51:23Z</time>
      </trkpt>
      <trkpt lat="43.59779" lon="6.31617">
        <ele>745</ele>
        <time>2022-12-11T10:51:24Z</time>
      </trkpt>
      <trkpt lat="43.59779" lon="6.31617">
        <ele>745</ele>
        <time>2022-12-11T10:51:25Z</time>
      </trkpt>
      <trkpt lat="43.59779" lon="6.31617">
        <ele>745</ele>
        <time>2022-12-11T10:51:26Z</time>
      </trkpt>
      <trkpt lat="43.59779" lon="6.31617">
        <ele>745</ele>
        <time>2022-12-11T10:51:27Z</time>
      </trkpt>
      <trkpt lat="43.59779" lon="6.31617">
        <ele>745</ele>
        <time>2022-12-11T10:51:28Z</time>
      </trkpt>
      <trkpt lat="43.59779" lon="6.31617">
        <ele>745</ele>
        <time>2022-12-11T10:51:29Z</time>
      </trkpt>
      <trkpt lat="43.59779" lon="6.31617">
        <ele>745</ele>
        <time>2022-12-11T10:51:30Z</time>
      </trkpt>
      <trkpt lat="43.59779" lon="6.31617">
        <ele>745</ele>
        <time>2022-12-11T10:51:31Z</time>
      </trkpt>
      <trkpt lat="43.59779" lon="6.31617">
        <ele>745</ele>
        <time>2022-12-11T10:51:32Z</time>
      </trkpt>
      <trkpt lat="43.59779" lon="6.31617">
        <ele>745</ele>
        <time>2022-12-11T10:51:33Z</time>
      </trkpt>
      <trkpt lat="43.59779" lon="6.31617">
        <ele>745</ele>
        <time>2022-12-11T10:51:34Z</time>
      </trkpt>
      <trkpt lat="43.59779" lon="6.31617">
        <ele>745</ele>
        <time>2022-12-11T10:51:35Z</time>
      </trkpt>
      <trkpt lat="43.59779" lon="6.31617">
        <ele>745</ele>
        <time>2022-12-11T10:51:36Z</time>
      </trkpt>
      <trkpt lat="43.59779" lon="6.31617">
        <ele>745</ele>
        <time>2022-12-11T10:51:37Z</time>
      </trkpt>
      <trkpt lat="43.59779" lon="6.31617">
        <ele>745</ele>
        <time>2022-12-11T10:51:38Z</time>
      </trkpt>
      <trkpt lat="43.59779" lon="6.31617">
        <ele>745</ele>
        <time>2022-12-11T10:51:39Z</time>
      </trkpt>
      <trkpt lat="43.59779" lon="6.31617">
        <ele>745</ele>
        <time>2022-12-11T10:51:40Z</time>
      </trkpt>
      <trkpt lat="43.59779" lon="6.31617">
        <ele>745</ele>
        <time>2022-12-11T10:51:41Z</time>
      </trkpt>
      <trkpt lat="43.59779" lon="6.31617">
        <ele>745</ele>
        <time>2022-12-11T10:51:42Z</time>
      </trkpt>
      <trkpt lat="43.59779" lon="6.31617">
        <ele>745</ele>
        <time>2022-12-11T10:51:43Z</time>
      </trkpt>
      <trkpt lat="43.59779" lon="6.31617">
        <ele>745</ele>
        <time>2022-12-11T10:51:44Z</time>
      </trkpt>
      <trkpt lat="43.59779" lon="6.31617">
        <ele>745</ele>
        <time>2022-12-11T10:51:45Z</time>
      </trkpt>
      <trkpt lat="43.59779" lon="6.31617">
        <ele>745</ele>
        <time>2022-12-11T10:51:46Z</time>
      </trkpt>
      <trkpt lat="43.59779" lon="6.31617">
        <ele>745</ele>
        <time>2022-12-11T10:51:47Z</time>
      </trkpt>
      <trkpt lat="43.59779" lon="6.31617">
        <ele>745</ele>
        <time>2022-12-11T10:51:48Z</time>
      </trkpt>
      <trkpt lat="43.59779" lon="6.31617">
        <ele>745</ele>
        <time>2022-12-11T10:51:49Z</time>
      </trkpt>
      <trkpt lat="43.59779" lon="6.31617">
        <ele>745</ele>
        <time>2022-12-11T10:51:50Z</time>
      </trkpt>
      <trkpt lat="43.59779" lon="6.31617">
        <ele>745</ele>
        <time>2022-12-11T10:51:51Z</time>
      </trkpt>
      <trkpt lat="43.59779" lon="6.31617">
        <ele>745</ele>
        <time>2022-12-11T10:51:52Z</time>
      </trkpt>
      <trkpt lat="43.59779" lon="6.31617">
        <ele>745</ele>
        <time>2022-12-11T10:51:53Z</time>
      </trkpt>
      <trkpt lat="43.59779" lon="6.31617">
        <ele>745</ele>
        <time>2022-12-11T10:51:54Z</time>
      </trkpt>
      <trkpt lat="43.59779" lon="6.31617">
        <ele>745</ele>
        <time>2022-12-11T10:51:55Z</time>
      </trkpt>
      <trkpt lat="43.59779" lon="6.31617">
        <ele>745</ele>
        <time>2022-12-11T10:51:56Z</time>
      </trkpt>
      <trkpt lat="43.59779" lon="6.31617">
        <ele>745</ele>
        <time>2022-12-11T10:51:57Z</time>
      </trkpt>
      <trkpt lat="43.59779" lon="6.31617">
        <ele>745</ele>
        <time>2022-12-11T10:51:58Z</time>
      </trkpt>
      <trkpt lat="43.59779" lon="6.31617">
        <ele>745</ele>
        <time>2022-12-11T10:51:59Z</time>
      </trkpt>
      <trkpt lat="43.59779" lon="6.31617">
        <ele>745</ele>
        <time>2022-12-11T10:52:00Z</time>
      </trkpt>
      <trkpt lat="43.59779" lon="6.31617">
        <ele>745</ele>
        <time>2022-12-11T10:52:01Z</time>
      </trkpt>
      <trkpt lat="43.59779" lon="6.31617">
        <ele>745</ele>
        <time>2022-12-11T10:52:02Z</time>
      </trkpt>
      <trkpt lat="43.59779" lon="6.31617">
        <ele>745</ele>
        <time>2022-12-11T10:52:03Z</time>
      </trkpt>
      <trkpt lat="43.59779" lon="6.31617">
        <ele>745</ele>
        <time>2022-12-11T10:52:04Z</time>
      </trkpt>
      <trkpt lat="43.59779" lon="6.31617">
        <ele>745</ele>
        <time>2022-12-11T10:52:05Z</time>
      </trkpt>
      <trkpt lat="43.59779" lon="6.31617">
        <ele>745</ele>
        <time>2022-12-11T10:52:06Z</time>
      </trkpt>
      <trkpt lat="43.59779" lon="6.31617">
        <ele>745</ele>
        <time>2022-12-11T10:52:07Z</time>
      </trkpt>
      <trkpt lat="43.59779" lon="6.31617">
        <ele>745</ele>
        <time>2022-12-11T10:52:08Z</time>
      </trkpt>
      <trkpt lat="43.59779" lon="6.31617">
        <ele>745</ele>
        <time>2022-12-11T10:52:09Z</time>
      </trkpt>
      <trkpt lat="43.59779" lon="6.31617">
        <ele>745</ele>
        <time>2022-12-11T10:52:10Z</time>
      </trkpt>
      <trkpt lat="43.59779" lon="6.31617">
        <ele>745</ele>
        <time>2022-12-11T10:52:11Z</time>
      </trkpt>
      <trkpt lat="43.59779" lon="6.31617">
        <ele>745</ele>
        <time>2022-12-11T10:52:12Z</time>
      </trkpt>
      <trkpt lat="43.59779" lon="6.31617">
        <ele>745</ele>
        <time>2022-12-11T10:52:13Z</time>
      </trkpt>
      <trkpt lat="43.59779" lon="6.31617">
        <ele>745</ele>
        <time>2022-12-11T10:52:14Z</time>
      </trkpt>
      <trkpt lat="43.59779" lon="6.31617">
        <ele>745</ele>
        <time>2022-12-11T10:52:15Z</time>
      </trkpt>
      <trkpt lat="43.59779" lon="6.31617">
        <ele>745</ele>
        <time>2022-12-11T10:52:16Z</time>
      </trkpt>
      <trkpt lat="43.59779" lon="6.31617">
        <ele>745</ele>
        <time>2022-12-11T10:52:17Z</time>
      </trkpt>
      <trkpt lat="43.59779" lon="6.31617">
        <ele>745</ele>
        <time>2022-12-11T10:52:18Z</time>
      </trkpt>
      <trkpt lat="43.59779" lon="6.31617">
        <ele>745</ele>
        <time>2022-12-11T10:52:19Z</time>
      </trkpt>
      <trkpt lat="43.59779" lon="6.31617">
        <ele>745</ele>
        <time>2022-12-11T10:52:20Z</time>
      </trkpt>
      <trkpt lat="43.59779" lon="6.31617">
        <ele>745</ele>
        <time>2022-12-11T10:52:21Z</time>
      </trkpt>
      <trkpt lat="43.59779" lon="6.31617">
        <ele>745</ele>
        <time>2022-12-11T10:52:22Z</time>
      </trkpt>
      <trkpt lat="43.59779" lon="6.31617">
        <ele>745</ele>
        <time>2022-12-11T10:52:23Z</time>
      </trkpt>
      <trkpt lat="43.59779" lon="6.31617">
        <ele>745</ele>
        <time>2022-12-11T10:52:24Z</time>
      </trkpt>
      <trkpt lat="43.59779" lon="6.31617">
        <ele>745</ele>
        <time>2022-12-11T10:52:25Z</time>
      </trkpt>
      <trkpt lat="43.59779" lon="6.31617">
        <ele>745</ele>
        <time>2022-12-11T10:52:26Z</time>
      </trkpt>
      <trkpt lat="43.59779" lon="6.31617">
        <ele>745</ele>
        <time>2022-12-11T10:52:27Z</time>
      </trkpt>
      <trkpt lat="43.59779" lon="6.31617">
        <ele>745</ele>
        <time>2022-12-11T10:52:28Z</time>
      </trkpt>
      <trkpt lat="43.59779" lon="6.31617">
        <ele>745</ele>
        <time>2022-12-11T10:52:29Z</time>
      </trkpt>
      <trkpt lat="43.59779" lon="6.31617">
        <ele>745</ele>
        <time>2022-12-11T10:52:30Z</time>
      </trkpt>
      <trkpt lat="43.59779" lon="6.31617">
        <ele>746</ele>
        <time>2022-12-11T10:52:31Z</time>
      </trkpt>
      <trkpt lat="43.59779" lon="6.31617">
        <ele>746</ele>
        <time>2022-12-11T10:52:32Z</time>
      </trkpt>
      <trkpt lat="43.59779" lon="6.31617">
        <ele>746</ele>
        <time>2022-12-11T10:52:33Z</time>
      </trkpt>
      <trkpt lat="43.59779" lon="6.31617">
        <ele>746</ele>
        <time>2022-12-11T10:52:34Z</time>
      </trkpt>
      <trkpt lat="43.59779" lon="6.31617">
        <ele>746</ele>
        <time>2022-12-11T10:52:35Z</time>
      </trkpt>
      <trkpt lat="43.59779" lon="6.31617">
        <ele>746</ele>
        <time>2022-12-11T10:52:36Z</time>
      </trkpt>
      <trkpt lat="43.59779" lon="6.31617">
        <ele>746</ele>
        <time>2022-12-11T10:52:37Z</time>
      </trkpt>
      <trkpt lat="43.59779" lon="6.31617">
        <ele>746</ele>
        <time>2022-12-11T10:52:38Z</time>
      </trkpt>
      <trkpt lat="43.59779" lon="6.31617">
        <ele>746</ele>
        <time>2022-12-11T10:52:39Z</time>
      </trkpt>
      <trkpt lat="43.59779" lon="6.31617">
        <ele>746</ele>
        <time>2022-12-11T10:52:40Z</time>
      </trkpt>
      <trkpt lat="43.59779" lon="6.31617">
        <ele>746</ele>
        <time>2022-12-11T10:52:41Z</time>
      </trkpt>
      <trkpt lat="43.59779" lon="6.31617">
        <ele>746</ele>
        <time>2022-12-11T10:52:42Z</time>
      </trkpt>
      <trkpt lat="43.59779" lon="6.31617">
        <ele>746</ele>
        <time>2022-12-11T10:52:43Z</time>
      </trkpt>
      <trkpt lat="43.59779" lon="6.31617">
        <ele>746</ele>
        <time>2022-12-11T10:52:44Z</time>
      </trkpt>
      <trkpt lat="43.59779" lon="6.31617">
        <ele>746</ele>
        <time>2022-12-11T10:52:45Z</time>
      </trkpt>
      <trkpt lat="43.59779" lon="6.31617">
        <ele>746</ele>
        <time>2022-12-11T10:52:46Z</time>
      </trkpt>
      <trkpt lat="43.59779" lon="6.31617">
        <ele>746</ele>
        <time>2022-12-11T10:52:47Z</time>
      </trkpt>
      <trkpt lat="43.59778" lon="6.31617">
        <ele>746</ele>
        <time>2022-12-11T10:52:48Z</time>
      </trkpt>
      <trkpt lat="43.59778" lon="6.31617">
        <ele>746</ele>
        <time>2022-12-11T10:52:49Z</time>
      </trkpt>
      <trkpt lat="43.59778" lon="6.31618">
        <ele>746</ele>
        <time>2022-12-11T10:52:50Z</time>
      </trkpt>
      <trkpt lat="43.59779" lon="6.31618">
        <ele>746</ele>
        <time>2022-12-11T10:52:51Z</time>
      </trkpt>
      <trkpt lat="43.59779" lon="6.31618">
        <ele>746</ele>
        <time>2022-12-11T10:52:52Z</time>
      </trkpt>
      <trkpt lat="43.59781" lon="6.31619">
        <ele>746</ele>
        <time>2022-12-11T10:52:53Z</time>
      </trkpt>
      <trkpt lat="43.59782" lon="6.3162">
        <ele>746</ele>
        <time>2022-12-11T10:52:54Z</time>
      </trkpt>
      <trkpt lat="43.59782" lon="6.31621">
        <ele>746</ele>
        <time>2022-12-11T10:52:55Z</time>
      </trkpt>
      <trkpt lat="43.59783" lon="6.31621">
        <ele>746</ele>
        <time>2022-12-11T10:52:56Z</time>
      </trkpt>
      <trkpt lat="43.59783" lon="6.31622">
        <ele>746</ele>
        <time>2022-12-11T10:52:57Z</time>
      </trkpt>
      <trkpt lat="43.59783" lon="6.31622">
        <ele>746</ele>
        <time>2022-12-11T10:52:58Z</time>
      </trkpt>
      <trkpt lat="43.59783" lon="6.31622">
        <ele>746</ele>
        <time>2022-12-11T10:52:59Z</time>
      </trkpt>
      <trkpt lat="43.59783" lon="6.31622">
        <ele>746</ele>
        <time>2022-12-11T10:53:00Z</time>
      </trkpt>
      <trkpt lat="43.59783" lon="6.31623">
        <ele>746</ele>
        <time>2022-12-11T10:53:01Z</time>
      </trkpt>
      <trkpt lat="43.59783" lon="6.31623">
        <ele>746</ele>
        <time>2022-12-11T10:53:02Z</time>
      </trkpt>
      <trkpt lat="43.59783" lon="6.31623">
        <ele>746</ele>
        <time>2022-12-11T10:53:03Z</time>
      </trkpt>
      <trkpt lat="43.59783" lon="6.31623">
        <ele>746</ele>
        <time>2022-12-11T10:53:04Z</time>
      </trkpt>
      <trkpt lat="43.59783" lon="6.31623">
        <ele>746</ele>
        <time>2022-12-11T10:53:05Z</time>
      </trkpt>
      <trkpt lat="43.59783" lon="6.31623">
        <ele>746</ele>
        <time>2022-12-11T10:53:06Z</time>
      </trkpt>
      <trkpt lat="43.59783" lon="6.31624">
        <ele>746</ele>
        <time>2022-12-11T10:53:07Z</time>
      </trkpt>
      <trkpt lat="43.59784" lon="6.31624">
        <ele>746</ele>
        <time>2022-12-11T10:53:08Z</time>
      </trkpt>
      <trkpt lat="43.59784" lon="6.31625">
        <ele>746</ele>
        <time>2022-12-11T10:53:09Z</time>
      </trkpt>
      <trkpt lat="43.59785" lon="6.31626">
        <ele>746</ele>
        <time>2022-12-11T10:53:10Z</time>
      </trkpt>
      <trkpt lat="43.59786" lon="6.31627">
        <ele>746</ele>
        <time>2022-12-11T10:53:11Z</time>
      </trkpt>
      <trkpt lat="43.59786" lon="6.31629">
        <ele>747</ele>
        <time>2022-12-11T10:53:12Z</time>
      </trkpt>
      <trkpt lat="43.59787" lon="6.3163">
        <ele>747</ele>
        <time>2022-12-11T10:53:13Z</time>
      </trkpt>
      <trkpt lat="43.59787" lon="6.31631">
        <ele>747</ele>
        <time>2022-12-11T10:53:14Z</time>
      </trkpt>
      <trkpt lat="43.59788" lon="6.31631">
        <ele>747</ele>
        <time>2022-12-11T10:53:15Z</time>
      </trkpt>
      <trkpt lat="43.59788" lon="6.31632">
        <ele>747</ele>
        <time>2022-12-11T10:53:16Z</time>
      </trkpt>
      <trkpt lat="43.59789" lon="6.31633">
        <ele>747</ele>
        <time>2022-12-11T10:53:17Z</time>
      </trkpt>
      <trkpt lat="43.5979" lon="6.31634">
        <ele>747</ele>
        <time>2022-12-11T10:53:18Z</time>
      </trkpt>
      <trkpt lat="43.5979" lon="6.31635">
        <ele>746</ele>
        <time>2022-12-11T10:53:19Z</time>
      </trkpt>
      <trkpt lat="43.59791" lon="6.31637">
        <ele>746</ele>
        <time>2022-12-11T10:53:20Z</time>
      </trkpt>
      <trkpt lat="43.59792" lon="6.31638">
        <ele>746</ele>
        <time>2022-12-11T10:53:21Z</time>
      </trkpt>
      <trkpt lat="43.59792" lon="6.31639">
        <ele>746</ele>
        <time>2022-12-11T10:53:22Z</time>
      </trkpt>
      <trkpt lat="43.59793" lon="6.3164">
        <ele>746</ele>
        <time>2022-12-11T10:53:23Z</time>
      </trkpt>
      <trkpt lat="43.59793" lon="6.31641">
        <ele>746</ele>
        <time>2022-12-11T10:53:24Z</time>
      </trkpt>
      <trkpt lat="43.59794" lon="6.31642">
        <ele>746</ele>
        <time>2022-12-11T10:53:25Z</time>
      </trkpt>
      <trkpt lat="43.59794" lon="6.31643">
        <ele>746</ele>
        <time>2022-12-11T10:53:26Z</time>
      </trkpt>
      <trkpt lat="43.59795" lon="6.31644">
        <ele>746</ele>
        <time>2022-12-11T10:53:27Z</time>
      </trkpt>
      <trkpt lat="43.59795" lon="6.31645">
        <ele>746</ele>
        <time>2022-12-11T10:53:28Z</time>
      </trkpt>
      <trkpt lat="43.59796" lon="6.31646">
        <ele>746</ele>
        <time>2022-12-11T10:53:29Z</time>
      </trkpt>
      <trkpt lat="43.59797" lon="6.31647">
        <ele>746</ele>
        <time>2022-12-11T10:53:30Z</time>
      </trkpt>
      <trkpt lat="43.59798" lon="6.31649">
        <ele>746</ele>
        <time>2022-12-11T10:53:31Z</time>
      </trkpt>
      <trkpt lat="43.59799" lon="6.3165">
        <ele>746</ele>
        <time>2022-12-11T10:53:32Z</time>
      </trkpt>
      <trkpt lat="43.598" lon="6.31651">
        <ele>746</ele>
        <time>2022-12-11T10:53:33Z</time>
      </trkpt>
      <trkpt lat="43.598" lon="6.31652">
        <ele>746</ele>
        <time>2022-12-11T10:53:34Z</time>
      </trkpt>
      <trkpt lat="43.59802" lon="6.31653">
        <ele>745</ele>
        <time>2022-12-11T10:53:35Z</time>
      </trkpt>
      <trkpt lat="43.59803" lon="6.31655">
        <ele>745</ele>
        <time>2022-12-11T10:53:36Z</time>
      </trkpt>
      <trkpt lat="43.59804" lon="6.31657">
        <ele>745</ele>
        <time>2022-12-11T10:53:37Z</time>
      </trkpt>
      <trkpt lat="43.59805" lon="6.31658">
        <ele>745</ele>
        <time>2022-12-11T10:53:38Z</time>
      </trkpt>
      <trkpt lat="43.59806" lon="6.3166">
        <ele>745</ele>
        <time>2022-12-11T10:53:39Z</time>
      </trkpt>
      <trkpt lat="43.59807" lon="6.31661">
        <ele>745</ele>
        <time>2022-12-11T10:53:40Z</time>
      </trkpt>
      <trkpt lat="43.59808" lon="6.31662">
        <ele>745</ele>
        <time>2022-12-11T10:53:41Z</time>
      </trkpt>
      <trkpt lat="43.59809" lon="6.31663">
        <ele>744</ele>
        <time>2022-12-11T10:53:42Z</time>
      </trkpt>
      <trkpt lat="43.5981" lon="6.31664">
        <ele>744</ele>
        <time>2022-12-11T10:53:43Z</time>
      </trkpt>
      <trkpt lat="43.5981" lon="6.31665">
        <ele>744</ele>
        <time>2022-12-11T10:53:44Z</time>
      </trkpt>
      <trkpt lat="43.59811" lon="6.31666">
        <ele>743</ele>
        <time>2022-12-11T10:53:45Z</time>
      </trkpt>
      <trkpt lat="43.59811" lon="6.31667">
        <ele>743</ele>
        <time>2022-12-11T10:53:46Z</time>
      </trkpt>
      <trkpt lat="43.59812" lon="6.31668">
        <ele>743</ele>
        <time>2022-12-11T10:53:47Z</time>
      </trkpt>
      <trkpt lat="43.59812" lon="6.31669">
        <ele>743</ele>
        <time>2022-12-11T10:53:48Z</time>
      </trkpt>
      <trkpt lat="43.59813" lon="6.3167">
        <ele>743</ele>
        <time>2022-12-11T10:53:49Z</time>
      </trkpt>
      <trkpt lat="43.59814" lon="6.31671">
        <ele>742</ele>
        <time>2022-12-11T10:53:50Z</time>
      </trkpt>
      <trkpt lat="43.59815" lon="6.31672">
        <ele>742</ele>
        <time>2022-12-11T10:53:51Z</time>
      </trkpt>
      <trkpt lat="43.59816" lon="6.31673">
        <ele>741</ele>
        <time>2022-12-11T10:53:52Z</time>
      </trkpt>
      <trkpt lat="43.59816" lon="6.31674">
        <ele>741</ele>
        <time>2022-12-11T10:53:53Z</time>
      </trkpt>
      <trkpt lat="43.59817" lon="6.31676">
        <ele>741</ele>
        <time>2022-12-11T10:53:54Z</time>
      </trkpt>
      <trkpt lat="43.59818" lon="6.31677">
        <ele>741</ele>
        <time>2022-12-11T10:53:55Z</time>
      </trkpt>
      <trkpt lat="43.59818" lon="6.31678">
        <ele>741</ele>
        <time>2022-12-11T10:53:56Z</time>
      </trkpt>
      <trkpt lat="43.59819" lon="6.3168">
        <ele>741</ele>
        <time>2022-12-11T10:53:57Z</time>
      </trkpt>
      <trkpt lat="43.5982" lon="6.31681">
        <ele>740</ele>
        <time>2022-12-11T10:53:58Z</time>
      </trkpt>
      <trkpt lat="43.5982" lon="6.31682">
        <ele>740</ele>
        <time>2022-12-11T10:53:59Z</time>
      </trkpt>
      <trkpt lat="43.59821" lon="6.31683">
        <ele>740</ele>
        <time>2022-12-11T10:54:00Z</time>
      </trkpt>
      <trkpt lat="43.59821" lon="6.31684">
        <ele>739</ele>
        <time>2022-12-11T10:54:01Z</time>
      </trkpt>
      <trkpt lat="43.59822" lon="6.31685">
        <ele>739</ele>
        <time>2022-12-11T10:54:02Z</time>
      </trkpt>
      <trkpt lat="43.59822" lon="6.31687">
        <ele>739</ele>
        <time>2022-12-11T10:54:03Z</time>
      </trkpt>
      <trkpt lat="43.59823" lon="6.31688">
        <ele>739</ele>
        <time>2022-12-11T10:54:04Z</time>
      </trkpt>
      <trkpt lat="43.59824" lon="6.31689">
        <ele>739</ele>
        <time>2022-12-11T10:54:05Z</time>
      </trkpt>
      <trkpt lat="43.59825" lon="6.3169">
        <ele>737</ele>
        <time>2022-12-11T10:54:06Z</time>
      </trkpt>
      <trkpt lat="43.59826" lon="6.31691">
        <ele>737</ele>
        <time>2022-12-11T10:54:07Z</time>
      </trkpt>
      <trkpt lat="43.59826" lon="6.31692">
        <ele>737</ele>
        <time>2022-12-11T10:54:08Z</time>
      </trkpt>
      <trkpt lat="43.59827" lon="6.31694">
        <ele>736</ele>
        <time>2022-12-11T10:54:09Z</time>
      </trkpt>
      <trkpt lat="43.59827" lon="6.31696">
        <ele>736</ele>
        <time>2022-12-11T10:54:10Z</time>
      </trkpt>
      <trkpt lat="43.59828" lon="6.31697">
        <ele>736</ele>
        <time>2022-12-11T10:54:11Z</time>
      </trkpt>
      <trkpt lat="43.59828" lon="6.31698">
        <ele>736</ele>
        <time>2022-12-11T10:54:12Z</time>
      </trkpt>
      <trkpt lat="43.59829" lon="6.317">
        <ele>736</ele>
        <time>2022-12-11T10:54:13Z</time>
      </trkpt>
      <trkpt lat="43.59829" lon="6.31701">
        <ele>735</ele>
        <time>2022-12-11T10:54:14Z</time>
      </trkpt>
      <trkpt lat="43.59829" lon="6.31702">
        <ele>735</ele>
        <time>2022-12-11T10:54:15Z</time>
      </trkpt>
      <trkpt lat="43.5983" lon="6.31704">
        <ele>735</ele>
        <time>2022-12-11T10:54:16Z</time>
      </trkpt>
      <trkpt lat="43.5983" lon="6.31705">
        <ele>735</ele>
        <time>2022-12-11T10:54:17Z</time>
      </trkpt>
      <trkpt lat="43.5983" lon="6.31706">
        <ele>735</ele>
        <time>2022-12-11T10:54:18Z</time>
      </trkpt>
      <trkpt lat="43.59831" lon="6.31706">
        <ele>735</ele>
        <time>2022-12-11T10:54:19Z</time>
      </trkpt>
      <trkpt lat="43.59831" lon="6.31708">
        <ele>735</ele>
        <time>2022-12-11T10:54:20Z</time>
      </trkpt>
      <trkpt lat="43.59831" lon="6.31709">
        <ele>735</ele>
        <time>2022-12-11T10:54:21Z</time>
      </trkpt>
      <trkpt lat="43.59832" lon="6.3171">
        <ele>736</ele>
        <time>2022-12-11T10:54:22Z</time>
      </trkpt>
      <trkpt lat="43.59832" lon="6.31711">
        <ele>736</ele>
        <time>2022-12-11T10:54:23Z</time>
      </trkpt>
      <trkpt lat="43.59833" lon="6.31712">
        <ele>736</ele>
        <time>2022-12-11T10:54:24Z</time>
      </trkpt>
      <trkpt lat="43.59833" lon="6.31713">
        <ele>736</ele>
        <time>2022-12-11T10:54:25Z</time>
      </trkpt>
      <trkpt lat="43.59833" lon="6.31714">
        <ele>736</ele>
        <time>2022-12-11T10:54:26Z</time>
      </trkpt>
      <trkpt lat="43.59834" lon="6.31715">
        <ele>737</ele>
        <time>2022-12-11T10:54:27Z</time>
      </trkpt>
      <trkpt lat="43.59834" lon="6.31716">
        <ele>737</ele>
        <time>2022-12-11T10:54:28Z</time>
      </trkpt>
      <trkpt lat="43.59835" lon="6.31718">
        <ele>737</ele>
        <time>2022-12-11T10:54:29Z</time>
      </trkpt>
      <trkpt lat="43.59835" lon="6.31719">
        <ele>737</ele>
        <time>2022-12-11T10:54:30Z</time>
      </trkpt>
      <trkpt lat="43.59835" lon="6.31719">
        <ele>737</ele>
        <time>2022-12-11T10:54:31Z</time>
      </trkpt>
      <trkpt lat="43.59835" lon="6.3172">
        <ele>737</ele>
        <time>2022-12-11T10:54:32Z</time>
      </trkpt>
      <trkpt lat="43.59836" lon="6.31722">
        <ele>737</ele>
        <time>2022-12-11T10:54:33Z</time>
      </trkpt>
      <trkpt lat="43.59836" lon="6.31723">
        <ele>737</ele>
        <time>2022-12-11T10:54:34Z</time>
      </trkpt>
      <trkpt lat="43.59837" lon="6.31724">
        <ele>737</ele>
        <time>2022-12-11T10:54:35Z</time>
      </trkpt>
      <trkpt lat="43.59837" lon="6.31726">
        <ele>737</ele>
        <time>2022-12-11T10:54:36Z</time>
      </trkpt>
      <trkpt lat="43.59837" lon="6.31727">
        <ele>737</ele>
        <time>2022-12-11T10:54:37Z</time>
      </trkpt>
      <trkpt lat="43.59838" lon="6.31728">
        <ele>737</ele>
        <time>2022-12-11T10:54:38Z</time>
      </trkpt>
      <trkpt lat="43.59838" lon="6.31729">
        <ele>737</ele>
        <time>2022-12-11T10:54:39Z</time>
      </trkpt>
      <trkpt lat="43.59838" lon="6.31731">
        <ele>737</ele>
        <time>2022-12-11T10:54:40Z</time>
      </trkpt>
      <trkpt lat="43.59839" lon="6.31732">
        <ele>737</ele>
        <time>2022-12-11T10:54:41Z</time>
      </trkpt>
      <trkpt lat="43.59839" lon="6.31734">
        <ele>737</ele>
        <time>2022-12-11T10:54:42Z</time>
      </trkpt>
      <trkpt lat="43.59839" lon="6.31735">
        <ele>738</ele>
        <time>2022-12-11T10:54:43Z</time>
      </trkpt>
      <trkpt lat="43.59839" lon="6.31737">
        <ele>738</ele>
        <time>2022-12-11T10:54:44Z</time>
      </trkpt>
      <trkpt lat="43.5984" lon="6.31738">
        <ele>738</ele>
        <time>2022-12-11T10:54:45Z</time>
      </trkpt>
      <trkpt lat="43.5984" lon="6.3174">
        <ele>738</ele>
        <time>2022-12-11T10:54:46Z</time>
      </trkpt>
      <trkpt lat="43.59841" lon="6.31741">
        <ele>738</ele>
        <time>2022-12-11T10:54:47Z</time>
      </trkpt>
      <trkpt lat="43.59841" lon="6.31743">
        <ele>738</ele>
        <time>2022-12-11T10:54:48Z</time>
      </trkpt>
      <trkpt lat="43.59842" lon="6.31744">
        <ele>738</ele>
        <time>2022-12-11T10:54:49Z</time>
      </trkpt>
      <trkpt lat="43.59842" lon="6.31745">
        <ele>738</ele>
        <time>2022-12-11T10:54:50Z</time>
      </trkpt>
      <trkpt lat="43.59843" lon="6.31747">
        <ele>737</ele>
        <time>2022-12-11T10:54:51Z</time>
      </trkpt>
      <trkpt lat="43.59843" lon="6.31748">
        <ele>737</ele>
        <time>2022-12-11T10:54:52Z</time>
      </trkpt>
      <trkpt lat="43.59844" lon="6.31749">
        <ele>738</ele>
        <time>2022-12-11T10:54:53Z</time>
      </trkpt>
      <trkpt lat="43.59845" lon="6.3175">
        <ele>738</ele>
        <time>2022-12-11T10:54:54Z</time>
      </trkpt>
      <trkpt lat="43.59845" lon="6.31751">
        <ele>738</ele>
        <time>2022-12-11T10:54:55Z</time>
      </trkpt>
      <trkpt lat="43.59846" lon="6.31752">
        <ele>738</ele>
        <time>2022-12-11T10:54:56Z</time>
      </trkpt>
      <trkpt lat="43.59847" lon="6.31753">
        <ele>738</ele>
        <time>2022-12-11T10:54:57Z</time>
      </trkpt>
      <trkpt lat="43.59847" lon="6.31754">
        <ele>738</ele>
        <time>2022-12-11T10:54:58Z</time>
      </trkpt>
      <trkpt lat="43.59848" lon="6.31755">
        <ele>738</ele>
        <time>2022-12-11T10:54:59Z</time>
      </trkpt>
      <trkpt lat="43.59849" lon="6.31756">
        <ele>738</ele>
        <time>2022-12-11T10:55:00Z</time>
      </trkpt>
      <trkpt lat="43.5985" lon="6.31758">
        <ele>739</ele>
        <time>2022-12-11T10:55:01Z</time>
      </trkpt>
      <trkpt lat="43.59851" lon="6.31759">
        <ele>739</ele>
        <time>2022-12-11T10:55:02Z</time>
      </trkpt>
      <trkpt lat="43.59852" lon="6.3176">
        <ele>739</ele>
        <time>2022-12-11T10:55:03Z</time>
      </trkpt>
      <trkpt lat="43.59852" lon="6.3176">
        <ele>739</ele>
        <time>2022-12-11T10:55:04Z</time>
      </trkpt>
      <trkpt lat="43.59853" lon="6.31761">
        <ele>740</ele>
        <time>2022-12-11T10:55:05Z</time>
      </trkpt>
      <trkpt lat="43.59854" lon="6.31762">
        <ele>740</ele>
        <time>2022-12-11T10:55:06Z</time>
      </trkpt>
      <trkpt lat="43.59855" lon="6.31763">
        <ele>740</ele>
        <time>2022-12-11T10:55:07Z</time>
      </trkpt>
      <trkpt lat="43.59855" lon="6.31764">
        <ele>740</ele>
        <time>2022-12-11T10:55:08Z</time>
      </trkpt>
      <trkpt lat="43.59856" lon="6.31764">
        <ele>740</ele>
        <time>2022-12-11T10:55:09Z</time>
      </trkpt>
      <trkpt lat="43.59855" lon="6.31764">
        <ele>741</ele>
        <time>2022-12-11T10:55:10Z</time>
      </trkpt>
      <trkpt lat="43.59855" lon="6.31764">
        <ele>741</ele>
        <time>2022-12-11T10:55:11Z</time>
      </trkpt>
      <trkpt lat="43.59855" lon="6.31764">
        <ele>741</ele>
        <time>2022-12-11T10:55:12Z</time>
      </trkpt>
      <trkpt lat="43.59855" lon="6.31763">
        <ele>741</ele>
        <time>2022-12-11T10:55:13Z</time>
      </trkpt>
      <trkpt lat="43.59855" lon="6.31763">
        <ele>741</ele>
        <time>2022-12-11T10:55:14Z</time>
      </trkpt>
      <trkpt lat="43.59855" lon="6.31762">
        <ele>741</ele>
        <time>2022-12-11T10:55:15Z</time>
      </trkpt>
      <trkpt lat="43.59855" lon="6.31762">
        <ele>741</ele>
        <time>2022-12-11T10:55:16Z</time>
      </trkpt>
      <trkpt lat="43.59856" lon="6.31761">
        <ele>741</ele>
        <time>2022-12-11T10:55:17Z</time>
      </trkpt>
      <trkpt lat="43.59856" lon="6.31761">
        <ele>741</ele>
        <time>2022-12-11T10:55:18Z</time>
      </trkpt>
      <trkpt lat="43.59856" lon="6.31761">
        <ele>741</ele>
        <time>2022-12-11T10:55:19Z</time>
      </trkpt>
      <trkpt lat="43.59857" lon="6.31761">
        <ele>741</ele>
        <time>2022-12-11T10:55:20Z</time>
      </trkpt>
      <trkpt lat="43.59857" lon="6.31761">
        <ele>741</ele>
        <time>2022-12-11T10:55:21Z</time>
      </trkpt>
      <trkpt lat="43.59858" lon="6.31761">
        <ele>741</ele>
        <time>2022-12-11T10:55:22Z</time>
      </trkpt>
      <trkpt lat="43.59858" lon="6.31761">
        <ele>741</ele>
        <time>2022-12-11T10:55:23Z</time>
      </trkpt>
      <trkpt lat="43.59859" lon="6.31762">
        <ele>741</ele>
        <time>2022-12-11T10:55:24Z</time>
      </trkpt>
      <trkpt lat="43.5986" lon="6.31763">
        <ele>741</ele>
        <time>2022-12-11T10:55:25Z</time>
      </trkpt>
      <trkpt lat="43.5986" lon="6.31764">
        <ele>741</ele>
        <time>2022-12-11T10:55:26Z</time>
      </trkpt>
      <trkpt lat="43.59861" lon="6.31764">
        <ele>741</ele>
        <time>2022-12-11T10:55:27Z</time>
      </trkpt>
      <trkpt lat="43.59861" lon="6.31765">
        <ele>741</ele>
        <time>2022-12-11T10:55:28Z</time>
      </trkpt>
      <trkpt lat="43.59862" lon="6.31765">
        <ele>741</ele>
        <time>2022-12-11T10:55:29Z</time>
      </trkpt>
      <trkpt lat="43.59863" lon="6.31765">
        <ele>742</ele>
        <time>2022-12-11T10:55:30Z</time>
      </trkpt>
      <trkpt lat="43.59863" lon="6.31766">
        <ele>742</ele>
        <time>2022-12-11T10:55:31Z</time>
      </trkpt>
      <trkpt lat="43.59864" lon="6.31766">
        <ele>744</ele>
        <time>2022-12-11T10:55:32Z</time>
      </trkpt>
      <trkpt lat="43.59864" lon="6.31766">
        <ele>744</ele>
        <time>2022-12-11T10:55:33Z</time>
      </trkpt>
      <trkpt lat="43.59864" lon="6.31767">
        <ele>745</ele>
        <time>2022-12-11T10:55:34Z</time>
      </trkpt>
      <trkpt lat="43.59864" lon="6.31767">
        <ele>745</ele>
        <time>2022-12-11T10:55:35Z</time>
      </trkpt>
      <trkpt lat="43.59864" lon="6.31767">
        <ele>745</ele>
        <time>2022-12-11T10:55:36Z</time>
      </trkpt>
      <trkpt lat="43.59865" lon="6.31768">
        <ele>745</ele>
        <time>2022-12-11T10:55:37Z</time>
      </trkpt>
      <trkpt lat="43.59865" lon="6.31768">
        <ele>745</ele>
        <time>2022-12-11T10:55:38Z</time>
      </trkpt>
      <trkpt lat="43.59865" lon="6.31769">
        <ele>746</ele>
        <time>2022-12-11T10:55:39Z</time>
      </trkpt>
      <trkpt lat="43.59866" lon="6.31769">
        <ele>746</ele>
        <time>2022-12-11T10:55:40Z</time>
      </trkpt>
      <trkpt lat="43.59866" lon="6.3177">
        <ele>746</ele>
        <time>2022-12-11T10:55:41Z</time>
      </trkpt>
      <trkpt lat="43.59866" lon="6.3177">
        <ele>746</ele>
        <time>2022-12-11T10:55:42Z</time>
      </trkpt>
      <trkpt lat="43.59867" lon="6.31771">
        <ele>746</ele>
        <time>2022-12-11T10:55:43Z</time>
      </trkpt>
      <trkpt lat="43.59867" lon="6.31772">
        <ele>746</ele>
        <time>2022-12-11T10:55:44Z</time>
      </trkpt>
      <trkpt lat="43.59868" lon="6.31772">
        <ele>746</ele>
        <time>2022-12-11T10:55:45Z</time>
      </trkpt>
      <trkpt lat="43.59869" lon="6.31773">
        <ele>746</ele>
        <time>2022-12-11T10:55:46Z</time>
      </trkpt>
      <trkpt lat="43.5987" lon="6.31774">
        <ele>746</ele>
        <time>2022-12-11T10:55:47Z</time>
      </trkpt>
      <trkpt lat="43.59871" lon="6.31775">
        <ele>747</ele>
        <time>2022-12-11T10:55:48Z</time>
      </trkpt>
      <trkpt lat="43.59873" lon="6.31776">
        <ele>747</ele>
        <time>2022-12-11T10:55:49Z</time>
      </trkpt>
      <trkpt lat="43.59875" lon="6.31777">
        <ele>747</ele>
        <time>2022-12-11T10:55:50Z</time>
      </trkpt>
      <trkpt lat="43.59876" lon="6.31778">
        <ele>747</ele>
        <time>2022-12-11T10:55:51Z</time>
      </trkpt>
      <trkpt lat="43.59877" lon="6.31779">
        <ele>747</ele>
        <time>2022-12-11T10:55:52Z</time>
      </trkpt>
      <trkpt lat="43.59878" lon="6.31779">
        <ele>747</ele>
        <time>2022-12-11T10:55:53Z</time>
      </trkpt>
      <trkpt lat="43.59879" lon="6.3178">
        <ele>746</ele>
        <time>2022-12-11T10:55:54Z</time>
      </trkpt>
      <trkpt lat="43.5988" lon="6.3178">
        <ele>746</ele>
        <time>2022-12-11T10:55:55Z</time>
      </trkpt>
      <trkpt lat="43.5988" lon="6.31781">
        <ele>746</ele>
        <time>2022-12-11T10:55:56Z</time>
      </trkpt>
      <trkpt lat="43.59881" lon="6.31781">
        <ele>746</ele>
        <time>2022-12-11T10:55:57Z</time>
      </trkpt>
      <trkpt lat="43.59882" lon="6.31782">
        <ele>746</ele>
        <time>2022-12-11T10:55:58Z</time>
      </trkpt>
      <trkpt lat="43.59883" lon="6.31782">
        <ele>745</ele>
        <time>2022-12-11T10:55:59Z</time>
      </trkpt>
      <trkpt lat="43.59885" lon="6.31782">
        <ele>745</ele>
        <time>2022-12-11T10:56:00Z</time>
      </trkpt>
      <trkpt lat="43.59886" lon="6.31783">
        <ele>745</ele>
        <time>2022-12-11T10:56:01Z</time>
      </trkpt>
      <trkpt lat="43.59887" lon="6.31784">
        <ele>745</ele>
        <time>2022-12-11T10:56:02Z</time>
      </trkpt>
      <trkpt lat="43.59889" lon="6.31784">
        <ele>745</ele>
        <time>2022-12-11T10:56:03Z</time>
      </trkpt>
      <trkpt lat="43.5989" lon="6.31785">
        <ele>745</ele>
        <time>2022-12-11T10:56:04Z</time>
      </trkpt>
      <trkpt lat="43.59891" lon="6.31785">
        <ele>745</ele>
        <time>2022-12-11T10:56:05Z</time>
      </trkpt>
      <trkpt lat="43.59893" lon="6.31786">
        <ele>745</ele>
        <time>2022-12-11T10:56:06Z</time>
      </trkpt>
      <trkpt lat="43.59894" lon="6.31787">
        <ele>745</ele>
        <time>2022-12-11T10:56:07Z</time>
      </trkpt>
      <trkpt lat="43.59895" lon="6.31788">
        <ele>745</ele>
        <time>2022-12-11T10:56:08Z</time>
      </trkpt>
      <trkpt lat="43.59896" lon="6.31789">
        <ele>745</ele>
        <time>2022-12-11T10:56:09Z</time>
      </trkpt>
      <trkpt lat="43.59897" lon="6.31789">
        <ele>745</ele>
        <time>2022-12-11T10:56:10Z</time>
      </trkpt>
      <trkpt lat="43.59898" lon="6.3179">
        <ele>745</ele>
        <time>2022-12-11T10:56:11Z</time>
      </trkpt>
      <trkpt lat="43.59898" lon="6.31791">
        <ele>744</ele>
        <time>2022-12-11T10:56:12Z</time>
      </trkpt>
      <trkpt lat="43.59899" lon="6.31792">
        <ele>744</ele>
        <time>2022-12-11T10:56:13Z</time>
      </trkpt>
      <trkpt lat="43.599" lon="6.31793">
        <ele>744</ele>
        <time>2022-12-11T10:56:14Z</time>
      </trkpt>
      <trkpt lat="43.59901" lon="6.31795">
        <ele>744</ele>
        <time>2022-12-11T10:56:15Z</time>
      </trkpt>
      <trkpt lat="43.59901" lon="6.31796">
        <ele>744</ele>
        <time>2022-12-11T10:56:16Z</time>
      </trkpt>
      <trkpt lat="43.59901" lon="6.31798">
        <ele>743</ele>
        <time>2022-12-11T10:56:17Z</time>
      </trkpt>
      <trkpt lat="43.59902" lon="6.31799">
        <ele>743</ele>
        <time>2022-12-11T10:56:18Z</time>
      </trkpt>
      <trkpt lat="43.59902" lon="6.318">
        <ele>742</ele>
        <time>2022-12-11T10:56:19Z</time>
      </trkpt>
      <trkpt lat="43.59902" lon="6.31801">
        <ele>742</ele>
        <time>2022-12-11T10:56:20Z</time>
      </trkpt>
      <trkpt lat="43.59902" lon="6.31802">
        <ele>742</ele>
        <time>2022-12-11T10:56:21Z</time>
      </trkpt>
      <trkpt lat="43.59903" lon="6.31803">
        <ele>742</ele>
        <time>2022-12-11T10:56:22Z</time>
      </trkpt>
      <trkpt lat="43.59903" lon="6.31803">
        <ele>742</ele>
        <time>2022-12-11T10:56:23Z</time>
      </trkpt>
      <trkpt lat="43.59903" lon="6.31803">
        <ele>742</ele>
        <time>2022-12-11T10:56:24Z</time>
      </trkpt>
      <trkpt lat="43.59903" lon="6.31803">
        <ele>742</ele>
        <time>2022-12-11T10:56:25Z</time>
      </trkpt>
      <trkpt lat="43.59903" lon="6.31804">
        <ele>742</ele>
        <time>2022-12-11T10:56:26Z</time>
      </trkpt>
      <trkpt lat="43.59904" lon="6.31805">
        <ele>741</ele>
        <time>2022-12-11T10:56:27Z</time>
      </trkpt>
      <trkpt lat="43.59904" lon="6.31806">
        <ele>741</ele>
        <time>2022-12-11T10:56:28Z</time>
      </trkpt>
      <trkpt lat="43.59904" lon="6.31807">
        <ele>741</ele>
        <time>2022-12-11T10:56:29Z</time>
      </trkpt>
      <trkpt lat="43.59904" lon="6.31808">
        <ele>741</ele>
        <time>2022-12-11T10:56:30Z</time>
      </trkpt>
      <trkpt lat="43.59904" lon="6.31809">
        <ele>740</ele>
        <time>2022-12-11T10:56:31Z</time>
      </trkpt>
      <trkpt lat="43.59904" lon="6.31811">
        <ele>740</ele>
        <time>2022-12-11T10:56:32Z</time>
      </trkpt>
      <trkpt lat="43.59904" lon="6.31812">
        <ele>740</ele>
        <time>2022-12-11T10:56:33Z</time>
      </trkpt>
      <trkpt lat="43.59905" lon="6.31814">
        <ele>740</ele>
        <time>2022-12-11T10:56:34Z</time>
      </trkpt>
      <trkpt lat="43.59905" lon="6.31815">
        <ele>740</ele>
        <time>2022-12-11T10:56:35Z</time>
      </trkpt>
      <trkpt lat="43.59905" lon="6.31816">
        <ele>739</ele>
        <time>2022-12-11T10:56:36Z</time>
      </trkpt>
      <trkpt lat="43.59906" lon="6.31818">
        <ele>739</ele>
        <time>2022-12-11T10:56:37Z</time>
      </trkpt>
      <trkpt lat="43.59906" lon="6.31819">
        <ele>739</ele>
        <time>2022-12-11T10:56:38Z</time>
      </trkpt>
      <trkpt lat="43.59907" lon="6.3182">
        <ele>739</ele>
        <time>2022-12-11T10:56:39Z</time>
      </trkpt>
      <trkpt lat="43.59908" lon="6.31821">
        <ele>737</ele>
        <time>2022-12-11T10:56:40Z</time>
      </trkpt>
      <trkpt lat="43.59909" lon="6.31823">
        <ele>737</ele>
        <time>2022-12-11T10:56:41Z</time>
      </trkpt>
      <trkpt lat="43.59909" lon="6.31824">
        <ele>737</ele>
        <time>2022-12-11T10:56:42Z</time>
      </trkpt>
      <trkpt lat="43.5991" lon="6.31824">
        <ele>737</ele>
        <time>2022-12-11T10:56:43Z</time>
      </trkpt>
      <trkpt lat="43.5991" lon="6.31825">
        <ele>737</ele>
        <time>2022-12-11T10:56:44Z</time>
      </trkpt>
      <trkpt lat="43.59911" lon="6.31826">
        <ele>736</ele>
        <time>2022-12-11T10:56:45Z</time>
      </trkpt>
      <trkpt lat="43.59912" lon="6.31827">
        <ele>736</ele>
        <time>2022-12-11T10:56:46Z</time>
      </trkpt>
      <trkpt lat="43.59913" lon="6.31828">
        <ele>736</ele>
        <time>2022-12-11T10:56:47Z</time>
      </trkpt>
      <trkpt lat="43.59913" lon="6.31829">
        <ele>736</ele>
        <time>2022-12-11T10:56:48Z</time>
      </trkpt>
      <trkpt lat="43.59914" lon="6.3183">
        <ele>737</ele>
        <time>2022-12-11T10:56:49Z</time>
      </trkpt>
      <trkpt lat="43.59915" lon="6.31831">
        <ele>737</ele>
        <time>2022-12-11T10:56:50Z</time>
      </trkpt>
      <trkpt lat="43.59915" lon="6.31832">
        <ele>737</ele>
        <time>2022-12-11T10:56:51Z</time>
      </trkpt>
      <trkpt lat="43.59916" lon="6.31833">
        <ele>737</ele>
        <time>2022-12-11T10:56:52Z</time>
      </trkpt>
      <trkpt lat="43.59917" lon="6.31834">
        <ele>737</ele>
        <time>2022-12-11T10:56:53Z</time>
      </trkpt>
      <trkpt lat="43.59918" lon="6.31836">
        <ele>737</ele>
        <time>2022-12-11T10:56:54Z</time>
      </trkpt>
      <trkpt lat="43.59919" lon="6.31837">
        <ele>737</ele>
        <time>2022-12-11T10:56:55Z</time>
      </trkpt>
      <trkpt lat="43.59919" lon="6.31838">
        <ele>737</ele>
        <time>2022-12-11T10:56:56Z</time>
      </trkpt>
      <trkpt lat="43.5992" lon="6.31839">
        <ele>737</ele>
        <time>2022-12-11T10:56:57Z</time>
      </trkpt>
      <trkpt lat="43.5992" lon="6.31841">
        <ele>737</ele>
        <time>2022-12-11T10:56:58Z</time>
      </trkpt>
      <trkpt lat="43.59921" lon="6.31842">
        <ele>736</ele>
        <time>2022-12-11T10:56:59Z</time>
      </trkpt>
      <trkpt lat="43.59921" lon="6.31843">
        <ele>736</ele>
        <time>2022-12-11T10:57:00Z</time>
      </trkpt>
      <trkpt lat="43.59921" lon="6.31844">
        <ele>736</ele>
        <time>2022-12-11T10:57:01Z</time>
      </trkpt>
      <trkpt lat="43.59922" lon="6.31846">
        <ele>736</ele>
        <time>2022-12-11T10:57:02Z</time>
      </trkpt>
      <trkpt lat="43.59922" lon="6.31847">
        <ele>736</ele>
        <time>2022-12-11T10:57:03Z</time>
      </trkpt>
      <trkpt lat="43.59922" lon="6.31849">
        <ele>736</ele>
        <time>2022-12-11T10:57:04Z</time>
      </trkpt>
      <trkpt lat="43.59923" lon="6.3185">
        <ele>736</ele>
        <time>2022-12-11T10:57:05Z</time>
      </trkpt>
      <trkpt lat="43.59924" lon="6.31851">
        <ele>736</ele>
        <time>2022-12-11T10:57:06Z</time>
      </trkpt>
      <trkpt lat="43.59924" lon="6.31852">
        <ele>736</ele>
        <time>2022-12-11T10:57:07Z</time>
      </trkpt>
      <trkpt lat="43.59925" lon="6.31854">
        <ele>736</ele>
        <time>2022-12-11T10:57:08Z</time>
      </trkpt>
      <trkpt lat="43.59925" lon="6.31855">
        <ele>736</ele>
        <time>2022-12-11T10:57:09Z</time>
      </trkpt>
      <trkpt lat="43.59926" lon="6.31857">
        <ele>736</ele>
        <time>2022-12-11T10:57:10Z</time>
      </trkpt>
      <trkpt lat="43.59927" lon="6.31858">
        <ele>736</ele>
        <time>2022-12-11T10:57:11Z</time>
      </trkpt>
      <trkpt lat="43.59927" lon="6.31859">
        <ele>736</ele>
        <time>2022-12-11T10:57:12Z</time>
      </trkpt>
      <trkpt lat="43.59928" lon="6.3186">
        <ele>736</ele>
        <time>2022-12-11T10:57:13Z</time>
      </trkpt>
      <trkpt lat="43.59929" lon="6.31861">
        <ele>737</ele>
        <time>2022-12-11T10:57:14Z</time>
      </trkpt>
      <trkpt lat="43.5993" lon="6.31862">
        <ele>737</ele>
        <time>2022-12-11T10:57:15Z</time>
      </trkpt>
      <trkpt lat="43.59931" lon="6.31862">
        <ele>737</ele>
        <time>2022-12-11T10:57:16Z</time>
      </trkpt>
      <trkpt lat="43.59932" lon="6.31863">
        <ele>738</ele>
        <time>2022-12-11T10:57:17Z</time>
      </trkpt>
      <trkpt lat="43.59932" lon="6.31863">
        <ele>738</ele>
        <time>2022-12-11T10:57:18Z</time>
      </trkpt>
      <trkpt lat="43.59933" lon="6.31863">
        <ele>738</ele>
        <time>2022-12-11T10:57:19Z</time>
      </trkpt>
      <trkpt lat="43.59934" lon="6.31864">
        <ele>738</ele>
        <time>2022-12-11T10:57:20Z</time>
      </trkpt>
      <trkpt lat="43.59935" lon="6.31864">
        <ele>738</ele>
        <time>2022-12-11T10:57:21Z</time>
      </trkpt>
      <trkpt lat="43.59936" lon="6.31864">
        <ele>739</ele>
        <time>2022-12-11T10:57:22Z</time>
      </trkpt>
      <trkpt lat="43.59936" lon="6.31864">
        <ele>739</ele>
        <time>2022-12-11T10:57:23Z</time>
      </trkpt>
      <trkpt lat="43.59936" lon="6.31864">
        <ele>739</ele>
        <time>2022-12-11T10:57:24Z</time>
      </trkpt>
      <trkpt lat="43.59937" lon="6.31864">
        <ele>739</ele>
        <time>2022-12-11T10:57:25Z</time>
      </trkpt>
      <trkpt lat="43.59937" lon="6.31864">
        <ele>739</ele>
        <time>2022-12-11T10:57:26Z</time>
      </trkpt>
      <trkpt lat="43.59937" lon="6.31864">
        <ele>740</ele>
        <time>2022-12-11T10:57:27Z</time>
      </trkpt>
      <trkpt lat="43.59938" lon="6.31864">
        <ele>740</ele>
        <time>2022-12-11T10:57:28Z</time>
      </trkpt>
      <trkpt lat="43.59938" lon="6.31864">
        <ele>740</ele>
        <time>2022-12-11T10:57:29Z</time>
      </trkpt>
      <trkpt lat="43.59939" lon="6.31864">
        <ele>740</ele>
        <time>2022-12-11T10:57:30Z</time>
      </trkpt>
      <trkpt lat="43.59939" lon="6.31864">
        <ele>740</ele>
        <time>2022-12-11T10:57:31Z</time>
      </trkpt>
      <trkpt lat="43.5994" lon="6.31863">
        <ele>740</ele>
        <time>2022-12-11T10:57:32Z</time>
      </trkpt>
      <trkpt lat="43.59941" lon="6.31863">
        <ele>740</ele>
        <time>2022-12-11T10:57:33Z</time>
      </trkpt>
      <trkpt lat="43.59942" lon="6.31863">
        <ele>740</ele>
        <time>2022-12-11T10:57:34Z</time>
      </trkpt>
      <trkpt lat="43.59943" lon="6.31864">
        <ele>740</ele>
        <time>2022-12-11T10:57:35Z</time>
      </trkpt>
      <trkpt lat="43.59943" lon="6.31863">
        <ele>740</ele>
        <time>2022-12-11T10:57:36Z</time>
      </trkpt>
      <trkpt lat="43.59944" lon="6.31863">
        <ele>740</ele>
        <time>2022-12-11T10:57:37Z</time>
      </trkpt>
      <trkpt lat="43.59945" lon="6.31862">
        <ele>740</ele>
        <time>2022-12-11T10:57:38Z</time>
      </trkpt>
      <trkpt lat="43.59946" lon="6.31862">
        <ele>740</ele>
        <time>2022-12-11T10:57:39Z</time>
      </trkpt>
      <trkpt lat="43.59946" lon="6.31862">
        <ele>740</ele>
        <time>2022-12-11T10:57:40Z</time>
      </trkpt>
      <trkpt lat="43.59947" lon="6.31861">
        <ele>740</ele>
        <time>2022-12-11T10:57:41Z</time>
      </trkpt>
      <trkpt lat="43.59948" lon="6.31861">
        <ele>740</ele>
        <time>2022-12-11T10:57:42Z</time>
      </trkpt>
      <trkpt lat="43.59949" lon="6.31861">
        <ele>740</ele>
        <time>2022-12-11T10:57:43Z</time>
      </trkpt>
      <trkpt lat="43.59951" lon="6.31861">
        <ele>740</ele>
        <time>2022-12-11T10:57:44Z</time>
      </trkpt>
      <trkpt lat="43.59952" lon="6.31861">
        <ele>740</ele>
        <time>2022-12-11T10:57:45Z</time>
      </trkpt>
      <trkpt lat="43.59953" lon="6.3186">
        <ele>740</ele>
        <time>2022-12-11T10:57:46Z</time>
      </trkpt>
      <trkpt lat="43.59953" lon="6.3186">
        <ele>740</ele>
        <time>2022-12-11T10:57:47Z</time>
      </trkpt>
      <trkpt lat="43.59955" lon="6.3186">
        <ele>740</ele>
        <time>2022-12-11T10:57:48Z</time>
      </trkpt>
      <trkpt lat="43.59956" lon="6.3186">
        <ele>740</ele>
        <time>2022-12-11T10:57:49Z</time>
      </trkpt>
      <trkpt lat="43.59957" lon="6.3186">
        <ele>740</ele>
        <time>2022-12-11T10:57:50Z</time>
      </trkpt>
      <trkpt lat="43.59958" lon="6.3186">
        <ele>740</ele>
        <time>2022-12-11T10:57:51Z</time>
      </trkpt>
      <trkpt lat="43.59959" lon="6.3186">
        <ele>740</ele>
        <time>2022-12-11T10:57:52Z</time>
      </trkpt>
      <trkpt lat="43.5996" lon="6.31861">
        <ele>740</ele>
        <time>2022-12-11T10:57:53Z</time>
      </trkpt>
      <trkpt lat="43.59961" lon="6.31861">
        <ele>740</ele>
        <time>2022-12-11T10:57:54Z</time>
      </trkpt>
      <trkpt lat="43.59962" lon="6.31861">
        <ele>740</ele>
        <time>2022-12-11T10:57:55Z</time>
      </trkpt>
      <trkpt lat="43.59964" lon="6.31861">
        <ele>741</ele>
        <time>2022-12-11T10:57:56Z</time>
      </trkpt>
      <trkpt lat="43.59965" lon="6.31861">
        <ele>741</ele>
        <time>2022-12-11T10:57:57Z</time>
      </trkpt>
      <trkpt lat="43.59966" lon="6.31861">
        <ele>741</ele>
        <time>2022-12-11T10:57:58Z</time>
      </trkpt>
      <trkpt lat="43.59967" lon="6.31862">
        <ele>741</ele>
        <time>2022-12-11T10:57:59Z</time>
      </trkpt>
      <trkpt lat="43.59968" lon="6.31863">
        <ele>741</ele>
        <time>2022-12-11T10:58:00Z</time>
      </trkpt>
      <trkpt lat="43.59969" lon="6.31865">
        <ele>740</ele>
        <time>2022-12-11T10:58:01Z</time>
      </trkpt>
      <trkpt lat="43.59969" lon="6.31866">
        <ele>740</ele>
        <time>2022-12-11T10:58:02Z</time>
      </trkpt>
      <trkpt lat="43.5997" lon="6.31867">
        <ele>740</ele>
        <time>2022-12-11T10:58:03Z</time>
      </trkpt>
      <trkpt lat="43.59971" lon="6.31869">
        <ele>740</ele>
        <time>2022-12-11T10:58:04Z</time>
      </trkpt>
      <trkpt lat="43.59971" lon="6.3187">
        <ele>740</ele>
        <time>2022-12-11T10:58:05Z</time>
      </trkpt>
      <trkpt lat="43.59972" lon="6.31872">
        <ele>739</ele>
        <time>2022-12-11T10:58:06Z</time>
      </trkpt>
      <trkpt lat="43.59972" lon="6.31873">
        <ele>739</ele>
        <time>2022-12-11T10:58:07Z</time>
      </trkpt>
      <trkpt lat="43.59973" lon="6.31875">
        <ele>739</ele>
        <time>2022-12-11T10:58:08Z</time>
      </trkpt>
      <trkpt lat="43.59974" lon="6.31876">
        <ele>739</ele>
        <time>2022-12-11T10:58:09Z</time>
      </trkpt>
      <trkpt lat="43.59974" lon="6.31877">
        <ele>739</ele>
        <time>2022-12-11T10:58:10Z</time>
      </trkpt>
      <trkpt lat="43.59975" lon="6.31879">
        <ele>738</ele>
        <time>2022-12-11T10:58:11Z</time>
      </trkpt>
      <trkpt lat="43.59975" lon="6.3188">
        <ele>738</ele>
        <time>2022-12-11T10:58:12Z</time>
      </trkpt>
      <trkpt lat="43.59976" lon="6.31881">
        <ele>737</ele>
        <time>2022-12-11T10:58:13Z</time>
      </trkpt>
      <trkpt lat="43.59976" lon="6.31882">
        <ele>736</ele>
        <time>2022-12-11T10:58:14Z</time>
      </trkpt>
      <trkpt lat="43.59976" lon="6.31884">
        <ele>736</ele>
        <time>2022-12-11T10:58:15Z</time>
      </trkpt>
      <trkpt lat="43.59977" lon="6.31885">
        <ele>736</ele>
        <time>2022-12-11T10:58:16Z</time>
      </trkpt>
      <trkpt lat="43.59977" lon="6.31886">
        <ele>736</ele>
        <time>2022-12-11T10:58:17Z</time>
      </trkpt>
      <trkpt lat="43.59978" lon="6.31887">
        <ele>735</ele>
        <time>2022-12-11T10:58:18Z</time>
      </trkpt>
      <trkpt lat="43.59978" lon="6.31888">
        <ele>735</ele>
        <time>2022-12-11T10:58:19Z</time>
      </trkpt>
      <trkpt lat="43.59979" lon="6.31889">
        <ele>735</ele>
        <time>2022-12-11T10:58:20Z</time>
      </trkpt>
      <trkpt lat="43.59979" lon="6.31889">
        <ele>735</ele>
        <time>2022-12-11T10:58:21Z</time>
      </trkpt>
      <trkpt lat="43.59979" lon="6.3189">
        <ele>735</ele>
        <time>2022-12-11T10:58:22Z</time>
      </trkpt>
      <trkpt lat="43.59979" lon="6.3189">
        <ele>736</ele>
        <time>2022-12-11T10:58:23Z</time>
      </trkpt>
      <trkpt lat="43.5998" lon="6.31891">
        <ele>736</ele>
        <time>2022-12-11T10:58:24Z</time>
      </trkpt>
      <trkpt lat="43.5998" lon="6.31892">
        <ele>736</ele>
        <time>2022-12-11T10:58:25Z</time>
      </trkpt>
      <trkpt lat="43.5998" lon="6.31893">
        <ele>736</ele>
        <time>2022-12-11T10:58:26Z</time>
      </trkpt>
      <trkpt lat="43.59981" lon="6.31894">
        <ele>736</ele>
        <time>2022-12-11T10:58:27Z</time>
      </trkpt>
      <trkpt lat="43.5998" lon="6.31894">
        <ele>736</ele>
        <time>2022-12-11T10:58:28Z</time>
      </trkpt>
      <trkpt lat="43.5998" lon="6.31894">
        <ele>736</ele>
        <time>2022-12-11T10:58:29Z</time>
      </trkpt>
      <trkpt lat="43.5998" lon="6.31894">
        <ele>737</ele>
        <time>2022-12-11T10:58:30Z</time>
      </trkpt>
      <trkpt lat="43.5998" lon="6.31894">
        <ele>737</ele>
        <time>2022-12-11T10:58:31Z</time>
      </trkpt>
      <trkpt lat="43.5998" lon="6.31894">
        <ele>737</ele>
        <time>2022-12-11T10:58:32Z</time>
      </trkpt>
      <trkpt lat="43.59979" lon="6.31894">
        <ele>737</ele>
        <time>2022-12-11T10:58:33Z</time>
      </trkpt>
      <trkpt lat="43.59979" lon="6.31893">
        <ele>737</ele>
        <time>2022-12-11T10:58:34Z</time>
      </trkpt>
      <trkpt lat="43.59979" lon="6.31893">
        <ele>737</ele>
        <time>2022-12-11T10:58:35Z</time>
      </trkpt>
      <trkpt lat="43.59979" lon="6.31893">
        <ele>737</ele>
        <time>2022-12-11T10:58:36Z</time>
      </trkpt>
      <trkpt lat="43.59979" lon="6.31893">
        <ele>737</ele>
        <time>2022-12-11T10:58:37Z</time>
      </trkpt>
      <trkpt lat="43.59979" lon="6.31893">
        <ele>737</ele>
        <time>2022-12-11T10:58:38Z</time>
      </trkpt>
      <trkpt lat="43.59979" lon="6.31893">
        <ele>737</ele>
        <time>2022-12-11T10:58:39Z</time>
      </trkpt>
      <trkpt lat="43.59979" lon="6.31893">
        <ele>737</ele>
        <time>2022-12-11T10:58:40Z</time>
      </trkpt>
      <trkpt lat="43.59979" lon="6.31892">
        <ele>737</ele>
        <time>2022-12-11T10:58:41Z</time>
      </trkpt>
      <trkpt lat="43.59979" lon="6.31892">
        <ele>737</ele>
        <time>2022-12-11T10:58:42Z</time>
      </trkpt>
      <trkpt lat="43.59979" lon="6.31892">
        <ele>737</ele>
        <time>2022-12-11T10:58:43Z</time>
      </trkpt>
      <trkpt lat="43.5998" lon="6.31892">
        <ele>737</ele>
        <time>2022-12-11T10:58:44Z</time>
      </trkpt>
      <trkpt lat="43.5998" lon="6.31892">
        <ele>737</ele>
        <time>2022-12-11T10:58:45Z</time>
      </trkpt>
      <trkpt lat="43.5998" lon="6.31892">
        <ele>737</ele>
        <time>2022-12-11T10:58:46Z</time>
      </trkpt>
      <trkpt lat="43.5998" lon="6.31892">
        <ele>737</ele>
        <time>2022-12-11T10:58:47Z</time>
      </trkpt>
      <trkpt lat="43.5998" lon="6.31892">
        <ele>737</ele>
        <time>2022-12-11T10:58:48Z</time>
      </trkpt>
      <trkpt lat="43.5998" lon="6.31891">
        <ele>737</ele>
        <time>2022-12-11T10:58:49Z</time>
      </trkpt>
      <trkpt lat="43.5998" lon="6.31891">
        <ele>737</ele>
        <time>2022-12-11T10:58:50Z</time>
      </trkpt>
      <trkpt lat="43.59981" lon="6.31891">
        <ele>737</ele>
        <time>2022-12-11T10:58:51Z</time>
      </trkpt>
      <trkpt lat="43.59981" lon="6.31892">
        <ele>737</ele>
        <time>2022-12-11T10:58:52Z</time>
      </trkpt>
      <trkpt lat="43.59981" lon="6.31892">
        <ele>737</ele>
        <time>2022-12-11T10:58:53Z</time>
      </trkpt>
      <trkpt lat="43.59981" lon="6.31893">
        <ele>737</ele>
        <time>2022-12-11T10:58:54Z</time>
      </trkpt>
      <trkpt lat="43.59982" lon="6.31894">
        <ele>737</ele>
        <time>2022-12-11T10:58:55Z</time>
      </trkpt>
      <trkpt lat="43.59983" lon="6.31894">
        <ele>737</ele>
        <time>2022-12-11T10:58:56Z</time>
      </trkpt>
      <trkpt lat="43.59984" lon="6.31895">
        <ele>737</ele>
        <time>2022-12-11T10:58:57Z</time>
      </trkpt>
      <trkpt lat="43.59984" lon="6.31895">
        <ele>737</ele>
        <time>2022-12-11T10:58:58Z</time>
      </trkpt>
      <trkpt lat="43.59985" lon="6.31895">
        <ele>737</ele>
        <time>2022-12-11T10:58:59Z</time>
      </trkpt>
      <trkpt lat="43.59985" lon="6.31895">
        <ele>737</ele>
        <time>2022-12-11T10:59:00Z</time>
      </trkpt>
      <trkpt lat="43.59985" lon="6.31895">
        <ele>737</ele>
        <time>2022-12-11T10:59:01Z</time>
      </trkpt>
      <trkpt lat="43.59985" lon="6.31894">
        <ele>737</ele>
        <time>2022-12-11T10:59:02Z</time>
      </trkpt>
      <trkpt lat="43.59986" lon="6.31894">
        <ele>737</ele>
        <time>2022-12-11T10:59:03Z</time>
      </trkpt>
      <trkpt lat="43.59986" lon="6.31894">
        <ele>737</ele>
        <time>2022-12-11T10:59:04Z</time>
      </trkpt>
      <trkpt lat="43.59986" lon="6.31894">
        <ele>737</ele>
        <time>2022-12-11T10:59:05Z</time>
      </trkpt>
      <trkpt lat="43.59986" lon="6.31894">
        <ele>737</ele>
        <time>2022-12-11T10:59:06Z</time>
      </trkpt>
      <trkpt lat="43.59987" lon="6.31894">
        <ele>737</ele>
        <time>2022-12-11T10:59:07Z</time>
      </trkpt>
      <trkpt lat="43.59987" lon="6.31893">
        <ele>737</ele>
        <time>2022-12-11T10:59:08Z</time>
      </trkpt>
      <trkpt lat="43.59987" lon="6.31893">
        <ele>737</ele>
        <time>2022-12-11T10:59:09Z</time>
      </trkpt>
      <trkpt lat="43.59988" lon="6.31893">
        <ele>737</ele>
        <time>2022-12-11T10:59:10Z</time>
      </trkpt>
      <trkpt lat="43.59989" lon="6.31892">
        <ele>736</ele>
        <time>2022-12-11T10:59:11Z</time>
      </trkpt>
      <trkpt lat="43.59989" lon="6.31892">
        <ele>735</ele>
        <time>2022-12-11T10:59:12Z</time>
      </trkpt>
      <trkpt lat="43.5999" lon="6.31892">
        <ele>735</ele>
        <time>2022-12-11T10:59:13Z</time>
      </trkpt>
      <trkpt lat="43.5999" lon="6.31892">
        <ele>735</ele>
        <time>2022-12-11T10:59:14Z</time>
      </trkpt>
      <trkpt lat="43.59991" lon="6.31891">
        <ele>735</ele>
        <time>2022-12-11T10:59:15Z</time>
      </trkpt>
      <trkpt lat="43.59991" lon="6.31891">
        <ele>735</ele>
        <time>2022-12-11T10:59:16Z</time>
      </trkpt>
      <trkpt lat="43.59992" lon="6.31891">
        <ele>735</ele>
        <time>2022-12-11T10:59:17Z</time>
      </trkpt>
      <trkpt lat="43.59993" lon="6.3189">
        <ele>734</ele>
        <time>2022-12-11T10:59:18Z</time>
      </trkpt>
      <trkpt lat="43.59994" lon="6.3189">
        <ele>734</ele>
        <time>2022-12-11T10:59:19Z</time>
      </trkpt>
      <trkpt lat="43.59996" lon="6.31889">
        <ele>734</ele>
        <time>2022-12-11T10:59:20Z</time>
      </trkpt>
      <trkpt lat="43.59997" lon="6.31889">
        <ele>734</ele>
        <time>2022-12-11T10:59:21Z</time>
      </trkpt>
      <trkpt lat="43.59997" lon="6.31889">
        <ele>733</ele>
        <time>2022-12-11T10:59:22Z</time>
      </trkpt>
      <trkpt lat="43.59997" lon="6.31889">
        <ele>733</ele>
        <time>2022-12-11T10:59:23Z</time>
      </trkpt>
      <trkpt lat="43.59998" lon="6.31889">
        <ele>733</ele>
        <time>2022-12-11T10:59:24Z</time>
      </trkpt>
      <trkpt lat="43.59998" lon="6.31889">
        <ele>733</ele>
        <time>2022-12-11T10:59:25Z</time>
      </trkpt>
      <trkpt lat="43.59998" lon="6.31889">
        <ele>732</ele>
        <time>2022-12-11T10:59:26Z</time>
      </trkpt>
      <trkpt lat="43.59999" lon="6.31889">
        <ele>732</ele>
        <time>2022-12-11T10:59:27Z</time>
      </trkpt>
      <trkpt lat="43.59999" lon="6.31889">
        <ele>732</ele>
        <time>2022-12-11T10:59:28Z</time>
      </trkpt>
      <trkpt lat="43.6" lon="6.31888">
        <ele>732</ele>
        <time>2022-12-11T10:59:29Z</time>
      </trkpt>
      <trkpt lat="43.6" lon="6.31888">
        <ele>732</ele>
        <time>2022-12-11T10:59:30Z</time>
      </trkpt>
      <trkpt lat="43.60001" lon="6.31888">
        <ele>732</ele>
        <time>2022-12-11T10:59:31Z</time>
      </trkpt>
      <trkpt lat="43.60001" lon="6.31888">
        <ele>732</ele>
        <time>2022-12-11T10:59:32Z</time>
      </trkpt>
      <trkpt lat="43.60001" lon="6.31887">
        <ele>732</ele>
        <time>2022-12-11T10:59:33Z</time>
      </trkpt>
      <trkpt lat="43.60001" lon="6.31887">
        <ele>732</ele>
        <time>2022-12-11T10:59:34Z</time>
      </trkpt>
      <trkpt lat="43.60002" lon="6.31887">
        <ele>732</ele>
        <time>2022-12-11T10:59:35Z</time>
      </trkpt>
      <trkpt lat="43.60002" lon="6.31887">
        <ele>732</ele>
        <time>2022-12-11T10:59:36Z</time>
      </trkpt>
      <trkpt lat="43.60002" lon="6.31887">
        <ele>732</ele>
        <time>2022-12-11T10:59:37Z</time>
      </trkpt>
      <trkpt lat="43.60002" lon="6.31887">
        <ele>732</ele>
        <time>2022-12-11T10:59:38Z</time>
      </trkpt>
      <trkpt lat="43.60003" lon="6.31886">
        <ele>732</ele>
        <time>2022-12-11T10:59:39Z</time>
      </trkpt>
      <trkpt lat="43.60004" lon="6.31886">
        <ele>732</ele>
        <time>2022-12-11T10:59:40Z</time>
      </trkpt>
      <trkpt lat="43.60004" lon="6.31886">
        <ele>732</ele>
        <time>2022-12-11T10:59:41Z</time>
      </trkpt>
      <trkpt lat="43.60005" lon="6.31886">
        <ele>731</ele>
        <time>2022-12-11T10:59:42Z</time>
      </trkpt>
      <trkpt lat="43.60005" lon="6.31886">
        <ele>731</ele>
        <time>2022-12-11T10:59:43Z</time>
      </trkpt>
      <trkpt lat="43.60005" lon="6.31886">
        <ele>731</ele>
        <time>2022-12-11T10:59:44Z</time>
      </trkpt>
      <trkpt lat="43.60005" lon="6.31886">
        <ele>731</ele>
        <time>2022-12-11T10:59:45Z</time>
      </trkpt>
      <trkpt lat="43.60005" lon="6.31886">
        <ele>731</ele>
        <time>2022-12-11T10:59:46Z</time>
      </trkpt>
      <trkpt lat="43.60006" lon="6.31886">
        <ele>731</ele>
        <time>2022-12-11T10:59:47Z</time>
      </trkpt>
      <trkpt lat="43.60006" lon="6.31886">
        <ele>731</ele>
        <time>2022-12-11T10:59:48Z</time>
      </trkpt>
      <trkpt lat="43.60006" lon="6.31886">
        <ele>731</ele>
        <time>2022-12-11T10:59:49Z</time>
      </trkpt>
      <trkpt lat="43.60006" lon="6.31886">
        <ele>731</ele>
        <time>2022-12-11T10:59:50Z</time>
      </trkpt>
      <trkpt lat="43.60006" lon="6.31886">
        <ele>731</ele>
        <time>2022-12-11T10:59:51Z</time>
      </trkpt>
      <trkpt lat="43.60006" lon="6.31886">
        <ele>731</ele>
        <time>2022-12-11T10:59:52Z</time>
      </trkpt>
      <trkpt lat="43.60007" lon="6.31886">
        <ele>731</ele>
        <time>2022-12-11T10:59:53Z</time>
      </trkpt>
      <trkpt lat="43.60008" lon="6.31886">
        <ele>731</ele>
        <time>2022-12-11T10:59:54Z</time>
      </trkpt>
      <trkpt lat="43.60009" lon="6.31887">
        <ele>731</ele>
        <time>2022-12-11T10:59:55Z</time>
      </trkpt>
      <trkpt lat="43.6001" lon="6.31887">
        <ele>731</ele>
        <time>2022-12-11T10:59:56Z</time>
      </trkpt>
      <trkpt lat="43.60011" lon="6.31887">
        <ele>731</ele>
        <time>2022-12-11T10:59:57Z</time>
      </trkpt>
      <trkpt lat="43.60011" lon="6.31887">
        <ele>731</ele>
        <time>2022-12-11T10:59:58Z</time>
      </trkpt>
      <trkpt lat="43.60012" lon="6.31887">
        <ele>731</ele>
        <time>2022-12-11T10:59:59Z</time>
      </trkpt>
      <trkpt lat="43.60012" lon="6.31887">
        <ele>732</ele>
        <time>2022-12-11T11:00:00Z</time>
      </trkpt>
      <trkpt lat="43.60013" lon="6.31887">
        <ele>732</ele>
        <time>2022-12-11T11:00:01Z</time>
      </trkpt>
      <trkpt lat="43.60014" lon="6.31887">
        <ele>732</ele>
        <time>2022-12-11T11:00:02Z</time>
      </trkpt>
      <trkpt lat="43.60015" lon="6.31887">
        <ele>733</ele>
        <time>2022-12-11T11:00:03Z</time>
      </trkpt>
      <trkpt lat="43.60016" lon="6.31887">
        <ele>733</ele>
        <time>2022-12-11T11:00:04Z</time>
      </trkpt>
      <trkpt lat="43.60017" lon="6.31886">
        <ele>733</ele>
        <time>2022-12-11T11:00:05Z</time>
      </trkpt>
      <trkpt lat="43.60019" lon="6.31886">
        <ele>733</ele>
        <time>2022-12-11T11:00:06Z</time>
      </trkpt>
      <trkpt lat="43.60019" lon="6.31886">
        <ele>733</ele>
        <time>2022-12-11T11:00:07Z</time>
      </trkpt>
      <trkpt lat="43.6002" lon="6.31886">
        <ele>733</ele>
        <time>2022-12-11T11:00:08Z</time>
      </trkpt>
      <trkpt lat="43.6002" lon="6.31886">
        <ele>733</ele>
        <time>2022-12-11T11:00:09Z</time>
      </trkpt>
      <trkpt lat="43.6002" lon="6.31886">
        <ele>733</ele>
        <time>2022-12-11T11:00:10Z</time>
      </trkpt>
      <trkpt lat="43.60021" lon="6.31886">
        <ele>733</ele>
        <time>2022-12-11T11:00:11Z</time>
      </trkpt>
      <trkpt lat="43.60021" lon="6.31886">
        <ele>733</ele>
        <time>2022-12-11T11:00:12Z</time>
      </trkpt>
      <trkpt lat="43.60022" lon="6.31886">
        <ele>734</ele>
        <time>2022-12-11T11:00:13Z</time>
      </trkpt>
      <trkpt lat="43.60024" lon="6.31886">
        <ele>734</ele>
        <time>2022-12-11T11:00:14Z</time>
      </trkpt>
      <trkpt lat="43.60026" lon="6.31887">
        <ele>734</ele>
        <time>2022-12-11T11:00:15Z</time>
      </trkpt>
      <trkpt lat="43.60028" lon="6.31888">
        <ele>734</ele>
        <time>2022-12-11T11:00:16Z</time>
      </trkpt>
      <trkpt lat="43.60029" lon="6.31888">
        <ele>734</ele>
        <time>2022-12-11T11:00:17Z</time>
      </trkpt>
      <trkpt lat="43.6003" lon="6.31889">
        <ele>733</ele>
        <time>2022-12-11T11:00:18Z</time>
      </trkpt>
      <trkpt lat="43.60031" lon="6.3189">
        <ele>732</ele>
        <time>2022-12-11T11:00:19Z</time>
      </trkpt>
      <trkpt lat="43.60032" lon="6.3189">
        <ele>732</ele>
        <time>2022-12-11T11:00:20Z</time>
      </trkpt>
      <trkpt lat="43.60033" lon="6.31891">
        <ele>732</ele>
        <time>2022-12-11T11:00:21Z</time>
      </trkpt>
      <trkpt lat="43.60034" lon="6.31892">
        <ele>732</ele>
        <time>2022-12-11T11:00:22Z</time>
      </trkpt>
      <trkpt lat="43.60035" lon="6.31893">
        <ele>731</ele>
        <time>2022-12-11T11:00:23Z</time>
      </trkpt>
      <trkpt lat="43.60036" lon="6.31894">
        <ele>731</ele>
        <time>2022-12-11T11:00:24Z</time>
      </trkpt>
      <trkpt lat="43.60037" lon="6.31894">
        <ele>731</ele>
        <time>2022-12-11T11:00:25Z</time>
      </trkpt>
      <trkpt lat="43.60038" lon="6.31895">
        <ele>731</ele>
        <time>2022-12-11T11:00:26Z</time>
      </trkpt>
      <trkpt lat="43.60039" lon="6.31896">
        <ele>732</ele>
        <time>2022-12-11T11:00:27Z</time>
      </trkpt>
      <trkpt lat="43.60039" lon="6.31897">
        <ele>732</ele>
        <time>2022-12-11T11:00:28Z</time>
      </trkpt>
      <trkpt lat="43.60039" lon="6.31898">
        <ele>732</ele>
        <time>2022-12-11T11:00:29Z</time>
      </trkpt>
      <trkpt lat="43.6004" lon="6.31899">
        <ele>732</ele>
        <time>2022-12-11T11:00:30Z</time>
      </trkpt>
      <trkpt lat="43.60041" lon="6.319">
        <ele>732</ele>
        <time>2022-12-11T11:00:31Z</time>
      </trkpt>
      <trkpt lat="43.60041" lon="6.31901">
        <ele>732</ele>
        <time>2022-12-11T11:00:32Z</time>
      </trkpt>
      <trkpt lat="43.60042" lon="6.31901">
        <ele>732</ele>
        <time>2022-12-11T11:00:33Z</time>
      </trkpt>
      <trkpt lat="43.60043" lon="6.31901">
        <ele>732</ele>
        <time>2022-12-11T11:00:34Z</time>
      </trkpt>
      <trkpt lat="43.60043" lon="6.31902">
        <ele>732</ele>
        <time>2022-12-11T11:00:35Z</time>
      </trkpt>
      <trkpt lat="43.60044" lon="6.31902">
        <ele>732</ele>
        <time>2022-12-11T11:00:36Z</time>
      </trkpt>
      <trkpt lat="43.60045" lon="6.31902">
        <ele>732</ele>
        <time>2022-12-11T11:00:37Z</time>
      </trkpt>
      <trkpt lat="43.60046" lon="6.31902">
        <ele>732</ele>
        <time>2022-12-11T11:00:38Z</time>
      </trkpt>
      <trkpt lat="43.60047" lon="6.31902">
        <ele>732</ele>
        <time>2022-12-11T11:00:39Z</time>
      </trkpt>
      <trkpt lat="43.60048" lon="6.31902">
        <ele>731</ele>
        <time>2022-12-11T11:00:40Z</time>
      </trkpt>
      <trkpt lat="43.60048" lon="6.31902">
        <ele>731</ele>
        <time>2022-12-11T11:00:41Z</time>
      </trkpt>
      <trkpt lat="43.60049" lon="6.31902">
        <ele>731</ele>
        <time>2022-12-11T11:00:42Z</time>
      </trkpt>
      <trkpt lat="43.60049" lon="6.31901">
        <ele>731</ele>
        <time>2022-12-11T11:00:43Z</time>
      </trkpt>
      <trkpt lat="43.6005" lon="6.31901">
        <ele>731</ele>
        <time>2022-12-11T11:00:44Z</time>
      </trkpt>
      <trkpt lat="43.60051" lon="6.31901">
        <ele>731</ele>
        <time>2022-12-11T11:00:45Z</time>
      </trkpt>
      <trkpt lat="43.60051" lon="6.319">
        <ele>731</ele>
        <time>2022-12-11T11:00:46Z</time>
      </trkpt>
      <trkpt lat="43.60052" lon="6.319">
        <ele>731</ele>
        <time>2022-12-11T11:00:47Z</time>
      </trkpt>
      <trkpt lat="43.60053" lon="6.319">
        <ele>730</ele>
        <time>2022-12-11T11:00:48Z</time>
      </trkpt>
      <trkpt lat="43.60054" lon="6.31899">
        <ele>730</ele>
        <time>2022-12-11T11:00:49Z</time>
      </trkpt>
      <trkpt lat="43.60055" lon="6.31899">
        <ele>730</ele>
        <time>2022-12-11T11:00:50Z</time>
      </trkpt>
      <trkpt lat="43.60056" lon="6.31899">
        <ele>730</ele>
        <time>2022-12-11T11:00:51Z</time>
      </trkpt>
      <trkpt lat="43.60057" lon="6.31899">
        <ele>730</ele>
        <time>2022-12-11T11:00:52Z</time>
      </trkpt>
      <trkpt lat="43.60058" lon="6.319">
        <ele>729</ele>
        <time>2022-12-11T11:00:53Z</time>
      </trkpt>
      <trkpt lat="43.60059" lon="6.31899">
        <ele>729</ele>
        <time>2022-12-11T11:00:54Z</time>
      </trkpt>
      <trkpt lat="43.60061" lon="6.319">
        <ele>729</ele>
        <time>2022-12-11T11:00:55Z</time>
      </trkpt>
      <trkpt lat="43.60061" lon="6.319">
        <ele>729</ele>
        <time>2022-12-11T11:00:56Z</time>
      </trkpt>
      <trkpt lat="43.60062" lon="6.319">
        <ele>729</ele>
        <time>2022-12-11T11:00:57Z</time>
      </trkpt>
      <trkpt lat="43.60063" lon="6.319">
        <ele>729</ele>
        <time>2022-12-11T11:00:58Z</time>
      </trkpt>
      <trkpt lat="43.60064" lon="6.319">
        <ele>728</ele>
        <time>2022-12-11T11:00:59Z</time>
      </trkpt>
      <trkpt lat="43.60065" lon="6.31901">
        <ele>728</ele>
        <time>2022-12-11T11:01:00Z</time>
      </trkpt>
      <trkpt lat="43.60066" lon="6.31901">
        <ele>728</ele>
        <time>2022-12-11T11:01:01Z</time>
      </trkpt>
      <trkpt lat="43.60067" lon="6.31901">
        <ele>728</ele>
        <time>2022-12-11T11:01:02Z</time>
      </trkpt>
      <trkpt lat="43.60068" lon="6.319">
        <ele>727</ele>
        <time>2022-12-11T11:01:03Z</time>
      </trkpt>
      <trkpt lat="43.60069" lon="6.319">
        <ele>727</ele>
        <time>2022-12-11T11:01:04Z</time>
      </trkpt>
      <trkpt lat="43.6007" lon="6.319">
        <ele>727</ele>
        <time>2022-12-11T11:01:05Z</time>
      </trkpt>
      <trkpt lat="43.60071" lon="6.319">
        <ele>727</ele>
        <time>2022-12-11T11:01:06Z</time>
      </trkpt>
      <trkpt lat="43.60072" lon="6.319">
        <ele>727</ele>
        <time>2022-12-11T11:01:07Z</time>
      </trkpt>
      <trkpt lat="43.60072" lon="6.319">
        <ele>727</ele>
        <time>2022-12-11T11:01:08Z</time>
      </trkpt>
      <trkpt lat="43.60073" lon="6.319">
        <ele>727</ele>
        <time>2022-12-11T11:01:09Z</time>
      </trkpt>
      <trkpt lat="43.60072" lon="6.319">
        <ele>726</ele>
        <time>2022-12-11T11:01:10Z</time>
      </trkpt>
      <trkpt lat="43.60073" lon="6.319">
        <ele>726</ele>
        <time>2022-12-11T11:01:11Z</time>
      </trkpt>
      <trkpt lat="43.60073" lon="6.319">
        <ele>726</ele>
        <time>2022-12-11T11:01:12Z</time>
      </trkpt>
      <trkpt lat="43.60074" lon="6.319">
        <ele>726</ele>
        <time>2022-12-11T11:01:13Z</time>
      </trkpt>
      <trkpt lat="43.60074" lon="6.319">
        <ele>726</ele>
        <time>2022-12-11T11:01:14Z</time>
      </trkpt>
      <trkpt lat="43.60075" lon="6.31899">
        <ele>726</ele>
        <time>2022-12-11T11:01:15Z</time>
      </trkpt>
      <trkpt lat="43.60075" lon="6.31899">
        <ele>726</ele>
        <time>2022-12-11T11:01:16Z</time>
      </trkpt>
      <trkpt lat="43.60076" lon="6.31899">
        <ele>726</ele>
        <time>2022-12-11T11:01:17Z</time>
      </trkpt>
      <trkpt lat="43.60077" lon="6.31899">
        <ele>726</ele>
        <time>2022-12-11T11:01:18Z</time>
      </trkpt>
      <trkpt lat="43.60078" lon="6.31898">
        <ele>725</ele>
        <time>2022-12-11T11:01:19Z</time>
      </trkpt>
      <trkpt lat="43.60079" lon="6.31897">
        <ele>725</ele>
        <time>2022-12-11T11:01:20Z</time>
      </trkpt>
      <trkpt lat="43.6008" lon="6.31896">
        <ele>725</ele>
        <time>2022-12-11T11:01:21Z</time>
      </trkpt>
      <trkpt lat="43.60081" lon="6.31896">
        <ele>724</ele>
        <time>2022-12-11T11:01:22Z</time>
      </trkpt>
      <trkpt lat="43.60082" lon="6.31895">
        <ele>724</ele>
        <time>2022-12-11T11:01:23Z</time>
      </trkpt>
      <trkpt lat="43.60083" lon="6.31894">
        <ele>724</ele>
        <time>2022-12-11T11:01:24Z</time>
      </trkpt>
      <trkpt lat="43.60085" lon="6.31894">
        <ele>724</ele>
        <time>2022-12-11T11:01:25Z</time>
      </trkpt>
      <trkpt lat="43.60086" lon="6.31893">
        <ele>724</ele>
        <time>2022-12-11T11:01:26Z</time>
      </trkpt>
      <trkpt lat="43.60087" lon="6.31893">
        <ele>723</ele>
        <time>2022-12-11T11:01:27Z</time>
      </trkpt>
      <trkpt lat="43.60088" lon="6.31892">
        <ele>723</ele>
        <time>2022-12-11T11:01:28Z</time>
      </trkpt>
      <trkpt lat="43.60089" lon="6.31891">
        <ele>723</ele>
        <time>2022-12-11T11:01:29Z</time>
      </trkpt>
      <trkpt lat="43.6009" lon="6.3189">
        <ele>723</ele>
        <time>2022-12-11T11:01:30Z</time>
      </trkpt>
      <trkpt lat="43.60091" lon="6.31889">
        <ele>722</ele>
        <time>2022-12-11T11:01:31Z</time>
      </trkpt>
      <trkpt lat="43.60093" lon="6.31888">
        <ele>722</ele>
        <time>2022-12-11T11:01:32Z</time>
      </trkpt>
      <trkpt lat="43.60094" lon="6.31887">
        <ele>722</ele>
        <time>2022-12-11T11:01:33Z</time>
      </trkpt>
      <trkpt lat="43.60095" lon="6.31886">
        <ele>722</ele>
        <time>2022-12-11T11:01:34Z</time>
      </trkpt>
      <trkpt lat="43.60096" lon="6.31885">
        <ele>722</ele>
        <time>2022-12-11T11:01:35Z</time>
      </trkpt>
      <trkpt lat="43.60097" lon="6.31883">
        <ele>722</ele>
        <time>2022-12-11T11:01:36Z</time>
      </trkpt>
      <trkpt lat="43.60098" lon="6.31882">
        <ele>722</ele>
        <time>2022-12-11T11:01:37Z</time>
      </trkpt>
      <trkpt lat="43.60099" lon="6.31881">
        <ele>722</ele>
        <time>2022-12-11T11:01:38Z</time>
      </trkpt>
      <trkpt lat="43.601" lon="6.3188">
        <ele>722</ele>
        <time>2022-12-11T11:01:39Z</time>
      </trkpt>
      <trkpt lat="43.60102" lon="6.31879">
        <ele>722</ele>
        <time>2022-12-11T11:01:40Z</time>
      </trkpt>
      <trkpt lat="43.60103" lon="6.31878">
        <ele>722</ele>
        <time>2022-12-11T11:01:41Z</time>
      </trkpt>
      <trkpt lat="43.60104" lon="6.31877">
        <ele>721</ele>
        <time>2022-12-11T11:01:42Z</time>
      </trkpt>
      <trkpt lat="43.60106" lon="6.31876">
        <ele>721</ele>
        <time>2022-12-11T11:01:43Z</time>
      </trkpt>
      <trkpt lat="43.60107" lon="6.31875">
        <ele>721</ele>
        <time>2022-12-11T11:01:44Z</time>
      </trkpt>
      <trkpt lat="43.60108" lon="6.31874">
        <ele>721</ele>
        <time>2022-12-11T11:01:45Z</time>
      </trkpt>
      <trkpt lat="43.60109" lon="6.31873">
        <ele>720</ele>
        <time>2022-12-11T11:01:46Z</time>
      </trkpt>
      <trkpt lat="43.6011" lon="6.31873">
        <ele>720</ele>
        <time>2022-12-11T11:01:47Z</time>
      </trkpt>
      <trkpt lat="43.60111" lon="6.31872">
        <ele>720</ele>
        <time>2022-12-11T11:01:48Z</time>
      </trkpt>
      <trkpt lat="43.60112" lon="6.31871">
        <ele>719</ele>
        <time>2022-12-11T11:01:49Z</time>
      </trkpt>
      <trkpt lat="43.60113" lon="6.3187">
        <ele>718</ele>
        <time>2022-12-11T11:01:50Z</time>
      </trkpt>
      <trkpt lat="43.60113" lon="6.31869">
        <ele>718</ele>
        <time>2022-12-11T11:01:51Z</time>
      </trkpt>
      <trkpt lat="43.60114" lon="6.31869">
        <ele>717</ele>
        <time>2022-12-11T11:01:52Z</time>
      </trkpt>
      <trkpt lat="43.60115" lon="6.31868">
        <ele>717</ele>
        <time>2022-12-11T11:01:53Z</time>
      </trkpt>
      <trkpt lat="43.60116" lon="6.31867">
        <ele>717</ele>
        <time>2022-12-11T11:01:54Z</time>
      </trkpt>
      <trkpt lat="43.60117" lon="6.31866">
        <ele>717</ele>
        <time>2022-12-11T11:01:55Z</time>
      </trkpt>
      <trkpt lat="43.60117" lon="6.31865">
        <ele>717</ele>
        <time>2022-12-11T11:01:56Z</time>
      </trkpt>
      <trkpt lat="43.60118" lon="6.31865">
        <ele>717</ele>
        <time>2022-12-11T11:01:57Z</time>
      </trkpt>
      <trkpt lat="43.60119" lon="6.31864">
        <ele>716</ele>
        <time>2022-12-11T11:01:58Z</time>
      </trkpt>
      <trkpt lat="43.6012" lon="6.31864">
        <ele>715</ele>
        <time>2022-12-11T11:01:59Z</time>
      </trkpt>
      <trkpt lat="43.60121" lon="6.31864">
        <ele>715</ele>
        <time>2022-12-11T11:02:00Z</time>
      </trkpt>
      <trkpt lat="43.60122" lon="6.31863">
        <ele>715</ele>
        <time>2022-12-11T11:02:01Z</time>
      </trkpt>
      <trkpt lat="43.60123" lon="6.31863">
        <ele>715</ele>
        <time>2022-12-11T11:02:02Z</time>
      </trkpt>
      <trkpt lat="43.60123" lon="6.31862">
        <ele>714</ele>
        <time>2022-12-11T11:02:03Z</time>
      </trkpt>
      <trkpt lat="43.60124" lon="6.31862">
        <ele>714</ele>
        <time>2022-12-11T11:02:04Z</time>
      </trkpt>
      <trkpt lat="43.60125" lon="6.31861">
        <ele>714</ele>
        <time>2022-12-11T11:02:05Z</time>
      </trkpt>
      <trkpt lat="43.60126" lon="6.3186">
        <ele>714</ele>
        <time>2022-12-11T11:02:06Z</time>
      </trkpt>
      <trkpt lat="43.60126" lon="6.31859">
        <ele>714</ele>
        <time>2022-12-11T11:02:07Z</time>
      </trkpt>
      <trkpt lat="43.60126" lon="6.31857">
        <ele>714</ele>
        <time>2022-12-11T11:02:08Z</time>
      </trkpt>
      <trkpt lat="43.60127" lon="6.31856">
        <ele>713</ele>
        <time>2022-12-11T11:02:09Z</time>
      </trkpt>
      <trkpt lat="43.60128" lon="6.31854">
        <ele>713</ele>
        <time>2022-12-11T11:02:10Z</time>
      </trkpt>
      <trkpt lat="43.60128" lon="6.31853">
        <ele>713</ele>
        <time>2022-12-11T11:02:11Z</time>
      </trkpt>
      <trkpt lat="43.60129" lon="6.31853">
        <ele>713</ele>
        <time>2022-12-11T11:02:12Z</time>
      </trkpt>
      <trkpt lat="43.6013" lon="6.31852">
        <ele>713</ele>
        <time>2022-12-11T11:02:13Z</time>
      </trkpt>
      <trkpt lat="43.60131" lon="6.31851">
        <ele>713</ele>
        <time>2022-12-11T11:02:14Z</time>
      </trkpt>
      <trkpt lat="43.60132" lon="6.3185">
        <ele>713</ele>
        <time>2022-12-11T11:02:15Z</time>
      </trkpt>
      <trkpt lat="43.60132" lon="6.31849">
        <ele>714</ele>
        <time>2022-12-11T11:02:16Z</time>
      </trkpt>
      <trkpt lat="43.60133" lon="6.31848">
        <ele>713</ele>
        <time>2022-12-11T11:02:17Z</time>
      </trkpt>
      <trkpt lat="43.60134" lon="6.31847">
        <ele>713</ele>
        <time>2022-12-11T11:02:18Z</time>
      </trkpt>
      <trkpt lat="43.60135" lon="6.31846">
        <ele>714</ele>
        <time>2022-12-11T11:02:19Z</time>
      </trkpt>
      <trkpt lat="43.60136" lon="6.31846">
        <ele>714</ele>
        <time>2022-12-11T11:02:20Z</time>
      </trkpt>
      <trkpt lat="43.60137" lon="6.31845">
        <ele>714</ele>
        <time>2022-12-11T11:02:21Z</time>
      </trkpt>
      <trkpt lat="43.60138" lon="6.31844">
        <ele>714</ele>
        <time>2022-12-11T11:02:22Z</time>
      </trkpt>
      <trkpt lat="43.60139" lon="6.31843">
        <ele>714</ele>
        <time>2022-12-11T11:02:23Z</time>
      </trkpt>
      <trkpt lat="43.6014" lon="6.31842">
        <ele>714</ele>
        <time>2022-12-11T11:02:24Z</time>
      </trkpt>
      <trkpt lat="43.60141" lon="6.31841">
        <ele>714</ele>
        <time>2022-12-11T11:02:25Z</time>
      </trkpt>
      <trkpt lat="43.60141" lon="6.3184">
        <ele>714</ele>
        <time>2022-12-11T11:02:26Z</time>
      </trkpt>
      <trkpt lat="43.60143" lon="6.3184">
        <ele>714</ele>
        <time>2022-12-11T11:02:27Z</time>
      </trkpt>
      <trkpt lat="43.60144" lon="6.31839">
        <ele>714</ele>
        <time>2022-12-11T11:02:28Z</time>
      </trkpt>
      <trkpt lat="43.60145" lon="6.31838">
        <ele>714</ele>
        <time>2022-12-11T11:02:29Z</time>
      </trkpt>
      <trkpt lat="43.60146" lon="6.31837">
        <ele>714</ele>
        <time>2022-12-11T11:02:30Z</time>
      </trkpt>
      <trkpt lat="43.60147" lon="6.31837">
        <ele>714</ele>
        <time>2022-12-11T11:02:31Z</time>
      </trkpt>
      <trkpt lat="43.60148" lon="6.31836">
        <ele>714</ele>
        <time>2022-12-11T11:02:32Z</time>
      </trkpt>
      <trkpt lat="43.60149" lon="6.31835">
        <ele>713</ele>
        <time>2022-12-11T11:02:33Z</time>
      </trkpt>
      <trkpt lat="43.6015" lon="6.31834">
        <ele>713</ele>
        <time>2022-12-11T11:02:34Z</time>
      </trkpt>
      <trkpt lat="43.60151" lon="6.31833">
        <ele>713</ele>
        <time>2022-12-11T11:02:35Z</time>
      </trkpt>
      <trkpt lat="43.60152" lon="6.31833">
        <ele>713</ele>
        <time>2022-12-11T11:02:36Z</time>
      </trkpt>
      <trkpt lat="43.60153" lon="6.31832">
        <ele>713</ele>
        <time>2022-12-11T11:02:37Z</time>
      </trkpt>
      <trkpt lat="43.60153" lon="6.31832">
        <ele>713</ele>
        <time>2022-12-11T11:02:38Z</time>
      </trkpt>
      <trkpt lat="43.60154" lon="6.31831">
        <ele>713</ele>
        <time>2022-12-11T11:02:39Z</time>
      </trkpt>
      <trkpt lat="43.60155" lon="6.31831">
        <ele>713</ele>
        <time>2022-12-11T11:02:40Z</time>
      </trkpt>
      <trkpt lat="43.60156" lon="6.31831">
        <ele>713</ele>
        <time>2022-12-11T11:02:41Z</time>
      </trkpt>
      <trkpt lat="43.60156" lon="6.31831">
        <ele>713</ele>
        <time>2022-12-11T11:02:42Z</time>
      </trkpt>
      <trkpt lat="43.60157" lon="6.31832">
        <ele>712</ele>
        <time>2022-12-11T11:02:43Z</time>
      </trkpt>
      <trkpt lat="43.60158" lon="6.31832">
        <ele>712</ele>
        <time>2022-12-11T11:02:44Z</time>
      </trkpt>
      <trkpt lat="43.60159" lon="6.31832">
        <ele>712</ele>
        <time>2022-12-11T11:02:45Z</time>
      </trkpt>
      <trkpt lat="43.6016" lon="6.31832">
        <ele>712</ele>
        <time>2022-12-11T11:02:46Z</time>
      </trkpt>
      <trkpt lat="43.60162" lon="6.31833">
        <ele>713</ele>
        <time>2022-12-11T11:02:47Z</time>
      </trkpt>
      <trkpt lat="43.60163" lon="6.31833">
        <ele>713</ele>
        <time>2022-12-11T11:02:48Z</time>
      </trkpt>
      <trkpt lat="43.60164" lon="6.31834">
        <ele>713</ele>
        <time>2022-12-11T11:02:49Z</time>
      </trkpt>
      <trkpt lat="43.60165" lon="6.31835">
        <ele>713</ele>
        <time>2022-12-11T11:02:50Z</time>
      </trkpt>
      <trkpt lat="43.60166" lon="6.31835">
        <ele>713</ele>
        <time>2022-12-11T11:02:51Z</time>
      </trkpt>
      <trkpt lat="43.60167" lon="6.31836">
        <ele>714</ele>
        <time>2022-12-11T11:02:52Z</time>
      </trkpt>
      <trkpt lat="43.60167" lon="6.31836">
        <ele>714</ele>
        <time>2022-12-11T11:02:53Z</time>
      </trkpt>
      <trkpt lat="43.60168" lon="6.31837">
        <ele>714</ele>
        <time>2022-12-11T11:02:54Z</time>
      </trkpt>
      <trkpt lat="43.60168" lon="6.31839">
        <ele>714</ele>
        <time>2022-12-11T11:02:55Z</time>
      </trkpt>
      <trkpt lat="43.60168" lon="6.3184">
        <ele>713</ele>
        <time>2022-12-11T11:02:56Z</time>
      </trkpt>
      <trkpt lat="43.60168" lon="6.31841">
        <ele>713</ele>
        <time>2022-12-11T11:02:57Z</time>
      </trkpt>
      <trkpt lat="43.60168" lon="6.31843">
        <ele>713</ele>
        <time>2022-12-11T11:02:58Z</time>
      </trkpt>
      <trkpt lat="43.60169" lon="6.31844">
        <ele>713</ele>
        <time>2022-12-11T11:02:59Z</time>
      </trkpt>
      <trkpt lat="43.6017" lon="6.31845">
        <ele>713</ele>
        <time>2022-12-11T11:03:00Z</time>
      </trkpt>
      <trkpt lat="43.6017" lon="6.31847">
        <ele>712</ele>
        <time>2022-12-11T11:03:01Z</time>
      </trkpt>
      <trkpt lat="43.60171" lon="6.31848">
        <ele>712</ele>
        <time>2022-12-11T11:03:02Z</time>
      </trkpt>
      <trkpt lat="43.60172" lon="6.31849">
        <ele>712</ele>
        <time>2022-12-11T11:03:03Z</time>
      </trkpt>
      <trkpt lat="43.60173" lon="6.3185">
        <ele>711</ele>
        <time>2022-12-11T11:03:04Z</time>
      </trkpt>
      <trkpt lat="43.60174" lon="6.31851">
        <ele>711</ele>
        <time>2022-12-11T11:03:05Z</time>
      </trkpt>
      <trkpt lat="43.60174" lon="6.31852">
        <ele>711</ele>
        <time>2022-12-11T11:03:06Z</time>
      </trkpt>
      <trkpt lat="43.60175" lon="6.31853">
        <ele>711</ele>
        <time>2022-12-11T11:03:07Z</time>
      </trkpt>
      <trkpt lat="43.60176" lon="6.31854">
        <ele>711</ele>
        <time>2022-12-11T11:03:08Z</time>
      </trkpt>
      <trkpt lat="43.60177" lon="6.31854">
        <ele>711</ele>
        <time>2022-12-11T11:03:09Z</time>
      </trkpt>
      <trkpt lat="43.60178" lon="6.31855">
        <ele>710</ele>
        <time>2022-12-11T11:03:10Z</time>
      </trkpt>
      <trkpt lat="43.60179" lon="6.31856">
        <ele>710</ele>
        <time>2022-12-11T11:03:11Z</time>
      </trkpt>
      <trkpt lat="43.6018" lon="6.31856">
        <ele>710</ele>
        <time>2022-12-11T11:03:12Z</time>
      </trkpt>
      <trkpt lat="43.60181" lon="6.31857">
        <ele>710</ele>
        <time>2022-12-11T11:03:13Z</time>
      </trkpt>
      <trkpt lat="43.60182" lon="6.31857">
        <ele>710</ele>
        <time>2022-12-11T11:03:14Z</time>
      </trkpt>
      <trkpt lat="43.60183" lon="6.31858">
        <ele>710</ele>
        <time>2022-12-11T11:03:15Z</time>
      </trkpt>
      <trkpt lat="43.60184" lon="6.31858">
        <ele>710</ele>
        <time>2022-12-11T11:03:16Z</time>
      </trkpt>
      <trkpt lat="43.60185" lon="6.31858">
        <ele>710</ele>
        <time>2022-12-11T11:03:17Z</time>
      </trkpt>
      <trkpt lat="43.60186" lon="6.31859">
        <ele>710</ele>
        <time>2022-12-11T11:03:18Z</time>
      </trkpt>
      <trkpt lat="43.60186" lon="6.31859">
        <ele>710</ele>
        <time>2022-12-11T11:03:19Z</time>
      </trkpt>
      <trkpt lat="43.60187" lon="6.31859">
        <ele>710</ele>
        <time>2022-12-11T11:03:20Z</time>
      </trkpt>
      <trkpt lat="43.60188" lon="6.31859">
        <ele>710</ele>
        <time>2022-12-11T11:03:21Z</time>
      </trkpt>
      <trkpt lat="43.60189" lon="6.31859">
        <ele>710</ele>
        <time>2022-12-11T11:03:22Z</time>
      </trkpt>
      <trkpt lat="43.6019" lon="6.31859">
        <ele>710</ele>
        <time>2022-12-11T11:03:23Z</time>
      </trkpt>
      <trkpt lat="43.60191" lon="6.31859">
        <ele>710</ele>
        <time>2022-12-11T11:03:24Z</time>
      </trkpt>
      <trkpt lat="43.60192" lon="6.3186">
        <ele>710</ele>
        <time>2022-12-11T11:03:25Z</time>
      </trkpt>
      <trkpt lat="43.60193" lon="6.3186">
        <ele>710</ele>
        <time>2022-12-11T11:03:26Z</time>
      </trkpt>
      <trkpt lat="43.60194" lon="6.3186">
        <ele>710</ele>
        <time>2022-12-11T11:03:27Z</time>
      </trkpt>
      <trkpt lat="43.60195" lon="6.3186">
        <ele>711</ele>
        <time>2022-12-11T11:03:28Z</time>
      </trkpt>
      <trkpt lat="43.60196" lon="6.31859">
        <ele>711</ele>
        <time>2022-12-11T11:03:29Z</time>
      </trkpt>
      <trkpt lat="43.60197" lon="6.31859">
        <ele>711</ele>
        <time>2022-12-11T11:03:30Z</time>
      </trkpt>
      <trkpt lat="43.60198" lon="6.31858">
        <ele>711</ele>
        <time>2022-12-11T11:03:31Z</time>
      </trkpt>
      <trkpt lat="43.60199" lon="6.31858">
        <ele>711</ele>
        <time>2022-12-11T11:03:32Z</time>
      </trkpt>
      <trkpt lat="43.602" lon="6.31858">
        <ele>711</ele>
        <time>2022-12-11T11:03:33Z</time>
      </trkpt>
      <trkpt lat="43.60201" lon="6.31858">
        <ele>711</ele>
        <time>2022-12-11T11:03:34Z</time>
      </trkpt>
      <trkpt lat="43.60202" lon="6.31858">
        <ele>711</ele>
        <time>2022-12-11T11:03:35Z</time>
      </trkpt>
      <trkpt lat="43.60203" lon="6.31858">
        <ele>710</ele>
        <time>2022-12-11T11:03:36Z</time>
      </trkpt>
      <trkpt lat="43.60205" lon="6.31858">
        <ele>710</ele>
        <time>2022-12-11T11:03:37Z</time>
      </trkpt>
      <trkpt lat="43.60206" lon="6.31858">
        <ele>710</ele>
        <time>2022-12-11T11:03:38Z</time>
      </trkpt>
      <trkpt lat="43.60207" lon="6.31858">
        <ele>710</ele>
        <time>2022-12-11T11:03:39Z</time>
      </trkpt>
      <trkpt lat="43.60208" lon="6.31858">
        <ele>710</ele>
        <time>2022-12-11T11:03:40Z</time>
      </trkpt>
      <trkpt lat="43.60209" lon="6.31858">
        <ele>710</ele>
        <time>2022-12-11T11:03:41Z</time>
      </trkpt>
      <trkpt lat="43.6021" lon="6.31858">
        <ele>710</ele>
        <time>2022-12-11T11:03:42Z</time>
      </trkpt>
      <trkpt lat="43.60211" lon="6.31858">
        <ele>711</ele>
        <time>2022-12-11T11:03:43Z</time>
      </trkpt>
      <trkpt lat="43.60213" lon="6.31858">
        <ele>711</ele>
        <time>2022-12-11T11:03:44Z</time>
      </trkpt>
      <trkpt lat="43.60214" lon="6.31858">
        <ele>711</ele>
        <time>2022-12-11T11:03:45Z</time>
      </trkpt>
      <trkpt lat="43.60215" lon="6.31859">
        <ele>711</ele>
        <time>2022-12-11T11:03:46Z</time>
      </trkpt>
      <trkpt lat="43.60216" lon="6.31859">
        <ele>711</ele>
        <time>2022-12-11T11:03:47Z</time>
      </trkpt>
      <trkpt lat="43.60218" lon="6.31859">
        <ele>711</ele>
        <time>2022-12-11T11:03:48Z</time>
      </trkpt>
      <trkpt lat="43.60219" lon="6.31859">
        <ele>711</ele>
        <time>2022-12-11T11:03:49Z</time>
      </trkpt>
      <trkpt lat="43.6022" lon="6.31859">
        <ele>711</ele>
        <time>2022-12-11T11:03:50Z</time>
      </trkpt>
      <trkpt lat="43.60221" lon="6.3186">
        <ele>711</ele>
        <time>2022-12-11T11:03:51Z</time>
      </trkpt>
      <trkpt lat="43.60222" lon="6.3186">
        <ele>711</ele>
        <time>2022-12-11T11:03:52Z</time>
      </trkpt>
      <trkpt lat="43.60223" lon="6.3186">
        <ele>712</ele>
        <time>2022-12-11T11:03:53Z</time>
      </trkpt>
      <trkpt lat="43.60225" lon="6.31859">
        <ele>712</ele>
        <time>2022-12-11T11:03:54Z</time>
      </trkpt>
      <trkpt lat="43.60225" lon="6.3186">
        <ele>712</ele>
        <time>2022-12-11T11:03:55Z</time>
      </trkpt>
      <trkpt lat="43.60226" lon="6.3186">
        <ele>712</ele>
        <time>2022-12-11T11:03:56Z</time>
      </trkpt>
      <trkpt lat="43.60227" lon="6.3186">
        <ele>712</ele>
        <time>2022-12-11T11:03:57Z</time>
      </trkpt>
      <trkpt lat="43.60228" lon="6.3186">
        <ele>712</ele>
        <time>2022-12-11T11:03:58Z</time>
      </trkpt>
      <trkpt lat="43.60229" lon="6.31861">
        <ele>712</ele>
        <time>2022-12-11T11:03:59Z</time>
      </trkpt>
      <trkpt lat="43.6023" lon="6.31861">
        <ele>712</ele>
        <time>2022-12-11T11:04:00Z</time>
      </trkpt>
      <trkpt lat="43.60232" lon="6.31862">
        <ele>712</ele>
        <time>2022-12-11T11:04:01Z</time>
      </trkpt>
      <trkpt lat="43.60233" lon="6.31862">
        <ele>712</ele>
        <time>2022-12-11T11:04:02Z</time>
      </trkpt>
      <trkpt lat="43.60234" lon="6.31863">
        <ele>713</ele>
        <time>2022-12-11T11:04:03Z</time>
      </trkpt>
      <trkpt lat="43.60235" lon="6.31863">
        <ele>713</ele>
        <time>2022-12-11T11:04:04Z</time>
      </trkpt>
      <trkpt lat="43.60236" lon="6.31864">
        <ele>713</ele>
        <time>2022-12-11T11:04:05Z</time>
      </trkpt>
      <trkpt lat="43.60237" lon="6.31865">
        <ele>713</ele>
        <time>2022-12-11T11:04:06Z</time>
      </trkpt>
      <trkpt lat="43.60238" lon="6.31866">
        <ele>713</ele>
        <time>2022-12-11T11:04:07Z</time>
      </trkpt>
      <trkpt lat="43.60239" lon="6.31867">
        <ele>713</ele>
        <time>2022-12-11T11:04:08Z</time>
      </trkpt>
      <trkpt lat="43.6024" lon="6.31867">
        <ele>713</ele>
        <time>2022-12-11T11:04:09Z</time>
      </trkpt>
      <trkpt lat="43.60241" lon="6.31868">
        <ele>713</ele>
        <time>2022-12-11T11:04:10Z</time>
      </trkpt>
      <trkpt lat="43.60242" lon="6.31869">
        <ele>712</ele>
        <time>2022-12-11T11:04:11Z</time>
      </trkpt>
      <trkpt lat="43.60243" lon="6.31869">
        <ele>712</ele>
        <time>2022-12-11T11:04:12Z</time>
      </trkpt>
      <trkpt lat="43.60243" lon="6.3187">
        <ele>712</ele>
        <time>2022-12-11T11:04:13Z</time>
      </trkpt>
      <trkpt lat="43.60244" lon="6.31871">
        <ele>712</ele>
        <time>2022-12-11T11:04:14Z</time>
      </trkpt>
      <trkpt lat="43.60245" lon="6.31872">
        <ele>712</ele>
        <time>2022-12-11T11:04:15Z</time>
      </trkpt>
      <trkpt lat="43.60246" lon="6.31873">
        <ele>712</ele>
        <time>2022-12-11T11:04:16Z</time>
      </trkpt>
      <trkpt lat="43.60246" lon="6.31874">
        <ele>712</ele>
        <time>2022-12-11T11:04:17Z</time>
      </trkpt>
      <trkpt lat="43.60247" lon="6.31875">
        <ele>712</ele>
        <time>2022-12-11T11:04:18Z</time>
      </trkpt>
      <trkpt lat="43.60248" lon="6.31876">
        <ele>712</ele>
        <time>2022-12-11T11:04:19Z</time>
      </trkpt>
      <trkpt lat="43.60249" lon="6.31877">
        <ele>712</ele>
        <time>2022-12-11T11:04:20Z</time>
      </trkpt>
      <trkpt lat="43.60249" lon="6.31878">
        <ele>711</ele>
        <time>2022-12-11T11:04:21Z</time>
      </trkpt>
      <trkpt lat="43.6025" lon="6.31879">
        <ele>711</ele>
        <time>2022-12-11T11:04:22Z</time>
      </trkpt>
      <trkpt lat="43.6025" lon="6.3188">
        <ele>711</ele>
        <time>2022-12-11T11:04:23Z</time>
      </trkpt>
      <trkpt lat="43.60251" lon="6.3188">
        <ele>711</ele>
        <time>2022-12-11T11:04:24Z</time>
      </trkpt>
      <trkpt lat="43.60252" lon="6.31881">
        <ele>711</ele>
        <time>2022-12-11T11:04:25Z</time>
      </trkpt>
      <trkpt lat="43.60253" lon="6.31883">
        <ele>711</ele>
        <time>2022-12-11T11:04:26Z</time>
      </trkpt>
      <trkpt lat="43.60253" lon="6.31884">
        <ele>711</ele>
        <time>2022-12-11T11:04:27Z</time>
      </trkpt>
      <trkpt lat="43.60254" lon="6.31885">
        <ele>711</ele>
        <time>2022-12-11T11:04:28Z</time>
      </trkpt>
      <trkpt lat="43.60255" lon="6.31886">
        <ele>711</ele>
        <time>2022-12-11T11:04:29Z</time>
      </trkpt>
      <trkpt lat="43.60256" lon="6.31887">
        <ele>711</ele>
        <time>2022-12-11T11:04:30Z</time>
      </trkpt>
      <trkpt lat="43.60257" lon="6.31888">
        <ele>711</ele>
        <time>2022-12-11T11:04:31Z</time>
      </trkpt>
      <trkpt lat="43.60258" lon="6.31889">
        <ele>711</ele>
        <time>2022-12-11T11:04:32Z</time>
      </trkpt>
      <trkpt lat="43.60259" lon="6.3189">
        <ele>712</ele>
        <time>2022-12-11T11:04:33Z</time>
      </trkpt>
      <trkpt lat="43.6026" lon="6.31891">
        <ele>712</ele>
        <time>2022-12-11T11:04:34Z</time>
      </trkpt>
      <trkpt lat="43.60261" lon="6.31891">
        <ele>712</ele>
        <time>2022-12-11T11:04:35Z</time>
      </trkpt>
      <trkpt lat="43.60261" lon="6.31892">
        <ele>712</ele>
        <time>2022-12-11T11:04:36Z</time>
      </trkpt>
      <trkpt lat="43.60262" lon="6.31892">
        <ele>712</ele>
        <time>2022-12-11T11:04:37Z</time>
      </trkpt>
      <trkpt lat="43.60263" lon="6.31893">
        <ele>712</ele>
        <time>2022-12-11T11:04:38Z</time>
      </trkpt>
      <trkpt lat="43.60264" lon="6.31893">
        <ele>712</ele>
        <time>2022-12-11T11:04:39Z</time>
      </trkpt>
      <trkpt lat="43.60265" lon="6.31894">
        <ele>712</ele>
        <time>2022-12-11T11:04:40Z</time>
      </trkpt>
      <trkpt lat="43.60266" lon="6.31894">
        <ele>712</ele>
        <time>2022-12-11T11:04:41Z</time>
      </trkpt>
      <trkpt lat="43.60267" lon="6.31894">
        <ele>712</ele>
        <time>2022-12-11T11:04:42Z</time>
      </trkpt>
      <trkpt lat="43.60268" lon="6.31895">
        <ele>712</ele>
        <time>2022-12-11T11:04:43Z</time>
      </trkpt>
      <trkpt lat="43.60269" lon="6.31895">
        <ele>712</ele>
        <time>2022-12-11T11:04:44Z</time>
      </trkpt>
      <trkpt lat="43.60269" lon="6.31895">
        <ele>712</ele>
        <time>2022-12-11T11:04:45Z</time>
      </trkpt>
      <trkpt lat="43.6027" lon="6.31896">
        <ele>712</ele>
        <time>2022-12-11T11:04:46Z</time>
      </trkpt>
      <trkpt lat="43.60271" lon="6.31896">
        <ele>712</ele>
        <time>2022-12-11T11:04:47Z</time>
      </trkpt>
      <trkpt lat="43.60272" lon="6.31897">
        <ele>712</ele>
        <time>2022-12-11T11:04:48Z</time>
      </trkpt>
      <trkpt lat="43.60272" lon="6.31897">
        <ele>712</ele>
        <time>2022-12-11T11:04:49Z</time>
      </trkpt>
      <trkpt lat="43.60273" lon="6.31898">
        <ele>712</ele>
        <time>2022-12-11T11:04:50Z</time>
      </trkpt>
      <trkpt lat="43.60274" lon="6.31898">
        <ele>712</ele>
        <time>2022-12-11T11:04:51Z</time>
      </trkpt>
      <trkpt lat="43.60275" lon="6.31898">
        <ele>712</ele>
        <time>2022-12-11T11:04:52Z</time>
      </trkpt>
      <trkpt lat="43.60276" lon="6.31899">
        <ele>712</ele>
        <time>2022-12-11T11:04:53Z</time>
      </trkpt>
      <trkpt lat="43.60277" lon="6.319">
        <ele>712</ele>
        <time>2022-12-11T11:04:54Z</time>
      </trkpt>
      <trkpt lat="43.60278" lon="6.319">
        <ele>712</ele>
        <time>2022-12-11T11:04:55Z</time>
      </trkpt>
      <trkpt lat="43.60279" lon="6.319">
        <ele>712</ele>
        <time>2022-12-11T11:04:56Z</time>
      </trkpt>
      <trkpt lat="43.6028" lon="6.31901">
        <ele>712</ele>
        <time>2022-12-11T11:04:57Z</time>
      </trkpt>
      <trkpt lat="43.60281" lon="6.31901">
        <ele>712</ele>
        <time>2022-12-11T11:04:58Z</time>
      </trkpt>
      <trkpt lat="43.60282" lon="6.31901">
        <ele>712</ele>
        <time>2022-12-11T11:04:59Z</time>
      </trkpt>
      <trkpt lat="43.60282" lon="6.31902">
        <ele>712</ele>
        <time>2022-12-11T11:05:00Z</time>
      </trkpt>
      <trkpt lat="43.60283" lon="6.31903">
        <ele>712</ele>
        <time>2022-12-11T11:05:01Z</time>
      </trkpt>
      <trkpt lat="43.60284" lon="6.31903">
        <ele>712</ele>
        <time>2022-12-11T11:05:02Z</time>
      </trkpt>
      <trkpt lat="43.60285" lon="6.31904">
        <ele>712</ele>
        <time>2022-12-11T11:05:03Z</time>
      </trkpt>
      <trkpt lat="43.60286" lon="6.31905">
        <ele>712</ele>
        <time>2022-12-11T11:05:04Z</time>
      </trkpt>
      <trkpt lat="43.60287" lon="6.31906">
        <ele>712</ele>
        <time>2022-12-11T11:05:05Z</time>
      </trkpt>
      <trkpt lat="43.60287" lon="6.31906">
        <ele>712</ele>
        <time>2022-12-11T11:05:06Z</time>
      </trkpt>
      <trkpt lat="43.60288" lon="6.31906">
        <ele>712</ele>
        <time>2022-12-11T11:05:07Z</time>
      </trkpt>
      <trkpt lat="43.60289" lon="6.31907">
        <ele>712</ele>
        <time>2022-12-11T11:05:08Z</time>
      </trkpt>
      <trkpt lat="43.60289" lon="6.31907">
        <ele>712</ele>
        <time>2022-12-11T11:05:09Z</time>
      </trkpt>
      <trkpt lat="43.6029" lon="6.31907">
        <ele>712</ele>
        <time>2022-12-11T11:05:10Z</time>
      </trkpt>
      <trkpt lat="43.60291" lon="6.31908">
        <ele>712</ele>
        <time>2022-12-11T11:05:11Z</time>
      </trkpt>
      <trkpt lat="43.60292" lon="6.31908">
        <ele>712</ele>
        <time>2022-12-11T11:05:12Z</time>
      </trkpt>
      <trkpt lat="43.60293" lon="6.31909">
        <ele>712</ele>
        <time>2022-12-11T11:05:13Z</time>
      </trkpt>
      <trkpt lat="43.60294" lon="6.3191">
        <ele>712</ele>
        <time>2022-12-11T11:05:14Z</time>
      </trkpt>
      <trkpt lat="43.60295" lon="6.31911">
        <ele>712</ele>
        <time>2022-12-11T11:05:15Z</time>
      </trkpt>
      <trkpt lat="43.60295" lon="6.31912">
        <ele>712</ele>
        <time>2022-12-11T11:05:16Z</time>
      </trkpt>
      <trkpt lat="43.60296" lon="6.31913">
        <ele>712</ele>
        <time>2022-12-11T11:05:17Z</time>
      </trkpt>
      <trkpt lat="43.60297" lon="6.31913">
        <ele>712</ele>
        <time>2022-12-11T11:05:18Z</time>
      </trkpt>
      <trkpt lat="43.60298" lon="6.31914">
        <ele>712</ele>
        <time>2022-12-11T11:05:19Z</time>
      </trkpt>
      <trkpt lat="43.60299" lon="6.31914">
        <ele>711</ele>
        <time>2022-12-11T11:05:20Z</time>
      </trkpt>
      <trkpt lat="43.603" lon="6.31915">
        <ele>711</ele>
        <time>2022-12-11T11:05:21Z</time>
      </trkpt>
      <trkpt lat="43.60301" lon="6.31916">
        <ele>711</ele>
        <time>2022-12-11T11:05:22Z</time>
      </trkpt>
      <trkpt lat="43.60302" lon="6.31916">
        <ele>710</ele>
        <time>2022-12-11T11:05:23Z</time>
      </trkpt>
      <trkpt lat="43.60302" lon="6.31917">
        <ele>710</ele>
        <time>2022-12-11T11:05:24Z</time>
      </trkpt>
      <trkpt lat="43.60303" lon="6.31918">
        <ele>710</ele>
        <time>2022-12-11T11:05:25Z</time>
      </trkpt>
      <trkpt lat="43.60304" lon="6.31919">
        <ele>710</ele>
        <time>2022-12-11T11:05:26Z</time>
      </trkpt>
      <trkpt lat="43.60305" lon="6.31921">
        <ele>709</ele>
        <time>2022-12-11T11:05:27Z</time>
      </trkpt>
      <trkpt lat="43.60306" lon="6.31922">
        <ele>709</ele>
        <time>2022-12-11T11:05:28Z</time>
      </trkpt>
      <trkpt lat="43.60306" lon="6.31923">
        <ele>709</ele>
        <time>2022-12-11T11:05:29Z</time>
      </trkpt>
      <trkpt lat="43.60307" lon="6.31924">
        <ele>707</ele>
        <time>2022-12-11T11:05:30Z</time>
      </trkpt>
      <trkpt lat="43.60308" lon="6.31925">
        <ele>707</ele>
        <time>2022-12-11T11:05:31Z</time>
      </trkpt>
      <trkpt lat="43.60309" lon="6.31926">
        <ele>707</ele>
        <time>2022-12-11T11:05:32Z</time>
      </trkpt>
      <trkpt lat="43.6031" lon="6.31927">
        <ele>706</ele>
        <time>2022-12-11T11:05:33Z</time>
      </trkpt>
      <trkpt lat="43.6031" lon="6.31928">
        <ele>706</ele>
        <time>2022-12-11T11:05:34Z</time>
      </trkpt>
      <trkpt lat="43.60311" lon="6.3193">
        <ele>706</ele>
        <time>2022-12-11T11:05:35Z</time>
      </trkpt>
      <trkpt lat="43.60312" lon="6.31931">
        <ele>706</ele>
        <time>2022-12-11T11:05:36Z</time>
      </trkpt>
      <trkpt lat="43.60313" lon="6.31932">
        <ele>707</ele>
        <time>2022-12-11T11:05:37Z</time>
      </trkpt>
      <trkpt lat="43.60314" lon="6.31933">
        <ele>707</ele>
        <time>2022-12-11T11:05:38Z</time>
      </trkpt>
      <trkpt lat="43.60315" lon="6.31934">
        <ele>707</ele>
        <time>2022-12-11T11:05:39Z</time>
      </trkpt>
      <trkpt lat="43.60316" lon="6.31935">
        <ele>707</ele>
        <time>2022-12-11T11:05:40Z</time>
      </trkpt>
      <trkpt lat="43.60316" lon="6.31936">
        <ele>707</ele>
        <time>2022-12-11T11:05:41Z</time>
      </trkpt>
      <trkpt lat="43.60317" lon="6.31936">
        <ele>707</ele>
        <time>2022-12-11T11:05:42Z</time>
      </trkpt>
      <trkpt lat="43.60318" lon="6.31937">
        <ele>707</ele>
        <time>2022-12-11T11:05:43Z</time>
      </trkpt>
      <trkpt lat="43.60318" lon="6.31938">
        <ele>707</ele>
        <time>2022-12-11T11:05:44Z</time>
      </trkpt>
      <trkpt lat="43.60319" lon="6.31938">
        <ele>707</ele>
        <time>2022-12-11T11:05:45Z</time>
      </trkpt>
      <trkpt lat="43.6032" lon="6.31939">
        <ele>707</ele>
        <time>2022-12-11T11:05:46Z</time>
      </trkpt>
      <trkpt lat="43.60321" lon="6.31939">
        <ele>707</ele>
        <time>2022-12-11T11:05:47Z</time>
      </trkpt>
      <trkpt lat="43.60322" lon="6.31939">
        <ele>707</ele>
        <time>2022-12-11T11:05:48Z</time>
      </trkpt>
      <trkpt lat="43.60323" lon="6.3194">
        <ele>708</ele>
        <time>2022-12-11T11:05:49Z</time>
      </trkpt>
      <trkpt lat="43.60324" lon="6.3194">
        <ele>708</ele>
        <time>2022-12-11T11:05:50Z</time>
      </trkpt>
      <trkpt lat="43.60325" lon="6.3194">
        <ele>708</ele>
        <time>2022-12-11T11:05:51Z</time>
      </trkpt>
      <trkpt lat="43.60326" lon="6.31941">
        <ele>708</ele>
        <time>2022-12-11T11:05:52Z</time>
      </trkpt>
      <trkpt lat="43.60327" lon="6.31941">
        <ele>708</ele>
        <time>2022-12-11T11:05:53Z</time>
      </trkpt>
      <trkpt lat="43.60327" lon="6.31942">
        <ele>708</ele>
        <time>2022-12-11T11:05:54Z</time>
      </trkpt>
      <trkpt lat="43.60328" lon="6.31943">
        <ele>708</ele>
        <time>2022-12-11T11:05:55Z</time>
      </trkpt>
      <trkpt lat="43.60328" lon="6.31944">
        <ele>708</ele>
        <time>2022-12-11T11:05:56Z</time>
      </trkpt>
      <trkpt lat="43.60329" lon="6.31945">
        <ele>708</ele>
        <time>2022-12-11T11:05:57Z</time>
      </trkpt>
      <trkpt lat="43.6033" lon="6.31946">
        <ele>708</ele>
        <time>2022-12-11T11:05:58Z</time>
      </trkpt>
      <trkpt lat="43.60331" lon="6.31947">
        <ele>708</ele>
        <time>2022-12-11T11:05:59Z</time>
      </trkpt>
      <trkpt lat="43.60332" lon="6.31947">
        <ele>709</ele>
        <time>2022-12-11T11:06:00Z</time>
      </trkpt>
      <trkpt lat="43.60333" lon="6.31949">
        <ele>709</ele>
        <time>2022-12-11T11:06:01Z</time>
      </trkpt>
      <trkpt lat="43.60334" lon="6.31949">
        <ele>709</ele>
        <time>2022-12-11T11:06:02Z</time>
      </trkpt>
      <trkpt lat="43.60335" lon="6.3195">
        <ele>709</ele>
        <time>2022-12-11T11:06:03Z</time>
      </trkpt>
      <trkpt lat="43.60336" lon="6.31951">
        <ele>709</ele>
        <time>2022-12-11T11:06:04Z</time>
      </trkpt>
      <trkpt lat="43.60337" lon="6.31952">
        <ele>709</ele>
        <time>2022-12-11T11:06:05Z</time>
      </trkpt>
      <trkpt lat="43.60338" lon="6.31952">
        <ele>709</ele>
        <time>2022-12-11T11:06:06Z</time>
      </trkpt>
      <trkpt lat="43.6034" lon="6.31953">
        <ele>709</ele>
        <time>2022-12-11T11:06:07Z</time>
      </trkpt>
      <trkpt lat="43.60341" lon="6.31953">
        <ele>709</ele>
        <time>2022-12-11T11:06:08Z</time>
      </trkpt>
      <trkpt lat="43.60342" lon="6.31954">
        <ele>710</ele>
        <time>2022-12-11T11:06:09Z</time>
      </trkpt>
      <trkpt lat="43.60343" lon="6.31954">
        <ele>710</ele>
        <time>2022-12-11T11:06:10Z</time>
      </trkpt>
      <trkpt lat="43.60343" lon="6.31954">
        <ele>710</ele>
        <time>2022-12-11T11:06:11Z</time>
      </trkpt>
      <trkpt lat="43.60344" lon="6.31955">
        <ele>710</ele>
        <time>2022-12-11T11:06:12Z</time>
      </trkpt>
      <trkpt lat="43.60345" lon="6.31955">
        <ele>710</ele>
        <time>2022-12-11T11:06:13Z</time>
      </trkpt>
      <trkpt lat="43.60345" lon="6.31956">
        <ele>710</ele>
        <time>2022-12-11T11:06:14Z</time>
      </trkpt>
      <trkpt lat="43.60346" lon="6.31956">
        <ele>710</ele>
        <time>2022-12-11T11:06:15Z</time>
      </trkpt>
      <trkpt lat="43.60347" lon="6.31956">
        <ele>710</ele>
        <time>2022-12-11T11:06:16Z</time>
      </trkpt>
      <trkpt lat="43.60348" lon="6.31957">
        <ele>710</ele>
        <time>2022-12-11T11:06:17Z</time>
      </trkpt>
      <trkpt lat="43.60349" lon="6.31957">
        <ele>710</ele>
        <time>2022-12-11T11:06:18Z</time>
      </trkpt>
      <trkpt lat="43.6035" lon="6.31958">
        <ele>710</ele>
        <time>2022-12-11T11:06:19Z</time>
      </trkpt>
      <trkpt lat="43.60351" lon="6.31958">
        <ele>711</ele>
        <time>2022-12-11T11:06:20Z</time>
      </trkpt>
      <trkpt lat="43.60352" lon="6.31959">
        <ele>711</ele>
        <time>2022-12-11T11:06:21Z</time>
      </trkpt>
      <trkpt lat="43.60353" lon="6.31959">
        <ele>712</ele>
        <time>2022-12-11T11:06:22Z</time>
      </trkpt>
      <trkpt lat="43.60354" lon="6.3196">
        <ele>712</ele>
        <time>2022-12-11T11:06:23Z</time>
      </trkpt>
      <trkpt lat="43.60355" lon="6.3196">
        <ele>712</ele>
        <time>2022-12-11T11:06:24Z</time>
      </trkpt>
      <trkpt lat="43.60356" lon="6.31961">
        <ele>713</ele>
        <time>2022-12-11T11:06:25Z</time>
      </trkpt>
      <trkpt lat="43.60357" lon="6.31961">
        <ele>713</ele>
        <time>2022-12-11T11:06:26Z</time>
      </trkpt>
      <trkpt lat="43.60358" lon="6.31962">
        <ele>713</ele>
        <time>2022-12-11T11:06:27Z</time>
      </trkpt>
      <trkpt lat="43.60359" lon="6.31962">
        <ele>713</ele>
        <time>2022-12-11T11:06:28Z</time>
      </trkpt>
      <trkpt lat="43.6036" lon="6.31963">
        <ele>713</ele>
        <time>2022-12-11T11:06:29Z</time>
      </trkpt>
      <trkpt lat="43.60361" lon="6.31964">
        <ele>713</ele>
        <time>2022-12-11T11:06:30Z</time>
      </trkpt>
      <trkpt lat="43.60363" lon="6.31965">
        <ele>713</ele>
        <time>2022-12-11T11:06:31Z</time>
      </trkpt>
      <trkpt lat="43.60364" lon="6.31966">
        <ele>712</ele>
        <time>2022-12-11T11:06:32Z</time>
      </trkpt>
      <trkpt lat="43.60365" lon="6.31967">
        <ele>712</ele>
        <time>2022-12-11T11:06:33Z</time>
      </trkpt>
      <trkpt lat="43.60366" lon="6.31968">
        <ele>711</ele>
        <time>2022-12-11T11:06:34Z</time>
      </trkpt>
      <trkpt lat="43.60366" lon="6.31969">
        <ele>711</ele>
        <time>2022-12-11T11:06:35Z</time>
      </trkpt>
      <trkpt lat="43.60367" lon="6.3197">
        <ele>710</ele>
        <time>2022-12-11T11:06:36Z</time>
      </trkpt>
      <trkpt lat="43.60368" lon="6.31971">
        <ele>710</ele>
        <time>2022-12-11T11:06:37Z</time>
      </trkpt>
      <trkpt lat="43.60369" lon="6.31972">
        <ele>710</ele>
        <time>2022-12-11T11:06:38Z</time>
      </trkpt>
      <trkpt lat="43.60369" lon="6.31973">
        <ele>708</ele>
        <time>2022-12-11T11:06:39Z</time>
      </trkpt>
      <trkpt lat="43.6037" lon="6.31974">
        <ele>707</ele>
        <time>2022-12-11T11:06:40Z</time>
      </trkpt>
      <trkpt lat="43.60371" lon="6.31975">
        <ele>707</ele>
        <time>2022-12-11T11:06:41Z</time>
      </trkpt>
      <trkpt lat="43.60372" lon="6.31976">
        <ele>706</ele>
        <time>2022-12-11T11:06:42Z</time>
      </trkpt>
      <trkpt lat="43.60373" lon="6.31977">
        <ele>706</ele>
        <time>2022-12-11T11:06:43Z</time>
      </trkpt>
      <trkpt lat="43.60373" lon="6.31978">
        <ele>706</ele>
        <time>2022-12-11T11:06:44Z</time>
      </trkpt>
      <trkpt lat="43.60374" lon="6.31979">
        <ele>706</ele>
        <time>2022-12-11T11:06:45Z</time>
      </trkpt>
      <trkpt lat="43.60375" lon="6.31979">
        <ele>706</ele>
        <time>2022-12-11T11:06:46Z</time>
      </trkpt>
      <trkpt lat="43.60376" lon="6.3198">
        <ele>706</ele>
        <time>2022-12-11T11:06:47Z</time>
      </trkpt>
      <trkpt lat="43.60377" lon="6.31982">
        <ele>705</ele>
        <time>2022-12-11T11:06:48Z</time>
      </trkpt>
      <trkpt lat="43.60378" lon="6.31983">
        <ele>704</ele>
        <time>2022-12-11T11:06:49Z</time>
      </trkpt>
      <trkpt lat="43.60378" lon="6.31984">
        <ele>704</ele>
        <time>2022-12-11T11:06:50Z</time>
      </trkpt>
      <trkpt lat="43.60379" lon="6.31985">
        <ele>704</ele>
        <time>2022-12-11T11:06:51Z</time>
      </trkpt>
      <trkpt lat="43.6038" lon="6.31986">
        <ele>704</ele>
        <time>2022-12-11T11:06:52Z</time>
      </trkpt>
      <trkpt lat="43.60381" lon="6.31986">
        <ele>704</ele>
        <time>2022-12-11T11:06:53Z</time>
      </trkpt>
      <trkpt lat="43.60382" lon="6.31987">
        <ele>704</ele>
        <time>2022-12-11T11:06:54Z</time>
      </trkpt>
      <trkpt lat="43.60383" lon="6.31987">
        <ele>704</ele>
        <time>2022-12-11T11:06:55Z</time>
      </trkpt>
      <trkpt lat="43.60384" lon="6.31987">
        <ele>704</ele>
        <time>2022-12-11T11:06:56Z</time>
      </trkpt>
      <trkpt lat="43.60385" lon="6.31987">
        <ele>704</ele>
        <time>2022-12-11T11:06:57Z</time>
      </trkpt>
      <trkpt lat="43.60386" lon="6.31987">
        <ele>704</ele>
        <time>2022-12-11T11:06:58Z</time>
      </trkpt>
      <trkpt lat="43.60387" lon="6.31988">
        <ele>704</ele>
        <time>2022-12-11T11:06:59Z</time>
      </trkpt>
      <trkpt lat="43.60387" lon="6.31988">
        <ele>705</ele>
        <time>2022-12-11T11:07:00Z</time>
      </trkpt>
      <trkpt lat="43.60388" lon="6.31988">
        <ele>705</ele>
        <time>2022-12-11T11:07:01Z</time>
      </trkpt>
      <trkpt lat="43.60389" lon="6.31987">
        <ele>705</ele>
        <time>2022-12-11T11:07:02Z</time>
      </trkpt>
      <trkpt lat="43.6039" lon="6.31987">
        <ele>705</ele>
        <time>2022-12-11T11:07:03Z</time>
      </trkpt>
      <trkpt lat="43.60391" lon="6.31987">
        <ele>705</ele>
        <time>2022-12-11T11:07:04Z</time>
      </trkpt>
      <trkpt lat="43.60392" lon="6.31986">
        <ele>706</ele>
        <time>2022-12-11T11:07:05Z</time>
      </trkpt>
      <trkpt lat="43.60393" lon="6.31985">
        <ele>706</ele>
        <time>2022-12-11T11:07:06Z</time>
      </trkpt>
      <trkpt lat="43.60394" lon="6.31985">
        <ele>707</ele>
        <time>2022-12-11T11:07:07Z</time>
      </trkpt>
      <trkpt lat="43.60395" lon="6.31984">
        <ele>707</ele>
        <time>2022-12-11T11:07:08Z</time>
      </trkpt>
      <trkpt lat="43.60395" lon="6.31983">
        <ele>707</ele>
        <time>2022-12-11T11:07:09Z</time>
      </trkpt>
      <trkpt lat="43.60396" lon="6.31981">
        <ele>707</ele>
        <time>2022-12-11T11:07:10Z</time>
      </trkpt>
      <trkpt lat="43.60397" lon="6.3198">
        <ele>707</ele>
        <time>2022-12-11T11:07:11Z</time>
      </trkpt>
      <trkpt lat="43.60398" lon="6.3198">
        <ele>707</ele>
        <time>2022-12-11T11:07:12Z</time>
      </trkpt>
      <trkpt lat="43.60399" lon="6.3198">
        <ele>707</ele>
        <time>2022-12-11T11:07:13Z</time>
      </trkpt>
      <trkpt lat="43.604" lon="6.3198">
        <ele>707</ele>
        <time>2022-12-11T11:07:14Z</time>
      </trkpt>
      <trkpt lat="43.60401" lon="6.31981">
        <ele>707</ele>
        <time>2022-12-11T11:07:15Z</time>
      </trkpt>
      <trkpt lat="43.60401" lon="6.31982">
        <ele>707</ele>
        <time>2022-12-11T11:07:16Z</time>
      </trkpt>
      <trkpt lat="43.60402" lon="6.31982">
        <ele>707</ele>
        <time>2022-12-11T11:07:17Z</time>
      </trkpt>
      <trkpt lat="43.60402" lon="6.31983">
        <ele>707</ele>
        <time>2022-12-11T11:07:18Z</time>
      </trkpt>
      <trkpt lat="43.60403" lon="6.31983">
        <ele>707</ele>
        <time>2022-12-11T11:07:19Z</time>
      </trkpt>
      <trkpt lat="43.60403" lon="6.31983">
        <ele>707</ele>
        <time>2022-12-11T11:07:20Z</time>
      </trkpt>
      <trkpt lat="43.60403" lon="6.31983">
        <ele>707</ele>
        <time>2022-12-11T11:07:21Z</time>
      </trkpt>
      <trkpt lat="43.60403" lon="6.31983">
        <ele>706</ele>
        <time>2022-12-11T11:07:22Z</time>
      </trkpt>
      <trkpt lat="43.60402" lon="6.31982">
        <ele>706</ele>
        <time>2022-12-11T11:07:23Z</time>
      </trkpt>
      <trkpt lat="43.60402" lon="6.3198">
        <ele>706</ele>
        <time>2022-12-11T11:07:24Z</time>
      </trkpt>
      <trkpt lat="43.60401" lon="6.31977">
        <ele>706</ele>
        <time>2022-12-11T11:07:25Z</time>
      </trkpt>
      <trkpt lat="43.60401" lon="6.31975">
        <ele>706</ele>
        <time>2022-12-11T11:07:26Z</time>
      </trkpt>
      <trkpt lat="43.60402" lon="6.31974">
        <ele>706</ele>
        <time>2022-12-11T11:07:27Z</time>
      </trkpt>
      <trkpt lat="43.60402" lon="6.31973">
        <ele>706</ele>
        <time>2022-12-11T11:07:28Z</time>
      </trkpt>
      <trkpt lat="43.60403" lon="6.31972">
        <ele>706</ele>
        <time>2022-12-11T11:07:29Z</time>
      </trkpt>
      <trkpt lat="43.60403" lon="6.31971">
        <ele>705</ele>
        <time>2022-12-11T11:07:30Z</time>
      </trkpt>
      <trkpt lat="43.60404" lon="6.3197">
        <ele>705</ele>
        <time>2022-12-11T11:07:31Z</time>
      </trkpt>
      <trkpt lat="43.60404" lon="6.31969">
        <ele>705</ele>
        <time>2022-12-11T11:07:32Z</time>
      </trkpt>
      <trkpt lat="43.60404" lon="6.31968">
        <ele>705</ele>
        <time>2022-12-11T11:07:33Z</time>
      </trkpt>
      <trkpt lat="43.60405" lon="6.31967">
        <ele>705</ele>
        <time>2022-12-11T11:07:34Z</time>
      </trkpt>
      <trkpt lat="43.60405" lon="6.31966">
        <ele>704</ele>
        <time>2022-12-11T11:07:35Z</time>
      </trkpt>
      <trkpt lat="43.60406" lon="6.31965">
        <ele>704</ele>
        <time>2022-12-11T11:07:36Z</time>
      </trkpt>
      <trkpt lat="43.60407" lon="6.31963">
        <ele>704</ele>
        <time>2022-12-11T11:07:37Z</time>
      </trkpt>
      <trkpt lat="43.60408" lon="6.31962">
        <ele>704</ele>
        <time>2022-12-11T11:07:38Z</time>
      </trkpt>
      <trkpt lat="43.60408" lon="6.31961">
        <ele>703</ele>
        <time>2022-12-11T11:07:39Z</time>
      </trkpt>
      <trkpt lat="43.60409" lon="6.3196">
        <ele>702</ele>
        <time>2022-12-11T11:07:40Z</time>
      </trkpt>
      <trkpt lat="43.6041" lon="6.31958">
        <ele>702</ele>
        <time>2022-12-11T11:07:41Z</time>
      </trkpt>
      <trkpt lat="43.60411" lon="6.31957">
        <ele>702</ele>
        <time>2022-12-11T11:07:42Z</time>
      </trkpt>
      <trkpt lat="43.60412" lon="6.31955">
        <ele>702</ele>
        <time>2022-12-11T11:07:43Z</time>
      </trkpt>
      <trkpt lat="43.60413" lon="6.31954">
        <ele>702</ele>
        <time>2022-12-11T11:07:44Z</time>
      </trkpt>
      <trkpt lat="43.60413" lon="6.31953">
        <ele>703</ele>
        <time>2022-12-11T11:07:45Z</time>
      </trkpt>
      <trkpt lat="43.60414" lon="6.31952">
        <ele>703</ele>
        <time>2022-12-11T11:07:46Z</time>
      </trkpt>
      <trkpt lat="43.60414" lon="6.31952">
        <ele>703</ele>
        <time>2022-12-11T11:07:47Z</time>
      </trkpt>
      <trkpt lat="43.60415" lon="6.31951">
        <ele>703</ele>
        <time>2022-12-11T11:07:48Z</time>
      </trkpt>
      <trkpt lat="43.60415" lon="6.31951">
        <ele>703</ele>
        <time>2022-12-11T11:07:49Z</time>
      </trkpt>
      <trkpt lat="43.60415" lon="6.31951">
        <ele>703</ele>
        <time>2022-12-11T11:07:50Z</time>
      </trkpt>
      <trkpt lat="43.60416" lon="6.31951">
        <ele>703</ele>
        <time>2022-12-11T11:07:51Z</time>
      </trkpt>
      <trkpt lat="43.60417" lon="6.3195">
        <ele>703</ele>
        <time>2022-12-11T11:07:52Z</time>
      </trkpt>
      <trkpt lat="43.60418" lon="6.31949">
        <ele>703</ele>
        <time>2022-12-11T11:07:53Z</time>
      </trkpt>
      <trkpt lat="43.60419" lon="6.31949">
        <ele>703</ele>
        <time>2022-12-11T11:07:54Z</time>
      </trkpt>
      <trkpt lat="43.60419" lon="6.31949">
        <ele>703</ele>
        <time>2022-12-11T11:07:55Z</time>
      </trkpt>
      <trkpt lat="43.60419" lon="6.31949">
        <ele>703</ele>
        <time>2022-12-11T11:07:56Z</time>
      </trkpt>
      <trkpt lat="43.60419" lon="6.31948">
        <ele>703</ele>
        <time>2022-12-11T11:07:57Z</time>
      </trkpt>
      <trkpt lat="43.6042" lon="6.31948">
        <ele>703</ele>
        <time>2022-12-11T11:07:58Z</time>
      </trkpt>
      <trkpt lat="43.6042" lon="6.31948">
        <ele>703</ele>
        <time>2022-12-11T11:07:59Z</time>
      </trkpt>
      <trkpt lat="43.6042" lon="6.31948">
        <ele>704</ele>
        <time>2022-12-11T11:08:00Z</time>
      </trkpt>
      <trkpt lat="43.6042" lon="6.31948">
        <ele>704</ele>
        <time>2022-12-11T11:08:01Z</time>
      </trkpt>
      <trkpt lat="43.6042" lon="6.31947">
        <ele>704</ele>
        <time>2022-12-11T11:08:02Z</time>
      </trkpt>
      <trkpt lat="43.6042" lon="6.31947">
        <ele>704</ele>
        <time>2022-12-11T11:08:03Z</time>
      </trkpt>
      <trkpt lat="43.6042" lon="6.31947">
        <ele>704</ele>
        <time>2022-12-11T11:08:04Z</time>
      </trkpt>
      <trkpt lat="43.60421" lon="6.31946">
        <ele>704</ele>
        <time>2022-12-11T11:08:05Z</time>
      </trkpt>
      <trkpt lat="43.60421" lon="6.31945">
        <ele>704</ele>
        <time>2022-12-11T11:08:06Z</time>
      </trkpt>
      <trkpt lat="43.60421" lon="6.31944">
        <ele>704</ele>
        <time>2022-12-11T11:08:07Z</time>
      </trkpt>
      <trkpt lat="43.60421" lon="6.31944">
        <ele>705</ele>
        <time>2022-12-11T11:08:08Z</time>
      </trkpt>
      <trkpt lat="43.60421" lon="6.31943">
        <ele>705</ele>
        <time>2022-12-11T11:08:09Z</time>
      </trkpt>
      <trkpt lat="43.6042" lon="6.31942">
        <ele>705</ele>
        <time>2022-12-11T11:08:10Z</time>
      </trkpt>
      <trkpt lat="43.6042" lon="6.31942">
        <ele>705</ele>
        <time>2022-12-11T11:08:11Z</time>
      </trkpt>
      <trkpt lat="43.60419" lon="6.31941">
        <ele>705</ele>
        <time>2022-12-11T11:08:12Z</time>
      </trkpt>
      <trkpt lat="43.60419" lon="6.31941">
        <ele>705</ele>
        <time>2022-12-11T11:08:13Z</time>
      </trkpt>
      <trkpt lat="43.60419" lon="6.31941">
        <ele>705</ele>
        <time>2022-12-11T11:08:14Z</time>
      </trkpt>
      <trkpt lat="43.60419" lon="6.31941">
        <ele>705</ele>
        <time>2022-12-11T11:08:15Z</time>
      </trkpt>
      <trkpt lat="43.60419" lon="6.31941">
        <ele>705</ele>
        <time>2022-12-11T11:08:16Z</time>
      </trkpt>
      <trkpt lat="43.60418" lon="6.31941">
        <ele>705</ele>
        <time>2022-12-11T11:08:17Z</time>
      </trkpt>
      <trkpt lat="43.60417" lon="6.31939">
        <ele>705</ele>
        <time>2022-12-11T11:08:18Z</time>
      </trkpt>
      <trkpt lat="43.60416" lon="6.31938">
        <ele>705</ele>
        <time>2022-12-11T11:08:19Z</time>
      </trkpt>
      <trkpt lat="43.60416" lon="6.31938">
        <ele>705</ele>
        <time>2022-12-11T11:08:20Z</time>
      </trkpt>
      <trkpt lat="43.60415" lon="6.31938">
        <ele>705</ele>
        <time>2022-12-11T11:08:21Z</time>
      </trkpt>
      <trkpt lat="43.60415" lon="6.31937">
        <ele>705</ele>
        <time>2022-12-11T11:08:22Z</time>
      </trkpt>
      <trkpt lat="43.60415" lon="6.31937">
        <ele>705</ele>
        <time>2022-12-11T11:08:23Z</time>
      </trkpt>
      <trkpt lat="43.60414" lon="6.31937">
        <ele>705</ele>
        <time>2022-12-11T11:08:24Z</time>
      </trkpt>
      <trkpt lat="43.60413" lon="6.31935">
        <ele>705</ele>
        <time>2022-12-11T11:08:25Z</time>
      </trkpt>
      <trkpt lat="43.60412" lon="6.31935">
        <ele>705</ele>
        <time>2022-12-11T11:08:26Z</time>
      </trkpt>
      <trkpt lat="43.60412" lon="6.31934">
        <ele>705</ele>
        <time>2022-12-11T11:08:27Z</time>
      </trkpt>
      <trkpt lat="43.60412" lon="6.31934">
        <ele>705</ele>
        <time>2022-12-11T11:08:28Z</time>
      </trkpt>
      <trkpt lat="43.60412" lon="6.31934">
        <ele>705</ele>
        <time>2022-12-11T11:08:29Z</time>
      </trkpt>
      <trkpt lat="43.60411" lon="6.31933">
        <ele>705</ele>
        <time>2022-12-11T11:08:30Z</time>
      </trkpt>
      <trkpt lat="43.6041" lon="6.31932">
        <ele>705</ele>
        <time>2022-12-11T11:08:31Z</time>
      </trkpt>
      <trkpt lat="43.6041" lon="6.31931">
        <ele>705</ele>
        <time>2022-12-11T11:08:32Z</time>
      </trkpt>
      <trkpt lat="43.60409" lon="6.31931">
        <ele>705</ele>
        <time>2022-12-11T11:08:33Z</time>
      </trkpt>
      <trkpt lat="43.60409" lon="6.31931">
        <ele>705</ele>
        <time>2022-12-11T11:08:34Z</time>
      </trkpt>
      <trkpt lat="43.60409" lon="6.31931">
        <ele>705</ele>
        <time>2022-12-11T11:08:35Z</time>
      </trkpt>
      <trkpt lat="43.60408" lon="6.3193">
        <ele>705</ele>
        <time>2022-12-11T11:08:36Z</time>
      </trkpt>
      <trkpt lat="43.60408" lon="6.31929">
        <ele>705</ele>
        <time>2022-12-11T11:08:37Z</time>
      </trkpt>
      <trkpt lat="43.60407" lon="6.31929">
        <ele>705</ele>
        <time>2022-12-11T11:08:38Z</time>
      </trkpt>
      <trkpt lat="43.60407" lon="6.31928">
        <ele>705</ele>
        <time>2022-12-11T11:08:39Z</time>
      </trkpt>
      <trkpt lat="43.60407" lon="6.31928">
        <ele>705</ele>
        <time>2022-12-11T11:08:40Z</time>
      </trkpt>
      <trkpt lat="43.60406" lon="6.31928">
        <ele>705</ele>
        <time>2022-12-11T11:08:41Z</time>
      </trkpt>
      <trkpt lat="43.60406" lon="6.31927">
        <ele>705</ele>
        <time>2022-12-11T11:08:42Z</time>
      </trkpt>
      <trkpt lat="43.60406" lon="6.31927">
        <ele>705</ele>
        <time>2022-12-11T11:08:43Z</time>
      </trkpt>
      <trkpt lat="43.60406" lon="6.31927">
        <ele>705</ele>
        <time>2022-12-11T11:08:44Z</time>
      </trkpt>
      <trkpt lat="43.60407" lon="6.31927">
        <ele>705</ele>
        <time>2022-12-11T11:08:45Z</time>
      </trkpt>
      <trkpt lat="43.60407" lon="6.31928">
        <ele>705</ele>
        <time>2022-12-11T11:08:46Z</time>
      </trkpt>
      <trkpt lat="43.60408" lon="6.31928">
        <ele>704</ele>
        <time>2022-12-11T11:08:47Z</time>
      </trkpt>
      <trkpt lat="43.60408" lon="6.31928">
        <ele>704</ele>
        <time>2022-12-11T11:08:48Z</time>
      </trkpt>
      <trkpt lat="43.60408" lon="6.31928">
        <ele>704</ele>
        <time>2022-12-11T11:08:49Z</time>
      </trkpt>
      <trkpt lat="43.60408" lon="6.31929">
        <ele>704</ele>
        <time>2022-12-11T11:08:50Z</time>
      </trkpt>
      <trkpt lat="43.60408" lon="6.31929">
        <ele>704</ele>
        <time>2022-12-11T11:08:51Z</time>
      </trkpt>
      <trkpt lat="43.60408" lon="6.3193">
        <ele>704</ele>
        <time>2022-12-11T11:08:52Z</time>
      </trkpt>
      <trkpt lat="43.60409" lon="6.3193">
        <ele>704</ele>
        <time>2022-12-11T11:08:53Z</time>
      </trkpt>
      <trkpt lat="43.60409" lon="6.31931">
        <ele>704</ele>
        <time>2022-12-11T11:08:54Z</time>
      </trkpt>
      <trkpt lat="43.60411" lon="6.31932">
        <ele>704</ele>
        <time>2022-12-11T11:08:55Z</time>
      </trkpt>
      <trkpt lat="43.60412" lon="6.31933">
        <ele>704</ele>
        <time>2022-12-11T11:08:56Z</time>
      </trkpt>
      <trkpt lat="43.60412" lon="6.31934">
        <ele>704</ele>
        <time>2022-12-11T11:08:57Z</time>
      </trkpt>
      <trkpt lat="43.60413" lon="6.31935">
        <ele>704</ele>
        <time>2022-12-11T11:08:58Z</time>
      </trkpt>
      <trkpt lat="43.60414" lon="6.31935">
        <ele>704</ele>
        <time>2022-12-11T11:08:59Z</time>
      </trkpt>
      <trkpt lat="43.60414" lon="6.31936">
        <ele>705</ele>
        <time>2022-12-11T11:09:00Z</time>
      </trkpt>
      <trkpt lat="43.60415" lon="6.31937">
        <ele>705</ele>
        <time>2022-12-11T11:09:01Z</time>
      </trkpt>
      <trkpt lat="43.60415" lon="6.31937">
        <ele>705</ele>
        <time>2022-12-11T11:09:02Z</time>
      </trkpt>
      <trkpt lat="43.60415" lon="6.31938">
        <ele>705</ele>
        <time>2022-12-11T11:09:03Z</time>
      </trkpt>
      <trkpt lat="43.60416" lon="6.31938">
        <ele>705</ele>
        <time>2022-12-11T11:09:04Z</time>
      </trkpt>
      <trkpt lat="43.60416" lon="6.31939">
        <ele>705</ele>
        <time>2022-12-11T11:09:05Z</time>
      </trkpt>
      <trkpt lat="43.60417" lon="6.31939">
        <ele>705</ele>
        <time>2022-12-11T11:09:06Z</time>
      </trkpt>
      <trkpt lat="43.60418" lon="6.31939">
        <ele>705</ele>
        <time>2022-12-11T11:09:07Z</time>
      </trkpt>
      <trkpt lat="43.60419" lon="6.3194">
        <ele>705</ele>
        <time>2022-12-11T11:09:08Z</time>
      </trkpt>
      <trkpt lat="43.60421" lon="6.31941">
        <ele>705</ele>
        <time>2022-12-11T11:09:09Z</time>
      </trkpt>
      <trkpt lat="43.60422" lon="6.31941">
        <ele>705</ele>
        <time>2022-12-11T11:09:10Z</time>
      </trkpt>
      <trkpt lat="43.60423" lon="6.31942">
        <ele>705</ele>
        <time>2022-12-11T11:09:11Z</time>
      </trkpt>
      <trkpt lat="43.60424" lon="6.31942">
        <ele>705</ele>
        <time>2022-12-11T11:09:12Z</time>
      </trkpt>
      <trkpt lat="43.60426" lon="6.31941">
        <ele>705</ele>
        <time>2022-12-11T11:09:13Z</time>
      </trkpt>
      <trkpt lat="43.60428" lon="6.31941">
        <ele>705</ele>
        <time>2022-12-11T11:09:14Z</time>
      </trkpt>
      <trkpt lat="43.60429" lon="6.3194">
        <ele>705</ele>
        <time>2022-12-11T11:09:15Z</time>
      </trkpt>
      <trkpt lat="43.6043" lon="6.31939">
        <ele>705</ele>
        <time>2022-12-11T11:09:16Z</time>
      </trkpt>
      <trkpt lat="43.60431" lon="6.31939">
        <ele>706</ele>
        <time>2022-12-11T11:09:17Z</time>
      </trkpt>
      <trkpt lat="43.60432" lon="6.31939">
        <ele>706</ele>
        <time>2022-12-11T11:09:18Z</time>
      </trkpt>
      <trkpt lat="43.60433" lon="6.31938">
        <ele>706</ele>
        <time>2022-12-11T11:09:19Z</time>
      </trkpt>
      <trkpt lat="43.60434" lon="6.31937">
        <ele>706</ele>
        <time>2022-12-11T11:09:20Z</time>
      </trkpt>
      <trkpt lat="43.60435" lon="6.31936">
        <ele>706</ele>
        <time>2022-12-11T11:09:21Z</time>
      </trkpt>
      <trkpt lat="43.60436" lon="6.31936">
        <ele>706</ele>
        <time>2022-12-11T11:09:22Z</time>
      </trkpt>
      <trkpt lat="43.60437" lon="6.31935">
        <ele>706</ele>
        <time>2022-12-11T11:09:23Z</time>
      </trkpt>
      <trkpt lat="43.60438" lon="6.31934">
        <ele>706</ele>
        <time>2022-12-11T11:09:24Z</time>
      </trkpt>
      <trkpt lat="43.60439" lon="6.31933">
        <ele>706</ele>
        <time>2022-12-11T11:09:25Z</time>
      </trkpt>
      <trkpt lat="43.60439" lon="6.31932">
        <ele>706</ele>
        <time>2022-12-11T11:09:26Z</time>
      </trkpt>
      <trkpt lat="43.6044" lon="6.31932">
        <ele>706</ele>
        <time>2022-12-11T11:09:27Z</time>
      </trkpt>
      <trkpt lat="43.60441" lon="6.31931">
        <ele>707</ele>
        <time>2022-12-11T11:09:28Z</time>
      </trkpt>
      <trkpt lat="43.60442" lon="6.31931">
        <ele>707</ele>
        <time>2022-12-11T11:09:29Z</time>
      </trkpt>
      <trkpt lat="43.60443" lon="6.3193">
        <ele>707</ele>
        <time>2022-12-11T11:09:30Z</time>
      </trkpt>
      <trkpt lat="43.60444" lon="6.31929">
        <ele>707</ele>
        <time>2022-12-11T11:09:31Z</time>
      </trkpt>
      <trkpt lat="43.60445" lon="6.31928">
        <ele>707</ele>
        <time>2022-12-11T11:09:32Z</time>
      </trkpt>
      <trkpt lat="43.60446" lon="6.31927">
        <ele>707</ele>
        <time>2022-12-11T11:09:33Z</time>
      </trkpt>
      <trkpt lat="43.60447" lon="6.31926">
        <ele>708</ele>
        <time>2022-12-11T11:09:34Z</time>
      </trkpt>
      <trkpt lat="43.60448" lon="6.31926">
        <ele>708</ele>
        <time>2022-12-11T11:09:35Z</time>
      </trkpt>
      <trkpt lat="43.6045" lon="6.31925">
        <ele>708</ele>
        <time>2022-12-11T11:09:36Z</time>
      </trkpt>
      <trkpt lat="43.60451" lon="6.31924">
        <ele>708</ele>
        <time>2022-12-11T11:09:37Z</time>
      </trkpt>
      <trkpt lat="43.60452" lon="6.31924">
        <ele>708</ele>
        <time>2022-12-11T11:09:38Z</time>
      </trkpt>
      <trkpt lat="43.60452" lon="6.31924">
        <ele>708</ele>
        <time>2022-12-11T11:09:39Z</time>
      </trkpt>
      <trkpt lat="43.60453" lon="6.31924">
        <ele>708</ele>
        <time>2022-12-11T11:09:40Z</time>
      </trkpt>
      <trkpt lat="43.60454" lon="6.31924">
        <ele>708</ele>
        <time>2022-12-11T11:09:41Z</time>
      </trkpt>
      <trkpt lat="43.60455" lon="6.31924">
        <ele>708</ele>
        <time>2022-12-11T11:09:42Z</time>
      </trkpt>
      <trkpt lat="43.60456" lon="6.31924">
        <ele>709</ele>
        <time>2022-12-11T11:09:43Z</time>
      </trkpt>
      <trkpt lat="43.60458" lon="6.31925">
        <ele>709</ele>
        <time>2022-12-11T11:09:44Z</time>
      </trkpt>
      <trkpt lat="43.60458" lon="6.31925">
        <ele>709</ele>
        <time>2022-12-11T11:09:45Z</time>
      </trkpt>
      <trkpt lat="43.60459" lon="6.31925">
        <ele>709</ele>
        <time>2022-12-11T11:09:46Z</time>
      </trkpt>
      <trkpt lat="43.6046" lon="6.31926">
        <ele>709</ele>
        <time>2022-12-11T11:09:47Z</time>
      </trkpt>
      <trkpt lat="43.60461" lon="6.31926">
        <ele>710</ele>
        <time>2022-12-11T11:09:48Z</time>
      </trkpt>
      <trkpt lat="43.60462" lon="6.31926">
        <ele>710</ele>
        <time>2022-12-11T11:09:49Z</time>
      </trkpt>
      <trkpt lat="43.60463" lon="6.31926">
        <ele>710</ele>
        <time>2022-12-11T11:09:50Z</time>
      </trkpt>
      <trkpt lat="43.60464" lon="6.31926">
        <ele>710</ele>
        <time>2022-12-11T11:09:51Z</time>
      </trkpt>
      <trkpt lat="43.60466" lon="6.31926">
        <ele>710</ele>
        <time>2022-12-11T11:09:52Z</time>
      </trkpt>
      <trkpt lat="43.60466" lon="6.31927">
        <ele>710</ele>
        <time>2022-12-11T11:09:53Z</time>
      </trkpt>
      <trkpt lat="43.60467" lon="6.31927">
        <ele>710</ele>
        <time>2022-12-11T11:09:54Z</time>
      </trkpt>
      <trkpt lat="43.60468" lon="6.31927">
        <ele>710</ele>
        <time>2022-12-11T11:09:55Z</time>
      </trkpt>
      <trkpt lat="43.60469" lon="6.31926">
        <ele>710</ele>
        <time>2022-12-11T11:09:56Z</time>
      </trkpt>
      <trkpt lat="43.6047" lon="6.31926">
        <ele>710</ele>
        <time>2022-12-11T11:09:57Z</time>
      </trkpt>
      <trkpt lat="43.60471" lon="6.31925">
        <ele>710</ele>
        <time>2022-12-11T11:09:58Z</time>
      </trkpt>
      <trkpt lat="43.60471" lon="6.31924">
        <ele>709</ele>
        <time>2022-12-11T11:09:59Z</time>
      </trkpt>
      <trkpt lat="43.60472" lon="6.31923">
        <ele>709</ele>
        <time>2022-12-11T11:10:00Z</time>
      </trkpt>
      <trkpt lat="43.60473" lon="6.31923">
        <ele>709</ele>
        <time>2022-12-11T11:10:01Z</time>
      </trkpt>
      <trkpt lat="43.60474" lon="6.31922">
        <ele>709</ele>
        <time>2022-12-11T11:10:02Z</time>
      </trkpt>
      <trkpt lat="43.60474" lon="6.31921">
        <ele>709</ele>
        <time>2022-12-11T11:10:03Z</time>
      </trkpt>
      <trkpt lat="43.60475" lon="6.31921">
        <ele>708</ele>
        <time>2022-12-11T11:10:04Z</time>
      </trkpt>
      <trkpt lat="43.60476" lon="6.3192">
        <ele>708</ele>
        <time>2022-12-11T11:10:05Z</time>
      </trkpt>
      <trkpt lat="43.60477" lon="6.31919">
        <ele>708</ele>
        <time>2022-12-11T11:10:06Z</time>
      </trkpt>
      <trkpt lat="43.60478" lon="6.31918">
        <ele>708</ele>
        <time>2022-12-11T11:10:07Z</time>
      </trkpt>
      <trkpt lat="43.60478" lon="6.31917">
        <ele>708</ele>
        <time>2022-12-11T11:10:08Z</time>
      </trkpt>
      <trkpt lat="43.60479" lon="6.31916">
        <ele>707</ele>
        <time>2022-12-11T11:10:09Z</time>
      </trkpt>
      <trkpt lat="43.6048" lon="6.31915">
        <ele>707</ele>
        <time>2022-12-11T11:10:10Z</time>
      </trkpt>
      <trkpt lat="43.60481" lon="6.31914">
        <ele>706</ele>
        <time>2022-12-11T11:10:11Z</time>
      </trkpt>
      <trkpt lat="43.60481" lon="6.31913">
        <ele>706</ele>
        <time>2022-12-11T11:10:12Z</time>
      </trkpt>
      <trkpt lat="43.60482" lon="6.31912">
        <ele>705</ele>
        <time>2022-12-11T11:10:13Z</time>
      </trkpt>
      <trkpt lat="43.60483" lon="6.31911">
        <ele>705</ele>
        <time>2022-12-11T11:10:14Z</time>
      </trkpt>
      <trkpt lat="43.60483" lon="6.3191">
        <ele>705</ele>
        <time>2022-12-11T11:10:15Z</time>
      </trkpt>
      <trkpt lat="43.60484" lon="6.31909">
        <ele>705</ele>
        <time>2022-12-11T11:10:16Z</time>
      </trkpt>
      <trkpt lat="43.60484" lon="6.31908">
        <ele>705</ele>
        <time>2022-12-11T11:10:17Z</time>
      </trkpt>
      <trkpt lat="43.60485" lon="6.31907">
        <ele>705</ele>
        <time>2022-12-11T11:10:18Z</time>
      </trkpt>
      <trkpt lat="43.60485" lon="6.31906">
        <ele>705</ele>
        <time>2022-12-11T11:10:19Z</time>
      </trkpt>
      <trkpt lat="43.60486" lon="6.31905">
        <ele>705</ele>
        <time>2022-12-11T11:10:20Z</time>
      </trkpt>
      <trkpt lat="43.60486" lon="6.31904">
        <ele>704</ele>
        <time>2022-12-11T11:10:21Z</time>
      </trkpt>
      <trkpt lat="43.60487" lon="6.31903">
        <ele>704</ele>
        <time>2022-12-11T11:10:22Z</time>
      </trkpt>
      <trkpt lat="43.60487" lon="6.31903">
        <ele>704</ele>
        <time>2022-12-11T11:10:23Z</time>
      </trkpt>
      <trkpt lat="43.60488" lon="6.31902">
        <ele>704</ele>
        <time>2022-12-11T11:10:24Z</time>
      </trkpt>
      <trkpt lat="43.60488" lon="6.31901">
        <ele>704</ele>
        <time>2022-12-11T11:10:25Z</time>
      </trkpt>
      <trkpt lat="43.60489" lon="6.319">
        <ele>704</ele>
        <time>2022-12-11T11:10:26Z</time>
      </trkpt>
      <trkpt lat="43.6049" lon="6.31899">
        <ele>704</ele>
        <time>2022-12-11T11:10:27Z</time>
      </trkpt>
      <trkpt lat="43.6049" lon="6.31898">
        <ele>704</ele>
        <time>2022-12-11T11:10:28Z</time>
      </trkpt>
      <trkpt lat="43.6049" lon="6.31897">
        <ele>704</ele>
        <time>2022-12-11T11:10:29Z</time>
      </trkpt>
      <trkpt lat="43.60491" lon="6.31896">
        <ele>704</ele>
        <time>2022-12-11T11:10:30Z</time>
      </trkpt>
      <trkpt lat="43.60491" lon="6.31895">
        <ele>704</ele>
        <time>2022-12-11T11:10:31Z</time>
      </trkpt>
      <trkpt lat="43.60491" lon="6.31894">
        <ele>705</ele>
        <time>2022-12-11T11:10:32Z</time>
      </trkpt>
      <trkpt lat="43.60492" lon="6.31892">
        <ele>706</ele>
        <time>2022-12-11T11:10:33Z</time>
      </trkpt>
      <trkpt lat="43.60492" lon="6.31891">
        <ele>706</ele>
        <time>2022-12-11T11:10:34Z</time>
      </trkpt>
      <trkpt lat="43.60493" lon="6.3189">
        <ele>706</ele>
        <time>2022-12-11T11:10:35Z</time>
      </trkpt>
      <trkpt lat="43.60493" lon="6.31889">
        <ele>706</ele>
        <time>2022-12-11T11:10:36Z</time>
      </trkpt>
      <trkpt lat="43.60494" lon="6.31887">
        <ele>707</ele>
        <time>2022-12-11T11:10:37Z</time>
      </trkpt>
      <trkpt lat="43.60494" lon="6.31886">
        <ele>707</ele>
        <time>2022-12-11T11:10:38Z</time>
      </trkpt>
      <trkpt lat="43.60494" lon="6.31885">
        <ele>707</ele>
        <time>2022-12-11T11:10:39Z</time>
      </trkpt>
      <trkpt lat="43.60495" lon="6.31885">
        <ele>707</ele>
        <time>2022-12-11T11:10:40Z</time>
      </trkpt>
      <trkpt lat="43.60495" lon="6.31886">
        <ele>707</ele>
        <time>2022-12-11T11:10:41Z</time>
      </trkpt>
      <trkpt lat="43.60495" lon="6.31886">
        <ele>707</ele>
        <time>2022-12-11T11:10:42Z</time>
      </trkpt>
      <trkpt lat="43.60496" lon="6.31886">
        <ele>707</ele>
        <time>2022-12-11T11:10:43Z</time>
      </trkpt>
      <trkpt lat="43.60497" lon="6.31887">
        <ele>708</ele>
        <time>2022-12-11T11:10:44Z</time>
      </trkpt>
      <trkpt lat="43.60497" lon="6.31887">
        <ele>708</ele>
        <time>2022-12-11T11:10:45Z</time>
      </trkpt>
      <trkpt lat="43.60497" lon="6.31887">
        <ele>708</ele>
        <time>2022-12-11T11:10:46Z</time>
      </trkpt>
      <trkpt lat="43.60498" lon="6.31887">
        <ele>708</ele>
        <time>2022-12-11T11:10:47Z</time>
      </trkpt>
      <trkpt lat="43.60498" lon="6.31887">
        <ele>708</ele>
        <time>2022-12-11T11:10:48Z</time>
      </trkpt>
      <trkpt lat="43.60498" lon="6.31887">
        <ele>708</ele>
        <time>2022-12-11T11:10:49Z</time>
      </trkpt>
      <trkpt lat="43.60498" lon="6.31887">
        <ele>708</ele>
        <time>2022-12-11T11:10:50Z</time>
      </trkpt>
      <trkpt lat="43.60498" lon="6.31887">
        <ele>708</ele>
        <time>2022-12-11T11:10:51Z</time>
      </trkpt>
      <trkpt lat="43.60498" lon="6.31887">
        <ele>708</ele>
        <time>2022-12-11T11:10:52Z</time>
      </trkpt>
      <trkpt lat="43.60499" lon="6.31887">
        <ele>708</ele>
        <time>2022-12-11T11:10:53Z</time>
      </trkpt>
      <trkpt lat="43.60499" lon="6.31887">
        <ele>708</ele>
        <time>2022-12-11T11:10:54Z</time>
      </trkpt>
      <trkpt lat="43.605" lon="6.31886">
        <ele>708</ele>
        <time>2022-12-11T11:10:55Z</time>
      </trkpt>
      <trkpt lat="43.605" lon="6.31886">
        <ele>708</ele>
        <time>2022-12-11T11:10:56Z</time>
      </trkpt>
      <trkpt lat="43.60501" lon="6.31885">
        <ele>710</ele>
        <time>2022-12-11T11:10:57Z</time>
      </trkpt>
      <trkpt lat="43.60501" lon="6.31885">
        <ele>710</ele>
        <time>2022-12-11T11:10:58Z</time>
      </trkpt>
      <trkpt lat="43.60501" lon="6.31884">
        <ele>710</ele>
        <time>2022-12-11T11:10:59Z</time>
      </trkpt>
      <trkpt lat="43.60501" lon="6.31884">
        <ele>710</ele>
        <time>2022-12-11T11:11:00Z</time>
      </trkpt>
      <trkpt lat="43.60501" lon="6.31884">
        <ele>710</ele>
        <time>2022-12-11T11:11:01Z</time>
      </trkpt>
      <trkpt lat="43.60501" lon="6.31884">
        <ele>710</ele>
        <time>2022-12-11T11:11:02Z</time>
      </trkpt>
      <trkpt lat="43.60501" lon="6.31884">
        <ele>710</ele>
        <time>2022-12-11T11:11:03Z</time>
      </trkpt>
      <trkpt lat="43.60501" lon="6.31884">
        <ele>710</ele>
        <time>2022-12-11T11:11:04Z</time>
      </trkpt>
      <trkpt lat="43.60501" lon="6.31884">
        <ele>710</ele>
        <time>2022-12-11T11:11:05Z</time>
      </trkpt>
      <trkpt lat="43.60501" lon="6.31884">
        <ele>710</ele>
        <time>2022-12-11T11:11:06Z</time>
      </trkpt>
      <trkpt lat="43.60501" lon="6.31884">
        <ele>710</ele>
        <time>2022-12-11T11:11:07Z</time>
      </trkpt>
      <trkpt lat="43.60501" lon="6.31884">
        <ele>710</ele>
        <time>2022-12-11T11:11:08Z</time>
      </trkpt>
      <trkpt lat="43.60501" lon="6.31884">
        <ele>710</ele>
        <time>2022-12-11T11:11:09Z</time>
      </trkpt>
      <trkpt lat="43.60501" lon="6.31884">
        <ele>710</ele>
        <time>2022-12-11T11:11:10Z</time>
      </trkpt>
      <trkpt lat="43.60501" lon="6.31884">
        <ele>710</ele>
        <time>2022-12-11T11:11:11Z</time>
      </trkpt>
      <trkpt lat="43.60501" lon="6.31884">
        <ele>710</ele>
        <time>2022-12-11T11:11:12Z</time>
      </trkpt>
      <trkpt lat="43.60501" lon="6.31884">
        <ele>710</ele>
        <time>2022-12-11T11:11:13Z</time>
      </trkpt>
      <trkpt lat="43.60501" lon="6.31884">
        <ele>710</ele>
        <time>2022-12-11T11:11:14Z</time>
      </trkpt>
      <trkpt lat="43.60501" lon="6.31884">
        <ele>710</ele>
        <time>2022-12-11T11:11:15Z</time>
      </trkpt>
      <trkpt lat="43.60501" lon="6.31884">
        <ele>711</ele>
        <time>2022-12-11T11:11:16Z</time>
      </trkpt>
      <trkpt lat="43.60501" lon="6.31884">
        <ele>711</ele>
        <time>2022-12-11T11:11:17Z</time>
      </trkpt>
      <trkpt lat="43.60501" lon="6.31884">
        <ele>711</ele>
        <time>2022-12-11T11:11:18Z</time>
      </trkpt>
      <trkpt lat="43.60501" lon="6.31884">
        <ele>711</ele>
        <time>2022-12-11T11:11:19Z</time>
      </trkpt>
      <trkpt lat="43.60501" lon="6.31884">
        <ele>711</ele>
        <time>2022-12-11T11:11:20Z</time>
      </trkpt>
      <trkpt lat="43.60501" lon="6.31884">
        <ele>711</ele>
        <time>2022-12-11T11:11:21Z</time>
      </trkpt>
      <trkpt lat="43.60501" lon="6.31884">
        <ele>711</ele>
        <time>2022-12-11T11:11:22Z</time>
      </trkpt>
      <trkpt lat="43.60501" lon="6.31884">
        <ele>711</ele>
        <time>2022-12-11T11:11:23Z</time>
      </trkpt>
      <trkpt lat="43.60501" lon="6.31884">
        <ele>711</ele>
        <time>2022-12-11T11:11:24Z</time>
      </trkpt>
      <trkpt lat="43.60501" lon="6.31884">
        <ele>711</ele>
        <time>2022-12-11T11:11:25Z</time>
      </trkpt>
      <trkpt lat="43.60501" lon="6.31884">
        <ele>711</ele>
        <time>2022-12-11T11:11:26Z</time>
      </trkpt>
      <trkpt lat="43.60501" lon="6.31884">
        <ele>711</ele>
        <time>2022-12-11T11:11:27Z</time>
      </trkpt>
      <trkpt lat="43.60501" lon="6.31884">
        <ele>711</ele>
        <time>2022-12-11T11:11:28Z</time>
      </trkpt>
      <trkpt lat="43.60501" lon="6.31884">
        <ele>711</ele>
        <time>2022-12-11T11:11:29Z</time>
      </trkpt>
      <trkpt lat="43.60501" lon="6.31884">
        <ele>711</ele>
        <time>2022-12-11T11:11:30Z</time>
      </trkpt>
      <trkpt lat="43.60501" lon="6.31884">
        <ele>711</ele>
        <time>2022-12-11T11:11:31Z</time>
      </trkpt>
      <trkpt lat="43.60501" lon="6.31884">
        <ele>711</ele>
        <time>2022-12-11T11:11:32Z</time>
      </trkpt>
      <trkpt lat="43.60501" lon="6.31884">
        <ele>711</ele>
        <time>2022-12-11T11:11:33Z</time>
      </trkpt>
      <trkpt lat="43.60501" lon="6.31884">
        <ele>711</ele>
        <time>2022-12-11T11:11:34Z</time>
      </trkpt>
      <trkpt lat="43.60501" lon="6.31884">
        <ele>711</ele>
        <time>2022-12-11T11:11:35Z</time>
      </trkpt>
      <trkpt lat="43.60501" lon="6.31884">
        <ele>711</ele>
        <time>2022-12-11T11:11:36Z</time>
      </trkpt>
      <trkpt lat="43.60501" lon="6.31884">
        <ele>711</ele>
        <time>2022-12-11T11:11:37Z</time>
      </trkpt>
      <trkpt lat="43.60501" lon="6.31884">
        <ele>711</ele>
        <time>2022-12-11T11:11:38Z</time>
      </trkpt>
      <trkpt lat="43.60501" lon="6.31884">
        <ele>711</ele>
        <time>2022-12-11T11:11:39Z</time>
      </trkpt>
      <trkpt lat="43.60501" lon="6.31884">
        <ele>710</ele>
        <time>2022-12-11T11:11:40Z</time>
      </trkpt>
      <trkpt lat="43.60501" lon="6.31884">
        <ele>710</ele>
        <time>2022-12-11T11:11:41Z</time>
      </trkpt>
      <trkpt lat="43.60501" lon="6.31884">
        <ele>710</ele>
        <time>2022-12-11T11:11:42Z</time>
      </trkpt>
      <trkpt lat="43.60501" lon="6.31884">
        <ele>710</ele>
        <time>2022-12-11T11:11:43Z</time>
      </trkpt>
      <trkpt lat="43.60501" lon="6.31884">
        <ele>710</ele>
        <time>2022-12-11T11:11:44Z</time>
      </trkpt>
      <trkpt lat="43.60501" lon="6.31884">
        <ele>710</ele>
        <time>2022-12-11T11:11:45Z</time>
      </trkpt>
      <trkpt lat="43.60501" lon="6.31884">
        <ele>710</ele>
        <time>2022-12-11T11:11:46Z</time>
      </trkpt>
      <trkpt lat="43.60501" lon="6.31884">
        <ele>710</ele>
        <time>2022-12-11T11:11:47Z</time>
      </trkpt>
      <trkpt lat="43.60501" lon="6.31884">
        <ele>710</ele>
        <time>2022-12-11T11:11:48Z</time>
      </trkpt>
      <trkpt lat="43.60501" lon="6.31884">
        <ele>710</ele>
        <time>2022-12-11T11:11:49Z</time>
      </trkpt>
      <trkpt lat="43.60501" lon="6.31884">
        <ele>710</ele>
        <time>2022-12-11T11:11:50Z</time>
      </trkpt>
      <trkpt lat="43.60501" lon="6.31884">
        <ele>710</ele>
        <time>2022-12-11T11:11:51Z</time>
      </trkpt>
      <trkpt lat="43.60501" lon="6.31884">
        <ele>710</ele>
        <time>2022-12-11T11:11:52Z</time>
      </trkpt>
      <trkpt lat="43.60501" lon="6.31884">
        <ele>710</ele>
        <time>2022-12-11T11:11:53Z</time>
      </trkpt>
      <trkpt lat="43.60501" lon="6.31884">
        <ele>710</ele>
        <time>2022-12-11T11:11:54Z</time>
      </trkpt>
      <trkpt lat="43.60501" lon="6.31884">
        <ele>710</ele>
        <time>2022-12-11T11:11:55Z</time>
      </trkpt>
      <trkpt lat="43.60501" lon="6.31884">
        <ele>709</ele>
        <time>2022-12-11T11:11:56Z</time>
      </trkpt>
      <trkpt lat="43.60501" lon="6.31884">
        <ele>709</ele>
        <time>2022-12-11T11:11:57Z</time>
      </trkpt>
      <trkpt lat="43.60501" lon="6.31884">
        <ele>709</ele>
        <time>2022-12-11T11:11:58Z</time>
      </trkpt>
      <trkpt lat="43.60501" lon="6.31884">
        <ele>709</ele>
        <time>2022-12-11T11:11:59Z</time>
      </trkpt>
      <trkpt lat="43.60501" lon="6.31884">
        <ele>709</ele>
        <time>2022-12-11T11:12:00Z</time>
      </trkpt>
      <trkpt lat="43.60501" lon="6.31884">
        <ele>709</ele>
        <time>2022-12-11T11:12:01Z</time>
      </trkpt>
      <trkpt lat="43.60501" lon="6.31884">
        <ele>709</ele>
        <time>2022-12-11T11:12:02Z</time>
      </trkpt>
      <trkpt lat="43.60501" lon="6.31884">
        <ele>709</ele>
        <time>2022-12-11T11:12:03Z</time>
      </trkpt>
      <trkpt lat="43.60501" lon="6.31884">
        <ele>709</ele>
        <time>2022-12-11T11:12:04Z</time>
      </trkpt>
      <trkpt lat="43.60501" lon="6.31884">
        <ele>709</ele>
        <time>2022-12-11T11:12:05Z</time>
      </trkpt>
      <trkpt lat="43.60501" lon="6.31884">
        <ele>709</ele>
        <time>2022-12-11T11:12:06Z</time>
      </trkpt>
      <trkpt lat="43.60501" lon="6.31884">
        <ele>709</ele>
        <time>2022-12-11T11:12:07Z</time>
      </trkpt>
      <trkpt lat="43.60501" lon="6.31884">
        <ele>709</ele>
        <time>2022-12-11T11:12:08Z</time>
      </trkpt>
      <trkpt lat="43.60501" lon="6.31884">
        <ele>709</ele>
        <time>2022-12-11T11:12:09Z</time>
      </trkpt>
      <trkpt lat="43.60501" lon="6.31886">
        <ele>709</ele>
        <time>2022-12-11T11:12:10Z</time>
      </trkpt>
      <trkpt lat="43.60501" lon="6.31886">
        <ele>709</ele>
        <time>2022-12-11T11:12:11Z</time>
      </trkpt>
      <trkpt lat="43.60501" lon="6.31885">
        <ele>709</ele>
        <time>2022-12-11T11:12:12Z</time>
      </trkpt>
      <trkpt lat="43.605" lon="6.31885">
        <ele>709</ele>
        <time>2022-12-11T11:12:13Z</time>
      </trkpt>
      <trkpt lat="43.605" lon="6.31884">
        <ele>709</ele>
        <time>2022-12-11T11:12:14Z</time>
      </trkpt>
      <trkpt lat="43.605" lon="6.31882">
        <ele>709</ele>
        <time>2022-12-11T11:12:15Z</time>
      </trkpt>
      <trkpt lat="43.605" lon="6.31881">
        <ele>709</ele>
        <time>2022-12-11T11:12:16Z</time>
      </trkpt>
      <trkpt lat="43.605" lon="6.3188">
        <ele>710</ele>
        <time>2022-12-11T11:12:17Z</time>
      </trkpt>
      <trkpt lat="43.605" lon="6.31879">
        <ele>710</ele>
        <time>2022-12-11T11:12:18Z</time>
      </trkpt>
      <trkpt lat="43.605" lon="6.31878">
        <ele>710</ele>
        <time>2022-12-11T11:12:19Z</time>
      </trkpt>
      <trkpt lat="43.60501" lon="6.31877">
        <ele>710</ele>
        <time>2022-12-11T11:12:20Z</time>
      </trkpt>
      <trkpt lat="43.60501" lon="6.31876">
        <ele>710</ele>
        <time>2022-12-11T11:12:21Z</time>
      </trkpt>
      <trkpt lat="43.60501" lon="6.31876">
        <ele>710</ele>
        <time>2022-12-11T11:12:22Z</time>
      </trkpt>
      <trkpt lat="43.60501" lon="6.31875">
        <ele>710</ele>
        <time>2022-12-11T11:12:23Z</time>
      </trkpt>
      <trkpt lat="43.60501" lon="6.31875">
        <ele>710</ele>
        <time>2022-12-11T11:12:24Z</time>
      </trkpt>
      <trkpt lat="43.60501" lon="6.31874">
        <ele>710</ele>
        <time>2022-12-11T11:12:25Z</time>
      </trkpt>
      <trkpt lat="43.60501" lon="6.31874">
        <ele>710</ele>
        <time>2022-12-11T11:12:26Z</time>
      </trkpt>
      <trkpt lat="43.60501" lon="6.31874">
        <ele>710</ele>
        <time>2022-12-11T11:12:27Z</time>
      </trkpt>
      <trkpt lat="43.60501" lon="6.31873">
        <ele>710</ele>
        <time>2022-12-11T11:12:28Z</time>
      </trkpt>
      <trkpt lat="43.60501" lon="6.31873">
        <ele>710</ele>
        <time>2022-12-11T11:12:29Z</time>
      </trkpt>
      <trkpt lat="43.60501" lon="6.31873">
        <ele>710</ele>
        <time>2022-12-11T11:12:30Z</time>
      </trkpt>
      <trkpt lat="43.60501" lon="6.31873">
        <ele>711</ele>
        <time>2022-12-11T11:12:31Z</time>
      </trkpt>
      <trkpt lat="43.60501" lon="6.31872">
        <ele>711</ele>
        <time>2022-12-11T11:12:32Z</time>
      </trkpt>
      <trkpt lat="43.60501" lon="6.31872">
        <ele>711</ele>
        <time>2022-12-11T11:12:33Z</time>
      </trkpt>
      <trkpt lat="43.60501" lon="6.31872">
        <ele>711</ele>
        <time>2022-12-11T11:12:34Z</time>
      </trkpt>
      <trkpt lat="43.60501" lon="6.31872">
        <ele>711</ele>
        <time>2022-12-11T11:12:35Z</time>
      </trkpt>
      <trkpt lat="43.60501" lon="6.31871">
        <ele>711</ele>
        <time>2022-12-11T11:12:36Z</time>
      </trkpt>
      <trkpt lat="43.60501" lon="6.31871">
        <ele>711</ele>
        <time>2022-12-11T11:12:37Z</time>
      </trkpt>
      <trkpt lat="43.60501" lon="6.31871">
        <ele>711</ele>
        <time>2022-12-11T11:12:38Z</time>
      </trkpt>
      <trkpt lat="43.605" lon="6.31872">
        <ele>711</ele>
        <time>2022-12-11T11:12:39Z</time>
      </trkpt>
      <trkpt lat="43.605" lon="6.31872">
        <ele>711</ele>
        <time>2022-12-11T11:12:40Z</time>
      </trkpt>
      <trkpt lat="43.605" lon="6.31872">
        <ele>711</ele>
        <time>2022-12-11T11:12:41Z</time>
      </trkpt>
      <trkpt lat="43.605" lon="6.31872">
        <ele>711</ele>
        <time>2022-12-11T11:12:42Z</time>
      </trkpt>
      <trkpt lat="43.605" lon="6.31872">
        <ele>712</ele>
        <time>2022-12-11T11:12:43Z</time>
      </trkpt>
      <trkpt lat="43.605" lon="6.31873">
        <ele>712</ele>
        <time>2022-12-11T11:12:44Z</time>
      </trkpt>
      <trkpt lat="43.605" lon="6.31873">
        <ele>712</ele>
        <time>2022-12-11T11:12:45Z</time>
      </trkpt>
      <trkpt lat="43.605" lon="6.31873">
        <ele>712</ele>
        <time>2022-12-11T11:12:46Z</time>
      </trkpt>
      <trkpt lat="43.605" lon="6.31873">
        <ele>712</ele>
        <time>2022-12-11T11:12:47Z</time>
      </trkpt>
      <trkpt lat="43.60499" lon="6.31873">
        <ele>712</ele>
        <time>2022-12-11T11:12:48Z</time>
      </trkpt>
      <trkpt lat="43.60499" lon="6.31874">
        <ele>712</ele>
        <time>2022-12-11T11:12:49Z</time>
      </trkpt>
      <trkpt lat="43.60499" lon="6.31874">
        <ele>712</ele>
        <time>2022-12-11T11:12:50Z</time>
      </trkpt>
      <trkpt lat="43.60499" lon="6.31874">
        <ele>712</ele>
        <time>2022-12-11T11:12:51Z</time>
      </trkpt>
      <trkpt lat="43.60499" lon="6.31874">
        <ele>712</ele>
        <time>2022-12-11T11:12:52Z</time>
      </trkpt>
      <trkpt lat="43.60499" lon="6.31874">
        <ele>712</ele>
        <time>2022-12-11T11:12:53Z</time>
      </trkpt>
      <trkpt lat="43.60499" lon="6.31874">
        <ele>712</ele>
        <time>2022-12-11T11:12:54Z</time>
      </trkpt>
      <trkpt lat="43.60499" lon="6.31874">
        <ele>712</ele>
        <time>2022-12-11T11:12:55Z</time>
      </trkpt>
      <trkpt lat="43.60499" lon="6.31874">
        <ele>712</ele>
        <time>2022-12-11T11:12:56Z</time>
      </trkpt>
      <trkpt lat="43.60499" lon="6.31874">
        <ele>712</ele>
        <time>2022-12-11T11:12:57Z</time>
      </trkpt>
      <trkpt lat="43.60499" lon="6.31874">
        <ele>712</ele>
        <time>2022-12-11T11:12:58Z</time>
      </trkpt>
      <trkpt lat="43.60499" lon="6.31874">
        <ele>712</ele>
        <time>2022-12-11T11:12:59Z</time>
      </trkpt>
      <trkpt lat="43.60499" lon="6.31874">
        <ele>712</ele>
        <time>2022-12-11T11:13:00Z</time>
      </trkpt>
      <trkpt lat="43.60499" lon="6.31874">
        <ele>712</ele>
        <time>2022-12-11T11:13:01Z</time>
      </trkpt>
      <trkpt lat="43.60499" lon="6.31874">
        <ele>712</ele>
        <time>2022-12-11T11:13:02Z</time>
      </trkpt>
      <trkpt lat="43.60499" lon="6.31874">
        <ele>712</ele>
        <time>2022-12-11T11:13:03Z</time>
      </trkpt>
      <trkpt lat="43.60499" lon="6.31874">
        <ele>712</ele>
        <time>2022-12-11T11:13:04Z</time>
      </trkpt>
      <trkpt lat="43.60499" lon="6.31874">
        <ele>712</ele>
        <time>2022-12-11T11:13:05Z</time>
      </trkpt>
      <trkpt lat="43.60499" lon="6.31874">
        <ele>712</ele>
        <time>2022-12-11T11:13:06Z</time>
      </trkpt>
      <trkpt lat="43.60499" lon="6.31874">
        <ele>712</ele>
        <time>2022-12-11T11:13:07Z</time>
      </trkpt>
      <trkpt lat="43.60499" lon="6.31874">
        <ele>712</ele>
        <time>2022-12-11T11:13:08Z</time>
      </trkpt>
      <trkpt lat="43.60499" lon="6.31874">
        <ele>712</ele>
        <time>2022-12-11T11:13:09Z</time>
      </trkpt>
      <trkpt lat="43.60499" lon="6.31874">
        <ele>712</ele>
        <time>2022-12-11T11:13:10Z</time>
      </trkpt>
      <trkpt lat="43.60499" lon="6.31874">
        <ele>712</ele>
        <time>2022-12-11T11:13:11Z</time>
      </trkpt>
      <trkpt lat="43.60499" lon="6.31874">
        <ele>712</ele>
        <time>2022-12-11T11:13:12Z</time>
      </trkpt>
      <trkpt lat="43.60498" lon="6.31874">
        <ele>712</ele>
        <time>2022-12-11T11:13:13Z</time>
      </trkpt>
      <trkpt lat="43.60498" lon="6.31874">
        <ele>712</ele>
        <time>2022-12-11T11:13:14Z</time>
      </trkpt>
      <trkpt lat="43.60497" lon="6.31874">
        <ele>712</ele>
        <time>2022-12-11T11:13:15Z</time>
      </trkpt>
      <trkpt lat="43.60497" lon="6.31875">
        <ele>712</ele>
        <time>2022-12-11T11:13:16Z</time>
      </trkpt>
      <trkpt lat="43.60497" lon="6.31875">
        <ele>712</ele>
        <time>2022-12-11T11:13:17Z</time>
      </trkpt>
      <trkpt lat="43.60496" lon="6.31875">
        <ele>712</ele>
        <time>2022-12-11T11:13:18Z</time>
      </trkpt>
      <trkpt lat="43.60496" lon="6.31875">
        <ele>712</ele>
        <time>2022-12-11T11:13:19Z</time>
      </trkpt>
      <trkpt lat="43.60496" lon="6.31875">
        <ele>712</ele>
        <time>2022-12-11T11:13:20Z</time>
      </trkpt>
      <trkpt lat="43.60496" lon="6.31876">
        <ele>712</ele>
        <time>2022-12-11T11:13:21Z</time>
      </trkpt>
      <trkpt lat="43.60495" lon="6.31876">
        <ele>712</ele>
        <time>2022-12-11T11:13:22Z</time>
      </trkpt>
      <trkpt lat="43.60495" lon="6.31877">
        <ele>712</ele>
        <time>2022-12-11T11:13:23Z</time>
      </trkpt>
      <trkpt lat="43.60496" lon="6.31877">
        <ele>712</ele>
        <time>2022-12-11T11:13:24Z</time>
      </trkpt>
      <trkpt lat="43.60496" lon="6.31878">
        <ele>712</ele>
        <time>2022-12-11T11:13:25Z</time>
      </trkpt>
      <trkpt lat="43.60496" lon="6.31878">
        <ele>712</ele>
        <time>2022-12-11T11:13:26Z</time>
      </trkpt>
      <trkpt lat="43.60496" lon="6.31879">
        <ele>712</ele>
        <time>2022-12-11T11:13:27Z</time>
      </trkpt>
      <trkpt lat="43.60496" lon="6.31879">
        <ele>712</ele>
        <time>2022-12-11T11:13:28Z</time>
      </trkpt>
      <trkpt lat="43.60496" lon="6.3188">
        <ele>712</ele>
        <time>2022-12-11T11:13:29Z</time>
      </trkpt>
      <trkpt lat="43.60496" lon="6.3188">
        <ele>712</ele>
        <time>2022-12-11T11:13:30Z</time>
      </trkpt>
      <trkpt lat="43.60496" lon="6.3188">
        <ele>712</ele>
        <time>2022-12-11T11:13:31Z</time>
      </trkpt>
      <trkpt lat="43.60496" lon="6.3188">
        <ele>712</ele>
        <time>2022-12-11T11:13:32Z</time>
      </trkpt>
      <trkpt lat="43.60496" lon="6.3188">
        <ele>712</ele>
        <time>2022-12-11T11:13:33Z</time>
      </trkpt>
      <trkpt lat="43.60496" lon="6.3188">
        <ele>712</ele>
        <time>2022-12-11T11:13:34Z</time>
      </trkpt>
      <trkpt lat="43.60496" lon="6.3188">
        <ele>712</ele>
        <time>2022-12-11T11:13:35Z</time>
      </trkpt>
      <trkpt lat="43.60496" lon="6.3188">
        <ele>712</ele>
        <time>2022-12-11T11:13:36Z</time>
      </trkpt>
      <trkpt lat="43.60496" lon="6.3188">
        <ele>712</ele>
        <time>2022-12-11T11:13:37Z</time>
      </trkpt>
      <trkpt lat="43.60496" lon="6.31881">
        <ele>712</ele>
        <time>2022-12-11T11:13:38Z</time>
      </trkpt>
      <trkpt lat="43.60495" lon="6.31881">
        <ele>712</ele>
        <time>2022-12-11T11:13:39Z</time>
      </trkpt>
      <trkpt lat="43.60494" lon="6.31881">
        <ele>712</ele>
        <time>2022-12-11T11:13:40Z</time>
      </trkpt>
      <trkpt lat="43.60494" lon="6.31881">
        <ele>711</ele>
        <time>2022-12-11T11:13:41Z</time>
      </trkpt>
      <trkpt lat="43.60494" lon="6.31881">
        <ele>711</ele>
        <time>2022-12-11T11:13:42Z</time>
      </trkpt>
      <trkpt lat="43.60494" lon="6.31881">
        <ele>711</ele>
        <time>2022-12-11T11:13:43Z</time>
      </trkpt>
      <trkpt lat="43.60493" lon="6.31881">
        <ele>711</ele>
        <time>2022-12-11T11:13:44Z</time>
      </trkpt>
      <trkpt lat="43.60493" lon="6.31881">
        <ele>711</ele>
        <time>2022-12-11T11:13:45Z</time>
      </trkpt>
      <trkpt lat="43.60493" lon="6.31881">
        <ele>711</ele>
        <time>2022-12-11T11:13:46Z</time>
      </trkpt>
      <trkpt lat="43.60493" lon="6.31881">
        <ele>711</ele>
        <time>2022-12-11T11:13:47Z</time>
      </trkpt>
      <trkpt lat="43.60493" lon="6.31881">
        <ele>711</ele>
        <time>2022-12-11T11:13:48Z</time>
      </trkpt>
      <trkpt lat="43.60493" lon="6.31881">
        <ele>711</ele>
        <time>2022-12-11T11:13:49Z</time>
      </trkpt>
      <trkpt lat="43.60493" lon="6.31881">
        <ele>711</ele>
        <time>2022-12-11T11:13:50Z</time>
      </trkpt>
      <trkpt lat="43.60493" lon="6.31881">
        <ele>711</ele>
        <time>2022-12-11T11:13:51Z</time>
      </trkpt>
      <trkpt lat="43.60493" lon="6.31881">
        <ele>711</ele>
        <time>2022-12-11T11:13:52Z</time>
      </trkpt>
      <trkpt lat="43.60493" lon="6.31881">
        <ele>711</ele>
        <time>2022-12-11T11:13:53Z</time>
      </trkpt>
      <trkpt lat="43.60493" lon="6.31881">
        <ele>711</ele>
        <time>2022-12-11T11:13:54Z</time>
      </trkpt>
      <trkpt lat="43.60493" lon="6.31881">
        <ele>711</ele>
        <time>2022-12-11T11:13:55Z</time>
      </trkpt>
      <trkpt lat="43.60493" lon="6.31881">
        <ele>711</ele>
        <time>2022-12-11T11:13:56Z</time>
      </trkpt>
      <trkpt lat="43.60493" lon="6.31881">
        <ele>711</ele>
        <time>2022-12-11T11:13:57Z</time>
      </trkpt>
      <trkpt lat="43.60493" lon="6.31881">
        <ele>711</ele>
        <time>2022-12-11T11:13:58Z</time>
      </trkpt>
      <trkpt lat="43.60493" lon="6.31881">
        <ele>711</ele>
        <time>2022-12-11T11:13:59Z</time>
      </trkpt>
      <trkpt lat="43.60492" lon="6.31881">
        <ele>711</ele>
        <time>2022-12-11T11:14:00Z</time>
      </trkpt>
      <trkpt lat="43.60492" lon="6.31881">
        <ele>711</ele>
        <time>2022-12-11T11:14:01Z</time>
      </trkpt>
      <trkpt lat="43.60491" lon="6.31882">
        <ele>711</ele>
        <time>2022-12-11T11:14:02Z</time>
      </trkpt>
      <trkpt lat="43.60491" lon="6.31883">
        <ele>711</ele>
        <time>2022-12-11T11:14:03Z</time>
      </trkpt>
      <trkpt lat="43.6049" lon="6.31883">
        <ele>711</ele>
        <time>2022-12-11T11:14:04Z</time>
      </trkpt>
      <trkpt lat="43.6049" lon="6.31884">
        <ele>711</ele>
        <time>2022-12-11T11:14:05Z</time>
      </trkpt>
      <trkpt lat="43.60489" lon="6.31885">
        <ele>711</ele>
        <time>2022-12-11T11:14:06Z</time>
      </trkpt>
      <trkpt lat="43.60488" lon="6.31886">
        <ele>711</ele>
        <time>2022-12-11T11:14:07Z</time>
      </trkpt>
      <trkpt lat="43.60487" lon="6.31887">
        <ele>711</ele>
        <time>2022-12-11T11:14:08Z</time>
      </trkpt>
      <trkpt lat="43.60487" lon="6.31888">
        <ele>711</ele>
        <time>2022-12-11T11:14:09Z</time>
      </trkpt>
      <trkpt lat="43.60487" lon="6.31888">
        <ele>710</ele>
        <time>2022-12-11T11:14:10Z</time>
      </trkpt>
      <trkpt lat="43.60486" lon="6.31888">
        <ele>710</ele>
        <time>2022-12-11T11:14:11Z</time>
      </trkpt>
      <trkpt lat="43.60486" lon="6.31888">
        <ele>710</ele>
        <time>2022-12-11T11:14:12Z</time>
      </trkpt>
      <trkpt lat="43.60486" lon="6.31888">
        <ele>710</ele>
        <time>2022-12-11T11:14:13Z</time>
      </trkpt>
      <trkpt lat="43.60486" lon="6.31888">
        <ele>710</ele>
        <time>2022-12-11T11:14:14Z</time>
      </trkpt>
      <trkpt lat="43.60486" lon="6.31888">
        <ele>710</ele>
        <time>2022-12-11T11:14:15Z</time>
      </trkpt>
      <trkpt lat="43.60486" lon="6.31888">
        <ele>710</ele>
        <time>2022-12-11T11:14:16Z</time>
      </trkpt>
      <trkpt lat="43.60487" lon="6.31888">
        <ele>710</ele>
        <time>2022-12-11T11:14:17Z</time>
      </trkpt>
      <trkpt lat="43.60487" lon="6.31887">
        <ele>710</ele>
        <time>2022-12-11T11:14:18Z</time>
      </trkpt>
      <trkpt lat="43.60487" lon="6.31887">
        <ele>710</ele>
        <time>2022-12-11T11:14:19Z</time>
      </trkpt>
      <trkpt lat="43.60487" lon="6.31887">
        <ele>710</ele>
        <time>2022-12-11T11:14:20Z</time>
      </trkpt>
      <trkpt lat="43.60487" lon="6.31887">
        <ele>710</ele>
        <time>2022-12-11T11:14:21Z</time>
      </trkpt>
      <trkpt lat="43.60487" lon="6.31887">
        <ele>710</ele>
        <time>2022-12-11T11:14:22Z</time>
      </trkpt>
      <trkpt lat="43.60488" lon="6.31887">
        <ele>710</ele>
        <time>2022-12-11T11:14:23Z</time>
      </trkpt>
      <trkpt lat="43.60488" lon="6.31887">
        <ele>710</ele>
        <time>2022-12-11T11:14:24Z</time>
      </trkpt>
      <trkpt lat="43.60488" lon="6.31887">
        <ele>710</ele>
        <time>2022-12-11T11:14:25Z</time>
      </trkpt>
      <trkpt lat="43.60488" lon="6.31886">
        <ele>710</ele>
        <time>2022-12-11T11:14:26Z</time>
      </trkpt>
      <trkpt lat="43.60488" lon="6.31886">
        <ele>710</ele>
        <time>2022-12-11T11:14:27Z</time>
      </trkpt>
      <trkpt lat="43.60488" lon="6.31886">
        <ele>710</ele>
        <time>2022-12-11T11:14:28Z</time>
      </trkpt>
      <trkpt lat="43.60488" lon="6.31886">
        <ele>710</ele>
        <time>2022-12-11T11:14:29Z</time>
      </trkpt>
      <trkpt lat="43.60488" lon="6.31886">
        <ele>710</ele>
        <time>2022-12-11T11:14:30Z</time>
      </trkpt>
      <trkpt lat="43.60489" lon="6.31886">
        <ele>710</ele>
        <time>2022-12-11T11:14:31Z</time>
      </trkpt>
      <trkpt lat="43.60489" lon="6.31886">
        <ele>710</ele>
        <time>2022-12-11T11:14:32Z</time>
      </trkpt>
      <trkpt lat="43.60489" lon="6.31886">
        <ele>710</ele>
        <time>2022-12-11T11:14:33Z</time>
      </trkpt>
      <trkpt lat="43.60489" lon="6.31886">
        <ele>710</ele>
        <time>2022-12-11T11:14:34Z</time>
      </trkpt>
      <trkpt lat="43.60489" lon="6.31887">
        <ele>710</ele>
        <time>2022-12-11T11:14:35Z</time>
      </trkpt>
      <trkpt lat="43.60488" lon="6.31888">
        <ele>710</ele>
        <time>2022-12-11T11:14:36Z</time>
      </trkpt>
      <trkpt lat="43.60488" lon="6.31888">
        <ele>710</ele>
        <time>2022-12-11T11:14:37Z</time>
      </trkpt>
      <trkpt lat="43.60487" lon="6.31888">
        <ele>710</ele>
        <time>2022-12-11T11:14:38Z</time>
      </trkpt>
      <trkpt lat="43.60487" lon="6.31888">
        <ele>710</ele>
        <time>2022-12-11T11:14:39Z</time>
      </trkpt>
      <trkpt lat="43.60486" lon="6.31888">
        <ele>710</ele>
        <time>2022-12-11T11:14:40Z</time>
      </trkpt>
      <trkpt lat="43.60486" lon="6.31888">
        <ele>710</ele>
        <time>2022-12-11T11:14:41Z</time>
      </trkpt>
      <trkpt lat="43.60485" lon="6.31888">
        <ele>710</ele>
        <time>2022-12-11T11:14:42Z</time>
      </trkpt>
      <trkpt lat="43.60485" lon="6.31888">
        <ele>710</ele>
        <time>2022-12-11T11:14:43Z</time>
      </trkpt>
      <trkpt lat="43.60485" lon="6.31888">
        <ele>710</ele>
        <time>2022-12-11T11:14:44Z</time>
      </trkpt>
      <trkpt lat="43.60484" lon="6.31888">
        <ele>710</ele>
        <time>2022-12-11T11:14:45Z</time>
      </trkpt>
      <trkpt lat="43.60484" lon="6.31888">
        <ele>710</ele>
        <time>2022-12-11T11:14:46Z</time>
      </trkpt>
      <trkpt lat="43.60484" lon="6.31888">
        <ele>710</ele>
        <time>2022-12-11T11:14:47Z</time>
      </trkpt>
      <trkpt lat="43.60484" lon="6.31888">
        <ele>710</ele>
        <time>2022-12-11T11:14:48Z</time>
      </trkpt>
      <trkpt lat="43.60484" lon="6.31888">
        <ele>710</ele>
        <time>2022-12-11T11:14:49Z</time>
      </trkpt>
      <trkpt lat="43.60484" lon="6.31888">
        <ele>710</ele>
        <time>2022-12-11T11:14:50Z</time>
      </trkpt>
      <trkpt lat="43.60484" lon="6.31888">
        <ele>710</ele>
        <time>2022-12-11T11:14:51Z</time>
      </trkpt>
      <trkpt lat="43.60484" lon="6.31888">
        <ele>710</ele>
        <time>2022-12-11T11:14:52Z</time>
      </trkpt>
      <trkpt lat="43.60484" lon="6.31888">
        <ele>710</ele>
        <time>2022-12-11T11:14:53Z</time>
      </trkpt>
      <trkpt lat="43.60484" lon="6.31888">
        <ele>710</ele>
        <time>2022-12-11T11:14:54Z</time>
      </trkpt>
      <trkpt lat="43.60484" lon="6.31888">
        <ele>710</ele>
        <time>2022-12-11T11:14:55Z</time>
      </trkpt>
      <trkpt lat="43.60484" lon="6.31888">
        <ele>710</ele>
        <time>2022-12-11T11:14:56Z</time>
      </trkpt>
      <trkpt lat="43.60484" lon="6.31888">
        <ele>710</ele>
        <time>2022-12-11T11:14:57Z</time>
      </trkpt>
      <trkpt lat="43.60484" lon="6.31888">
        <ele>710</ele>
        <time>2022-12-11T11:14:58Z</time>
      </trkpt>
      <trkpt lat="43.60484" lon="6.31888">
        <ele>710</ele>
        <time>2022-12-11T11:14:59Z</time>
      </trkpt>
      <trkpt lat="43.60484" lon="6.31888">
        <ele>710</ele>
        <time>2022-12-11T11:15:00Z</time>
      </trkpt>
      <trkpt lat="43.60484" lon="6.31888">
        <ele>710</ele>
        <time>2022-12-11T11:15:01Z</time>
      </trkpt>
      <trkpt lat="43.60484" lon="6.31888">
        <ele>710</ele>
        <time>2022-12-11T11:15:02Z</time>
      </trkpt>
      <trkpt lat="43.60484" lon="6.31888">
        <ele>710</ele>
        <time>2022-12-11T11:15:03Z</time>
      </trkpt>
      <trkpt lat="43.60484" lon="6.31888">
        <ele>710</ele>
        <time>2022-12-11T11:15:04Z</time>
      </trkpt>
      <trkpt lat="43.60484" lon="6.31888">
        <ele>710</ele>
        <time>2022-12-11T11:15:05Z</time>
      </trkpt>
      <trkpt lat="43.60484" lon="6.31888">
        <ele>710</ele>
        <time>2022-12-11T11:15:06Z</time>
      </trkpt>
      <trkpt lat="43.60484" lon="6.31888">
        <ele>710</ele>
        <time>2022-12-11T11:15:07Z</time>
      </trkpt>
      <trkpt lat="43.60484" lon="6.31888">
        <ele>710</ele>
        <time>2022-12-11T11:15:08Z</time>
      </trkpt>
      <trkpt lat="43.60484" lon="6.31888">
        <ele>710</ele>
        <time>2022-12-11T11:15:09Z</time>
      </trkpt>
      <trkpt lat="43.60484" lon="6.31888">
        <ele>710</ele>
        <time>2022-12-11T11:15:10Z</time>
      </trkpt>
      <trkpt lat="43.60484" lon="6.31888">
        <ele>710</ele>
        <time>2022-12-11T11:15:11Z</time>
      </trkpt>
      <trkpt lat="43.60484" lon="6.31888">
        <ele>710</ele>
        <time>2022-12-11T11:15:12Z</time>
      </trkpt>
      <trkpt lat="43.60484" lon="6.31888">
        <ele>710</ele>
        <time>2022-12-11T11:15:13Z</time>
      </trkpt>
      <trkpt lat="43.60484" lon="6.31888">
        <ele>710</ele>
        <time>2022-12-11T11:15:14Z</time>
      </trkpt>
      <trkpt lat="43.60484" lon="6.31888">
        <ele>710</ele>
        <time>2022-12-11T11:15:15Z</time>
      </trkpt>
      <trkpt lat="43.60484" lon="6.31888">
        <ele>710</ele>
        <time>2022-12-11T11:15:16Z</time>
      </trkpt>
      <trkpt lat="43.60484" lon="6.31888">
        <ele>710</ele>
        <time>2022-12-11T11:15:17Z</time>
      </trkpt>
      <trkpt lat="43.60484" lon="6.31888">
        <ele>710</ele>
        <time>2022-12-11T11:15:18Z</time>
      </trkpt>
      <trkpt lat="43.60484" lon="6.31888">
        <ele>710</ele>
        <time>2022-12-11T11:15:19Z</time>
      </trkpt>
      <trkpt lat="43.60484" lon="6.31888">
        <ele>710</ele>
        <time>2022-12-11T11:15:20Z</time>
      </trkpt>
      <trkpt lat="43.60484" lon="6.31888">
        <ele>710</ele>
        <time>2022-12-11T11:15:21Z</time>
      </trkpt>
      <trkpt lat="43.60484" lon="6.31888">
        <ele>710</ele>
        <time>2022-12-11T11:15:22Z</time>
      </trkpt>
      <trkpt lat="43.60484" lon="6.31888">
        <ele>710</ele>
        <time>2022-12-11T11:15:23Z</time>
      </trkpt>
      <trkpt lat="43.60484" lon="6.31888">
        <ele>710</ele>
        <time>2022-12-11T11:15:24Z</time>
      </trkpt>
      <trkpt lat="43.60484" lon="6.31888">
        <ele>710</ele>
        <time>2022-12-11T11:15:25Z</time>
      </trkpt>
      <trkpt lat="43.60484" lon="6.31888">
        <ele>710</ele>
        <time>2022-12-11T11:15:26Z</time>
      </trkpt>
      <trkpt lat="43.60484" lon="6.31888">
        <ele>710</ele>
        <time>2022-12-11T11:15:27Z</time>
      </trkpt>
      <trkpt lat="43.60484" lon="6.31888">
        <ele>710</ele>
        <time>2022-12-11T11:15:28Z</time>
      </trkpt>
      <trkpt lat="43.60484" lon="6.31888">
        <ele>710</ele>
        <time>2022-12-11T11:15:29Z</time>
      </trkpt>
      <trkpt lat="43.60484" lon="6.31888">
        <ele>710</ele>
        <time>2022-12-11T11:15:30Z</time>
      </trkpt>
      <trkpt lat="43.60484" lon="6.31888">
        <ele>710</ele>
        <time>2022-12-11T11:15:31Z</time>
      </trkpt>
      <trkpt lat="43.60484" lon="6.31888">
        <ele>710</ele>
        <time>2022-12-11T11:15:32Z</time>
      </trkpt>
      <trkpt lat="43.60483" lon="6.31888">
        <ele>710</ele>
        <time>2022-12-11T11:15:33Z</time>
      </trkpt>
      <trkpt lat="43.60483" lon="6.31888">
        <ele>710</ele>
        <time>2022-12-11T11:15:34Z</time>
      </trkpt>
      <trkpt lat="43.60483" lon="6.31888">
        <ele>710</ele>
        <time>2022-12-11T11:15:35Z</time>
      </trkpt>
      <trkpt lat="43.60483" lon="6.31888">
        <ele>710</ele>
        <time>2022-12-11T11:15:36Z</time>
      </trkpt>
      <trkpt lat="43.60483" lon="6.31888">
        <ele>710</ele>
        <time>2022-12-11T11:15:37Z</time>
      </trkpt>
      <trkpt lat="43.60483" lon="6.31889">
        <ele>710</ele>
        <time>2022-12-11T11:15:38Z</time>
      </trkpt>
      <trkpt lat="43.60484" lon="6.3189">
        <ele>710</ele>
        <time>2022-12-11T11:15:39Z</time>
      </trkpt>
      <trkpt lat="43.60484" lon="6.3189">
        <ele>710</ele>
        <time>2022-12-11T11:15:40Z</time>
      </trkpt>
      <trkpt lat="43.60485" lon="6.3189">
        <ele>710</ele>
        <time>2022-12-11T11:15:41Z</time>
      </trkpt>
      <trkpt lat="43.60486" lon="6.3189">
        <ele>710</ele>
        <time>2022-12-11T11:15:42Z</time>
      </trkpt>
      <trkpt lat="43.60486" lon="6.3189">
        <ele>710</ele>
        <time>2022-12-11T11:15:43Z</time>
      </trkpt>
      <trkpt lat="43.60487" lon="6.3189">
        <ele>710</ele>
        <time>2022-12-11T11:15:44Z</time>
      </trkpt>
      <trkpt lat="43.60487" lon="6.3189">
        <ele>710</ele>
        <time>2022-12-11T11:15:45Z</time>
      </trkpt>
      <trkpt lat="43.60488" lon="6.3189">
        <ele>710</ele>
        <time>2022-12-11T11:15:46Z</time>
      </trkpt>
      <trkpt lat="43.60488" lon="6.3189">
        <ele>710</ele>
        <time>2022-12-11T11:15:47Z</time>
      </trkpt>
      <trkpt lat="43.60488" lon="6.3189">
        <ele>710</ele>
        <time>2022-12-11T11:15:48Z</time>
      </trkpt>
      <trkpt lat="43.60488" lon="6.31891">
        <ele>710</ele>
        <time>2022-12-11T11:15:49Z</time>
      </trkpt>
      <trkpt lat="43.60488" lon="6.31891">
        <ele>710</ele>
        <time>2022-12-11T11:15:50Z</time>
      </trkpt>
      <trkpt lat="43.60488" lon="6.31891">
        <ele>710</ele>
        <time>2022-12-11T11:15:51Z</time>
      </trkpt>
      <trkpt lat="43.60487" lon="6.31892">
        <ele>710</ele>
        <time>2022-12-11T11:15:52Z</time>
      </trkpt>
      <trkpt lat="43.60487" lon="6.31892">
        <ele>710</ele>
        <time>2022-12-11T11:15:53Z</time>
      </trkpt>
      <trkpt lat="43.60487" lon="6.31893">
        <ele>710</ele>
        <time>2022-12-11T11:15:54Z</time>
      </trkpt>
      <trkpt lat="43.60487" lon="6.31893">
        <ele>710</ele>
        <time>2022-12-11T11:15:55Z</time>
      </trkpt>
      <trkpt lat="43.60486" lon="6.31893">
        <ele>710</ele>
        <time>2022-12-11T11:15:56Z</time>
      </trkpt>
      <trkpt lat="43.60486" lon="6.31893">
        <ele>710</ele>
        <time>2022-12-11T11:15:57Z</time>
      </trkpt>
      <trkpt lat="43.60486" lon="6.31893">
        <ele>710</ele>
        <time>2022-12-11T11:15:58Z</time>
      </trkpt>
      <trkpt lat="43.60486" lon="6.31893">
        <ele>710</ele>
        <time>2022-12-11T11:15:59Z</time>
      </trkpt>
      <trkpt lat="43.60486" lon="6.31894">
        <ele>710</ele>
        <time>2022-12-11T11:16:00Z</time>
      </trkpt>
      <trkpt lat="43.60486" lon="6.31894">
        <ele>710</ele>
        <time>2022-12-11T11:16:01Z</time>
      </trkpt>
      <trkpt lat="43.60486" lon="6.31894">
        <ele>710</ele>
        <time>2022-12-11T11:16:02Z</time>
      </trkpt>
      <trkpt lat="43.60486" lon="6.31894">
        <ele>710</ele>
        <time>2022-12-11T11:16:03Z</time>
      </trkpt>
      <trkpt lat="43.60486" lon="6.31894">
        <ele>710</ele>
        <time>2022-12-11T11:16:04Z</time>
      </trkpt>
      <trkpt lat="43.60486" lon="6.31894">
        <ele>710</ele>
        <time>2022-12-11T11:16:05Z</time>
      </trkpt>
      <trkpt lat="43.60486" lon="6.31894">
        <ele>710</ele>
        <time>2022-12-11T11:16:06Z</time>
      </trkpt>
      <trkpt lat="43.60486" lon="6.31894">
        <ele>710</ele>
        <time>2022-12-11T11:16:07Z</time>
      </trkpt>
      <trkpt lat="43.60486" lon="6.31894">
        <ele>710</ele>
        <time>2022-12-11T11:16:08Z</time>
      </trkpt>
      <trkpt lat="43.60485" lon="6.31894">
        <ele>710</ele>
        <time>2022-12-11T11:16:09Z</time>
      </trkpt>
      <trkpt lat="43.60485" lon="6.31894">
        <ele>710</ele>
        <time>2022-12-11T11:16:10Z</time>
      </trkpt>
      <trkpt lat="43.60485" lon="6.31895">
        <ele>710</ele>
        <time>2022-12-11T11:16:11Z</time>
      </trkpt>
      <trkpt lat="43.60485" lon="6.31896">
        <ele>710</ele>
        <time>2022-12-11T11:16:12Z</time>
      </trkpt>
      <trkpt lat="43.60484" lon="6.31896">
        <ele>710</ele>
        <time>2022-12-11T11:16:13Z</time>
      </trkpt>
      <trkpt lat="43.60484" lon="6.31897">
        <ele>710</ele>
        <time>2022-12-11T11:16:14Z</time>
      </trkpt>
      <trkpt lat="43.60484" lon="6.31898">
        <ele>710</ele>
        <time>2022-12-11T11:16:15Z</time>
      </trkpt>
      <trkpt lat="43.60484" lon="6.31898">
        <ele>710</ele>
        <time>2022-12-11T11:16:16Z</time>
      </trkpt>
      <trkpt lat="43.60484" lon="6.31899">
        <ele>710</ele>
        <time>2022-12-11T11:16:17Z</time>
      </trkpt>
      <trkpt lat="43.60484" lon="6.31899">
        <ele>711</ele>
        <time>2022-12-11T11:16:18Z</time>
      </trkpt>
      <trkpt lat="43.60484" lon="6.31899">
        <ele>711</ele>
        <time>2022-12-11T11:16:19Z</time>
      </trkpt>
      <trkpt lat="43.60484" lon="6.31899">
        <ele>711</ele>
        <time>2022-12-11T11:16:20Z</time>
      </trkpt>
      <trkpt lat="43.60484" lon="6.31899">
        <ele>711</ele>
        <time>2022-12-11T11:16:21Z</time>
      </trkpt>
      <trkpt lat="43.60484" lon="6.31899">
        <ele>711</ele>
        <time>2022-12-11T11:16:22Z</time>
      </trkpt>
      <trkpt lat="43.60484" lon="6.31899">
        <ele>711</ele>
        <time>2022-12-11T11:16:23Z</time>
      </trkpt>
      <trkpt lat="43.60484" lon="6.31899">
        <ele>711</ele>
        <time>2022-12-11T11:16:24Z</time>
      </trkpt>
      <trkpt lat="43.60484" lon="6.31899">
        <ele>711</ele>
        <time>2022-12-11T11:16:25Z</time>
      </trkpt>
      <trkpt lat="43.60482" lon="6.31903">
        <ele>710</ele>
        <time>2022-12-11T11:16:26Z</time>
      </trkpt>
      <trkpt lat="43.60483" lon="6.31903">
        <ele>710</ele>
        <time>2022-12-11T11:16:27Z</time>
      </trkpt>
      <trkpt lat="43.60483" lon="6.31904">
        <ele>710</ele>
        <time>2022-12-11T11:16:28Z</time>
      </trkpt>
      <trkpt lat="43.60484" lon="6.31904">
        <ele>710</ele>
        <time>2022-12-11T11:16:29Z</time>
      </trkpt>
      <trkpt lat="43.60484" lon="6.31904">
        <ele>710</ele>
        <time>2022-12-11T11:16:30Z</time>
      </trkpt>
      <trkpt lat="43.60485" lon="6.31904">
        <ele>710</ele>
        <time>2022-12-11T11:16:31Z</time>
      </trkpt>
      <trkpt lat="43.60485" lon="6.31904">
        <ele>710</ele>
        <time>2022-12-11T11:16:32Z</time>
      </trkpt>
      <trkpt lat="43.60486" lon="6.31904">
        <ele>710</ele>
        <time>2022-12-11T11:16:33Z</time>
      </trkpt>
      <trkpt lat="43.60488" lon="6.31903">
        <ele>709</ele>
        <time>2022-12-11T11:16:34Z</time>
      </trkpt>
      <trkpt lat="43.60489" lon="6.31902">
        <ele>709</ele>
        <time>2022-12-11T11:16:35Z</time>
      </trkpt>
      <trkpt lat="43.60491" lon="6.31901">
        <ele>709</ele>
        <time>2022-12-11T11:16:36Z</time>
      </trkpt>
      <trkpt lat="43.60491" lon="6.319">
        <ele>709</ele>
        <time>2022-12-11T11:16:37Z</time>
      </trkpt>
      <trkpt lat="43.60492" lon="6.319">
        <ele>709</ele>
        <time>2022-12-11T11:16:38Z</time>
      </trkpt>
      <trkpt lat="43.60492" lon="6.319">
        <ele>708</ele>
        <time>2022-12-11T11:16:39Z</time>
      </trkpt>
      <trkpt lat="43.60492" lon="6.31899">
        <ele>708</ele>
        <time>2022-12-11T11:16:40Z</time>
      </trkpt>
      <trkpt lat="43.60493" lon="6.31899">
        <ele>707</ele>
        <time>2022-12-11T11:16:41Z</time>
      </trkpt>
      <trkpt lat="43.60493" lon="6.31898">
        <ele>707</ele>
        <time>2022-12-11T11:16:42Z</time>
      </trkpt>
      <trkpt lat="43.60494" lon="6.31898">
        <ele>707</ele>
        <time>2022-12-11T11:16:43Z</time>
      </trkpt>
      <trkpt lat="43.60494" lon="6.31896">
        <ele>707</ele>
        <time>2022-12-11T11:16:44Z</time>
      </trkpt>
      <trkpt lat="43.60495" lon="6.31895">
        <ele>707</ele>
        <time>2022-12-11T11:16:45Z</time>
      </trkpt>
      <trkpt lat="43.60496" lon="6.31894">
        <ele>707</ele>
        <time>2022-12-11T11:16:46Z</time>
      </trkpt>
      <trkpt lat="43.60496" lon="6.31893">
        <ele>707</ele>
        <time>2022-12-11T11:16:47Z</time>
      </trkpt>
      <trkpt lat="43.60497" lon="6.31892">
        <ele>707</ele>
        <time>2022-12-11T11:16:48Z</time>
      </trkpt>
      <trkpt lat="43.60497" lon="6.31891">
        <ele>707</ele>
        <time>2022-12-11T11:16:49Z</time>
      </trkpt>
      <trkpt lat="43.60498" lon="6.3189">
        <ele>707</ele>
        <time>2022-12-11T11:16:50Z</time>
      </trkpt>
      <trkpt lat="43.60498" lon="6.31889">
        <ele>707</ele>
        <time>2022-12-11T11:16:51Z</time>
      </trkpt>
      <trkpt lat="43.60499" lon="6.31888">
        <ele>708</ele>
        <time>2022-12-11T11:16:52Z</time>
      </trkpt>
      <trkpt lat="43.605" lon="6.31887">
        <ele>708</ele>
        <time>2022-12-11T11:16:53Z</time>
      </trkpt>
      <trkpt lat="43.605" lon="6.31885">
        <ele>708</ele>
        <time>2022-12-11T11:16:54Z</time>
      </trkpt>
      <trkpt lat="43.60501" lon="6.31884">
        <ele>708</ele>
        <time>2022-12-11T11:16:55Z</time>
      </trkpt>
      <trkpt lat="43.60502" lon="6.31882">
        <ele>708</ele>
        <time>2022-12-11T11:16:56Z</time>
      </trkpt>
      <trkpt lat="43.60504" lon="6.31881">
        <ele>709</ele>
        <time>2022-12-11T11:16:57Z</time>
      </trkpt>
      <trkpt lat="43.60505" lon="6.31879">
        <ele>709</ele>
        <time>2022-12-11T11:16:58Z</time>
      </trkpt>
      <trkpt lat="43.60505" lon="6.31878">
        <ele>709</ele>
        <time>2022-12-11T11:16:59Z</time>
      </trkpt>
      <trkpt lat="43.60506" lon="6.31877">
        <ele>709</ele>
        <time>2022-12-11T11:17:00Z</time>
      </trkpt>
      <trkpt lat="43.60507" lon="6.31876">
        <ele>709</ele>
        <time>2022-12-11T11:17:01Z</time>
      </trkpt>
      <trkpt lat="43.60508" lon="6.31875">
        <ele>710</ele>
        <time>2022-12-11T11:17:02Z</time>
      </trkpt>
      <trkpt lat="43.60509" lon="6.31874">
        <ele>710</ele>
        <time>2022-12-11T11:17:03Z</time>
      </trkpt>
      <trkpt lat="43.60509" lon="6.31873">
        <ele>710</ele>
        <time>2022-12-11T11:17:04Z</time>
      </trkpt>
      <trkpt lat="43.6051" lon="6.31873">
        <ele>710</ele>
        <time>2022-12-11T11:17:05Z</time>
      </trkpt>
      <trkpt lat="43.60511" lon="6.31872">
        <ele>710</ele>
        <time>2022-12-11T11:17:06Z</time>
      </trkpt>
      <trkpt lat="43.60511" lon="6.31872">
        <ele>710</ele>
        <time>2022-12-11T11:17:07Z</time>
      </trkpt>
      <trkpt lat="43.60512" lon="6.31872">
        <ele>711</ele>
        <time>2022-12-11T11:17:08Z</time>
      </trkpt>
      <trkpt lat="43.60512" lon="6.31873">
        <ele>711</ele>
        <time>2022-12-11T11:17:09Z</time>
      </trkpt>
      <trkpt lat="43.60513" lon="6.31874">
        <ele>712</ele>
        <time>2022-12-11T11:17:10Z</time>
      </trkpt>
      <trkpt lat="43.60513" lon="6.31875">
        <ele>712</ele>
        <time>2022-12-11T11:17:11Z</time>
      </trkpt>
      <trkpt lat="43.60513" lon="6.31875">
        <ele>712</ele>
        <time>2022-12-11T11:17:12Z</time>
      </trkpt>
      <trkpt lat="43.60514" lon="6.31876">
        <ele>712</ele>
        <time>2022-12-11T11:17:13Z</time>
      </trkpt>
      <trkpt lat="43.60514" lon="6.31876">
        <ele>712</ele>
        <time>2022-12-11T11:17:14Z</time>
      </trkpt>
      <trkpt lat="43.60515" lon="6.31877">
        <ele>712</ele>
        <time>2022-12-11T11:17:15Z</time>
      </trkpt>
      <trkpt lat="43.60515" lon="6.31877">
        <ele>712</ele>
        <time>2022-12-11T11:17:16Z</time>
      </trkpt>
      <trkpt lat="43.60515" lon="6.31877">
        <ele>712</ele>
        <time>2022-12-11T11:17:17Z</time>
      </trkpt>
      <trkpt lat="43.60516" lon="6.31877">
        <ele>712</ele>
        <time>2022-12-11T11:17:18Z</time>
      </trkpt>
      <trkpt lat="43.60516" lon="6.31877">
        <ele>712</ele>
        <time>2022-12-11T11:17:19Z</time>
      </trkpt>
      <trkpt lat="43.60516" lon="6.31877">
        <ele>712</ele>
        <time>2022-12-11T11:17:20Z</time>
      </trkpt>
      <trkpt lat="43.60517" lon="6.31878">
        <ele>712</ele>
        <time>2022-12-11T11:17:21Z</time>
      </trkpt>
      <trkpt lat="43.60517" lon="6.31878">
        <ele>712</ele>
        <time>2022-12-11T11:17:22Z</time>
      </trkpt>
      <trkpt lat="43.60517" lon="6.31879">
        <ele>712</ele>
        <time>2022-12-11T11:17:23Z</time>
      </trkpt>
      <trkpt lat="43.60517" lon="6.3188">
        <ele>712</ele>
        <time>2022-12-11T11:17:24Z</time>
      </trkpt>
      <trkpt lat="43.60516" lon="6.3188">
        <ele>712</ele>
        <time>2022-12-11T11:17:25Z</time>
      </trkpt>
      <trkpt lat="43.60516" lon="6.31881">
        <ele>712</ele>
        <time>2022-12-11T11:17:26Z</time>
      </trkpt>
      <trkpt lat="43.60516" lon="6.31881">
        <ele>712</ele>
        <time>2022-12-11T11:17:27Z</time>
      </trkpt>
      <trkpt lat="43.60516" lon="6.31881">
        <ele>712</ele>
        <time>2022-12-11T11:17:28Z</time>
      </trkpt>
      <trkpt lat="43.60516" lon="6.31881">
        <ele>712</ele>
        <time>2022-12-11T11:17:29Z</time>
      </trkpt>
      <trkpt lat="43.60516" lon="6.31881">
        <ele>712</ele>
        <time>2022-12-11T11:17:30Z</time>
      </trkpt>
      <trkpt lat="43.60516" lon="6.31881">
        <ele>712</ele>
        <time>2022-12-11T11:17:31Z</time>
      </trkpt>
      <trkpt lat="43.60516" lon="6.31881">
        <ele>712</ele>
        <time>2022-12-11T11:17:32Z</time>
      </trkpt>
      <trkpt lat="43.60516" lon="6.31881">
        <ele>712</ele>
        <time>2022-12-11T11:17:33Z</time>
      </trkpt>
      <trkpt lat="43.60516" lon="6.31881">
        <ele>712</ele>
        <time>2022-12-11T11:17:34Z</time>
      </trkpt>
      <trkpt lat="43.60516" lon="6.31881">
        <ele>712</ele>
        <time>2022-12-11T11:17:35Z</time>
      </trkpt>
      <trkpt lat="43.60515" lon="6.31881">
        <ele>712</ele>
        <time>2022-12-11T11:17:36Z</time>
      </trkpt>
      <trkpt lat="43.60515" lon="6.31882">
        <ele>712</ele>
        <time>2022-12-11T11:17:37Z</time>
      </trkpt>
      <trkpt lat="43.60514" lon="6.31883">
        <ele>712</ele>
        <time>2022-12-11T11:17:38Z</time>
      </trkpt>
      <trkpt lat="43.60514" lon="6.31883">
        <ele>712</ele>
        <time>2022-12-11T11:17:39Z</time>
      </trkpt>
      <trkpt lat="43.60514" lon="6.31884">
        <ele>712</ele>
        <time>2022-12-11T11:17:40Z</time>
      </trkpt>
      <trkpt lat="43.60514" lon="6.31885">
        <ele>712</ele>
        <time>2022-12-11T11:17:41Z</time>
      </trkpt>
      <trkpt lat="43.60514" lon="6.31886">
        <ele>712</ele>
        <time>2022-12-11T11:17:42Z</time>
      </trkpt>
      <trkpt lat="43.60514" lon="6.31886">
        <ele>712</ele>
        <time>2022-12-11T11:17:43Z</time>
      </trkpt>
      <trkpt lat="43.60513" lon="6.31887">
        <ele>712</ele>
        <time>2022-12-11T11:17:44Z</time>
      </trkpt>
      <trkpt lat="43.60513" lon="6.31888">
        <ele>712</ele>
        <time>2022-12-11T11:17:45Z</time>
      </trkpt>
      <trkpt lat="43.60513" lon="6.31888">
        <ele>712</ele>
        <time>2022-12-11T11:17:46Z</time>
      </trkpt>
      <trkpt lat="43.60512" lon="6.31889">
        <ele>712</ele>
        <time>2022-12-11T11:17:47Z</time>
      </trkpt>
      <trkpt lat="43.60512" lon="6.31889">
        <ele>713</ele>
        <time>2022-12-11T11:17:48Z</time>
      </trkpt>
      <trkpt lat="43.60511" lon="6.31889">
        <ele>713</ele>
        <time>2022-12-11T11:17:49Z</time>
      </trkpt>
      <trkpt lat="43.60511" lon="6.31889">
        <ele>713</ele>
        <time>2022-12-11T11:17:50Z</time>
      </trkpt>
      <trkpt lat="43.60511" lon="6.31889">
        <ele>713</ele>
        <time>2022-12-11T11:17:51Z</time>
      </trkpt>
      <trkpt lat="43.6051" lon="6.31889">
        <ele>713</ele>
        <time>2022-12-11T11:17:52Z</time>
      </trkpt>
      <trkpt lat="43.6051" lon="6.31888">
        <ele>713</ele>
        <time>2022-12-11T11:17:53Z</time>
      </trkpt>
      <trkpt lat="43.6051" lon="6.31887">
        <ele>713</ele>
        <time>2022-12-11T11:17:54Z</time>
      </trkpt>
      <trkpt lat="43.60511" lon="6.31886">
        <ele>713</ele>
        <time>2022-12-11T11:17:55Z</time>
      </trkpt>
      <trkpt lat="43.60511" lon="6.31885">
        <ele>713</ele>
        <time>2022-12-11T11:17:56Z</time>
      </trkpt>
      <trkpt lat="43.60512" lon="6.31886">
        <ele>713</ele>
        <time>2022-12-11T11:17:57Z</time>
      </trkpt>
      <trkpt lat="43.60512" lon="6.31887">
        <ele>713</ele>
        <time>2022-12-11T11:17:58Z</time>
      </trkpt>
      <trkpt lat="43.60512" lon="6.31888">
        <ele>713</ele>
        <time>2022-12-11T11:17:59Z</time>
      </trkpt>
      <trkpt lat="43.60513" lon="6.31888">
        <ele>713</ele>
        <time>2022-12-11T11:18:00Z</time>
      </trkpt>
      <trkpt lat="43.60513" lon="6.31889">
        <ele>713</ele>
        <time>2022-12-11T11:18:01Z</time>
      </trkpt>
      <trkpt lat="43.60513" lon="6.31889">
        <ele>713</ele>
        <time>2022-12-11T11:18:02Z</time>
      </trkpt>
      <trkpt lat="43.60513" lon="6.3189">
        <ele>713</ele>
        <time>2022-12-11T11:18:03Z</time>
      </trkpt>
      <trkpt lat="43.60513" lon="6.31889">
        <ele>713</ele>
        <time>2022-12-11T11:18:04Z</time>
      </trkpt>
      <trkpt lat="43.60513" lon="6.31889">
        <ele>713</ele>
        <time>2022-12-11T11:18:05Z</time>
      </trkpt>
      <trkpt lat="43.60513" lon="6.31888">
        <ele>713</ele>
        <time>2022-12-11T11:18:06Z</time>
      </trkpt>
      <trkpt lat="43.60513" lon="6.31888">
        <ele>713</ele>
        <time>2022-12-11T11:18:07Z</time>
      </trkpt>
      <trkpt lat="43.60513" lon="6.31888">
        <ele>713</ele>
        <time>2022-12-11T11:18:08Z</time>
      </trkpt>
      <trkpt lat="43.60513" lon="6.31887">
        <ele>713</ele>
        <time>2022-12-11T11:18:09Z</time>
      </trkpt>
      <trkpt lat="43.60513" lon="6.31886">
        <ele>713</ele>
        <time>2022-12-11T11:18:10Z</time>
      </trkpt>
      <trkpt lat="43.60513" lon="6.31885">
        <ele>713</ele>
        <time>2022-12-11T11:18:11Z</time>
      </trkpt>
      <trkpt lat="43.60513" lon="6.31884">
        <ele>713</ele>
        <time>2022-12-11T11:18:12Z</time>
      </trkpt>
      <trkpt lat="43.60513" lon="6.31883">
        <ele>713</ele>
        <time>2022-12-11T11:18:13Z</time>
      </trkpt>
      <trkpt lat="43.60513" lon="6.31881">
        <ele>713</ele>
        <time>2022-12-11T11:18:14Z</time>
      </trkpt>
      <trkpt lat="43.60513" lon="6.31879">
        <ele>713</ele>
        <time>2022-12-11T11:18:15Z</time>
      </trkpt>
      <trkpt lat="43.60513" lon="6.31877">
        <ele>713</ele>
        <time>2022-12-11T11:18:16Z</time>
      </trkpt>
      <trkpt lat="43.60512" lon="6.31876">
        <ele>713</ele>
        <time>2022-12-11T11:18:17Z</time>
      </trkpt>
      <trkpt lat="43.60512" lon="6.31875">
        <ele>713</ele>
        <time>2022-12-11T11:18:18Z</time>
      </trkpt>
      <trkpt lat="43.60512" lon="6.31875">
        <ele>713</ele>
        <time>2022-12-11T11:18:19Z</time>
      </trkpt>
      <trkpt lat="43.60512" lon="6.31874">
        <ele>713</ele>
        <time>2022-12-11T11:18:20Z</time>
      </trkpt>
      <trkpt lat="43.60512" lon="6.31874">
        <ele>713</ele>
        <time>2022-12-11T11:18:21Z</time>
      </trkpt>
      <trkpt lat="43.60512" lon="6.31874">
        <ele>713</ele>
        <time>2022-12-11T11:18:22Z</time>
      </trkpt>
      <trkpt lat="43.60512" lon="6.31873">
        <ele>713</ele>
        <time>2022-12-11T11:18:23Z</time>
      </trkpt>
      <trkpt lat="43.60513" lon="6.31873">
        <ele>713</ele>
        <time>2022-12-11T11:18:24Z</time>
      </trkpt>
      <trkpt lat="43.60513" lon="6.31872">
        <ele>713</ele>
        <time>2022-12-11T11:18:25Z</time>
      </trkpt>
      <trkpt lat="43.60513" lon="6.31872">
        <ele>713</ele>
        <time>2022-12-11T11:18:26Z</time>
      </trkpt>
      <trkpt lat="43.60513" lon="6.31872">
        <ele>713</ele>
        <time>2022-12-11T11:18:27Z</time>
      </trkpt>
      <trkpt lat="43.60513" lon="6.31872">
        <ele>713</ele>
        <time>2022-12-11T11:18:28Z</time>
      </trkpt>
      <trkpt lat="43.60513" lon="6.31871">
        <ele>713</ele>
        <time>2022-12-11T11:18:29Z</time>
      </trkpt>
      <trkpt lat="43.60512" lon="6.31871">
        <ele>713</ele>
        <time>2022-12-11T11:18:30Z</time>
      </trkpt>
      <trkpt lat="43.60512" lon="6.31871">
        <ele>713</ele>
        <time>2022-12-11T11:18:31Z</time>
      </trkpt>
      <trkpt lat="43.60512" lon="6.31871">
        <ele>713</ele>
        <time>2022-12-11T11:18:32Z</time>
      </trkpt>
      <trkpt lat="43.60512" lon="6.31871">
        <ele>713</ele>
        <time>2022-12-11T11:18:33Z</time>
      </trkpt>
      <trkpt lat="43.60512" lon="6.31871">
        <ele>713</ele>
        <time>2022-12-11T11:18:34Z</time>
      </trkpt>
      <trkpt lat="43.60512" lon="6.31871">
        <ele>713</ele>
        <time>2022-12-11T11:18:35Z</time>
      </trkpt>
      <trkpt lat="43.60512" lon="6.31871">
        <ele>713</ele>
        <time>2022-12-11T11:18:36Z</time>
      </trkpt>
      <trkpt lat="43.60512" lon="6.31871">
        <ele>713</ele>
        <time>2022-12-11T11:18:37Z</time>
      </trkpt>
      <trkpt lat="43.60512" lon="6.31871">
        <ele>713</ele>
        <time>2022-12-11T11:18:38Z</time>
      </trkpt>
      <trkpt lat="43.60512" lon="6.31871">
        <ele>713</ele>
        <time>2022-12-11T11:18:39Z</time>
      </trkpt>
      <trkpt lat="43.60512" lon="6.31871">
        <ele>713</ele>
        <time>2022-12-11T11:18:40Z</time>
      </trkpt>
      <trkpt lat="43.60511" lon="6.31871">
        <ele>713</ele>
        <time>2022-12-11T11:18:41Z</time>
      </trkpt>
      <trkpt lat="43.60511" lon="6.31871">
        <ele>713</ele>
        <time>2022-12-11T11:18:42Z</time>
      </trkpt>
      <trkpt lat="43.60511" lon="6.31871">
        <ele>713</ele>
        <time>2022-12-11T11:18:43Z</time>
      </trkpt>
      <trkpt lat="43.6051" lon="6.31871">
        <ele>713</ele>
        <time>2022-12-11T11:18:44Z</time>
      </trkpt>
      <trkpt lat="43.6051" lon="6.31871">
        <ele>713</ele>
        <time>2022-12-11T11:18:45Z</time>
      </trkpt>
      <trkpt lat="43.60509" lon="6.31872">
        <ele>714</ele>
        <time>2022-12-11T11:18:46Z</time>
      </trkpt>
      <trkpt lat="43.60509" lon="6.31872">
        <ele>714</ele>
        <time>2022-12-11T11:18:47Z</time>
      </trkpt>
      <trkpt lat="43.60508" lon="6.31873">
        <ele>714</ele>
        <time>2022-12-11T11:18:48Z</time>
      </trkpt>
      <trkpt lat="43.60508" lon="6.31874">
        <ele>714</ele>
        <time>2022-12-11T11:18:49Z</time>
      </trkpt>
      <trkpt lat="43.60507" lon="6.31874">
        <ele>714</ele>
        <time>2022-12-11T11:18:50Z</time>
      </trkpt>
      <trkpt lat="43.60507" lon="6.31875">
        <ele>714</ele>
        <time>2022-12-11T11:18:51Z</time>
      </trkpt>
      <trkpt lat="43.60506" lon="6.31876">
        <ele>714</ele>
        <time>2022-12-11T11:18:52Z</time>
      </trkpt>
      <trkpt lat="43.60506" lon="6.31876">
        <ele>714</ele>
        <time>2022-12-11T11:18:53Z</time>
      </trkpt>
      <trkpt lat="43.60506" lon="6.31877">
        <ele>714</ele>
        <time>2022-12-11T11:18:54Z</time>
      </trkpt>
      <trkpt lat="43.60505" lon="6.31877">
        <ele>714</ele>
        <time>2022-12-11T11:18:55Z</time>
      </trkpt>
      <trkpt lat="43.60505" lon="6.31877">
        <ele>715</ele>
        <time>2022-12-11T11:18:56Z</time>
      </trkpt>
      <trkpt lat="43.60505" lon="6.31878">
        <ele>715</ele>
        <time>2022-12-11T11:18:57Z</time>
      </trkpt>
      <trkpt lat="43.60505" lon="6.31878">
        <ele>715</ele>
        <time>2022-12-11T11:18:58Z</time>
      </trkpt>
      <trkpt lat="43.60504" lon="6.31878">
        <ele>716</ele>
        <time>2022-12-11T11:18:59Z</time>
      </trkpt>
      <trkpt lat="43.60504" lon="6.31878">
        <ele>716</ele>
        <time>2022-12-11T11:19:00Z</time>
      </trkpt>
      <trkpt lat="43.60504" lon="6.31878">
        <ele>716</ele>
        <time>2022-12-11T11:19:01Z</time>
      </trkpt>
      <trkpt lat="43.60504" lon="6.31879">
        <ele>716</ele>
        <time>2022-12-11T11:19:02Z</time>
      </trkpt>
      <trkpt lat="43.60504" lon="6.31879">
        <ele>716</ele>
        <time>2022-12-11T11:19:03Z</time>
      </trkpt>
      <trkpt lat="43.60504" lon="6.31879">
        <ele>716</ele>
        <time>2022-12-11T11:19:04Z</time>
      </trkpt>
      <trkpt lat="43.60504" lon="6.31879">
        <ele>716</ele>
        <time>2022-12-11T11:19:05Z</time>
      </trkpt>
      <trkpt lat="43.60504" lon="6.31879">
        <ele>716</ele>
        <time>2022-12-11T11:19:06Z</time>
      </trkpt>
      <trkpt lat="43.60504" lon="6.31879">
        <ele>716</ele>
        <time>2022-12-11T11:19:07Z</time>
      </trkpt>
      <trkpt lat="43.60504" lon="6.31879">
        <ele>716</ele>
        <time>2022-12-11T11:19:08Z</time>
      </trkpt>
      <trkpt lat="43.60504" lon="6.31879">
        <ele>716</ele>
        <time>2022-12-11T11:19:09Z</time>
      </trkpt>
      <trkpt lat="43.60504" lon="6.31879">
        <ele>716</ele>
        <time>2022-12-11T11:19:10Z</time>
      </trkpt>
      <trkpt lat="43.60505" lon="6.31878">
        <ele>716</ele>
        <time>2022-12-11T11:19:11Z</time>
      </trkpt>
      <trkpt lat="43.60505" lon="6.31878">
        <ele>716</ele>
        <time>2022-12-11T11:19:12Z</time>
      </trkpt>
      <trkpt lat="43.60505" lon="6.31877">
        <ele>716</ele>
        <time>2022-12-11T11:19:13Z</time>
      </trkpt>
      <trkpt lat="43.60505" lon="6.31877">
        <ele>716</ele>
        <time>2022-12-11T11:19:14Z</time>
      </trkpt>
      <trkpt lat="43.60505" lon="6.31876">
        <ele>716</ele>
        <time>2022-12-11T11:19:15Z</time>
      </trkpt>
      <trkpt lat="43.60505" lon="6.31875">
        <ele>717</ele>
        <time>2022-12-11T11:19:16Z</time>
      </trkpt>
      <trkpt lat="43.60505" lon="6.31874">
        <ele>717</ele>
        <time>2022-12-11T11:19:17Z</time>
      </trkpt>
      <trkpt lat="43.60505" lon="6.31874">
        <ele>717</ele>
        <time>2022-12-11T11:19:18Z</time>
      </trkpt>
      <trkpt lat="43.60505" lon="6.31873">
        <ele>717</ele>
        <time>2022-12-11T11:19:19Z</time>
      </trkpt>
      <trkpt lat="43.60504" lon="6.31872">
        <ele>717</ele>
        <time>2022-12-11T11:19:20Z</time>
      </trkpt>
      <trkpt lat="43.60504" lon="6.31872">
        <ele>717</ele>
        <time>2022-12-11T11:19:21Z</time>
      </trkpt>
      <trkpt lat="43.60504" lon="6.31871">
        <ele>717</ele>
        <time>2022-12-11T11:19:22Z</time>
      </trkpt>
      <trkpt lat="43.60504" lon="6.31871">
        <ele>717</ele>
        <time>2022-12-11T11:19:23Z</time>
      </trkpt>
      <trkpt lat="43.60504" lon="6.31871">
        <ele>718</ele>
        <time>2022-12-11T11:19:24Z</time>
      </trkpt>
      <trkpt lat="43.60503" lon="6.31871">
        <ele>718</ele>
        <time>2022-12-11T11:19:25Z</time>
      </trkpt>
      <trkpt lat="43.60503" lon="6.31871">
        <ele>718</ele>
        <time>2022-12-11T11:19:26Z</time>
      </trkpt>
      <trkpt lat="43.60503" lon="6.31871">
        <ele>718</ele>
        <time>2022-12-11T11:19:27Z</time>
      </trkpt>
      <trkpt lat="43.60503" lon="6.31871">
        <ele>718</ele>
        <time>2022-12-11T11:19:28Z</time>
      </trkpt>
      <trkpt lat="43.60503" lon="6.31871">
        <ele>718</ele>
        <time>2022-12-11T11:19:29Z</time>
      </trkpt>
      <trkpt lat="43.60503" lon="6.31871">
        <ele>718</ele>
        <time>2022-12-11T11:19:30Z</time>
      </trkpt>
      <trkpt lat="43.60503" lon="6.3187">
        <ele>718</ele>
        <time>2022-12-11T11:19:31Z</time>
      </trkpt>
      <trkpt lat="43.60502" lon="6.31869">
        <ele>718</ele>
        <time>2022-12-11T11:19:32Z</time>
      </trkpt>
      <trkpt lat="43.60502" lon="6.31869">
        <ele>718</ele>
        <time>2022-12-11T11:19:33Z</time>
      </trkpt>
      <trkpt lat="43.60502" lon="6.31869">
        <ele>718</ele>
        <time>2022-12-11T11:19:34Z</time>
      </trkpt>
      <trkpt lat="43.60502" lon="6.31869">
        <ele>718</ele>
        <time>2022-12-11T11:19:35Z</time>
      </trkpt>
      <trkpt lat="43.60502" lon="6.31868">
        <ele>718</ele>
        <time>2022-12-11T11:19:36Z</time>
      </trkpt>
      <trkpt lat="43.60502" lon="6.31868">
        <ele>718</ele>
        <time>2022-12-11T11:19:37Z</time>
      </trkpt>
      <trkpt lat="43.60501" lon="6.31868">
        <ele>719</ele>
        <time>2022-12-11T11:19:38Z</time>
      </trkpt>
      <trkpt lat="43.60501" lon="6.31868">
        <ele>719</ele>
        <time>2022-12-11T11:19:39Z</time>
      </trkpt>
      <trkpt lat="43.60501" lon="6.31868">
        <ele>719</ele>
        <time>2022-12-11T11:19:40Z</time>
      </trkpt>
      <trkpt lat="43.60501" lon="6.31868">
        <ele>719</ele>
        <time>2022-12-11T11:19:41Z</time>
      </trkpt>
      <trkpt lat="43.60501" lon="6.31868">
        <ele>719</ele>
        <time>2022-12-11T11:19:42Z</time>
      </trkpt>
      <trkpt lat="43.60501" lon="6.31868">
        <ele>719</ele>
        <time>2022-12-11T11:19:43Z</time>
      </trkpt>
      <trkpt lat="43.60501" lon="6.31868">
        <ele>719</ele>
        <time>2022-12-11T11:19:44Z</time>
      </trkpt>
      <trkpt lat="43.60501" lon="6.31868">
        <ele>719</ele>
        <time>2022-12-11T11:19:45Z</time>
      </trkpt>
      <trkpt lat="43.60501" lon="6.31868">
        <ele>719</ele>
        <time>2022-12-11T11:19:46Z</time>
      </trkpt>
      <trkpt lat="43.60501" lon="6.31868">
        <ele>719</ele>
        <time>2022-12-11T11:19:47Z</time>
      </trkpt>
      <trkpt lat="43.60501" lon="6.31868">
        <ele>719</ele>
        <time>2022-12-11T11:19:48Z</time>
      </trkpt>
      <trkpt lat="43.60501" lon="6.31868">
        <ele>719</ele>
        <time>2022-12-11T11:19:49Z</time>
      </trkpt>
      <trkpt lat="43.60501" lon="6.31868">
        <ele>719</ele>
        <time>2022-12-11T11:19:50Z</time>
      </trkpt>
      <trkpt lat="43.60501" lon="6.31868">
        <ele>719</ele>
        <time>2022-12-11T11:19:51Z</time>
      </trkpt>
      <trkpt lat="43.60501" lon="6.31868">
        <ele>719</ele>
        <time>2022-12-11T11:19:52Z</time>
      </trkpt>
      <trkpt lat="43.60501" lon="6.31868">
        <ele>719</ele>
        <time>2022-12-11T11:19:53Z</time>
      </trkpt>
      <trkpt lat="43.60501" lon="6.31868">
        <ele>719</ele>
        <time>2022-12-11T11:19:54Z</time>
      </trkpt>
      <trkpt lat="43.60501" lon="6.31868">
        <ele>719</ele>
        <time>2022-12-11T11:19:55Z</time>
      </trkpt>
      <trkpt lat="43.605" lon="6.31869">
        <ele>719</ele>
        <time>2022-12-11T11:19:56Z</time>
      </trkpt>
      <trkpt lat="43.605" lon="6.31869">
        <ele>719</ele>
        <time>2022-12-11T11:19:57Z</time>
      </trkpt>
      <trkpt lat="43.605" lon="6.31869">
        <ele>719</ele>
        <time>2022-12-11T11:19:58Z</time>
      </trkpt>
      <trkpt lat="43.605" lon="6.31869">
        <ele>719</ele>
        <time>2022-12-11T11:19:59Z</time>
      </trkpt>
      <trkpt lat="43.605" lon="6.31869">
        <ele>719</ele>
        <time>2022-12-11T11:20:00Z</time>
      </trkpt>
      <trkpt lat="43.605" lon="6.31869">
        <ele>719</ele>
        <time>2022-12-11T11:20:01Z</time>
      </trkpt>
      <trkpt lat="43.605" lon="6.31869">
        <ele>719</ele>
        <time>2022-12-11T11:20:02Z</time>
      </trkpt>
      <trkpt lat="43.605" lon="6.31869">
        <ele>719</ele>
        <time>2022-12-11T11:20:03Z</time>
      </trkpt>
      <trkpt lat="43.605" lon="6.31869">
        <ele>719</ele>
        <time>2022-12-11T11:20:04Z</time>
      </trkpt>
      <trkpt lat="43.605" lon="6.31869">
        <ele>719</ele>
        <time>2022-12-11T11:20:05Z</time>
      </trkpt>
      <trkpt lat="43.605" lon="6.3187">
        <ele>719</ele>
        <time>2022-12-11T11:20:06Z</time>
      </trkpt>
      <trkpt lat="43.605" lon="6.3187">
        <ele>719</ele>
        <time>2022-12-11T11:20:07Z</time>
      </trkpt>
      <trkpt lat="43.605" lon="6.3187">
        <ele>719</ele>
        <time>2022-12-11T11:20:08Z</time>
      </trkpt>
      <trkpt lat="43.605" lon="6.3187">
        <ele>719</ele>
        <time>2022-12-11T11:20:09Z</time>
      </trkpt>
      <trkpt lat="43.605" lon="6.3187">
        <ele>719</ele>
        <time>2022-12-11T11:20:10Z</time>
      </trkpt>
      <trkpt lat="43.605" lon="6.3187">
        <ele>719</ele>
        <time>2022-12-11T11:20:11Z</time>
      </trkpt>
      <trkpt lat="43.605" lon="6.3187">
        <ele>719</ele>
        <time>2022-12-11T11:20:12Z</time>
      </trkpt>
      <trkpt lat="43.605" lon="6.3187">
        <ele>719</ele>
        <time>2022-12-11T11:20:13Z</time>
      </trkpt>
      <trkpt lat="43.605" lon="6.3187">
        <ele>719</ele>
        <time>2022-12-11T11:20:14Z</time>
      </trkpt>
      <trkpt lat="43.605" lon="6.3187">
        <ele>719</ele>
        <time>2022-12-11T11:20:15Z</time>
      </trkpt>
      <trkpt lat="43.605" lon="6.3187">
        <ele>719</ele>
        <time>2022-12-11T11:20:16Z</time>
      </trkpt>
      <trkpt lat="43.605" lon="6.3187">
        <ele>719</ele>
        <time>2022-12-11T11:20:17Z</time>
      </trkpt>
      <trkpt lat="43.605" lon="6.3187">
        <ele>719</ele>
        <time>2022-12-11T11:20:18Z</time>
      </trkpt>
      <trkpt lat="43.605" lon="6.3187">
        <ele>719</ele>
        <time>2022-12-11T11:20:19Z</time>
      </trkpt>
      <trkpt lat="43.605" lon="6.3187">
        <ele>719</ele>
        <time>2022-12-11T11:20:20Z</time>
      </trkpt>
      <trkpt lat="43.605" lon="6.3187">
        <ele>719</ele>
        <time>2022-12-11T11:20:21Z</time>
      </trkpt>
      <trkpt lat="43.605" lon="6.3187">
        <ele>719</ele>
        <time>2022-12-11T11:20:22Z</time>
      </trkpt>
      <trkpt lat="43.605" lon="6.3187">
        <ele>719</ele>
        <time>2022-12-11T11:20:23Z</time>
      </trkpt>
      <trkpt lat="43.605" lon="6.3187">
        <ele>719</ele>
        <time>2022-12-11T11:20:24Z</time>
      </trkpt>
      <trkpt lat="43.605" lon="6.3187">
        <ele>719</ele>
        <time>2022-12-11T11:20:25Z</time>
      </trkpt>
      <trkpt lat="43.605" lon="6.3187">
        <ele>719</ele>
        <time>2022-12-11T11:20:26Z</time>
      </trkpt>
      <trkpt lat="43.605" lon="6.3187">
        <ele>719</ele>
        <time>2022-12-11T11:20:27Z</time>
      </trkpt>
      <trkpt lat="43.605" lon="6.3187">
        <ele>719</ele>
        <time>2022-12-11T11:20:28Z</time>
      </trkpt>
      <trkpt lat="43.605" lon="6.3187">
        <ele>719</ele>
        <time>2022-12-11T11:20:29Z</time>
      </trkpt>
      <trkpt lat="43.605" lon="6.3187">
        <ele>719</ele>
        <time>2022-12-11T11:20:30Z</time>
      </trkpt>
      <trkpt lat="43.605" lon="6.3187">
        <ele>719</ele>
        <time>2022-12-11T11:20:31Z</time>
      </trkpt>
      <trkpt lat="43.605" lon="6.3187">
        <ele>719</ele>
        <time>2022-12-11T11:20:32Z</time>
      </trkpt>
      <trkpt lat="43.605" lon="6.3187">
        <ele>719</ele>
        <time>2022-12-11T11:20:33Z</time>
      </trkpt>
      <trkpt lat="43.605" lon="6.3187">
        <ele>719</ele>
        <time>2022-12-11T11:20:34Z</time>
      </trkpt>
      <trkpt lat="43.605" lon="6.3187">
        <ele>719</ele>
        <time>2022-12-11T11:20:35Z</time>
      </trkpt>
      <trkpt lat="43.60501" lon="6.3187">
        <ele>719</ele>
        <time>2022-12-11T11:20:36Z</time>
      </trkpt>
      <trkpt lat="43.60501" lon="6.3187">
        <ele>719</ele>
        <time>2022-12-11T11:20:37Z</time>
      </trkpt>
      <trkpt lat="43.60501" lon="6.3187">
        <ele>719</ele>
        <time>2022-12-11T11:20:38Z</time>
      </trkpt>
      <trkpt lat="43.60501" lon="6.3187">
        <ele>719</ele>
        <time>2022-12-11T11:20:39Z</time>
      </trkpt>
      <trkpt lat="43.60501" lon="6.3187">
        <ele>719</ele>
        <time>2022-12-11T11:20:40Z</time>
      </trkpt>
      <trkpt lat="43.60501" lon="6.3187">
        <ele>719</ele>
        <time>2022-12-11T11:20:41Z</time>
      </trkpt>
      <trkpt lat="43.60501" lon="6.3187">
        <ele>719</ele>
        <time>2022-12-11T11:20:42Z</time>
      </trkpt>
      <trkpt lat="43.60501" lon="6.3187">
        <ele>719</ele>
        <time>2022-12-11T11:20:43Z</time>
      </trkpt>
      <trkpt lat="43.60501" lon="6.3187">
        <ele>719</ele>
        <time>2022-12-11T11:20:44Z</time>
      </trkpt>
      <trkpt lat="43.60501" lon="6.3187">
        <ele>719</ele>
        <time>2022-12-11T11:20:45Z</time>
      </trkpt>
      <trkpt lat="43.60501" lon="6.3187">
        <ele>719</ele>
        <time>2022-12-11T11:20:46Z</time>
      </trkpt>
      <trkpt lat="43.60501" lon="6.3187">
        <ele>719</ele>
        <time>2022-12-11T11:20:47Z</time>
      </trkpt>
      <trkpt lat="43.60501" lon="6.3187">
        <ele>719</ele>
        <time>2022-12-11T11:20:48Z</time>
      </trkpt>
      <trkpt lat="43.60501" lon="6.3187">
        <ele>719</ele>
        <time>2022-12-11T11:20:49Z</time>
      </trkpt>
      <trkpt lat="43.60501" lon="6.3187">
        <ele>719</ele>
        <time>2022-12-11T11:20:50Z</time>
      </trkpt>
      <trkpt lat="43.60501" lon="6.3187">
        <ele>719</ele>
        <time>2022-12-11T11:20:51Z</time>
      </trkpt>
      <trkpt lat="43.60501" lon="6.3187">
        <ele>719</ele>
        <time>2022-12-11T11:20:52Z</time>
      </trkpt>
      <trkpt lat="43.60501" lon="6.3187">
        <ele>719</ele>
        <time>2022-12-11T11:20:53Z</time>
      </trkpt>
      <trkpt lat="43.60501" lon="6.3187">
        <ele>719</ele>
        <time>2022-12-11T11:20:54Z</time>
      </trkpt>
      <trkpt lat="43.60501" lon="6.3187">
        <ele>719</ele>
        <time>2022-12-11T11:20:55Z</time>
      </trkpt>
      <trkpt lat="43.60501" lon="6.3187">
        <ele>719</ele>
        <time>2022-12-11T11:20:56Z</time>
      </trkpt>
      <trkpt lat="43.60501" lon="6.3187">
        <ele>719</ele>
        <time>2022-12-11T11:20:57Z</time>
      </trkpt>
      <trkpt lat="43.60501" lon="6.3187">
        <ele>719</ele>
        <time>2022-12-11T11:20:58Z</time>
      </trkpt>
      <trkpt lat="43.60501" lon="6.3187">
        <ele>719</ele>
        <time>2022-12-11T11:20:59Z</time>
      </trkpt>
      <trkpt lat="43.60501" lon="6.3187">
        <ele>719</ele>
        <time>2022-12-11T11:21:00Z</time>
      </trkpt>
      <trkpt lat="43.60501" lon="6.3187">
        <ele>719</ele>
        <time>2022-12-11T11:21:01Z</time>
      </trkpt>
      <trkpt lat="43.60501" lon="6.3187">
        <ele>719</ele>
        <time>2022-12-11T11:21:02Z</time>
      </trkpt>
      <trkpt lat="43.60501" lon="6.3187">
        <ele>719</ele>
        <time>2022-12-11T11:21:03Z</time>
      </trkpt>
      <trkpt lat="43.60501" lon="6.3187">
        <ele>719</ele>
        <time>2022-12-11T11:21:04Z</time>
      </trkpt>
      <trkpt lat="43.60501" lon="6.31872">
        <ele>719</ele>
        <time>2022-12-11T11:21:05Z</time>
      </trkpt>
      <trkpt lat="43.60501" lon="6.31872">
        <ele>719</ele>
        <time>2022-12-11T11:21:06Z</time>
      </trkpt>
      <trkpt lat="43.60501" lon="6.31872">
        <ele>719</ele>
        <time>2022-12-11T11:21:07Z</time>
      </trkpt>
      <trkpt lat="43.60501" lon="6.31872">
        <ele>719</ele>
        <time>2022-12-11T11:21:08Z</time>
      </trkpt>
      <trkpt lat="43.60501" lon="6.31872">
        <ele>719</ele>
        <time>2022-12-11T11:21:09Z</time>
      </trkpt>
      <trkpt lat="43.60501" lon="6.31872">
        <ele>719</ele>
        <time>2022-12-11T11:21:10Z</time>
      </trkpt>
      <trkpt lat="43.60501" lon="6.31872">
        <ele>719</ele>
        <time>2022-12-11T11:21:11Z</time>
      </trkpt>
      <trkpt lat="43.60501" lon="6.31872">
        <ele>719</ele>
        <time>2022-12-11T11:21:12Z</time>
      </trkpt>
      <trkpt lat="43.60501" lon="6.31872">
        <ele>719</ele>
        <time>2022-12-11T11:21:13Z</time>
      </trkpt>
      <trkpt lat="43.60501" lon="6.31872">
        <ele>719</ele>
        <time>2022-12-11T11:21:14Z</time>
      </trkpt>
      <trkpt lat="43.60501" lon="6.31872">
        <ele>719</ele>
        <time>2022-12-11T11:21:15Z</time>
      </trkpt>
      <trkpt lat="43.60501" lon="6.31873">
        <ele>719</ele>
        <time>2022-12-11T11:21:16Z</time>
      </trkpt>
      <trkpt lat="43.60501" lon="6.31873">
        <ele>719</ele>
        <time>2022-12-11T11:21:17Z</time>
      </trkpt>
      <trkpt lat="43.60501" lon="6.31873">
        <ele>719</ele>
        <time>2022-12-11T11:21:18Z</time>
      </trkpt>
      <trkpt lat="43.60501" lon="6.31873">
        <ele>719</ele>
        <time>2022-12-11T11:21:19Z</time>
      </trkpt>
      <trkpt lat="43.60501" lon="6.31873">
        <ele>719</ele>
        <time>2022-12-11T11:21:20Z</time>
      </trkpt>
      <trkpt lat="43.60501" lon="6.31873">
        <ele>719</ele>
        <time>2022-12-11T11:21:21Z</time>
      </trkpt>
      <trkpt lat="43.60501" lon="6.31873">
        <ele>718</ele>
        <time>2022-12-11T11:21:22Z</time>
      </trkpt>
      <trkpt lat="43.60501" lon="6.31873">
        <ele>718</ele>
        <time>2022-12-11T11:21:23Z</time>
      </trkpt>
      <trkpt lat="43.60501" lon="6.31873">
        <ele>718</ele>
        <time>2022-12-11T11:21:24Z</time>
      </trkpt>
      <trkpt lat="43.60501" lon="6.31873">
        <ele>718</ele>
        <time>2022-12-11T11:21:25Z</time>
      </trkpt>
      <trkpt lat="43.60501" lon="6.31873">
        <ele>718</ele>
        <time>2022-12-11T11:21:26Z</time>
      </trkpt>
      <trkpt lat="43.60501" lon="6.31873">
        <ele>718</ele>
        <time>2022-12-11T11:21:27Z</time>
      </trkpt>
      <trkpt lat="43.60501" lon="6.31873">
        <ele>718</ele>
        <time>2022-12-11T11:21:28Z</time>
      </trkpt>
      <trkpt lat="43.60501" lon="6.31873">
        <ele>718</ele>
        <time>2022-12-11T11:21:29Z</time>
      </trkpt>
      <trkpt lat="43.60501" lon="6.31873">
        <ele>718</ele>
        <time>2022-12-11T11:21:30Z</time>
      </trkpt>
      <trkpt lat="43.60501" lon="6.31873">
        <ele>718</ele>
        <time>2022-12-11T11:21:31Z</time>
      </trkpt>
      <trkpt lat="43.60502" lon="6.31873">
        <ele>718</ele>
        <time>2022-12-11T11:21:32Z</time>
      </trkpt>
      <trkpt lat="43.60502" lon="6.31873">
        <ele>718</ele>
        <time>2022-12-11T11:21:33Z</time>
      </trkpt>
      <trkpt lat="43.60502" lon="6.31873">
        <ele>718</ele>
        <time>2022-12-11T11:21:34Z</time>
      </trkpt>
      <trkpt lat="43.60502" lon="6.31873">
        <ele>718</ele>
        <time>2022-12-11T11:21:35Z</time>
      </trkpt>
      <trkpt lat="43.60502" lon="6.31873">
        <ele>718</ele>
        <time>2022-12-11T11:21:36Z</time>
      </trkpt>
      <trkpt lat="43.60502" lon="6.31873">
        <ele>718</ele>
        <time>2022-12-11T11:21:37Z</time>
      </trkpt>
      <trkpt lat="43.60502" lon="6.31874">
        <ele>718</ele>
        <time>2022-12-11T11:21:38Z</time>
      </trkpt>
      <trkpt lat="43.60502" lon="6.31874">
        <ele>718</ele>
        <time>2022-12-11T11:21:39Z</time>
      </trkpt>
      <trkpt lat="43.60502" lon="6.31874">
        <ele>718</ele>
        <time>2022-12-11T11:21:40Z</time>
      </trkpt>
      <trkpt lat="43.60502" lon="6.31874">
        <ele>718</ele>
        <time>2022-12-11T11:21:41Z</time>
      </trkpt>
      <trkpt lat="43.60502" lon="6.31874">
        <ele>718</ele>
        <time>2022-12-11T11:21:42Z</time>
      </trkpt>
      <trkpt lat="43.60502" lon="6.31874">
        <ele>718</ele>
        <time>2022-12-11T11:21:43Z</time>
      </trkpt>
      <trkpt lat="43.60502" lon="6.31874">
        <ele>718</ele>
        <time>2022-12-11T11:21:44Z</time>
      </trkpt>
      <trkpt lat="43.60502" lon="6.31874">
        <ele>718</ele>
        <time>2022-12-11T11:21:45Z</time>
      </trkpt>
      <trkpt lat="43.60502" lon="6.31874">
        <ele>718</ele>
        <time>2022-12-11T11:21:46Z</time>
      </trkpt>
      <trkpt lat="43.60502" lon="6.31874">
        <ele>718</ele>
        <time>2022-12-11T11:21:47Z</time>
      </trkpt>
      <trkpt lat="43.60502" lon="6.31874">
        <ele>718</ele>
        <time>2022-12-11T11:21:48Z</time>
      </trkpt>
      <trkpt lat="43.60502" lon="6.31874">
        <ele>718</ele>
        <time>2022-12-11T11:21:49Z</time>
      </trkpt>
      <trkpt lat="43.60502" lon="6.31874">
        <ele>718</ele>
        <time>2022-12-11T11:21:50Z</time>
      </trkpt>
      <trkpt lat="43.60502" lon="6.31874">
        <ele>718</ele>
        <time>2022-12-11T11:21:51Z</time>
      </trkpt>
      <trkpt lat="43.60502" lon="6.31874">
        <ele>718</ele>
        <time>2022-12-11T11:21:52Z</time>
      </trkpt>
      <trkpt lat="43.60502" lon="6.31874">
        <ele>718</ele>
        <time>2022-12-11T11:21:53Z</time>
      </trkpt>
      <trkpt lat="43.60502" lon="6.31874">
        <ele>718</ele>
        <time>2022-12-11T11:21:54Z</time>
      </trkpt>
      <trkpt lat="43.60502" lon="6.31874">
        <ele>718</ele>
        <time>2022-12-11T11:21:55Z</time>
      </trkpt>
      <trkpt lat="43.60502" lon="6.31874">
        <ele>718</ele>
        <time>2022-12-11T11:21:56Z</time>
      </trkpt>
      <trkpt lat="43.60502" lon="6.31874">
        <ele>718</ele>
        <time>2022-12-11T11:21:57Z</time>
      </trkpt>
      <trkpt lat="43.60502" lon="6.31874">
        <ele>718</ele>
        <time>2022-12-11T11:21:58Z</time>
      </trkpt>
      <trkpt lat="43.60502" lon="6.31874">
        <ele>718</ele>
        <time>2022-12-11T11:21:59Z</time>
      </trkpt>
      <trkpt lat="43.60502" lon="6.31874">
        <ele>718</ele>
        <time>2022-12-11T11:22:00Z</time>
      </trkpt>
      <trkpt lat="43.60502" lon="6.31874">
        <ele>718</ele>
        <time>2022-12-11T11:22:01Z</time>
      </trkpt>
      <trkpt lat="43.60502" lon="6.31874">
        <ele>718</ele>
        <time>2022-12-11T11:22:02Z</time>
      </trkpt>
      <trkpt lat="43.60502" lon="6.31874">
        <ele>718</ele>
        <time>2022-12-11T11:22:03Z</time>
      </trkpt>
      <trkpt lat="43.60502" lon="6.31874">
        <ele>718</ele>
        <time>2022-12-11T11:22:04Z</time>
      </trkpt>
      <trkpt lat="43.60502" lon="6.31874">
        <ele>718</ele>
        <time>2022-12-11T11:22:05Z</time>
      </trkpt>
      <trkpt lat="43.60502" lon="6.31874">
        <ele>718</ele>
        <time>2022-12-11T11:22:06Z</time>
      </trkpt>
      <trkpt lat="43.60502" lon="6.31874">
        <ele>718</ele>
        <time>2022-12-11T11:22:07Z</time>
      </trkpt>
      <trkpt lat="43.60502" lon="6.31874">
        <ele>718</ele>
        <time>2022-12-11T11:22:08Z</time>
      </trkpt>
      <trkpt lat="43.60502" lon="6.31874">
        <ele>718</ele>
        <time>2022-12-11T11:22:09Z</time>
      </trkpt>
      <trkpt lat="43.60502" lon="6.31874">
        <ele>718</ele>
        <time>2022-12-11T11:22:10Z</time>
      </trkpt>
      <trkpt lat="43.60502" lon="6.31874">
        <ele>718</ele>
        <time>2022-12-11T11:22:11Z</time>
      </trkpt>
      <trkpt lat="43.60502" lon="6.31874">
        <ele>718</ele>
        <time>2022-12-11T11:22:12Z</time>
      </trkpt>
      <trkpt lat="43.60502" lon="6.31874">
        <ele>718</ele>
        <time>2022-12-11T11:22:13Z</time>
      </trkpt>
      <trkpt lat="43.60502" lon="6.31874">
        <ele>718</ele>
        <time>2022-12-11T11:22:14Z</time>
      </trkpt>
      <trkpt lat="43.60502" lon="6.31874">
        <ele>718</ele>
        <time>2022-12-11T11:22:15Z</time>
      </trkpt>
      <trkpt lat="43.60502" lon="6.31874">
        <ele>718</ele>
        <time>2022-12-11T11:22:16Z</time>
      </trkpt>
      <trkpt lat="43.60502" lon="6.31874">
        <ele>718</ele>
        <time>2022-12-11T11:22:17Z</time>
      </trkpt>
      <trkpt lat="43.60502" lon="6.31874">
        <ele>718</ele>
        <time>2022-12-11T11:22:18Z</time>
      </trkpt>
      <trkpt lat="43.60502" lon="6.31874">
        <ele>718</ele>
        <time>2022-12-11T11:22:19Z</time>
      </trkpt>
      <trkpt lat="43.60502" lon="6.31874">
        <ele>718</ele>
        <time>2022-12-11T11:22:20Z</time>
      </trkpt>
      <trkpt lat="43.60502" lon="6.31874">
        <ele>718</ele>
        <time>2022-12-11T11:22:21Z</time>
      </trkpt>
      <trkpt lat="43.60502" lon="6.31874">
        <ele>718</ele>
        <time>2022-12-11T11:22:22Z</time>
      </trkpt>
      <trkpt lat="43.60502" lon="6.31874">
        <ele>718</ele>
        <time>2022-12-11T11:22:23Z</time>
      </trkpt>
      <trkpt lat="43.60502" lon="6.31874">
        <ele>718</ele>
        <time>2022-12-11T11:22:24Z</time>
      </trkpt>
      <trkpt lat="43.60502" lon="6.31874">
        <ele>718</ele>
        <time>2022-12-11T11:22:25Z</time>
      </trkpt>
      <trkpt lat="43.60502" lon="6.31874">
        <ele>718</ele>
        <time>2022-12-11T11:22:26Z</time>
      </trkpt>
      <trkpt lat="43.60502" lon="6.31874">
        <ele>718</ele>
        <time>2022-12-11T11:22:27Z</time>
      </trkpt>
      <trkpt lat="43.60502" lon="6.31874">
        <ele>718</ele>
        <time>2022-12-11T11:22:28Z</time>
      </trkpt>
      <trkpt lat="43.60502" lon="6.31874">
        <ele>718</ele>
        <time>2022-12-11T11:22:29Z</time>
      </trkpt>
      <trkpt lat="43.60502" lon="6.31874">
        <ele>718</ele>
        <time>2022-12-11T11:22:30Z</time>
      </trkpt>
      <trkpt lat="43.60502" lon="6.31874">
        <ele>718</ele>
        <time>2022-12-11T11:22:31Z</time>
      </trkpt>
      <trkpt lat="43.60502" lon="6.31874">
        <ele>718</ele>
        <time>2022-12-11T11:22:32Z</time>
      </trkpt>
      <trkpt lat="43.60502" lon="6.31874">
        <ele>718</ele>
        <time>2022-12-11T11:22:33Z</time>
      </trkpt>
      <trkpt lat="43.60502" lon="6.31874">
        <ele>718</ele>
        <time>2022-12-11T11:22:34Z</time>
      </trkpt>
      <trkpt lat="43.60502" lon="6.31874">
        <ele>718</ele>
        <time>2022-12-11T11:22:35Z</time>
      </trkpt>
      <trkpt lat="43.60502" lon="6.31874">
        <ele>718</ele>
        <time>2022-12-11T11:22:36Z</time>
      </trkpt>
      <trkpt lat="43.60502" lon="6.31874">
        <ele>718</ele>
        <time>2022-12-11T11:22:37Z</time>
      </trkpt>
      <trkpt lat="43.60502" lon="6.31874">
        <ele>718</ele>
        <time>2022-12-11T11:22:38Z</time>
      </trkpt>
      <trkpt lat="43.60502" lon="6.31874">
        <ele>718</ele>
        <time>2022-12-11T11:22:39Z</time>
      </trkpt>
      <trkpt lat="43.60502" lon="6.31874">
        <ele>718</ele>
        <time>2022-12-11T11:22:40Z</time>
      </trkpt>
      <trkpt lat="43.60502" lon="6.31874">
        <ele>718</ele>
        <time>2022-12-11T11:22:41Z</time>
      </trkpt>
      <trkpt lat="43.60502" lon="6.31874">
        <ele>718</ele>
        <time>2022-12-11T11:22:42Z</time>
      </trkpt>
      <trkpt lat="43.60502" lon="6.31874">
        <ele>718</ele>
        <time>2022-12-11T11:22:43Z</time>
      </trkpt>
      <trkpt lat="43.60502" lon="6.31875">
        <ele>718</ele>
        <time>2022-12-11T11:22:44Z</time>
      </trkpt>
      <trkpt lat="43.60502" lon="6.31875">
        <ele>718</ele>
        <time>2022-12-11T11:22:45Z</time>
      </trkpt>
      <trkpt lat="43.60502" lon="6.31875">
        <ele>718</ele>
        <time>2022-12-11T11:22:46Z</time>
      </trkpt>
      <trkpt lat="43.60502" lon="6.31875">
        <ele>718</ele>
        <time>2022-12-11T11:22:47Z</time>
      </trkpt>
      <trkpt lat="43.60502" lon="6.31875">
        <ele>718</ele>
        <time>2022-12-11T11:22:48Z</time>
      </trkpt>
      <trkpt lat="43.60502" lon="6.31875">
        <ele>718</ele>
        <time>2022-12-11T11:22:49Z</time>
      </trkpt>
      <trkpt lat="43.60502" lon="6.31875">
        <ele>718</ele>
        <time>2022-12-11T11:22:50Z</time>
      </trkpt>
      <trkpt lat="43.60502" lon="6.31875">
        <ele>718</ele>
        <time>2022-12-11T11:22:51Z</time>
      </trkpt>
      <trkpt lat="43.60502" lon="6.31875">
        <ele>718</ele>
        <time>2022-12-11T11:22:52Z</time>
      </trkpt>
      <trkpt lat="43.60502" lon="6.31875">
        <ele>718</ele>
        <time>2022-12-11T11:22:53Z</time>
      </trkpt>
      <trkpt lat="43.60502" lon="6.31875">
        <ele>718</ele>
        <time>2022-12-11T11:22:54Z</time>
      </trkpt>
      <trkpt lat="43.60502" lon="6.31875">
        <ele>718</ele>
        <time>2022-12-11T11:22:55Z</time>
      </trkpt>
      <trkpt lat="43.60502" lon="6.31875">
        <ele>718</ele>
        <time>2022-12-11T11:22:56Z</time>
      </trkpt>
      <trkpt lat="43.60502" lon="6.31875">
        <ele>718</ele>
        <time>2022-12-11T11:22:57Z</time>
      </trkpt>
      <trkpt lat="43.60502" lon="6.31876">
        <ele>718</ele>
        <time>2022-12-11T11:22:58Z</time>
      </trkpt>
      <trkpt lat="43.60502" lon="6.31876">
        <ele>718</ele>
        <time>2022-12-11T11:22:59Z</time>
      </trkpt>
      <trkpt lat="43.60502" lon="6.31876">
        <ele>718</ele>
        <time>2022-12-11T11:23:00Z</time>
      </trkpt>
      <trkpt lat="43.60502" lon="6.31876">
        <ele>718</ele>
        <time>2022-12-11T11:23:01Z</time>
      </trkpt>
      <trkpt lat="43.60501" lon="6.31876">
        <ele>718</ele>
        <time>2022-12-11T11:23:02Z</time>
      </trkpt>
      <trkpt lat="43.60501" lon="6.31875">
        <ele>718</ele>
        <time>2022-12-11T11:23:03Z</time>
      </trkpt>
      <trkpt lat="43.605" lon="6.31875">
        <ele>718</ele>
        <time>2022-12-11T11:23:04Z</time>
      </trkpt>
      <trkpt lat="43.60499" lon="6.31875">
        <ele>718</ele>
        <time>2022-12-11T11:23:05Z</time>
      </trkpt>
      <trkpt lat="43.60499" lon="6.31875">
        <ele>718</ele>
        <time>2022-12-11T11:23:06Z</time>
      </trkpt>
      <trkpt lat="43.60499" lon="6.31875">
        <ele>718</ele>
        <time>2022-12-11T11:23:07Z</time>
      </trkpt>
      <trkpt lat="43.60499" lon="6.31874">
        <ele>718</ele>
        <time>2022-12-11T11:23:08Z</time>
      </trkpt>
      <trkpt lat="43.60498" lon="6.31874">
        <ele>718</ele>
        <time>2022-12-11T11:23:09Z</time>
      </trkpt>
      <trkpt lat="43.60498" lon="6.31874">
        <ele>718</ele>
        <time>2022-12-11T11:23:10Z</time>
      </trkpt>
      <trkpt lat="43.60497" lon="6.31873">
        <ele>718</ele>
        <time>2022-12-11T11:23:11Z</time>
      </trkpt>
      <trkpt lat="43.60496" lon="6.31873">
        <ele>718</ele>
        <time>2022-12-11T11:23:12Z</time>
      </trkpt>
      <trkpt lat="43.60495" lon="6.31873">
        <ele>718</ele>
        <time>2022-12-11T11:23:13Z</time>
      </trkpt>
      <trkpt lat="43.60494" lon="6.31874">
        <ele>716</ele>
        <time>2022-12-11T11:23:14Z</time>
      </trkpt>
      <trkpt lat="43.60493" lon="6.31874">
        <ele>715</ele>
        <time>2022-12-11T11:23:15Z</time>
      </trkpt>
      <trkpt lat="43.60492" lon="6.31874">
        <ele>715</ele>
        <time>2022-12-11T11:23:16Z</time>
      </trkpt>
      <trkpt lat="43.60492" lon="6.31874">
        <ele>715</ele>
        <time>2022-12-11T11:23:17Z</time>
      </trkpt>
      <trkpt lat="43.60491" lon="6.31874">
        <ele>714</ele>
        <time>2022-12-11T11:23:18Z</time>
      </trkpt>
      <trkpt lat="43.60491" lon="6.31875">
        <ele>714</ele>
        <time>2022-12-11T11:23:19Z</time>
      </trkpt>
      <trkpt lat="43.6049" lon="6.31876">
        <ele>714</ele>
        <time>2022-12-11T11:23:20Z</time>
      </trkpt>
      <trkpt lat="43.6049" lon="6.31876">
        <ele>714</ele>
        <time>2022-12-11T11:23:21Z</time>
      </trkpt>
      <trkpt lat="43.60489" lon="6.31877">
        <ele>713</ele>
        <time>2022-12-11T11:23:22Z</time>
      </trkpt>
      <trkpt lat="43.60489" lon="6.31878">
        <ele>713</ele>
        <time>2022-12-11T11:23:23Z</time>
      </trkpt>
      <trkpt lat="43.60489" lon="6.31879">
        <ele>713</ele>
        <time>2022-12-11T11:23:24Z</time>
      </trkpt>
      <trkpt lat="43.60488" lon="6.3188">
        <ele>713</ele>
        <time>2022-12-11T11:23:25Z</time>
      </trkpt>
      <trkpt lat="43.60488" lon="6.31881">
        <ele>713</ele>
        <time>2022-12-11T11:23:26Z</time>
      </trkpt>
      <trkpt lat="43.60487" lon="6.31882">
        <ele>713</ele>
        <time>2022-12-11T11:23:27Z</time>
      </trkpt>
      <trkpt lat="43.60486" lon="6.31884">
        <ele>712</ele>
        <time>2022-12-11T11:23:28Z</time>
      </trkpt>
      <trkpt lat="43.60486" lon="6.31885">
        <ele>711</ele>
        <time>2022-12-11T11:23:29Z</time>
      </trkpt>
      <trkpt lat="43.60485" lon="6.31887">
        <ele>711</ele>
        <time>2022-12-11T11:23:30Z</time>
      </trkpt>
      <trkpt lat="43.60485" lon="6.31888">
        <ele>711</ele>
        <time>2022-12-11T11:23:31Z</time>
      </trkpt>
      <trkpt lat="43.60485" lon="6.31888">
        <ele>711</ele>
        <time>2022-12-11T11:23:32Z</time>
      </trkpt>
      <trkpt lat="43.60485" lon="6.31889">
        <ele>711</ele>
        <time>2022-12-11T11:23:33Z</time>
      </trkpt>
      <trkpt lat="43.60485" lon="6.31889">
        <ele>711</ele>
        <time>2022-12-11T11:23:34Z</time>
      </trkpt>
      <trkpt lat="43.60485" lon="6.31889">
        <ele>711</ele>
        <time>2022-12-11T11:23:35Z</time>
      </trkpt>
      <trkpt lat="43.60485" lon="6.3189">
        <ele>711</ele>
        <time>2022-12-11T11:23:36Z</time>
      </trkpt>
      <trkpt lat="43.60484" lon="6.31891">
        <ele>711</ele>
        <time>2022-12-11T11:23:37Z</time>
      </trkpt>
      <trkpt lat="43.60484" lon="6.31893">
        <ele>711</ele>
        <time>2022-12-11T11:23:38Z</time>
      </trkpt>
      <trkpt lat="43.60484" lon="6.31896">
        <ele>711</ele>
        <time>2022-12-11T11:23:39Z</time>
      </trkpt>
      <trkpt lat="43.60484" lon="6.31899">
        <ele>710</ele>
        <time>2022-12-11T11:23:40Z</time>
      </trkpt>
      <trkpt lat="43.60484" lon="6.31902">
        <ele>710</ele>
        <time>2022-12-11T11:23:41Z</time>
      </trkpt>
      <trkpt lat="43.60485" lon="6.31905">
        <ele>709</ele>
        <time>2022-12-11T11:23:42Z</time>
      </trkpt>
      <trkpt lat="43.60485" lon="6.31908">
        <ele>709</ele>
        <time>2022-12-11T11:23:43Z</time>
      </trkpt>
      <trkpt lat="43.60485" lon="6.31911">
        <ele>709</ele>
        <time>2022-12-11T11:23:44Z</time>
      </trkpt>
      <trkpt lat="43.60485" lon="6.31913">
        <ele>709</ele>
        <time>2022-12-11T11:23:45Z</time>
      </trkpt>
      <trkpt lat="43.60485" lon="6.31915">
        <ele>708</ele>
        <time>2022-12-11T11:23:46Z</time>
      </trkpt>
      <trkpt lat="43.60485" lon="6.31918">
        <ele>708</ele>
        <time>2022-12-11T11:23:47Z</time>
      </trkpt>
      <trkpt lat="43.60485" lon="6.3192">
        <ele>708</ele>
        <time>2022-12-11T11:23:48Z</time>
      </trkpt>
      <trkpt lat="43.60485" lon="6.31922">
        <ele>708</ele>
        <time>2022-12-11T11:23:49Z</time>
      </trkpt>
      <trkpt lat="43.60486" lon="6.31924">
        <ele>708</ele>
        <time>2022-12-11T11:23:50Z</time>
      </trkpt>
      <trkpt lat="43.60487" lon="6.31927">
        <ele>708</ele>
        <time>2022-12-11T11:23:51Z</time>
      </trkpt>
      <trkpt lat="43.60487" lon="6.31929">
        <ele>709</ele>
        <time>2022-12-11T11:23:52Z</time>
      </trkpt>
      <trkpt lat="43.60488" lon="6.3193">
        <ele>709</ele>
        <time>2022-12-11T11:23:53Z</time>
      </trkpt>
      <trkpt lat="43.60489" lon="6.31931">
        <ele>709</ele>
        <time>2022-12-11T11:23:54Z</time>
      </trkpt>
      <trkpt lat="43.6049" lon="6.31932">
        <ele>708</ele>
        <time>2022-12-11T11:23:55Z</time>
      </trkpt>
      <trkpt lat="43.60491" lon="6.31933">
        <ele>708</ele>
        <time>2022-12-11T11:23:56Z</time>
      </trkpt>
      <trkpt lat="43.60491" lon="6.31934">
        <ele>708</ele>
        <time>2022-12-11T11:23:57Z</time>
      </trkpt>
      <trkpt lat="43.60492" lon="6.31935">
        <ele>708</ele>
        <time>2022-12-11T11:23:58Z</time>
      </trkpt>
      <trkpt lat="43.60492" lon="6.31937">
        <ele>708</ele>
        <time>2022-12-11T11:23:59Z</time>
      </trkpt>
      <trkpt lat="43.60492" lon="6.31938">
        <ele>708</ele>
        <time>2022-12-11T11:24:00Z</time>
      </trkpt>
      <trkpt lat="43.60493" lon="6.31939">
        <ele>708</ele>
        <time>2022-12-11T11:24:01Z</time>
      </trkpt>
      <trkpt lat="43.60493" lon="6.3194">
        <ele>708</ele>
        <time>2022-12-11T11:24:02Z</time>
      </trkpt>
      <trkpt lat="43.60494" lon="6.31941">
        <ele>708</ele>
        <time>2022-12-11T11:24:03Z</time>
      </trkpt>
      <trkpt lat="43.60494" lon="6.31942">
        <ele>708</ele>
        <time>2022-12-11T11:24:04Z</time>
      </trkpt>
      <trkpt lat="43.60494" lon="6.31944">
        <ele>708</ele>
        <time>2022-12-11T11:24:05Z</time>
      </trkpt>
      <trkpt lat="43.60494" lon="6.31946">
        <ele>709</ele>
        <time>2022-12-11T11:24:06Z</time>
      </trkpt>
      <trkpt lat="43.60494" lon="6.31948">
        <ele>709</ele>
        <time>2022-12-11T11:24:07Z</time>
      </trkpt>
      <trkpt lat="43.60494" lon="6.3195">
        <ele>709</ele>
        <time>2022-12-11T11:24:08Z</time>
      </trkpt>
      <trkpt lat="43.60494" lon="6.31951">
        <ele>709</ele>
        <time>2022-12-11T11:24:09Z</time>
      </trkpt>
      <trkpt lat="43.60495" lon="6.31951">
        <ele>709</ele>
        <time>2022-12-11T11:24:10Z</time>
      </trkpt>
      <trkpt lat="43.60495" lon="6.31952">
        <ele>709</ele>
        <time>2022-12-11T11:24:11Z</time>
      </trkpt>
      <trkpt lat="43.60496" lon="6.31952">
        <ele>710</ele>
        <time>2022-12-11T11:24:12Z</time>
      </trkpt>
      <trkpt lat="43.60497" lon="6.31953">
        <ele>710</ele>
        <time>2022-12-11T11:24:13Z</time>
      </trkpt>
      <trkpt lat="43.60498" lon="6.31953">
        <ele>711</ele>
        <time>2022-12-11T11:24:14Z</time>
      </trkpt>
      <trkpt lat="43.60499" lon="6.31954">
        <ele>711</ele>
        <time>2022-12-11T11:24:15Z</time>
      </trkpt>
      <trkpt lat="43.605" lon="6.31954">
        <ele>711</ele>
        <time>2022-12-11T11:24:16Z</time>
      </trkpt>
      <trkpt lat="43.60501" lon="6.31954">
        <ele>711</ele>
        <time>2022-12-11T11:24:17Z</time>
      </trkpt>
      <trkpt lat="43.60502" lon="6.31954">
        <ele>711</ele>
        <time>2022-12-11T11:24:18Z</time>
      </trkpt>
      <trkpt lat="43.60502" lon="6.31954">
        <ele>711</ele>
        <time>2022-12-11T11:24:19Z</time>
      </trkpt>
      <trkpt lat="43.60503" lon="6.31954">
        <ele>711</ele>
        <time>2022-12-11T11:24:20Z</time>
      </trkpt>
      <trkpt lat="43.60504" lon="6.31954">
        <ele>711</ele>
        <time>2022-12-11T11:24:21Z</time>
      </trkpt>
      <trkpt lat="43.60505" lon="6.31954">
        <ele>711</ele>
        <time>2022-12-11T11:24:22Z</time>
      </trkpt>
      <trkpt lat="43.60505" lon="6.31954">
        <ele>711</ele>
        <time>2022-12-11T11:24:23Z</time>
      </trkpt>
      <trkpt lat="43.60506" lon="6.31954">
        <ele>711</ele>
        <time>2022-12-11T11:24:24Z</time>
      </trkpt>
      <trkpt lat="43.60506" lon="6.31954">
        <ele>711</ele>
        <time>2022-12-11T11:24:25Z</time>
      </trkpt>
      <trkpt lat="43.60506" lon="6.31954">
        <ele>711</ele>
        <time>2022-12-11T11:24:26Z</time>
      </trkpt>
      <trkpt lat="43.60506" lon="6.31954">
        <ele>711</ele>
        <time>2022-12-11T11:24:27Z</time>
      </trkpt>
      <trkpt lat="43.60506" lon="6.31954">
        <ele>711</ele>
        <time>2022-12-11T11:24:28Z</time>
      </trkpt>
      <trkpt lat="43.60506" lon="6.31954">
        <ele>711</ele>
        <time>2022-12-11T11:24:29Z</time>
      </trkpt>
      <trkpt lat="43.60506" lon="6.31954">
        <ele>711</ele>
        <time>2022-12-11T11:24:30Z</time>
      </trkpt>
      <trkpt lat="43.60504" lon="6.31953">
        <ele>711</ele>
        <time>2022-12-11T11:24:31Z</time>
      </trkpt>
      <trkpt lat="43.60503" lon="6.31953">
        <ele>711</ele>
        <time>2022-12-11T11:24:32Z</time>
      </trkpt>
      <trkpt lat="43.60503" lon="6.31952">
        <ele>711</ele>
        <time>2022-12-11T11:24:33Z</time>
      </trkpt>
      <trkpt lat="43.60504" lon="6.31951">
        <ele>711</ele>
        <time>2022-12-11T11:24:34Z</time>
      </trkpt>
      <trkpt lat="43.60504" lon="6.3195">
        <ele>711</ele>
        <time>2022-12-11T11:24:35Z</time>
      </trkpt>
      <trkpt lat="43.60504" lon="6.31949">
        <ele>711</ele>
        <time>2022-12-11T11:24:36Z</time>
      </trkpt>
      <trkpt lat="43.60504" lon="6.31949">
        <ele>711</ele>
        <time>2022-12-11T11:24:37Z</time>
      </trkpt>
      <trkpt lat="43.60504" lon="6.31949">
        <ele>711</ele>
        <time>2022-12-11T11:24:38Z</time>
      </trkpt>
      <trkpt lat="43.60504" lon="6.31949">
        <ele>711</ele>
        <time>2022-12-11T11:24:39Z</time>
      </trkpt>
      <trkpt lat="43.60504" lon="6.31949">
        <ele>711</ele>
        <time>2022-12-11T11:24:40Z</time>
      </trkpt>
      <trkpt lat="43.60504" lon="6.31949">
        <ele>711</ele>
        <time>2022-12-11T11:24:41Z</time>
      </trkpt>
      <trkpt lat="43.60504" lon="6.31949">
        <ele>711</ele>
        <time>2022-12-11T11:24:42Z</time>
      </trkpt>
      <trkpt lat="43.60504" lon="6.31949">
        <ele>711</ele>
        <time>2022-12-11T11:24:43Z</time>
      </trkpt>
      <trkpt lat="43.60504" lon="6.31949">
        <ele>711</ele>
        <time>2022-12-11T11:24:44Z</time>
      </trkpt>
      <trkpt lat="43.60504" lon="6.31949">
        <ele>711</ele>
        <time>2022-12-11T11:24:45Z</time>
      </trkpt>
      <trkpt lat="43.60504" lon="6.31949">
        <ele>711</ele>
        <time>2022-12-11T11:24:46Z</time>
      </trkpt>
      <trkpt lat="43.60504" lon="6.31949">
        <ele>711</ele>
        <time>2022-12-11T11:24:47Z</time>
      </trkpt>
      <trkpt lat="43.60504" lon="6.31949">
        <ele>711</ele>
        <time>2022-12-11T11:24:48Z</time>
      </trkpt>
      <trkpt lat="43.60504" lon="6.31949">
        <ele>711</ele>
        <time>2022-12-11T11:24:49Z</time>
      </trkpt>
      <trkpt lat="43.60504" lon="6.31949">
        <ele>711</ele>
        <time>2022-12-11T11:24:50Z</time>
      </trkpt>
      <trkpt lat="43.60504" lon="6.31949">
        <ele>711</ele>
        <time>2022-12-11T11:24:51Z</time>
      </trkpt>
      <trkpt lat="43.60505" lon="6.31946">
        <ele>711</ele>
        <time>2022-12-11T11:24:52Z</time>
      </trkpt>
      <trkpt lat="43.60505" lon="6.31946">
        <ele>711</ele>
        <time>2022-12-11T11:24:53Z</time>
      </trkpt>
      <trkpt lat="43.60505" lon="6.31946">
        <ele>711</ele>
        <time>2022-12-11T11:24:54Z</time>
      </trkpt>
      <trkpt lat="43.60505" lon="6.31946">
        <ele>711</ele>
        <time>2022-12-11T11:24:55Z</time>
      </trkpt>
      <trkpt lat="43.60505" lon="6.31946">
        <ele>711</ele>
        <time>2022-12-11T11:24:56Z</time>
      </trkpt>
      <trkpt lat="43.60505" lon="6.31946">
        <ele>711</ele>
        <time>2022-12-11T11:24:57Z</time>
      </trkpt>
      <trkpt lat="43.60505" lon="6.31946">
        <ele>711</ele>
        <time>2022-12-11T11:24:58Z</time>
      </trkpt>
      <trkpt lat="43.60505" lon="6.31946">
        <ele>711</ele>
        <time>2022-12-11T11:24:59Z</time>
      </trkpt>
      <trkpt lat="43.60506" lon="6.31946">
        <ele>711</ele>
        <time>2022-12-11T11:25:00Z</time>
      </trkpt>
      <trkpt lat="43.60506" lon="6.31946">
        <ele>711</ele>
        <time>2022-12-11T11:25:01Z</time>
      </trkpt>
      <trkpt lat="43.60506" lon="6.31946">
        <ele>711</ele>
        <time>2022-12-11T11:25:02Z</time>
      </trkpt>
      <trkpt lat="43.60506" lon="6.31946">
        <ele>711</ele>
        <time>2022-12-11T11:25:03Z</time>
      </trkpt>
      <trkpt lat="43.60507" lon="6.31945">
        <ele>711</ele>
        <time>2022-12-11T11:25:04Z</time>
      </trkpt>
      <trkpt lat="43.60507" lon="6.31945">
        <ele>711</ele>
        <time>2022-12-11T11:25:05Z</time>
      </trkpt>
      <trkpt lat="43.60507" lon="6.31945">
        <ele>711</ele>
        <time>2022-12-11T11:25:06Z</time>
      </trkpt>
      <trkpt lat="43.60508" lon="6.31945">
        <ele>711</ele>
        <time>2022-12-11T11:25:07Z</time>
      </trkpt>
      <trkpt lat="43.60508" lon="6.31944">
        <ele>711</ele>
        <time>2022-12-11T11:25:08Z</time>
      </trkpt>
      <trkpt lat="43.60508" lon="6.31944">
        <ele>711</ele>
        <time>2022-12-11T11:25:09Z</time>
      </trkpt>
      <trkpt lat="43.60508" lon="6.31944">
        <ele>711</ele>
        <time>2022-12-11T11:25:10Z</time>
      </trkpt>
      <trkpt lat="43.60508" lon="6.31944">
        <ele>711</ele>
        <time>2022-12-11T11:25:11Z</time>
      </trkpt>
      <trkpt lat="43.60508" lon="6.31944">
        <ele>711</ele>
        <time>2022-12-11T11:25:12Z</time>
      </trkpt>
      <trkpt lat="43.60508" lon="6.31944">
        <ele>711</ele>
        <time>2022-12-11T11:25:13Z</time>
      </trkpt>
      <trkpt lat="43.60509" lon="6.31943">
        <ele>711</ele>
        <time>2022-12-11T11:25:14Z</time>
      </trkpt>
      <trkpt lat="43.60509" lon="6.31943">
        <ele>711</ele>
        <time>2022-12-11T11:25:15Z</time>
      </trkpt>
      <trkpt lat="43.6051" lon="6.31942">
        <ele>711</ele>
        <time>2022-12-11T11:25:16Z</time>
      </trkpt>
      <trkpt lat="43.60511" lon="6.31941">
        <ele>711</ele>
        <time>2022-12-11T11:25:17Z</time>
      </trkpt>
      <trkpt lat="43.60512" lon="6.3194">
        <ele>711</ele>
        <time>2022-12-11T11:25:18Z</time>
      </trkpt>
      <trkpt lat="43.60514" lon="6.31939">
        <ele>710</ele>
        <time>2022-12-11T11:25:19Z</time>
      </trkpt>
      <trkpt lat="43.60515" lon="6.31939">
        <ele>710</ele>
        <time>2022-12-11T11:25:20Z</time>
      </trkpt>
      <trkpt lat="43.60517" lon="6.31938">
        <ele>710</ele>
        <time>2022-12-11T11:25:21Z</time>
      </trkpt>
      <trkpt lat="43.60518" lon="6.31937">
        <ele>710</ele>
        <time>2022-12-11T11:25:22Z</time>
      </trkpt>
      <trkpt lat="43.60519" lon="6.31936">
        <ele>710</ele>
        <time>2022-12-11T11:25:23Z</time>
      </trkpt>
      <trkpt lat="43.6052" lon="6.31935">
        <ele>710</ele>
        <time>2022-12-11T11:25:24Z</time>
      </trkpt>
      <trkpt lat="43.60521" lon="6.31934">
        <ele>710</ele>
        <time>2022-12-11T11:25:25Z</time>
      </trkpt>
      <trkpt lat="43.60522" lon="6.31932">
        <ele>709</ele>
        <time>2022-12-11T11:25:26Z</time>
      </trkpt>
      <trkpt lat="43.60525" lon="6.3193">
        <ele>709</ele>
        <time>2022-12-11T11:25:27Z</time>
      </trkpt>
      <trkpt lat="43.60526" lon="6.31928">
        <ele>709</ele>
        <time>2022-12-11T11:25:28Z</time>
      </trkpt>
      <trkpt lat="43.60528" lon="6.31927">
        <ele>709</ele>
        <time>2022-12-11T11:25:29Z</time>
      </trkpt>
      <trkpt lat="43.60528" lon="6.31926">
        <ele>708</ele>
        <time>2022-12-11T11:25:30Z</time>
      </trkpt>
      <trkpt lat="43.60529" lon="6.31925">
        <ele>708</ele>
        <time>2022-12-11T11:25:31Z</time>
      </trkpt>
      <trkpt lat="43.6053" lon="6.31924">
        <ele>708</ele>
        <time>2022-12-11T11:25:32Z</time>
      </trkpt>
      <trkpt lat="43.60531" lon="6.31924">
        <ele>708</ele>
        <time>2022-12-11T11:25:33Z</time>
      </trkpt>
      <trkpt lat="43.60531" lon="6.31923">
        <ele>708</ele>
        <time>2022-12-11T11:25:34Z</time>
      </trkpt>
      <trkpt lat="43.60531" lon="6.31923">
        <ele>708</ele>
        <time>2022-12-11T11:25:35Z</time>
      </trkpt>
      <trkpt lat="43.60532" lon="6.31922">
        <ele>708</ele>
        <time>2022-12-11T11:25:36Z</time>
      </trkpt>
      <trkpt lat="43.60533" lon="6.31921">
        <ele>709</ele>
        <time>2022-12-11T11:25:37Z</time>
      </trkpt>
      <trkpt lat="43.60534" lon="6.31919">
        <ele>709</ele>
        <time>2022-12-11T11:25:38Z</time>
      </trkpt>
      <trkpt lat="43.60535" lon="6.31917">
        <ele>709</ele>
        <time>2022-12-11T11:25:39Z</time>
      </trkpt>
      <trkpt lat="43.60536" lon="6.31916">
        <ele>709</ele>
        <time>2022-12-11T11:25:40Z</time>
      </trkpt>
      <trkpt lat="43.60537" lon="6.31915">
        <ele>710</ele>
        <time>2022-12-11T11:25:41Z</time>
      </trkpt>
      <trkpt lat="43.60538" lon="6.31914">
        <ele>711</ele>
        <time>2022-12-11T11:25:42Z</time>
      </trkpt>
      <trkpt lat="43.60539" lon="6.31913">
        <ele>711</ele>
        <time>2022-12-11T11:25:43Z</time>
      </trkpt>
      <trkpt lat="43.60539" lon="6.31913">
        <ele>711</ele>
        <time>2022-12-11T11:25:44Z</time>
      </trkpt>
      <trkpt lat="43.60539" lon="6.31913">
        <ele>712</ele>
        <time>2022-12-11T11:25:45Z</time>
      </trkpt>
      <trkpt lat="43.6054" lon="6.31912">
        <ele>712</ele>
        <time>2022-12-11T11:25:46Z</time>
      </trkpt>
      <trkpt lat="43.6054" lon="6.31912">
        <ele>712</ele>
        <time>2022-12-11T11:25:47Z</time>
      </trkpt>
      <trkpt lat="43.6054" lon="6.31912">
        <ele>712</ele>
        <time>2022-12-11T11:25:48Z</time>
      </trkpt>
      <trkpt lat="43.60541" lon="6.31911">
        <ele>712</ele>
        <time>2022-12-11T11:25:49Z</time>
      </trkpt>
      <trkpt lat="43.60541" lon="6.31909">
        <ele>712</ele>
        <time>2022-12-11T11:25:50Z</time>
      </trkpt>
      <trkpt lat="43.60542" lon="6.31907">
        <ele>712</ele>
        <time>2022-12-11T11:25:51Z</time>
      </trkpt>
      <trkpt lat="43.60542" lon="6.31905">
        <ele>713</ele>
        <time>2022-12-11T11:25:52Z</time>
      </trkpt>
      <trkpt lat="43.60543" lon="6.31902">
        <ele>713</ele>
        <time>2022-12-11T11:25:53Z</time>
      </trkpt>
      <trkpt lat="43.60543" lon="6.319">
        <ele>713</ele>
        <time>2022-12-11T11:25:54Z</time>
      </trkpt>
      <trkpt lat="43.60544" lon="6.31898">
        <ele>713</ele>
        <time>2022-12-11T11:25:55Z</time>
      </trkpt>
      <trkpt lat="43.60544" lon="6.31897">
        <ele>713</ele>
        <time>2022-12-11T11:25:56Z</time>
      </trkpt>
      <trkpt lat="43.60545" lon="6.31895">
        <ele>713</ele>
        <time>2022-12-11T11:25:57Z</time>
      </trkpt>
      <trkpt lat="43.60545" lon="6.31894">
        <ele>713</ele>
        <time>2022-12-11T11:25:58Z</time>
      </trkpt>
      <trkpt lat="43.60546" lon="6.31892">
        <ele>712</ele>
        <time>2022-12-11T11:25:59Z</time>
      </trkpt>
      <trkpt lat="43.60547" lon="6.31891">
        <ele>712</ele>
        <time>2022-12-11T11:26:00Z</time>
      </trkpt>
      <trkpt lat="43.60547" lon="6.3189">
        <ele>712</ele>
        <time>2022-12-11T11:26:01Z</time>
      </trkpt>
      <trkpt lat="43.60548" lon="6.31888">
        <ele>711</ele>
        <time>2022-12-11T11:26:02Z</time>
      </trkpt>
      <trkpt lat="43.60549" lon="6.31886">
        <ele>711</ele>
        <time>2022-12-11T11:26:03Z</time>
      </trkpt>
      <trkpt lat="43.60549" lon="6.31884">
        <ele>711</ele>
        <time>2022-12-11T11:26:04Z</time>
      </trkpt>
      <trkpt lat="43.6055" lon="6.31882">
        <ele>711</ele>
        <time>2022-12-11T11:26:05Z</time>
      </trkpt>
      <trkpt lat="43.6055" lon="6.31881">
        <ele>711</ele>
        <time>2022-12-11T11:26:06Z</time>
      </trkpt>
      <trkpt lat="43.6055" lon="6.3188">
        <ele>711</ele>
        <time>2022-12-11T11:26:07Z</time>
      </trkpt>
      <trkpt lat="43.60551" lon="6.31879">
        <ele>711</ele>
        <time>2022-12-11T11:26:08Z</time>
      </trkpt>
      <trkpt lat="43.60552" lon="6.31878">
        <ele>711</ele>
        <time>2022-12-11T11:26:09Z</time>
      </trkpt>
      <trkpt lat="43.60553" lon="6.31877">
        <ele>711</ele>
        <time>2022-12-11T11:26:10Z</time>
      </trkpt>
      <trkpt lat="43.60554" lon="6.31876">
        <ele>711</ele>
        <time>2022-12-11T11:26:11Z</time>
      </trkpt>
      <trkpt lat="43.60554" lon="6.31875">
        <ele>711</ele>
        <time>2022-12-11T11:26:12Z</time>
      </trkpt>
      <trkpt lat="43.60555" lon="6.31874">
        <ele>711</ele>
        <time>2022-12-11T11:26:13Z</time>
      </trkpt>
      <trkpt lat="43.60556" lon="6.31873">
        <ele>711</ele>
        <time>2022-12-11T11:26:14Z</time>
      </trkpt>
      <trkpt lat="43.60556" lon="6.31872">
        <ele>711</ele>
        <time>2022-12-11T11:26:15Z</time>
      </trkpt>
      <trkpt lat="43.60557" lon="6.31871">
        <ele>712</ele>
        <time>2022-12-11T11:26:16Z</time>
      </trkpt>
      <trkpt lat="43.60558" lon="6.3187">
        <ele>712</ele>
        <time>2022-12-11T11:26:17Z</time>
      </trkpt>
      <trkpt lat="43.60558" lon="6.31869">
        <ele>712</ele>
        <time>2022-12-11T11:26:18Z</time>
      </trkpt>
      <trkpt lat="43.60559" lon="6.31867">
        <ele>712</ele>
        <time>2022-12-11T11:26:19Z</time>
      </trkpt>
      <trkpt lat="43.6056" lon="6.31866">
        <ele>712</ele>
        <time>2022-12-11T11:26:20Z</time>
      </trkpt>
      <trkpt lat="43.6056" lon="6.31865">
        <ele>712</ele>
        <time>2022-12-11T11:26:21Z</time>
      </trkpt>
      <trkpt lat="43.60561" lon="6.31865">
        <ele>712</ele>
        <time>2022-12-11T11:26:22Z</time>
      </trkpt>
      <trkpt lat="43.60561" lon="6.31864">
        <ele>712</ele>
        <time>2022-12-11T11:26:23Z</time>
      </trkpt>
      <trkpt lat="43.60561" lon="6.31864">
        <ele>712</ele>
        <time>2022-12-11T11:26:24Z</time>
      </trkpt>
      <trkpt lat="43.60561" lon="6.31864">
        <ele>712</ele>
        <time>2022-12-11T11:26:25Z</time>
      </trkpt>
      <trkpt lat="43.60561" lon="6.31863">
        <ele>712</ele>
        <time>2022-12-11T11:26:26Z</time>
      </trkpt>
      <trkpt lat="43.6056" lon="6.31863">
        <ele>712</ele>
        <time>2022-12-11T11:26:27Z</time>
      </trkpt>
      <trkpt lat="43.6056" lon="6.31863">
        <ele>712</ele>
        <time>2022-12-11T11:26:28Z</time>
      </trkpt>
      <trkpt lat="43.6056" lon="6.31863">
        <ele>712</ele>
        <time>2022-12-11T11:26:29Z</time>
      </trkpt>
      <trkpt lat="43.6056" lon="6.31863">
        <ele>712</ele>
        <time>2022-12-11T11:26:30Z</time>
      </trkpt>
      <trkpt lat="43.6056" lon="6.31863">
        <ele>712</ele>
        <time>2022-12-11T11:26:31Z</time>
      </trkpt>
      <trkpt lat="43.6056" lon="6.31863">
        <ele>712</ele>
        <time>2022-12-11T11:26:32Z</time>
      </trkpt>
      <trkpt lat="43.6056" lon="6.31863">
        <ele>712</ele>
        <time>2022-12-11T11:26:33Z</time>
      </trkpt>
      <trkpt lat="43.60558" lon="6.31863">
        <ele>712</ele>
        <time>2022-12-11T11:26:34Z</time>
      </trkpt>
      <trkpt lat="43.60558" lon="6.31863">
        <ele>712</ele>
        <time>2022-12-11T11:26:35Z</time>
      </trkpt>
      <trkpt lat="43.60558" lon="6.31863">
        <ele>712</ele>
        <time>2022-12-11T11:26:36Z</time>
      </trkpt>
      <trkpt lat="43.60559" lon="6.31863">
        <ele>712</ele>
        <time>2022-12-11T11:26:37Z</time>
      </trkpt>
      <trkpt lat="43.60559" lon="6.31863">
        <ele>712</ele>
        <time>2022-12-11T11:26:38Z</time>
      </trkpt>
      <trkpt lat="43.60559" lon="6.31862">
        <ele>712</ele>
        <time>2022-12-11T11:26:39Z</time>
      </trkpt>
      <trkpt lat="43.6056" lon="6.31862">
        <ele>712</ele>
        <time>2022-12-11T11:26:40Z</time>
      </trkpt>
      <trkpt lat="43.6056" lon="6.31861">
        <ele>712</ele>
        <time>2022-12-11T11:26:41Z</time>
      </trkpt>
      <trkpt lat="43.60561" lon="6.31861">
        <ele>712</ele>
        <time>2022-12-11T11:26:42Z</time>
      </trkpt>
      <trkpt lat="43.60562" lon="6.31861">
        <ele>712</ele>
        <time>2022-12-11T11:26:43Z</time>
      </trkpt>
      <trkpt lat="43.60562" lon="6.3186">
        <ele>712</ele>
        <time>2022-12-11T11:26:44Z</time>
      </trkpt>
      <trkpt lat="43.60562" lon="6.31859">
        <ele>712</ele>
        <time>2022-12-11T11:26:45Z</time>
      </trkpt>
      <trkpt lat="43.60562" lon="6.31859">
        <ele>712</ele>
        <time>2022-12-11T11:26:46Z</time>
      </trkpt>
      <trkpt lat="43.60563" lon="6.31858">
        <ele>712</ele>
        <time>2022-12-11T11:26:47Z</time>
      </trkpt>
      <trkpt lat="43.60563" lon="6.31857">
        <ele>712</ele>
        <time>2022-12-11T11:26:48Z</time>
      </trkpt>
      <trkpt lat="43.60563" lon="6.31856">
        <ele>712</ele>
        <time>2022-12-11T11:26:49Z</time>
      </trkpt>
      <trkpt lat="43.60564" lon="6.31855">
        <ele>712</ele>
        <time>2022-12-11T11:26:50Z</time>
      </trkpt>
      <trkpt lat="43.60564" lon="6.31854">
        <ele>712</ele>
        <time>2022-12-11T11:26:51Z</time>
      </trkpt>
      <trkpt lat="43.60565" lon="6.31853">
        <ele>711</ele>
        <time>2022-12-11T11:26:52Z</time>
      </trkpt>
      <trkpt lat="43.60566" lon="6.31851">
        <ele>711</ele>
        <time>2022-12-11T11:26:53Z</time>
      </trkpt>
      <trkpt lat="43.60566" lon="6.3185">
        <ele>711</ele>
        <time>2022-12-11T11:26:54Z</time>
      </trkpt>
      <trkpt lat="43.60567" lon="6.31849">
        <ele>711</ele>
        <time>2022-12-11T11:26:55Z</time>
      </trkpt>
      <trkpt lat="43.60568" lon="6.31848">
        <ele>711</ele>
        <time>2022-12-11T11:26:56Z</time>
      </trkpt>
      <trkpt lat="43.60569" lon="6.31847">
        <ele>711</ele>
        <time>2022-12-11T11:26:57Z</time>
      </trkpt>
      <trkpt lat="43.60569" lon="6.31846">
        <ele>711</ele>
        <time>2022-12-11T11:26:58Z</time>
      </trkpt>
      <trkpt lat="43.6057" lon="6.31845">
        <ele>711</ele>
        <time>2022-12-11T11:26:59Z</time>
      </trkpt>
      <trkpt lat="43.60571" lon="6.31844">
        <ele>711</ele>
        <time>2022-12-11T11:27:00Z</time>
      </trkpt>
      <trkpt lat="43.60571" lon="6.31843">
        <ele>711</ele>
        <time>2022-12-11T11:27:01Z</time>
      </trkpt>
      <trkpt lat="43.60571" lon="6.31841">
        <ele>711</ele>
        <time>2022-12-11T11:27:02Z</time>
      </trkpt>
      <trkpt lat="43.60572" lon="6.31841">
        <ele>711</ele>
        <time>2022-12-11T11:27:03Z</time>
      </trkpt>
      <trkpt lat="43.60573" lon="6.3184">
        <ele>712</ele>
        <time>2022-12-11T11:27:04Z</time>
      </trkpt>
      <trkpt lat="43.60573" lon="6.31839">
        <ele>712</ele>
        <time>2022-12-11T11:27:05Z</time>
      </trkpt>
      <trkpt lat="43.60574" lon="6.31839">
        <ele>713</ele>
        <time>2022-12-11T11:27:06Z</time>
      </trkpt>
      <trkpt lat="43.60574" lon="6.31838">
        <ele>713</ele>
        <time>2022-12-11T11:27:07Z</time>
      </trkpt>
      <trkpt lat="43.60574" lon="6.31838">
        <ele>713</ele>
        <time>2022-12-11T11:27:08Z</time>
      </trkpt>
      <trkpt lat="43.60575" lon="6.31837">
        <ele>713</ele>
        <time>2022-12-11T11:27:09Z</time>
      </trkpt>
      <trkpt lat="43.60576" lon="6.31835">
        <ele>713</ele>
        <time>2022-12-11T11:27:10Z</time>
      </trkpt>
      <trkpt lat="43.60576" lon="6.31833">
        <ele>713</ele>
        <time>2022-12-11T11:27:11Z</time>
      </trkpt>
      <trkpt lat="43.60577" lon="6.31831">
        <ele>713</ele>
        <time>2022-12-11T11:27:12Z</time>
      </trkpt>
      <trkpt lat="43.60578" lon="6.31829">
        <ele>714</ele>
        <time>2022-12-11T11:27:13Z</time>
      </trkpt>
      <trkpt lat="43.60578" lon="6.31827">
        <ele>714</ele>
        <time>2022-12-11T11:27:14Z</time>
      </trkpt>
      <trkpt lat="43.60578" lon="6.31826">
        <ele>714</ele>
        <time>2022-12-11T11:27:15Z</time>
      </trkpt>
      <trkpt lat="43.60579" lon="6.31825">
        <ele>714</ele>
        <time>2022-12-11T11:27:16Z</time>
      </trkpt>
      <trkpt lat="43.60579" lon="6.31823">
        <ele>714</ele>
        <time>2022-12-11T11:27:17Z</time>
      </trkpt>
      <trkpt lat="43.6058" lon="6.31822">
        <ele>714</ele>
        <time>2022-12-11T11:27:18Z</time>
      </trkpt>
      <trkpt lat="43.6058" lon="6.31821">
        <ele>714</ele>
        <time>2022-12-11T11:27:19Z</time>
      </trkpt>
      <trkpt lat="43.60581" lon="6.3182">
        <ele>714</ele>
        <time>2022-12-11T11:27:20Z</time>
      </trkpt>
      <trkpt lat="43.60581" lon="6.31818">
        <ele>714</ele>
        <time>2022-12-11T11:27:21Z</time>
      </trkpt>
      <trkpt lat="43.60581" lon="6.31818">
        <ele>714</ele>
        <time>2022-12-11T11:27:22Z</time>
      </trkpt>
      <trkpt lat="43.60582" lon="6.31817">
        <ele>714</ele>
        <time>2022-12-11T11:27:23Z</time>
      </trkpt>
      <trkpt lat="43.60583" lon="6.31815">
        <ele>713</ele>
        <time>2022-12-11T11:27:24Z</time>
      </trkpt>
      <trkpt lat="43.60583" lon="6.31813">
        <ele>713</ele>
        <time>2022-12-11T11:27:25Z</time>
      </trkpt>
      <trkpt lat="43.60584" lon="6.31811">
        <ele>713</ele>
        <time>2022-12-11T11:27:26Z</time>
      </trkpt>
      <trkpt lat="43.60585" lon="6.31808">
        <ele>713</ele>
        <time>2022-12-11T11:27:27Z</time>
      </trkpt>
      <trkpt lat="43.60586" lon="6.31806">
        <ele>713</ele>
        <time>2022-12-11T11:27:28Z</time>
      </trkpt>
      <trkpt lat="43.60587" lon="6.31804">
        <ele>712</ele>
        <time>2022-12-11T11:27:29Z</time>
      </trkpt>
      <trkpt lat="43.60588" lon="6.31802">
        <ele>712</ele>
        <time>2022-12-11T11:27:30Z</time>
      </trkpt>
      <trkpt lat="43.60588" lon="6.31801">
        <ele>712</ele>
        <time>2022-12-11T11:27:31Z</time>
      </trkpt>
      <trkpt lat="43.60589" lon="6.31799">
        <ele>712</ele>
        <time>2022-12-11T11:27:32Z</time>
      </trkpt>
      <trkpt lat="43.6059" lon="6.31797">
        <ele>712</ele>
        <time>2022-12-11T11:27:33Z</time>
      </trkpt>
      <trkpt lat="43.6059" lon="6.31796">
        <ele>712</ele>
        <time>2022-12-11T11:27:34Z</time>
      </trkpt>
      <trkpt lat="43.60591" lon="6.31795">
        <ele>712</ele>
        <time>2022-12-11T11:27:35Z</time>
      </trkpt>
      <trkpt lat="43.60592" lon="6.31794">
        <ele>712</ele>
        <time>2022-12-11T11:27:36Z</time>
      </trkpt>
      <trkpt lat="43.60592" lon="6.31792">
        <ele>712</ele>
        <time>2022-12-11T11:27:37Z</time>
      </trkpt>
      <trkpt lat="43.60592" lon="6.31791">
        <ele>712</ele>
        <time>2022-12-11T11:27:38Z</time>
      </trkpt>
      <trkpt lat="43.60593" lon="6.3179">
        <ele>712</ele>
        <time>2022-12-11T11:27:39Z</time>
      </trkpt>
      <trkpt lat="43.60593" lon="6.31788">
        <ele>712</ele>
        <time>2022-12-11T11:27:40Z</time>
      </trkpt>
      <trkpt lat="43.60593" lon="6.31786">
        <ele>712</ele>
        <time>2022-12-11T11:27:41Z</time>
      </trkpt>
      <trkpt lat="43.60594" lon="6.31785">
        <ele>712</ele>
        <time>2022-12-11T11:27:42Z</time>
      </trkpt>
      <trkpt lat="43.60594" lon="6.31783">
        <ele>712</ele>
        <time>2022-12-11T11:27:43Z</time>
      </trkpt>
      <trkpt lat="43.60594" lon="6.31781">
        <ele>712</ele>
        <time>2022-12-11T11:27:44Z</time>
      </trkpt>
      <trkpt lat="43.60594" lon="6.3178">
        <ele>712</ele>
        <time>2022-12-11T11:27:45Z</time>
      </trkpt>
      <trkpt lat="43.60594" lon="6.31778">
        <ele>712</ele>
        <time>2022-12-11T11:27:46Z</time>
      </trkpt>
      <trkpt lat="43.60594" lon="6.31777">
        <ele>712</ele>
        <time>2022-12-11T11:27:47Z</time>
      </trkpt>
      <trkpt lat="43.60594" lon="6.31776">
        <ele>712</ele>
        <time>2022-12-11T11:27:48Z</time>
      </trkpt>
      <trkpt lat="43.60594" lon="6.31774">
        <ele>712</ele>
        <time>2022-12-11T11:27:49Z</time>
      </trkpt>
      <trkpt lat="43.60595" lon="6.31773">
        <ele>712</ele>
        <time>2022-12-11T11:27:50Z</time>
      </trkpt>
      <trkpt lat="43.60595" lon="6.31771">
        <ele>712</ele>
        <time>2022-12-11T11:27:51Z</time>
      </trkpt>
      <trkpt lat="43.60595" lon="6.3177">
        <ele>712</ele>
        <time>2022-12-11T11:27:52Z</time>
      </trkpt>
      <trkpt lat="43.60595" lon="6.31769">
        <ele>712</ele>
        <time>2022-12-11T11:27:53Z</time>
      </trkpt>
      <trkpt lat="43.60596" lon="6.31768">
        <ele>713</ele>
        <time>2022-12-11T11:27:54Z</time>
      </trkpt>
      <trkpt lat="43.60596" lon="6.31767">
        <ele>713</ele>
        <time>2022-12-11T11:27:55Z</time>
      </trkpt>
      <trkpt lat="43.60597" lon="6.31765">
        <ele>713</ele>
        <time>2022-12-11T11:27:56Z</time>
      </trkpt>
      <trkpt lat="43.60597" lon="6.31764">
        <ele>713</ele>
        <time>2022-12-11T11:27:57Z</time>
      </trkpt>
      <trkpt lat="43.60597" lon="6.31763">
        <ele>713</ele>
        <time>2022-12-11T11:27:58Z</time>
      </trkpt>
      <trkpt lat="43.60598" lon="6.31761">
        <ele>713</ele>
        <time>2022-12-11T11:27:59Z</time>
      </trkpt>
      <trkpt lat="43.60598" lon="6.3176">
        <ele>714</ele>
        <time>2022-12-11T11:28:00Z</time>
      </trkpt>
      <trkpt lat="43.60599" lon="6.31758">
        <ele>714</ele>
        <time>2022-12-11T11:28:01Z</time>
      </trkpt>
      <trkpt lat="43.606" lon="6.31757">
        <ele>714</ele>
        <time>2022-12-11T11:28:02Z</time>
      </trkpt>
      <trkpt lat="43.606" lon="6.31755">
        <ele>714</ele>
        <time>2022-12-11T11:28:03Z</time>
      </trkpt>
      <trkpt lat="43.60601" lon="6.31754">
        <ele>714</ele>
        <time>2022-12-11T11:28:04Z</time>
      </trkpt>
      <trkpt lat="43.60601" lon="6.31753">
        <ele>714</ele>
        <time>2022-12-11T11:28:05Z</time>
      </trkpt>
      <trkpt lat="43.60601" lon="6.31751">
        <ele>714</ele>
        <time>2022-12-11T11:28:06Z</time>
      </trkpt>
      <trkpt lat="43.60602" lon="6.3175">
        <ele>714</ele>
        <time>2022-12-11T11:28:07Z</time>
      </trkpt>
      <trkpt lat="43.60603" lon="6.31749">
        <ele>715</ele>
        <time>2022-12-11T11:28:08Z</time>
      </trkpt>
      <trkpt lat="43.60603" lon="6.31748">
        <ele>715</ele>
        <time>2022-12-11T11:28:09Z</time>
      </trkpt>
      <trkpt lat="43.60604" lon="6.31747">
        <ele>715</ele>
        <time>2022-12-11T11:28:10Z</time>
      </trkpt>
      <trkpt lat="43.60605" lon="6.31746">
        <ele>715</ele>
        <time>2022-12-11T11:28:11Z</time>
      </trkpt>
      <trkpt lat="43.60606" lon="6.31745">
        <ele>715</ele>
        <time>2022-12-11T11:28:12Z</time>
      </trkpt>
      <trkpt lat="43.60606" lon="6.31744">
        <ele>715</ele>
        <time>2022-12-11T11:28:13Z</time>
      </trkpt>
      <trkpt lat="43.60607" lon="6.31743">
        <ele>715</ele>
        <time>2022-12-11T11:28:14Z</time>
      </trkpt>
      <trkpt lat="43.60608" lon="6.31742">
        <ele>715</ele>
        <time>2022-12-11T11:28:15Z</time>
      </trkpt>
      <trkpt lat="43.60609" lon="6.31741">
        <ele>715</ele>
        <time>2022-12-11T11:28:16Z</time>
      </trkpt>
      <trkpt lat="43.60609" lon="6.3174">
        <ele>716</ele>
        <time>2022-12-11T11:28:17Z</time>
      </trkpt>
      <trkpt lat="43.6061" lon="6.31739">
        <ele>716</ele>
        <time>2022-12-11T11:28:18Z</time>
      </trkpt>
      <trkpt lat="43.60611" lon="6.31738">
        <ele>716</ele>
        <time>2022-12-11T11:28:19Z</time>
      </trkpt>
      <trkpt lat="43.60612" lon="6.31737">
        <ele>716</ele>
        <time>2022-12-11T11:28:20Z</time>
      </trkpt>
      <trkpt lat="43.60612" lon="6.31736">
        <ele>716</ele>
        <time>2022-12-11T11:28:21Z</time>
      </trkpt>
      <trkpt lat="43.60613" lon="6.31734">
        <ele>716</ele>
        <time>2022-12-11T11:28:22Z</time>
      </trkpt>
      <trkpt lat="43.60613" lon="6.31733">
        <ele>716</ele>
        <time>2022-12-11T11:28:23Z</time>
      </trkpt>
      <trkpt lat="43.60614" lon="6.31731">
        <ele>716</ele>
        <time>2022-12-11T11:28:24Z</time>
      </trkpt>
      <trkpt lat="43.60614" lon="6.3173">
        <ele>716</ele>
        <time>2022-12-11T11:28:25Z</time>
      </trkpt>
      <trkpt lat="43.60615" lon="6.31729">
        <ele>717</ele>
        <time>2022-12-11T11:28:26Z</time>
      </trkpt>
      <trkpt lat="43.60616" lon="6.31728">
        <ele>717</ele>
        <time>2022-12-11T11:28:27Z</time>
      </trkpt>
      <trkpt lat="43.60616" lon="6.31727">
        <ele>717</ele>
        <time>2022-12-11T11:28:28Z</time>
      </trkpt>
      <trkpt lat="43.60617" lon="6.31726">
        <ele>717</ele>
        <time>2022-12-11T11:28:29Z</time>
      </trkpt>
      <trkpt lat="43.60617" lon="6.31725">
        <ele>718</ele>
        <time>2022-12-11T11:28:30Z</time>
      </trkpt>
      <trkpt lat="43.60618" lon="6.31724">
        <ele>718</ele>
        <time>2022-12-11T11:28:31Z</time>
      </trkpt>
      <trkpt lat="43.60619" lon="6.31722">
        <ele>718</ele>
        <time>2022-12-11T11:28:32Z</time>
      </trkpt>
      <trkpt lat="43.60619" lon="6.31721">
        <ele>718</ele>
        <time>2022-12-11T11:28:33Z</time>
      </trkpt>
      <trkpt lat="43.6062" lon="6.3172">
        <ele>718</ele>
        <time>2022-12-11T11:28:34Z</time>
      </trkpt>
      <trkpt lat="43.6062" lon="6.3172">
        <ele>718</ele>
        <time>2022-12-11T11:28:35Z</time>
      </trkpt>
      <trkpt lat="43.60621" lon="6.31719">
        <ele>718</ele>
        <time>2022-12-11T11:28:36Z</time>
      </trkpt>
      <trkpt lat="43.60621" lon="6.31718">
        <ele>718</ele>
        <time>2022-12-11T11:28:37Z</time>
      </trkpt>
      <trkpt lat="43.60622" lon="6.31717">
        <ele>718</ele>
        <time>2022-12-11T11:28:38Z</time>
      </trkpt>
      <trkpt lat="43.60622" lon="6.31715">
        <ele>718</ele>
        <time>2022-12-11T11:28:39Z</time>
      </trkpt>
      <trkpt lat="43.60623" lon="6.31714">
        <ele>718</ele>
        <time>2022-12-11T11:28:40Z</time>
      </trkpt>
      <trkpt lat="43.60623" lon="6.31713">
        <ele>718</ele>
        <time>2022-12-11T11:28:41Z</time>
      </trkpt>
      <trkpt lat="43.60623" lon="6.31712">
        <ele>718</ele>
        <time>2022-12-11T11:28:42Z</time>
      </trkpt>
      <trkpt lat="43.60624" lon="6.31711">
        <ele>717</ele>
        <time>2022-12-11T11:28:43Z</time>
      </trkpt>
      <trkpt lat="43.60624" lon="6.3171">
        <ele>717</ele>
        <time>2022-12-11T11:28:44Z</time>
      </trkpt>
      <trkpt lat="43.60625" lon="6.31708">
        <ele>717</ele>
        <time>2022-12-11T11:28:45Z</time>
      </trkpt>
      <trkpt lat="43.60626" lon="6.31707">
        <ele>716</ele>
        <time>2022-12-11T11:28:46Z</time>
      </trkpt>
      <trkpt lat="43.60626" lon="6.31706">
        <ele>716</ele>
        <time>2022-12-11T11:28:47Z</time>
      </trkpt>
      <trkpt lat="43.60627" lon="6.31705">
        <ele>716</ele>
        <time>2022-12-11T11:28:48Z</time>
      </trkpt>
      <trkpt lat="43.60627" lon="6.31704">
        <ele>716</ele>
        <time>2022-12-11T11:28:49Z</time>
      </trkpt>
      <trkpt lat="43.60628" lon="6.31703">
        <ele>716</ele>
        <time>2022-12-11T11:28:50Z</time>
      </trkpt>
      <trkpt lat="43.60629" lon="6.31701">
        <ele>716</ele>
        <time>2022-12-11T11:28:51Z</time>
      </trkpt>
      <trkpt lat="43.60629" lon="6.317">
        <ele>716</ele>
        <time>2022-12-11T11:28:52Z</time>
      </trkpt>
      <trkpt lat="43.6063" lon="6.31699">
        <ele>716</ele>
        <time>2022-12-11T11:28:53Z</time>
      </trkpt>
      <trkpt lat="43.60631" lon="6.31698">
        <ele>715</ele>
        <time>2022-12-11T11:28:54Z</time>
      </trkpt>
      <trkpt lat="43.60632" lon="6.31697">
        <ele>715</ele>
        <time>2022-12-11T11:28:55Z</time>
      </trkpt>
      <trkpt lat="43.60632" lon="6.31696">
        <ele>715</ele>
        <time>2022-12-11T11:28:56Z</time>
      </trkpt>
      <trkpt lat="43.60633" lon="6.31695">
        <ele>715</ele>
        <time>2022-12-11T11:28:57Z</time>
      </trkpt>
      <trkpt lat="43.60633" lon="6.31694">
        <ele>715</ele>
        <time>2022-12-11T11:28:58Z</time>
      </trkpt>
      <trkpt lat="43.60634" lon="6.31693">
        <ele>715</ele>
        <time>2022-12-11T11:28:59Z</time>
      </trkpt>
      <trkpt lat="43.60635" lon="6.31692">
        <ele>715</ele>
        <time>2022-12-11T11:29:00Z</time>
      </trkpt>
      <trkpt lat="43.60636" lon="6.31691">
        <ele>715</ele>
        <time>2022-12-11T11:29:01Z</time>
      </trkpt>
      <trkpt lat="43.60636" lon="6.3169">
        <ele>716</ele>
        <time>2022-12-11T11:29:02Z</time>
      </trkpt>
      <trkpt lat="43.60637" lon="6.31689">
        <ele>716</ele>
        <time>2022-12-11T11:29:03Z</time>
      </trkpt>
      <trkpt lat="43.60637" lon="6.31688">
        <ele>716</ele>
        <time>2022-12-11T11:29:04Z</time>
      </trkpt>
      <trkpt lat="43.60638" lon="6.31687">
        <ele>716</ele>
        <time>2022-12-11T11:29:05Z</time>
      </trkpt>
      <trkpt lat="43.60638" lon="6.31686">
        <ele>716</ele>
        <time>2022-12-11T11:29:06Z</time>
      </trkpt>
      <trkpt lat="43.60639" lon="6.31685">
        <ele>716</ele>
        <time>2022-12-11T11:29:07Z</time>
      </trkpt>
      <trkpt lat="43.60639" lon="6.31684">
        <ele>716</ele>
        <time>2022-12-11T11:29:08Z</time>
      </trkpt>
      <trkpt lat="43.6064" lon="6.31683">
        <ele>716</ele>
        <time>2022-12-11T11:29:09Z</time>
      </trkpt>
      <trkpt lat="43.6064" lon="6.31683">
        <ele>716</ele>
        <time>2022-12-11T11:29:10Z</time>
      </trkpt>
      <trkpt lat="43.6064" lon="6.31682">
        <ele>716</ele>
        <time>2022-12-11T11:29:11Z</time>
      </trkpt>
      <trkpt lat="43.60641" lon="6.31681">
        <ele>716</ele>
        <time>2022-12-11T11:29:12Z</time>
      </trkpt>
      <trkpt lat="43.60641" lon="6.3168">
        <ele>716</ele>
        <time>2022-12-11T11:29:13Z</time>
      </trkpt>
      <trkpt lat="43.60641" lon="6.31679">
        <ele>716</ele>
        <time>2022-12-11T11:29:14Z</time>
      </trkpt>
      <trkpt lat="43.60642" lon="6.31678">
        <ele>716</ele>
        <time>2022-12-11T11:29:15Z</time>
      </trkpt>
      <trkpt lat="43.60643" lon="6.31677">
        <ele>716</ele>
        <time>2022-12-11T11:29:16Z</time>
      </trkpt>
      <trkpt lat="43.60643" lon="6.31675">
        <ele>716</ele>
        <time>2022-12-11T11:29:17Z</time>
      </trkpt>
      <trkpt lat="43.60644" lon="6.31674">
        <ele>716</ele>
        <time>2022-12-11T11:29:18Z</time>
      </trkpt>
      <trkpt lat="43.60644" lon="6.31673">
        <ele>717</ele>
        <time>2022-12-11T11:29:19Z</time>
      </trkpt>
      <trkpt lat="43.60645" lon="6.31672">
        <ele>717</ele>
        <time>2022-12-11T11:29:20Z</time>
      </trkpt>
      <trkpt lat="43.60645" lon="6.31671">
        <ele>717</ele>
        <time>2022-12-11T11:29:21Z</time>
      </trkpt>
      <trkpt lat="43.60646" lon="6.3167">
        <ele>717</ele>
        <time>2022-12-11T11:29:22Z</time>
      </trkpt>
      <trkpt lat="43.60647" lon="6.31669">
        <ele>717</ele>
        <time>2022-12-11T11:29:23Z</time>
      </trkpt>
      <trkpt lat="43.60647" lon="6.31667">
        <ele>717</ele>
        <time>2022-12-11T11:29:24Z</time>
      </trkpt>
      <trkpt lat="43.60648" lon="6.31666">
        <ele>717</ele>
        <time>2022-12-11T11:29:25Z</time>
      </trkpt>
      <trkpt lat="43.60648" lon="6.31665">
        <ele>717</ele>
        <time>2022-12-11T11:29:26Z</time>
      </trkpt>
      <trkpt lat="43.60649" lon="6.31664">
        <ele>717</ele>
        <time>2022-12-11T11:29:27Z</time>
      </trkpt>
      <trkpt lat="43.60649" lon="6.31663">
        <ele>718</ele>
        <time>2022-12-11T11:29:28Z</time>
      </trkpt>
      <trkpt lat="43.6065" lon="6.31662">
        <ele>718</ele>
        <time>2022-12-11T11:29:29Z</time>
      </trkpt>
      <trkpt lat="43.60651" lon="6.31661">
        <ele>718</ele>
        <time>2022-12-11T11:29:30Z</time>
      </trkpt>
      <trkpt lat="43.60651" lon="6.3166">
        <ele>718</ele>
        <time>2022-12-11T11:29:31Z</time>
      </trkpt>
      <trkpt lat="43.60652" lon="6.31659">
        <ele>718</ele>
        <time>2022-12-11T11:29:32Z</time>
      </trkpt>
      <trkpt lat="43.60652" lon="6.31657">
        <ele>718</ele>
        <time>2022-12-11T11:29:33Z</time>
      </trkpt>
      <trkpt lat="43.60653" lon="6.31656">
        <ele>718</ele>
        <time>2022-12-11T11:29:34Z</time>
      </trkpt>
      <trkpt lat="43.60653" lon="6.31655">
        <ele>718</ele>
        <time>2022-12-11T11:29:35Z</time>
      </trkpt>
      <trkpt lat="43.60654" lon="6.31654">
        <ele>719</ele>
        <time>2022-12-11T11:29:36Z</time>
      </trkpt>
      <trkpt lat="43.60654" lon="6.31653">
        <ele>719</ele>
        <time>2022-12-11T11:29:37Z</time>
      </trkpt>
      <trkpt lat="43.60654" lon="6.31652">
        <ele>719</ele>
        <time>2022-12-11T11:29:38Z</time>
      </trkpt>
      <trkpt lat="43.60655" lon="6.31651">
        <ele>719</ele>
        <time>2022-12-11T11:29:39Z</time>
      </trkpt>
      <trkpt lat="43.60655" lon="6.3165">
        <ele>719</ele>
        <time>2022-12-11T11:29:40Z</time>
      </trkpt>
      <trkpt lat="43.60655" lon="6.31649">
        <ele>719</ele>
        <time>2022-12-11T11:29:41Z</time>
      </trkpt>
      <trkpt lat="43.60656" lon="6.31649">
        <ele>719</ele>
        <time>2022-12-11T11:29:42Z</time>
      </trkpt>
      <trkpt lat="43.60656" lon="6.31648">
        <ele>719</ele>
        <time>2022-12-11T11:29:43Z</time>
      </trkpt>
      <trkpt lat="43.60656" lon="6.31647">
        <ele>719</ele>
        <time>2022-12-11T11:29:44Z</time>
      </trkpt>
      <trkpt lat="43.60656" lon="6.31646">
        <ele>720</ele>
        <time>2022-12-11T11:29:45Z</time>
      </trkpt>
      <trkpt lat="43.60655" lon="6.31645">
        <ele>720</ele>
        <time>2022-12-11T11:29:46Z</time>
      </trkpt>
      <trkpt lat="43.60655" lon="6.31644">
        <ele>720</ele>
        <time>2022-12-11T11:29:47Z</time>
      </trkpt>
      <trkpt lat="43.60655" lon="6.31643">
        <ele>720</ele>
        <time>2022-12-11T11:29:48Z</time>
      </trkpt>
      <trkpt lat="43.60655" lon="6.31642">
        <ele>720</ele>
        <time>2022-12-11T11:29:49Z</time>
      </trkpt>
      <trkpt lat="43.60655" lon="6.31641">
        <ele>721</ele>
        <time>2022-12-11T11:29:50Z</time>
      </trkpt>
      <trkpt lat="43.60656" lon="6.3164">
        <ele>721</ele>
        <time>2022-12-11T11:29:51Z</time>
      </trkpt>
      <trkpt lat="43.60656" lon="6.31639">
        <ele>721</ele>
        <time>2022-12-11T11:29:52Z</time>
      </trkpt>
      <trkpt lat="43.60656" lon="6.31638">
        <ele>721</ele>
        <time>2022-12-11T11:29:53Z</time>
      </trkpt>
      <trkpt lat="43.60656" lon="6.31637">
        <ele>721</ele>
        <time>2022-12-11T11:29:54Z</time>
      </trkpt>
      <trkpt lat="43.60656" lon="6.31635">
        <ele>721</ele>
        <time>2022-12-11T11:29:55Z</time>
      </trkpt>
      <trkpt lat="43.60656" lon="6.31634">
        <ele>720</ele>
        <time>2022-12-11T11:29:56Z</time>
      </trkpt>
      <trkpt lat="43.60657" lon="6.31633">
        <ele>720</ele>
        <time>2022-12-11T11:29:57Z</time>
      </trkpt>
      <trkpt lat="43.60657" lon="6.31632">
        <ele>720</ele>
        <time>2022-12-11T11:29:58Z</time>
      </trkpt>
      <trkpt lat="43.60658" lon="6.31631">
        <ele>720</ele>
        <time>2022-12-11T11:29:59Z</time>
      </trkpt>
      <trkpt lat="43.60658" lon="6.3163">
        <ele>720</ele>
        <time>2022-12-11T11:30:00Z</time>
      </trkpt>
      <trkpt lat="43.60659" lon="6.31629">
        <ele>720</ele>
        <time>2022-12-11T11:30:01Z</time>
      </trkpt>
      <trkpt lat="43.6066" lon="6.31628">
        <ele>720</ele>
        <time>2022-12-11T11:30:02Z</time>
      </trkpt>
      <trkpt lat="43.60661" lon="6.31626">
        <ele>719</ele>
        <time>2022-12-11T11:30:03Z</time>
      </trkpt>
      <trkpt lat="43.60662" lon="6.31626">
        <ele>719</ele>
        <time>2022-12-11T11:30:04Z</time>
      </trkpt>
      <trkpt lat="43.60662" lon="6.31625">
        <ele>719</ele>
        <time>2022-12-11T11:30:05Z</time>
      </trkpt>
      <trkpt lat="43.60663" lon="6.31624">
        <ele>719</ele>
        <time>2022-12-11T11:30:06Z</time>
      </trkpt>
      <trkpt lat="43.60664" lon="6.31623">
        <ele>719</ele>
        <time>2022-12-11T11:30:07Z</time>
      </trkpt>
      <trkpt lat="43.60665" lon="6.31622">
        <ele>719</ele>
        <time>2022-12-11T11:30:08Z</time>
      </trkpt>
      <trkpt lat="43.60665" lon="6.31621">
        <ele>719</ele>
        <time>2022-12-11T11:30:09Z</time>
      </trkpt>
      <trkpt lat="43.60666" lon="6.3162">
        <ele>719</ele>
        <time>2022-12-11T11:30:10Z</time>
      </trkpt>
      <trkpt lat="43.60667" lon="6.31619">
        <ele>719</ele>
        <time>2022-12-11T11:30:11Z</time>
      </trkpt>
      <trkpt lat="43.60668" lon="6.31619">
        <ele>719</ele>
        <time>2022-12-11T11:30:12Z</time>
      </trkpt>
      <trkpt lat="43.60669" lon="6.31617">
        <ele>719</ele>
        <time>2022-12-11T11:30:13Z</time>
      </trkpt>
      <trkpt lat="43.60669" lon="6.31616">
        <ele>719</ele>
        <time>2022-12-11T11:30:14Z</time>
      </trkpt>
      <trkpt lat="43.6067" lon="6.31615">
        <ele>719</ele>
        <time>2022-12-11T11:30:15Z</time>
      </trkpt>
      <trkpt lat="43.6067" lon="6.31614">
        <ele>719</ele>
        <time>2022-12-11T11:30:16Z</time>
      </trkpt>
      <trkpt lat="43.60671" lon="6.31613">
        <ele>720</ele>
        <time>2022-12-11T11:30:17Z</time>
      </trkpt>
      <trkpt lat="43.60671" lon="6.31612">
        <ele>720</ele>
        <time>2022-12-11T11:30:18Z</time>
      </trkpt>
      <trkpt lat="43.60672" lon="6.31611">
        <ele>720</ele>
        <time>2022-12-11T11:30:19Z</time>
      </trkpt>
      <trkpt lat="43.60673" lon="6.3161">
        <ele>720</ele>
        <time>2022-12-11T11:30:20Z</time>
      </trkpt>
      <trkpt lat="43.60673" lon="6.31608">
        <ele>720</ele>
        <time>2022-12-11T11:30:21Z</time>
      </trkpt>
      <trkpt lat="43.60674" lon="6.31607">
        <ele>720</ele>
        <time>2022-12-11T11:30:22Z</time>
      </trkpt>
      <trkpt lat="43.60674" lon="6.31606">
        <ele>720</ele>
        <time>2022-12-11T11:30:23Z</time>
      </trkpt>
      <trkpt lat="43.60674" lon="6.31605">
        <ele>721</ele>
        <time>2022-12-11T11:30:24Z</time>
      </trkpt>
      <trkpt lat="43.60674" lon="6.31604">
        <ele>721</ele>
        <time>2022-12-11T11:30:25Z</time>
      </trkpt>
      <trkpt lat="43.60675" lon="6.31603">
        <ele>721</ele>
        <time>2022-12-11T11:30:26Z</time>
      </trkpt>
      <trkpt lat="43.60675" lon="6.31601">
        <ele>721</ele>
        <time>2022-12-11T11:30:27Z</time>
      </trkpt>
      <trkpt lat="43.60676" lon="6.316">
        <ele>722</ele>
        <time>2022-12-11T11:30:28Z</time>
      </trkpt>
      <trkpt lat="43.60676" lon="6.31599">
        <ele>722</ele>
        <time>2022-12-11T11:30:29Z</time>
      </trkpt>
      <trkpt lat="43.60676" lon="6.31598">
        <ele>722</ele>
        <time>2022-12-11T11:30:30Z</time>
      </trkpt>
      <trkpt lat="43.60677" lon="6.31597">
        <ele>722</ele>
        <time>2022-12-11T11:30:31Z</time>
      </trkpt>
      <trkpt lat="43.60677" lon="6.31596">
        <ele>722</ele>
        <time>2022-12-11T11:30:32Z</time>
      </trkpt>
      <trkpt lat="43.60678" lon="6.31594">
        <ele>722</ele>
        <time>2022-12-11T11:30:33Z</time>
      </trkpt>
      <trkpt lat="43.60678" lon="6.31593">
        <ele>722</ele>
        <time>2022-12-11T11:30:34Z</time>
      </trkpt>
      <trkpt lat="43.60679" lon="6.31592">
        <ele>722</ele>
        <time>2022-12-11T11:30:35Z</time>
      </trkpt>
      <trkpt lat="43.60679" lon="6.31591">
        <ele>723</ele>
        <time>2022-12-11T11:30:36Z</time>
      </trkpt>
      <trkpt lat="43.6068" lon="6.3159">
        <ele>723</ele>
        <time>2022-12-11T11:30:37Z</time>
      </trkpt>
      <trkpt lat="43.6068" lon="6.31589">
        <ele>723</ele>
        <time>2022-12-11T11:30:38Z</time>
      </trkpt>
      <trkpt lat="43.60681" lon="6.31588">
        <ele>723</ele>
        <time>2022-12-11T11:30:39Z</time>
      </trkpt>
      <trkpt lat="43.60682" lon="6.31587">
        <ele>723</ele>
        <time>2022-12-11T11:30:40Z</time>
      </trkpt>
      <trkpt lat="43.60682" lon="6.31586">
        <ele>723</ele>
        <time>2022-12-11T11:30:41Z</time>
      </trkpt>
      <trkpt lat="43.60683" lon="6.31584">
        <ele>723</ele>
        <time>2022-12-11T11:30:42Z</time>
      </trkpt>
      <trkpt lat="43.60683" lon="6.31583">
        <ele>723</ele>
        <time>2022-12-11T11:30:43Z</time>
      </trkpt>
      <trkpt lat="43.60684" lon="6.31582">
        <ele>723</ele>
        <time>2022-12-11T11:30:44Z</time>
      </trkpt>
      <trkpt lat="43.60684" lon="6.31581">
        <ele>722</ele>
        <time>2022-12-11T11:30:45Z</time>
      </trkpt>
      <trkpt lat="43.60684" lon="6.31579">
        <ele>722</ele>
        <time>2022-12-11T11:30:46Z</time>
      </trkpt>
      <trkpt lat="43.60685" lon="6.31578">
        <ele>722</ele>
        <time>2022-12-11T11:30:47Z</time>
      </trkpt>
      <trkpt lat="43.60685" lon="6.31577">
        <ele>722</ele>
        <time>2022-12-11T11:30:48Z</time>
      </trkpt>
      <trkpt lat="43.60686" lon="6.31576">
        <ele>722</ele>
        <time>2022-12-11T11:30:49Z</time>
      </trkpt>
      <trkpt lat="43.60686" lon="6.31575">
        <ele>721</ele>
        <time>2022-12-11T11:30:50Z</time>
      </trkpt>
      <trkpt lat="43.60686" lon="6.31574">
        <ele>721</ele>
        <time>2022-12-11T11:30:51Z</time>
      </trkpt>
      <trkpt lat="43.60687" lon="6.31573">
        <ele>721</ele>
        <time>2022-12-11T11:30:52Z</time>
      </trkpt>
      <trkpt lat="43.60687" lon="6.31572">
        <ele>721</ele>
        <time>2022-12-11T11:30:53Z</time>
      </trkpt>
      <trkpt lat="43.60688" lon="6.31572">
        <ele>721</ele>
        <time>2022-12-11T11:30:54Z</time>
      </trkpt>
      <trkpt lat="43.60689" lon="6.31571">
        <ele>721</ele>
        <time>2022-12-11T11:30:55Z</time>
      </trkpt>
      <trkpt lat="43.60689" lon="6.3157">
        <ele>720</ele>
        <time>2022-12-11T11:30:56Z</time>
      </trkpt>
      <trkpt lat="43.6069" lon="6.31569">
        <ele>719</ele>
        <time>2022-12-11T11:30:57Z</time>
      </trkpt>
      <trkpt lat="43.6069" lon="6.31568">
        <ele>719</ele>
        <time>2022-12-11T11:30:58Z</time>
      </trkpt>
      <trkpt lat="43.60691" lon="6.31567">
        <ele>719</ele>
        <time>2022-12-11T11:30:59Z</time>
      </trkpt>
      <trkpt lat="43.60691" lon="6.31566">
        <ele>719</ele>
        <time>2022-12-11T11:31:00Z</time>
      </trkpt>
      <trkpt lat="43.60692" lon="6.31565">
        <ele>719</ele>
        <time>2022-12-11T11:31:01Z</time>
      </trkpt>
      <trkpt lat="43.60692" lon="6.31563">
        <ele>719</ele>
        <time>2022-12-11T11:31:02Z</time>
      </trkpt>
      <trkpt lat="43.60692" lon="6.31562">
        <ele>719</ele>
        <time>2022-12-11T11:31:03Z</time>
      </trkpt>
      <trkpt lat="43.60693" lon="6.31561">
        <ele>719</ele>
        <time>2022-12-11T11:31:04Z</time>
      </trkpt>
      <trkpt lat="43.60693" lon="6.3156">
        <ele>719</ele>
        <time>2022-12-11T11:31:05Z</time>
      </trkpt>
      <trkpt lat="43.60694" lon="6.31559">
        <ele>719</ele>
        <time>2022-12-11T11:31:06Z</time>
      </trkpt>
      <trkpt lat="43.60694" lon="6.31558">
        <ele>719</ele>
        <time>2022-12-11T11:31:07Z</time>
      </trkpt>
      <trkpt lat="43.60695" lon="6.31557">
        <ele>719</ele>
        <time>2022-12-11T11:31:08Z</time>
      </trkpt>
      <trkpt lat="43.60695" lon="6.31555">
        <ele>719</ele>
        <time>2022-12-11T11:31:09Z</time>
      </trkpt>
      <trkpt lat="43.60696" lon="6.31554">
        <ele>719</ele>
        <time>2022-12-11T11:31:10Z</time>
      </trkpt>
      <trkpt lat="43.60697" lon="6.31552">
        <ele>719</ele>
        <time>2022-12-11T11:31:11Z</time>
      </trkpt>
      <trkpt lat="43.60698" lon="6.31551">
        <ele>719</ele>
        <time>2022-12-11T11:31:12Z</time>
      </trkpt>
      <trkpt lat="43.60698" lon="6.3155">
        <ele>719</ele>
        <time>2022-12-11T11:31:13Z</time>
      </trkpt>
      <trkpt lat="43.60699" lon="6.31549">
        <ele>720</ele>
        <time>2022-12-11T11:31:14Z</time>
      </trkpt>
      <trkpt lat="43.60699" lon="6.31548">
        <ele>720</ele>
        <time>2022-12-11T11:31:15Z</time>
      </trkpt>
      <trkpt lat="43.607" lon="6.31546">
        <ele>720</ele>
        <time>2022-12-11T11:31:16Z</time>
      </trkpt>
      <trkpt lat="43.60701" lon="6.31545">
        <ele>720</ele>
        <time>2022-12-11T11:31:17Z</time>
      </trkpt>
      <trkpt lat="43.60701" lon="6.31544">
        <ele>720</ele>
        <time>2022-12-11T11:31:18Z</time>
      </trkpt>
      <trkpt lat="43.60702" lon="6.31543">
        <ele>721</ele>
        <time>2022-12-11T11:31:19Z</time>
      </trkpt>
      <trkpt lat="43.60702" lon="6.31542">
        <ele>721</ele>
        <time>2022-12-11T11:31:20Z</time>
      </trkpt>
      <trkpt lat="43.60702" lon="6.3154">
        <ele>721</ele>
        <time>2022-12-11T11:31:21Z</time>
      </trkpt>
      <trkpt lat="43.60703" lon="6.31539">
        <ele>721</ele>
        <time>2022-12-11T11:31:22Z</time>
      </trkpt>
      <trkpt lat="43.60703" lon="6.31538">
        <ele>721</ele>
        <time>2022-12-11T11:31:23Z</time>
      </trkpt>
      <trkpt lat="43.60704" lon="6.31537">
        <ele>721</ele>
        <time>2022-12-11T11:31:24Z</time>
      </trkpt>
      <trkpt lat="43.60705" lon="6.31536">
        <ele>721</ele>
        <time>2022-12-11T11:31:25Z</time>
      </trkpt>
      <trkpt lat="43.60705" lon="6.31535">
        <ele>722</ele>
        <time>2022-12-11T11:31:26Z</time>
      </trkpt>
      <trkpt lat="43.60705" lon="6.31534">
        <ele>722</ele>
        <time>2022-12-11T11:31:27Z</time>
      </trkpt>
      <trkpt lat="43.60706" lon="6.31533">
        <ele>722</ele>
        <time>2022-12-11T11:31:28Z</time>
      </trkpt>
      <trkpt lat="43.60706" lon="6.31531">
        <ele>722</ele>
        <time>2022-12-11T11:31:29Z</time>
      </trkpt>
      <trkpt lat="43.60707" lon="6.3153">
        <ele>722</ele>
        <time>2022-12-11T11:31:30Z</time>
      </trkpt>
      <trkpt lat="43.60707" lon="6.31529">
        <ele>722</ele>
        <time>2022-12-11T11:31:31Z</time>
      </trkpt>
      <trkpt lat="43.60708" lon="6.31527">
        <ele>723</ele>
        <time>2022-12-11T11:31:32Z</time>
      </trkpt>
      <trkpt lat="43.60708" lon="6.31526">
        <ele>723</ele>
        <time>2022-12-11T11:31:33Z</time>
      </trkpt>
      <trkpt lat="43.60709" lon="6.31525">
        <ele>723</ele>
        <time>2022-12-11T11:31:34Z</time>
      </trkpt>
      <trkpt lat="43.60709" lon="6.31524">
        <ele>723</ele>
        <time>2022-12-11T11:31:35Z</time>
      </trkpt>
      <trkpt lat="43.60709" lon="6.31522">
        <ele>723</ele>
        <time>2022-12-11T11:31:36Z</time>
      </trkpt>
      <trkpt lat="43.6071" lon="6.31521">
        <ele>723</ele>
        <time>2022-12-11T11:31:37Z</time>
      </trkpt>
      <trkpt lat="43.6071" lon="6.3152">
        <ele>723</ele>
        <time>2022-12-11T11:31:38Z</time>
      </trkpt>
      <trkpt lat="43.6071" lon="6.31518">
        <ele>723</ele>
        <time>2022-12-11T11:31:39Z</time>
      </trkpt>
      <trkpt lat="43.60711" lon="6.31517">
        <ele>723</ele>
        <time>2022-12-11T11:31:40Z</time>
      </trkpt>
      <trkpt lat="43.60711" lon="6.31515">
        <ele>724</ele>
        <time>2022-12-11T11:31:41Z</time>
      </trkpt>
      <trkpt lat="43.60712" lon="6.31514">
        <ele>724</ele>
        <time>2022-12-11T11:31:42Z</time>
      </trkpt>
      <trkpt lat="43.60712" lon="6.31513">
        <ele>724</ele>
        <time>2022-12-11T11:31:43Z</time>
      </trkpt>
      <trkpt lat="43.60712" lon="6.31512">
        <ele>724</ele>
        <time>2022-12-11T11:31:44Z</time>
      </trkpt>
      <trkpt lat="43.60713" lon="6.3151">
        <ele>724</ele>
        <time>2022-12-11T11:31:45Z</time>
      </trkpt>
      <trkpt lat="43.60713" lon="6.31509">
        <ele>724</ele>
        <time>2022-12-11T11:31:46Z</time>
      </trkpt>
      <trkpt lat="43.60714" lon="6.31508">
        <ele>724</ele>
        <time>2022-12-11T11:31:47Z</time>
      </trkpt>
      <trkpt lat="43.60714" lon="6.31507">
        <ele>724</ele>
        <time>2022-12-11T11:31:48Z</time>
      </trkpt>
      <trkpt lat="43.60715" lon="6.31505">
        <ele>724</ele>
        <time>2022-12-11T11:31:49Z</time>
      </trkpt>
      <trkpt lat="43.60715" lon="6.31504">
        <ele>724</ele>
        <time>2022-12-11T11:31:50Z</time>
      </trkpt>
      <trkpt lat="43.60715" lon="6.31503">
        <ele>724</ele>
        <time>2022-12-11T11:31:51Z</time>
      </trkpt>
      <trkpt lat="43.60716" lon="6.31502">
        <ele>724</ele>
        <time>2022-12-11T11:31:52Z</time>
      </trkpt>
      <trkpt lat="43.60716" lon="6.31501">
        <ele>723</ele>
        <time>2022-12-11T11:31:53Z</time>
      </trkpt>
      <trkpt lat="43.60717" lon="6.315">
        <ele>723</ele>
        <time>2022-12-11T11:31:54Z</time>
      </trkpt>
      <trkpt lat="43.60717" lon="6.31498">
        <ele>723</ele>
        <time>2022-12-11T11:31:55Z</time>
      </trkpt>
      <trkpt lat="43.60718" lon="6.31497">
        <ele>723</ele>
        <time>2022-12-11T11:31:56Z</time>
      </trkpt>
      <trkpt lat="43.60718" lon="6.31495">
        <ele>722</ele>
        <time>2022-12-11T11:31:57Z</time>
      </trkpt>
      <trkpt lat="43.60718" lon="6.31494">
        <ele>722</ele>
        <time>2022-12-11T11:31:58Z</time>
      </trkpt>
      <trkpt lat="43.60718" lon="6.31492">
        <ele>722</ele>
        <time>2022-12-11T11:31:59Z</time>
      </trkpt>
      <trkpt lat="43.60718" lon="6.31491">
        <ele>722</ele>
        <time>2022-12-11T11:32:00Z</time>
      </trkpt>
      <trkpt lat="43.60718" lon="6.31489">
        <ele>722</ele>
        <time>2022-12-11T11:32:01Z</time>
      </trkpt>
      <trkpt lat="43.60718" lon="6.31488">
        <ele>722</ele>
        <time>2022-12-11T11:32:02Z</time>
      </trkpt>
      <trkpt lat="43.60718" lon="6.31486">
        <ele>722</ele>
        <time>2022-12-11T11:32:03Z</time>
      </trkpt>
      <trkpt lat="43.60718" lon="6.31485">
        <ele>721</ele>
        <time>2022-12-11T11:32:04Z</time>
      </trkpt>
      <trkpt lat="43.60719" lon="6.31484">
        <ele>721</ele>
        <time>2022-12-11T11:32:05Z</time>
      </trkpt>
      <trkpt lat="43.60719" lon="6.31482">
        <ele>721</ele>
        <time>2022-12-11T11:32:06Z</time>
      </trkpt>
      <trkpt lat="43.60719" lon="6.31481">
        <ele>721</ele>
        <time>2022-12-11T11:32:07Z</time>
      </trkpt>
      <trkpt lat="43.60719" lon="6.31479">
        <ele>721</ele>
        <time>2022-12-11T11:32:08Z</time>
      </trkpt>
      <trkpt lat="43.60719" lon="6.31478">
        <ele>721</ele>
        <time>2022-12-11T11:32:09Z</time>
      </trkpt>
      <trkpt lat="43.60719" lon="6.31476">
        <ele>721</ele>
        <time>2022-12-11T11:32:10Z</time>
      </trkpt>
      <trkpt lat="43.60719" lon="6.31475">
        <ele>721</ele>
        <time>2022-12-11T11:32:11Z</time>
      </trkpt>
      <trkpt lat="43.60719" lon="6.31473">
        <ele>721</ele>
        <time>2022-12-11T11:32:12Z</time>
      </trkpt>
      <trkpt lat="43.60719" lon="6.31472">
        <ele>721</ele>
        <time>2022-12-11T11:32:13Z</time>
      </trkpt>
      <trkpt lat="43.60719" lon="6.31471">
        <ele>721</ele>
        <time>2022-12-11T11:32:14Z</time>
      </trkpt>
      <trkpt lat="43.60719" lon="6.3147">
        <ele>721</ele>
        <time>2022-12-11T11:32:15Z</time>
      </trkpt>
      <trkpt lat="43.60719" lon="6.31469">
        <ele>721</ele>
        <time>2022-12-11T11:32:16Z</time>
      </trkpt>
      <trkpt lat="43.60719" lon="6.31468">
        <ele>721</ele>
        <time>2022-12-11T11:32:17Z</time>
      </trkpt>
      <trkpt lat="43.6072" lon="6.31467">
        <ele>721</ele>
        <time>2022-12-11T11:32:18Z</time>
      </trkpt>
      <trkpt lat="43.6072" lon="6.31466">
        <ele>721</ele>
        <time>2022-12-11T11:32:19Z</time>
      </trkpt>
      <trkpt lat="43.6072" lon="6.31465">
        <ele>721</ele>
        <time>2022-12-11T11:32:20Z</time>
      </trkpt>
      <trkpt lat="43.60721" lon="6.31463">
        <ele>722</ele>
        <time>2022-12-11T11:32:21Z</time>
      </trkpt>
      <trkpt lat="43.60721" lon="6.31461">
        <ele>723</ele>
        <time>2022-12-11T11:32:22Z</time>
      </trkpt>
      <trkpt lat="43.60722" lon="6.3146">
        <ele>723</ele>
        <time>2022-12-11T11:32:23Z</time>
      </trkpt>
      <trkpt lat="43.60723" lon="6.31458">
        <ele>723</ele>
        <time>2022-12-11T11:32:24Z</time>
      </trkpt>
      <trkpt lat="43.60723" lon="6.31457">
        <ele>724</ele>
        <time>2022-12-11T11:32:25Z</time>
      </trkpt>
      <trkpt lat="43.60724" lon="6.31456">
        <ele>724</ele>
        <time>2022-12-11T11:32:26Z</time>
      </trkpt>
      <trkpt lat="43.60724" lon="6.31455">
        <ele>724</ele>
        <time>2022-12-11T11:32:27Z</time>
      </trkpt>
      <trkpt lat="43.60725" lon="6.31454">
        <ele>724</ele>
        <time>2022-12-11T11:32:28Z</time>
      </trkpt>
      <trkpt lat="43.60726" lon="6.31452">
        <ele>725</ele>
        <time>2022-12-11T11:32:29Z</time>
      </trkpt>
      <trkpt lat="43.60726" lon="6.31451">
        <ele>725</ele>
        <time>2022-12-11T11:32:30Z</time>
      </trkpt>
      <trkpt lat="43.60727" lon="6.3145">
        <ele>726</ele>
        <time>2022-12-11T11:32:31Z</time>
      </trkpt>
      <trkpt lat="43.60728" lon="6.31448">
        <ele>726</ele>
        <time>2022-12-11T11:32:32Z</time>
      </trkpt>
      <trkpt lat="43.60729" lon="6.31447">
        <ele>726</ele>
        <time>2022-12-11T11:32:33Z</time>
      </trkpt>
      <trkpt lat="43.6073" lon="6.31446">
        <ele>726</ele>
        <time>2022-12-11T11:32:34Z</time>
      </trkpt>
      <trkpt lat="43.6073" lon="6.31445">
        <ele>726</ele>
        <time>2022-12-11T11:32:35Z</time>
      </trkpt>
      <trkpt lat="43.60731" lon="6.31445">
        <ele>726</ele>
        <time>2022-12-11T11:32:36Z</time>
      </trkpt>
      <trkpt lat="43.60732" lon="6.31444">
        <ele>726</ele>
        <time>2022-12-11T11:32:37Z</time>
      </trkpt>
      <trkpt lat="43.60732" lon="6.31443">
        <ele>726</ele>
        <time>2022-12-11T11:32:38Z</time>
      </trkpt>
      <trkpt lat="43.60733" lon="6.31442">
        <ele>727</ele>
        <time>2022-12-11T11:32:39Z</time>
      </trkpt>
      <trkpt lat="43.60734" lon="6.31441">
        <ele>727</ele>
        <time>2022-12-11T11:32:40Z</time>
      </trkpt>
      <trkpt lat="43.60735" lon="6.31441">
        <ele>728</ele>
        <time>2022-12-11T11:32:41Z</time>
      </trkpt>
      <trkpt lat="43.60736" lon="6.3144">
        <ele>728</ele>
        <time>2022-12-11T11:32:42Z</time>
      </trkpt>
      <trkpt lat="43.60737" lon="6.31439">
        <ele>728</ele>
        <time>2022-12-11T11:32:43Z</time>
      </trkpt>
      <trkpt lat="43.60738" lon="6.31438">
        <ele>728</ele>
        <time>2022-12-11T11:32:44Z</time>
      </trkpt>
      <trkpt lat="43.60739" lon="6.31437">
        <ele>728</ele>
        <time>2022-12-11T11:32:45Z</time>
      </trkpt>
      <trkpt lat="43.6074" lon="6.31436">
        <ele>728</ele>
        <time>2022-12-11T11:32:46Z</time>
      </trkpt>
      <trkpt lat="43.60741" lon="6.31435">
        <ele>728</ele>
        <time>2022-12-11T11:32:47Z</time>
      </trkpt>
      <trkpt lat="43.60741" lon="6.31435">
        <ele>729</ele>
        <time>2022-12-11T11:32:48Z</time>
      </trkpt>
      <trkpt lat="43.60742" lon="6.31434">
        <ele>730</ele>
        <time>2022-12-11T11:32:49Z</time>
      </trkpt>
      <trkpt lat="43.60742" lon="6.31433">
        <ele>730</ele>
        <time>2022-12-11T11:32:50Z</time>
      </trkpt>
      <trkpt lat="43.60743" lon="6.31432">
        <ele>730</ele>
        <time>2022-12-11T11:32:51Z</time>
      </trkpt>
      <trkpt lat="43.60744" lon="6.31432">
        <ele>730</ele>
        <time>2022-12-11T11:32:52Z</time>
      </trkpt>
      <trkpt lat="43.60745" lon="6.31431">
        <ele>730</ele>
        <time>2022-12-11T11:32:53Z</time>
      </trkpt>
      <trkpt lat="43.60745" lon="6.31431">
        <ele>731</ele>
        <time>2022-12-11T11:32:54Z</time>
      </trkpt>
      <trkpt lat="43.60746" lon="6.31432">
        <ele>731</ele>
        <time>2022-12-11T11:32:55Z</time>
      </trkpt>
      <trkpt lat="43.60747" lon="6.31432">
        <ele>731</ele>
        <time>2022-12-11T11:32:56Z</time>
      </trkpt>
      <trkpt lat="43.60748" lon="6.31432">
        <ele>731</ele>
        <time>2022-12-11T11:32:57Z</time>
      </trkpt>
      <trkpt lat="43.60748" lon="6.31432">
        <ele>731</ele>
        <time>2022-12-11T11:32:58Z</time>
      </trkpt>
      <trkpt lat="43.60749" lon="6.31431">
        <ele>731</ele>
        <time>2022-12-11T11:32:59Z</time>
      </trkpt>
      <trkpt lat="43.60749" lon="6.31431">
        <ele>732</ele>
        <time>2022-12-11T11:33:00Z</time>
      </trkpt>
      <trkpt lat="43.6075" lon="6.31431">
        <ele>732</ele>
        <time>2022-12-11T11:33:01Z</time>
      </trkpt>
      <trkpt lat="43.60751" lon="6.31431">
        <ele>733</ele>
        <time>2022-12-11T11:33:02Z</time>
      </trkpt>
      <trkpt lat="43.60752" lon="6.31431">
        <ele>733</ele>
        <time>2022-12-11T11:33:03Z</time>
      </trkpt>
      <trkpt lat="43.60753" lon="6.3143">
        <ele>733</ele>
        <time>2022-12-11T11:33:04Z</time>
      </trkpt>
      <trkpt lat="43.60754" lon="6.3143">
        <ele>733</ele>
        <time>2022-12-11T11:33:05Z</time>
      </trkpt>
      <trkpt lat="43.60755" lon="6.3143">
        <ele>733</ele>
        <time>2022-12-11T11:33:06Z</time>
      </trkpt>
      <trkpt lat="43.60756" lon="6.3143">
        <ele>733</ele>
        <time>2022-12-11T11:33:07Z</time>
      </trkpt>
      <trkpt lat="43.60756" lon="6.3143">
        <ele>734</ele>
        <time>2022-12-11T11:33:08Z</time>
      </trkpt>
      <trkpt lat="43.60757" lon="6.3143">
        <ele>734</ele>
        <time>2022-12-11T11:33:09Z</time>
      </trkpt>
      <trkpt lat="43.60758" lon="6.3143">
        <ele>734</ele>
        <time>2022-12-11T11:33:10Z</time>
      </trkpt>
      <trkpt lat="43.60759" lon="6.3143">
        <ele>734</ele>
        <time>2022-12-11T11:33:11Z</time>
      </trkpt>
      <trkpt lat="43.60759" lon="6.3143">
        <ele>734</ele>
        <time>2022-12-11T11:33:12Z</time>
      </trkpt>
      <trkpt lat="43.6076" lon="6.31431">
        <ele>733</ele>
        <time>2022-12-11T11:33:13Z</time>
      </trkpt>
      <trkpt lat="43.60761" lon="6.31431">
        <ele>733</ele>
        <time>2022-12-11T11:33:14Z</time>
      </trkpt>
      <trkpt lat="43.60761" lon="6.31431">
        <ele>733</ele>
        <time>2022-12-11T11:33:15Z</time>
      </trkpt>
      <trkpt lat="43.60762" lon="6.31431">
        <ele>733</ele>
        <time>2022-12-11T11:33:16Z</time>
      </trkpt>
      <trkpt lat="43.60762" lon="6.31431">
        <ele>733</ele>
        <time>2022-12-11T11:33:17Z</time>
      </trkpt>
      <trkpt lat="43.60763" lon="6.31431">
        <ele>733</ele>
        <time>2022-12-11T11:33:18Z</time>
      </trkpt>
      <trkpt lat="43.60764" lon="6.31431">
        <ele>733</ele>
        <time>2022-12-11T11:33:19Z</time>
      </trkpt>
      <trkpt lat="43.60764" lon="6.31431">
        <ele>733</ele>
        <time>2022-12-11T11:33:20Z</time>
      </trkpt>
      <trkpt lat="43.60765" lon="6.31432">
        <ele>733</ele>
        <time>2022-12-11T11:33:21Z</time>
      </trkpt>
      <trkpt lat="43.60766" lon="6.31432">
        <ele>733</ele>
        <time>2022-12-11T11:33:22Z</time>
      </trkpt>
      <trkpt lat="43.60766" lon="6.31432">
        <ele>733</ele>
        <time>2022-12-11T11:33:23Z</time>
      </trkpt>
      <trkpt lat="43.60767" lon="6.31433">
        <ele>733</ele>
        <time>2022-12-11T11:33:24Z</time>
      </trkpt>
      <trkpt lat="43.60767" lon="6.31433">
        <ele>733</ele>
        <time>2022-12-11T11:33:25Z</time>
      </trkpt>
      <trkpt lat="43.60768" lon="6.31433">
        <ele>733</ele>
        <time>2022-12-11T11:33:26Z</time>
      </trkpt>
      <trkpt lat="43.60769" lon="6.31434">
        <ele>733</ele>
        <time>2022-12-11T11:33:27Z</time>
      </trkpt>
      <trkpt lat="43.60769" lon="6.31434">
        <ele>732</ele>
        <time>2022-12-11T11:33:28Z</time>
      </trkpt>
      <trkpt lat="43.6077" lon="6.31435">
        <ele>732</ele>
        <time>2022-12-11T11:33:29Z</time>
      </trkpt>
      <trkpt lat="43.60771" lon="6.31436">
        <ele>732</ele>
        <time>2022-12-11T11:33:30Z</time>
      </trkpt>
      <trkpt lat="43.60772" lon="6.31436">
        <ele>730</ele>
        <time>2022-12-11T11:33:31Z</time>
      </trkpt>
      <trkpt lat="43.60773" lon="6.31437">
        <ele>730</ele>
        <time>2022-12-11T11:33:32Z</time>
      </trkpt>
      <trkpt lat="43.60774" lon="6.31437">
        <ele>730</ele>
        <time>2022-12-11T11:33:33Z</time>
      </trkpt>
      <trkpt lat="43.60775" lon="6.31437">
        <ele>729</ele>
        <time>2022-12-11T11:33:34Z</time>
      </trkpt>
      <trkpt lat="43.60776" lon="6.31438">
        <ele>729</ele>
        <time>2022-12-11T11:33:35Z</time>
      </trkpt>
      <trkpt lat="43.60777" lon="6.31438">
        <ele>729</ele>
        <time>2022-12-11T11:33:36Z</time>
      </trkpt>
      <trkpt lat="43.60778" lon="6.31438">
        <ele>729</ele>
        <time>2022-12-11T11:33:37Z</time>
      </trkpt>
      <trkpt lat="43.60779" lon="6.31439">
        <ele>729</ele>
        <time>2022-12-11T11:33:38Z</time>
      </trkpt>
      <trkpt lat="43.6078" lon="6.31439">
        <ele>729</ele>
        <time>2022-12-11T11:33:39Z</time>
      </trkpt>
      <trkpt lat="43.60781" lon="6.31439">
        <ele>729</ele>
        <time>2022-12-11T11:33:40Z</time>
      </trkpt>
      <trkpt lat="43.60782" lon="6.31439">
        <ele>729</ele>
        <time>2022-12-11T11:33:41Z</time>
      </trkpt>
      <trkpt lat="43.60783" lon="6.31439">
        <ele>729</ele>
        <time>2022-12-11T11:33:42Z</time>
      </trkpt>
      <trkpt lat="43.60784" lon="6.31439">
        <ele>729</ele>
        <time>2022-12-11T11:33:43Z</time>
      </trkpt>
      <trkpt lat="43.60784" lon="6.31439">
        <ele>728</ele>
        <time>2022-12-11T11:33:44Z</time>
      </trkpt>
      <trkpt lat="43.60785" lon="6.31439">
        <ele>728</ele>
        <time>2022-12-11T11:33:45Z</time>
      </trkpt>
      <trkpt lat="43.60785" lon="6.3144">
        <ele>728</ele>
        <time>2022-12-11T11:33:46Z</time>
      </trkpt>
      <trkpt lat="43.60786" lon="6.3144">
        <ele>728</ele>
        <time>2022-12-11T11:33:47Z</time>
      </trkpt>
      <trkpt lat="43.60787" lon="6.3144">
        <ele>728</ele>
        <time>2022-12-11T11:33:48Z</time>
      </trkpt>
      <trkpt lat="43.60788" lon="6.31441">
        <ele>728</ele>
        <time>2022-12-11T11:33:49Z</time>
      </trkpt>
      <trkpt lat="43.60789" lon="6.31441">
        <ele>728</ele>
        <time>2022-12-11T11:33:50Z</time>
      </trkpt>
      <trkpt lat="43.60789" lon="6.31442">
        <ele>728</ele>
        <time>2022-12-11T11:33:51Z</time>
      </trkpt>
      <trkpt lat="43.6079" lon="6.31442">
        <ele>728</ele>
        <time>2022-12-11T11:33:52Z</time>
      </trkpt>
      <trkpt lat="43.60791" lon="6.31443">
        <ele>728</ele>
        <time>2022-12-11T11:33:53Z</time>
      </trkpt>
      <trkpt lat="43.60792" lon="6.31443">
        <ele>728</ele>
        <time>2022-12-11T11:33:54Z</time>
      </trkpt>
      <trkpt lat="43.60793" lon="6.31444">
        <ele>728</ele>
        <time>2022-12-11T11:33:55Z</time>
      </trkpt>
      <trkpt lat="43.60794" lon="6.31444">
        <ele>728</ele>
        <time>2022-12-11T11:33:56Z</time>
      </trkpt>
      <trkpt lat="43.60795" lon="6.31445">
        <ele>727</ele>
        <time>2022-12-11T11:33:57Z</time>
      </trkpt>
      <trkpt lat="43.60796" lon="6.31445">
        <ele>726</ele>
        <time>2022-12-11T11:33:58Z</time>
      </trkpt>
      <trkpt lat="43.60797" lon="6.31446">
        <ele>726</ele>
        <time>2022-12-11T11:33:59Z</time>
      </trkpt>
      <trkpt lat="43.60798" lon="6.31446">
        <ele>725</ele>
        <time>2022-12-11T11:34:00Z</time>
      </trkpt>
      <trkpt lat="43.60799" lon="6.31446">
        <ele>725</ele>
        <time>2022-12-11T11:34:01Z</time>
      </trkpt>
      <trkpt lat="43.608" lon="6.31446">
        <ele>725</ele>
        <time>2022-12-11T11:34:02Z</time>
      </trkpt>
      <trkpt lat="43.60801" lon="6.31446">
        <ele>725</ele>
        <time>2022-12-11T11:34:03Z</time>
      </trkpt>
      <trkpt lat="43.60802" lon="6.31446">
        <ele>725</ele>
        <time>2022-12-11T11:34:04Z</time>
      </trkpt>
      <trkpt lat="43.60803" lon="6.31447">
        <ele>725</ele>
        <time>2022-12-11T11:34:05Z</time>
      </trkpt>
      <trkpt lat="43.60804" lon="6.31447">
        <ele>725</ele>
        <time>2022-12-11T11:34:06Z</time>
      </trkpt>
      <trkpt lat="43.60805" lon="6.31447">
        <ele>725</ele>
        <time>2022-12-11T11:34:07Z</time>
      </trkpt>
      <trkpt lat="43.60805" lon="6.31447">
        <ele>725</ele>
        <time>2022-12-11T11:34:08Z</time>
      </trkpt>
      <trkpt lat="43.60806" lon="6.31446">
        <ele>725</ele>
        <time>2022-12-11T11:34:09Z</time>
      </trkpt>
      <trkpt lat="43.60807" lon="6.31447">
        <ele>725</ele>
        <time>2022-12-11T11:34:10Z</time>
      </trkpt>
      <trkpt lat="43.60807" lon="6.31447">
        <ele>725</ele>
        <time>2022-12-11T11:34:11Z</time>
      </trkpt>
      <trkpt lat="43.60808" lon="6.31447">
        <ele>725</ele>
        <time>2022-12-11T11:34:12Z</time>
      </trkpt>
      <trkpt lat="43.60809" lon="6.31447">
        <ele>726</ele>
        <time>2022-12-11T11:34:13Z</time>
      </trkpt>
      <trkpt lat="43.6081" lon="6.31447">
        <ele>726</ele>
        <time>2022-12-11T11:34:14Z</time>
      </trkpt>
      <trkpt lat="43.60811" lon="6.31446">
        <ele>726</ele>
        <time>2022-12-11T11:34:15Z</time>
      </trkpt>
      <trkpt lat="43.60812" lon="6.31446">
        <ele>726</ele>
        <time>2022-12-11T11:34:16Z</time>
      </trkpt>
      <trkpt lat="43.60813" lon="6.31446">
        <ele>726</ele>
        <time>2022-12-11T11:34:17Z</time>
      </trkpt>
      <trkpt lat="43.60814" lon="6.31445">
        <ele>726</ele>
        <time>2022-12-11T11:34:18Z</time>
      </trkpt>
      <trkpt lat="43.60815" lon="6.31445">
        <ele>726</ele>
        <time>2022-12-11T11:34:19Z</time>
      </trkpt>
      <trkpt lat="43.60816" lon="6.31445">
        <ele>727</ele>
        <time>2022-12-11T11:34:20Z</time>
      </trkpt>
      <trkpt lat="43.60817" lon="6.31445">
        <ele>727</ele>
        <time>2022-12-11T11:34:21Z</time>
      </trkpt>
      <trkpt lat="43.60818" lon="6.31445">
        <ele>727</ele>
        <time>2022-12-11T11:34:22Z</time>
      </trkpt>
      <trkpt lat="43.60819" lon="6.31445">
        <ele>727</ele>
        <time>2022-12-11T11:34:23Z</time>
      </trkpt>
      <trkpt lat="43.6082" lon="6.31444">
        <ele>727</ele>
        <time>2022-12-11T11:34:24Z</time>
      </trkpt>
      <trkpt lat="43.60821" lon="6.31444">
        <ele>728</ele>
        <time>2022-12-11T11:34:25Z</time>
      </trkpt>
      <trkpt lat="43.60822" lon="6.31443">
        <ele>730</ele>
        <time>2022-12-11T11:34:26Z</time>
      </trkpt>
      <trkpt lat="43.60823" lon="6.31442">
        <ele>731</ele>
        <time>2022-12-11T11:34:27Z</time>
      </trkpt>
      <trkpt lat="43.60824" lon="6.31441">
        <ele>732</ele>
        <time>2022-12-11T11:34:28Z</time>
      </trkpt>
      <trkpt lat="43.60825" lon="6.3144">
        <ele>732</ele>
        <time>2022-12-11T11:34:29Z</time>
      </trkpt>
      <trkpt lat="43.60826" lon="6.31439">
        <ele>732</ele>
        <time>2022-12-11T11:34:30Z</time>
      </trkpt>
      <trkpt lat="43.60827" lon="6.31439">
        <ele>732</ele>
        <time>2022-12-11T11:34:31Z</time>
      </trkpt>
      <trkpt lat="43.60828" lon="6.31438">
        <ele>732</ele>
        <time>2022-12-11T11:34:32Z</time>
      </trkpt>
      <trkpt lat="43.60828" lon="6.31437">
        <ele>732</ele>
        <time>2022-12-11T11:34:33Z</time>
      </trkpt>
      <trkpt lat="43.60829" lon="6.31436">
        <ele>732</ele>
        <time>2022-12-11T11:34:34Z</time>
      </trkpt>
      <trkpt lat="43.6083" lon="6.31436">
        <ele>732</ele>
        <time>2022-12-11T11:34:35Z</time>
      </trkpt>
      <trkpt lat="43.60832" lon="6.31435">
        <ele>732</ele>
        <time>2022-12-11T11:34:36Z</time>
      </trkpt>
      <trkpt lat="43.60833" lon="6.31434">
        <ele>731</ele>
        <time>2022-12-11T11:34:37Z</time>
      </trkpt>
      <trkpt lat="43.60834" lon="6.31434">
        <ele>731</ele>
        <time>2022-12-11T11:34:38Z</time>
      </trkpt>
      <trkpt lat="43.60835" lon="6.31433">
        <ele>731</ele>
        <time>2022-12-11T11:34:39Z</time>
      </trkpt>
      <trkpt lat="43.60835" lon="6.31432">
        <ele>731</ele>
        <time>2022-12-11T11:34:40Z</time>
      </trkpt>
      <trkpt lat="43.60836" lon="6.31432">
        <ele>730</ele>
        <time>2022-12-11T11:34:41Z</time>
      </trkpt>
      <trkpt lat="43.60837" lon="6.31431">
        <ele>730</ele>
        <time>2022-12-11T11:34:42Z</time>
      </trkpt>
      <trkpt lat="43.60838" lon="6.3143">
        <ele>730</ele>
        <time>2022-12-11T11:34:43Z</time>
      </trkpt>
      <trkpt lat="43.60839" lon="6.31429">
        <ele>730</ele>
        <time>2022-12-11T11:34:44Z</time>
      </trkpt>
      <trkpt lat="43.6084" lon="6.31428">
        <ele>729</ele>
        <time>2022-12-11T11:34:45Z</time>
      </trkpt>
      <trkpt lat="43.60841" lon="6.31428">
        <ele>729</ele>
        <time>2022-12-11T11:34:46Z</time>
      </trkpt>
      <trkpt lat="43.60842" lon="6.31427">
        <ele>727</ele>
        <time>2022-12-11T11:34:47Z</time>
      </trkpt>
      <trkpt lat="43.60844" lon="6.31426">
        <ele>727</ele>
        <time>2022-12-11T11:34:48Z</time>
      </trkpt>
      <trkpt lat="43.60845" lon="6.31426">
        <ele>727</ele>
        <time>2022-12-11T11:34:49Z</time>
      </trkpt>
      <trkpt lat="43.60846" lon="6.31425">
        <ele>726</ele>
        <time>2022-12-11T11:34:50Z</time>
      </trkpt>
      <trkpt lat="43.60847" lon="6.31424">
        <ele>726</ele>
        <time>2022-12-11T11:34:51Z</time>
      </trkpt>
      <trkpt lat="43.60848" lon="6.31423">
        <ele>726</ele>
        <time>2022-12-11T11:34:52Z</time>
      </trkpt>
      <trkpt lat="43.60849" lon="6.31422">
        <ele>726</ele>
        <time>2022-12-11T11:34:53Z</time>
      </trkpt>
      <trkpt lat="43.6085" lon="6.31421">
        <ele>726</ele>
        <time>2022-12-11T11:34:54Z</time>
      </trkpt>
      <trkpt lat="43.60851" lon="6.3142">
        <ele>725</ele>
        <time>2022-12-11T11:34:55Z</time>
      </trkpt>
      <trkpt lat="43.60852" lon="6.31419">
        <ele>725</ele>
        <time>2022-12-11T11:34:56Z</time>
      </trkpt>
      <trkpt lat="43.60852" lon="6.31418">
        <ele>725</ele>
        <time>2022-12-11T11:34:57Z</time>
      </trkpt>
      <trkpt lat="43.60853" lon="6.31418">
        <ele>725</ele>
        <time>2022-12-11T11:34:58Z</time>
      </trkpt>
      <trkpt lat="43.60854" lon="6.31417">
        <ele>725</ele>
        <time>2022-12-11T11:34:59Z</time>
      </trkpt>
      <trkpt lat="43.60855" lon="6.31416">
        <ele>725</ele>
        <time>2022-12-11T11:35:00Z</time>
      </trkpt>
      <trkpt lat="43.60855" lon="6.31415">
        <ele>724</ele>
        <time>2022-12-11T11:35:01Z</time>
      </trkpt>
      <trkpt lat="43.60856" lon="6.31415">
        <ele>724</ele>
        <time>2022-12-11T11:35:02Z</time>
      </trkpt>
      <trkpt lat="43.60857" lon="6.31414">
        <ele>724</ele>
        <time>2022-12-11T11:35:03Z</time>
      </trkpt>
      <trkpt lat="43.60857" lon="6.31413">
        <ele>724</ele>
        <time>2022-12-11T11:35:04Z</time>
      </trkpt>
      <trkpt lat="43.60858" lon="6.31412">
        <ele>724</ele>
        <time>2022-12-11T11:35:05Z</time>
      </trkpt>
      <trkpt lat="43.60859" lon="6.31411">
        <ele>724</ele>
        <time>2022-12-11T11:35:06Z</time>
      </trkpt>
      <trkpt lat="43.60859" lon="6.3141">
        <ele>724</ele>
        <time>2022-12-11T11:35:07Z</time>
      </trkpt>
      <trkpt lat="43.6086" lon="6.3141">
        <ele>724</ele>
        <time>2022-12-11T11:35:08Z</time>
      </trkpt>
      <trkpt lat="43.6086" lon="6.31409">
        <ele>724</ele>
        <time>2022-12-11T11:35:09Z</time>
      </trkpt>
      <trkpt lat="43.60861" lon="6.31408">
        <ele>724</ele>
        <time>2022-12-11T11:35:10Z</time>
      </trkpt>
      <trkpt lat="43.60862" lon="6.31407">
        <ele>724</ele>
        <time>2022-12-11T11:35:11Z</time>
      </trkpt>
      <trkpt lat="43.60862" lon="6.31407">
        <ele>724</ele>
        <time>2022-12-11T11:35:12Z</time>
      </trkpt>
      <trkpt lat="43.60862" lon="6.31406">
        <ele>724</ele>
        <time>2022-12-11T11:35:13Z</time>
      </trkpt>
      <trkpt lat="43.60863" lon="6.31406">
        <ele>724</ele>
        <time>2022-12-11T11:35:14Z</time>
      </trkpt>
      <trkpt lat="43.60863" lon="6.31405">
        <ele>724</ele>
        <time>2022-12-11T11:35:15Z</time>
      </trkpt>
      <trkpt lat="43.60863" lon="6.31405">
        <ele>724</ele>
        <time>2022-12-11T11:35:16Z</time>
      </trkpt>
      <trkpt lat="43.60864" lon="6.31405">
        <ele>724</ele>
        <time>2022-12-11T11:35:17Z</time>
      </trkpt>
      <trkpt lat="43.60864" lon="6.31405">
        <ele>724</ele>
        <time>2022-12-11T11:35:18Z</time>
      </trkpt>
      <trkpt lat="43.60864" lon="6.31405">
        <ele>724</ele>
        <time>2022-12-11T11:35:19Z</time>
      </trkpt>
      <trkpt lat="43.60864" lon="6.31405">
        <ele>724</ele>
        <time>2022-12-11T11:35:20Z</time>
      </trkpt>
      <trkpt lat="43.60864" lon="6.31405">
        <ele>724</ele>
        <time>2022-12-11T11:35:21Z</time>
      </trkpt>
      <trkpt lat="43.60863" lon="6.31406">
        <ele>724</ele>
        <time>2022-12-11T11:35:22Z</time>
      </trkpt>
      <trkpt lat="43.60863" lon="6.31406">
        <ele>724</ele>
        <time>2022-12-11T11:35:23Z</time>
      </trkpt>
      <trkpt lat="43.60863" lon="6.31406">
        <ele>724</ele>
        <time>2022-12-11T11:35:24Z</time>
      </trkpt>
      <trkpt lat="43.60863" lon="6.31406">
        <ele>724</ele>
        <time>2022-12-11T11:35:25Z</time>
      </trkpt>
      <trkpt lat="43.60863" lon="6.31406">
        <ele>724</ele>
        <time>2022-12-11T11:35:26Z</time>
      </trkpt>
      <trkpt lat="43.60863" lon="6.31406">
        <ele>724</ele>
        <time>2022-12-11T11:35:27Z</time>
      </trkpt>
      <trkpt lat="43.60863" lon="6.31406">
        <ele>724</ele>
        <time>2022-12-11T11:35:28Z</time>
      </trkpt>
      <trkpt lat="43.60863" lon="6.31406">
        <ele>724</ele>
        <time>2022-12-11T11:35:29Z</time>
      </trkpt>
      <trkpt lat="43.60863" lon="6.31406">
        <ele>724</ele>
        <time>2022-12-11T11:35:30Z</time>
      </trkpt>
      <trkpt lat="43.60863" lon="6.31406">
        <ele>724</ele>
        <time>2022-12-11T11:35:31Z</time>
      </trkpt>
      <trkpt lat="43.60863" lon="6.31406">
        <ele>724</ele>
        <time>2022-12-11T11:35:32Z</time>
      </trkpt>
      <trkpt lat="43.60863" lon="6.31406">
        <ele>724</ele>
        <time>2022-12-11T11:35:33Z</time>
      </trkpt>
      <trkpt lat="43.60863" lon="6.31406">
        <ele>724</ele>
        <time>2022-12-11T11:35:34Z</time>
      </trkpt>
      <trkpt lat="43.60863" lon="6.31406">
        <ele>724</ele>
        <time>2022-12-11T11:35:35Z</time>
      </trkpt>
      <trkpt lat="43.60863" lon="6.31406">
        <ele>724</ele>
        <time>2022-12-11T11:35:36Z</time>
      </trkpt>
      <trkpt lat="43.60863" lon="6.31406">
        <ele>724</ele>
        <time>2022-12-11T11:35:37Z</time>
      </trkpt>
      <trkpt lat="43.60862" lon="6.31408">
        <ele>724</ele>
        <time>2022-12-11T11:35:38Z</time>
      </trkpt>
      <trkpt lat="43.60862" lon="6.31408">
        <ele>724</ele>
        <time>2022-12-11T11:35:39Z</time>
      </trkpt>
      <trkpt lat="43.60862" lon="6.31408">
        <ele>724</ele>
        <time>2022-12-11T11:35:40Z</time>
      </trkpt>
      <trkpt lat="43.60862" lon="6.31408">
        <ele>724</ele>
        <time>2022-12-11T11:35:41Z</time>
      </trkpt>
      <trkpt lat="43.60862" lon="6.31406">
        <ele>724</ele>
        <time>2022-12-11T11:35:42Z</time>
      </trkpt>
      <trkpt lat="43.60862" lon="6.31406">
        <ele>724</ele>
        <time>2022-12-11T11:35:43Z</time>
      </trkpt>
      <trkpt lat="43.60862" lon="6.31405">
        <ele>725</ele>
        <time>2022-12-11T11:35:44Z</time>
      </trkpt>
      <trkpt lat="43.60862" lon="6.31405">
        <ele>725</ele>
        <time>2022-12-11T11:35:45Z</time>
      </trkpt>
      <trkpt lat="43.60863" lon="6.31405">
        <ele>725</ele>
        <time>2022-12-11T11:35:46Z</time>
      </trkpt>
      <trkpt lat="43.60863" lon="6.31405">
        <ele>725</ele>
        <time>2022-12-11T11:35:47Z</time>
      </trkpt>
      <trkpt lat="43.60863" lon="6.31405">
        <ele>725</ele>
        <time>2022-12-11T11:35:48Z</time>
      </trkpt>
      <trkpt lat="43.60863" lon="6.31405">
        <ele>725</ele>
        <time>2022-12-11T11:35:49Z</time>
      </trkpt>
      <trkpt lat="43.60863" lon="6.31405">
        <ele>725</ele>
        <time>2022-12-11T11:35:50Z</time>
      </trkpt>
      <trkpt lat="43.60863" lon="6.31404">
        <ele>725</ele>
        <time>2022-12-11T11:35:51Z</time>
      </trkpt>
      <trkpt lat="43.60864" lon="6.31404">
        <ele>725</ele>
        <time>2022-12-11T11:35:52Z</time>
      </trkpt>
      <trkpt lat="43.60865" lon="6.31403">
        <ele>725</ele>
        <time>2022-12-11T11:35:53Z</time>
      </trkpt>
      <trkpt lat="43.60865" lon="6.31403">
        <ele>726</ele>
        <time>2022-12-11T11:35:54Z</time>
      </trkpt>
      <trkpt lat="43.60865" lon="6.31402">
        <ele>726</ele>
        <time>2022-12-11T11:35:55Z</time>
      </trkpt>
      <trkpt lat="43.60866" lon="6.31401">
        <ele>726</ele>
        <time>2022-12-11T11:35:56Z</time>
      </trkpt>
      <trkpt lat="43.60866" lon="6.314">
        <ele>726</ele>
        <time>2022-12-11T11:35:57Z</time>
      </trkpt>
      <trkpt lat="43.60867" lon="6.31398">
        <ele>726</ele>
        <time>2022-12-11T11:35:58Z</time>
      </trkpt>
      <trkpt lat="43.60869" lon="6.31394">
        <ele>726</ele>
        <time>2022-12-11T11:35:59Z</time>
      </trkpt>
      <trkpt lat="43.6087" lon="6.31392">
        <ele>726</ele>
        <time>2022-12-11T11:36:00Z</time>
      </trkpt>
      <trkpt lat="43.6087" lon="6.3139">
        <ele>727</ele>
        <time>2022-12-11T11:36:01Z</time>
      </trkpt>
      <trkpt lat="43.60871" lon="6.31389">
        <ele>727</ele>
        <time>2022-12-11T11:36:02Z</time>
      </trkpt>
      <trkpt lat="43.60871" lon="6.31388">
        <ele>727</ele>
        <time>2022-12-11T11:36:03Z</time>
      </trkpt>
      <trkpt lat="43.60871" lon="6.31386">
        <ele>727</ele>
        <time>2022-12-11T11:36:04Z</time>
      </trkpt>
      <trkpt lat="43.60872" lon="6.31384">
        <ele>727</ele>
        <time>2022-12-11T11:36:05Z</time>
      </trkpt>
      <trkpt lat="43.60873" lon="6.31382">
        <ele>727</ele>
        <time>2022-12-11T11:36:06Z</time>
      </trkpt>
      <trkpt lat="43.60874" lon="6.3138">
        <ele>727</ele>
        <time>2022-12-11T11:36:07Z</time>
      </trkpt>
      <trkpt lat="43.60875" lon="6.31379">
        <ele>726</ele>
        <time>2022-12-11T11:36:08Z</time>
      </trkpt>
      <trkpt lat="43.60876" lon="6.31377">
        <ele>726</ele>
        <time>2022-12-11T11:36:09Z</time>
      </trkpt>
      <trkpt lat="43.60877" lon="6.31376">
        <ele>727</ele>
        <time>2022-12-11T11:36:10Z</time>
      </trkpt>
      <trkpt lat="43.60878" lon="6.31375">
        <ele>727</ele>
        <time>2022-12-11T11:36:11Z</time>
      </trkpt>
      <trkpt lat="43.60878" lon="6.31374">
        <ele>727</ele>
        <time>2022-12-11T11:36:12Z</time>
      </trkpt>
      <trkpt lat="43.60878" lon="6.31374">
        <ele>727</ele>
        <time>2022-12-11T11:36:13Z</time>
      </trkpt>
      <trkpt lat="43.60879" lon="6.31373">
        <ele>727</ele>
        <time>2022-12-11T11:36:14Z</time>
      </trkpt>
      <trkpt lat="43.60879" lon="6.31373">
        <ele>727</ele>
        <time>2022-12-11T11:36:15Z</time>
      </trkpt>
      <trkpt lat="43.60879" lon="6.31373">
        <ele>727</ele>
        <time>2022-12-11T11:36:16Z</time>
      </trkpt>
      <trkpt lat="43.60879" lon="6.31372">
        <ele>727</ele>
        <time>2022-12-11T11:36:17Z</time>
      </trkpt>
      <trkpt lat="43.6088" lon="6.31372">
        <ele>728</ele>
        <time>2022-12-11T11:36:18Z</time>
      </trkpt>
      <trkpt lat="43.6088" lon="6.31371">
        <ele>728</ele>
        <time>2022-12-11T11:36:19Z</time>
      </trkpt>
      <trkpt lat="43.60881" lon="6.3137">
        <ele>728</ele>
        <time>2022-12-11T11:36:20Z</time>
      </trkpt>
      <trkpt lat="43.60881" lon="6.31369">
        <ele>728</ele>
        <time>2022-12-11T11:36:21Z</time>
      </trkpt>
      <trkpt lat="43.60882" lon="6.31368">
        <ele>728</ele>
        <time>2022-12-11T11:36:22Z</time>
      </trkpt>
      <trkpt lat="43.60883" lon="6.31366">
        <ele>728</ele>
        <time>2022-12-11T11:36:23Z</time>
      </trkpt>
      <trkpt lat="43.60884" lon="6.31364">
        <ele>728</ele>
        <time>2022-12-11T11:36:24Z</time>
      </trkpt>
      <trkpt lat="43.60885" lon="6.31362">
        <ele>728</ele>
        <time>2022-12-11T11:36:25Z</time>
      </trkpt>
      <trkpt lat="43.60885" lon="6.31361">
        <ele>728</ele>
        <time>2022-12-11T11:36:26Z</time>
      </trkpt>
      <trkpt lat="43.60886" lon="6.31359">
        <ele>728</ele>
        <time>2022-12-11T11:36:27Z</time>
      </trkpt>
      <trkpt lat="43.60887" lon="6.31357">
        <ele>728</ele>
        <time>2022-12-11T11:36:28Z</time>
      </trkpt>
      <trkpt lat="43.60887" lon="6.31355">
        <ele>728</ele>
        <time>2022-12-11T11:36:29Z</time>
      </trkpt>
      <trkpt lat="43.60888" lon="6.31354">
        <ele>728</ele>
        <time>2022-12-11T11:36:30Z</time>
      </trkpt>
      <trkpt lat="43.60888" lon="6.31353">
        <ele>728</ele>
        <time>2022-12-11T11:36:31Z</time>
      </trkpt>
      <trkpt lat="43.60889" lon="6.31351">
        <ele>728</ele>
        <time>2022-12-11T11:36:32Z</time>
      </trkpt>
      <trkpt lat="43.6089" lon="6.31348">
        <ele>728</ele>
        <time>2022-12-11T11:36:33Z</time>
      </trkpt>
      <trkpt lat="43.6089" lon="6.31346">
        <ele>728</ele>
        <time>2022-12-11T11:36:34Z</time>
      </trkpt>
      <trkpt lat="43.60891" lon="6.31345">
        <ele>728</ele>
        <time>2022-12-11T11:36:35Z</time>
      </trkpt>
      <trkpt lat="43.60891" lon="6.31343">
        <ele>728</ele>
        <time>2022-12-11T11:36:36Z</time>
      </trkpt>
      <trkpt lat="43.60891" lon="6.31341">
        <ele>728</ele>
        <time>2022-12-11T11:36:37Z</time>
      </trkpt>
      <trkpt lat="43.60892" lon="6.31339">
        <ele>728</ele>
        <time>2022-12-11T11:36:38Z</time>
      </trkpt>
      <trkpt lat="43.60892" lon="6.31338">
        <ele>728</ele>
        <time>2022-12-11T11:36:39Z</time>
      </trkpt>
      <trkpt lat="43.60892" lon="6.31336">
        <ele>728</ele>
        <time>2022-12-11T11:36:40Z</time>
      </trkpt>
      <trkpt lat="43.60893" lon="6.31334">
        <ele>728</ele>
        <time>2022-12-11T11:36:41Z</time>
      </trkpt>
      <trkpt lat="43.60893" lon="6.31333">
        <ele>728</ele>
        <time>2022-12-11T11:36:42Z</time>
      </trkpt>
      <trkpt lat="43.60894" lon="6.31331">
        <ele>727</ele>
        <time>2022-12-11T11:36:43Z</time>
      </trkpt>
      <trkpt lat="43.60894" lon="6.3133">
        <ele>727</ele>
        <time>2022-12-11T11:36:44Z</time>
      </trkpt>
      <trkpt lat="43.60894" lon="6.31329">
        <ele>727</ele>
        <time>2022-12-11T11:36:45Z</time>
      </trkpt>
      <trkpt lat="43.60895" lon="6.31328">
        <ele>727</ele>
        <time>2022-12-11T11:36:46Z</time>
      </trkpt>
      <trkpt lat="43.60895" lon="6.31327">
        <ele>727</ele>
        <time>2022-12-11T11:36:47Z</time>
      </trkpt>
      <trkpt lat="43.60896" lon="6.31326">
        <ele>727</ele>
        <time>2022-12-11T11:36:48Z</time>
      </trkpt>
      <trkpt lat="43.60896" lon="6.31325">
        <ele>727</ele>
        <time>2022-12-11T11:36:49Z</time>
      </trkpt>
      <trkpt lat="43.60896" lon="6.31324">
        <ele>728</ele>
        <time>2022-12-11T11:36:50Z</time>
      </trkpt>
      <trkpt lat="43.60897" lon="6.31323">
        <ele>728</ele>
        <time>2022-12-11T11:36:51Z</time>
      </trkpt>
      <trkpt lat="43.60897" lon="6.31322">
        <ele>728</ele>
        <time>2022-12-11T11:36:52Z</time>
      </trkpt>
      <trkpt lat="43.60898" lon="6.31321">
        <ele>728</ele>
        <time>2022-12-11T11:36:53Z</time>
      </trkpt>
      <trkpt lat="43.60898" lon="6.31321">
        <ele>728</ele>
        <time>2022-12-11T11:36:54Z</time>
      </trkpt>
      <trkpt lat="43.60899" lon="6.3132">
        <ele>728</ele>
        <time>2022-12-11T11:36:55Z</time>
      </trkpt>
      <trkpt lat="43.60899" lon="6.31319">
        <ele>728</ele>
        <time>2022-12-11T11:36:56Z</time>
      </trkpt>
      <trkpt lat="43.609" lon="6.31319">
        <ele>728</ele>
        <time>2022-12-11T11:36:57Z</time>
      </trkpt>
      <trkpt lat="43.609" lon="6.31318">
        <ele>729</ele>
        <time>2022-12-11T11:36:58Z</time>
      </trkpt>
      <trkpt lat="43.609" lon="6.31317">
        <ele>729</ele>
        <time>2022-12-11T11:36:59Z</time>
      </trkpt>
      <trkpt lat="43.60901" lon="6.31316">
        <ele>729</ele>
        <time>2022-12-11T11:37:00Z</time>
      </trkpt>
      <trkpt lat="43.60902" lon="6.31315">
        <ele>729</ele>
        <time>2022-12-11T11:37:01Z</time>
      </trkpt>
      <trkpt lat="43.60902" lon="6.31314">
        <ele>729</ele>
        <time>2022-12-11T11:37:02Z</time>
      </trkpt>
      <trkpt lat="43.60903" lon="6.31312">
        <ele>730</ele>
        <time>2022-12-11T11:37:03Z</time>
      </trkpt>
      <trkpt lat="43.60903" lon="6.31311">
        <ele>730</ele>
        <time>2022-12-11T11:37:04Z</time>
      </trkpt>
      <trkpt lat="43.60903" lon="6.3131">
        <ele>731</ele>
        <time>2022-12-11T11:37:05Z</time>
      </trkpt>
      <trkpt lat="43.60904" lon="6.31309">
        <ele>731</ele>
        <time>2022-12-11T11:37:06Z</time>
      </trkpt>
      <trkpt lat="43.60904" lon="6.31307">
        <ele>731</ele>
        <time>2022-12-11T11:37:07Z</time>
      </trkpt>
      <trkpt lat="43.60905" lon="6.31306">
        <ele>731</ele>
        <time>2022-12-11T11:37:08Z</time>
      </trkpt>
      <trkpt lat="43.60905" lon="6.31304">
        <ele>732</ele>
        <time>2022-12-11T11:37:09Z</time>
      </trkpt>
      <trkpt lat="43.60905" lon="6.31303">
        <ele>732</ele>
        <time>2022-12-11T11:37:10Z</time>
      </trkpt>
      <trkpt lat="43.60906" lon="6.31301">
        <ele>732</ele>
        <time>2022-12-11T11:37:11Z</time>
      </trkpt>
      <trkpt lat="43.60906" lon="6.313">
        <ele>732</ele>
        <time>2022-12-11T11:37:12Z</time>
      </trkpt>
      <trkpt lat="43.60907" lon="6.31299">
        <ele>732</ele>
        <time>2022-12-11T11:37:13Z</time>
      </trkpt>
      <trkpt lat="43.60907" lon="6.31298">
        <ele>733</ele>
        <time>2022-12-11T11:37:14Z</time>
      </trkpt>
      <trkpt lat="43.60908" lon="6.31296">
        <ele>733</ele>
        <time>2022-12-11T11:37:15Z</time>
      </trkpt>
      <trkpt lat="43.60908" lon="6.31295">
        <ele>733</ele>
        <time>2022-12-11T11:37:16Z</time>
      </trkpt>
      <trkpt lat="43.60908" lon="6.31293">
        <ele>733</ele>
        <time>2022-12-11T11:37:17Z</time>
      </trkpt>
      <trkpt lat="43.60909" lon="6.31292">
        <ele>733</ele>
        <time>2022-12-11T11:37:18Z</time>
      </trkpt>
      <trkpt lat="43.60909" lon="6.31291">
        <ele>733</ele>
        <time>2022-12-11T11:37:19Z</time>
      </trkpt>
      <trkpt lat="43.6091" lon="6.31289">
        <ele>733</ele>
        <time>2022-12-11T11:37:20Z</time>
      </trkpt>
      <trkpt lat="43.6091" lon="6.31288">
        <ele>733</ele>
        <time>2022-12-11T11:37:21Z</time>
      </trkpt>
      <trkpt lat="43.60911" lon="6.31286">
        <ele>733</ele>
        <time>2022-12-11T11:37:22Z</time>
      </trkpt>
      <trkpt lat="43.60911" lon="6.31285">
        <ele>733</ele>
        <time>2022-12-11T11:37:23Z</time>
      </trkpt>
      <trkpt lat="43.60912" lon="6.31283">
        <ele>734</ele>
        <time>2022-12-11T11:37:24Z</time>
      </trkpt>
      <trkpt lat="43.60913" lon="6.31282">
        <ele>734</ele>
        <time>2022-12-11T11:37:25Z</time>
      </trkpt>
      <trkpt lat="43.60913" lon="6.31281">
        <ele>734</ele>
        <time>2022-12-11T11:37:26Z</time>
      </trkpt>
      <trkpt lat="43.60914" lon="6.3128">
        <ele>734</ele>
        <time>2022-12-11T11:37:27Z</time>
      </trkpt>
      <trkpt lat="43.60915" lon="6.31279">
        <ele>735</ele>
        <time>2022-12-11T11:37:28Z</time>
      </trkpt>
      <trkpt lat="43.60915" lon="6.31278">
        <ele>735</ele>
        <time>2022-12-11T11:37:29Z</time>
      </trkpt>
      <trkpt lat="43.60916" lon="6.31277">
        <ele>735</ele>
        <time>2022-12-11T11:37:30Z</time>
      </trkpt>
      <trkpt lat="43.60917" lon="6.31276">
        <ele>735</ele>
        <time>2022-12-11T11:37:31Z</time>
      </trkpt>
      <trkpt lat="43.60918" lon="6.31276">
        <ele>735</ele>
        <time>2022-12-11T11:37:32Z</time>
      </trkpt>
      <trkpt lat="43.60919" lon="6.31275">
        <ele>735</ele>
        <time>2022-12-11T11:37:33Z</time>
      </trkpt>
      <trkpt lat="43.60919" lon="6.31274">
        <ele>735</ele>
        <time>2022-12-11T11:37:34Z</time>
      </trkpt>
      <trkpt lat="43.60919" lon="6.31274">
        <ele>735</ele>
        <time>2022-12-11T11:37:35Z</time>
      </trkpt>
      <trkpt lat="43.60919" lon="6.31274">
        <ele>735</ele>
        <time>2022-12-11T11:37:36Z</time>
      </trkpt>
      <trkpt lat="43.6092" lon="6.31274">
        <ele>735</ele>
        <time>2022-12-11T11:37:37Z</time>
      </trkpt>
      <trkpt lat="43.6092" lon="6.31273">
        <ele>735</ele>
        <time>2022-12-11T11:37:38Z</time>
      </trkpt>
      <trkpt lat="43.60921" lon="6.31273">
        <ele>735</ele>
        <time>2022-12-11T11:37:39Z</time>
      </trkpt>
      <trkpt lat="43.60922" lon="6.31272">
        <ele>735</ele>
        <time>2022-12-11T11:37:40Z</time>
      </trkpt>
      <trkpt lat="43.60922" lon="6.31271">
        <ele>735</ele>
        <time>2022-12-11T11:37:41Z</time>
      </trkpt>
      <trkpt lat="43.60923" lon="6.3127">
        <ele>735</ele>
        <time>2022-12-11T11:37:42Z</time>
      </trkpt>
      <trkpt lat="43.60924" lon="6.31269">
        <ele>735</ele>
        <time>2022-12-11T11:37:43Z</time>
      </trkpt>
      <trkpt lat="43.60924" lon="6.31269">
        <ele>735</ele>
        <time>2022-12-11T11:37:44Z</time>
      </trkpt>
      <trkpt lat="43.60925" lon="6.31268">
        <ele>735</ele>
        <time>2022-12-11T11:37:45Z</time>
      </trkpt>
      <trkpt lat="43.60926" lon="6.31267">
        <ele>735</ele>
        <time>2022-12-11T11:37:46Z</time>
      </trkpt>
      <trkpt lat="43.60926" lon="6.31265">
        <ele>735</ele>
        <time>2022-12-11T11:37:47Z</time>
      </trkpt>
      <trkpt lat="43.60927" lon="6.31264">
        <ele>735</ele>
        <time>2022-12-11T11:37:48Z</time>
      </trkpt>
      <trkpt lat="43.60928" lon="6.31263">
        <ele>735</ele>
        <time>2022-12-11T11:37:49Z</time>
      </trkpt>
      <trkpt lat="43.60929" lon="6.31262">
        <ele>735</ele>
        <time>2022-12-11T11:37:50Z</time>
      </trkpt>
      <trkpt lat="43.60929" lon="6.31261">
        <ele>735</ele>
        <time>2022-12-11T11:37:51Z</time>
      </trkpt>
      <trkpt lat="43.6093" lon="6.3126">
        <ele>735</ele>
        <time>2022-12-11T11:37:52Z</time>
      </trkpt>
      <trkpt lat="43.60931" lon="6.31259">
        <ele>735</ele>
        <time>2022-12-11T11:37:53Z</time>
      </trkpt>
      <trkpt lat="43.60931" lon="6.31258">
        <ele>735</ele>
        <time>2022-12-11T11:37:54Z</time>
      </trkpt>
      <trkpt lat="43.60932" lon="6.31256">
        <ele>735</ele>
        <time>2022-12-11T11:37:55Z</time>
      </trkpt>
      <trkpt lat="43.60933" lon="6.31255">
        <ele>735</ele>
        <time>2022-12-11T11:37:56Z</time>
      </trkpt>
      <trkpt lat="43.60934" lon="6.31254">
        <ele>735</ele>
        <time>2022-12-11T11:37:57Z</time>
      </trkpt>
      <trkpt lat="43.60934" lon="6.31253">
        <ele>736</ele>
        <time>2022-12-11T11:37:58Z</time>
      </trkpt>
      <trkpt lat="43.60935" lon="6.31252">
        <ele>736</ele>
        <time>2022-12-11T11:37:59Z</time>
      </trkpt>
      <trkpt lat="43.60936" lon="6.31251">
        <ele>736</ele>
        <time>2022-12-11T11:38:00Z</time>
      </trkpt>
      <trkpt lat="43.60936" lon="6.31251">
        <ele>736</ele>
        <time>2022-12-11T11:38:01Z</time>
      </trkpt>
      <trkpt lat="43.60937" lon="6.3125">
        <ele>736</ele>
        <time>2022-12-11T11:38:02Z</time>
      </trkpt>
      <trkpt lat="43.60937" lon="6.3125">
        <ele>736</ele>
        <time>2022-12-11T11:38:03Z</time>
      </trkpt>
      <trkpt lat="43.60938" lon="6.31249">
        <ele>736</ele>
        <time>2022-12-11T11:38:04Z</time>
      </trkpt>
      <trkpt lat="43.60939" lon="6.31248">
        <ele>737</ele>
        <time>2022-12-11T11:38:05Z</time>
      </trkpt>
      <trkpt lat="43.60939" lon="6.31247">
        <ele>737</ele>
        <time>2022-12-11T11:38:06Z</time>
      </trkpt>
      <trkpt lat="43.6094" lon="6.31247">
        <ele>737</ele>
        <time>2022-12-11T11:38:07Z</time>
      </trkpt>
      <trkpt lat="43.60941" lon="6.31246">
        <ele>737</ele>
        <time>2022-12-11T11:38:08Z</time>
      </trkpt>
      <trkpt lat="43.60941" lon="6.31245">
        <ele>737</ele>
        <time>2022-12-11T11:38:09Z</time>
      </trkpt>
      <trkpt lat="43.60942" lon="6.31244">
        <ele>738</ele>
        <time>2022-12-11T11:38:10Z</time>
      </trkpt>
      <trkpt lat="43.60942" lon="6.31243">
        <ele>738</ele>
        <time>2022-12-11T11:38:11Z</time>
      </trkpt>
      <trkpt lat="43.60943" lon="6.31241">
        <ele>738</ele>
        <time>2022-12-11T11:38:12Z</time>
      </trkpt>
      <trkpt lat="43.60943" lon="6.3124">
        <ele>738</ele>
        <time>2022-12-11T11:38:13Z</time>
      </trkpt>
      <trkpt lat="43.60943" lon="6.31239">
        <ele>738</ele>
        <time>2022-12-11T11:38:14Z</time>
      </trkpt>
      <trkpt lat="43.60943" lon="6.31237">
        <ele>738</ele>
        <time>2022-12-11T11:38:15Z</time>
      </trkpt>
      <trkpt lat="43.60944" lon="6.31236">
        <ele>738</ele>
        <time>2022-12-11T11:38:16Z</time>
      </trkpt>
      <trkpt lat="43.60944" lon="6.31236">
        <ele>738</ele>
        <time>2022-12-11T11:38:17Z</time>
      </trkpt>
      <trkpt lat="43.60945" lon="6.31236">
        <ele>738</ele>
        <time>2022-12-11T11:38:18Z</time>
      </trkpt>
      <trkpt lat="43.60945" lon="6.31236">
        <ele>738</ele>
        <time>2022-12-11T11:38:19Z</time>
      </trkpt>
      <trkpt lat="43.60946" lon="6.31235">
        <ele>737</ele>
        <time>2022-12-11T11:38:20Z</time>
      </trkpt>
      <trkpt lat="43.60947" lon="6.31235">
        <ele>737</ele>
        <time>2022-12-11T11:38:21Z</time>
      </trkpt>
      <trkpt lat="43.60948" lon="6.31235">
        <ele>737</ele>
        <time>2022-12-11T11:38:23Z</time>
      </trkpt>
      <trkpt lat="43.60948" lon="6.31234">
        <ele>737</ele>
        <time>2022-12-11T11:38:24Z</time>
      </trkpt>
      <trkpt lat="43.60949" lon="6.31234">
        <ele>737</ele>
        <time>2022-12-11T11:38:25Z</time>
      </trkpt>
      <trkpt lat="43.60949" lon="6.31234">
        <ele>737</ele>
        <time>2022-12-11T11:38:26Z</time>
      </trkpt>
      <trkpt lat="43.60949" lon="6.31234">
        <ele>737</ele>
        <time>2022-12-11T11:38:27Z</time>
      </trkpt>
      <trkpt lat="43.60949" lon="6.31234">
        <ele>737</ele>
        <time>2022-12-11T11:38:28Z</time>
      </trkpt>
      <trkpt lat="43.60949" lon="6.31234">
        <ele>737</ele>
        <time>2022-12-11T11:38:29Z</time>
      </trkpt>
      <trkpt lat="43.60949" lon="6.31234">
        <ele>737</ele>
        <time>2022-12-11T11:38:30Z</time>
      </trkpt>
      <trkpt lat="43.60949" lon="6.31234">
        <ele>737</ele>
        <time>2022-12-11T11:38:31Z</time>
      </trkpt>
      <trkpt lat="43.60949" lon="6.31234">
        <ele>737</ele>
        <time>2022-12-11T11:38:32Z</time>
      </trkpt>
      <trkpt lat="43.60949" lon="6.31234">
        <ele>737</ele>
        <time>2022-12-11T11:38:33Z</time>
      </trkpt>
      <trkpt lat="43.60949" lon="6.31234">
        <ele>737</ele>
        <time>2022-12-11T11:38:34Z</time>
      </trkpt>
      <trkpt lat="43.60949" lon="6.31234">
        <ele>737</ele>
        <time>2022-12-11T11:38:35Z</time>
      </trkpt>
      <trkpt lat="43.60949" lon="6.31234">
        <ele>737</ele>
        <time>2022-12-11T11:38:36Z</time>
      </trkpt>
      <trkpt lat="43.60947" lon="6.31233">
        <ele>737</ele>
        <time>2022-12-11T11:38:37Z</time>
      </trkpt>
      <trkpt lat="43.60946" lon="6.31233">
        <ele>737</ele>
        <time>2022-12-11T11:38:38Z</time>
      </trkpt>
      <trkpt lat="43.60946" lon="6.31232">
        <ele>737</ele>
        <time>2022-12-11T11:38:39Z</time>
      </trkpt>
      <trkpt lat="43.60945" lon="6.31231">
        <ele>737</ele>
        <time>2022-12-11T11:38:40Z</time>
      </trkpt>
      <trkpt lat="43.60945" lon="6.3123">
        <ele>737</ele>
        <time>2022-12-11T11:38:41Z</time>
      </trkpt>
      <trkpt lat="43.60945" lon="6.31229">
        <ele>737</ele>
        <time>2022-12-11T11:38:42Z</time>
      </trkpt>
      <trkpt lat="43.60944" lon="6.31228">
        <ele>737</ele>
        <time>2022-12-11T11:38:43Z</time>
      </trkpt>
      <trkpt lat="43.60944" lon="6.31227">
        <ele>737</ele>
        <time>2022-12-11T11:38:44Z</time>
      </trkpt>
      <trkpt lat="43.60945" lon="6.31227">
        <ele>737</ele>
        <time>2022-12-11T11:38:45Z</time>
      </trkpt>
      <trkpt lat="43.60946" lon="6.31226">
        <ele>737</ele>
        <time>2022-12-11T11:38:46Z</time>
      </trkpt>
      <trkpt lat="43.60946" lon="6.31225">
        <ele>737</ele>
        <time>2022-12-11T11:38:47Z</time>
      </trkpt>
      <trkpt lat="43.60947" lon="6.31224">
        <ele>737</ele>
        <time>2022-12-11T11:38:48Z</time>
      </trkpt>
      <trkpt lat="43.60948" lon="6.31223">
        <ele>737</ele>
        <time>2022-12-11T11:38:49Z</time>
      </trkpt>
      <trkpt lat="43.60948" lon="6.31222">
        <ele>737</ele>
        <time>2022-12-11T11:38:50Z</time>
      </trkpt>
      <trkpt lat="43.60949" lon="6.31221">
        <ele>737</ele>
        <time>2022-12-11T11:38:51Z</time>
      </trkpt>
      <trkpt lat="43.60949" lon="6.31221">
        <ele>737</ele>
        <time>2022-12-11T11:38:52Z</time>
      </trkpt>
      <trkpt lat="43.6095" lon="6.3122">
        <ele>737</ele>
        <time>2022-12-11T11:38:53Z</time>
      </trkpt>
      <trkpt lat="43.6095" lon="6.31219">
        <ele>737</ele>
        <time>2022-12-11T11:38:54Z</time>
      </trkpt>
      <trkpt lat="43.6095" lon="6.31219">
        <ele>738</ele>
        <time>2022-12-11T11:38:55Z</time>
      </trkpt>
      <trkpt lat="43.60951" lon="6.31219">
        <ele>738</ele>
        <time>2022-12-11T11:38:56Z</time>
      </trkpt>
      <trkpt lat="43.60952" lon="6.31218">
        <ele>738</ele>
        <time>2022-12-11T11:38:57Z</time>
      </trkpt>
      <trkpt lat="43.60953" lon="6.31216">
        <ele>738</ele>
        <time>2022-12-11T11:38:58Z</time>
      </trkpt>
      <trkpt lat="43.60953" lon="6.31215">
        <ele>738</ele>
        <time>2022-12-11T11:38:59Z</time>
      </trkpt>
      <trkpt lat="43.60954" lon="6.31214">
        <ele>738</ele>
        <time>2022-12-11T11:39:00Z</time>
      </trkpt>
      <trkpt lat="43.60955" lon="6.31212">
        <ele>738</ele>
        <time>2022-12-11T11:39:01Z</time>
      </trkpt>
      <trkpt lat="43.60956" lon="6.31211">
        <ele>738</ele>
        <time>2022-12-11T11:39:02Z</time>
      </trkpt>
      <trkpt lat="43.60956" lon="6.3121">
        <ele>738</ele>
        <time>2022-12-11T11:39:03Z</time>
      </trkpt>
      <trkpt lat="43.60957" lon="6.31208">
        <ele>738</ele>
        <time>2022-12-11T11:39:04Z</time>
      </trkpt>
      <trkpt lat="43.60958" lon="6.31207">
        <ele>738</ele>
        <time>2022-12-11T11:39:05Z</time>
      </trkpt>
      <trkpt lat="43.60959" lon="6.31206">
        <ele>738</ele>
        <time>2022-12-11T11:39:06Z</time>
      </trkpt>
      <trkpt lat="43.6096" lon="6.31204">
        <ele>738</ele>
        <time>2022-12-11T11:39:07Z</time>
      </trkpt>
      <trkpt lat="43.6096" lon="6.31202">
        <ele>738</ele>
        <time>2022-12-11T11:39:08Z</time>
      </trkpt>
      <trkpt lat="43.6096" lon="6.31201">
        <ele>738</ele>
        <time>2022-12-11T11:39:09Z</time>
      </trkpt>
      <trkpt lat="43.60961" lon="6.31199">
        <ele>738</ele>
        <time>2022-12-11T11:39:10Z</time>
      </trkpt>
      <trkpt lat="43.60961" lon="6.31197">
        <ele>738</ele>
        <time>2022-12-11T11:39:11Z</time>
      </trkpt>
      <trkpt lat="43.60962" lon="6.31196">
        <ele>739</ele>
        <time>2022-12-11T11:39:12Z</time>
      </trkpt>
      <trkpt lat="43.60962" lon="6.31194">
        <ele>739</ele>
        <time>2022-12-11T11:39:13Z</time>
      </trkpt>
      <trkpt lat="43.60962" lon="6.31193">
        <ele>739</ele>
        <time>2022-12-11T11:39:14Z</time>
      </trkpt>
      <trkpt lat="43.60962" lon="6.31192">
        <ele>739</ele>
        <time>2022-12-11T11:39:15Z</time>
      </trkpt>
      <trkpt lat="43.60962" lon="6.31191">
        <ele>739</ele>
        <time>2022-12-11T11:39:16Z</time>
      </trkpt>
      <trkpt lat="43.60962" lon="6.3119">
        <ele>739</ele>
        <time>2022-12-11T11:39:17Z</time>
      </trkpt>
      <trkpt lat="43.60962" lon="6.31189">
        <ele>739</ele>
        <time>2022-12-11T11:39:18Z</time>
      </trkpt>
      <trkpt lat="43.60962" lon="6.31188">
        <ele>739</ele>
        <time>2022-12-11T11:39:19Z</time>
      </trkpt>
      <trkpt lat="43.60962" lon="6.31186">
        <ele>739</ele>
        <time>2022-12-11T11:39:20Z</time>
      </trkpt>
      <trkpt lat="43.60962" lon="6.31185">
        <ele>739</ele>
        <time>2022-12-11T11:39:21Z</time>
      </trkpt>
      <trkpt lat="43.60962" lon="6.31184">
        <ele>739</ele>
        <time>2022-12-11T11:39:22Z</time>
      </trkpt>
      <trkpt lat="43.60962" lon="6.31183">
        <ele>739</ele>
        <time>2022-12-11T11:39:23Z</time>
      </trkpt>
      <trkpt lat="43.60962" lon="6.31182">
        <ele>739</ele>
        <time>2022-12-11T11:39:24Z</time>
      </trkpt>
      <trkpt lat="43.60962" lon="6.31181">
        <ele>739</ele>
        <time>2022-12-11T11:39:25Z</time>
      </trkpt>
      <trkpt lat="43.60962" lon="6.3118">
        <ele>739</ele>
        <time>2022-12-11T11:39:26Z</time>
      </trkpt>
      <trkpt lat="43.60962" lon="6.31178">
        <ele>739</ele>
        <time>2022-12-11T11:39:27Z</time>
      </trkpt>
      <trkpt lat="43.60962" lon="6.31177">
        <ele>739</ele>
        <time>2022-12-11T11:39:28Z</time>
      </trkpt>
      <trkpt lat="43.60962" lon="6.31176">
        <ele>739</ele>
        <time>2022-12-11T11:39:29Z</time>
      </trkpt>
      <trkpt lat="43.60962" lon="6.31175">
        <ele>739</ele>
        <time>2022-12-11T11:39:30Z</time>
      </trkpt>
      <trkpt lat="43.60962" lon="6.31174">
        <ele>738</ele>
        <time>2022-12-11T11:39:31Z</time>
      </trkpt>
      <trkpt lat="43.60962" lon="6.31174">
        <ele>738</ele>
        <time>2022-12-11T11:39:32Z</time>
      </trkpt>
      <trkpt lat="43.60962" lon="6.31173">
        <ele>738</ele>
        <time>2022-12-11T11:39:33Z</time>
      </trkpt>
      <trkpt lat="43.60963" lon="6.31171">
        <ele>738</ele>
        <time>2022-12-11T11:39:34Z</time>
      </trkpt>
      <trkpt lat="43.60963" lon="6.31169">
        <ele>738</ele>
        <time>2022-12-11T11:39:35Z</time>
      </trkpt>
      <trkpt lat="43.60963" lon="6.31167">
        <ele>738</ele>
        <time>2022-12-11T11:39:36Z</time>
      </trkpt>
      <trkpt lat="43.60963" lon="6.31165">
        <ele>737</ele>
        <time>2022-12-11T11:39:37Z</time>
      </trkpt>
      <trkpt lat="43.60964" lon="6.31164">
        <ele>737</ele>
        <time>2022-12-11T11:39:38Z</time>
      </trkpt>
      <trkpt lat="43.60964" lon="6.31162">
        <ele>737</ele>
        <time>2022-12-11T11:39:39Z</time>
      </trkpt>
      <trkpt lat="43.60964" lon="6.31161">
        <ele>737</ele>
        <time>2022-12-11T11:39:40Z</time>
      </trkpt>
      <trkpt lat="43.60964" lon="6.31159">
        <ele>737</ele>
        <time>2022-12-11T11:39:41Z</time>
      </trkpt>
      <trkpt lat="43.60964" lon="6.31158">
        <ele>737</ele>
        <time>2022-12-11T11:39:42Z</time>
      </trkpt>
      <trkpt lat="43.60964" lon="6.31156">
        <ele>737</ele>
        <time>2022-12-11T11:39:43Z</time>
      </trkpt>
      <trkpt lat="43.60964" lon="6.31155">
        <ele>737</ele>
        <time>2022-12-11T11:39:44Z</time>
      </trkpt>
      <trkpt lat="43.60965" lon="6.31154">
        <ele>737</ele>
        <time>2022-12-11T11:39:45Z</time>
      </trkpt>
      <trkpt lat="43.60965" lon="6.31152">
        <ele>737</ele>
        <time>2022-12-11T11:39:46Z</time>
      </trkpt>
      <trkpt lat="43.60966" lon="6.31149">
        <ele>737</ele>
        <time>2022-12-11T11:39:47Z</time>
      </trkpt>
      <trkpt lat="43.60966" lon="6.31147">
        <ele>737</ele>
        <time>2022-12-11T11:39:48Z</time>
      </trkpt>
      <trkpt lat="43.60967" lon="6.31144">
        <ele>737</ele>
        <time>2022-12-11T11:39:49Z</time>
      </trkpt>
      <trkpt lat="43.60968" lon="6.31142">
        <ele>737</ele>
        <time>2022-12-11T11:39:50Z</time>
      </trkpt>
      <trkpt lat="43.60968" lon="6.31139">
        <ele>737</ele>
        <time>2022-12-11T11:39:51Z</time>
      </trkpt>
      <trkpt lat="43.60969" lon="6.31138">
        <ele>737</ele>
        <time>2022-12-11T11:39:52Z</time>
      </trkpt>
      <trkpt lat="43.60969" lon="6.31136">
        <ele>736</ele>
        <time>2022-12-11T11:39:53Z</time>
      </trkpt>
      <trkpt lat="43.60969" lon="6.31135">
        <ele>736</ele>
        <time>2022-12-11T11:39:54Z</time>
      </trkpt>
      <trkpt lat="43.60969" lon="6.31133">
        <ele>736</ele>
        <time>2022-12-11T11:39:55Z</time>
      </trkpt>
      <trkpt lat="43.60969" lon="6.31132">
        <ele>736</ele>
        <time>2022-12-11T11:39:56Z</time>
      </trkpt>
      <trkpt lat="43.6097" lon="6.31131">
        <ele>736</ele>
        <time>2022-12-11T11:39:57Z</time>
      </trkpt>
      <trkpt lat="43.6097" lon="6.31129">
        <ele>736</ele>
        <time>2022-12-11T11:39:58Z</time>
      </trkpt>
      <trkpt lat="43.6097" lon="6.31128">
        <ele>736</ele>
        <time>2022-12-11T11:39:59Z</time>
      </trkpt>
      <trkpt lat="43.60971" lon="6.31126">
        <ele>736</ele>
        <time>2022-12-11T11:40:00Z</time>
      </trkpt>
      <trkpt lat="43.60971" lon="6.31125">
        <ele>736</ele>
        <time>2022-12-11T11:40:01Z</time>
      </trkpt>
      <trkpt lat="43.60971" lon="6.31123">
        <ele>735</ele>
        <time>2022-12-11T11:40:02Z</time>
      </trkpt>
      <trkpt lat="43.60971" lon="6.31122">
        <ele>735</ele>
        <time>2022-12-11T11:40:03Z</time>
      </trkpt>
      <trkpt lat="43.60972" lon="6.31121">
        <ele>735</ele>
        <time>2022-12-11T11:40:04Z</time>
      </trkpt>
      <trkpt lat="43.60972" lon="6.31119">
        <ele>735</ele>
        <time>2022-12-11T11:40:05Z</time>
      </trkpt>
      <trkpt lat="43.60972" lon="6.31117">
        <ele>735</ele>
        <time>2022-12-11T11:40:06Z</time>
      </trkpt>
      <trkpt lat="43.60972" lon="6.31116">
        <ele>735</ele>
        <time>2022-12-11T11:40:07Z</time>
      </trkpt>
      <trkpt lat="43.60972" lon="6.31114">
        <ele>735</ele>
        <time>2022-12-11T11:40:08Z</time>
      </trkpt>
      <trkpt lat="43.60972" lon="6.31112">
        <ele>735</ele>
        <time>2022-12-11T11:40:09Z</time>
      </trkpt>
      <trkpt lat="43.60973" lon="6.31111">
        <ele>735</ele>
        <time>2022-12-11T11:40:10Z</time>
      </trkpt>
      <trkpt lat="43.60973" lon="6.31109">
        <ele>735</ele>
        <time>2022-12-11T11:40:11Z</time>
      </trkpt>
      <trkpt lat="43.60973" lon="6.31108">
        <ele>735</ele>
        <time>2022-12-11T11:40:12Z</time>
      </trkpt>
      <trkpt lat="43.60974" lon="6.31106">
        <ele>734</ele>
        <time>2022-12-11T11:40:13Z</time>
      </trkpt>
      <trkpt lat="43.60974" lon="6.31105">
        <ele>734</ele>
        <time>2022-12-11T11:40:14Z</time>
      </trkpt>
      <trkpt lat="43.60974" lon="6.31103">
        <ele>734</ele>
        <time>2022-12-11T11:40:15Z</time>
      </trkpt>
      <trkpt lat="43.60975" lon="6.31102">
        <ele>734</ele>
        <time>2022-12-11T11:40:16Z</time>
      </trkpt>
      <trkpt lat="43.60975" lon="6.31101">
        <ele>734</ele>
        <time>2022-12-11T11:40:17Z</time>
      </trkpt>
      <trkpt lat="43.60975" lon="6.31099">
        <ele>734</ele>
        <time>2022-12-11T11:40:18Z</time>
      </trkpt>
      <trkpt lat="43.60975" lon="6.31097">
        <ele>734</ele>
        <time>2022-12-11T11:40:19Z</time>
      </trkpt>
      <trkpt lat="43.60975" lon="6.31096">
        <ele>734</ele>
        <time>2022-12-11T11:40:20Z</time>
      </trkpt>
      <trkpt lat="43.60975" lon="6.31094">
        <ele>734</ele>
        <time>2022-12-11T11:40:21Z</time>
      </trkpt>
      <trkpt lat="43.60975" lon="6.31093">
        <ele>734</ele>
        <time>2022-12-11T11:40:22Z</time>
      </trkpt>
      <trkpt lat="43.60975" lon="6.31091">
        <ele>734</ele>
        <time>2022-12-11T11:40:23Z</time>
      </trkpt>
      <trkpt lat="43.60974" lon="6.3109">
        <ele>734</ele>
        <time>2022-12-11T11:40:24Z</time>
      </trkpt>
      <trkpt lat="43.60974" lon="6.31089">
        <ele>734</ele>
        <time>2022-12-11T11:40:25Z</time>
      </trkpt>
      <trkpt lat="43.60974" lon="6.31088">
        <ele>734</ele>
        <time>2022-12-11T11:40:26Z</time>
      </trkpt>
      <trkpt lat="43.60973" lon="6.31087">
        <ele>735</ele>
        <time>2022-12-11T11:40:27Z</time>
      </trkpt>
      <trkpt lat="43.60973" lon="6.31085">
        <ele>735</ele>
        <time>2022-12-11T11:40:28Z</time>
      </trkpt>
      <trkpt lat="43.60972" lon="6.31084">
        <ele>735</ele>
        <time>2022-12-11T11:40:29Z</time>
      </trkpt>
      <trkpt lat="43.60972" lon="6.31083">
        <ele>735</ele>
        <time>2022-12-11T11:40:30Z</time>
      </trkpt>
      <trkpt lat="43.60971" lon="6.31081">
        <ele>735</ele>
        <time>2022-12-11T11:40:31Z</time>
      </trkpt>
      <trkpt lat="43.60971" lon="6.3108">
        <ele>735</ele>
        <time>2022-12-11T11:40:32Z</time>
      </trkpt>
      <trkpt lat="43.6097" lon="6.31078">
        <ele>734</ele>
        <time>2022-12-11T11:40:33Z</time>
      </trkpt>
      <trkpt lat="43.6097" lon="6.31077">
        <ele>734</ele>
        <time>2022-12-11T11:40:34Z</time>
      </trkpt>
      <trkpt lat="43.60969" lon="6.31075">
        <ele>734</ele>
        <time>2022-12-11T11:40:35Z</time>
      </trkpt>
      <trkpt lat="43.60969" lon="6.31074">
        <ele>734</ele>
        <time>2022-12-11T11:40:36Z</time>
      </trkpt>
      <trkpt lat="43.60968" lon="6.31072">
        <ele>734</ele>
        <time>2022-12-11T11:40:37Z</time>
      </trkpt>
      <trkpt lat="43.60968" lon="6.31071">
        <ele>734</ele>
        <time>2022-12-11T11:40:38Z</time>
      </trkpt>
      <trkpt lat="43.60968" lon="6.3107">
        <ele>734</ele>
        <time>2022-12-11T11:40:39Z</time>
      </trkpt>
      <trkpt lat="43.60968" lon="6.31068">
        <ele>733</ele>
        <time>2022-12-11T11:40:40Z</time>
      </trkpt>
      <trkpt lat="43.60968" lon="6.31067">
        <ele>733</ele>
        <time>2022-12-11T11:40:41Z</time>
      </trkpt>
      <trkpt lat="43.60967" lon="6.31066">
        <ele>733</ele>
        <time>2022-12-11T11:40:42Z</time>
      </trkpt>
      <trkpt lat="43.60967" lon="6.31064">
        <ele>733</ele>
        <time>2022-12-11T11:40:43Z</time>
      </trkpt>
      <trkpt lat="43.60966" lon="6.31063">
        <ele>732</ele>
        <time>2022-12-11T11:40:44Z</time>
      </trkpt>
      <trkpt lat="43.60966" lon="6.31062">
        <ele>732</ele>
        <time>2022-12-11T11:40:45Z</time>
      </trkpt>
      <trkpt lat="43.60965" lon="6.3106">
        <ele>732</ele>
        <time>2022-12-11T11:40:46Z</time>
      </trkpt>
      <trkpt lat="43.60964" lon="6.31059">
        <ele>732</ele>
        <time>2022-12-11T11:40:47Z</time>
      </trkpt>
      <trkpt lat="43.60964" lon="6.31058">
        <ele>732</ele>
        <time>2022-12-11T11:40:48Z</time>
      </trkpt>
      <trkpt lat="43.60963" lon="6.31056">
        <ele>732</ele>
        <time>2022-12-11T11:40:49Z</time>
      </trkpt>
      <trkpt lat="43.60963" lon="6.31055">
        <ele>732</ele>
        <time>2022-12-11T11:40:50Z</time>
      </trkpt>
      <trkpt lat="43.60963" lon="6.31053">
        <ele>732</ele>
        <time>2022-12-11T11:40:51Z</time>
      </trkpt>
      <trkpt lat="43.60963" lon="6.31052">
        <ele>732</ele>
        <time>2022-12-11T11:40:52Z</time>
      </trkpt>
      <trkpt lat="43.60963" lon="6.3105">
        <ele>732</ele>
        <time>2022-12-11T11:40:53Z</time>
      </trkpt>
      <trkpt lat="43.60963" lon="6.31049">
        <ele>732</ele>
        <time>2022-12-11T11:40:54Z</time>
      </trkpt>
      <trkpt lat="43.60963" lon="6.31047">
        <ele>732</ele>
        <time>2022-12-11T11:40:55Z</time>
      </trkpt>
      <trkpt lat="43.60964" lon="6.31046">
        <ele>732</ele>
        <time>2022-12-11T11:40:56Z</time>
      </trkpt>
      <trkpt lat="43.60964" lon="6.31044">
        <ele>732</ele>
        <time>2022-12-11T11:40:57Z</time>
      </trkpt>
      <trkpt lat="43.60965" lon="6.31043">
        <ele>732</ele>
        <time>2022-12-11T11:40:58Z</time>
      </trkpt>
      <trkpt lat="43.60965" lon="6.31042">
        <ele>732</ele>
        <time>2022-12-11T11:40:59Z</time>
      </trkpt>
      <trkpt lat="43.60965" lon="6.31041">
        <ele>732</ele>
        <time>2022-12-11T11:41:00Z</time>
      </trkpt>
      <trkpt lat="43.60966" lon="6.31039">
        <ele>732</ele>
        <time>2022-12-11T11:41:01Z</time>
      </trkpt>
      <trkpt lat="43.60967" lon="6.31037">
        <ele>732</ele>
        <time>2022-12-11T11:41:02Z</time>
      </trkpt>
      <trkpt lat="43.60967" lon="6.31036">
        <ele>732</ele>
        <time>2022-12-11T11:41:03Z</time>
      </trkpt>
      <trkpt lat="43.60967" lon="6.31035">
        <ele>732</ele>
        <time>2022-12-11T11:41:04Z</time>
      </trkpt>
      <trkpt lat="43.60967" lon="6.31034">
        <ele>732</ele>
        <time>2022-12-11T11:41:05Z</time>
      </trkpt>
      <trkpt lat="43.60968" lon="6.31033">
        <ele>732</ele>
        <time>2022-12-11T11:41:06Z</time>
      </trkpt>
      <trkpt lat="43.60968" lon="6.31032">
        <ele>732</ele>
        <time>2022-12-11T11:41:07Z</time>
      </trkpt>
      <trkpt lat="43.60968" lon="6.31031">
        <ele>732</ele>
        <time>2022-12-11T11:41:08Z</time>
      </trkpt>
      <trkpt lat="43.60968" lon="6.31031">
        <ele>732</ele>
        <time>2022-12-11T11:41:09Z</time>
      </trkpt>
      <trkpt lat="43.60968" lon="6.31031">
        <ele>732</ele>
        <time>2022-12-11T11:41:10Z</time>
      </trkpt>
      <trkpt lat="43.60968" lon="6.31031">
        <ele>732</ele>
        <time>2022-12-11T11:41:11Z</time>
      </trkpt>
      <trkpt lat="43.60968" lon="6.3103">
        <ele>732</ele>
        <time>2022-12-11T11:41:12Z</time>
      </trkpt>
      <trkpt lat="43.60968" lon="6.3103">
        <ele>732</ele>
        <time>2022-12-11T11:41:13Z</time>
      </trkpt>
      <trkpt lat="43.60969" lon="6.3103">
        <ele>732</ele>
        <time>2022-12-11T11:41:14Z</time>
      </trkpt>
      <trkpt lat="43.60969" lon="6.3103">
        <ele>732</ele>
        <time>2022-12-11T11:41:15Z</time>
      </trkpt>
      <trkpt lat="43.60969" lon="6.3103">
        <ele>732</ele>
        <time>2022-12-11T11:41:16Z</time>
      </trkpt>
      <trkpt lat="43.60969" lon="6.31031">
        <ele>732</ele>
        <time>2022-12-11T11:41:17Z</time>
      </trkpt>
      <trkpt lat="43.60969" lon="6.31031">
        <ele>732</ele>
        <time>2022-12-11T11:41:18Z</time>
      </trkpt>
      <trkpt lat="43.60969" lon="6.31031">
        <ele>732</ele>
        <time>2022-12-11T11:41:19Z</time>
      </trkpt>
      <trkpt lat="43.60969" lon="6.31031">
        <ele>732</ele>
        <time>2022-12-11T11:41:20Z</time>
      </trkpt>
      <trkpt lat="43.60969" lon="6.31031">
        <ele>732</ele>
        <time>2022-12-11T11:41:21Z</time>
      </trkpt>
      <trkpt lat="43.60969" lon="6.31031">
        <ele>732</ele>
        <time>2022-12-11T11:41:22Z</time>
      </trkpt>
      <trkpt lat="43.60969" lon="6.31031">
        <ele>732</ele>
        <time>2022-12-11T11:41:23Z</time>
      </trkpt>
      <trkpt lat="43.60969" lon="6.31031">
        <ele>732</ele>
        <time>2022-12-11T11:41:24Z</time>
      </trkpt>
      <trkpt lat="43.60968" lon="6.31032">
        <ele>732</ele>
        <time>2022-12-11T11:41:25Z</time>
      </trkpt>
      <trkpt lat="43.60968" lon="6.31032">
        <ele>732</ele>
        <time>2022-12-11T11:41:26Z</time>
      </trkpt>
      <trkpt lat="43.60968" lon="6.31031">
        <ele>732</ele>
        <time>2022-12-11T11:41:27Z</time>
      </trkpt>
      <trkpt lat="43.60967" lon="6.31031">
        <ele>732</ele>
        <time>2022-12-11T11:41:28Z</time>
      </trkpt>
      <trkpt lat="43.60967" lon="6.3103">
        <ele>732</ele>
        <time>2022-12-11T11:41:29Z</time>
      </trkpt>
      <trkpt lat="43.60967" lon="6.3103">
        <ele>732</ele>
        <time>2022-12-11T11:41:30Z</time>
      </trkpt>
      <trkpt lat="43.60967" lon="6.3103">
        <ele>732</ele>
        <time>2022-12-11T11:41:31Z</time>
      </trkpt>
      <trkpt lat="43.60966" lon="6.31029">
        <ele>732</ele>
        <time>2022-12-11T11:41:32Z</time>
      </trkpt>
      <trkpt lat="43.60966" lon="6.31028">
        <ele>732</ele>
        <time>2022-12-11T11:41:33Z</time>
      </trkpt>
      <trkpt lat="43.60965" lon="6.31027">
        <ele>732</ele>
        <time>2022-12-11T11:41:34Z</time>
      </trkpt>
      <trkpt lat="43.60964" lon="6.31026">
        <ele>732</ele>
        <time>2022-12-11T11:41:35Z</time>
      </trkpt>
      <trkpt lat="43.60963" lon="6.31025">
        <ele>732</ele>
        <time>2022-12-11T11:41:36Z</time>
      </trkpt>
      <trkpt lat="43.60962" lon="6.31024">
        <ele>732</ele>
        <time>2022-12-11T11:41:37Z</time>
      </trkpt>
      <trkpt lat="43.6096" lon="6.31024">
        <ele>732</ele>
        <time>2022-12-11T11:41:38Z</time>
      </trkpt>
      <trkpt lat="43.60959" lon="6.31025">
        <ele>732</ele>
        <time>2022-12-11T11:41:39Z</time>
      </trkpt>
      <trkpt lat="43.60959" lon="6.31025">
        <ele>732</ele>
        <time>2022-12-11T11:41:40Z</time>
      </trkpt>
      <trkpt lat="43.60958" lon="6.31025">
        <ele>732</ele>
        <time>2022-12-11T11:41:41Z</time>
      </trkpt>
      <trkpt lat="43.60957" lon="6.31024">
        <ele>732</ele>
        <time>2022-12-11T11:41:42Z</time>
      </trkpt>
      <trkpt lat="43.60956" lon="6.31023">
        <ele>732</ele>
        <time>2022-12-11T11:41:43Z</time>
      </trkpt>
      <trkpt lat="43.60955" lon="6.31022">
        <ele>732</ele>
        <time>2022-12-11T11:41:44Z</time>
      </trkpt>
      <trkpt lat="43.60955" lon="6.31022">
        <ele>732</ele>
        <time>2022-12-11T11:41:45Z</time>
      </trkpt>
      <trkpt lat="43.60954" lon="6.31022">
        <ele>732</ele>
        <time>2022-12-11T11:41:46Z</time>
      </trkpt>
      <trkpt lat="43.60954" lon="6.31022">
        <ele>733</ele>
        <time>2022-12-11T11:41:47Z</time>
      </trkpt>
      <trkpt lat="43.60953" lon="6.31022">
        <ele>733</ele>
        <time>2022-12-11T11:41:48Z</time>
      </trkpt>
      <trkpt lat="43.60952" lon="6.31021">
        <ele>733</ele>
        <time>2022-12-11T11:41:49Z</time>
      </trkpt>
      <trkpt lat="43.60951" lon="6.3102">
        <ele>734</ele>
        <time>2022-12-11T11:41:50Z</time>
      </trkpt>
      <trkpt lat="43.6095" lon="6.3102">
        <ele>734</ele>
        <time>2022-12-11T11:41:51Z</time>
      </trkpt>
      <trkpt lat="43.60949" lon="6.31019">
        <ele>734</ele>
        <time>2022-12-11T11:41:52Z</time>
      </trkpt>
      <trkpt lat="43.60947" lon="6.31018">
        <ele>735</ele>
        <time>2022-12-11T11:41:53Z</time>
      </trkpt>
      <trkpt lat="43.60947" lon="6.31018">
        <ele>735</ele>
        <time>2022-12-11T11:41:54Z</time>
      </trkpt>
      <trkpt lat="43.60946" lon="6.31018">
        <ele>735</ele>
        <time>2022-12-11T11:41:55Z</time>
      </trkpt>
      <trkpt lat="43.60945" lon="6.31017">
        <ele>735</ele>
        <time>2022-12-11T11:41:56Z</time>
      </trkpt>
      <trkpt lat="43.60944" lon="6.31017">
        <ele>735</ele>
        <time>2022-12-11T11:41:57Z</time>
      </trkpt>
      <trkpt lat="43.60944" lon="6.31017">
        <ele>736</ele>
        <time>2022-12-11T11:41:58Z</time>
      </trkpt>
      <trkpt lat="43.60943" lon="6.31018">
        <ele>737</ele>
        <time>2022-12-11T11:41:59Z</time>
      </trkpt>
      <trkpt lat="43.60942" lon="6.31018">
        <ele>737</ele>
        <time>2022-12-11T11:42:00Z</time>
      </trkpt>
      <trkpt lat="43.60942" lon="6.31018">
        <ele>737</ele>
        <time>2022-12-11T11:42:01Z</time>
      </trkpt>
      <trkpt lat="43.60941" lon="6.31018">
        <ele>737</ele>
        <time>2022-12-11T11:42:02Z</time>
      </trkpt>
      <trkpt lat="43.60941" lon="6.31018">
        <ele>737</ele>
        <time>2022-12-11T11:42:03Z</time>
      </trkpt>
      <trkpt lat="43.6094" lon="6.31018">
        <ele>737</ele>
        <time>2022-12-11T11:42:04Z</time>
      </trkpt>
      <trkpt lat="43.60939" lon="6.31019">
        <ele>737</ele>
        <time>2022-12-11T11:42:05Z</time>
      </trkpt>
      <trkpt lat="43.60938" lon="6.3102">
        <ele>737</ele>
        <time>2022-12-11T11:42:06Z</time>
      </trkpt>
      <trkpt lat="43.60937" lon="6.31021">
        <ele>737</ele>
        <time>2022-12-11T11:42:07Z</time>
      </trkpt>
      <trkpt lat="43.60937" lon="6.31021">
        <ele>737</ele>
        <time>2022-12-11T11:42:08Z</time>
      </trkpt>
      <trkpt lat="43.60936" lon="6.31021">
        <ele>737</ele>
        <time>2022-12-11T11:42:09Z</time>
      </trkpt>
      <trkpt lat="43.60936" lon="6.31021">
        <ele>737</ele>
        <time>2022-12-11T11:42:10Z</time>
      </trkpt>
      <trkpt lat="43.60935" lon="6.31021">
        <ele>737</ele>
        <time>2022-12-11T11:42:11Z</time>
      </trkpt>
      <trkpt lat="43.60935" lon="6.31021">
        <ele>737</ele>
        <time>2022-12-11T11:42:12Z</time>
      </trkpt>
      <trkpt lat="43.60935" lon="6.3102">
        <ele>737</ele>
        <time>2022-12-11T11:42:13Z</time>
      </trkpt>
      <trkpt lat="43.60934" lon="6.3102">
        <ele>737</ele>
        <time>2022-12-11T11:42:14Z</time>
      </trkpt>
      <trkpt lat="43.60933" lon="6.3102">
        <ele>737</ele>
        <time>2022-12-11T11:42:15Z</time>
      </trkpt>
      <trkpt lat="43.60933" lon="6.3102">
        <ele>736</ele>
        <time>2022-12-11T11:42:16Z</time>
      </trkpt>
      <trkpt lat="43.60932" lon="6.3102">
        <ele>735</ele>
        <time>2022-12-11T11:42:17Z</time>
      </trkpt>
      <trkpt lat="43.60932" lon="6.3102">
        <ele>735</ele>
        <time>2022-12-11T11:42:18Z</time>
      </trkpt>
      <trkpt lat="43.60931" lon="6.3102">
        <ele>735</ele>
        <time>2022-12-11T11:42:19Z</time>
      </trkpt>
      <trkpt lat="43.6093" lon="6.3102">
        <ele>735</ele>
        <time>2022-12-11T11:42:20Z</time>
      </trkpt>
      <trkpt lat="43.60929" lon="6.31019">
        <ele>735</ele>
        <time>2022-12-11T11:42:21Z</time>
      </trkpt>
      <trkpt lat="43.60928" lon="6.31019">
        <ele>735</ele>
        <time>2022-12-11T11:42:22Z</time>
      </trkpt>
      <trkpt lat="43.60927" lon="6.31019">
        <ele>735</ele>
        <time>2022-12-11T11:42:23Z</time>
      </trkpt>
      <trkpt lat="43.60927" lon="6.31019">
        <ele>734</ele>
        <time>2022-12-11T11:42:24Z</time>
      </trkpt>
      <trkpt lat="43.60926" lon="6.31019">
        <ele>734</ele>
        <time>2022-12-11T11:42:25Z</time>
      </trkpt>
      <trkpt lat="43.60925" lon="6.31019">
        <ele>734</ele>
        <time>2022-12-11T11:42:26Z</time>
      </trkpt>
      <trkpt lat="43.60924" lon="6.31018">
        <ele>734</ele>
        <time>2022-12-11T11:42:27Z</time>
      </trkpt>
      <trkpt lat="43.60923" lon="6.31018">
        <ele>734</ele>
        <time>2022-12-11T11:42:28Z</time>
      </trkpt>
      <trkpt lat="43.60922" lon="6.31018">
        <ele>734</ele>
        <time>2022-12-11T11:42:29Z</time>
      </trkpt>
      <trkpt lat="43.60921" lon="6.31017">
        <ele>734</ele>
        <time>2022-12-11T11:42:30Z</time>
      </trkpt>
      <trkpt lat="43.6092" lon="6.31017">
        <ele>734</ele>
        <time>2022-12-11T11:42:31Z</time>
      </trkpt>
      <trkpt lat="43.6092" lon="6.31017">
        <ele>734</ele>
        <time>2022-12-11T11:42:32Z</time>
      </trkpt>
      <trkpt lat="43.60919" lon="6.31017">
        <ele>733</ele>
        <time>2022-12-11T11:42:33Z</time>
      </trkpt>
      <trkpt lat="43.60919" lon="6.31017">
        <ele>733</ele>
        <time>2022-12-11T11:42:34Z</time>
      </trkpt>
      <trkpt lat="43.60918" lon="6.31016">
        <ele>733</ele>
        <time>2022-12-11T11:42:35Z</time>
      </trkpt>
      <trkpt lat="43.60917" lon="6.31016">
        <ele>733</ele>
        <time>2022-12-11T11:42:36Z</time>
      </trkpt>
      <trkpt lat="43.60917" lon="6.31016">
        <ele>733</ele>
        <time>2022-12-11T11:42:37Z</time>
      </trkpt>
      <trkpt lat="43.60916" lon="6.31016">
        <ele>733</ele>
        <time>2022-12-11T11:42:38Z</time>
      </trkpt>
      <trkpt lat="43.60916" lon="6.31016">
        <ele>733</ele>
        <time>2022-12-11T11:42:39Z</time>
      </trkpt>
      <trkpt lat="43.60915" lon="6.31015">
        <ele>733</ele>
        <time>2022-12-11T11:42:40Z</time>
      </trkpt>
      <trkpt lat="43.60915" lon="6.31015">
        <ele>733</ele>
        <time>2022-12-11T11:42:41Z</time>
      </trkpt>
      <trkpt lat="43.60914" lon="6.31015">
        <ele>733</ele>
        <time>2022-12-11T11:42:42Z</time>
      </trkpt>
      <trkpt lat="43.60913" lon="6.31014">
        <ele>733</ele>
        <time>2022-12-11T11:42:43Z</time>
      </trkpt>
      <trkpt lat="43.60913" lon="6.31014">
        <ele>733</ele>
        <time>2022-12-11T11:42:44Z</time>
      </trkpt>
      <trkpt lat="43.60912" lon="6.31013">
        <ele>733</ele>
        <time>2022-12-11T11:42:45Z</time>
      </trkpt>
      <trkpt lat="43.60912" lon="6.31013">
        <ele>733</ele>
        <time>2022-12-11T11:42:46Z</time>
      </trkpt>
      <trkpt lat="43.60911" lon="6.31013">
        <ele>733</ele>
        <time>2022-12-11T11:42:47Z</time>
      </trkpt>
      <trkpt lat="43.60911" lon="6.31013">
        <ele>733</ele>
        <time>2022-12-11T11:42:48Z</time>
      </trkpt>
      <trkpt lat="43.6091" lon="6.31012">
        <ele>733</ele>
        <time>2022-12-11T11:42:49Z</time>
      </trkpt>
      <trkpt lat="43.6091" lon="6.31012">
        <ele>733</ele>
        <time>2022-12-11T11:42:50Z</time>
      </trkpt>
      <trkpt lat="43.60909" lon="6.31011">
        <ele>733</ele>
        <time>2022-12-11T11:42:51Z</time>
      </trkpt>
      <trkpt lat="43.60909" lon="6.31011">
        <ele>733</ele>
        <time>2022-12-11T11:42:52Z</time>
      </trkpt>
      <trkpt lat="43.60908" lon="6.3101">
        <ele>733</ele>
        <time>2022-12-11T11:42:53Z</time>
      </trkpt>
      <trkpt lat="43.60908" lon="6.3101">
        <ele>733</ele>
        <time>2022-12-11T11:42:54Z</time>
      </trkpt>
      <trkpt lat="43.60908" lon="6.3101">
        <ele>733</ele>
        <time>2022-12-11T11:42:55Z</time>
      </trkpt>
      <trkpt lat="43.60907" lon="6.31009">
        <ele>733</ele>
        <time>2022-12-11T11:42:56Z</time>
      </trkpt>
      <trkpt lat="43.60906" lon="6.31009">
        <ele>733</ele>
        <time>2022-12-11T11:42:57Z</time>
      </trkpt>
      <trkpt lat="43.60905" lon="6.31007">
        <ele>733</ele>
        <time>2022-12-11T11:42:58Z</time>
      </trkpt>
      <trkpt lat="43.60904" lon="6.31006">
        <ele>733</ele>
        <time>2022-12-11T11:42:59Z</time>
      </trkpt>
      <trkpt lat="43.60904" lon="6.31005">
        <ele>733</ele>
        <time>2022-12-11T11:43:00Z</time>
      </trkpt>
      <trkpt lat="43.60903" lon="6.31004">
        <ele>733</ele>
        <time>2022-12-11T11:43:01Z</time>
      </trkpt>
      <trkpt lat="43.60902" lon="6.31004">
        <ele>733</ele>
        <time>2022-12-11T11:43:02Z</time>
      </trkpt>
      <trkpt lat="43.60902" lon="6.31003">
        <ele>733</ele>
        <time>2022-12-11T11:43:03Z</time>
      </trkpt>
      <trkpt lat="43.60901" lon="6.31001">
        <ele>733</ele>
        <time>2022-12-11T11:43:04Z</time>
      </trkpt>
      <trkpt lat="43.60901" lon="6.31">
        <ele>733</ele>
        <time>2022-12-11T11:43:05Z</time>
      </trkpt>
      <trkpt lat="43.609" lon="6.30998">
        <ele>733</ele>
        <time>2022-12-11T11:43:06Z</time>
      </trkpt>
      <trkpt lat="43.60899" lon="6.30997">
        <ele>733</ele>
        <time>2022-12-11T11:43:07Z</time>
      </trkpt>
      <trkpt lat="43.60899" lon="6.30996">
        <ele>733</ele>
        <time>2022-12-11T11:43:08Z</time>
      </trkpt>
      <trkpt lat="43.60898" lon="6.30995">
        <ele>733</ele>
        <time>2022-12-11T11:43:09Z</time>
      </trkpt>
      <trkpt lat="43.60897" lon="6.30994">
        <ele>733</ele>
        <time>2022-12-11T11:43:10Z</time>
      </trkpt>
      <trkpt lat="43.60896" lon="6.30993">
        <ele>733</ele>
        <time>2022-12-11T11:43:11Z</time>
      </trkpt>
      <trkpt lat="43.60895" lon="6.30993">
        <ele>733</ele>
        <time>2022-12-11T11:43:12Z</time>
      </trkpt>
      <trkpt lat="43.60894" lon="6.30992">
        <ele>733</ele>
        <time>2022-12-11T11:43:13Z</time>
      </trkpt>
      <trkpt lat="43.60892" lon="6.30991">
        <ele>733</ele>
        <time>2022-12-11T11:43:14Z</time>
      </trkpt>
      <trkpt lat="43.60891" lon="6.30991">
        <ele>733</ele>
        <time>2022-12-11T11:43:15Z</time>
      </trkpt>
      <trkpt lat="43.60891" lon="6.3099">
        <ele>733</ele>
        <time>2022-12-11T11:43:16Z</time>
      </trkpt>
      <trkpt lat="43.6089" lon="6.30989">
        <ele>733</ele>
        <time>2022-12-11T11:43:17Z</time>
      </trkpt>
      <trkpt lat="43.60889" lon="6.30989">
        <ele>733</ele>
        <time>2022-12-11T11:43:18Z</time>
      </trkpt>
      <trkpt lat="43.60888" lon="6.30988">
        <ele>734</ele>
        <time>2022-12-11T11:43:19Z</time>
      </trkpt>
      <trkpt lat="43.60887" lon="6.30987">
        <ele>734</ele>
        <time>2022-12-11T11:43:20Z</time>
      </trkpt>
      <trkpt lat="43.60886" lon="6.30986">
        <ele>734</ele>
        <time>2022-12-11T11:43:21Z</time>
      </trkpt>
      <trkpt lat="43.60886" lon="6.30984">
        <ele>734</ele>
        <time>2022-12-11T11:43:22Z</time>
      </trkpt>
      <trkpt lat="43.60886" lon="6.30983">
        <ele>734</ele>
        <time>2022-12-11T11:43:23Z</time>
      </trkpt>
      <trkpt lat="43.60886" lon="6.30982">
        <ele>734</ele>
        <time>2022-12-11T11:43:24Z</time>
      </trkpt>
      <trkpt lat="43.60887" lon="6.30982">
        <ele>734</ele>
        <time>2022-12-11T11:43:25Z</time>
      </trkpt>
      <trkpt lat="43.60887" lon="6.30982">
        <ele>734</ele>
        <time>2022-12-11T11:43:26Z</time>
      </trkpt>
      <trkpt lat="43.60887" lon="6.30982">
        <ele>734</ele>
        <time>2022-12-11T11:43:27Z</time>
      </trkpt>
      <trkpt lat="43.60887" lon="6.30982">
        <ele>734</ele>
        <time>2022-12-11T11:43:28Z</time>
      </trkpt>
      <trkpt lat="43.60887" lon="6.30982">
        <ele>734</ele>
        <time>2022-12-11T11:43:29Z</time>
      </trkpt>
      <trkpt lat="43.60887" lon="6.30982">
        <ele>734</ele>
        <time>2022-12-11T11:43:30Z</time>
      </trkpt>
      <trkpt lat="43.60887" lon="6.30982">
        <ele>734</ele>
        <time>2022-12-11T11:43:31Z</time>
      </trkpt>
      <trkpt lat="43.60887" lon="6.30982">
        <ele>734</ele>
        <time>2022-12-11T11:43:32Z</time>
      </trkpt>
      <trkpt lat="43.60887" lon="6.30981">
        <ele>734</ele>
        <time>2022-12-11T11:43:33Z</time>
      </trkpt>
      <trkpt lat="43.60887" lon="6.30981">
        <ele>734</ele>
        <time>2022-12-11T11:43:34Z</time>
      </trkpt>
      <trkpt lat="43.60886" lon="6.30981">
        <ele>734</ele>
        <time>2022-12-11T11:43:35Z</time>
      </trkpt>
      <trkpt lat="43.60885" lon="6.3098">
        <ele>734</ele>
        <time>2022-12-11T11:43:36Z</time>
      </trkpt>
      <trkpt lat="43.60884" lon="6.30979">
        <ele>734</ele>
        <time>2022-12-11T11:43:37Z</time>
      </trkpt>
      <trkpt lat="43.60883" lon="6.30979">
        <ele>734</ele>
        <time>2022-12-11T11:43:38Z</time>
      </trkpt>
      <trkpt lat="43.60882" lon="6.30978">
        <ele>734</ele>
        <time>2022-12-11T11:43:39Z</time>
      </trkpt>
      <trkpt lat="43.60881" lon="6.30978">
        <ele>734</ele>
        <time>2022-12-11T11:43:40Z</time>
      </trkpt>
      <trkpt lat="43.60879" lon="6.30977">
        <ele>734</ele>
        <time>2022-12-11T11:43:41Z</time>
      </trkpt>
      <trkpt lat="43.60879" lon="6.30977">
        <ele>734</ele>
        <time>2022-12-11T11:43:42Z</time>
      </trkpt>
      <trkpt lat="43.60878" lon="6.30977">
        <ele>734</ele>
        <time>2022-12-11T11:43:43Z</time>
      </trkpt>
      <trkpt lat="43.60877" lon="6.30976">
        <ele>734</ele>
        <time>2022-12-11T11:43:44Z</time>
      </trkpt>
      <trkpt lat="43.60876" lon="6.30976">
        <ele>734</ele>
        <time>2022-12-11T11:43:45Z</time>
      </trkpt>
      <trkpt lat="43.60875" lon="6.30975">
        <ele>734</ele>
        <time>2022-12-11T11:43:46Z</time>
      </trkpt>
      <trkpt lat="43.60874" lon="6.30975">
        <ele>734</ele>
        <time>2022-12-11T11:43:47Z</time>
      </trkpt>
      <trkpt lat="43.60874" lon="6.30974">
        <ele>734</ele>
        <time>2022-12-11T11:43:48Z</time>
      </trkpt>
      <trkpt lat="43.60873" lon="6.30974">
        <ele>734</ele>
        <time>2022-12-11T11:43:49Z</time>
      </trkpt>
      <trkpt lat="43.60873" lon="6.30973">
        <ele>734</ele>
        <time>2022-12-11T11:43:50Z</time>
      </trkpt>
      <trkpt lat="43.60872" lon="6.30973">
        <ele>734</ele>
        <time>2022-12-11T11:43:51Z</time>
      </trkpt>
      <trkpt lat="43.60871" lon="6.30972">
        <ele>734</ele>
        <time>2022-12-11T11:43:52Z</time>
      </trkpt>
      <trkpt lat="43.60871" lon="6.30973">
        <ele>734</ele>
        <time>2022-12-11T11:43:53Z</time>
      </trkpt>
      <trkpt lat="43.60871" lon="6.30973">
        <ele>734</ele>
        <time>2022-12-11T11:43:54Z</time>
      </trkpt>
      <trkpt lat="43.6087" lon="6.30973">
        <ele>734</ele>
        <time>2022-12-11T11:43:55Z</time>
      </trkpt>
      <trkpt lat="43.6087" lon="6.30973">
        <ele>734</ele>
        <time>2022-12-11T11:43:56Z</time>
      </trkpt>
      <trkpt lat="43.60869" lon="6.30973">
        <ele>734</ele>
        <time>2022-12-11T11:43:57Z</time>
      </trkpt>
      <trkpt lat="43.60869" lon="6.30972">
        <ele>734</ele>
        <time>2022-12-11T11:43:58Z</time>
      </trkpt>
      <trkpt lat="43.60869" lon="6.30972">
        <ele>734</ele>
        <time>2022-12-11T11:43:59Z</time>
      </trkpt>
      <trkpt lat="43.60869" lon="6.30972">
        <ele>734</ele>
        <time>2022-12-11T11:44:00Z</time>
      </trkpt>
      <trkpt lat="43.60868" lon="6.30971">
        <ele>734</ele>
        <time>2022-12-11T11:44:01Z</time>
      </trkpt>
      <trkpt lat="43.60868" lon="6.30971">
        <ele>734</ele>
        <time>2022-12-11T11:44:02Z</time>
      </trkpt>
      <trkpt lat="43.60868" lon="6.3097">
        <ele>734</ele>
        <time>2022-12-11T11:44:03Z</time>
      </trkpt>
      <trkpt lat="43.60868" lon="6.3097">
        <ele>734</ele>
        <time>2022-12-11T11:44:04Z</time>
      </trkpt>
      <trkpt lat="43.60867" lon="6.30969">
        <ele>734</ele>
        <time>2022-12-11T11:44:05Z</time>
      </trkpt>
      <trkpt lat="43.60867" lon="6.30969">
        <ele>734</ele>
        <time>2022-12-11T11:44:06Z</time>
      </trkpt>
      <trkpt lat="43.60867" lon="6.3097">
        <ele>734</ele>
        <time>2022-12-11T11:44:07Z</time>
      </trkpt>
      <trkpt lat="43.60866" lon="6.3097">
        <ele>734</ele>
        <time>2022-12-11T11:44:08Z</time>
      </trkpt>
      <trkpt lat="43.60866" lon="6.3097">
        <ele>733</ele>
        <time>2022-12-11T11:44:09Z</time>
      </trkpt>
      <trkpt lat="43.60866" lon="6.3097">
        <ele>733</ele>
        <time>2022-12-11T11:44:10Z</time>
      </trkpt>
      <trkpt lat="43.60865" lon="6.30969">
        <ele>733</ele>
        <time>2022-12-11T11:44:11Z</time>
      </trkpt>
      <trkpt lat="43.60865" lon="6.30969">
        <ele>733</ele>
        <time>2022-12-11T11:44:12Z</time>
      </trkpt>
      <trkpt lat="43.60865" lon="6.30969">
        <ele>733</ele>
        <time>2022-12-11T11:44:13Z</time>
      </trkpt>
      <trkpt lat="43.60865" lon="6.30969">
        <ele>733</ele>
        <time>2022-12-11T11:44:14Z</time>
      </trkpt>
      <trkpt lat="43.60865" lon="6.30969">
        <ele>733</ele>
        <time>2022-12-11T11:44:15Z</time>
      </trkpt>
      <trkpt lat="43.60864" lon="6.30969">
        <ele>733</ele>
        <time>2022-12-11T11:44:16Z</time>
      </trkpt>
      <trkpt lat="43.60864" lon="6.30969">
        <ele>733</ele>
        <time>2022-12-11T11:44:17Z</time>
      </trkpt>
      <trkpt lat="43.60864" lon="6.30969">
        <ele>733</ele>
        <time>2022-12-11T11:44:18Z</time>
      </trkpt>
      <trkpt lat="43.60864" lon="6.3097">
        <ele>733</ele>
        <time>2022-12-11T11:44:19Z</time>
      </trkpt>
      <trkpt lat="43.60864" lon="6.3097">
        <ele>733</ele>
        <time>2022-12-11T11:44:20Z</time>
      </trkpt>
      <trkpt lat="43.60863" lon="6.30971">
        <ele>733</ele>
        <time>2022-12-11T11:44:21Z</time>
      </trkpt>
      <trkpt lat="43.60863" lon="6.30971">
        <ele>733</ele>
        <time>2022-12-11T11:44:22Z</time>
      </trkpt>
      <trkpt lat="43.60862" lon="6.30971">
        <ele>733</ele>
        <time>2022-12-11T11:44:23Z</time>
      </trkpt>
      <trkpt lat="43.60862" lon="6.30971">
        <ele>733</ele>
        <time>2022-12-11T11:44:24Z</time>
      </trkpt>
      <trkpt lat="43.60862" lon="6.30971">
        <ele>733</ele>
        <time>2022-12-11T11:44:25Z</time>
      </trkpt>
      <trkpt lat="43.60861" lon="6.30971">
        <ele>733</ele>
        <time>2022-12-11T11:44:26Z</time>
      </trkpt>
      <trkpt lat="43.60861" lon="6.3097">
        <ele>733</ele>
        <time>2022-12-11T11:44:27Z</time>
      </trkpt>
      <trkpt lat="43.60861" lon="6.3097">
        <ele>733</ele>
        <time>2022-12-11T11:44:28Z</time>
      </trkpt>
      <trkpt lat="43.6086" lon="6.30969">
        <ele>733</ele>
        <time>2022-12-11T11:44:29Z</time>
      </trkpt>
      <trkpt lat="43.6086" lon="6.30968">
        <ele>733</ele>
        <time>2022-12-11T11:44:30Z</time>
      </trkpt>
      <trkpt lat="43.60859" lon="6.30967">
        <ele>733</ele>
        <time>2022-12-11T11:44:31Z</time>
      </trkpt>
      <trkpt lat="43.60858" lon="6.30967">
        <ele>733</ele>
        <time>2022-12-11T11:44:32Z</time>
      </trkpt>
      <trkpt lat="43.60857" lon="6.30966">
        <ele>733</ele>
        <time>2022-12-11T11:44:33Z</time>
      </trkpt>
      <trkpt lat="43.60856" lon="6.30966">
        <ele>733</ele>
        <time>2022-12-11T11:44:34Z</time>
      </trkpt>
      <trkpt lat="43.60856" lon="6.30965">
        <ele>733</ele>
        <time>2022-12-11T11:44:35Z</time>
      </trkpt>
      <trkpt lat="43.60855" lon="6.30964">
        <ele>733</ele>
        <time>2022-12-11T11:44:36Z</time>
      </trkpt>
      <trkpt lat="43.60854" lon="6.30964">
        <ele>733</ele>
        <time>2022-12-11T11:44:37Z</time>
      </trkpt>
      <trkpt lat="43.60853" lon="6.30963">
        <ele>733</ele>
        <time>2022-12-11T11:44:38Z</time>
      </trkpt>
      <trkpt lat="43.60852" lon="6.30963">
        <ele>733</ele>
        <time>2022-12-11T11:44:39Z</time>
      </trkpt>
      <trkpt lat="43.60851" lon="6.30963">
        <ele>733</ele>
        <time>2022-12-11T11:44:40Z</time>
      </trkpt>
      <trkpt lat="43.6085" lon="6.30962">
        <ele>733</ele>
        <time>2022-12-11T11:44:41Z</time>
      </trkpt>
      <trkpt lat="43.60849" lon="6.30962">
        <ele>733</ele>
        <time>2022-12-11T11:44:42Z</time>
      </trkpt>
      <trkpt lat="43.60848" lon="6.30961">
        <ele>733</ele>
        <time>2022-12-11T11:44:43Z</time>
      </trkpt>
      <trkpt lat="43.60847" lon="6.30961">
        <ele>733</ele>
        <time>2022-12-11T11:44:44Z</time>
      </trkpt>
      <trkpt lat="43.60846" lon="6.30961">
        <ele>732</ele>
        <time>2022-12-11T11:44:45Z</time>
      </trkpt>
      <trkpt lat="43.60845" lon="6.30961">
        <ele>732</ele>
        <time>2022-12-11T11:44:46Z</time>
      </trkpt>
      <trkpt lat="43.60844" lon="6.30961">
        <ele>732</ele>
        <time>2022-12-11T11:44:47Z</time>
      </trkpt>
      <trkpt lat="43.60843" lon="6.30961">
        <ele>732</ele>
        <time>2022-12-11T11:44:48Z</time>
      </trkpt>
      <trkpt lat="43.60842" lon="6.30961">
        <ele>732</ele>
        <time>2022-12-11T11:44:49Z</time>
      </trkpt>
      <trkpt lat="43.60841" lon="6.30961">
        <ele>732</ele>
        <time>2022-12-11T11:44:50Z</time>
      </trkpt>
      <trkpt lat="43.6084" lon="6.3096">
        <ele>732</ele>
        <time>2022-12-11T11:44:51Z</time>
      </trkpt>
      <trkpt lat="43.60839" lon="6.3096">
        <ele>732</ele>
        <time>2022-12-11T11:44:52Z</time>
      </trkpt>
      <trkpt lat="43.60838" lon="6.3096">
        <ele>733</ele>
        <time>2022-12-11T11:44:53Z</time>
      </trkpt>
      <trkpt lat="43.60837" lon="6.3096">
        <ele>733</ele>
        <time>2022-12-11T11:44:54Z</time>
      </trkpt>
      <trkpt lat="43.60836" lon="6.3096">
        <ele>733</ele>
        <time>2022-12-11T11:44:55Z</time>
      </trkpt>
      <trkpt lat="43.60836" lon="6.30961">
        <ele>733</ele>
        <time>2022-12-11T11:44:56Z</time>
      </trkpt>
      <trkpt lat="43.60835" lon="6.30961">
        <ele>733</ele>
        <time>2022-12-11T11:44:57Z</time>
      </trkpt>
      <trkpt lat="43.60834" lon="6.30961">
        <ele>733</ele>
        <time>2022-12-11T11:44:58Z</time>
      </trkpt>
      <trkpt lat="43.60833" lon="6.30961">
        <ele>733</ele>
        <time>2022-12-11T11:44:59Z</time>
      </trkpt>
      <trkpt lat="43.60832" lon="6.30961">
        <ele>733</ele>
        <time>2022-12-11T11:45:00Z</time>
      </trkpt>
      <trkpt lat="43.60832" lon="6.30961">
        <ele>733</ele>
        <time>2022-12-11T11:45:01Z</time>
      </trkpt>
      <trkpt lat="43.60831" lon="6.30961">
        <ele>733</ele>
        <time>2022-12-11T11:45:02Z</time>
      </trkpt>
      <trkpt lat="43.6083" lon="6.30961">
        <ele>733</ele>
        <time>2022-12-11T11:45:03Z</time>
      </trkpt>
      <trkpt lat="43.60829" lon="6.30961">
        <ele>733</ele>
        <time>2022-12-11T11:45:04Z</time>
      </trkpt>
      <trkpt lat="43.60828" lon="6.30961">
        <ele>733</ele>
        <time>2022-12-11T11:45:05Z</time>
      </trkpt>
      <trkpt lat="43.60827" lon="6.30961">
        <ele>733</ele>
        <time>2022-12-11T11:45:06Z</time>
      </trkpt>
      <trkpt lat="43.60826" lon="6.30961">
        <ele>733</ele>
        <time>2022-12-11T11:45:07Z</time>
      </trkpt>
      <trkpt lat="43.60825" lon="6.30961">
        <ele>734</ele>
        <time>2022-12-11T11:45:08Z</time>
      </trkpt>
      <trkpt lat="43.60824" lon="6.30961">
        <ele>734</ele>
        <time>2022-12-11T11:45:09Z</time>
      </trkpt>
      <trkpt lat="43.60823" lon="6.30961">
        <ele>734</ele>
        <time>2022-12-11T11:45:10Z</time>
      </trkpt>
      <trkpt lat="43.60822" lon="6.30962">
        <ele>734</ele>
        <time>2022-12-11T11:45:11Z</time>
      </trkpt>
      <trkpt lat="43.60821" lon="6.30961">
        <ele>734</ele>
        <time>2022-12-11T11:45:12Z</time>
      </trkpt>
      <trkpt lat="43.6082" lon="6.30961">
        <ele>733</ele>
        <time>2022-12-11T11:45:13Z</time>
      </trkpt>
      <trkpt lat="43.60819" lon="6.30961">
        <ele>733</ele>
        <time>2022-12-11T11:45:14Z</time>
      </trkpt>
      <trkpt lat="43.60818" lon="6.30962">
        <ele>733</ele>
        <time>2022-12-11T11:45:15Z</time>
      </trkpt>
      <trkpt lat="43.60816" lon="6.30962">
        <ele>733</ele>
        <time>2022-12-11T11:45:16Z</time>
      </trkpt>
      <trkpt lat="43.60815" lon="6.30962">
        <ele>733</ele>
        <time>2022-12-11T11:45:17Z</time>
      </trkpt>
      <trkpt lat="43.60815" lon="6.30962">
        <ele>733</ele>
        <time>2022-12-11T11:45:18Z</time>
      </trkpt>
      <trkpt lat="43.60814" lon="6.30963">
        <ele>733</ele>
        <time>2022-12-11T11:45:19Z</time>
      </trkpt>
      <trkpt lat="43.60813" lon="6.30963">
        <ele>733</ele>
        <time>2022-12-11T11:45:20Z</time>
      </trkpt>
      <trkpt lat="43.60812" lon="6.30964">
        <ele>733</ele>
        <time>2022-12-11T11:45:21Z</time>
      </trkpt>
      <trkpt lat="43.60811" lon="6.30964">
        <ele>733</ele>
        <time>2022-12-11T11:45:22Z</time>
      </trkpt>
      <trkpt lat="43.60811" lon="6.30964">
        <ele>733</ele>
        <time>2022-12-11T11:45:23Z</time>
      </trkpt>
      <trkpt lat="43.6081" lon="6.30964">
        <ele>733</ele>
        <time>2022-12-11T11:45:24Z</time>
      </trkpt>
      <trkpt lat="43.60809" lon="6.30964">
        <ele>733</ele>
        <time>2022-12-11T11:45:25Z</time>
      </trkpt>
      <trkpt lat="43.60808" lon="6.30964">
        <ele>733</ele>
        <time>2022-12-11T11:45:26Z</time>
      </trkpt>
      <trkpt lat="43.60808" lon="6.30963">
        <ele>733</ele>
        <time>2022-12-11T11:45:27Z</time>
      </trkpt>
      <trkpt lat="43.60807" lon="6.30963">
        <ele>733</ele>
        <time>2022-12-11T11:45:28Z</time>
      </trkpt>
      <trkpt lat="43.60807" lon="6.30963">
        <ele>733</ele>
        <time>2022-12-11T11:45:29Z</time>
      </trkpt>
      <trkpt lat="43.60806" lon="6.30962">
        <ele>733</ele>
        <time>2022-12-11T11:45:30Z</time>
      </trkpt>
      <trkpt lat="43.60806" lon="6.30962">
        <ele>733</ele>
        <time>2022-12-11T11:45:31Z</time>
      </trkpt>
      <trkpt lat="43.60805" lon="6.30962">
        <ele>733</ele>
        <time>2022-12-11T11:45:32Z</time>
      </trkpt>
      <trkpt lat="43.60804" lon="6.30962">
        <ele>733</ele>
        <time>2022-12-11T11:45:33Z</time>
      </trkpt>
      <trkpt lat="43.60803" lon="6.30962">
        <ele>733</ele>
        <time>2022-12-11T11:45:34Z</time>
      </trkpt>
      <trkpt lat="43.60803" lon="6.30962">
        <ele>733</ele>
        <time>2022-12-11T11:45:35Z</time>
      </trkpt>
      <trkpt lat="43.60802" lon="6.30963">
        <ele>733</ele>
        <time>2022-12-11T11:45:36Z</time>
      </trkpt>
      <trkpt lat="43.60801" lon="6.30963">
        <ele>733</ele>
        <time>2022-12-11T11:45:37Z</time>
      </trkpt>
      <trkpt lat="43.608" lon="6.30964">
        <ele>733</ele>
        <time>2022-12-11T11:45:38Z</time>
      </trkpt>
      <trkpt lat="43.60799" lon="6.30964">
        <ele>733</ele>
        <time>2022-12-11T11:45:39Z</time>
      </trkpt>
      <trkpt lat="43.60798" lon="6.30964">
        <ele>733</ele>
        <time>2022-12-11T11:45:40Z</time>
      </trkpt>
      <trkpt lat="43.60797" lon="6.30965">
        <ele>733</ele>
        <time>2022-12-11T11:45:41Z</time>
      </trkpt>
      <trkpt lat="43.60796" lon="6.30965">
        <ele>733</ele>
        <time>2022-12-11T11:45:42Z</time>
      </trkpt>
      <trkpt lat="43.60795" lon="6.30965">
        <ele>733</ele>
        <time>2022-12-11T11:45:43Z</time>
      </trkpt>
      <trkpt lat="43.60795" lon="6.30965">
        <ele>733</ele>
        <time>2022-12-11T11:45:44Z</time>
      </trkpt>
      <trkpt lat="43.60794" lon="6.30966">
        <ele>733</ele>
        <time>2022-12-11T11:45:45Z</time>
      </trkpt>
      <trkpt lat="43.60793" lon="6.30966">
        <ele>733</ele>
        <time>2022-12-11T11:45:46Z</time>
      </trkpt>
      <trkpt lat="43.60792" lon="6.30966">
        <ele>733</ele>
        <time>2022-12-11T11:45:47Z</time>
      </trkpt>
      <trkpt lat="43.60792" lon="6.30966">
        <ele>733</ele>
        <time>2022-12-11T11:45:48Z</time>
      </trkpt>
      <trkpt lat="43.60791" lon="6.30966">
        <ele>733</ele>
        <time>2022-12-11T11:45:49Z</time>
      </trkpt>
      <trkpt lat="43.6079" lon="6.30966">
        <ele>733</ele>
        <time>2022-12-11T11:45:50Z</time>
      </trkpt>
      <trkpt lat="43.60789" lon="6.30966">
        <ele>732</ele>
        <time>2022-12-11T11:45:51Z</time>
      </trkpt>
      <trkpt lat="43.60789" lon="6.30966">
        <ele>732</ele>
        <time>2022-12-11T11:45:52Z</time>
      </trkpt>
      <trkpt lat="43.60788" lon="6.30967">
        <ele>732</ele>
        <time>2022-12-11T11:45:53Z</time>
      </trkpt>
      <trkpt lat="43.60787" lon="6.30967">
        <ele>732</ele>
        <time>2022-12-11T11:45:54Z</time>
      </trkpt>
      <trkpt lat="43.60787" lon="6.30967">
        <ele>732</ele>
        <time>2022-12-11T11:45:55Z</time>
      </trkpt>
      <trkpt lat="43.60787" lon="6.30968">
        <ele>732</ele>
        <time>2022-12-11T11:45:56Z</time>
      </trkpt>
      <trkpt lat="43.60786" lon="6.30968">
        <ele>732</ele>
        <time>2022-12-11T11:45:57Z</time>
      </trkpt>
      <trkpt lat="43.60785" lon="6.30968">
        <ele>732</ele>
        <time>2022-12-11T11:45:58Z</time>
      </trkpt>
      <trkpt lat="43.60784" lon="6.30969">
        <ele>732</ele>
        <time>2022-12-11T11:45:59Z</time>
      </trkpt>
      <trkpt lat="43.60784" lon="6.3097">
        <ele>732</ele>
        <time>2022-12-11T11:46:00Z</time>
      </trkpt>
      <trkpt lat="43.60783" lon="6.3097">
        <ele>732</ele>
        <time>2022-12-11T11:46:01Z</time>
      </trkpt>
      <trkpt lat="43.60782" lon="6.3097">
        <ele>732</ele>
        <time>2022-12-11T11:46:02Z</time>
      </trkpt>
      <trkpt lat="43.60782" lon="6.30971">
        <ele>732</ele>
        <time>2022-12-11T11:46:03Z</time>
      </trkpt>
      <trkpt lat="43.60781" lon="6.30971">
        <ele>732</ele>
        <time>2022-12-11T11:46:04Z</time>
      </trkpt>
      <trkpt lat="43.60781" lon="6.30972">
        <ele>732</ele>
        <time>2022-12-11T11:46:05Z</time>
      </trkpt>
      <trkpt lat="43.6078" lon="6.30973">
        <ele>731</ele>
        <time>2022-12-11T11:46:06Z</time>
      </trkpt>
      <trkpt lat="43.6078" lon="6.30974">
        <ele>731</ele>
        <time>2022-12-11T11:46:07Z</time>
      </trkpt>
      <trkpt lat="43.60779" lon="6.30975">
        <ele>731</ele>
        <time>2022-12-11T11:46:08Z</time>
      </trkpt>
      <trkpt lat="43.60779" lon="6.30976">
        <ele>731</ele>
        <time>2022-12-11T11:46:09Z</time>
      </trkpt>
      <trkpt lat="43.60779" lon="6.30977">
        <ele>731</ele>
        <time>2022-12-11T11:46:10Z</time>
      </trkpt>
      <trkpt lat="43.60779" lon="6.30978">
        <ele>731</ele>
        <time>2022-12-11T11:46:11Z</time>
      </trkpt>
      <trkpt lat="43.60778" lon="6.30978">
        <ele>731</ele>
        <time>2022-12-11T11:46:12Z</time>
      </trkpt>
      <trkpt lat="43.60779" lon="6.30978">
        <ele>731</ele>
        <time>2022-12-11T11:46:13Z</time>
      </trkpt>
      <trkpt lat="43.60779" lon="6.30977">
        <ele>731</ele>
        <time>2022-12-11T11:46:14Z</time>
      </trkpt>
      <trkpt lat="43.60779" lon="6.30976">
        <ele>731</ele>
        <time>2022-12-11T11:46:15Z</time>
      </trkpt>
      <trkpt lat="43.6078" lon="6.30976">
        <ele>731</ele>
        <time>2022-12-11T11:46:16Z</time>
      </trkpt>
      <trkpt lat="43.6078" lon="6.30976">
        <ele>731</ele>
        <time>2022-12-11T11:46:17Z</time>
      </trkpt>
      <trkpt lat="43.6078" lon="6.30976">
        <ele>731</ele>
        <time>2022-12-11T11:46:18Z</time>
      </trkpt>
      <trkpt lat="43.6078" lon="6.30976">
        <ele>730</ele>
        <time>2022-12-11T11:46:19Z</time>
      </trkpt>
      <trkpt lat="43.6078" lon="6.30976">
        <ele>730</ele>
        <time>2022-12-11T11:46:20Z</time>
      </trkpt>
      <trkpt lat="43.6078" lon="6.30976">
        <ele>730</ele>
        <time>2022-12-11T11:46:21Z</time>
      </trkpt>
      <trkpt lat="43.6078" lon="6.30976">
        <ele>730</ele>
        <time>2022-12-11T11:46:22Z</time>
      </trkpt>
      <trkpt lat="43.6078" lon="6.30976">
        <ele>730</ele>
        <time>2022-12-11T11:46:23Z</time>
      </trkpt>
      <trkpt lat="43.6078" lon="6.30976">
        <ele>730</ele>
        <time>2022-12-11T11:46:24Z</time>
      </trkpt>
      <trkpt lat="43.6078" lon="6.30976">
        <ele>730</ele>
        <time>2022-12-11T11:46:25Z</time>
      </trkpt>
      <trkpt lat="43.6078" lon="6.30976">
        <ele>730</ele>
        <time>2022-12-11T11:46:26Z</time>
      </trkpt>
      <trkpt lat="43.6078" lon="6.30976">
        <ele>730</ele>
        <time>2022-12-11T11:46:27Z</time>
      </trkpt>
      <trkpt lat="43.6078" lon="6.30976">
        <ele>730</ele>
        <time>2022-12-11T11:46:28Z</time>
      </trkpt>
      <trkpt lat="43.6078" lon="6.30976">
        <ele>730</ele>
        <time>2022-12-11T11:46:29Z</time>
      </trkpt>
      <trkpt lat="43.6078" lon="6.30976">
        <ele>729</ele>
        <time>2022-12-11T11:46:30Z</time>
      </trkpt>
      <trkpt lat="43.60777" lon="6.30981">
        <ele>729</ele>
        <time>2022-12-11T11:46:31Z</time>
      </trkpt>
      <trkpt lat="43.60776" lon="6.30981">
        <ele>729</ele>
        <time>2022-12-11T11:46:32Z</time>
      </trkpt>
      <trkpt lat="43.60776" lon="6.30982">
        <ele>729</ele>
        <time>2022-12-11T11:46:33Z</time>
      </trkpt>
      <trkpt lat="43.60776" lon="6.30982">
        <ele>729</ele>
        <time>2022-12-11T11:46:34Z</time>
      </trkpt>
      <trkpt lat="43.60776" lon="6.30983">
        <ele>729</ele>
        <time>2022-12-11T11:46:35Z</time>
      </trkpt>
      <trkpt lat="43.60776" lon="6.30984">
        <ele>729</ele>
        <time>2022-12-11T11:46:36Z</time>
      </trkpt>
      <trkpt lat="43.60776" lon="6.30984">
        <ele>728</ele>
        <time>2022-12-11T11:46:37Z</time>
      </trkpt>
      <trkpt lat="43.60776" lon="6.30985">
        <ele>728</ele>
        <time>2022-12-11T11:46:38Z</time>
      </trkpt>
      <trkpt lat="43.60777" lon="6.30986">
        <ele>728</ele>
        <time>2022-12-11T11:46:39Z</time>
      </trkpt>
      <trkpt lat="43.60777" lon="6.30986">
        <ele>728</ele>
        <time>2022-12-11T11:46:40Z</time>
      </trkpt>
      <trkpt lat="43.60777" lon="6.30987">
        <ele>728</ele>
        <time>2022-12-11T11:46:41Z</time>
      </trkpt>
      <trkpt lat="43.60777" lon="6.30987">
        <ele>728</ele>
        <time>2022-12-11T11:46:42Z</time>
      </trkpt>
      <trkpt lat="43.60777" lon="6.30987">
        <ele>728</ele>
        <time>2022-12-11T11:46:43Z</time>
      </trkpt>
      <trkpt lat="43.60777" lon="6.30987">
        <ele>728</ele>
        <time>2022-12-11T11:46:44Z</time>
      </trkpt>
      <trkpt lat="43.60777" lon="6.30987">
        <ele>727</ele>
        <time>2022-12-11T11:46:45Z</time>
      </trkpt>
      <trkpt lat="43.60777" lon="6.30987">
        <ele>727</ele>
        <time>2022-12-11T11:46:46Z</time>
      </trkpt>
      <trkpt lat="43.60777" lon="6.30987">
        <ele>727</ele>
        <time>2022-12-11T11:46:47Z</time>
      </trkpt>
      <trkpt lat="43.60777" lon="6.30987">
        <ele>727</ele>
        <time>2022-12-11T11:46:48Z</time>
      </trkpt>
      <trkpt lat="43.60777" lon="6.30987">
        <ele>727</ele>
        <time>2022-12-11T11:46:49Z</time>
      </trkpt>
      <trkpt lat="43.60777" lon="6.30987">
        <ele>727</ele>
        <time>2022-12-11T11:46:50Z</time>
      </trkpt>
      <trkpt lat="43.60777" lon="6.30987">
        <ele>727</ele>
        <time>2022-12-11T11:46:51Z</time>
      </trkpt>
      <trkpt lat="43.60777" lon="6.30987">
        <ele>727</ele>
        <time>2022-12-11T11:46:52Z</time>
      </trkpt>
      <trkpt lat="43.60777" lon="6.30987">
        <ele>727</ele>
        <time>2022-12-11T11:46:53Z</time>
      </trkpt>
      <trkpt lat="43.60777" lon="6.30987">
        <ele>727</ele>
        <time>2022-12-11T11:46:54Z</time>
      </trkpt>
      <trkpt lat="43.60777" lon="6.30991">
        <ele>727</ele>
        <time>2022-12-11T11:46:55Z</time>
      </trkpt>
      <trkpt lat="43.60777" lon="6.30992">
        <ele>727</ele>
        <time>2022-12-11T11:46:56Z</time>
      </trkpt>
      <trkpt lat="43.60778" lon="6.30993">
        <ele>728</ele>
        <time>2022-12-11T11:46:57Z</time>
      </trkpt>
      <trkpt lat="43.60778" lon="6.30994">
        <ele>728</ele>
        <time>2022-12-11T11:46:58Z</time>
      </trkpt>
      <trkpt lat="43.60778" lon="6.30994">
        <ele>728</ele>
        <time>2022-12-11T11:46:59Z</time>
      </trkpt>
      <trkpt lat="43.60778" lon="6.30995">
        <ele>728</ele>
        <time>2022-12-11T11:47:00Z</time>
      </trkpt>
      <trkpt lat="43.60778" lon="6.30995">
        <ele>728</ele>
        <time>2022-12-11T11:47:01Z</time>
      </trkpt>
      <trkpt lat="43.60778" lon="6.30995">
        <ele>728</ele>
        <time>2022-12-11T11:47:02Z</time>
      </trkpt>
      <trkpt lat="43.60778" lon="6.30995">
        <ele>728</ele>
        <time>2022-12-11T11:47:03Z</time>
      </trkpt>
      <trkpt lat="43.60778" lon="6.30996">
        <ele>728</ele>
        <time>2022-12-11T11:47:04Z</time>
      </trkpt>
      <trkpt lat="43.60779" lon="6.30996">
        <ele>728</ele>
        <time>2022-12-11T11:47:05Z</time>
      </trkpt>
      <trkpt lat="43.60779" lon="6.30997">
        <ele>728</ele>
        <time>2022-12-11T11:47:06Z</time>
      </trkpt>
      <trkpt lat="43.60779" lon="6.30998">
        <ele>728</ele>
        <time>2022-12-11T11:47:07Z</time>
      </trkpt>
      <trkpt lat="43.60779" lon="6.30999">
        <ele>728</ele>
        <time>2022-12-11T11:47:08Z</time>
      </trkpt>
      <trkpt lat="43.60779" lon="6.31">
        <ele>728</ele>
        <time>2022-12-11T11:47:09Z</time>
      </trkpt>
      <trkpt lat="43.60779" lon="6.31001">
        <ele>728</ele>
        <time>2022-12-11T11:47:10Z</time>
      </trkpt>
      <trkpt lat="43.60778" lon="6.31002">
        <ele>728</ele>
        <time>2022-12-11T11:47:11Z</time>
      </trkpt>
      <trkpt lat="43.60778" lon="6.31003">
        <ele>728</ele>
        <time>2022-12-11T11:47:12Z</time>
      </trkpt>
      <trkpt lat="43.60778" lon="6.31005">
        <ele>728</ele>
        <time>2022-12-11T11:47:13Z</time>
      </trkpt>
      <trkpt lat="43.60777" lon="6.31007">
        <ele>728</ele>
        <time>2022-12-11T11:47:14Z</time>
      </trkpt>
      <trkpt lat="43.60777" lon="6.31008">
        <ele>728</ele>
        <time>2022-12-11T11:47:15Z</time>
      </trkpt>
      <trkpt lat="43.60777" lon="6.31009">
        <ele>728</ele>
        <time>2022-12-11T11:47:16Z</time>
      </trkpt>
      <trkpt lat="43.60776" lon="6.3101">
        <ele>728</ele>
        <time>2022-12-11T11:47:17Z</time>
      </trkpt>
      <trkpt lat="43.60776" lon="6.31011">
        <ele>728</ele>
        <time>2022-12-11T11:47:18Z</time>
      </trkpt>
      <trkpt lat="43.60776" lon="6.31011">
        <ele>728</ele>
        <time>2022-12-11T11:47:19Z</time>
      </trkpt>
      <trkpt lat="43.60776" lon="6.31012">
        <ele>728</ele>
        <time>2022-12-11T11:47:20Z</time>
      </trkpt>
      <trkpt lat="43.60776" lon="6.31012">
        <ele>728</ele>
        <time>2022-12-11T11:47:21Z</time>
      </trkpt>
      <trkpt lat="43.60775" lon="6.31013">
        <ele>728</ele>
        <time>2022-12-11T11:47:22Z</time>
      </trkpt>
      <trkpt lat="43.60775" lon="6.31014">
        <ele>728</ele>
        <time>2022-12-11T11:47:23Z</time>
      </trkpt>
      <trkpt lat="43.60774" lon="6.31015">
        <ele>728</ele>
        <time>2022-12-11T11:47:24Z</time>
      </trkpt>
      <trkpt lat="43.60773" lon="6.31016">
        <ele>729</ele>
        <time>2022-12-11T11:47:25Z</time>
      </trkpt>
      <trkpt lat="43.60772" lon="6.31018">
        <ele>729</ele>
        <time>2022-12-11T11:47:26Z</time>
      </trkpt>
      <trkpt lat="43.60771" lon="6.31019">
        <ele>729</ele>
        <time>2022-12-11T11:47:27Z</time>
      </trkpt>
      <trkpt lat="43.60771" lon="6.3102">
        <ele>729</ele>
        <time>2022-12-11T11:47:28Z</time>
      </trkpt>
      <trkpt lat="43.6077" lon="6.31021">
        <ele>729</ele>
        <time>2022-12-11T11:47:29Z</time>
      </trkpt>
      <trkpt lat="43.60769" lon="6.31021">
        <ele>729</ele>
        <time>2022-12-11T11:47:30Z</time>
      </trkpt>
      <trkpt lat="43.60769" lon="6.31022">
        <ele>729</ele>
        <time>2022-12-11T11:47:31Z</time>
      </trkpt>
      <trkpt lat="43.60768" lon="6.31023">
        <ele>730</ele>
        <time>2022-12-11T11:47:32Z</time>
      </trkpt>
      <trkpt lat="43.60767" lon="6.31024">
        <ele>730</ele>
        <time>2022-12-11T11:47:33Z</time>
      </trkpt>
      <trkpt lat="43.60767" lon="6.31024">
        <ele>730</ele>
        <time>2022-12-11T11:47:34Z</time>
      </trkpt>
      <trkpt lat="43.60766" lon="6.31025">
        <ele>730</ele>
        <time>2022-12-11T11:47:35Z</time>
      </trkpt>
      <trkpt lat="43.60766" lon="6.31026">
        <ele>730</ele>
        <time>2022-12-11T11:47:36Z</time>
      </trkpt>
      <trkpt lat="43.60765" lon="6.31027">
        <ele>730</ele>
        <time>2022-12-11T11:47:37Z</time>
      </trkpt>
      <trkpt lat="43.60763" lon="6.31029">
        <ele>730</ele>
        <time>2022-12-11T11:47:38Z</time>
      </trkpt>
      <trkpt lat="43.60762" lon="6.31031">
        <ele>730</ele>
        <time>2022-12-11T11:47:39Z</time>
      </trkpt>
      <trkpt lat="43.6076" lon="6.31032">
        <ele>731</ele>
        <time>2022-12-11T11:47:40Z</time>
      </trkpt>
      <trkpt lat="43.60759" lon="6.31034">
        <ele>731</ele>
        <time>2022-12-11T11:47:41Z</time>
      </trkpt>
      <trkpt lat="43.60758" lon="6.31035">
        <ele>731</ele>
        <time>2022-12-11T11:47:42Z</time>
      </trkpt>
      <trkpt lat="43.60758" lon="6.31036">
        <ele>731</ele>
        <time>2022-12-11T11:47:43Z</time>
      </trkpt>
      <trkpt lat="43.60757" lon="6.31037">
        <ele>731</ele>
        <time>2022-12-11T11:47:44Z</time>
      </trkpt>
      <trkpt lat="43.60756" lon="6.31038">
        <ele>731</ele>
        <time>2022-12-11T11:47:45Z</time>
      </trkpt>
      <trkpt lat="43.60756" lon="6.31039">
        <ele>731</ele>
        <time>2022-12-11T11:47:46Z</time>
      </trkpt>
      <trkpt lat="43.60755" lon="6.31039">
        <ele>731</ele>
        <time>2022-12-11T11:47:47Z</time>
      </trkpt>
      <trkpt lat="43.60754" lon="6.31041">
        <ele>730</ele>
        <time>2022-12-11T11:47:48Z</time>
      </trkpt>
      <trkpt lat="43.60753" lon="6.31042">
        <ele>730</ele>
        <time>2022-12-11T11:47:49Z</time>
      </trkpt>
      <trkpt lat="43.60751" lon="6.31043">
        <ele>730</ele>
        <time>2022-12-11T11:47:50Z</time>
      </trkpt>
      <trkpt lat="43.6075" lon="6.31044">
        <ele>730</ele>
        <time>2022-12-11T11:47:51Z</time>
      </trkpt>
      <trkpt lat="43.60749" lon="6.31045">
        <ele>730</ele>
        <time>2022-12-11T11:47:52Z</time>
      </trkpt>
      <trkpt lat="43.60748" lon="6.31045">
        <ele>730</ele>
        <time>2022-12-11T11:47:53Z</time>
      </trkpt>
      <trkpt lat="43.60748" lon="6.31046">
        <ele>730</ele>
        <time>2022-12-11T11:47:54Z</time>
      </trkpt>
      <trkpt lat="43.60747" lon="6.31046">
        <ele>730</ele>
        <time>2022-12-11T11:47:55Z</time>
      </trkpt>
      <trkpt lat="43.60746" lon="6.31047">
        <ele>730</ele>
        <time>2022-12-11T11:47:56Z</time>
      </trkpt>
      <trkpt lat="43.60745" lon="6.31048">
        <ele>730</ele>
        <time>2022-12-11T11:47:57Z</time>
      </trkpt>
      <trkpt lat="43.60743" lon="6.31049">
        <ele>730</ele>
        <time>2022-12-11T11:47:58Z</time>
      </trkpt>
      <trkpt lat="43.60742" lon="6.31049">
        <ele>730</ele>
        <time>2022-12-11T11:47:59Z</time>
      </trkpt>
      <trkpt lat="43.60741" lon="6.3105">
        <ele>730</ele>
        <time>2022-12-11T11:48:00Z</time>
      </trkpt>
      <trkpt lat="43.6074" lon="6.3105">
        <ele>729</ele>
        <time>2022-12-11T11:48:01Z</time>
      </trkpt>
      <trkpt lat="43.60739" lon="6.31051">
        <ele>729</ele>
        <time>2022-12-11T11:48:02Z</time>
      </trkpt>
      <trkpt lat="43.60738" lon="6.31052">
        <ele>729</ele>
        <time>2022-12-11T11:48:03Z</time>
      </trkpt>
      <trkpt lat="43.60737" lon="6.31053">
        <ele>729</ele>
        <time>2022-12-11T11:48:04Z</time>
      </trkpt>
      <trkpt lat="43.60736" lon="6.31054">
        <ele>729</ele>
        <time>2022-12-11T11:48:05Z</time>
      </trkpt>
      <trkpt lat="43.60736" lon="6.31055">
        <ele>729</ele>
        <time>2022-12-11T11:48:06Z</time>
      </trkpt>
      <trkpt lat="43.60735" lon="6.31056">
        <ele>729</ele>
        <time>2022-12-11T11:48:07Z</time>
      </trkpt>
      <trkpt lat="43.60734" lon="6.31057">
        <ele>729</ele>
        <time>2022-12-11T11:48:08Z</time>
      </trkpt>
      <trkpt lat="43.60734" lon="6.31058">
        <ele>729</ele>
        <time>2022-12-11T11:48:09Z</time>
      </trkpt>
      <trkpt lat="43.60733" lon="6.3106">
        <ele>729</ele>
        <time>2022-12-11T11:48:10Z</time>
      </trkpt>
      <trkpt lat="43.60733" lon="6.31061">
        <ele>729</ele>
        <time>2022-12-11T11:48:11Z</time>
      </trkpt>
      <trkpt lat="43.60732" lon="6.31062">
        <ele>729</ele>
        <time>2022-12-11T11:48:12Z</time>
      </trkpt>
      <trkpt lat="43.60732" lon="6.31062">
        <ele>729</ele>
        <time>2022-12-11T11:48:13Z</time>
      </trkpt>
      <trkpt lat="43.60731" lon="6.31063">
        <ele>729</ele>
        <time>2022-12-11T11:48:14Z</time>
      </trkpt>
      <trkpt lat="43.60731" lon="6.31064">
        <ele>729</ele>
        <time>2022-12-11T11:48:15Z</time>
      </trkpt>
      <trkpt lat="43.60731" lon="6.31065">
        <ele>729</ele>
        <time>2022-12-11T11:48:16Z</time>
      </trkpt>
      <trkpt lat="43.6073" lon="6.31066">
        <ele>729</ele>
        <time>2022-12-11T11:48:17Z</time>
      </trkpt>
      <trkpt lat="43.6073" lon="6.31066">
        <ele>729</ele>
        <time>2022-12-11T11:48:18Z</time>
      </trkpt>
      <trkpt lat="43.60729" lon="6.31067">
        <ele>729</ele>
        <time>2022-12-11T11:48:19Z</time>
      </trkpt>
      <trkpt lat="43.60728" lon="6.31068">
        <ele>729</ele>
        <time>2022-12-11T11:48:20Z</time>
      </trkpt>
      <trkpt lat="43.60728" lon="6.3107">
        <ele>729</ele>
        <time>2022-12-11T11:48:21Z</time>
      </trkpt>
      <trkpt lat="43.60727" lon="6.31071">
        <ele>729</ele>
        <time>2022-12-11T11:48:22Z</time>
      </trkpt>
      <trkpt lat="43.60726" lon="6.31072">
        <ele>729</ele>
        <time>2022-12-11T11:48:23Z</time>
      </trkpt>
      <trkpt lat="43.60726" lon="6.31073">
        <ele>729</ele>
        <time>2022-12-11T11:48:24Z</time>
      </trkpt>
      <trkpt lat="43.60725" lon="6.31074">
        <ele>728</ele>
        <time>2022-12-11T11:48:25Z</time>
      </trkpt>
      <trkpt lat="43.60724" lon="6.31076">
        <ele>728</ele>
        <time>2022-12-11T11:48:26Z</time>
      </trkpt>
      <trkpt lat="43.60724" lon="6.31077">
        <ele>728</ele>
        <time>2022-12-11T11:48:27Z</time>
      </trkpt>
      <trkpt lat="43.60723" lon="6.31078">
        <ele>728</ele>
        <time>2022-12-11T11:48:28Z</time>
      </trkpt>
      <trkpt lat="43.60722" lon="6.31079">
        <ele>728</ele>
        <time>2022-12-11T11:48:29Z</time>
      </trkpt>
      <trkpt lat="43.60721" lon="6.3108">
        <ele>728</ele>
        <time>2022-12-11T11:48:30Z</time>
      </trkpt>
      <trkpt lat="43.60721" lon="6.31081">
        <ele>728</ele>
        <time>2022-12-11T11:48:31Z</time>
      </trkpt>
      <trkpt lat="43.6072" lon="6.31082">
        <ele>727</ele>
        <time>2022-12-11T11:48:32Z</time>
      </trkpt>
      <trkpt lat="43.6072" lon="6.31084">
        <ele>727</ele>
        <time>2022-12-11T11:48:33Z</time>
      </trkpt>
      <trkpt lat="43.60719" lon="6.31085">
        <ele>727</ele>
        <time>2022-12-11T11:48:34Z</time>
      </trkpt>
      <trkpt lat="43.60719" lon="6.31087">
        <ele>727</ele>
        <time>2022-12-11T11:48:35Z</time>
      </trkpt>
      <trkpt lat="43.60718" lon="6.31088">
        <ele>727</ele>
        <time>2022-12-11T11:48:36Z</time>
      </trkpt>
      <trkpt lat="43.60718" lon="6.31089">
        <ele>727</ele>
        <time>2022-12-11T11:48:37Z</time>
      </trkpt>
      <trkpt lat="43.60717" lon="6.31089">
        <ele>727</ele>
        <time>2022-12-11T11:48:38Z</time>
      </trkpt>
      <trkpt lat="43.60716" lon="6.3109">
        <ele>727</ele>
        <time>2022-12-11T11:48:39Z</time>
      </trkpt>
      <trkpt lat="43.60715" lon="6.3109">
        <ele>727</ele>
        <time>2022-12-11T11:48:40Z</time>
      </trkpt>
      <trkpt lat="43.60714" lon="6.3109">
        <ele>727</ele>
        <time>2022-12-11T11:48:41Z</time>
      </trkpt>
      <trkpt lat="43.60714" lon="6.3109">
        <ele>727</ele>
        <time>2022-12-11T11:48:42Z</time>
      </trkpt>
      <trkpt lat="43.60713" lon="6.31089">
        <ele>727</ele>
        <time>2022-12-11T11:48:43Z</time>
      </trkpt>
      <trkpt lat="43.60713" lon="6.31089">
        <ele>727</ele>
        <time>2022-12-11T11:48:44Z</time>
      </trkpt>
      <trkpt lat="43.60712" lon="6.31089">
        <ele>727</ele>
        <time>2022-12-11T11:48:45Z</time>
      </trkpt>
      <trkpt lat="43.60712" lon="6.31089">
        <ele>727</ele>
        <time>2022-12-11T11:48:46Z</time>
      </trkpt>
      <trkpt lat="43.60711" lon="6.31089">
        <ele>727</ele>
        <time>2022-12-11T11:48:47Z</time>
      </trkpt>
      <trkpt lat="43.6071" lon="6.31089">
        <ele>728</ele>
        <time>2022-12-11T11:48:48Z</time>
      </trkpt>
      <trkpt lat="43.6071" lon="6.31089">
        <ele>728</ele>
        <time>2022-12-11T11:48:49Z</time>
      </trkpt>
      <trkpt lat="43.60709" lon="6.31089">
        <ele>728</ele>
        <time>2022-12-11T11:48:50Z</time>
      </trkpt>
      <trkpt lat="43.60709" lon="6.31089">
        <ele>728</ele>
        <time>2022-12-11T11:48:51Z</time>
      </trkpt>
      <trkpt lat="43.6071" lon="6.3109">
        <ele>728</ele>
        <time>2022-12-11T11:48:52Z</time>
      </trkpt>
      <trkpt lat="43.6071" lon="6.3109">
        <ele>728</ele>
        <time>2022-12-11T11:48:53Z</time>
      </trkpt>
      <trkpt lat="43.6071" lon="6.31091">
        <ele>728</ele>
        <time>2022-12-11T11:48:54Z</time>
      </trkpt>
      <trkpt lat="43.60711" lon="6.31092">
        <ele>728</ele>
        <time>2022-12-11T11:48:55Z</time>
      </trkpt>
      <trkpt lat="43.60711" lon="6.31092">
        <ele>728</ele>
        <time>2022-12-11T11:48:56Z</time>
      </trkpt>
      <trkpt lat="43.60711" lon="6.31092">
        <ele>728</ele>
        <time>2022-12-11T11:48:57Z</time>
      </trkpt>
      <trkpt lat="43.60711" lon="6.31092">
        <ele>728</ele>
        <time>2022-12-11T11:48:58Z</time>
      </trkpt>
      <trkpt lat="43.60711" lon="6.31093">
        <ele>729</ele>
        <time>2022-12-11T11:48:59Z</time>
      </trkpt>
      <trkpt lat="43.60712" lon="6.31094">
        <ele>729</ele>
        <time>2022-12-11T11:49:00Z</time>
      </trkpt>
      <trkpt lat="43.60712" lon="6.31095">
        <ele>729</ele>
        <time>2022-12-11T11:49:01Z</time>
      </trkpt>
      <trkpt lat="43.60711" lon="6.31095">
        <ele>729</ele>
        <time>2022-12-11T11:49:02Z</time>
      </trkpt>
      <trkpt lat="43.60711" lon="6.31096">
        <ele>729</ele>
        <time>2022-12-11T11:49:03Z</time>
      </trkpt>
      <trkpt lat="43.60711" lon="6.31096">
        <ele>729</ele>
        <time>2022-12-11T11:49:04Z</time>
      </trkpt>
      <trkpt lat="43.60711" lon="6.31096">
        <ele>729</ele>
        <time>2022-12-11T11:49:05Z</time>
      </trkpt>
      <trkpt lat="43.60711" lon="6.31096">
        <ele>729</ele>
        <time>2022-12-11T11:49:06Z</time>
      </trkpt>
      <trkpt lat="43.6071" lon="6.31096">
        <ele>728</ele>
        <time>2022-12-11T11:49:07Z</time>
      </trkpt>
      <trkpt lat="43.6071" lon="6.31096">
        <ele>728</ele>
        <time>2022-12-11T11:49:08Z</time>
      </trkpt>
      <trkpt lat="43.6071" lon="6.31096">
        <ele>728</ele>
        <time>2022-12-11T11:49:09Z</time>
      </trkpt>
      <trkpt lat="43.6071" lon="6.31096">
        <ele>728</ele>
        <time>2022-12-11T11:49:10Z</time>
      </trkpt>
      <trkpt lat="43.60709" lon="6.31096">
        <ele>728</ele>
        <time>2022-12-11T11:49:11Z</time>
      </trkpt>
      <trkpt lat="43.60709" lon="6.31096">
        <ele>728</ele>
        <time>2022-12-11T11:49:12Z</time>
      </trkpt>
      <trkpt lat="43.60708" lon="6.31096">
        <ele>728</ele>
        <time>2022-12-11T11:49:13Z</time>
      </trkpt>
      <trkpt lat="43.60708" lon="6.31095">
        <ele>728</ele>
        <time>2022-12-11T11:49:14Z</time>
      </trkpt>
      <trkpt lat="43.60707" lon="6.31095">
        <ele>728</ele>
        <time>2022-12-11T11:49:15Z</time>
      </trkpt>
      <trkpt lat="43.60706" lon="6.31095">
        <ele>725</ele>
        <time>2022-12-11T11:49:16Z</time>
      </trkpt>
      <trkpt lat="43.60706" lon="6.31094">
        <ele>725</ele>
        <time>2022-12-11T11:49:17Z</time>
      </trkpt>
      <trkpt lat="43.60705" lon="6.31093">
        <ele>725</ele>
        <time>2022-12-11T11:49:18Z</time>
      </trkpt>
      <trkpt lat="43.60704" lon="6.31093">
        <ele>725</ele>
        <time>2022-12-11T11:49:19Z</time>
      </trkpt>
      <trkpt lat="43.60704" lon="6.31092">
        <ele>725</ele>
        <time>2022-12-11T11:49:20Z</time>
      </trkpt>
      <trkpt lat="43.60703" lon="6.31092">
        <ele>725</ele>
        <time>2022-12-11T11:49:21Z</time>
      </trkpt>
      <trkpt lat="43.60702" lon="6.31091">
        <ele>725</ele>
        <time>2022-12-11T11:49:22Z</time>
      </trkpt>
      <trkpt lat="43.60702" lon="6.31091">
        <ele>724</ele>
        <time>2022-12-11T11:49:23Z</time>
      </trkpt>
      <trkpt lat="43.60701" lon="6.3109">
        <ele>724</ele>
        <time>2022-12-11T11:49:24Z</time>
      </trkpt>
      <trkpt lat="43.607" lon="6.31089">
        <ele>724</ele>
        <time>2022-12-11T11:49:25Z</time>
      </trkpt>
      <trkpt lat="43.60699" lon="6.31088">
        <ele>724</ele>
        <time>2022-12-11T11:49:26Z</time>
      </trkpt>
      <trkpt lat="43.60698" lon="6.31087">
        <ele>724</ele>
        <time>2022-12-11T11:49:27Z</time>
      </trkpt>
      <trkpt lat="43.60697" lon="6.31086">
        <ele>724</ele>
        <time>2022-12-11T11:49:28Z</time>
      </trkpt>
      <trkpt lat="43.60696" lon="6.31085">
        <ele>724</ele>
        <time>2022-12-11T11:49:29Z</time>
      </trkpt>
      <trkpt lat="43.60695" lon="6.31084">
        <ele>725</ele>
        <time>2022-12-11T11:49:30Z</time>
      </trkpt>
      <trkpt lat="43.60695" lon="6.31083">
        <ele>725</ele>
        <time>2022-12-11T11:49:31Z</time>
      </trkpt>
      <trkpt lat="43.60694" lon="6.31082">
        <ele>725</ele>
        <time>2022-12-11T11:49:32Z</time>
      </trkpt>
      <trkpt lat="43.60693" lon="6.3108">
        <ele>725</ele>
        <time>2022-12-11T11:49:33Z</time>
      </trkpt>
      <trkpt lat="43.60692" lon="6.31079">
        <ele>725</ele>
        <time>2022-12-11T11:49:34Z</time>
      </trkpt>
      <trkpt lat="43.60691" lon="6.31079">
        <ele>725</ele>
        <time>2022-12-11T11:49:35Z</time>
      </trkpt>
      <trkpt lat="43.6069" lon="6.31078">
        <ele>725</ele>
        <time>2022-12-11T11:49:36Z</time>
      </trkpt>
      <trkpt lat="43.6069" lon="6.31077">
        <ele>725</ele>
        <time>2022-12-11T11:49:37Z</time>
      </trkpt>
      <trkpt lat="43.60689" lon="6.31076">
        <ele>725</ele>
        <time>2022-12-11T11:49:38Z</time>
      </trkpt>
      <trkpt lat="43.60688" lon="6.31076">
        <ele>725</ele>
        <time>2022-12-11T11:49:39Z</time>
      </trkpt>
      <trkpt lat="43.60687" lon="6.31075">
        <ele>725</ele>
        <time>2022-12-11T11:49:40Z</time>
      </trkpt>
      <trkpt lat="43.60685" lon="6.31074">
        <ele>725</ele>
        <time>2022-12-11T11:49:41Z</time>
      </trkpt>
      <trkpt lat="43.60684" lon="6.31074">
        <ele>725</ele>
        <time>2022-12-11T11:49:42Z</time>
      </trkpt>
      <trkpt lat="43.60683" lon="6.31074">
        <ele>724</ele>
        <time>2022-12-11T11:49:43Z</time>
      </trkpt>
      <trkpt lat="43.60682" lon="6.31073">
        <ele>724</ele>
        <time>2022-12-11T11:49:44Z</time>
      </trkpt>
      <trkpt lat="43.60681" lon="6.31072">
        <ele>724</ele>
        <time>2022-12-11T11:49:45Z</time>
      </trkpt>
      <trkpt lat="43.60681" lon="6.31072">
        <ele>724</ele>
        <time>2022-12-11T11:49:46Z</time>
      </trkpt>
      <trkpt lat="43.6068" lon="6.31071">
        <ele>724</ele>
        <time>2022-12-11T11:49:47Z</time>
      </trkpt>
      <trkpt lat="43.60679" lon="6.3107">
        <ele>724</ele>
        <time>2022-12-11T11:49:48Z</time>
      </trkpt>
      <trkpt lat="43.60679" lon="6.31069">
        <ele>723</ele>
        <time>2022-12-11T11:49:49Z</time>
      </trkpt>
      <trkpt lat="43.60679" lon="6.31068">
        <ele>723</ele>
        <time>2022-12-11T11:49:50Z</time>
      </trkpt>
      <trkpt lat="43.60679" lon="6.31067">
        <ele>723</ele>
        <time>2022-12-11T11:49:51Z</time>
      </trkpt>
      <trkpt lat="43.60679" lon="6.31065">
        <ele>723</ele>
        <time>2022-12-11T11:49:52Z</time>
      </trkpt>
      <trkpt lat="43.60678" lon="6.31064">
        <ele>722</ele>
        <time>2022-12-11T11:49:53Z</time>
      </trkpt>
      <trkpt lat="43.60678" lon="6.31064">
        <ele>722</ele>
        <time>2022-12-11T11:49:54Z</time>
      </trkpt>
      <trkpt lat="43.60677" lon="6.31063">
        <ele>722</ele>
        <time>2022-12-11T11:49:55Z</time>
      </trkpt>
      <trkpt lat="43.60676" lon="6.31062">
        <ele>722</ele>
        <time>2022-12-11T11:49:56Z</time>
      </trkpt>
      <trkpt lat="43.60676" lon="6.31061">
        <ele>722</ele>
        <time>2022-12-11T11:49:57Z</time>
      </trkpt>
      <trkpt lat="43.60676" lon="6.3106">
        <ele>722</ele>
        <time>2022-12-11T11:49:58Z</time>
      </trkpt>
      <trkpt lat="43.60675" lon="6.31058">
        <ele>722</ele>
        <time>2022-12-11T11:49:59Z</time>
      </trkpt>
      <trkpt lat="43.60675" lon="6.31058">
        <ele>722</ele>
        <time>2022-12-11T11:50:00Z</time>
      </trkpt>
      <trkpt lat="43.60674" lon="6.31057">
        <ele>722</ele>
        <time>2022-12-11T11:50:01Z</time>
      </trkpt>
      <trkpt lat="43.60674" lon="6.31057">
        <ele>721</ele>
        <time>2022-12-11T11:50:02Z</time>
      </trkpt>
      <trkpt lat="43.60673" lon="6.31056">
        <ele>721</ele>
        <time>2022-12-11T11:50:03Z</time>
      </trkpt>
      <trkpt lat="43.60672" lon="6.31056">
        <ele>721</ele>
        <time>2022-12-11T11:50:04Z</time>
      </trkpt>
      <trkpt lat="43.60672" lon="6.31055">
        <ele>721</ele>
        <time>2022-12-11T11:50:05Z</time>
      </trkpt>
      <trkpt lat="43.60671" lon="6.31055">
        <ele>721</ele>
        <time>2022-12-11T11:50:06Z</time>
      </trkpt>
      <trkpt lat="43.6067" lon="6.31055">
        <ele>721</ele>
        <time>2022-12-11T11:50:07Z</time>
      </trkpt>
      <trkpt lat="43.60669" lon="6.31054">
        <ele>721</ele>
        <time>2022-12-11T11:50:08Z</time>
      </trkpt>
      <trkpt lat="43.60668" lon="6.31054">
        <ele>721</ele>
        <time>2022-12-11T11:50:09Z</time>
      </trkpt>
      <trkpt lat="43.60667" lon="6.31054">
        <ele>721</ele>
        <time>2022-12-11T11:50:10Z</time>
      </trkpt>
      <trkpt lat="43.60667" lon="6.31053">
        <ele>722</ele>
        <time>2022-12-11T11:50:11Z</time>
      </trkpt>
      <trkpt lat="43.60666" lon="6.31052">
        <ele>722</ele>
        <time>2022-12-11T11:50:12Z</time>
      </trkpt>
      <trkpt lat="43.60666" lon="6.31049">
        <ele>722</ele>
        <time>2022-12-11T11:50:13Z</time>
      </trkpt>
      <trkpt lat="43.60665" lon="6.31048">
        <ele>722</ele>
        <time>2022-12-11T11:50:14Z</time>
      </trkpt>
      <trkpt lat="43.60664" lon="6.31046">
        <ele>722</ele>
        <time>2022-12-11T11:50:15Z</time>
      </trkpt>
      <trkpt lat="43.60663" lon="6.31045">
        <ele>723</ele>
        <time>2022-12-11T11:50:16Z</time>
      </trkpt>
      <trkpt lat="43.60663" lon="6.31044">
        <ele>723</ele>
        <time>2022-12-11T11:50:17Z</time>
      </trkpt>
      <trkpt lat="43.60662" lon="6.31043">
        <ele>723</ele>
        <time>2022-12-11T11:50:18Z</time>
      </trkpt>
      <trkpt lat="43.60661" lon="6.31042">
        <ele>723</ele>
        <time>2022-12-11T11:50:19Z</time>
      </trkpt>
      <trkpt lat="43.60661" lon="6.31041">
        <ele>723</ele>
        <time>2022-12-11T11:50:20Z</time>
      </trkpt>
      <trkpt lat="43.6066" lon="6.3104">
        <ele>723</ele>
        <time>2022-12-11T11:50:21Z</time>
      </trkpt>
      <trkpt lat="43.6066" lon="6.31038">
        <ele>723</ele>
        <time>2022-12-11T11:50:22Z</time>
      </trkpt>
      <trkpt lat="43.6066" lon="6.31037">
        <ele>723</ele>
        <time>2022-12-11T11:50:23Z</time>
      </trkpt>
      <trkpt lat="43.60659" lon="6.31036">
        <ele>722</ele>
        <time>2022-12-11T11:50:24Z</time>
      </trkpt>
      <trkpt lat="43.60659" lon="6.31035">
        <ele>722</ele>
        <time>2022-12-11T11:50:25Z</time>
      </trkpt>
      <trkpt lat="43.60658" lon="6.31034">
        <ele>722</ele>
        <time>2022-12-11T11:50:26Z</time>
      </trkpt>
      <trkpt lat="43.60658" lon="6.31032">
        <ele>722</ele>
        <time>2022-12-11T11:50:27Z</time>
      </trkpt>
      <trkpt lat="43.60657" lon="6.31031">
        <ele>722</ele>
        <time>2022-12-11T11:50:28Z</time>
      </trkpt>
      <trkpt lat="43.60657" lon="6.31031">
        <ele>722</ele>
        <time>2022-12-11T11:50:29Z</time>
      </trkpt>
      <trkpt lat="43.60656" lon="6.3103">
        <ele>722</ele>
        <time>2022-12-11T11:50:30Z</time>
      </trkpt>
      <trkpt lat="43.60656" lon="6.31029">
        <ele>722</ele>
        <time>2022-12-11T11:50:31Z</time>
      </trkpt>
      <trkpt lat="43.60656" lon="6.31028">
        <ele>722</ele>
        <time>2022-12-11T11:50:32Z</time>
      </trkpt>
      <trkpt lat="43.60655" lon="6.31027">
        <ele>722</ele>
        <time>2022-12-11T11:50:33Z</time>
      </trkpt>
      <trkpt lat="43.60655" lon="6.31027">
        <ele>722</ele>
        <time>2022-12-11T11:50:34Z</time>
      </trkpt>
      <trkpt lat="43.60654" lon="6.31026">
        <ele>722</ele>
        <time>2022-12-11T11:50:35Z</time>
      </trkpt>
      <trkpt lat="43.60654" lon="6.31026">
        <ele>722</ele>
        <time>2022-12-11T11:50:36Z</time>
      </trkpt>
      <trkpt lat="43.60653" lon="6.31025">
        <ele>722</ele>
        <time>2022-12-11T11:50:37Z</time>
      </trkpt>
      <trkpt lat="43.60652" lon="6.31025">
        <ele>722</ele>
        <time>2022-12-11T11:50:38Z</time>
      </trkpt>
      <trkpt lat="43.60652" lon="6.31024">
        <ele>722</ele>
        <time>2022-12-11T11:50:39Z</time>
      </trkpt>
      <trkpt lat="43.60652" lon="6.31024">
        <ele>722</ele>
        <time>2022-12-11T11:50:40Z</time>
      </trkpt>
      <trkpt lat="43.60651" lon="6.31023">
        <ele>722</ele>
        <time>2022-12-11T11:50:41Z</time>
      </trkpt>
      <trkpt lat="43.60651" lon="6.31023">
        <ele>723</ele>
        <time>2022-12-11T11:50:42Z</time>
      </trkpt>
      <trkpt lat="43.6065" lon="6.31023">
        <ele>723</ele>
        <time>2022-12-11T11:50:43Z</time>
      </trkpt>
      <trkpt lat="43.6065" lon="6.31023">
        <ele>723</ele>
        <time>2022-12-11T11:50:44Z</time>
      </trkpt>
      <trkpt lat="43.60649" lon="6.31023">
        <ele>722</ele>
        <time>2022-12-11T11:50:45Z</time>
      </trkpt>
      <trkpt lat="43.60648" lon="6.31023">
        <ele>722</ele>
        <time>2022-12-11T11:50:46Z</time>
      </trkpt>
      <trkpt lat="43.60648" lon="6.31022">
        <ele>722</ele>
        <time>2022-12-11T11:50:47Z</time>
      </trkpt>
      <trkpt lat="43.60647" lon="6.31021">
        <ele>722</ele>
        <time>2022-12-11T11:50:48Z</time>
      </trkpt>
      <trkpt lat="43.60646" lon="6.3102">
        <ele>722</ele>
        <time>2022-12-11T11:50:49Z</time>
      </trkpt>
      <trkpt lat="43.60646" lon="6.31019">
        <ele>722</ele>
        <time>2022-12-11T11:50:50Z</time>
      </trkpt>
      <trkpt lat="43.60645" lon="6.31019">
        <ele>722</ele>
        <time>2022-12-11T11:50:51Z</time>
      </trkpt>
      <trkpt lat="43.60644" lon="6.31018">
        <ele>722</ele>
        <time>2022-12-11T11:50:52Z</time>
      </trkpt>
      <trkpt lat="43.60643" lon="6.31017">
        <ele>721</ele>
        <time>2022-12-11T11:50:53Z</time>
      </trkpt>
      <trkpt lat="43.60642" lon="6.31016">
        <ele>721</ele>
        <time>2022-12-11T11:50:54Z</time>
      </trkpt>
      <trkpt lat="43.60642" lon="6.31016">
        <ele>721</ele>
        <time>2022-12-11T11:50:55Z</time>
      </trkpt>
      <trkpt lat="43.60641" lon="6.31015">
        <ele>721</ele>
        <time>2022-12-11T11:50:56Z</time>
      </trkpt>
      <trkpt lat="43.60642" lon="6.31013">
        <ele>721</ele>
        <time>2022-12-11T11:50:57Z</time>
      </trkpt>
      <trkpt lat="43.60641" lon="6.31012">
        <ele>721</ele>
        <time>2022-12-11T11:50:58Z</time>
      </trkpt>
      <trkpt lat="43.60641" lon="6.31011">
        <ele>721</ele>
        <time>2022-12-11T11:50:59Z</time>
      </trkpt>
      <trkpt lat="43.6064" lon="6.3101">
        <ele>721</ele>
        <time>2022-12-11T11:51:00Z</time>
      </trkpt>
      <trkpt lat="43.6064" lon="6.31008">
        <ele>721</ele>
        <time>2022-12-11T11:51:01Z</time>
      </trkpt>
      <trkpt lat="43.60639" lon="6.31007">
        <ele>720</ele>
        <time>2022-12-11T11:51:02Z</time>
      </trkpt>
      <trkpt lat="43.60639" lon="6.31006">
        <ele>720</ele>
        <time>2022-12-11T11:51:03Z</time>
      </trkpt>
      <trkpt lat="43.60638" lon="6.31005">
        <ele>720</ele>
        <time>2022-12-11T11:51:04Z</time>
      </trkpt>
      <trkpt lat="43.60638" lon="6.31005">
        <ele>720</ele>
        <time>2022-12-11T11:51:05Z</time>
      </trkpt>
      <trkpt lat="43.60638" lon="6.31004">
        <ele>720</ele>
        <time>2022-12-11T11:51:06Z</time>
      </trkpt>
      <trkpt lat="43.60637" lon="6.31003">
        <ele>720</ele>
        <time>2022-12-11T11:51:07Z</time>
      </trkpt>
      <trkpt lat="43.60637" lon="6.31002">
        <ele>720</ele>
        <time>2022-12-11T11:51:08Z</time>
      </trkpt>
      <trkpt lat="43.60636" lon="6.31002">
        <ele>720</ele>
        <time>2022-12-11T11:51:09Z</time>
      </trkpt>
      <trkpt lat="43.60635" lon="6.31001">
        <ele>720</ele>
        <time>2022-12-11T11:51:10Z</time>
      </trkpt>
      <trkpt lat="43.60635" lon="6.31">
        <ele>720</ele>
        <time>2022-12-11T11:51:11Z</time>
      </trkpt>
      <trkpt lat="43.60634" lon="6.31">
        <ele>720</ele>
        <time>2022-12-11T11:51:12Z</time>
      </trkpt>
      <trkpt lat="43.60633" lon="6.30999">
        <ele>719</ele>
        <time>2022-12-11T11:51:13Z</time>
      </trkpt>
      <trkpt lat="43.60633" lon="6.30998">
        <ele>719</ele>
        <time>2022-12-11T11:51:14Z</time>
      </trkpt>
      <trkpt lat="43.60632" lon="6.30998">
        <ele>718</ele>
        <time>2022-12-11T11:51:15Z</time>
      </trkpt>
      <trkpt lat="43.60631" lon="6.30998">
        <ele>717</ele>
        <time>2022-12-11T11:51:16Z</time>
      </trkpt>
      <trkpt lat="43.6063" lon="6.30998">
        <ele>717</ele>
        <time>2022-12-11T11:51:17Z</time>
      </trkpt>
      <trkpt lat="43.60629" lon="6.30998">
        <ele>717</ele>
        <time>2022-12-11T11:51:18Z</time>
      </trkpt>
      <trkpt lat="43.60629" lon="6.30998">
        <ele>717</ele>
        <time>2022-12-11T11:51:19Z</time>
      </trkpt>
      <trkpt lat="43.60628" lon="6.30998">
        <ele>717</ele>
        <time>2022-12-11T11:51:20Z</time>
      </trkpt>
      <trkpt lat="43.60627" lon="6.30998">
        <ele>717</ele>
        <time>2022-12-11T11:51:21Z</time>
      </trkpt>
      <trkpt lat="43.60626" lon="6.30997">
        <ele>717</ele>
        <time>2022-12-11T11:51:22Z</time>
      </trkpt>
      <trkpt lat="43.60625" lon="6.30997">
        <ele>717</ele>
        <time>2022-12-11T11:51:23Z</time>
      </trkpt>
      <trkpt lat="43.60624" lon="6.30998">
        <ele>717</ele>
        <time>2022-12-11T11:51:24Z</time>
      </trkpt>
      <trkpt lat="43.60623" lon="6.30997">
        <ele>716</ele>
        <time>2022-12-11T11:51:25Z</time>
      </trkpt>
      <trkpt lat="43.60623" lon="6.30997">
        <ele>716</ele>
        <time>2022-12-11T11:51:26Z</time>
      </trkpt>
      <trkpt lat="43.60622" lon="6.30996">
        <ele>716</ele>
        <time>2022-12-11T11:51:27Z</time>
      </trkpt>
      <trkpt lat="43.60621" lon="6.30995">
        <ele>716</ele>
        <time>2022-12-11T11:51:28Z</time>
      </trkpt>
      <trkpt lat="43.6062" lon="6.30994">
        <ele>716</ele>
        <time>2022-12-11T11:51:29Z</time>
      </trkpt>
      <trkpt lat="43.6062" lon="6.30993">
        <ele>716</ele>
        <time>2022-12-11T11:51:30Z</time>
      </trkpt>
      <trkpt lat="43.60619" lon="6.30992">
        <ele>716</ele>
        <time>2022-12-11T11:51:31Z</time>
      </trkpt>
      <trkpt lat="43.60619" lon="6.30991">
        <ele>716</ele>
        <time>2022-12-11T11:51:32Z</time>
      </trkpt>
      <trkpt lat="43.60618" lon="6.30991">
        <ele>716</ele>
        <time>2022-12-11T11:51:33Z</time>
      </trkpt>
      <trkpt lat="43.60617" lon="6.3099">
        <ele>716</ele>
        <time>2022-12-11T11:51:34Z</time>
      </trkpt>
      <trkpt lat="43.60617" lon="6.30989">
        <ele>716</ele>
        <time>2022-12-11T11:51:35Z</time>
      </trkpt>
      <trkpt lat="43.60618" lon="6.30988">
        <ele>716</ele>
        <time>2022-12-11T11:51:36Z</time>
      </trkpt>
      <trkpt lat="43.60618" lon="6.30987">
        <ele>716</ele>
        <time>2022-12-11T11:51:37Z</time>
      </trkpt>
      <trkpt lat="43.60619" lon="6.30987">
        <ele>716</ele>
        <time>2022-12-11T11:51:38Z</time>
      </trkpt>
      <trkpt lat="43.60619" lon="6.30986">
        <ele>716</ele>
        <time>2022-12-11T11:51:39Z</time>
      </trkpt>
      <trkpt lat="43.60619" lon="6.30986">
        <ele>716</ele>
        <time>2022-12-11T11:51:40Z</time>
      </trkpt>
      <trkpt lat="43.60619" lon="6.30985">
        <ele>716</ele>
        <time>2022-12-11T11:51:41Z</time>
      </trkpt>
      <trkpt lat="43.6062" lon="6.30985">
        <ele>716</ele>
        <time>2022-12-11T11:51:42Z</time>
      </trkpt>
      <trkpt lat="43.6062" lon="6.30984">
        <ele>716</ele>
        <time>2022-12-11T11:51:43Z</time>
      </trkpt>
      <trkpt lat="43.6062" lon="6.30985">
        <ele>716</ele>
        <time>2022-12-11T11:51:44Z</time>
      </trkpt>
      <trkpt lat="43.6062" lon="6.30985">
        <ele>715</ele>
        <time>2022-12-11T11:51:45Z</time>
      </trkpt>
      <trkpt lat="43.6062" lon="6.30985">
        <ele>715</ele>
        <time>2022-12-11T11:51:46Z</time>
      </trkpt>
      <trkpt lat="43.6062" lon="6.30985">
        <ele>715</ele>
        <time>2022-12-11T11:51:47Z</time>
      </trkpt>
      <trkpt lat="43.6062" lon="6.30985">
        <ele>715</ele>
        <time>2022-12-11T11:51:48Z</time>
      </trkpt>
      <trkpt lat="43.6062" lon="6.30985">
        <ele>715</ele>
        <time>2022-12-11T11:51:49Z</time>
      </trkpt>
      <trkpt lat="43.6062" lon="6.30985">
        <ele>715</ele>
        <time>2022-12-11T11:51:50Z</time>
      </trkpt>
      <trkpt lat="43.6062" lon="6.30985">
        <ele>715</ele>
        <time>2022-12-11T11:51:51Z</time>
      </trkpt>
      <trkpt lat="43.6062" lon="6.30985">
        <ele>715</ele>
        <time>2022-12-11T11:51:52Z</time>
      </trkpt>
      <trkpt lat="43.60619" lon="6.30988">
        <ele>715</ele>
        <time>2022-12-11T11:51:53Z</time>
      </trkpt>
      <trkpt lat="43.60618" lon="6.30989">
        <ele>715</ele>
        <time>2022-12-11T11:51:54Z</time>
      </trkpt>
      <trkpt lat="43.60617" lon="6.3099">
        <ele>715</ele>
        <time>2022-12-11T11:51:55Z</time>
      </trkpt>
      <trkpt lat="43.60616" lon="6.30991">
        <ele>715</ele>
        <time>2022-12-11T11:51:56Z</time>
      </trkpt>
      <trkpt lat="43.60615" lon="6.30991">
        <ele>715</ele>
        <time>2022-12-11T11:51:57Z</time>
      </trkpt>
      <trkpt lat="43.60615" lon="6.30991">
        <ele>715</ele>
        <time>2022-12-11T11:51:58Z</time>
      </trkpt>
      <trkpt lat="43.60614" lon="6.30991">
        <ele>715</ele>
        <time>2022-12-11T11:51:59Z</time>
      </trkpt>
      <trkpt lat="43.60614" lon="6.30991">
        <ele>715</ele>
        <time>2022-12-11T11:52:00Z</time>
      </trkpt>
      <trkpt lat="43.60614" lon="6.30989">
        <ele>715</ele>
        <time>2022-12-11T11:52:01Z</time>
      </trkpt>
      <trkpt lat="43.60613" lon="6.30988">
        <ele>714</ele>
        <time>2022-12-11T11:52:02Z</time>
      </trkpt>
      <trkpt lat="43.60613" lon="6.30987">
        <ele>714</ele>
        <time>2022-12-11T11:52:03Z</time>
      </trkpt>
      <trkpt lat="43.60612" lon="6.30986">
        <ele>713</ele>
        <time>2022-12-11T11:52:04Z</time>
      </trkpt>
      <trkpt lat="43.60612" lon="6.30985">
        <ele>713</ele>
        <time>2022-12-11T11:52:05Z</time>
      </trkpt>
      <trkpt lat="43.60612" lon="6.30984">
        <ele>713</ele>
        <time>2022-12-11T11:52:06Z</time>
      </trkpt>
      <trkpt lat="43.60611" lon="6.30984">
        <ele>713</ele>
        <time>2022-12-11T11:52:07Z</time>
      </trkpt>
      <trkpt lat="43.60611" lon="6.30984">
        <ele>713</ele>
        <time>2022-12-11T11:52:08Z</time>
      </trkpt>
      <trkpt lat="43.6061" lon="6.30984">
        <ele>713</ele>
        <time>2022-12-11T11:52:09Z</time>
      </trkpt>
      <trkpt lat="43.60609" lon="6.30983">
        <ele>713</ele>
        <time>2022-12-11T11:52:10Z</time>
      </trkpt>
      <trkpt lat="43.60608" lon="6.30982">
        <ele>713</ele>
        <time>2022-12-11T11:52:11Z</time>
      </trkpt>
      <trkpt lat="43.60607" lon="6.3098">
        <ele>713</ele>
        <time>2022-12-11T11:52:12Z</time>
      </trkpt>
      <trkpt lat="43.60605" lon="6.30978">
        <ele>713</ele>
        <time>2022-12-11T11:52:13Z</time>
      </trkpt>
      <trkpt lat="43.60605" lon="6.30977">
        <ele>713</ele>
        <time>2022-12-11T11:52:14Z</time>
      </trkpt>
      <trkpt lat="43.60603" lon="6.30975">
        <ele>713</ele>
        <time>2022-12-11T11:52:15Z</time>
      </trkpt>
      <trkpt lat="43.60603" lon="6.30974">
        <ele>713</ele>
        <time>2022-12-11T11:52:16Z</time>
      </trkpt>
      <trkpt lat="43.60602" lon="6.30973">
        <ele>713</ele>
        <time>2022-12-11T11:52:17Z</time>
      </trkpt>
      <trkpt lat="43.60602" lon="6.30972">
        <ele>713</ele>
        <time>2022-12-11T11:52:18Z</time>
      </trkpt>
      <trkpt lat="43.60601" lon="6.30971">
        <ele>713</ele>
        <time>2022-12-11T11:52:19Z</time>
      </trkpt>
      <trkpt lat="43.60601" lon="6.30971">
        <ele>713</ele>
        <time>2022-12-11T11:52:20Z</time>
      </trkpt>
      <trkpt lat="43.60601" lon="6.3097">
        <ele>713</ele>
        <time>2022-12-11T11:52:21Z</time>
      </trkpt>
      <trkpt lat="43.606" lon="6.3097">
        <ele>713</ele>
        <time>2022-12-11T11:52:22Z</time>
      </trkpt>
      <trkpt lat="43.606" lon="6.30969">
        <ele>713</ele>
        <time>2022-12-11T11:52:23Z</time>
      </trkpt>
      <trkpt lat="43.606" lon="6.30968">
        <ele>713</ele>
        <time>2022-12-11T11:52:24Z</time>
      </trkpt>
      <trkpt lat="43.606" lon="6.30967">
        <ele>713</ele>
        <time>2022-12-11T11:52:25Z</time>
      </trkpt>
      <trkpt lat="43.60599" lon="6.30966">
        <ele>713</ele>
        <time>2022-12-11T11:52:26Z</time>
      </trkpt>
      <trkpt lat="43.60599" lon="6.30964">
        <ele>713</ele>
        <time>2022-12-11T11:52:27Z</time>
      </trkpt>
      <trkpt lat="43.60598" lon="6.30963">
        <ele>713</ele>
        <time>2022-12-11T11:52:28Z</time>
      </trkpt>
      <trkpt lat="43.60598" lon="6.30962">
        <ele>713</ele>
        <time>2022-12-11T11:52:29Z</time>
      </trkpt>
      <trkpt lat="43.60598" lon="6.30961">
        <ele>712</ele>
        <time>2022-12-11T11:52:30Z</time>
      </trkpt>
      <trkpt lat="43.60598" lon="6.30961">
        <ele>712</ele>
        <time>2022-12-11T11:52:31Z</time>
      </trkpt>
      <trkpt lat="43.60598" lon="6.3096">
        <ele>712</ele>
        <time>2022-12-11T11:52:32Z</time>
      </trkpt>
      <trkpt lat="43.60598" lon="6.30959">
        <ele>712</ele>
        <time>2022-12-11T11:52:33Z</time>
      </trkpt>
      <trkpt lat="43.60598" lon="6.30958">
        <ele>712</ele>
        <time>2022-12-11T11:52:34Z</time>
      </trkpt>
      <trkpt lat="43.60598" lon="6.30957">
        <ele>712</ele>
        <time>2022-12-11T11:52:35Z</time>
      </trkpt>
      <trkpt lat="43.60598" lon="6.30956">
        <ele>712</ele>
        <time>2022-12-11T11:52:36Z</time>
      </trkpt>
      <trkpt lat="43.60598" lon="6.30954">
        <ele>712</ele>
        <time>2022-12-11T11:52:37Z</time>
      </trkpt>
      <trkpt lat="43.60598" lon="6.30951">
        <ele>712</ele>
        <time>2022-12-11T11:52:38Z</time>
      </trkpt>
      <trkpt lat="43.60598" lon="6.30949">
        <ele>712</ele>
        <time>2022-12-11T11:52:39Z</time>
      </trkpt>
      <trkpt lat="43.60599" lon="6.30947">
        <ele>712</ele>
        <time>2022-12-11T11:52:40Z</time>
      </trkpt>
      <trkpt lat="43.606" lon="6.30946">
        <ele>712</ele>
        <time>2022-12-11T11:52:41Z</time>
      </trkpt>
      <trkpt lat="43.606" lon="6.30944">
        <ele>712</ele>
        <time>2022-12-11T11:52:42Z</time>
      </trkpt>
      <trkpt lat="43.60601" lon="6.30942">
        <ele>712</ele>
        <time>2022-12-11T11:52:43Z</time>
      </trkpt>
      <trkpt lat="43.60602" lon="6.30941">
        <ele>712</ele>
        <time>2022-12-11T11:52:44Z</time>
      </trkpt>
      <trkpt lat="43.60603" lon="6.3094">
        <ele>712</ele>
        <time>2022-12-11T11:52:45Z</time>
      </trkpt>
      <trkpt lat="43.60604" lon="6.30939">
        <ele>712</ele>
        <time>2022-12-11T11:52:46Z</time>
      </trkpt>
      <trkpt lat="43.60604" lon="6.30938">
        <ele>712</ele>
        <time>2022-12-11T11:52:47Z</time>
      </trkpt>
      <trkpt lat="43.60605" lon="6.30937">
        <ele>712</ele>
        <time>2022-12-11T11:52:48Z</time>
      </trkpt>
      <trkpt lat="43.60606" lon="6.30936">
        <ele>712</ele>
        <time>2022-12-11T11:52:49Z</time>
      </trkpt>
      <trkpt lat="43.60606" lon="6.30935">
        <ele>712</ele>
        <time>2022-12-11T11:52:50Z</time>
      </trkpt>
      <trkpt lat="43.60607" lon="6.30934">
        <ele>712</ele>
        <time>2022-12-11T11:52:51Z</time>
      </trkpt>
      <trkpt lat="43.60608" lon="6.30933">
        <ele>712</ele>
        <time>2022-12-11T11:52:52Z</time>
      </trkpt>
      <trkpt lat="43.60609" lon="6.30932">
        <ele>712</ele>
        <time>2022-12-11T11:52:53Z</time>
      </trkpt>
      <trkpt lat="43.60609" lon="6.30931">
        <ele>712</ele>
        <time>2022-12-11T11:52:54Z</time>
      </trkpt>
      <trkpt lat="43.6061" lon="6.3093">
        <ele>712</ele>
        <time>2022-12-11T11:52:55Z</time>
      </trkpt>
      <trkpt lat="43.60611" lon="6.30929">
        <ele>712</ele>
        <time>2022-12-11T11:52:56Z</time>
      </trkpt>
      <trkpt lat="43.60611" lon="6.30928">
        <ele>712</ele>
        <time>2022-12-11T11:52:57Z</time>
      </trkpt>
      <trkpt lat="43.60612" lon="6.30927">
        <ele>712</ele>
        <time>2022-12-11T11:52:58Z</time>
      </trkpt>
      <trkpt lat="43.60612" lon="6.30926">
        <ele>712</ele>
        <time>2022-12-11T11:52:59Z</time>
      </trkpt>
      <trkpt lat="43.60613" lon="6.30926">
        <ele>712</ele>
        <time>2022-12-11T11:53:00Z</time>
      </trkpt>
      <trkpt lat="43.60614" lon="6.30925">
        <ele>712</ele>
        <time>2022-12-11T11:53:01Z</time>
      </trkpt>
      <trkpt lat="43.60615" lon="6.30924">
        <ele>712</ele>
        <time>2022-12-11T11:53:02Z</time>
      </trkpt>
      <trkpt lat="43.60616" lon="6.30923">
        <ele>712</ele>
        <time>2022-12-11T11:53:03Z</time>
      </trkpt>
      <trkpt lat="43.60617" lon="6.30922">
        <ele>712</ele>
        <time>2022-12-11T11:53:04Z</time>
      </trkpt>
      <trkpt lat="43.60618" lon="6.30921">
        <ele>712</ele>
        <time>2022-12-11T11:53:05Z</time>
      </trkpt>
      <trkpt lat="43.60619" lon="6.3092">
        <ele>712</ele>
        <time>2022-12-11T11:53:06Z</time>
      </trkpt>
      <trkpt lat="43.60619" lon="6.3092">
        <ele>712</ele>
        <time>2022-12-11T11:53:07Z</time>
      </trkpt>
      <trkpt lat="43.6062" lon="6.30919">
        <ele>712</ele>
        <time>2022-12-11T11:53:08Z</time>
      </trkpt>
      <trkpt lat="43.6062" lon="6.30917">
        <ele>712</ele>
        <time>2022-12-11T11:53:09Z</time>
      </trkpt>
      <trkpt lat="43.60621" lon="6.30916">
        <ele>712</ele>
        <time>2022-12-11T11:53:10Z</time>
      </trkpt>
      <trkpt lat="43.60621" lon="6.30915">
        <ele>712</ele>
        <time>2022-12-11T11:53:11Z</time>
      </trkpt>
      <trkpt lat="43.60622" lon="6.30914">
        <ele>712</ele>
        <time>2022-12-11T11:53:12Z</time>
      </trkpt>
      <trkpt lat="43.60622" lon="6.30913">
        <ele>712</ele>
        <time>2022-12-11T11:53:13Z</time>
      </trkpt>
      <trkpt lat="43.60623" lon="6.30913">
        <ele>712</ele>
        <time>2022-12-11T11:53:14Z</time>
      </trkpt>
      <trkpt lat="43.60624" lon="6.30914">
        <ele>712</ele>
        <time>2022-12-11T11:53:15Z</time>
      </trkpt>
      <trkpt lat="43.60625" lon="6.30914">
        <ele>711</ele>
        <time>2022-12-11T11:53:16Z</time>
      </trkpt>
      <trkpt lat="43.60625" lon="6.30914">
        <ele>711</ele>
        <time>2022-12-11T11:53:17Z</time>
      </trkpt>
      <trkpt lat="43.60625" lon="6.30913">
        <ele>711</ele>
        <time>2022-12-11T11:53:18Z</time>
      </trkpt>
      <trkpt lat="43.60625" lon="6.30912">
        <ele>711</ele>
        <time>2022-12-11T11:53:19Z</time>
      </trkpt>
      <trkpt lat="43.60625" lon="6.30911">
        <ele>711</ele>
        <time>2022-12-11T11:53:20Z</time>
      </trkpt>
      <trkpt lat="43.60626" lon="6.3091">
        <ele>711</ele>
        <time>2022-12-11T11:53:21Z</time>
      </trkpt>
      <trkpt lat="43.60626" lon="6.30909">
        <ele>711</ele>
        <time>2022-12-11T11:53:22Z</time>
      </trkpt>
      <trkpt lat="43.60626" lon="6.30908">
        <ele>711</ele>
        <time>2022-12-11T11:53:23Z</time>
      </trkpt>
      <trkpt lat="43.60626" lon="6.30907">
        <ele>710</ele>
        <time>2022-12-11T11:53:24Z</time>
      </trkpt>
      <trkpt lat="43.60626" lon="6.30906">
        <ele>710</ele>
        <time>2022-12-11T11:53:25Z</time>
      </trkpt>
      <trkpt lat="43.60627" lon="6.30905">
        <ele>710</ele>
        <time>2022-12-11T11:53:26Z</time>
      </trkpt>
      <trkpt lat="43.60627" lon="6.30904">
        <ele>710</ele>
        <time>2022-12-11T11:53:27Z</time>
      </trkpt>
      <trkpt lat="43.60627" lon="6.30903">
        <ele>710</ele>
        <time>2022-12-11T11:53:28Z</time>
      </trkpt>
      <trkpt lat="43.60627" lon="6.30903">
        <ele>710</ele>
        <time>2022-12-11T11:53:29Z</time>
      </trkpt>
      <trkpt lat="43.60627" lon="6.30902">
        <ele>710</ele>
        <time>2022-12-11T11:53:30Z</time>
      </trkpt>
      <trkpt lat="43.60627" lon="6.30902">
        <ele>709</ele>
        <time>2022-12-11T11:53:31Z</time>
      </trkpt>
      <trkpt lat="43.60627" lon="6.30901">
        <ele>709</ele>
        <time>2022-12-11T11:53:32Z</time>
      </trkpt>
      <trkpt lat="43.60627" lon="6.30901">
        <ele>709</ele>
        <time>2022-12-11T11:53:33Z</time>
      </trkpt>
      <trkpt lat="43.60626" lon="6.30901">
        <ele>709</ele>
        <time>2022-12-11T11:53:34Z</time>
      </trkpt>
      <trkpt lat="43.60626" lon="6.309">
        <ele>709</ele>
        <time>2022-12-11T11:53:35Z</time>
      </trkpt>
      <trkpt lat="43.60626" lon="6.30899">
        <ele>709</ele>
        <time>2022-12-11T11:53:36Z</time>
      </trkpt>
      <trkpt lat="43.60626" lon="6.30899">
        <ele>709</ele>
        <time>2022-12-11T11:53:37Z</time>
      </trkpt>
      <trkpt lat="43.60625" lon="6.30898">
        <ele>709</ele>
        <time>2022-12-11T11:53:38Z</time>
      </trkpt>
      <trkpt lat="43.60625" lon="6.30897">
        <ele>709</ele>
        <time>2022-12-11T11:53:39Z</time>
      </trkpt>
      <trkpt lat="43.60624" lon="6.30895">
        <ele>709</ele>
        <time>2022-12-11T11:53:40Z</time>
      </trkpt>
      <trkpt lat="43.60624" lon="6.30894">
        <ele>709</ele>
        <time>2022-12-11T11:53:41Z</time>
      </trkpt>
      <trkpt lat="43.60623" lon="6.30893">
        <ele>709</ele>
        <time>2022-12-11T11:53:42Z</time>
      </trkpt>
      <trkpt lat="43.60623" lon="6.30893">
        <ele>709</ele>
        <time>2022-12-11T11:53:43Z</time>
      </trkpt>
      <trkpt lat="43.60622" lon="6.30892">
        <ele>709</ele>
        <time>2022-12-11T11:53:44Z</time>
      </trkpt>
      <trkpt lat="43.60622" lon="6.30891">
        <ele>710</ele>
        <time>2022-12-11T11:53:45Z</time>
      </trkpt>
      <trkpt lat="43.60622" lon="6.30891">
        <ele>710</ele>
        <time>2022-12-11T11:53:46Z</time>
      </trkpt>
      <trkpt lat="43.60621" lon="6.3089">
        <ele>710</ele>
        <time>2022-12-11T11:53:47Z</time>
      </trkpt>
      <trkpt lat="43.60621" lon="6.30889">
        <ele>710</ele>
        <time>2022-12-11T11:53:48Z</time>
      </trkpt>
      <trkpt lat="43.6062" lon="6.30888">
        <ele>710</ele>
        <time>2022-12-11T11:53:49Z</time>
      </trkpt>
      <trkpt lat="43.60619" lon="6.30886">
        <ele>710</ele>
        <time>2022-12-11T11:53:50Z</time>
      </trkpt>
      <trkpt lat="43.60618" lon="6.30885">
        <ele>711</ele>
        <time>2022-12-11T11:53:51Z</time>
      </trkpt>
      <trkpt lat="43.60617" lon="6.30883">
        <ele>711</ele>
        <time>2022-12-11T11:53:52Z</time>
      </trkpt>
      <trkpt lat="43.60616" lon="6.30881">
        <ele>711</ele>
        <time>2022-12-11T11:53:53Z</time>
      </trkpt>
      <trkpt lat="43.60615" lon="6.30879">
        <ele>711</ele>
        <time>2022-12-11T11:53:54Z</time>
      </trkpt>
      <trkpt lat="43.60614" lon="6.30877">
        <ele>711</ele>
        <time>2022-12-11T11:53:55Z</time>
      </trkpt>
      <trkpt lat="43.60613" lon="6.30875">
        <ele>711</ele>
        <time>2022-12-11T11:53:56Z</time>
      </trkpt>
      <trkpt lat="43.60612" lon="6.30874">
        <ele>712</ele>
        <time>2022-12-11T11:53:57Z</time>
      </trkpt>
      <trkpt lat="43.60611" lon="6.30872">
        <ele>712</ele>
        <time>2022-12-11T11:53:58Z</time>
      </trkpt>
      <trkpt lat="43.6061" lon="6.3087">
        <ele>712</ele>
        <time>2022-12-11T11:53:59Z</time>
      </trkpt>
      <trkpt lat="43.60609" lon="6.30869">
        <ele>712</ele>
        <time>2022-12-11T11:54:00Z</time>
      </trkpt>
      <trkpt lat="43.60607" lon="6.30868">
        <ele>712</ele>
        <time>2022-12-11T11:54:01Z</time>
      </trkpt>
      <trkpt lat="43.60606" lon="6.30866">
        <ele>712</ele>
        <time>2022-12-11T11:54:02Z</time>
      </trkpt>
      <trkpt lat="43.60606" lon="6.30865">
        <ele>712</ele>
        <time>2022-12-11T11:54:03Z</time>
      </trkpt>
      <trkpt lat="43.60605" lon="6.30864">
        <ele>712</ele>
        <time>2022-12-11T11:54:04Z</time>
      </trkpt>
      <trkpt lat="43.60604" lon="6.30863">
        <ele>712</ele>
        <time>2022-12-11T11:54:05Z</time>
      </trkpt>
      <trkpt lat="43.60603" lon="6.30862">
        <ele>712</ele>
        <time>2022-12-11T11:54:06Z</time>
      </trkpt>
      <trkpt lat="43.60602" lon="6.30861">
        <ele>712</ele>
        <time>2022-12-11T11:54:07Z</time>
      </trkpt>
      <trkpt lat="43.60602" lon="6.30859">
        <ele>711</ele>
        <time>2022-12-11T11:54:08Z</time>
      </trkpt>
      <trkpt lat="43.60601" lon="6.30858">
        <ele>711</ele>
        <time>2022-12-11T11:54:09Z</time>
      </trkpt>
      <trkpt lat="43.60601" lon="6.30857">
        <ele>711</ele>
        <time>2022-12-11T11:54:10Z</time>
      </trkpt>
      <trkpt lat="43.606" lon="6.30856">
        <ele>711</ele>
        <time>2022-12-11T11:54:11Z</time>
      </trkpt>
      <trkpt lat="43.606" lon="6.30855">
        <ele>711</ele>
        <time>2022-12-11T11:54:12Z</time>
      </trkpt>
      <trkpt lat="43.606" lon="6.30854">
        <ele>711</ele>
        <time>2022-12-11T11:54:13Z</time>
      </trkpt>
      <trkpt lat="43.606" lon="6.30852">
        <ele>711</ele>
        <time>2022-12-11T11:54:14Z</time>
      </trkpt>
      <trkpt lat="43.606" lon="6.30851">
        <ele>711</ele>
        <time>2022-12-11T11:54:15Z</time>
      </trkpt>
      <trkpt lat="43.606" lon="6.3085">
        <ele>711</ele>
        <time>2022-12-11T11:54:16Z</time>
      </trkpt>
      <trkpt lat="43.606" lon="6.30849">
        <ele>711</ele>
        <time>2022-12-11T11:54:17Z</time>
      </trkpt>
      <trkpt lat="43.606" lon="6.30849">
        <ele>711</ele>
        <time>2022-12-11T11:54:18Z</time>
      </trkpt>
      <trkpt lat="43.606" lon="6.30849">
        <ele>711</ele>
        <time>2022-12-11T11:54:19Z</time>
      </trkpt>
      <trkpt lat="43.606" lon="6.30849">
        <ele>711</ele>
        <time>2022-12-11T11:54:20Z</time>
      </trkpt>
      <trkpt lat="43.606" lon="6.3085">
        <ele>711</ele>
        <time>2022-12-11T11:54:21Z</time>
      </trkpt>
      <trkpt lat="43.606" lon="6.30849">
        <ele>710</ele>
        <time>2022-12-11T11:54:22Z</time>
      </trkpt>
      <trkpt lat="43.60599" lon="6.30849">
        <ele>710</ele>
        <time>2022-12-11T11:54:23Z</time>
      </trkpt>
      <trkpt lat="43.60599" lon="6.30849">
        <ele>710</ele>
        <time>2022-12-11T11:54:24Z</time>
      </trkpt>
      <trkpt lat="43.60599" lon="6.30849">
        <ele>710</ele>
        <time>2022-12-11T11:54:25Z</time>
      </trkpt>
      <trkpt lat="43.60599" lon="6.3085">
        <ele>710</ele>
        <time>2022-12-11T11:54:26Z</time>
      </trkpt>
      <trkpt lat="43.60599" lon="6.3085">
        <ele>709</ele>
        <time>2022-12-11T11:54:27Z</time>
      </trkpt>
      <trkpt lat="43.60599" lon="6.30851">
        <ele>709</ele>
        <time>2022-12-11T11:54:28Z</time>
      </trkpt>
      <trkpt lat="43.60599" lon="6.30851">
        <ele>709</ele>
        <time>2022-12-11T11:54:29Z</time>
      </trkpt>
      <trkpt lat="43.60598" lon="6.30851">
        <ele>709</ele>
        <time>2022-12-11T11:54:30Z</time>
      </trkpt>
      <trkpt lat="43.60598" lon="6.30851">
        <ele>709</ele>
        <time>2022-12-11T11:54:31Z</time>
      </trkpt>
      <trkpt lat="43.60597" lon="6.30851">
        <ele>709</ele>
        <time>2022-12-11T11:54:32Z</time>
      </trkpt>
      <trkpt lat="43.60597" lon="6.30851">
        <ele>709</ele>
        <time>2022-12-11T11:54:33Z</time>
      </trkpt>
      <trkpt lat="43.60596" lon="6.30851">
        <ele>709</ele>
        <time>2022-12-11T11:54:34Z</time>
      </trkpt>
      <trkpt lat="43.60596" lon="6.3085">
        <ele>709</ele>
        <time>2022-12-11T11:54:35Z</time>
      </trkpt>
      <trkpt lat="43.60596" lon="6.3085">
        <ele>709</ele>
        <time>2022-12-11T11:54:36Z</time>
      </trkpt>
      <trkpt lat="43.60595" lon="6.30849">
        <ele>709</ele>
        <time>2022-12-11T11:54:37Z</time>
      </trkpt>
      <trkpt lat="43.60594" lon="6.30848">
        <ele>709</ele>
        <time>2022-12-11T11:54:38Z</time>
      </trkpt>
      <trkpt lat="43.60593" lon="6.30847">
        <ele>709</ele>
        <time>2022-12-11T11:54:39Z</time>
      </trkpt>
      <trkpt lat="43.60593" lon="6.30847">
        <ele>709</ele>
        <time>2022-12-11T11:54:40Z</time>
      </trkpt>
      <trkpt lat="43.60592" lon="6.30846">
        <ele>709</ele>
        <time>2022-12-11T11:54:41Z</time>
      </trkpt>
      <trkpt lat="43.60591" lon="6.30845">
        <ele>709</ele>
        <time>2022-12-11T11:54:42Z</time>
      </trkpt>
      <trkpt lat="43.60591" lon="6.30844">
        <ele>709</ele>
        <time>2022-12-11T11:54:43Z</time>
      </trkpt>
      <trkpt lat="43.6059" lon="6.30842">
        <ele>709</ele>
        <time>2022-12-11T11:54:44Z</time>
      </trkpt>
      <trkpt lat="43.6059" lon="6.30841">
        <ele>709</ele>
        <time>2022-12-11T11:54:45Z</time>
      </trkpt>
      <trkpt lat="43.60589" lon="6.3084">
        <ele>709</ele>
        <time>2022-12-11T11:54:46Z</time>
      </trkpt>
      <trkpt lat="43.60588" lon="6.30838">
        <ele>709</ele>
        <time>2022-12-11T11:54:47Z</time>
      </trkpt>
      <trkpt lat="43.60587" lon="6.30837">
        <ele>709</ele>
        <time>2022-12-11T11:54:48Z</time>
      </trkpt>
      <trkpt lat="43.60587" lon="6.30836">
        <ele>709</ele>
        <time>2022-12-11T11:54:49Z</time>
      </trkpt>
      <trkpt lat="43.60586" lon="6.30835">
        <ele>709</ele>
        <time>2022-12-11T11:54:50Z</time>
      </trkpt>
      <trkpt lat="43.60586" lon="6.30834">
        <ele>708</ele>
        <time>2022-12-11T11:54:51Z</time>
      </trkpt>
      <trkpt lat="43.60585" lon="6.30834">
        <ele>708</ele>
        <time>2022-12-11T11:54:52Z</time>
      </trkpt>
      <trkpt lat="43.60585" lon="6.30833">
        <ele>708</ele>
        <time>2022-12-11T11:54:53Z</time>
      </trkpt>
      <trkpt lat="43.60584" lon="6.30832">
        <ele>708</ele>
        <time>2022-12-11T11:54:54Z</time>
      </trkpt>
      <trkpt lat="43.60584" lon="6.30832">
        <ele>708</ele>
        <time>2022-12-11T11:54:55Z</time>
      </trkpt>
      <trkpt lat="43.60583" lon="6.30831">
        <ele>707</ele>
        <time>2022-12-11T11:54:56Z</time>
      </trkpt>
      <trkpt lat="43.60583" lon="6.30831">
        <ele>707</ele>
        <time>2022-12-11T11:54:57Z</time>
      </trkpt>
      <trkpt lat="43.60583" lon="6.3083">
        <ele>707</ele>
        <time>2022-12-11T11:54:58Z</time>
      </trkpt>
      <trkpt lat="43.60582" lon="6.3083">
        <ele>707</ele>
        <time>2022-12-11T11:54:59Z</time>
      </trkpt>
      <trkpt lat="43.60582" lon="6.30829">
        <ele>707</ele>
        <time>2022-12-11T11:55:00Z</time>
      </trkpt>
      <trkpt lat="43.60582" lon="6.30829">
        <ele>707</ele>
        <time>2022-12-11T11:55:01Z</time>
      </trkpt>
      <trkpt lat="43.60582" lon="6.30829">
        <ele>705</ele>
        <time>2022-12-11T11:55:02Z</time>
      </trkpt>
      <trkpt lat="43.60582" lon="6.30829">
        <ele>705</ele>
        <time>2022-12-11T11:55:03Z</time>
      </trkpt>
      <trkpt lat="43.60582" lon="6.30829">
        <ele>705</ele>
        <time>2022-12-11T11:55:04Z</time>
      </trkpt>
      <trkpt lat="43.60582" lon="6.30829">
        <ele>705</ele>
        <time>2022-12-11T11:55:05Z</time>
      </trkpt>
      <trkpt lat="43.60582" lon="6.30829">
        <ele>705</ele>
        <time>2022-12-11T11:55:06Z</time>
      </trkpt>
      <trkpt lat="43.60582" lon="6.30829">
        <ele>705</ele>
        <time>2022-12-11T11:55:07Z</time>
      </trkpt>
      <trkpt lat="43.6058" lon="6.30827">
        <ele>705</ele>
        <time>2022-12-11T11:55:08Z</time>
      </trkpt>
      <trkpt lat="43.6058" lon="6.30827">
        <ele>705</ele>
        <time>2022-12-11T11:55:09Z</time>
      </trkpt>
      <trkpt lat="43.6058" lon="6.30827">
        <ele>705</ele>
        <time>2022-12-11T11:55:10Z</time>
      </trkpt>
      <trkpt lat="43.6058" lon="6.30827">
        <ele>705</ele>
        <time>2022-12-11T11:55:11Z</time>
      </trkpt>
      <trkpt lat="43.6058" lon="6.30827">
        <ele>705</ele>
        <time>2022-12-11T11:55:12Z</time>
      </trkpt>
      <trkpt lat="43.6058" lon="6.30827">
        <ele>705</ele>
        <time>2022-12-11T11:55:13Z</time>
      </trkpt>
      <trkpt lat="43.60579" lon="6.30827">
        <ele>705</ele>
        <time>2022-12-11T11:55:14Z</time>
      </trkpt>
      <trkpt lat="43.60579" lon="6.30827">
        <ele>705</ele>
        <time>2022-12-11T11:55:15Z</time>
      </trkpt>
      <trkpt lat="43.60578" lon="6.30827">
        <ele>704</ele>
        <time>2022-12-11T11:55:16Z</time>
      </trkpt>
      <trkpt lat="43.60578" lon="6.30828">
        <ele>704</ele>
        <time>2022-12-11T11:55:17Z</time>
      </trkpt>
      <trkpt lat="43.60578" lon="6.30828">
        <ele>704</ele>
        <time>2022-12-11T11:55:18Z</time>
      </trkpt>
      <trkpt lat="43.60577" lon="6.30828">
        <ele>704</ele>
        <time>2022-12-11T11:55:19Z</time>
      </trkpt>
      <trkpt lat="43.60577" lon="6.30829">
        <ele>704</ele>
        <time>2022-12-11T11:55:20Z</time>
      </trkpt>
      <trkpt lat="43.60577" lon="6.30829">
        <ele>704</ele>
        <time>2022-12-11T11:55:21Z</time>
      </trkpt>
      <trkpt lat="43.60576" lon="6.3083">
        <ele>704</ele>
        <time>2022-12-11T11:55:22Z</time>
      </trkpt>
      <trkpt lat="43.60576" lon="6.3083">
        <ele>704</ele>
        <time>2022-12-11T11:55:23Z</time>
      </trkpt>
      <trkpt lat="43.60575" lon="6.3083">
        <ele>704</ele>
        <time>2022-12-11T11:55:24Z</time>
      </trkpt>
      <trkpt lat="43.60575" lon="6.3083">
        <ele>704</ele>
        <time>2022-12-11T11:55:25Z</time>
      </trkpt>
      <trkpt lat="43.60574" lon="6.3083">
        <ele>704</ele>
        <time>2022-12-11T11:55:26Z</time>
      </trkpt>
      <trkpt lat="43.60573" lon="6.30829">
        <ele>704</ele>
        <time>2022-12-11T11:55:27Z</time>
      </trkpt>
      <trkpt lat="43.60573" lon="6.3083">
        <ele>704</ele>
        <time>2022-12-11T11:55:28Z</time>
      </trkpt>
      <trkpt lat="43.60572" lon="6.3083">
        <ele>704</ele>
        <time>2022-12-11T11:55:29Z</time>
      </trkpt>
      <trkpt lat="43.60571" lon="6.3083">
        <ele>704</ele>
        <time>2022-12-11T11:55:30Z</time>
      </trkpt>
      <trkpt lat="43.60571" lon="6.3083">
        <ele>704</ele>
        <time>2022-12-11T11:55:31Z</time>
      </trkpt>
      <trkpt lat="43.6057" lon="6.3083">
        <ele>704</ele>
        <time>2022-12-11T11:55:32Z</time>
      </trkpt>
      <trkpt lat="43.60569" lon="6.30831">
        <ele>704</ele>
        <time>2022-12-11T11:55:33Z</time>
      </trkpt>
      <trkpt lat="43.60567" lon="6.30831">
        <ele>704</ele>
        <time>2022-12-11T11:55:34Z</time>
      </trkpt>
      <trkpt lat="43.60566" lon="6.30832">
        <ele>704</ele>
        <time>2022-12-11T11:55:35Z</time>
      </trkpt>
      <trkpt lat="43.60566" lon="6.30832">
        <ele>704</ele>
        <time>2022-12-11T11:55:36Z</time>
      </trkpt>
      <trkpt lat="43.60566" lon="6.30832">
        <ele>704</ele>
        <time>2022-12-11T11:55:37Z</time>
      </trkpt>
      <trkpt lat="43.60565" lon="6.30832">
        <ele>704</ele>
        <time>2022-12-11T11:55:38Z</time>
      </trkpt>
      <trkpt lat="43.60565" lon="6.30832">
        <ele>704</ele>
        <time>2022-12-11T11:55:39Z</time>
      </trkpt>
      <trkpt lat="43.60564" lon="6.30833">
        <ele>704</ele>
        <time>2022-12-11T11:55:40Z</time>
      </trkpt>
      <trkpt lat="43.60563" lon="6.30834">
        <ele>704</ele>
        <time>2022-12-11T11:55:41Z</time>
      </trkpt>
      <trkpt lat="43.60562" lon="6.30835">
        <ele>704</ele>
        <time>2022-12-11T11:55:42Z</time>
      </trkpt>
      <trkpt lat="43.60561" lon="6.30836">
        <ele>704</ele>
        <time>2022-12-11T11:55:43Z</time>
      </trkpt>
      <trkpt lat="43.6056" lon="6.30837">
        <ele>704</ele>
        <time>2022-12-11T11:55:44Z</time>
      </trkpt>
      <trkpt lat="43.6056" lon="6.30838">
        <ele>704</ele>
        <time>2022-12-11T11:55:45Z</time>
      </trkpt>
      <trkpt lat="43.60559" lon="6.30838">
        <ele>704</ele>
        <time>2022-12-11T11:55:46Z</time>
      </trkpt>
      <trkpt lat="43.60559" lon="6.30839">
        <ele>704</ele>
        <time>2022-12-11T11:55:47Z</time>
      </trkpt>
      <trkpt lat="43.60559" lon="6.3084">
        <ele>704</ele>
        <time>2022-12-11T11:55:48Z</time>
      </trkpt>
      <trkpt lat="43.60558" lon="6.3084">
        <ele>704</ele>
        <time>2022-12-11T11:55:49Z</time>
      </trkpt>
      <trkpt lat="43.60557" lon="6.30842">
        <ele>704</ele>
        <time>2022-12-11T11:55:50Z</time>
      </trkpt>
      <trkpt lat="43.60556" lon="6.30844">
        <ele>704</ele>
        <time>2022-12-11T11:55:51Z</time>
      </trkpt>
      <trkpt lat="43.60555" lon="6.30844">
        <ele>704</ele>
        <time>2022-12-11T11:55:52Z</time>
      </trkpt>
      <trkpt lat="43.60555" lon="6.30845">
        <ele>704</ele>
        <time>2022-12-11T11:55:53Z</time>
      </trkpt>
      <trkpt lat="43.60554" lon="6.30845">
        <ele>704</ele>
        <time>2022-12-11T11:55:54Z</time>
      </trkpt>
      <trkpt lat="43.60554" lon="6.30846">
        <ele>704</ele>
        <time>2022-12-11T11:55:55Z</time>
      </trkpt>
      <trkpt lat="43.60554" lon="6.30846">
        <ele>704</ele>
        <time>2022-12-11T11:55:56Z</time>
      </trkpt>
      <trkpt lat="43.60553" lon="6.30847">
        <ele>704</ele>
        <time>2022-12-11T11:55:57Z</time>
      </trkpt>
      <trkpt lat="43.60552" lon="6.30848">
        <ele>705</ele>
        <time>2022-12-11T11:55:58Z</time>
      </trkpt>
      <trkpt lat="43.6055" lon="6.30849">
        <ele>705</ele>
        <time>2022-12-11T11:55:59Z</time>
      </trkpt>
      <trkpt lat="43.60548" lon="6.3085">
        <ele>705</ele>
        <time>2022-12-11T11:56:00Z</time>
      </trkpt>
      <trkpt lat="43.60546" lon="6.30852">
        <ele>705</ele>
        <time>2022-12-11T11:56:01Z</time>
      </trkpt>
      <trkpt lat="43.60544" lon="6.30854">
        <ele>706</ele>
        <time>2022-12-11T11:56:02Z</time>
      </trkpt>
      <trkpt lat="43.60542" lon="6.30855">
        <ele>706</ele>
        <time>2022-12-11T11:56:03Z</time>
      </trkpt>
      <trkpt lat="43.60541" lon="6.30856">
        <ele>706</ele>
        <time>2022-12-11T11:56:04Z</time>
      </trkpt>
      <trkpt lat="43.6054" lon="6.30857">
        <ele>706</ele>
        <time>2022-12-11T11:56:05Z</time>
      </trkpt>
      <trkpt lat="43.60539" lon="6.30858">
        <ele>706</ele>
        <time>2022-12-11T11:56:06Z</time>
      </trkpt>
      <trkpt lat="43.60537" lon="6.30859">
        <ele>706</ele>
        <time>2022-12-11T11:56:07Z</time>
      </trkpt>
      <trkpt lat="43.60536" lon="6.3086">
        <ele>706</ele>
        <time>2022-12-11T11:56:08Z</time>
      </trkpt>
      <trkpt lat="43.60535" lon="6.30861">
        <ele>706</ele>
        <time>2022-12-11T11:56:09Z</time>
      </trkpt>
      <trkpt lat="43.60534" lon="6.30862">
        <ele>706</ele>
        <time>2022-12-11T11:56:10Z</time>
      </trkpt>
      <trkpt lat="43.60532" lon="6.30862">
        <ele>707</ele>
        <time>2022-12-11T11:56:11Z</time>
      </trkpt>
      <trkpt lat="43.60531" lon="6.30863">
        <ele>707</ele>
        <time>2022-12-11T11:56:12Z</time>
      </trkpt>
      <trkpt lat="43.6053" lon="6.30864">
        <ele>707</ele>
        <time>2022-12-11T11:56:13Z</time>
      </trkpt>
      <trkpt lat="43.60529" lon="6.30864">
        <ele>707</ele>
        <time>2022-12-11T11:56:14Z</time>
      </trkpt>
      <trkpt lat="43.60528" lon="6.30865">
        <ele>707</ele>
        <time>2022-12-11T11:56:15Z</time>
      </trkpt>
      <trkpt lat="43.60527" lon="6.30865">
        <ele>707</ele>
        <time>2022-12-11T11:56:16Z</time>
      </trkpt>
      <trkpt lat="43.60527" lon="6.30866">
        <ele>707</ele>
        <time>2022-12-11T11:56:17Z</time>
      </trkpt>
      <trkpt lat="43.60526" lon="6.30867">
        <ele>707</ele>
        <time>2022-12-11T11:56:18Z</time>
      </trkpt>
      <trkpt lat="43.60525" lon="6.30867">
        <ele>707</ele>
        <time>2022-12-11T11:56:19Z</time>
      </trkpt>
      <trkpt lat="43.60525" lon="6.30868">
        <ele>707</ele>
        <time>2022-12-11T11:56:20Z</time>
      </trkpt>
      <trkpt lat="43.60524" lon="6.30868">
        <ele>708</ele>
        <time>2022-12-11T11:56:21Z</time>
      </trkpt>
      <trkpt lat="43.60523" lon="6.30869">
        <ele>708</ele>
        <time>2022-12-11T11:56:22Z</time>
      </trkpt>
      <trkpt lat="43.60522" lon="6.3087">
        <ele>708</ele>
        <time>2022-12-11T11:56:23Z</time>
      </trkpt>
      <trkpt lat="43.60522" lon="6.30871">
        <ele>708</ele>
        <time>2022-12-11T11:56:24Z</time>
      </trkpt>
      <trkpt lat="43.60521" lon="6.30872">
        <ele>708</ele>
        <time>2022-12-11T11:56:25Z</time>
      </trkpt>
      <trkpt lat="43.60519" lon="6.30873">
        <ele>708</ele>
        <time>2022-12-11T11:56:26Z</time>
      </trkpt>
      <trkpt lat="43.60518" lon="6.30874">
        <ele>708</ele>
        <time>2022-12-11T11:56:27Z</time>
      </trkpt>
      <trkpt lat="43.60517" lon="6.30875">
        <ele>708</ele>
        <time>2022-12-11T11:56:28Z</time>
      </trkpt>
      <trkpt lat="43.60515" lon="6.30877">
        <ele>708</ele>
        <time>2022-12-11T11:56:29Z</time>
      </trkpt>
      <trkpt lat="43.60513" lon="6.30878">
        <ele>708</ele>
        <time>2022-12-11T11:56:30Z</time>
      </trkpt>
      <trkpt lat="43.60512" lon="6.30879">
        <ele>708</ele>
        <time>2022-12-11T11:56:31Z</time>
      </trkpt>
      <trkpt lat="43.6051" lon="6.30881">
        <ele>708</ele>
        <time>2022-12-11T11:56:32Z</time>
      </trkpt>
      <trkpt lat="43.60509" lon="6.30882">
        <ele>708</ele>
        <time>2022-12-11T11:56:33Z</time>
      </trkpt>
      <trkpt lat="43.60508" lon="6.30883">
        <ele>708</ele>
        <time>2022-12-11T11:56:34Z</time>
      </trkpt>
      <trkpt lat="43.60508" lon="6.30884">
        <ele>708</ele>
        <time>2022-12-11T11:56:35Z</time>
      </trkpt>
      <trkpt lat="43.60507" lon="6.30886">
        <ele>708</ele>
        <time>2022-12-11T11:56:36Z</time>
      </trkpt>
      <trkpt lat="43.60506" lon="6.30887">
        <ele>708</ele>
        <time>2022-12-11T11:56:37Z</time>
      </trkpt>
      <trkpt lat="43.60506" lon="6.30889">
        <ele>708</ele>
        <time>2022-12-11T11:56:38Z</time>
      </trkpt>
      <trkpt lat="43.60505" lon="6.3089">
        <ele>708</ele>
        <time>2022-12-11T11:56:39Z</time>
      </trkpt>
      <trkpt lat="43.60504" lon="6.30891">
        <ele>708</ele>
        <time>2022-12-11T11:56:40Z</time>
      </trkpt>
      <trkpt lat="43.60504" lon="6.30893">
        <ele>708</ele>
        <time>2022-12-11T11:56:41Z</time>
      </trkpt>
      <trkpt lat="43.60503" lon="6.30894">
        <ele>707</ele>
        <time>2022-12-11T11:56:42Z</time>
      </trkpt>
      <trkpt lat="43.60503" lon="6.30896">
        <ele>707</ele>
        <time>2022-12-11T11:56:43Z</time>
      </trkpt>
      <trkpt lat="43.60503" lon="6.30897">
        <ele>707</ele>
        <time>2022-12-11T11:56:44Z</time>
      </trkpt>
      <trkpt lat="43.60502" lon="6.30898">
        <ele>707</ele>
        <time>2022-12-11T11:56:45Z</time>
      </trkpt>
      <trkpt lat="43.60502" lon="6.30899">
        <ele>706</ele>
        <time>2022-12-11T11:56:46Z</time>
      </trkpt>
      <trkpt lat="43.60502" lon="6.30899">
        <ele>706</ele>
        <time>2022-12-11T11:56:47Z</time>
      </trkpt>
      <trkpt lat="43.60502" lon="6.30899">
        <ele>706</ele>
        <time>2022-12-11T11:56:48Z</time>
      </trkpt>
      <trkpt lat="43.60502" lon="6.30898">
        <ele>706</ele>
        <time>2022-12-11T11:56:49Z</time>
      </trkpt>
      <trkpt lat="43.60502" lon="6.30898">
        <ele>706</ele>
        <time>2022-12-11T11:56:50Z</time>
      </trkpt>
      <trkpt lat="43.60502" lon="6.30898">
        <ele>706</ele>
        <time>2022-12-11T11:56:51Z</time>
      </trkpt>
      <trkpt lat="43.60502" lon="6.30898">
        <ele>706</ele>
        <time>2022-12-11T11:56:52Z</time>
      </trkpt>
      <trkpt lat="43.60502" lon="6.30897">
        <ele>706</ele>
        <time>2022-12-11T11:56:53Z</time>
      </trkpt>
      <trkpt lat="43.60502" lon="6.30897">
        <ele>706</ele>
        <time>2022-12-11T11:56:54Z</time>
      </trkpt>
      <trkpt lat="43.60502" lon="6.30897">
        <ele>706</ele>
        <time>2022-12-11T11:56:55Z</time>
      </trkpt>
      <trkpt lat="43.60502" lon="6.30897">
        <ele>706</ele>
        <time>2022-12-11T11:56:56Z</time>
      </trkpt>
      <trkpt lat="43.60502" lon="6.30897">
        <ele>706</ele>
        <time>2022-12-11T11:56:57Z</time>
      </trkpt>
      <trkpt lat="43.60502" lon="6.30897">
        <ele>706</ele>
        <time>2022-12-11T11:56:58Z</time>
      </trkpt>
      <trkpt lat="43.60502" lon="6.30897">
        <ele>706</ele>
        <time>2022-12-11T11:56:59Z</time>
      </trkpt>
      <trkpt lat="43.60502" lon="6.30897">
        <ele>706</ele>
        <time>2022-12-11T11:57:00Z</time>
      </trkpt>
      <trkpt lat="43.60502" lon="6.30897">
        <ele>706</ele>
        <time>2022-12-11T11:57:01Z</time>
      </trkpt>
      <trkpt lat="43.60502" lon="6.30897">
        <ele>706</ele>
        <time>2022-12-11T11:57:02Z</time>
      </trkpt>
      <trkpt lat="43.60502" lon="6.30897">
        <ele>706</ele>
        <time>2022-12-11T11:57:03Z</time>
      </trkpt>
      <trkpt lat="43.60502" lon="6.30897">
        <ele>706</ele>
        <time>2022-12-11T11:57:04Z</time>
      </trkpt>
      <trkpt lat="43.60502" lon="6.30896">
        <ele>706</ele>
        <time>2022-12-11T11:57:05Z</time>
      </trkpt>
      <trkpt lat="43.60502" lon="6.30896">
        <ele>706</ele>
        <time>2022-12-11T11:57:06Z</time>
      </trkpt>
      <trkpt lat="43.60502" lon="6.30896">
        <ele>706</ele>
        <time>2022-12-11T11:57:07Z</time>
      </trkpt>
      <trkpt lat="43.60502" lon="6.30896">
        <ele>706</ele>
        <time>2022-12-11T11:57:08Z</time>
      </trkpt>
      <trkpt lat="43.60502" lon="6.30896">
        <ele>706</ele>
        <time>2022-12-11T11:57:09Z</time>
      </trkpt>
      <trkpt lat="43.60502" lon="6.30896">
        <ele>706</ele>
        <time>2022-12-11T11:57:10Z</time>
      </trkpt>
      <trkpt lat="43.60502" lon="6.30896">
        <ele>706</ele>
        <time>2022-12-11T11:57:11Z</time>
      </trkpt>
      <trkpt lat="43.60502" lon="6.30896">
        <ele>706</ele>
        <time>2022-12-11T11:57:12Z</time>
      </trkpt>
      <trkpt lat="43.60502" lon="6.30897">
        <ele>706</ele>
        <time>2022-12-11T11:57:13Z</time>
      </trkpt>
      <trkpt lat="43.60501" lon="6.30898">
        <ele>706</ele>
        <time>2022-12-11T11:57:14Z</time>
      </trkpt>
      <trkpt lat="43.60501" lon="6.30898">
        <ele>706</ele>
        <time>2022-12-11T11:57:15Z</time>
      </trkpt>
      <trkpt lat="43.60501" lon="6.30898">
        <ele>706</ele>
        <time>2022-12-11T11:57:16Z</time>
      </trkpt>
      <trkpt lat="43.605" lon="6.30899">
        <ele>706</ele>
        <time>2022-12-11T11:57:17Z</time>
      </trkpt>
      <trkpt lat="43.60499" lon="6.30899">
        <ele>706</ele>
        <time>2022-12-11T11:57:18Z</time>
      </trkpt>
      <trkpt lat="43.60498" lon="6.30899">
        <ele>706</ele>
        <time>2022-12-11T11:57:19Z</time>
      </trkpt>
      <trkpt lat="43.60498" lon="6.309">
        <ele>706</ele>
        <time>2022-12-11T11:57:20Z</time>
      </trkpt>
      <trkpt lat="43.60497" lon="6.309">
        <ele>706</ele>
        <time>2022-12-11T11:57:21Z</time>
      </trkpt>
      <trkpt lat="43.60497" lon="6.30901">
        <ele>705</ele>
        <time>2022-12-11T11:57:22Z</time>
      </trkpt>
      <trkpt lat="43.60496" lon="6.30901">
        <ele>705</ele>
        <time>2022-12-11T11:57:23Z</time>
      </trkpt>
      <trkpt lat="43.60496" lon="6.30901">
        <ele>705</ele>
        <time>2022-12-11T11:57:24Z</time>
      </trkpt>
      <trkpt lat="43.60495" lon="6.30901">
        <ele>705</ele>
        <time>2022-12-11T11:57:25Z</time>
      </trkpt>
      <trkpt lat="43.60495" lon="6.30901">
        <ele>705</ele>
        <time>2022-12-11T11:57:26Z</time>
      </trkpt>
      <trkpt lat="43.60494" lon="6.30901">
        <ele>705</ele>
        <time>2022-12-11T11:57:27Z</time>
      </trkpt>
      <trkpt lat="43.60493" lon="6.30901">
        <ele>705</ele>
        <time>2022-12-11T11:57:28Z</time>
      </trkpt>
      <trkpt lat="43.60492" lon="6.30901">
        <ele>704</ele>
        <time>2022-12-11T11:57:29Z</time>
      </trkpt>
      <trkpt lat="43.6049" lon="6.30902">
        <ele>704</ele>
        <time>2022-12-11T11:57:30Z</time>
      </trkpt>
      <trkpt lat="43.60489" lon="6.30902">
        <ele>704</ele>
        <time>2022-12-11T11:57:31Z</time>
      </trkpt>
      <trkpt lat="43.60488" lon="6.30902">
        <ele>704</ele>
        <time>2022-12-11T11:57:32Z</time>
      </trkpt>
      <trkpt lat="43.60488" lon="6.30903">
        <ele>704</ele>
        <time>2022-12-11T11:57:33Z</time>
      </trkpt>
      <trkpt lat="43.60487" lon="6.30903">
        <ele>704</ele>
        <time>2022-12-11T11:57:34Z</time>
      </trkpt>
      <trkpt lat="43.60486" lon="6.30903">
        <ele>704</ele>
        <time>2022-12-11T11:57:35Z</time>
      </trkpt>
      <trkpt lat="43.60485" lon="6.30903">
        <ele>704</ele>
        <time>2022-12-11T11:57:36Z</time>
      </trkpt>
      <trkpt lat="43.60484" lon="6.30903">
        <ele>704</ele>
        <time>2022-12-11T11:57:37Z</time>
      </trkpt>
      <trkpt lat="43.60483" lon="6.30903">
        <ele>704</ele>
        <time>2022-12-11T11:57:38Z</time>
      </trkpt>
      <trkpt lat="43.60482" lon="6.30902">
        <ele>704</ele>
        <time>2022-12-11T11:57:39Z</time>
      </trkpt>
      <trkpt lat="43.6048" lon="6.30902">
        <ele>704</ele>
        <time>2022-12-11T11:57:40Z</time>
      </trkpt>
      <trkpt lat="43.60479" lon="6.30901">
        <ele>704</ele>
        <time>2022-12-11T11:57:41Z</time>
      </trkpt>
      <trkpt lat="43.60477" lon="6.30901">
        <ele>704</ele>
        <time>2022-12-11T11:57:42Z</time>
      </trkpt>
      <trkpt lat="43.60476" lon="6.309">
        <ele>704</ele>
        <time>2022-12-11T11:57:43Z</time>
      </trkpt>
      <trkpt lat="43.60475" lon="6.30899">
        <ele>704</ele>
        <time>2022-12-11T11:57:44Z</time>
      </trkpt>
      <trkpt lat="43.60474" lon="6.30899">
        <ele>704</ele>
        <time>2022-12-11T11:57:45Z</time>
      </trkpt>
      <trkpt lat="43.60473" lon="6.30898">
        <ele>705</ele>
        <time>2022-12-11T11:57:46Z</time>
      </trkpt>
      <trkpt lat="43.60473" lon="6.30897">
        <ele>705</ele>
        <time>2022-12-11T11:57:47Z</time>
      </trkpt>
      <trkpt lat="43.60472" lon="6.30897">
        <ele>705</ele>
        <time>2022-12-11T11:57:48Z</time>
      </trkpt>
      <trkpt lat="43.60471" lon="6.30896">
        <ele>705</ele>
        <time>2022-12-11T11:57:49Z</time>
      </trkpt>
      <trkpt lat="43.60471" lon="6.30895">
        <ele>706</ele>
        <time>2022-12-11T11:57:50Z</time>
      </trkpt>
      <trkpt lat="43.6047" lon="6.30894">
        <ele>705</ele>
        <time>2022-12-11T11:57:51Z</time>
      </trkpt>
      <trkpt lat="43.6047" lon="6.30893">
        <ele>705</ele>
        <time>2022-12-11T11:57:52Z</time>
      </trkpt>
      <trkpt lat="43.60469" lon="6.30892">
        <ele>705</ele>
        <time>2022-12-11T11:57:53Z</time>
      </trkpt>
      <trkpt lat="43.60469" lon="6.30891">
        <ele>705</ele>
        <time>2022-12-11T11:57:54Z</time>
      </trkpt>
      <trkpt lat="43.60469" lon="6.3089">
        <ele>705</ele>
        <time>2022-12-11T11:57:55Z</time>
      </trkpt>
      <trkpt lat="43.60469" lon="6.30889">
        <ele>705</ele>
        <time>2022-12-11T11:57:56Z</time>
      </trkpt>
      <trkpt lat="43.60468" lon="6.30889">
        <ele>705</ele>
        <time>2022-12-11T11:57:57Z</time>
      </trkpt>
      <trkpt lat="43.60468" lon="6.30888">
        <ele>705</ele>
        <time>2022-12-11T11:57:58Z</time>
      </trkpt>
      <trkpt lat="43.60468" lon="6.30887">
        <ele>705</ele>
        <time>2022-12-11T11:57:59Z</time>
      </trkpt>
      <trkpt lat="43.60468" lon="6.30886">
        <ele>705</ele>
        <time>2022-12-11T11:58:00Z</time>
      </trkpt>
      <trkpt lat="43.60468" lon="6.30886">
        <ele>704</ele>
        <time>2022-12-11T11:58:01Z</time>
      </trkpt>
      <trkpt lat="43.60467" lon="6.30885">
        <ele>704</ele>
        <time>2022-12-11T11:58:02Z</time>
      </trkpt>
      <trkpt lat="43.60467" lon="6.30884">
        <ele>704</ele>
        <time>2022-12-11T11:58:03Z</time>
      </trkpt>
      <trkpt lat="43.60467" lon="6.30883">
        <ele>704</ele>
        <time>2022-12-11T11:58:04Z</time>
      </trkpt>
      <trkpt lat="43.60466" lon="6.30882">
        <ele>704</ele>
        <time>2022-12-11T11:58:05Z</time>
      </trkpt>
      <trkpt lat="43.60466" lon="6.30881">
        <ele>704</ele>
        <time>2022-12-11T11:58:06Z</time>
      </trkpt>
      <trkpt lat="43.60466" lon="6.3088">
        <ele>704</ele>
        <time>2022-12-11T11:58:07Z</time>
      </trkpt>
      <trkpt lat="43.60466" lon="6.30879">
        <ele>704</ele>
        <time>2022-12-11T11:58:08Z</time>
      </trkpt>
      <trkpt lat="43.60465" lon="6.30878">
        <ele>704</ele>
        <time>2022-12-11T11:58:09Z</time>
      </trkpt>
      <trkpt lat="43.60465" lon="6.30877">
        <ele>704</ele>
        <time>2022-12-11T11:58:10Z</time>
      </trkpt>
      <trkpt lat="43.60465" lon="6.30876">
        <ele>704</ele>
        <time>2022-12-11T11:58:11Z</time>
      </trkpt>
      <trkpt lat="43.60464" lon="6.30875">
        <ele>704</ele>
        <time>2022-12-11T11:58:12Z</time>
      </trkpt>
      <trkpt lat="43.60464" lon="6.30874">
        <ele>703</ele>
        <time>2022-12-11T11:58:13Z</time>
      </trkpt>
      <trkpt lat="43.60463" lon="6.30873">
        <ele>703</ele>
        <time>2022-12-11T11:58:14Z</time>
      </trkpt>
      <trkpt lat="43.60463" lon="6.30872">
        <ele>703</ele>
        <time>2022-12-11T11:58:15Z</time>
      </trkpt>
      <trkpt lat="43.60462" lon="6.30871">
        <ele>703</ele>
        <time>2022-12-11T11:58:16Z</time>
      </trkpt>
      <trkpt lat="43.60462" lon="6.3087">
        <ele>703</ele>
        <time>2022-12-11T11:58:17Z</time>
      </trkpt>
      <trkpt lat="43.60462" lon="6.30869">
        <ele>703</ele>
        <time>2022-12-11T11:58:18Z</time>
      </trkpt>
      <trkpt lat="43.60462" lon="6.30868">
        <ele>703</ele>
        <time>2022-12-11T11:58:19Z</time>
      </trkpt>
      <trkpt lat="43.60462" lon="6.30867">
        <ele>703</ele>
        <time>2022-12-11T11:58:20Z</time>
      </trkpt>
      <trkpt lat="43.60461" lon="6.30866">
        <ele>703</ele>
        <time>2022-12-11T11:58:21Z</time>
      </trkpt>
      <trkpt lat="43.60461" lon="6.30865">
        <ele>703</ele>
        <time>2022-12-11T11:58:22Z</time>
      </trkpt>
      <trkpt lat="43.60461" lon="6.30864">
        <ele>703</ele>
        <time>2022-12-11T11:58:23Z</time>
      </trkpt>
      <trkpt lat="43.60461" lon="6.30863">
        <ele>703</ele>
        <time>2022-12-11T11:58:24Z</time>
      </trkpt>
      <trkpt lat="43.60461" lon="6.30862">
        <ele>703</ele>
        <time>2022-12-11T11:58:25Z</time>
      </trkpt>
      <trkpt lat="43.60461" lon="6.30861">
        <ele>703</ele>
        <time>2022-12-11T11:58:26Z</time>
      </trkpt>
      <trkpt lat="43.60461" lon="6.30861">
        <ele>703</ele>
        <time>2022-12-11T11:58:27Z</time>
      </trkpt>
      <trkpt lat="43.60461" lon="6.30861">
        <ele>703</ele>
        <time>2022-12-11T11:58:28Z</time>
      </trkpt>
      <trkpt lat="43.60461" lon="6.3086">
        <ele>703</ele>
        <time>2022-12-11T11:58:29Z</time>
      </trkpt>
      <trkpt lat="43.60461" lon="6.30859">
        <ele>702</ele>
        <time>2022-12-11T11:58:30Z</time>
      </trkpt>
      <trkpt lat="43.60462" lon="6.30858">
        <ele>702</ele>
        <time>2022-12-11T11:58:31Z</time>
      </trkpt>
      <trkpt lat="43.60462" lon="6.30857">
        <ele>702</ele>
        <time>2022-12-11T11:58:32Z</time>
      </trkpt>
      <trkpt lat="43.60462" lon="6.30856">
        <ele>702</ele>
        <time>2022-12-11T11:58:33Z</time>
      </trkpt>
      <trkpt lat="43.60462" lon="6.30855">
        <ele>702</ele>
        <time>2022-12-11T11:58:34Z</time>
      </trkpt>
      <trkpt lat="43.60462" lon="6.30854">
        <ele>702</ele>
        <time>2022-12-11T11:58:35Z</time>
      </trkpt>
      <trkpt lat="43.60461" lon="6.30852">
        <ele>702</ele>
        <time>2022-12-11T11:58:36Z</time>
      </trkpt>
      <trkpt lat="43.60461" lon="6.30851">
        <ele>702</ele>
        <time>2022-12-11T11:58:37Z</time>
      </trkpt>
      <trkpt lat="43.60461" lon="6.3085">
        <ele>702</ele>
        <time>2022-12-11T11:58:38Z</time>
      </trkpt>
      <trkpt lat="43.60461" lon="6.30849">
        <ele>702</ele>
        <time>2022-12-11T11:58:39Z</time>
      </trkpt>
      <trkpt lat="43.60462" lon="6.30849">
        <ele>702</ele>
        <time>2022-12-11T11:58:40Z</time>
      </trkpt>
      <trkpt lat="43.60462" lon="6.30847">
        <ele>703</ele>
        <time>2022-12-11T11:58:41Z</time>
      </trkpt>
      <trkpt lat="43.60462" lon="6.30846">
        <ele>704</ele>
        <time>2022-12-11T11:58:42Z</time>
      </trkpt>
      <trkpt lat="43.60462" lon="6.30845">
        <ele>704</ele>
        <time>2022-12-11T11:58:43Z</time>
      </trkpt>
      <trkpt lat="43.60462" lon="6.30844">
        <ele>704</ele>
        <time>2022-12-11T11:58:44Z</time>
      </trkpt>
      <trkpt lat="43.60462" lon="6.30843">
        <ele>704</ele>
        <time>2022-12-11T11:58:45Z</time>
      </trkpt>
      <trkpt lat="43.60462" lon="6.30842">
        <ele>704</ele>
        <time>2022-12-11T11:58:46Z</time>
      </trkpt>
      <trkpt lat="43.60462" lon="6.3084">
        <ele>704</ele>
        <time>2022-12-11T11:58:47Z</time>
      </trkpt>
      <trkpt lat="43.60461" lon="6.30839">
        <ele>705</ele>
        <time>2022-12-11T11:58:48Z</time>
      </trkpt>
      <trkpt lat="43.60461" lon="6.30838">
        <ele>705</ele>
        <time>2022-12-11T11:58:49Z</time>
      </trkpt>
      <trkpt lat="43.60461" lon="6.30837">
        <ele>705</ele>
        <time>2022-12-11T11:58:50Z</time>
      </trkpt>
      <trkpt lat="43.6046" lon="6.30836">
        <ele>705</ele>
        <time>2022-12-11T11:58:51Z</time>
      </trkpt>
      <trkpt lat="43.60459" lon="6.30835">
        <ele>706</ele>
        <time>2022-12-11T11:58:52Z</time>
      </trkpt>
      <trkpt lat="43.60459" lon="6.30834">
        <ele>706</ele>
        <time>2022-12-11T11:58:53Z</time>
      </trkpt>
      <trkpt lat="43.60458" lon="6.30834">
        <ele>707</ele>
        <time>2022-12-11T11:58:54Z</time>
      </trkpt>
      <trkpt lat="43.60457" lon="6.30833">
        <ele>707</ele>
        <time>2022-12-11T11:58:55Z</time>
      </trkpt>
      <trkpt lat="43.60456" lon="6.30832">
        <ele>707</ele>
        <time>2022-12-11T11:58:56Z</time>
      </trkpt>
      <trkpt lat="43.60455" lon="6.30831">
        <ele>707</ele>
        <time>2022-12-11T11:58:57Z</time>
      </trkpt>
      <trkpt lat="43.60454" lon="6.30831">
        <ele>707</ele>
        <time>2022-12-11T11:58:58Z</time>
      </trkpt>
      <trkpt lat="43.60453" lon="6.3083">
        <ele>707</ele>
        <time>2022-12-11T11:58:59Z</time>
      </trkpt>
      <trkpt lat="43.60452" lon="6.30829">
        <ele>707</ele>
        <time>2022-12-11T11:59:00Z</time>
      </trkpt>
      <trkpt lat="43.60452" lon="6.30828">
        <ele>708</ele>
        <time>2022-12-11T11:59:01Z</time>
      </trkpt>
      <trkpt lat="43.60451" lon="6.30827">
        <ele>709</ele>
        <time>2022-12-11T11:59:02Z</time>
      </trkpt>
      <trkpt lat="43.6045" lon="6.30826">
        <ele>709</ele>
        <time>2022-12-11T11:59:03Z</time>
      </trkpt>
      <trkpt lat="43.6045" lon="6.30825">
        <ele>709</ele>
        <time>2022-12-11T11:59:04Z</time>
      </trkpt>
      <trkpt lat="43.60449" lon="6.30823">
        <ele>709</ele>
        <time>2022-12-11T11:59:05Z</time>
      </trkpt>
      <trkpt lat="43.60449" lon="6.30822">
        <ele>709</ele>
        <time>2022-12-11T11:59:06Z</time>
      </trkpt>
      <trkpt lat="43.60449" lon="6.30821">
        <ele>709</ele>
        <time>2022-12-11T11:59:07Z</time>
      </trkpt>
      <trkpt lat="43.60448" lon="6.3082">
        <ele>709</ele>
        <time>2022-12-11T11:59:08Z</time>
      </trkpt>
      <trkpt lat="43.60448" lon="6.30819">
        <ele>709</ele>
        <time>2022-12-11T11:59:09Z</time>
      </trkpt>
      <trkpt lat="43.60447" lon="6.30817">
        <ele>709</ele>
        <time>2022-12-11T11:59:10Z</time>
      </trkpt>
      <trkpt lat="43.60447" lon="6.30816">
        <ele>709</ele>
        <time>2022-12-11T11:59:11Z</time>
      </trkpt>
      <trkpt lat="43.60446" lon="6.30814">
        <ele>709</ele>
        <time>2022-12-11T11:59:12Z</time>
      </trkpt>
      <trkpt lat="43.60446" lon="6.30813">
        <ele>709</ele>
        <time>2022-12-11T11:59:13Z</time>
      </trkpt>
      <trkpt lat="43.60446" lon="6.30811">
        <ele>709</ele>
        <time>2022-12-11T11:59:14Z</time>
      </trkpt>
      <trkpt lat="43.60446" lon="6.3081">
        <ele>709</ele>
        <time>2022-12-11T11:59:15Z</time>
      </trkpt>
      <trkpt lat="43.60445" lon="6.30808">
        <ele>709</ele>
        <time>2022-12-11T11:59:16Z</time>
      </trkpt>
      <trkpt lat="43.60445" lon="6.30807">
        <ele>710</ele>
        <time>2022-12-11T11:59:17Z</time>
      </trkpt>
      <trkpt lat="43.60444" lon="6.30806">
        <ele>710</ele>
        <time>2022-12-11T11:59:18Z</time>
      </trkpt>
      <trkpt lat="43.60444" lon="6.30805">
        <ele>710</ele>
        <time>2022-12-11T11:59:19Z</time>
      </trkpt>
      <trkpt lat="43.60444" lon="6.30804">
        <ele>710</ele>
        <time>2022-12-11T11:59:20Z</time>
      </trkpt>
      <trkpt lat="43.60443" lon="6.30802">
        <ele>710</ele>
        <time>2022-12-11T11:59:21Z</time>
      </trkpt>
      <trkpt lat="43.60443" lon="6.30801">
        <ele>710</ele>
        <time>2022-12-11T11:59:22Z</time>
      </trkpt>
      <trkpt lat="43.60442" lon="6.30801">
        <ele>710</ele>
        <time>2022-12-11T11:59:23Z</time>
      </trkpt>
      <trkpt lat="43.60441" lon="6.308">
        <ele>710</ele>
        <time>2022-12-11T11:59:24Z</time>
      </trkpt>
      <trkpt lat="43.60441" lon="6.30799">
        <ele>710</ele>
        <time>2022-12-11T11:59:25Z</time>
      </trkpt>
      <trkpt lat="43.6044" lon="6.30798">
        <ele>710</ele>
        <time>2022-12-11T11:59:26Z</time>
      </trkpt>
      <trkpt lat="43.6044" lon="6.30797">
        <ele>710</ele>
        <time>2022-12-11T11:59:27Z</time>
      </trkpt>
      <trkpt lat="43.60439" lon="6.30796">
        <ele>710</ele>
        <time>2022-12-11T11:59:28Z</time>
      </trkpt>
      <trkpt lat="43.60439" lon="6.30795">
        <ele>710</ele>
        <time>2022-12-11T11:59:29Z</time>
      </trkpt>
      <trkpt lat="43.60439" lon="6.30794">
        <ele>710</ele>
        <time>2022-12-11T11:59:30Z</time>
      </trkpt>
      <trkpt lat="43.60438" lon="6.30793">
        <ele>710</ele>
        <time>2022-12-11T11:59:31Z</time>
      </trkpt>
      <trkpt lat="43.60438" lon="6.30792">
        <ele>710</ele>
        <time>2022-12-11T11:59:32Z</time>
      </trkpt>
      <trkpt lat="43.60437" lon="6.30791">
        <ele>710</ele>
        <time>2022-12-11T11:59:33Z</time>
      </trkpt>
      <trkpt lat="43.60437" lon="6.3079">
        <ele>710</ele>
        <time>2022-12-11T11:59:34Z</time>
      </trkpt>
      <trkpt lat="43.60436" lon="6.30789">
        <ele>710</ele>
        <time>2022-12-11T11:59:35Z</time>
      </trkpt>
      <trkpt lat="43.60436" lon="6.30787">
        <ele>710</ele>
        <time>2022-12-11T11:59:36Z</time>
      </trkpt>
      <trkpt lat="43.60436" lon="6.30786">
        <ele>710</ele>
        <time>2022-12-11T11:59:37Z</time>
      </trkpt>
      <trkpt lat="43.60435" lon="6.30785">
        <ele>710</ele>
        <time>2022-12-11T11:59:38Z</time>
      </trkpt>
      <trkpt lat="43.60435" lon="6.30783">
        <ele>710</ele>
        <time>2022-12-11T11:59:39Z</time>
      </trkpt>
      <trkpt lat="43.60435" lon="6.30782">
        <ele>710</ele>
        <time>2022-12-11T11:59:40Z</time>
      </trkpt>
      <trkpt lat="43.60434" lon="6.30781">
        <ele>710</ele>
        <time>2022-12-11T11:59:41Z</time>
      </trkpt>
      <trkpt lat="43.60434" lon="6.3078">
        <ele>710</ele>
        <time>2022-12-11T11:59:42Z</time>
      </trkpt>
      <trkpt lat="43.60433" lon="6.30778">
        <ele>710</ele>
        <time>2022-12-11T11:59:43Z</time>
      </trkpt>
      <trkpt lat="43.60433" lon="6.30777">
        <ele>709</ele>
        <time>2022-12-11T11:59:44Z</time>
      </trkpt>
      <trkpt lat="43.60432" lon="6.30776">
        <ele>709</ele>
        <time>2022-12-11T11:59:45Z</time>
      </trkpt>
      <trkpt lat="43.60432" lon="6.30775">
        <ele>709</ele>
        <time>2022-12-11T11:59:46Z</time>
      </trkpt>
      <trkpt lat="43.60432" lon="6.30774">
        <ele>709</ele>
        <time>2022-12-11T11:59:47Z</time>
      </trkpt>
      <trkpt lat="43.60431" lon="6.30773">
        <ele>709</ele>
        <time>2022-12-11T11:59:48Z</time>
      </trkpt>
      <trkpt lat="43.60431" lon="6.30772">
        <ele>709</ele>
        <time>2022-12-11T11:59:49Z</time>
      </trkpt>
      <trkpt lat="43.6043" lon="6.3077">
        <ele>709</ele>
        <time>2022-12-11T11:59:50Z</time>
      </trkpt>
      <trkpt lat="43.6043" lon="6.30769">
        <ele>709</ele>
        <time>2022-12-11T11:59:51Z</time>
      </trkpt>
      <trkpt lat="43.60429" lon="6.30768">
        <ele>709</ele>
        <time>2022-12-11T11:59:52Z</time>
      </trkpt>
      <trkpt lat="43.60429" lon="6.30768">
        <ele>709</ele>
        <time>2022-12-11T11:59:53Z</time>
      </trkpt>
      <trkpt lat="43.60429" lon="6.30767">
        <ele>709</ele>
        <time>2022-12-11T11:59:54Z</time>
      </trkpt>
      <trkpt lat="43.60428" lon="6.30766">
        <ele>709</ele>
        <time>2022-12-11T11:59:55Z</time>
      </trkpt>
      <trkpt lat="43.60428" lon="6.30764">
        <ele>710</ele>
        <time>2022-12-11T11:59:56Z</time>
      </trkpt>
      <trkpt lat="43.60428" lon="6.30763">
        <ele>710</ele>
        <time>2022-12-11T11:59:57Z</time>
      </trkpt>
      <trkpt lat="43.60427" lon="6.30762">
        <ele>710</ele>
        <time>2022-12-11T11:59:58Z</time>
      </trkpt>
      <trkpt lat="43.60426" lon="6.30761">
        <ele>710</ele>
        <time>2022-12-11T11:59:59Z</time>
      </trkpt>
      <trkpt lat="43.60426" lon="6.3076">
        <ele>710</ele>
        <time>2022-12-11T12:00:00Z</time>
      </trkpt>
      <trkpt lat="43.60425" lon="6.30759">
        <ele>710</ele>
        <time>2022-12-11T12:00:01Z</time>
      </trkpt>
      <trkpt lat="43.60425" lon="6.30758">
        <ele>710</ele>
        <time>2022-12-11T12:00:02Z</time>
      </trkpt>
      <trkpt lat="43.60424" lon="6.30757">
        <ele>709</ele>
        <time>2022-12-11T12:00:03Z</time>
      </trkpt>
      <trkpt lat="43.60424" lon="6.30756">
        <ele>709</ele>
        <time>2022-12-11T12:00:04Z</time>
      </trkpt>
      <trkpt lat="43.60423" lon="6.30755">
        <ele>709</ele>
        <time>2022-12-11T12:00:05Z</time>
      </trkpt>
      <trkpt lat="43.60422" lon="6.30754">
        <ele>709</ele>
        <time>2022-12-11T12:00:06Z</time>
      </trkpt>
      <trkpt lat="43.60422" lon="6.30752">
        <ele>709</ele>
        <time>2022-12-11T12:00:07Z</time>
      </trkpt>
      <trkpt lat="43.60421" lon="6.30751">
        <ele>709</ele>
        <time>2022-12-11T12:00:08Z</time>
      </trkpt>
      <trkpt lat="43.6042" lon="6.3075">
        <ele>709</ele>
        <time>2022-12-11T12:00:09Z</time>
      </trkpt>
      <trkpt lat="43.6042" lon="6.30749">
        <ele>709</ele>
        <time>2022-12-11T12:00:10Z</time>
      </trkpt>
      <trkpt lat="43.6042" lon="6.30748">
        <ele>709</ele>
        <time>2022-12-11T12:00:11Z</time>
      </trkpt>
      <trkpt lat="43.6042" lon="6.30746">
        <ele>709</ele>
        <time>2022-12-11T12:00:12Z</time>
      </trkpt>
      <trkpt lat="43.6042" lon="6.30745">
        <ele>709</ele>
        <time>2022-12-11T12:00:13Z</time>
      </trkpt>
      <trkpt lat="43.6042" lon="6.30744">
        <ele>709</ele>
        <time>2022-12-11T12:00:14Z</time>
      </trkpt>
      <trkpt lat="43.6042" lon="6.30742">
        <ele>709</ele>
        <time>2022-12-11T12:00:15Z</time>
      </trkpt>
      <trkpt lat="43.6042" lon="6.30741">
        <ele>709</ele>
        <time>2022-12-11T12:00:16Z</time>
      </trkpt>
      <trkpt lat="43.6042" lon="6.30739">
        <ele>709</ele>
        <time>2022-12-11T12:00:17Z</time>
      </trkpt>
      <trkpt lat="43.60421" lon="6.30738">
        <ele>709</ele>
        <time>2022-12-11T12:00:18Z</time>
      </trkpt>
      <trkpt lat="43.60421" lon="6.30738">
        <ele>709</ele>
        <time>2022-12-11T12:00:19Z</time>
      </trkpt>
      <trkpt lat="43.60421" lon="6.30737">
        <ele>709</ele>
        <time>2022-12-11T12:00:20Z</time>
      </trkpt>
      <trkpt lat="43.60421" lon="6.30738">
        <ele>709</ele>
        <time>2022-12-11T12:00:21Z</time>
      </trkpt>
      <trkpt lat="43.60421" lon="6.30738">
        <ele>709</ele>
        <time>2022-12-11T12:00:22Z</time>
      </trkpt>
      <trkpt lat="43.60421" lon="6.30738">
        <ele>709</ele>
        <time>2022-12-11T12:00:23Z</time>
      </trkpt>
      <trkpt lat="43.60421" lon="6.30738">
        <ele>709</ele>
        <time>2022-12-11T12:00:24Z</time>
      </trkpt>
      <trkpt lat="43.60421" lon="6.30738">
        <ele>709</ele>
        <time>2022-12-11T12:00:25Z</time>
      </trkpt>
      <trkpt lat="43.60421" lon="6.30738">
        <ele>709</ele>
        <time>2022-12-11T12:00:26Z</time>
      </trkpt>
      <trkpt lat="43.60421" lon="6.30738">
        <ele>709</ele>
        <time>2022-12-11T12:00:27Z</time>
      </trkpt>
      <trkpt lat="43.60421" lon="6.30738">
        <ele>709</ele>
        <time>2022-12-11T12:00:28Z</time>
      </trkpt>
      <trkpt lat="43.60421" lon="6.30738">
        <ele>709</ele>
        <time>2022-12-11T12:00:29Z</time>
      </trkpt>
      <trkpt lat="43.60421" lon="6.30738">
        <ele>709</ele>
        <time>2022-12-11T12:00:30Z</time>
      </trkpt>
      <trkpt lat="43.60421" lon="6.30738">
        <ele>709</ele>
        <time>2022-12-11T12:00:31Z</time>
      </trkpt>
      <trkpt lat="43.60421" lon="6.30738">
        <ele>709</ele>
        <time>2022-12-11T12:00:32Z</time>
      </trkpt>
      <trkpt lat="43.60421" lon="6.30738">
        <ele>709</ele>
        <time>2022-12-11T12:00:33Z</time>
      </trkpt>
      <trkpt lat="43.6042" lon="6.30742">
        <ele>709</ele>
        <time>2022-12-11T12:00:34Z</time>
      </trkpt>
      <trkpt lat="43.6042" lon="6.30743">
        <ele>709</ele>
        <time>2022-12-11T12:00:35Z</time>
      </trkpt>
      <trkpt lat="43.6042" lon="6.30743">
        <ele>709</ele>
        <time>2022-12-11T12:00:36Z</time>
      </trkpt>
      <trkpt lat="43.60421" lon="6.30743">
        <ele>709</ele>
        <time>2022-12-11T12:00:37Z</time>
      </trkpt>
      <trkpt lat="43.60421" lon="6.30743">
        <ele>709</ele>
        <time>2022-12-11T12:00:38Z</time>
      </trkpt>
      <trkpt lat="43.60421" lon="6.30742">
        <ele>709</ele>
        <time>2022-12-11T12:00:39Z</time>
      </trkpt>
      <trkpt lat="43.60422" lon="6.30741">
        <ele>709</ele>
        <time>2022-12-11T12:00:40Z</time>
      </trkpt>
      <trkpt lat="43.60422" lon="6.30741">
        <ele>709</ele>
        <time>2022-12-11T12:00:41Z</time>
      </trkpt>
      <trkpt lat="43.60422" lon="6.30741">
        <ele>709</ele>
        <time>2022-12-11T12:00:42Z</time>
      </trkpt>
      <trkpt lat="43.60423" lon="6.30741">
        <ele>709</ele>
        <time>2022-12-11T12:00:43Z</time>
      </trkpt>
      <trkpt lat="43.60423" lon="6.3074">
        <ele>709</ele>
        <time>2022-12-11T12:00:44Z</time>
      </trkpt>
      <trkpt lat="43.60424" lon="6.3074">
        <ele>709</ele>
        <time>2022-12-11T12:00:45Z</time>
      </trkpt>
      <trkpt lat="43.60424" lon="6.3074">
        <ele>709</ele>
        <time>2022-12-11T12:00:46Z</time>
      </trkpt>
      <trkpt lat="43.60425" lon="6.30739">
        <ele>709</ele>
        <time>2022-12-11T12:00:47Z</time>
      </trkpt>
      <trkpt lat="43.60425" lon="6.30739">
        <ele>709</ele>
        <time>2022-12-11T12:00:48Z</time>
      </trkpt>
      <trkpt lat="43.60426" lon="6.30738">
        <ele>709</ele>
        <time>2022-12-11T12:00:49Z</time>
      </trkpt>
      <trkpt lat="43.60426" lon="6.30738">
        <ele>709</ele>
        <time>2022-12-11T12:00:50Z</time>
      </trkpt>
      <trkpt lat="43.60427" lon="6.30738">
        <ele>709</ele>
        <time>2022-12-11T12:00:51Z</time>
      </trkpt>
      <trkpt lat="43.60427" lon="6.30738">
        <ele>709</ele>
        <time>2022-12-11T12:00:52Z</time>
      </trkpt>
      <trkpt lat="43.60428" lon="6.30738">
        <ele>709</ele>
        <time>2022-12-11T12:00:53Z</time>
      </trkpt>
      <trkpt lat="43.60428" lon="6.30738">
        <ele>709</ele>
        <time>2022-12-11T12:00:54Z</time>
      </trkpt>
      <trkpt lat="43.60429" lon="6.30737">
        <ele>710</ele>
        <time>2022-12-11T12:00:55Z</time>
      </trkpt>
      <trkpt lat="43.6043" lon="6.30737">
        <ele>710</ele>
        <time>2022-12-11T12:00:56Z</time>
      </trkpt>
      <trkpt lat="43.6043" lon="6.30736">
        <ele>710</ele>
        <time>2022-12-11T12:00:57Z</time>
      </trkpt>
      <trkpt lat="43.60431" lon="6.30736">
        <ele>710</ele>
        <time>2022-12-11T12:00:58Z</time>
      </trkpt>
      <trkpt lat="43.60432" lon="6.30736">
        <ele>710</ele>
        <time>2022-12-11T12:00:59Z</time>
      </trkpt>
      <trkpt lat="43.60432" lon="6.30735">
        <ele>710</ele>
        <time>2022-12-11T12:01:00Z</time>
      </trkpt>
      <trkpt lat="43.60433" lon="6.30734">
        <ele>710</ele>
        <time>2022-12-11T12:01:01Z</time>
      </trkpt>
      <trkpt lat="43.60434" lon="6.30734">
        <ele>709</ele>
        <time>2022-12-11T12:01:02Z</time>
      </trkpt>
      <trkpt lat="43.60435" lon="6.30733">
        <ele>709</ele>
        <time>2022-12-11T12:01:03Z</time>
      </trkpt>
      <trkpt lat="43.60435" lon="6.30732">
        <ele>709</ele>
        <time>2022-12-11T12:01:04Z</time>
      </trkpt>
      <trkpt lat="43.60436" lon="6.30732">
        <ele>709</ele>
        <time>2022-12-11T12:01:05Z</time>
      </trkpt>
      <trkpt lat="43.60437" lon="6.30731">
        <ele>709</ele>
        <time>2022-12-11T12:01:06Z</time>
      </trkpt>
      <trkpt lat="43.60438" lon="6.30731">
        <ele>709</ele>
        <time>2022-12-11T12:01:07Z</time>
      </trkpt>
      <trkpt lat="43.60438" lon="6.3073">
        <ele>709</ele>
        <time>2022-12-11T12:01:08Z</time>
      </trkpt>
      <trkpt lat="43.60439" lon="6.3073">
        <ele>709</ele>
        <time>2022-12-11T12:01:09Z</time>
      </trkpt>
      <trkpt lat="43.6044" lon="6.3073">
        <ele>709</ele>
        <time>2022-12-11T12:01:10Z</time>
      </trkpt>
      <trkpt lat="43.60441" lon="6.3073">
        <ele>709</ele>
        <time>2022-12-11T12:01:11Z</time>
      </trkpt>
      <trkpt lat="43.60441" lon="6.3073">
        <ele>709</ele>
        <time>2022-12-11T12:01:12Z</time>
      </trkpt>
      <trkpt lat="43.60443" lon="6.30729">
        <ele>708</ele>
        <time>2022-12-11T12:01:13Z</time>
      </trkpt>
      <trkpt lat="43.60444" lon="6.30728">
        <ele>708</ele>
        <time>2022-12-11T12:01:14Z</time>
      </trkpt>
      <trkpt lat="43.60445" lon="6.30727">
        <ele>708</ele>
        <time>2022-12-11T12:01:15Z</time>
      </trkpt>
      <trkpt lat="43.60447" lon="6.30726">
        <ele>706</ele>
        <time>2022-12-11T12:01:16Z</time>
      </trkpt>
      <trkpt lat="43.60448" lon="6.30725">
        <ele>705</ele>
        <time>2022-12-11T12:01:17Z</time>
      </trkpt>
      <trkpt lat="43.6045" lon="6.30724">
        <ele>705</ele>
        <time>2022-12-11T12:01:18Z</time>
      </trkpt>
      <trkpt lat="43.60452" lon="6.30722">
        <ele>704</ele>
        <time>2022-12-11T12:01:19Z</time>
      </trkpt>
      <trkpt lat="43.60453" lon="6.30722">
        <ele>704</ele>
        <time>2022-12-11T12:01:20Z</time>
      </trkpt>
      <trkpt lat="43.60454" lon="6.30721">
        <ele>704</ele>
        <time>2022-12-11T12:01:21Z</time>
      </trkpt>
      <trkpt lat="43.60455" lon="6.30721">
        <ele>704</ele>
        <time>2022-12-11T12:01:22Z</time>
      </trkpt>
      <trkpt lat="43.60455" lon="6.30719">
        <ele>704</ele>
        <time>2022-12-11T12:01:23Z</time>
      </trkpt>
      <trkpt lat="43.60455" lon="6.30718">
        <ele>703</ele>
        <time>2022-12-11T12:01:24Z</time>
      </trkpt>
      <trkpt lat="43.60455" lon="6.30717">
        <ele>703</ele>
        <time>2022-12-11T12:01:25Z</time>
      </trkpt>
      <trkpt lat="43.60455" lon="6.30716">
        <ele>703</ele>
        <time>2022-12-11T12:01:26Z</time>
      </trkpt>
      <trkpt lat="43.60455" lon="6.30715">
        <ele>703</ele>
        <time>2022-12-11T12:01:27Z</time>
      </trkpt>
      <trkpt lat="43.60455" lon="6.30715">
        <ele>703</ele>
        <time>2022-12-11T12:01:28Z</time>
      </trkpt>
      <trkpt lat="43.60455" lon="6.30715">
        <ele>703</ele>
        <time>2022-12-11T12:01:29Z</time>
      </trkpt>
      <trkpt lat="43.60455" lon="6.30715">
        <ele>703</ele>
        <time>2022-12-11T12:01:30Z</time>
      </trkpt>
      <trkpt lat="43.60455" lon="6.30715">
        <ele>703</ele>
        <time>2022-12-11T12:01:31Z</time>
      </trkpt>
      <trkpt lat="43.60456" lon="6.30716">
        <ele>703</ele>
        <time>2022-12-11T12:01:32Z</time>
      </trkpt>
      <trkpt lat="43.60456" lon="6.30716">
        <ele>703</ele>
        <time>2022-12-11T12:01:33Z</time>
      </trkpt>
      <trkpt lat="43.60456" lon="6.30717">
        <ele>703</ele>
        <time>2022-12-11T12:01:34Z</time>
      </trkpt>
      <trkpt lat="43.60457" lon="6.30717">
        <ele>703</ele>
        <time>2022-12-11T12:01:35Z</time>
      </trkpt>
      <trkpt lat="43.60457" lon="6.30717">
        <ele>703</ele>
        <time>2022-12-11T12:01:36Z</time>
      </trkpt>
      <trkpt lat="43.60458" lon="6.30717">
        <ele>703</ele>
        <time>2022-12-11T12:01:37Z</time>
      </trkpt>
      <trkpt lat="43.60458" lon="6.30717">
        <ele>703</ele>
        <time>2022-12-11T12:01:38Z</time>
      </trkpt>
      <trkpt lat="43.60459" lon="6.30716">
        <ele>703</ele>
        <time>2022-12-11T12:01:39Z</time>
      </trkpt>
      <trkpt lat="43.60459" lon="6.30715">
        <ele>703</ele>
        <time>2022-12-11T12:01:40Z</time>
      </trkpt>
      <trkpt lat="43.6046" lon="6.30714">
        <ele>703</ele>
        <time>2022-12-11T12:01:41Z</time>
      </trkpt>
      <trkpt lat="43.6046" lon="6.30714">
        <ele>703</ele>
        <time>2022-12-11T12:01:42Z</time>
      </trkpt>
      <trkpt lat="43.6046" lon="6.30713">
        <ele>703</ele>
        <time>2022-12-11T12:01:43Z</time>
      </trkpt>
      <trkpt lat="43.6046" lon="6.30713">
        <ele>703</ele>
        <time>2022-12-11T12:01:44Z</time>
      </trkpt>
      <trkpt lat="43.6046" lon="6.30712">
        <ele>703</ele>
        <time>2022-12-11T12:01:45Z</time>
      </trkpt>
      <trkpt lat="43.60461" lon="6.30712">
        <ele>703</ele>
        <time>2022-12-11T12:01:46Z</time>
      </trkpt>
      <trkpt lat="43.60461" lon="6.30711">
        <ele>703</ele>
        <time>2022-12-11T12:01:47Z</time>
      </trkpt>
      <trkpt lat="43.60461" lon="6.30711">
        <ele>703</ele>
        <time>2022-12-11T12:01:48Z</time>
      </trkpt>
      <trkpt lat="43.60461" lon="6.30711">
        <ele>703</ele>
        <time>2022-12-11T12:01:49Z</time>
      </trkpt>
      <trkpt lat="43.60461" lon="6.30711">
        <ele>703</ele>
        <time>2022-12-11T12:01:50Z</time>
      </trkpt>
      <trkpt lat="43.60462" lon="6.3071">
        <ele>703</ele>
        <time>2022-12-11T12:01:51Z</time>
      </trkpt>
      <trkpt lat="43.60462" lon="6.3071">
        <ele>702</ele>
        <time>2022-12-11T12:01:52Z</time>
      </trkpt>
      <trkpt lat="43.60462" lon="6.3071">
        <ele>702</ele>
        <time>2022-12-11T12:01:53Z</time>
      </trkpt>
      <trkpt lat="43.60462" lon="6.3071">
        <ele>702</ele>
        <time>2022-12-11T12:01:54Z</time>
      </trkpt>
      <trkpt lat="43.60462" lon="6.3071">
        <ele>702</ele>
        <time>2022-12-11T12:01:55Z</time>
      </trkpt>
      <trkpt lat="43.60462" lon="6.3071">
        <ele>702</ele>
        <time>2022-12-11T12:01:56Z</time>
      </trkpt>
      <trkpt lat="43.60462" lon="6.3071">
        <ele>702</ele>
        <time>2022-12-11T12:01:57Z</time>
      </trkpt>
      <trkpt lat="43.60462" lon="6.3071">
        <ele>702</ele>
        <time>2022-12-11T12:01:58Z</time>
      </trkpt>
      <trkpt lat="43.60462" lon="6.3071">
        <ele>702</ele>
        <time>2022-12-11T12:01:59Z</time>
      </trkpt>
      <trkpt lat="43.60462" lon="6.3071">
        <ele>702</ele>
        <time>2022-12-11T12:02:00Z</time>
      </trkpt>
      <trkpt lat="43.60462" lon="6.3071">
        <ele>702</ele>
        <time>2022-12-11T12:02:01Z</time>
      </trkpt>
      <trkpt lat="43.60462" lon="6.3071">
        <ele>702</ele>
        <time>2022-12-11T12:02:02Z</time>
      </trkpt>
      <trkpt lat="43.60462" lon="6.3071">
        <ele>702</ele>
        <time>2022-12-11T12:02:03Z</time>
      </trkpt>
      <trkpt lat="43.60462" lon="6.3071">
        <ele>702</ele>
        <time>2022-12-11T12:02:04Z</time>
      </trkpt>
      <trkpt lat="43.60463" lon="6.30709">
        <ele>702</ele>
        <time>2022-12-11T12:02:05Z</time>
      </trkpt>
      <trkpt lat="43.60463" lon="6.30709">
        <ele>702</ele>
        <time>2022-12-11T12:02:06Z</time>
      </trkpt>
      <trkpt lat="43.60463" lon="6.30709">
        <ele>702</ele>
        <time>2022-12-11T12:02:07Z</time>
      </trkpt>
      <trkpt lat="43.60463" lon="6.30709">
        <ele>702</ele>
        <time>2022-12-11T12:02:08Z</time>
      </trkpt>
      <trkpt lat="43.60462" lon="6.30709">
        <ele>702</ele>
        <time>2022-12-11T12:02:09Z</time>
      </trkpt>
      <trkpt lat="43.60461" lon="6.30709">
        <ele>702</ele>
        <time>2022-12-11T12:02:10Z</time>
      </trkpt>
      <trkpt lat="43.60461" lon="6.30709">
        <ele>702</ele>
        <time>2022-12-11T12:02:11Z</time>
      </trkpt>
      <trkpt lat="43.60461" lon="6.30709">
        <ele>702</ele>
        <time>2022-12-11T12:02:12Z</time>
      </trkpt>
      <trkpt lat="43.6046" lon="6.30709">
        <ele>702</ele>
        <time>2022-12-11T12:02:13Z</time>
      </trkpt>
      <trkpt lat="43.6046" lon="6.30709">
        <ele>702</ele>
        <time>2022-12-11T12:02:14Z</time>
      </trkpt>
      <trkpt lat="43.6046" lon="6.3071">
        <ele>702</ele>
        <time>2022-12-11T12:02:15Z</time>
      </trkpt>
      <trkpt lat="43.60459" lon="6.3071">
        <ele>703</ele>
        <time>2022-12-11T12:02:16Z</time>
      </trkpt>
      <trkpt lat="43.60458" lon="6.30711">
        <ele>704</ele>
        <time>2022-12-11T12:02:17Z</time>
      </trkpt>
      <trkpt lat="43.60457" lon="6.30712">
        <ele>704</ele>
        <time>2022-12-11T12:02:18Z</time>
      </trkpt>
      <trkpt lat="43.60457" lon="6.30712">
        <ele>704</ele>
        <time>2022-12-11T12:02:19Z</time>
      </trkpt>
      <trkpt lat="43.60456" lon="6.30713">
        <ele>704</ele>
        <time>2022-12-11T12:02:20Z</time>
      </trkpt>
      <trkpt lat="43.60455" lon="6.30713">
        <ele>704</ele>
        <time>2022-12-11T12:02:21Z</time>
      </trkpt>
      <trkpt lat="43.60454" lon="6.30714">
        <ele>704</ele>
        <time>2022-12-11T12:02:22Z</time>
      </trkpt>
      <trkpt lat="43.60453" lon="6.30715">
        <ele>704</ele>
        <time>2022-12-11T12:02:23Z</time>
      </trkpt>
      <trkpt lat="43.60453" lon="6.30716">
        <ele>704</ele>
        <time>2022-12-11T12:02:24Z</time>
      </trkpt>
      <trkpt lat="43.60452" lon="6.30717">
        <ele>704</ele>
        <time>2022-12-11T12:02:25Z</time>
      </trkpt>
      <trkpt lat="43.60452" lon="6.30718">
        <ele>704</ele>
        <time>2022-12-11T12:02:26Z</time>
      </trkpt>
      <trkpt lat="43.60451" lon="6.30719">
        <ele>704</ele>
        <time>2022-12-11T12:02:27Z</time>
      </trkpt>
      <trkpt lat="43.60451" lon="6.3072">
        <ele>704</ele>
        <time>2022-12-11T12:02:28Z</time>
      </trkpt>
      <trkpt lat="43.6045" lon="6.3072">
        <ele>703</ele>
        <time>2022-12-11T12:02:29Z</time>
      </trkpt>
      <trkpt lat="43.60449" lon="6.30721">
        <ele>703</ele>
        <time>2022-12-11T12:02:30Z</time>
      </trkpt>
      <trkpt lat="43.60449" lon="6.30721">
        <ele>703</ele>
        <time>2022-12-11T12:02:31Z</time>
      </trkpt>
      <trkpt lat="43.60448" lon="6.30722">
        <ele>703</ele>
        <time>2022-12-11T12:02:32Z</time>
      </trkpt>
      <trkpt lat="43.60448" lon="6.30722">
        <ele>703</ele>
        <time>2022-12-11T12:02:33Z</time>
      </trkpt>
      <trkpt lat="43.60447" lon="6.30722">
        <ele>702</ele>
        <time>2022-12-11T12:02:34Z</time>
      </trkpt>
      <trkpt lat="43.60446" lon="6.30723">
        <ele>702</ele>
        <time>2022-12-11T12:02:35Z</time>
      </trkpt>
      <trkpt lat="43.60445" lon="6.30723">
        <ele>702</ele>
        <time>2022-12-11T12:02:36Z</time>
      </trkpt>
      <trkpt lat="43.60445" lon="6.30723">
        <ele>702</ele>
        <time>2022-12-11T12:02:37Z</time>
      </trkpt>
      <trkpt lat="43.60444" lon="6.30722">
        <ele>703</ele>
        <time>2022-12-11T12:02:38Z</time>
      </trkpt>
      <trkpt lat="43.60442" lon="6.30721">
        <ele>703</ele>
        <time>2022-12-11T12:02:39Z</time>
      </trkpt>
      <trkpt lat="43.60441" lon="6.30721">
        <ele>703</ele>
        <time>2022-12-11T12:02:40Z</time>
      </trkpt>
      <trkpt lat="43.6044" lon="6.3072">
        <ele>703</ele>
        <time>2022-12-11T12:02:41Z</time>
      </trkpt>
      <trkpt lat="43.60439" lon="6.3072">
        <ele>703</ele>
        <time>2022-12-11T12:02:42Z</time>
      </trkpt>
      <trkpt lat="43.60439" lon="6.3072">
        <ele>703</ele>
        <time>2022-12-11T12:02:43Z</time>
      </trkpt>
      <trkpt lat="43.60438" lon="6.30719">
        <ele>703</ele>
        <time>2022-12-11T12:02:44Z</time>
      </trkpt>
      <trkpt lat="43.60437" lon="6.30719">
        <ele>703</ele>
        <time>2022-12-11T12:02:45Z</time>
      </trkpt>
      <trkpt lat="43.60436" lon="6.30719">
        <ele>704</ele>
        <time>2022-12-11T12:02:46Z</time>
      </trkpt>
      <trkpt lat="43.60435" lon="6.30718">
        <ele>704</ele>
        <time>2022-12-11T12:02:47Z</time>
      </trkpt>
      <trkpt lat="43.60435" lon="6.30717">
        <ele>704</ele>
        <time>2022-12-11T12:02:48Z</time>
      </trkpt>
      <trkpt lat="43.60434" lon="6.30717">
        <ele>704</ele>
        <time>2022-12-11T12:02:49Z</time>
      </trkpt>
      <trkpt lat="43.60434" lon="6.30717">
        <ele>704</ele>
        <time>2022-12-11T12:02:50Z</time>
      </trkpt>
      <trkpt lat="43.60433" lon="6.30716">
        <ele>704</ele>
        <time>2022-12-11T12:02:51Z</time>
      </trkpt>
      <trkpt lat="43.60432" lon="6.30716">
        <ele>705</ele>
        <time>2022-12-11T12:02:52Z</time>
      </trkpt>
      <trkpt lat="43.6043" lon="6.30715">
        <ele>705</ele>
        <time>2022-12-11T12:02:53Z</time>
      </trkpt>
      <trkpt lat="43.60429" lon="6.30714">
        <ele>705</ele>
        <time>2022-12-11T12:02:54Z</time>
      </trkpt>
      <trkpt lat="43.60428" lon="6.30714">
        <ele>705</ele>
        <time>2022-12-11T12:02:55Z</time>
      </trkpt>
      <trkpt lat="43.60427" lon="6.30713">
        <ele>706</ele>
        <time>2022-12-11T12:02:56Z</time>
      </trkpt>
      <trkpt lat="43.60426" lon="6.30712">
        <ele>707</ele>
        <time>2022-12-11T12:02:57Z</time>
      </trkpt>
      <trkpt lat="43.60425" lon="6.30712">
        <ele>707</ele>
        <time>2022-12-11T12:02:58Z</time>
      </trkpt>
      <trkpt lat="43.60424" lon="6.30711">
        <ele>707</ele>
        <time>2022-12-11T12:02:59Z</time>
      </trkpt>
      <trkpt lat="43.60423" lon="6.30711">
        <ele>708</ele>
        <time>2022-12-11T12:03:00Z</time>
      </trkpt>
      <trkpt lat="43.60422" lon="6.3071">
        <ele>708</ele>
        <time>2022-12-11T12:03:01Z</time>
      </trkpt>
      <trkpt lat="43.60421" lon="6.3071">
        <ele>709</ele>
        <time>2022-12-11T12:03:02Z</time>
      </trkpt>
      <trkpt lat="43.6042" lon="6.30709">
        <ele>709</ele>
        <time>2022-12-11T12:03:03Z</time>
      </trkpt>
      <trkpt lat="43.60419" lon="6.30709">
        <ele>709</ele>
        <time>2022-12-11T12:03:04Z</time>
      </trkpt>
      <trkpt lat="43.60418" lon="6.30708">
        <ele>709</ele>
        <time>2022-12-11T12:03:05Z</time>
      </trkpt>
      <trkpt lat="43.60417" lon="6.30707">
        <ele>709</ele>
        <time>2022-12-11T12:03:06Z</time>
      </trkpt>
      <trkpt lat="43.60416" lon="6.30707">
        <ele>709</ele>
        <time>2022-12-11T12:03:07Z</time>
      </trkpt>
      <trkpt lat="43.60415" lon="6.30706">
        <ele>710</ele>
        <time>2022-12-11T12:03:08Z</time>
      </trkpt>
      <trkpt lat="43.60414" lon="6.30705">
        <ele>710</ele>
        <time>2022-12-11T12:03:09Z</time>
      </trkpt>
      <trkpt lat="43.60413" lon="6.30704">
        <ele>710</ele>
        <time>2022-12-11T12:03:10Z</time>
      </trkpt>
      <trkpt lat="43.60413" lon="6.30703">
        <ele>710</ele>
        <time>2022-12-11T12:03:11Z</time>
      </trkpt>
      <trkpt lat="43.60412" lon="6.30703">
        <ele>710</ele>
        <time>2022-12-11T12:03:12Z</time>
      </trkpt>
      <trkpt lat="43.60412" lon="6.30703">
        <ele>710</ele>
        <time>2022-12-11T12:03:13Z</time>
      </trkpt>
      <trkpt lat="43.60412" lon="6.30702">
        <ele>710</ele>
        <time>2022-12-11T12:03:14Z</time>
      </trkpt>
      <trkpt lat="43.60412" lon="6.30702">
        <ele>710</ele>
        <time>2022-12-11T12:03:15Z</time>
      </trkpt>
      <trkpt lat="43.60412" lon="6.30702">
        <ele>711</ele>
        <time>2022-12-11T12:03:16Z</time>
      </trkpt>
      <trkpt lat="43.60412" lon="6.30702">
        <ele>711</ele>
        <time>2022-12-11T12:03:17Z</time>
      </trkpt>
      <trkpt lat="43.60412" lon="6.30702">
        <ele>711</ele>
        <time>2022-12-11T12:03:18Z</time>
      </trkpt>
      <trkpt lat="43.60412" lon="6.30702">
        <ele>711</ele>
        <time>2022-12-11T12:03:19Z</time>
      </trkpt>
      <trkpt lat="43.60412" lon="6.30702">
        <ele>711</ele>
        <time>2022-12-11T12:03:20Z</time>
      </trkpt>
      <trkpt lat="43.6041" lon="6.30701">
        <ele>711</ele>
        <time>2022-12-11T12:03:21Z</time>
      </trkpt>
      <trkpt lat="43.6041" lon="6.307">
        <ele>711</ele>
        <time>2022-12-11T12:03:22Z</time>
      </trkpt>
      <trkpt lat="43.60408" lon="6.30699">
        <ele>711</ele>
        <time>2022-12-11T12:03:23Z</time>
      </trkpt>
      <trkpt lat="43.60408" lon="6.30699">
        <ele>711</ele>
        <time>2022-12-11T12:03:24Z</time>
      </trkpt>
      <trkpt lat="43.60407" lon="6.30698">
        <ele>711</ele>
        <time>2022-12-11T12:03:25Z</time>
      </trkpt>
      <trkpt lat="43.60407" lon="6.30698">
        <ele>712</ele>
        <time>2022-12-11T12:03:26Z</time>
      </trkpt>
      <trkpt lat="43.60407" lon="6.30698">
        <ele>712</ele>
        <time>2022-12-11T12:03:27Z</time>
      </trkpt>
      <trkpt lat="43.60407" lon="6.30698">
        <ele>712</ele>
        <time>2022-12-11T12:03:28Z</time>
      </trkpt>
      <trkpt lat="43.60407" lon="6.30698">
        <ele>712</ele>
        <time>2022-12-11T12:03:29Z</time>
      </trkpt>
      <trkpt lat="43.60407" lon="6.30697">
        <ele>712</ele>
        <time>2022-12-11T12:03:30Z</time>
      </trkpt>
      <trkpt lat="43.60406" lon="6.30697">
        <ele>712</ele>
        <time>2022-12-11T12:03:31Z</time>
      </trkpt>
      <trkpt lat="43.60406" lon="6.30697">
        <ele>712</ele>
        <time>2022-12-11T12:03:32Z</time>
      </trkpt>
      <trkpt lat="43.60406" lon="6.30696">
        <ele>712</ele>
        <time>2022-12-11T12:03:33Z</time>
      </trkpt>
      <trkpt lat="43.60406" lon="6.30695">
        <ele>712</ele>
        <time>2022-12-11T12:03:34Z</time>
      </trkpt>
      <trkpt lat="43.60406" lon="6.30694">
        <ele>712</ele>
        <time>2022-12-11T12:03:35Z</time>
      </trkpt>
      <trkpt lat="43.60406" lon="6.30693">
        <ele>712</ele>
        <time>2022-12-11T12:03:36Z</time>
      </trkpt>
      <trkpt lat="43.60405" lon="6.30692">
        <ele>713</ele>
        <time>2022-12-11T12:03:37Z</time>
      </trkpt>
      <trkpt lat="43.60405" lon="6.30691">
        <ele>713</ele>
        <time>2022-12-11T12:03:38Z</time>
      </trkpt>
      <trkpt lat="43.60405" lon="6.3069">
        <ele>713</ele>
        <time>2022-12-11T12:03:39Z</time>
      </trkpt>
      <trkpt lat="43.60405" lon="6.3069">
        <ele>713</ele>
        <time>2022-12-11T12:03:40Z</time>
      </trkpt>
      <trkpt lat="43.60405" lon="6.30689">
        <ele>713</ele>
        <time>2022-12-11T12:03:41Z</time>
      </trkpt>
      <trkpt lat="43.60405" lon="6.30689">
        <ele>713</ele>
        <time>2022-12-11T12:03:42Z</time>
      </trkpt>
      <trkpt lat="43.60404" lon="6.30689">
        <ele>713</ele>
        <time>2022-12-11T12:03:43Z</time>
      </trkpt>
      <trkpt lat="43.60404" lon="6.30688">
        <ele>713</ele>
        <time>2022-12-11T12:03:44Z</time>
      </trkpt>
      <trkpt lat="43.60404" lon="6.30687">
        <ele>713</ele>
        <time>2022-12-11T12:03:45Z</time>
      </trkpt>
      <trkpt lat="43.60404" lon="6.30686">
        <ele>713</ele>
        <time>2022-12-11T12:03:46Z</time>
      </trkpt>
      <trkpt lat="43.60403" lon="6.30685">
        <ele>713</ele>
        <time>2022-12-11T12:03:47Z</time>
      </trkpt>
      <trkpt lat="43.60402" lon="6.30685">
        <ele>713</ele>
        <time>2022-12-11T12:03:48Z</time>
      </trkpt>
      <trkpt lat="43.60402" lon="6.30684">
        <ele>713</ele>
        <time>2022-12-11T12:03:49Z</time>
      </trkpt>
      <trkpt lat="43.604" lon="6.30684">
        <ele>713</ele>
        <time>2022-12-11T12:03:50Z</time>
      </trkpt>
      <trkpt lat="43.60399" lon="6.30683">
        <ele>713</ele>
        <time>2022-12-11T12:03:51Z</time>
      </trkpt>
      <trkpt lat="43.60398" lon="6.30682">
        <ele>713</ele>
        <time>2022-12-11T12:03:52Z</time>
      </trkpt>
      <trkpt lat="43.60397" lon="6.30681">
        <ele>713</ele>
        <time>2022-12-11T12:03:53Z</time>
      </trkpt>
      <trkpt lat="43.60397" lon="6.3068">
        <ele>713</ele>
        <time>2022-12-11T12:03:54Z</time>
      </trkpt>
      <trkpt lat="43.60396" lon="6.3068">
        <ele>714</ele>
        <time>2022-12-11T12:03:55Z</time>
      </trkpt>
      <trkpt lat="43.60395" lon="6.30679">
        <ele>714</ele>
        <time>2022-12-11T12:03:56Z</time>
      </trkpt>
      <trkpt lat="43.60395" lon="6.30679">
        <ele>714</ele>
        <time>2022-12-11T12:03:57Z</time>
      </trkpt>
      <trkpt lat="43.60394" lon="6.30678">
        <ele>714</ele>
        <time>2022-12-11T12:03:58Z</time>
      </trkpt>
      <trkpt lat="43.60394" lon="6.30677">
        <ele>714</ele>
        <time>2022-12-11T12:03:59Z</time>
      </trkpt>
      <trkpt lat="43.60393" lon="6.30676">
        <ele>714</ele>
        <time>2022-12-11T12:04:00Z</time>
      </trkpt>
      <trkpt lat="43.60392" lon="6.30675">
        <ele>714</ele>
        <time>2022-12-11T12:04:01Z</time>
      </trkpt>
      <trkpt lat="43.60391" lon="6.30674">
        <ele>713</ele>
        <time>2022-12-11T12:04:02Z</time>
      </trkpt>
      <trkpt lat="43.6039" lon="6.30673">
        <ele>713</ele>
        <time>2022-12-11T12:04:03Z</time>
      </trkpt>
      <trkpt lat="43.6039" lon="6.30672">
        <ele>713</ele>
        <time>2022-12-11T12:04:04Z</time>
      </trkpt>
      <trkpt lat="43.60389" lon="6.30671">
        <ele>713</ele>
        <time>2022-12-11T12:04:05Z</time>
      </trkpt>
      <trkpt lat="43.60388" lon="6.30671">
        <ele>712</ele>
        <time>2022-12-11T12:04:06Z</time>
      </trkpt>
      <trkpt lat="43.60388" lon="6.3067">
        <ele>712</ele>
        <time>2022-12-11T12:04:07Z</time>
      </trkpt>
      <trkpt lat="43.60387" lon="6.30669">
        <ele>712</ele>
        <time>2022-12-11T12:04:08Z</time>
      </trkpt>
      <trkpt lat="43.60387" lon="6.30668">
        <ele>712</ele>
        <time>2022-12-11T12:04:09Z</time>
      </trkpt>
      <trkpt lat="43.60386" lon="6.30668">
        <ele>712</ele>
        <time>2022-12-11T12:04:10Z</time>
      </trkpt>
      <trkpt lat="43.60385" lon="6.30666">
        <ele>712</ele>
        <time>2022-12-11T12:04:11Z</time>
      </trkpt>
      <trkpt lat="43.60384" lon="6.30664">
        <ele>712</ele>
        <time>2022-12-11T12:04:12Z</time>
      </trkpt>
      <trkpt lat="43.60383" lon="6.30663">
        <ele>712</ele>
        <time>2022-12-11T12:04:13Z</time>
      </trkpt>
      <trkpt lat="43.60382" lon="6.30661">
        <ele>712</ele>
        <time>2022-12-11T12:04:14Z</time>
      </trkpt>
      <trkpt lat="43.60381" lon="6.3066">
        <ele>712</ele>
        <time>2022-12-11T12:04:15Z</time>
      </trkpt>
      <trkpt lat="43.6038" lon="6.30659">
        <ele>712</ele>
        <time>2022-12-11T12:04:16Z</time>
      </trkpt>
      <trkpt lat="43.6038" lon="6.30657">
        <ele>712</ele>
        <time>2022-12-11T12:04:17Z</time>
      </trkpt>
      <trkpt lat="43.60379" lon="6.30656">
        <ele>712</ele>
        <time>2022-12-11T12:04:18Z</time>
      </trkpt>
      <trkpt lat="43.60379" lon="6.30655">
        <ele>712</ele>
        <time>2022-12-11T12:04:19Z</time>
      </trkpt>
      <trkpt lat="43.60378" lon="6.30654">
        <ele>712</ele>
        <time>2022-12-11T12:04:20Z</time>
      </trkpt>
      <trkpt lat="43.60378" lon="6.30653">
        <ele>712</ele>
        <time>2022-12-11T12:04:21Z</time>
      </trkpt>
      <trkpt lat="43.60377" lon="6.30652">
        <ele>712</ele>
        <time>2022-12-11T12:04:22Z</time>
      </trkpt>
      <trkpt lat="43.60376" lon="6.30651">
        <ele>712</ele>
        <time>2022-12-11T12:04:23Z</time>
      </trkpt>
      <trkpt lat="43.60376" lon="6.3065">
        <ele>712</ele>
        <time>2022-12-11T12:04:24Z</time>
      </trkpt>
      <trkpt lat="43.60376" lon="6.30649">
        <ele>712</ele>
        <time>2022-12-11T12:04:25Z</time>
      </trkpt>
      <trkpt lat="43.60375" lon="6.30648">
        <ele>712</ele>
        <time>2022-12-11T12:04:26Z</time>
      </trkpt>
      <trkpt lat="43.60374" lon="6.30647">
        <ele>713</ele>
        <time>2022-12-11T12:04:27Z</time>
      </trkpt>
      <trkpt lat="43.60374" lon="6.30646">
        <ele>713</ele>
        <time>2022-12-11T12:04:28Z</time>
      </trkpt>
      <trkpt lat="43.60373" lon="6.30645">
        <ele>713</ele>
        <time>2022-12-11T12:04:29Z</time>
      </trkpt>
      <trkpt lat="43.60372" lon="6.30645">
        <ele>713</ele>
        <time>2022-12-11T12:04:30Z</time>
      </trkpt>
      <trkpt lat="43.60371" lon="6.30644">
        <ele>713</ele>
        <time>2022-12-11T12:04:31Z</time>
      </trkpt>
      <trkpt lat="43.6037" lon="6.30644">
        <ele>713</ele>
        <time>2022-12-11T12:04:32Z</time>
      </trkpt>
      <trkpt lat="43.6037" lon="6.30643">
        <ele>713</ele>
        <time>2022-12-11T12:04:33Z</time>
      </trkpt>
      <trkpt lat="43.60369" lon="6.30643">
        <ele>713</ele>
        <time>2022-12-11T12:04:34Z</time>
      </trkpt>
      <trkpt lat="43.60368" lon="6.30642">
        <ele>713</ele>
        <time>2022-12-11T12:04:35Z</time>
      </trkpt>
      <trkpt lat="43.60367" lon="6.30641">
        <ele>714</ele>
        <time>2022-12-11T12:04:36Z</time>
      </trkpt>
      <trkpt lat="43.60367" lon="6.3064">
        <ele>714</ele>
        <time>2022-12-11T12:04:37Z</time>
      </trkpt>
      <trkpt lat="43.60367" lon="6.30639">
        <ele>714</ele>
        <time>2022-12-11T12:04:38Z</time>
      </trkpt>
      <trkpt lat="43.60367" lon="6.30638">
        <ele>714</ele>
        <time>2022-12-11T12:04:39Z</time>
      </trkpt>
      <trkpt lat="43.60367" lon="6.30636">
        <ele>714</ele>
        <time>2022-12-11T12:04:40Z</time>
      </trkpt>
      <trkpt lat="43.60368" lon="6.30635">
        <ele>714</ele>
        <time>2022-12-11T12:04:41Z</time>
      </trkpt>
      <trkpt lat="43.60368" lon="6.30633">
        <ele>714</ele>
        <time>2022-12-11T12:04:42Z</time>
      </trkpt>
      <trkpt lat="43.60369" lon="6.30632">
        <ele>714</ele>
        <time>2022-12-11T12:04:43Z</time>
      </trkpt>
      <trkpt lat="43.60369" lon="6.30631">
        <ele>714</ele>
        <time>2022-12-11T12:04:44Z</time>
      </trkpt>
      <trkpt lat="43.60369" lon="6.3063">
        <ele>715</ele>
        <time>2022-12-11T12:04:45Z</time>
      </trkpt>
      <trkpt lat="43.60369" lon="6.30629">
        <ele>715</ele>
        <time>2022-12-11T12:04:46Z</time>
      </trkpt>
      <trkpt lat="43.60369" lon="6.30627">
        <ele>715</ele>
        <time>2022-12-11T12:04:47Z</time>
      </trkpt>
      <trkpt lat="43.60369" lon="6.30626">
        <ele>715</ele>
        <time>2022-12-11T12:04:48Z</time>
      </trkpt>
      <trkpt lat="43.60369" lon="6.30625">
        <ele>715</ele>
        <time>2022-12-11T12:04:49Z</time>
      </trkpt>
      <trkpt lat="43.60369" lon="6.30624">
        <ele>715</ele>
        <time>2022-12-11T12:04:50Z</time>
      </trkpt>
      <trkpt lat="43.60369" lon="6.30623">
        <ele>716</ele>
        <time>2022-12-11T12:04:51Z</time>
      </trkpt>
      <trkpt lat="43.60368" lon="6.30622">
        <ele>716</ele>
        <time>2022-12-11T12:04:52Z</time>
      </trkpt>
      <trkpt lat="43.60368" lon="6.3062">
        <ele>716</ele>
        <time>2022-12-11T12:04:53Z</time>
      </trkpt>
      <trkpt lat="43.60368" lon="6.30619">
        <ele>716</ele>
        <time>2022-12-11T12:04:54Z</time>
      </trkpt>
      <trkpt lat="43.60367" lon="6.30618">
        <ele>716</ele>
        <time>2022-12-11T12:04:55Z</time>
      </trkpt>
      <trkpt lat="43.60367" lon="6.30617">
        <ele>716</ele>
        <time>2022-12-11T12:04:56Z</time>
      </trkpt>
      <trkpt lat="43.60367" lon="6.30616">
        <ele>716</ele>
        <time>2022-12-11T12:04:57Z</time>
      </trkpt>
      <trkpt lat="43.60366" lon="6.30615">
        <ele>716</ele>
        <time>2022-12-11T12:04:58Z</time>
      </trkpt>
      <trkpt lat="43.60366" lon="6.30615">
        <ele>717</ele>
        <time>2022-12-11T12:04:59Z</time>
      </trkpt>
      <trkpt lat="43.60365" lon="6.30614">
        <ele>717</ele>
        <time>2022-12-11T12:05:00Z</time>
      </trkpt>
      <trkpt lat="43.60365" lon="6.30614">
        <ele>717</ele>
        <time>2022-12-11T12:05:01Z</time>
      </trkpt>
      <trkpt lat="43.60364" lon="6.30613">
        <ele>718</ele>
        <time>2022-12-11T12:05:02Z</time>
      </trkpt>
      <trkpt lat="43.60365" lon="6.30613">
        <ele>718</ele>
        <time>2022-12-11T12:05:03Z</time>
      </trkpt>
      <trkpt lat="43.60365" lon="6.30613">
        <ele>718</ele>
        <time>2022-12-11T12:05:04Z</time>
      </trkpt>
      <trkpt lat="43.60365" lon="6.30613">
        <ele>718</ele>
        <time>2022-12-11T12:05:05Z</time>
      </trkpt>
      <trkpt lat="43.60365" lon="6.30613">
        <ele>718</ele>
        <time>2022-12-11T12:05:06Z</time>
      </trkpt>
      <trkpt lat="43.60365" lon="6.30613">
        <ele>718</ele>
        <time>2022-12-11T12:05:07Z</time>
      </trkpt>
      <trkpt lat="43.60365" lon="6.30613">
        <ele>718</ele>
        <time>2022-12-11T12:05:08Z</time>
      </trkpt>
      <trkpt lat="43.60365" lon="6.30613">
        <ele>718</ele>
        <time>2022-12-11T12:05:09Z</time>
      </trkpt>
      <trkpt lat="43.60366" lon="6.30613">
        <ele>718</ele>
        <time>2022-12-11T12:05:10Z</time>
      </trkpt>
      <trkpt lat="43.60365" lon="6.30613">
        <ele>718</ele>
        <time>2022-12-11T12:05:11Z</time>
      </trkpt>
      <trkpt lat="43.60365" lon="6.30614">
        <ele>717</ele>
        <time>2022-12-11T12:05:12Z</time>
      </trkpt>
      <trkpt lat="43.60365" lon="6.30614">
        <ele>717</ele>
        <time>2022-12-11T12:05:13Z</time>
      </trkpt>
      <trkpt lat="43.60365" lon="6.30614">
        <ele>717</ele>
        <time>2022-12-11T12:05:14Z</time>
      </trkpt>
      <trkpt lat="43.60365" lon="6.30614">
        <ele>717</ele>
        <time>2022-12-11T12:05:15Z</time>
      </trkpt>
      <trkpt lat="43.60365" lon="6.30614">
        <ele>717</ele>
        <time>2022-12-11T12:05:16Z</time>
      </trkpt>
      <trkpt lat="43.60365" lon="6.30614">
        <ele>717</ele>
        <time>2022-12-11T12:05:17Z</time>
      </trkpt>
      <trkpt lat="43.60365" lon="6.30614">
        <ele>717</ele>
        <time>2022-12-11T12:05:18Z</time>
      </trkpt>
      <trkpt lat="43.60365" lon="6.30614">
        <ele>717</ele>
        <time>2022-12-11T12:05:19Z</time>
      </trkpt>
      <trkpt lat="43.60365" lon="6.30613">
        <ele>717</ele>
        <time>2022-12-11T12:05:20Z</time>
      </trkpt>
      <trkpt lat="43.60365" lon="6.30613">
        <ele>717</ele>
        <time>2022-12-11T12:05:21Z</time>
      </trkpt>
      <trkpt lat="43.60364" lon="6.30613">
        <ele>717</ele>
        <time>2022-12-11T12:05:22Z</time>
      </trkpt>
      <trkpt lat="43.60364" lon="6.30612">
        <ele>717</ele>
        <time>2022-12-11T12:05:23Z</time>
      </trkpt>
      <trkpt lat="43.60364" lon="6.30612">
        <ele>716</ele>
        <time>2022-12-11T12:05:24Z</time>
      </trkpt>
      <trkpt lat="43.60364" lon="6.30612">
        <ele>716</ele>
        <time>2022-12-11T12:05:25Z</time>
      </trkpt>
      <trkpt lat="43.60363" lon="6.30611">
        <ele>716</ele>
        <time>2022-12-11T12:05:26Z</time>
      </trkpt>
      <trkpt lat="43.60363" lon="6.30611">
        <ele>716</ele>
        <time>2022-12-11T12:05:27Z</time>
      </trkpt>
      <trkpt lat="43.60363" lon="6.30611">
        <ele>716</ele>
        <time>2022-12-11T12:05:28Z</time>
      </trkpt>
      <trkpt lat="43.60362" lon="6.30611">
        <ele>716</ele>
        <time>2022-12-11T12:05:29Z</time>
      </trkpt>
      <trkpt lat="43.60362" lon="6.30611">
        <ele>716</ele>
        <time>2022-12-11T12:05:30Z</time>
      </trkpt>
      <trkpt lat="43.60362" lon="6.3061">
        <ele>716</ele>
        <time>2022-12-11T12:05:31Z</time>
      </trkpt>
      <trkpt lat="43.60361" lon="6.3061">
        <ele>716</ele>
        <time>2022-12-11T12:05:32Z</time>
      </trkpt>
      <trkpt lat="43.60361" lon="6.3061">
        <ele>716</ele>
        <time>2022-12-11T12:05:33Z</time>
      </trkpt>
      <trkpt lat="43.60361" lon="6.3061">
        <ele>716</ele>
        <time>2022-12-11T12:05:34Z</time>
      </trkpt>
      <trkpt lat="43.6036" lon="6.3061">
        <ele>716</ele>
        <time>2022-12-11T12:05:35Z</time>
      </trkpt>
      <trkpt lat="43.6036" lon="6.3061">
        <ele>716</ele>
        <time>2022-12-11T12:05:36Z</time>
      </trkpt>
      <trkpt lat="43.6036" lon="6.3061">
        <ele>716</ele>
        <time>2022-12-11T12:05:37Z</time>
      </trkpt>
      <trkpt lat="43.6036" lon="6.3061">
        <ele>716</ele>
        <time>2022-12-11T12:05:38Z</time>
      </trkpt>
      <trkpt lat="43.60359" lon="6.30609">
        <ele>716</ele>
        <time>2022-12-11T12:05:39Z</time>
      </trkpt>
      <trkpt lat="43.60359" lon="6.30609">
        <ele>716</ele>
        <time>2022-12-11T12:05:40Z</time>
      </trkpt>
      <trkpt lat="43.60359" lon="6.30609">
        <ele>716</ele>
        <time>2022-12-11T12:05:41Z</time>
      </trkpt>
      <trkpt lat="43.60359" lon="6.30609">
        <ele>716</ele>
        <time>2022-12-11T12:05:42Z</time>
      </trkpt>
      <trkpt lat="43.60359" lon="6.30609">
        <ele>716</ele>
        <time>2022-12-11T12:05:43Z</time>
      </trkpt>
      <trkpt lat="43.60359" lon="6.30609">
        <ele>716</ele>
        <time>2022-12-11T12:05:44Z</time>
      </trkpt>
      <trkpt lat="43.60359" lon="6.30609">
        <ele>716</ele>
        <time>2022-12-11T12:05:45Z</time>
      </trkpt>
      <trkpt lat="43.60359" lon="6.30609">
        <ele>716</ele>
        <time>2022-12-11T12:05:46Z</time>
      </trkpt>
      <trkpt lat="43.60359" lon="6.30609">
        <ele>716</ele>
        <time>2022-12-11T12:05:47Z</time>
      </trkpt>
      <trkpt lat="43.60358" lon="6.30609">
        <ele>716</ele>
        <time>2022-12-11T12:05:48Z</time>
      </trkpt>
      <trkpt lat="43.60358" lon="6.30609">
        <ele>716</ele>
        <time>2022-12-11T12:05:49Z</time>
      </trkpt>
      <trkpt lat="43.60358" lon="6.30609">
        <ele>716</ele>
        <time>2022-12-11T12:05:50Z</time>
      </trkpt>
      <trkpt lat="43.60358" lon="6.30609">
        <ele>716</ele>
        <time>2022-12-11T12:05:51Z</time>
      </trkpt>
      <trkpt lat="43.60358" lon="6.30609">
        <ele>716</ele>
        <time>2022-12-11T12:05:52Z</time>
      </trkpt>
      <trkpt lat="43.60358" lon="6.30609">
        <ele>716</ele>
        <time>2022-12-11T12:05:53Z</time>
      </trkpt>
      <trkpt lat="43.60358" lon="6.30609">
        <ele>716</ele>
        <time>2022-12-11T12:05:54Z</time>
      </trkpt>
      <trkpt lat="43.60358" lon="6.30609">
        <ele>716</ele>
        <time>2022-12-11T12:05:55Z</time>
      </trkpt>
      <trkpt lat="43.60358" lon="6.30609">
        <ele>716</ele>
        <time>2022-12-11T12:05:56Z</time>
      </trkpt>
      <trkpt lat="43.60358" lon="6.30609">
        <ele>716</ele>
        <time>2022-12-11T12:05:57Z</time>
      </trkpt>
      <trkpt lat="43.60358" lon="6.30609">
        <ele>716</ele>
        <time>2022-12-11T12:05:58Z</time>
      </trkpt>
      <trkpt lat="43.60358" lon="6.30609">
        <ele>716</ele>
        <time>2022-12-11T12:05:59Z</time>
      </trkpt>
      <trkpt lat="43.60358" lon="6.30609">
        <ele>716</ele>
        <time>2022-12-11T12:06:00Z</time>
      </trkpt>
      <trkpt lat="43.60358" lon="6.30609">
        <ele>716</ele>
        <time>2022-12-11T12:06:01Z</time>
      </trkpt>
      <trkpt lat="43.60358" lon="6.30609">
        <ele>716</ele>
        <time>2022-12-11T12:06:02Z</time>
      </trkpt>
      <trkpt lat="43.60358" lon="6.30609">
        <ele>716</ele>
        <time>2022-12-11T12:06:03Z</time>
      </trkpt>
      <trkpt lat="43.60357" lon="6.30609">
        <ele>716</ele>
        <time>2022-12-11T12:06:04Z</time>
      </trkpt>
      <trkpt lat="43.60357" lon="6.30608">
        <ele>716</ele>
        <time>2022-12-11T12:06:05Z</time>
      </trkpt>
      <trkpt lat="43.60357" lon="6.30608">
        <ele>716</ele>
        <time>2022-12-11T12:06:06Z</time>
      </trkpt>
      <trkpt lat="43.60357" lon="6.30607">
        <ele>716</ele>
        <time>2022-12-11T12:06:07Z</time>
      </trkpt>
      <trkpt lat="43.60356" lon="6.30606">
        <ele>716</ele>
        <time>2022-12-11T12:06:08Z</time>
      </trkpt>
      <trkpt lat="43.60356" lon="6.30605">
        <ele>716</ele>
        <time>2022-12-11T12:06:09Z</time>
      </trkpt>
      <trkpt lat="43.60356" lon="6.30603">
        <ele>716</ele>
        <time>2022-12-11T12:06:10Z</time>
      </trkpt>
      <trkpt lat="43.60356" lon="6.30602">
        <ele>716</ele>
        <time>2022-12-11T12:06:11Z</time>
      </trkpt>
      <trkpt lat="43.60355" lon="6.30601">
        <ele>716</ele>
        <time>2022-12-11T12:06:12Z</time>
      </trkpt>
      <trkpt lat="43.60355" lon="6.306">
        <ele>716</ele>
        <time>2022-12-11T12:06:13Z</time>
      </trkpt>
      <trkpt lat="43.60354" lon="6.30599">
        <ele>716</ele>
        <time>2022-12-11T12:06:14Z</time>
      </trkpt>
      <trkpt lat="43.60354" lon="6.30597">
        <ele>716</ele>
        <time>2022-12-11T12:06:15Z</time>
      </trkpt>
      <trkpt lat="43.60354" lon="6.30596">
        <ele>716</ele>
        <time>2022-12-11T12:06:16Z</time>
      </trkpt>
      <trkpt lat="43.60354" lon="6.30595">
        <ele>716</ele>
        <time>2022-12-11T12:06:17Z</time>
      </trkpt>
      <trkpt lat="43.60354" lon="6.30595">
        <ele>716</ele>
        <time>2022-12-11T12:06:18Z</time>
      </trkpt>
      <trkpt lat="43.60354" lon="6.30594">
        <ele>716</ele>
        <time>2022-12-11T12:06:19Z</time>
      </trkpt>
      <trkpt lat="43.60354" lon="6.30594">
        <ele>716</ele>
        <time>2022-12-11T12:06:20Z</time>
      </trkpt>
      <trkpt lat="43.60353" lon="6.30593">
        <ele>716</ele>
        <time>2022-12-11T12:06:21Z</time>
      </trkpt>
      <trkpt lat="43.60353" lon="6.30591">
        <ele>716</ele>
        <time>2022-12-11T12:06:22Z</time>
      </trkpt>
      <trkpt lat="43.60354" lon="6.30589">
        <ele>716</ele>
        <time>2022-12-11T12:06:23Z</time>
      </trkpt>
      <trkpt lat="43.60353" lon="6.30586">
        <ele>716</ele>
        <time>2022-12-11T12:06:24Z</time>
      </trkpt>
      <trkpt lat="43.60353" lon="6.30583">
        <ele>716</ele>
        <time>2022-12-11T12:06:25Z</time>
      </trkpt>
      <trkpt lat="43.60353" lon="6.30582">
        <ele>716</ele>
        <time>2022-12-11T12:06:26Z</time>
      </trkpt>
      <trkpt lat="43.60353" lon="6.30582">
        <ele>717</ele>
        <time>2022-12-11T12:06:27Z</time>
      </trkpt>
      <trkpt lat="43.60353" lon="6.30581">
        <ele>717</ele>
        <time>2022-12-11T12:06:28Z</time>
      </trkpt>
      <trkpt lat="43.60352" lon="6.30581">
        <ele>717</ele>
        <time>2022-12-11T12:06:29Z</time>
      </trkpt>
      <trkpt lat="43.60352" lon="6.3058">
        <ele>717</ele>
        <time>2022-12-11T12:06:30Z</time>
      </trkpt>
      <trkpt lat="43.60351" lon="6.30578">
        <ele>717</ele>
        <time>2022-12-11T12:06:31Z</time>
      </trkpt>
      <trkpt lat="43.6035" lon="6.30577">
        <ele>717</ele>
        <time>2022-12-11T12:06:32Z</time>
      </trkpt>
      <trkpt lat="43.60349" lon="6.30575">
        <ele>717</ele>
        <time>2022-12-11T12:06:33Z</time>
      </trkpt>
      <trkpt lat="43.60347" lon="6.30574">
        <ele>717</ele>
        <time>2022-12-11T12:06:34Z</time>
      </trkpt>
      <trkpt lat="43.60345" lon="6.30572">
        <ele>717</ele>
        <time>2022-12-11T12:06:35Z</time>
      </trkpt>
      <trkpt lat="43.60344" lon="6.30571">
        <ele>718</ele>
        <time>2022-12-11T12:06:36Z</time>
      </trkpt>
      <trkpt lat="43.60343" lon="6.3057">
        <ele>718</ele>
        <time>2022-12-11T12:06:37Z</time>
      </trkpt>
      <trkpt lat="43.60342" lon="6.30569">
        <ele>718</ele>
        <time>2022-12-11T12:06:38Z</time>
      </trkpt>
      <trkpt lat="43.60341" lon="6.30568">
        <ele>718</ele>
        <time>2022-12-11T12:06:39Z</time>
      </trkpt>
      <trkpt lat="43.60341" lon="6.30567">
        <ele>718</ele>
        <time>2022-12-11T12:06:40Z</time>
      </trkpt>
      <trkpt lat="43.6034" lon="6.30567">
        <ele>718</ele>
        <time>2022-12-11T12:06:41Z</time>
      </trkpt>
      <trkpt lat="43.60339" lon="6.30567">
        <ele>717</ele>
        <time>2022-12-11T12:06:42Z</time>
      </trkpt>
      <trkpt lat="43.60339" lon="6.30567">
        <ele>717</ele>
        <time>2022-12-11T12:06:43Z</time>
      </trkpt>
      <trkpt lat="43.60338" lon="6.30567">
        <ele>717</ele>
        <time>2022-12-11T12:06:44Z</time>
      </trkpt>
      <trkpt lat="43.60338" lon="6.30566">
        <ele>717</ele>
        <time>2022-12-11T12:06:45Z</time>
      </trkpt>
      <trkpt lat="43.60338" lon="6.30564">
        <ele>717</ele>
        <time>2022-12-11T12:06:46Z</time>
      </trkpt>
      <trkpt lat="43.60338" lon="6.30563">
        <ele>717</ele>
        <time>2022-12-11T12:06:47Z</time>
      </trkpt>
      <trkpt lat="43.60338" lon="6.30562">
        <ele>717</ele>
        <time>2022-12-11T12:06:48Z</time>
      </trkpt>
      <trkpt lat="43.60337" lon="6.3056">
        <ele>717</ele>
        <time>2022-12-11T12:06:49Z</time>
      </trkpt>
      <trkpt lat="43.60337" lon="6.30559">
        <ele>717</ele>
        <time>2022-12-11T12:06:50Z</time>
      </trkpt>
      <trkpt lat="43.60337" lon="6.30557">
        <ele>716</ele>
        <time>2022-12-11T12:06:51Z</time>
      </trkpt>
      <trkpt lat="43.60337" lon="6.30556">
        <ele>716</ele>
        <time>2022-12-11T12:06:52Z</time>
      </trkpt>
      <trkpt lat="43.60337" lon="6.30554">
        <ele>716</ele>
        <time>2022-12-11T12:06:53Z</time>
      </trkpt>
      <trkpt lat="43.60336" lon="6.30553">
        <ele>716</ele>
        <time>2022-12-11T12:06:54Z</time>
      </trkpt>
      <trkpt lat="43.60336" lon="6.30552">
        <ele>716</ele>
        <time>2022-12-11T12:06:55Z</time>
      </trkpt>
      <trkpt lat="43.60335" lon="6.3055">
        <ele>716</ele>
        <time>2022-12-11T12:06:56Z</time>
      </trkpt>
      <trkpt lat="43.60335" lon="6.30549">
        <ele>716</ele>
        <time>2022-12-11T12:06:57Z</time>
      </trkpt>
      <trkpt lat="43.60334" lon="6.30548">
        <ele>715</ele>
        <time>2022-12-11T12:06:58Z</time>
      </trkpt>
      <trkpt lat="43.60333" lon="6.30548">
        <ele>715</ele>
        <time>2022-12-11T12:06:59Z</time>
      </trkpt>
      <trkpt lat="43.60332" lon="6.30547">
        <ele>715</ele>
        <time>2022-12-11T12:07:00Z</time>
      </trkpt>
      <trkpt lat="43.60331" lon="6.30546">
        <ele>715</ele>
        <time>2022-12-11T12:07:01Z</time>
      </trkpt>
      <trkpt lat="43.6033" lon="6.30546">
        <ele>714</ele>
        <time>2022-12-11T12:07:02Z</time>
      </trkpt>
      <trkpt lat="43.60329" lon="6.30545">
        <ele>714</ele>
        <time>2022-12-11T12:07:03Z</time>
      </trkpt>
      <trkpt lat="43.60329" lon="6.30544">
        <ele>714</ele>
        <time>2022-12-11T12:07:04Z</time>
      </trkpt>
      <trkpt lat="43.60328" lon="6.30543">
        <ele>714</ele>
        <time>2022-12-11T12:07:05Z</time>
      </trkpt>
      <trkpt lat="43.60327" lon="6.30543">
        <ele>714</ele>
        <time>2022-12-11T12:07:06Z</time>
      </trkpt>
      <trkpt lat="43.60326" lon="6.30542">
        <ele>714</ele>
        <time>2022-12-11T12:07:07Z</time>
      </trkpt>
      <trkpt lat="43.60326" lon="6.30542">
        <ele>714</ele>
        <time>2022-12-11T12:07:08Z</time>
      </trkpt>
      <trkpt lat="43.60325" lon="6.30541">
        <ele>714</ele>
        <time>2022-12-11T12:07:09Z</time>
      </trkpt>
      <trkpt lat="43.60325" lon="6.3054">
        <ele>715</ele>
        <time>2022-12-11T12:07:10Z</time>
      </trkpt>
      <trkpt lat="43.60325" lon="6.30539">
        <ele>715</ele>
        <time>2022-12-11T12:07:11Z</time>
      </trkpt>
      <trkpt lat="43.60324" lon="6.30538">
        <ele>715</ele>
        <time>2022-12-11T12:07:12Z</time>
      </trkpt>
      <trkpt lat="43.60324" lon="6.30537">
        <ele>715</ele>
        <time>2022-12-11T12:07:13Z</time>
      </trkpt>
      <trkpt lat="43.60323" lon="6.30537">
        <ele>715</ele>
        <time>2022-12-11T12:07:14Z</time>
      </trkpt>
      <trkpt lat="43.60322" lon="6.30537">
        <ele>716</ele>
        <time>2022-12-11T12:07:15Z</time>
      </trkpt>
      <trkpt lat="43.60322" lon="6.30537">
        <ele>716</ele>
        <time>2022-12-11T12:07:16Z</time>
      </trkpt>
      <trkpt lat="43.60321" lon="6.30537">
        <ele>716</ele>
        <time>2022-12-11T12:07:17Z</time>
      </trkpt>
      <trkpt lat="43.6032" lon="6.30536">
        <ele>716</ele>
        <time>2022-12-11T12:07:18Z</time>
      </trkpt>
      <trkpt lat="43.6032" lon="6.30536">
        <ele>716</ele>
        <time>2022-12-11T12:07:19Z</time>
      </trkpt>
      <trkpt lat="43.60319" lon="6.30535">
        <ele>716</ele>
        <time>2022-12-11T12:07:20Z</time>
      </trkpt>
      <trkpt lat="43.60319" lon="6.30534">
        <ele>716</ele>
        <time>2022-12-11T12:07:21Z</time>
      </trkpt>
      <trkpt lat="43.60318" lon="6.30534">
        <ele>716</ele>
        <time>2022-12-11T12:07:22Z</time>
      </trkpt>
      <trkpt lat="43.60318" lon="6.30533">
        <ele>716</ele>
        <time>2022-12-11T12:07:23Z</time>
      </trkpt>
      <trkpt lat="43.60317" lon="6.30532">
        <ele>716</ele>
        <time>2022-12-11T12:07:24Z</time>
      </trkpt>
      <trkpt lat="43.60317" lon="6.30531">
        <ele>716</ele>
        <time>2022-12-11T12:07:25Z</time>
      </trkpt>
      <trkpt lat="43.60317" lon="6.30531">
        <ele>716</ele>
        <time>2022-12-11T12:07:26Z</time>
      </trkpt>
      <trkpt lat="43.60317" lon="6.3053">
        <ele>716</ele>
        <time>2022-12-11T12:07:27Z</time>
      </trkpt>
      <trkpt lat="43.60317" lon="6.3053">
        <ele>716</ele>
        <time>2022-12-11T12:07:28Z</time>
      </trkpt>
      <trkpt lat="43.60317" lon="6.3053">
        <ele>716</ele>
        <time>2022-12-11T12:07:29Z</time>
      </trkpt>
      <trkpt lat="43.60317" lon="6.3053">
        <ele>716</ele>
        <time>2022-12-11T12:07:30Z</time>
      </trkpt>
      <trkpt lat="43.60317" lon="6.3053">
        <ele>716</ele>
        <time>2022-12-11T12:07:31Z</time>
      </trkpt>
      <trkpt lat="43.60317" lon="6.3053">
        <ele>716</ele>
        <time>2022-12-11T12:07:32Z</time>
      </trkpt>
      <trkpt lat="43.60317" lon="6.3053">
        <ele>716</ele>
        <time>2022-12-11T12:07:33Z</time>
      </trkpt>
      <trkpt lat="43.60317" lon="6.3053">
        <ele>717</ele>
        <time>2022-12-11T12:07:34Z</time>
      </trkpt>
      <trkpt lat="43.60317" lon="6.3053">
        <ele>717</ele>
        <time>2022-12-11T12:07:35Z</time>
      </trkpt>
      <trkpt lat="43.60317" lon="6.3053">
        <ele>717</ele>
        <time>2022-12-11T12:07:36Z</time>
      </trkpt>
      <trkpt lat="43.60317" lon="6.3053">
        <ele>717</ele>
        <time>2022-12-11T12:07:37Z</time>
      </trkpt>
      <trkpt lat="43.60317" lon="6.3053">
        <ele>717</ele>
        <time>2022-12-11T12:07:38Z</time>
      </trkpt>
      <trkpt lat="43.60318" lon="6.30529">
        <ele>717</ele>
        <time>2022-12-11T12:07:39Z</time>
      </trkpt>
      <trkpt lat="43.60317" lon="6.30529">
        <ele>717</ele>
        <time>2022-12-11T12:07:40Z</time>
      </trkpt>
      <trkpt lat="43.60317" lon="6.30528">
        <ele>717</ele>
        <time>2022-12-11T12:07:41Z</time>
      </trkpt>
      <trkpt lat="43.60317" lon="6.30527">
        <ele>717</ele>
        <time>2022-12-11T12:07:42Z</time>
      </trkpt>
      <trkpt lat="43.60316" lon="6.30526">
        <ele>717</ele>
        <time>2022-12-11T12:07:43Z</time>
      </trkpt>
      <trkpt lat="43.60316" lon="6.30525">
        <ele>717</ele>
        <time>2022-12-11T12:07:44Z</time>
      </trkpt>
      <trkpt lat="43.60316" lon="6.30524">
        <ele>717</ele>
        <time>2022-12-11T12:07:45Z</time>
      </trkpt>
      <trkpt lat="43.60315" lon="6.30524">
        <ele>717</ele>
        <time>2022-12-11T12:07:46Z</time>
      </trkpt>
      <trkpt lat="43.60315" lon="6.30523">
        <ele>717</ele>
        <time>2022-12-11T12:07:47Z</time>
      </trkpt>
      <trkpt lat="43.60314" lon="6.30523">
        <ele>717</ele>
        <time>2022-12-11T12:07:48Z</time>
      </trkpt>
      <trkpt lat="43.60313" lon="6.30523">
        <ele>717</ele>
        <time>2022-12-11T12:07:49Z</time>
      </trkpt>
      <trkpt lat="43.60313" lon="6.30524">
        <ele>717</ele>
        <time>2022-12-11T12:07:50Z</time>
      </trkpt>
      <trkpt lat="43.60312" lon="6.30525">
        <ele>717</ele>
        <time>2022-12-11T12:07:51Z</time>
      </trkpt>
      <trkpt lat="43.60313" lon="6.30526">
        <ele>717</ele>
        <time>2022-12-11T12:07:52Z</time>
      </trkpt>
      <trkpt lat="43.60313" lon="6.30526">
        <ele>717</ele>
        <time>2022-12-11T12:07:53Z</time>
      </trkpt>
      <trkpt lat="43.60313" lon="6.30526">
        <ele>717</ele>
        <time>2022-12-11T12:07:54Z</time>
      </trkpt>
      <trkpt lat="43.60313" lon="6.30526">
        <ele>717</ele>
        <time>2022-12-11T12:07:55Z</time>
      </trkpt>
      <trkpt lat="43.60313" lon="6.30526">
        <ele>717</ele>
        <time>2022-12-11T12:07:56Z</time>
      </trkpt>
      <trkpt lat="43.60313" lon="6.30526">
        <ele>717</ele>
        <time>2022-12-11T12:07:57Z</time>
      </trkpt>
      <trkpt lat="43.60313" lon="6.30526">
        <ele>717</ele>
        <time>2022-12-11T12:07:58Z</time>
      </trkpt>
      <trkpt lat="43.60313" lon="6.30526">
        <ele>717</ele>
        <time>2022-12-11T12:07:59Z</time>
      </trkpt>
      <trkpt lat="43.60313" lon="6.30526">
        <ele>717</ele>
        <time>2022-12-11T12:08:00Z</time>
      </trkpt>
      <trkpt lat="43.60312" lon="6.30525">
        <ele>717</ele>
        <time>2022-12-11T12:08:01Z</time>
      </trkpt>
      <trkpt lat="43.60311" lon="6.30524">
        <ele>717</ele>
        <time>2022-12-11T12:08:02Z</time>
      </trkpt>
      <trkpt lat="43.60311" lon="6.30523">
        <ele>717</ele>
        <time>2022-12-11T12:08:03Z</time>
      </trkpt>
      <trkpt lat="43.6031" lon="6.30523">
        <ele>717</ele>
        <time>2022-12-11T12:08:04Z</time>
      </trkpt>
      <trkpt lat="43.60309" lon="6.30522">
        <ele>717</ele>
        <time>2022-12-11T12:08:05Z</time>
      </trkpt>
      <trkpt lat="43.60309" lon="6.30521">
        <ele>717</ele>
        <time>2022-12-11T12:08:06Z</time>
      </trkpt>
      <trkpt lat="43.60308" lon="6.30521">
        <ele>717</ele>
        <time>2022-12-11T12:08:07Z</time>
      </trkpt>
      <trkpt lat="43.60308" lon="6.3052">
        <ele>717</ele>
        <time>2022-12-11T12:08:08Z</time>
      </trkpt>
      <trkpt lat="43.60308" lon="6.30519">
        <ele>717</ele>
        <time>2022-12-11T12:08:09Z</time>
      </trkpt>
      <trkpt lat="43.60308" lon="6.30518">
        <ele>717</ele>
        <time>2022-12-11T12:08:10Z</time>
      </trkpt>
      <trkpt lat="43.60308" lon="6.30518">
        <ele>717</ele>
        <time>2022-12-11T12:08:11Z</time>
      </trkpt>
      <trkpt lat="43.60307" lon="6.30517">
        <ele>717</ele>
        <time>2022-12-11T12:08:12Z</time>
      </trkpt>
      <trkpt lat="43.60307" lon="6.30517">
        <ele>717</ele>
        <time>2022-12-11T12:08:13Z</time>
      </trkpt>
      <trkpt lat="43.60306" lon="6.30517">
        <ele>717</ele>
        <time>2022-12-11T12:08:14Z</time>
      </trkpt>
      <trkpt lat="43.60306" lon="6.30517">
        <ele>717</ele>
        <time>2022-12-11T12:08:15Z</time>
      </trkpt>
      <trkpt lat="43.60305" lon="6.30516">
        <ele>718</ele>
        <time>2022-12-11T12:08:16Z</time>
      </trkpt>
      <trkpt lat="43.60305" lon="6.30516">
        <ele>718</ele>
        <time>2022-12-11T12:08:17Z</time>
      </trkpt>
      <trkpt lat="43.60304" lon="6.30516">
        <ele>718</ele>
        <time>2022-12-11T12:08:18Z</time>
      </trkpt>
      <trkpt lat="43.60304" lon="6.30515">
        <ele>718</ele>
        <time>2022-12-11T12:08:19Z</time>
      </trkpt>
      <trkpt lat="43.60303" lon="6.30515">
        <ele>718</ele>
        <time>2022-12-11T12:08:20Z</time>
      </trkpt>
      <trkpt lat="43.60302" lon="6.30515">
        <ele>718</ele>
        <time>2022-12-11T12:08:21Z</time>
      </trkpt>
      <trkpt lat="43.60302" lon="6.30515">
        <ele>718</ele>
        <time>2022-12-11T12:08:22Z</time>
      </trkpt>
      <trkpt lat="43.60301" lon="6.30515">
        <ele>718</ele>
        <time>2022-12-11T12:08:23Z</time>
      </trkpt>
      <trkpt lat="43.60301" lon="6.30514">
        <ele>718</ele>
        <time>2022-12-11T12:08:24Z</time>
      </trkpt>
      <trkpt lat="43.603" lon="6.30514">
        <ele>718</ele>
        <time>2022-12-11T12:08:25Z</time>
      </trkpt>
      <trkpt lat="43.60299" lon="6.30514">
        <ele>718</ele>
        <time>2022-12-11T12:08:26Z</time>
      </trkpt>
      <trkpt lat="43.60298" lon="6.30514">
        <ele>718</ele>
        <time>2022-12-11T12:08:27Z</time>
      </trkpt>
      <trkpt lat="43.60298" lon="6.30514">
        <ele>718</ele>
        <time>2022-12-11T12:08:28Z</time>
      </trkpt>
      <trkpt lat="43.60297" lon="6.30514">
        <ele>718</ele>
        <time>2022-12-11T12:08:29Z</time>
      </trkpt>
      <trkpt lat="43.60297" lon="6.30514">
        <ele>718</ele>
        <time>2022-12-11T12:08:30Z</time>
      </trkpt>
      <trkpt lat="43.60296" lon="6.30514">
        <ele>718</ele>
        <time>2022-12-11T12:08:31Z</time>
      </trkpt>
      <trkpt lat="43.60295" lon="6.30513">
        <ele>718</ele>
        <time>2022-12-11T12:08:32Z</time>
      </trkpt>
      <trkpt lat="43.60295" lon="6.30512">
        <ele>718</ele>
        <time>2022-12-11T12:08:33Z</time>
      </trkpt>
      <trkpt lat="43.60295" lon="6.30511">
        <ele>718</ele>
        <time>2022-12-11T12:08:34Z</time>
      </trkpt>
      <trkpt lat="43.60294" lon="6.30511">
        <ele>718</ele>
        <time>2022-12-11T12:08:35Z</time>
      </trkpt>
      <trkpt lat="43.60294" lon="6.3051">
        <ele>718</ele>
        <time>2022-12-11T12:08:36Z</time>
      </trkpt>
      <trkpt lat="43.60294" lon="6.30509">
        <ele>718</ele>
        <time>2022-12-11T12:08:37Z</time>
      </trkpt>
      <trkpt lat="43.60293" lon="6.30508">
        <ele>718</ele>
        <time>2022-12-11T12:08:38Z</time>
      </trkpt>
      <trkpt lat="43.60293" lon="6.30508">
        <ele>718</ele>
        <time>2022-12-11T12:08:39Z</time>
      </trkpt>
      <trkpt lat="43.60293" lon="6.30507">
        <ele>718</ele>
        <time>2022-12-11T12:08:40Z</time>
      </trkpt>
      <trkpt lat="43.60292" lon="6.30506">
        <ele>718</ele>
        <time>2022-12-11T12:08:41Z</time>
      </trkpt>
      <trkpt lat="43.60292" lon="6.30505">
        <ele>718</ele>
        <time>2022-12-11T12:08:42Z</time>
      </trkpt>
      <trkpt lat="43.60291" lon="6.30505">
        <ele>718</ele>
        <time>2022-12-11T12:08:43Z</time>
      </trkpt>
      <trkpt lat="43.60291" lon="6.30505">
        <ele>718</ele>
        <time>2022-12-11T12:08:44Z</time>
      </trkpt>
      <trkpt lat="43.6029" lon="6.30505">
        <ele>718</ele>
        <time>2022-12-11T12:08:45Z</time>
      </trkpt>
      <trkpt lat="43.60289" lon="6.30505">
        <ele>718</ele>
        <time>2022-12-11T12:08:46Z</time>
      </trkpt>
      <trkpt lat="43.60289" lon="6.30506">
        <ele>718</ele>
        <time>2022-12-11T12:08:47Z</time>
      </trkpt>
      <trkpt lat="43.60288" lon="6.30506">
        <ele>718</ele>
        <time>2022-12-11T12:08:48Z</time>
      </trkpt>
      <trkpt lat="43.60287" lon="6.30507">
        <ele>718</ele>
        <time>2022-12-11T12:08:49Z</time>
      </trkpt>
      <trkpt lat="43.60287" lon="6.30507">
        <ele>718</ele>
        <time>2022-12-11T12:08:50Z</time>
      </trkpt>
      <trkpt lat="43.60286" lon="6.30507">
        <ele>718</ele>
        <time>2022-12-11T12:08:51Z</time>
      </trkpt>
      <trkpt lat="43.60286" lon="6.30507">
        <ele>718</ele>
        <time>2022-12-11T12:08:52Z</time>
      </trkpt>
      <trkpt lat="43.60286" lon="6.30507">
        <ele>718</ele>
        <time>2022-12-11T12:08:53Z</time>
      </trkpt>
      <trkpt lat="43.60285" lon="6.30507">
        <ele>718</ele>
        <time>2022-12-11T12:08:54Z</time>
      </trkpt>
      <trkpt lat="43.60285" lon="6.30507">
        <ele>718</ele>
        <time>2022-12-11T12:08:55Z</time>
      </trkpt>
      <trkpt lat="43.60285" lon="6.30507">
        <ele>717</ele>
        <time>2022-12-11T12:08:56Z</time>
      </trkpt>
      <trkpt lat="43.60284" lon="6.30507">
        <ele>717</ele>
        <time>2022-12-11T12:08:57Z</time>
      </trkpt>
      <trkpt lat="43.60284" lon="6.30507">
        <ele>717</ele>
        <time>2022-12-11T12:08:58Z</time>
      </trkpt>
      <trkpt lat="43.60283" lon="6.30507">
        <ele>717</ele>
        <time>2022-12-11T12:08:59Z</time>
      </trkpt>
      <trkpt lat="43.60282" lon="6.30506">
        <ele>717</ele>
        <time>2022-12-11T12:09:00Z</time>
      </trkpt>
      <trkpt lat="43.60282" lon="6.30506">
        <ele>717</ele>
        <time>2022-12-11T12:09:01Z</time>
      </trkpt>
      <trkpt lat="43.60281" lon="6.30505">
        <ele>717</ele>
        <time>2022-12-11T12:09:02Z</time>
      </trkpt>
      <trkpt lat="43.60281" lon="6.30504">
        <ele>717</ele>
        <time>2022-12-11T12:09:03Z</time>
      </trkpt>
      <trkpt lat="43.6028" lon="6.30503">
        <ele>717</ele>
        <time>2022-12-11T12:09:04Z</time>
      </trkpt>
      <trkpt lat="43.60279" lon="6.30503">
        <ele>717</ele>
        <time>2022-12-11T12:09:05Z</time>
      </trkpt>
      <trkpt lat="43.60278" lon="6.30503">
        <ele>717</ele>
        <time>2022-12-11T12:09:06Z</time>
      </trkpt>
      <trkpt lat="43.60278" lon="6.30503">
        <ele>717</ele>
        <time>2022-12-11T12:09:07Z</time>
      </trkpt>
      <trkpt lat="43.60277" lon="6.30502">
        <ele>717</ele>
        <time>2022-12-11T12:09:08Z</time>
      </trkpt>
      <trkpt lat="43.60276" lon="6.30501">
        <ele>717</ele>
        <time>2022-12-11T12:09:09Z</time>
      </trkpt>
      <trkpt lat="43.60276" lon="6.305">
        <ele>717</ele>
        <time>2022-12-11T12:09:10Z</time>
      </trkpt>
      <trkpt lat="43.60276" lon="6.30499">
        <ele>717</ele>
        <time>2022-12-11T12:09:11Z</time>
      </trkpt>
      <trkpt lat="43.60276" lon="6.30498">
        <ele>717</ele>
        <time>2022-12-11T12:09:12Z</time>
      </trkpt>
      <trkpt lat="43.60276" lon="6.30497">
        <ele>717</ele>
        <time>2022-12-11T12:09:13Z</time>
      </trkpt>
      <trkpt lat="43.60275" lon="6.30496">
        <ele>717</ele>
        <time>2022-12-11T12:09:14Z</time>
      </trkpt>
      <trkpt lat="43.60275" lon="6.30494">
        <ele>717</ele>
        <time>2022-12-11T12:09:15Z</time>
      </trkpt>
      <trkpt lat="43.60275" lon="6.30493">
        <ele>716</ele>
        <time>2022-12-11T12:09:16Z</time>
      </trkpt>
      <trkpt lat="43.60275" lon="6.30492">
        <ele>715</ele>
        <time>2022-12-11T12:09:17Z</time>
      </trkpt>
      <trkpt lat="43.60275" lon="6.30491">
        <ele>715</ele>
        <time>2022-12-11T12:09:18Z</time>
      </trkpt>
      <trkpt lat="43.60274" lon="6.3049">
        <ele>715</ele>
        <time>2022-12-11T12:09:19Z</time>
      </trkpt>
      <trkpt lat="43.60274" lon="6.3049">
        <ele>715</ele>
        <time>2022-12-11T12:09:20Z</time>
      </trkpt>
      <trkpt lat="43.60274" lon="6.30489">
        <ele>715</ele>
        <time>2022-12-11T12:09:21Z</time>
      </trkpt>
      <trkpt lat="43.60273" lon="6.30489">
        <ele>715</ele>
        <time>2022-12-11T12:09:22Z</time>
      </trkpt>
      <trkpt lat="43.60273" lon="6.30488">
        <ele>715</ele>
        <time>2022-12-11T12:09:23Z</time>
      </trkpt>
      <trkpt lat="43.60273" lon="6.30488">
        <ele>715</ele>
        <time>2022-12-11T12:09:24Z</time>
      </trkpt>
      <trkpt lat="43.60272" lon="6.30487">
        <ele>714</ele>
        <time>2022-12-11T12:09:25Z</time>
      </trkpt>
      <trkpt lat="43.60271" lon="6.30487">
        <ele>714</ele>
        <time>2022-12-11T12:09:26Z</time>
      </trkpt>
      <trkpt lat="43.60271" lon="6.30487">
        <ele>714</ele>
        <time>2022-12-11T12:09:27Z</time>
      </trkpt>
      <trkpt lat="43.6027" lon="6.30487">
        <ele>714</ele>
        <time>2022-12-11T12:09:28Z</time>
      </trkpt>
      <trkpt lat="43.60269" lon="6.30487">
        <ele>714</ele>
        <time>2022-12-11T12:09:29Z</time>
      </trkpt>
      <trkpt lat="43.60269" lon="6.30487">
        <ele>714</ele>
        <time>2022-12-11T12:09:30Z</time>
      </trkpt>
      <trkpt lat="43.60269" lon="6.30487">
        <ele>714</ele>
        <time>2022-12-11T12:09:31Z</time>
      </trkpt>
      <trkpt lat="43.60268" lon="6.30486">
        <ele>714</ele>
        <time>2022-12-11T12:09:32Z</time>
      </trkpt>
      <trkpt lat="43.60268" lon="6.30486">
        <ele>714</ele>
        <time>2022-12-11T12:09:33Z</time>
      </trkpt>
      <trkpt lat="43.60267" lon="6.30486">
        <ele>714</ele>
        <time>2022-12-11T12:09:34Z</time>
      </trkpt>
      <trkpt lat="43.60267" lon="6.30486">
        <ele>714</ele>
        <time>2022-12-11T12:09:35Z</time>
      </trkpt>
      <trkpt lat="43.60266" lon="6.30486">
        <ele>714</ele>
        <time>2022-12-11T12:09:36Z</time>
      </trkpt>
      <trkpt lat="43.60266" lon="6.30485">
        <ele>714</ele>
        <time>2022-12-11T12:09:37Z</time>
      </trkpt>
      <trkpt lat="43.60265" lon="6.30484">
        <ele>714</ele>
        <time>2022-12-11T12:09:38Z</time>
      </trkpt>
      <trkpt lat="43.60264" lon="6.30483">
        <ele>714</ele>
        <time>2022-12-11T12:09:39Z</time>
      </trkpt>
      <trkpt lat="43.60264" lon="6.30483">
        <ele>714</ele>
        <time>2022-12-11T12:09:40Z</time>
      </trkpt>
      <trkpt lat="43.60263" lon="6.30482">
        <ele>714</ele>
        <time>2022-12-11T12:09:41Z</time>
      </trkpt>
      <trkpt lat="43.60262" lon="6.30482">
        <ele>713</ele>
        <time>2022-12-11T12:09:42Z</time>
      </trkpt>
      <trkpt lat="43.60261" lon="6.30482">
        <ele>713</ele>
        <time>2022-12-11T12:09:43Z</time>
      </trkpt>
      <trkpt lat="43.60261" lon="6.30481">
        <ele>713</ele>
        <time>2022-12-11T12:09:44Z</time>
      </trkpt>
      <trkpt lat="43.6026" lon="6.3048">
        <ele>712</ele>
        <time>2022-12-11T12:09:45Z</time>
      </trkpt>
      <trkpt lat="43.60259" lon="6.3048">
        <ele>712</ele>
        <time>2022-12-11T12:09:46Z</time>
      </trkpt>
      <trkpt lat="43.60259" lon="6.3048">
        <ele>711</ele>
        <time>2022-12-11T12:09:47Z</time>
      </trkpt>
      <trkpt lat="43.60258" lon="6.3048">
        <ele>711</ele>
        <time>2022-12-11T12:09:48Z</time>
      </trkpt>
      <trkpt lat="43.60257" lon="6.3048">
        <ele>711</ele>
        <time>2022-12-11T12:09:49Z</time>
      </trkpt>
      <trkpt lat="43.60256" lon="6.3048">
        <ele>711</ele>
        <time>2022-12-11T12:09:50Z</time>
      </trkpt>
      <trkpt lat="43.60256" lon="6.30481">
        <ele>711</ele>
        <time>2022-12-11T12:09:51Z</time>
      </trkpt>
      <trkpt lat="43.60255" lon="6.30481">
        <ele>711</ele>
        <time>2022-12-11T12:09:52Z</time>
      </trkpt>
      <trkpt lat="43.60254" lon="6.30481">
        <ele>711</ele>
        <time>2022-12-11T12:09:53Z</time>
      </trkpt>
      <trkpt lat="43.60254" lon="6.30481">
        <ele>711</ele>
        <time>2022-12-11T12:09:54Z</time>
      </trkpt>
      <trkpt lat="43.60253" lon="6.30482">
        <ele>711</ele>
        <time>2022-12-11T12:09:55Z</time>
      </trkpt>
      <trkpt lat="43.60252" lon="6.30482">
        <ele>711</ele>
        <time>2022-12-11T12:09:56Z</time>
      </trkpt>
      <trkpt lat="43.60252" lon="6.30482">
        <ele>711</ele>
        <time>2022-12-11T12:09:57Z</time>
      </trkpt>
      <trkpt lat="43.60252" lon="6.30482">
        <ele>711</ele>
        <time>2022-12-11T12:09:58Z</time>
      </trkpt>
      <trkpt lat="43.60251" lon="6.30483">
        <ele>711</ele>
        <time>2022-12-11T12:09:59Z</time>
      </trkpt>
      <trkpt lat="43.60251" lon="6.30484">
        <ele>711</ele>
        <time>2022-12-11T12:10:00Z</time>
      </trkpt>
      <trkpt lat="43.60251" lon="6.30485">
        <ele>711</ele>
        <time>2022-12-11T12:10:01Z</time>
      </trkpt>
      <trkpt lat="43.6025" lon="6.30485">
        <ele>711</ele>
        <time>2022-12-11T12:10:02Z</time>
      </trkpt>
      <trkpt lat="43.60251" lon="6.30486">
        <ele>711</ele>
        <time>2022-12-11T12:10:03Z</time>
      </trkpt>
      <trkpt lat="43.6025" lon="6.30487">
        <ele>711</ele>
        <time>2022-12-11T12:10:04Z</time>
      </trkpt>
      <trkpt lat="43.60249" lon="6.30486">
        <ele>711</ele>
        <time>2022-12-11T12:10:05Z</time>
      </trkpt>
      <trkpt lat="43.60249" lon="6.30486">
        <ele>712</ele>
        <time>2022-12-11T12:10:06Z</time>
      </trkpt>
      <trkpt lat="43.60248" lon="6.30486">
        <ele>712</ele>
        <time>2022-12-11T12:10:07Z</time>
      </trkpt>
      <trkpt lat="43.60248" lon="6.30484">
        <ele>712</ele>
        <time>2022-12-11T12:10:08Z</time>
      </trkpt>
      <trkpt lat="43.60247" lon="6.30483">
        <ele>712</ele>
        <time>2022-12-11T12:10:09Z</time>
      </trkpt>
      <trkpt lat="43.60246" lon="6.30481">
        <ele>712</ele>
        <time>2022-12-11T12:10:10Z</time>
      </trkpt>
      <trkpt lat="43.60245" lon="6.30481">
        <ele>712</ele>
        <time>2022-12-11T12:10:11Z</time>
      </trkpt>
      <trkpt lat="43.60244" lon="6.3048">
        <ele>712</ele>
        <time>2022-12-11T12:10:12Z</time>
      </trkpt>
      <trkpt lat="43.60243" lon="6.3048">
        <ele>712</ele>
        <time>2022-12-11T12:10:13Z</time>
      </trkpt>
      <trkpt lat="43.60243" lon="6.30479">
        <ele>713</ele>
        <time>2022-12-11T12:10:14Z</time>
      </trkpt>
      <trkpt lat="43.60242" lon="6.30478">
        <ele>713</ele>
        <time>2022-12-11T12:10:15Z</time>
      </trkpt>
      <trkpt lat="43.60241" lon="6.30478">
        <ele>714</ele>
        <time>2022-12-11T12:10:16Z</time>
      </trkpt>
      <trkpt lat="43.60239" lon="6.30477">
        <ele>714</ele>
        <time>2022-12-11T12:10:17Z</time>
      </trkpt>
      <trkpt lat="43.60239" lon="6.30477">
        <ele>714</ele>
        <time>2022-12-11T12:10:18Z</time>
      </trkpt>
      <trkpt lat="43.60238" lon="6.30477">
        <ele>714</ele>
        <time>2022-12-11T12:10:19Z</time>
      </trkpt>
      <trkpt lat="43.60237" lon="6.30477">
        <ele>714</ele>
        <time>2022-12-11T12:10:20Z</time>
      </trkpt>
      <trkpt lat="43.60236" lon="6.30476">
        <ele>714</ele>
        <time>2022-12-11T12:10:21Z</time>
      </trkpt>
      <trkpt lat="43.60235" lon="6.30476">
        <ele>714</ele>
        <time>2022-12-11T12:10:22Z</time>
      </trkpt>
      <trkpt lat="43.60235" lon="6.30475">
        <ele>714</ele>
        <time>2022-12-11T12:10:23Z</time>
      </trkpt>
      <trkpt lat="43.60234" lon="6.30475">
        <ele>714</ele>
        <time>2022-12-11T12:10:24Z</time>
      </trkpt>
      <trkpt lat="43.60233" lon="6.30475">
        <ele>714</ele>
        <time>2022-12-11T12:10:25Z</time>
      </trkpt>
      <trkpt lat="43.60232" lon="6.30476">
        <ele>714</ele>
        <time>2022-12-11T12:10:26Z</time>
      </trkpt>
      <trkpt lat="43.60231" lon="6.30476">
        <ele>714</ele>
        <time>2022-12-11T12:10:27Z</time>
      </trkpt>
      <trkpt lat="43.6023" lon="6.30477">
        <ele>714</ele>
        <time>2022-12-11T12:10:28Z</time>
      </trkpt>
      <trkpt lat="43.6023" lon="6.30477">
        <ele>714</ele>
        <time>2022-12-11T12:10:29Z</time>
      </trkpt>
      <trkpt lat="43.60228" lon="6.30478">
        <ele>713</ele>
        <time>2022-12-11T12:10:30Z</time>
      </trkpt>
      <trkpt lat="43.60227" lon="6.30478">
        <ele>713</ele>
        <time>2022-12-11T12:10:31Z</time>
      </trkpt>
      <trkpt lat="43.60227" lon="6.30478">
        <ele>713</ele>
        <time>2022-12-11T12:10:32Z</time>
      </trkpt>
      <trkpt lat="43.60226" lon="6.30479">
        <ele>713</ele>
        <time>2022-12-11T12:10:33Z</time>
      </trkpt>
      <trkpt lat="43.60224" lon="6.30479">
        <ele>712</ele>
        <time>2022-12-11T12:10:34Z</time>
      </trkpt>
      <trkpt lat="43.60223" lon="6.3048">
        <ele>712</ele>
        <time>2022-12-11T12:10:35Z</time>
      </trkpt>
      <trkpt lat="43.60222" lon="6.30481">
        <ele>712</ele>
        <time>2022-12-11T12:10:36Z</time>
      </trkpt>
      <trkpt lat="43.60221" lon="6.30481">
        <ele>712</ele>
        <time>2022-12-11T12:10:37Z</time>
      </trkpt>
      <trkpt lat="43.6022" lon="6.30481">
        <ele>712</ele>
        <time>2022-12-11T12:10:38Z</time>
      </trkpt>
      <trkpt lat="43.60219" lon="6.3048">
        <ele>712</ele>
        <time>2022-12-11T12:10:39Z</time>
      </trkpt>
      <trkpt lat="43.60218" lon="6.3048">
        <ele>712</ele>
        <time>2022-12-11T12:10:40Z</time>
      </trkpt>
      <trkpt lat="43.60217" lon="6.3048">
        <ele>712</ele>
        <time>2022-12-11T12:10:41Z</time>
      </trkpt>
      <trkpt lat="43.60216" lon="6.30479">
        <ele>712</ele>
        <time>2022-12-11T12:10:42Z</time>
      </trkpt>
      <trkpt lat="43.60215" lon="6.30479">
        <ele>712</ele>
        <time>2022-12-11T12:10:43Z</time>
      </trkpt>
      <trkpt lat="43.60214" lon="6.30478">
        <ele>712</ele>
        <time>2022-12-11T12:10:44Z</time>
      </trkpt>
      <trkpt lat="43.60213" lon="6.30478">
        <ele>712</ele>
        <time>2022-12-11T12:10:45Z</time>
      </trkpt>
      <trkpt lat="43.60212" lon="6.30478">
        <ele>712</ele>
        <time>2022-12-11T12:10:46Z</time>
      </trkpt>
      <trkpt lat="43.60211" lon="6.30478">
        <ele>711</ele>
        <time>2022-12-11T12:10:47Z</time>
      </trkpt>
      <trkpt lat="43.6021" lon="6.30477">
        <ele>711</ele>
        <time>2022-12-11T12:10:48Z</time>
      </trkpt>
      <trkpt lat="43.60209" lon="6.30477">
        <ele>711</ele>
        <time>2022-12-11T12:10:49Z</time>
      </trkpt>
      <trkpt lat="43.60208" lon="6.30477">
        <ele>711</ele>
        <time>2022-12-11T12:10:50Z</time>
      </trkpt>
      <trkpt lat="43.60208" lon="6.30477">
        <ele>710</ele>
        <time>2022-12-11T12:10:51Z</time>
      </trkpt>
      <trkpt lat="43.60207" lon="6.30477">
        <ele>710</ele>
        <time>2022-12-11T12:10:52Z</time>
      </trkpt>
      <trkpt lat="43.60206" lon="6.30477">
        <ele>710</ele>
        <time>2022-12-11T12:10:53Z</time>
      </trkpt>
      <trkpt lat="43.60205" lon="6.30477">
        <ele>710</ele>
        <time>2022-12-11T12:10:54Z</time>
      </trkpt>
      <trkpt lat="43.60204" lon="6.30477">
        <ele>710</ele>
        <time>2022-12-11T12:10:55Z</time>
      </trkpt>
      <trkpt lat="43.60204" lon="6.30477">
        <ele>709</ele>
        <time>2022-12-11T12:10:56Z</time>
      </trkpt>
      <trkpt lat="43.60203" lon="6.30477">
        <ele>709</ele>
        <time>2022-12-11T12:10:57Z</time>
      </trkpt>
      <trkpt lat="43.60202" lon="6.30477">
        <ele>709</ele>
        <time>2022-12-11T12:10:58Z</time>
      </trkpt>
      <trkpt lat="43.60201" lon="6.30477">
        <ele>708</ele>
        <time>2022-12-11T12:10:59Z</time>
      </trkpt>
      <trkpt lat="43.60201" lon="6.30477">
        <ele>707</ele>
        <time>2022-12-11T12:11:00Z</time>
      </trkpt>
      <trkpt lat="43.602" lon="6.30477">
        <ele>707</ele>
        <time>2022-12-11T12:11:01Z</time>
      </trkpt>
      <trkpt lat="43.60199" lon="6.30477">
        <ele>706</ele>
        <time>2022-12-11T12:11:02Z</time>
      </trkpt>
      <trkpt lat="43.60198" lon="6.30477">
        <ele>706</ele>
        <time>2022-12-11T12:11:03Z</time>
      </trkpt>
      <trkpt lat="43.60197" lon="6.30477">
        <ele>706</ele>
        <time>2022-12-11T12:11:04Z</time>
      </trkpt>
      <trkpt lat="43.60196" lon="6.30476">
        <ele>705</ele>
        <time>2022-12-11T12:11:05Z</time>
      </trkpt>
      <trkpt lat="43.60196" lon="6.30476">
        <ele>705</ele>
        <time>2022-12-11T12:11:06Z</time>
      </trkpt>
      <trkpt lat="43.60195" lon="6.30475">
        <ele>705</ele>
        <time>2022-12-11T12:11:07Z</time>
      </trkpt>
      <trkpt lat="43.60194" lon="6.30475">
        <ele>705</ele>
        <time>2022-12-11T12:11:08Z</time>
      </trkpt>
      <trkpt lat="43.60193" lon="6.30475">
        <ele>705</ele>
        <time>2022-12-11T12:11:09Z</time>
      </trkpt>
      <trkpt lat="43.60192" lon="6.30475">
        <ele>705</ele>
        <time>2022-12-11T12:11:10Z</time>
      </trkpt>
      <trkpt lat="43.60191" lon="6.30476">
        <ele>705</ele>
        <time>2022-12-11T12:11:11Z</time>
      </trkpt>
      <trkpt lat="43.6019" lon="6.30476">
        <ele>704</ele>
        <time>2022-12-11T12:11:12Z</time>
      </trkpt>
      <trkpt lat="43.60189" lon="6.30476">
        <ele>704</ele>
        <time>2022-12-11T12:11:13Z</time>
      </trkpt>
      <trkpt lat="43.60189" lon="6.30476">
        <ele>704</ele>
        <time>2022-12-11T12:11:14Z</time>
      </trkpt>
      <trkpt lat="43.60188" lon="6.30476">
        <ele>704</ele>
        <time>2022-12-11T12:11:15Z</time>
      </trkpt>
      <trkpt lat="43.60187" lon="6.30475">
        <ele>703</ele>
        <time>2022-12-11T12:11:16Z</time>
      </trkpt>
      <trkpt lat="43.60187" lon="6.30475">
        <ele>703</ele>
        <time>2022-12-11T12:11:17Z</time>
      </trkpt>
      <trkpt lat="43.60186" lon="6.30474">
        <ele>703</ele>
        <time>2022-12-11T12:11:18Z</time>
      </trkpt>
      <trkpt lat="43.60184" lon="6.30474">
        <ele>703</ele>
        <time>2022-12-11T12:11:19Z</time>
      </trkpt>
      <trkpt lat="43.60184" lon="6.30474">
        <ele>703</ele>
        <time>2022-12-11T12:11:20Z</time>
      </trkpt>
      <trkpt lat="43.60183" lon="6.30474">
        <ele>703</ele>
        <time>2022-12-11T12:11:21Z</time>
      </trkpt>
      <trkpt lat="43.60182" lon="6.30473">
        <ele>703</ele>
        <time>2022-12-11T12:11:22Z</time>
      </trkpt>
      <trkpt lat="43.60181" lon="6.30473">
        <ele>703</ele>
        <time>2022-12-11T12:11:23Z</time>
      </trkpt>
      <trkpt lat="43.60181" lon="6.30473">
        <ele>703</ele>
        <time>2022-12-11T12:11:24Z</time>
      </trkpt>
      <trkpt lat="43.6018" lon="6.30472">
        <ele>703</ele>
        <time>2022-12-11T12:11:25Z</time>
      </trkpt>
      <trkpt lat="43.60179" lon="6.30472">
        <ele>703</ele>
        <time>2022-12-11T12:11:26Z</time>
      </trkpt>
      <trkpt lat="43.60179" lon="6.30472">
        <ele>703</ele>
        <time>2022-12-11T12:11:27Z</time>
      </trkpt>
      <trkpt lat="43.60178" lon="6.30472">
        <ele>703</ele>
        <time>2022-12-11T12:11:28Z</time>
      </trkpt>
      <trkpt lat="43.60177" lon="6.30472">
        <ele>703</ele>
        <time>2022-12-11T12:11:29Z</time>
      </trkpt>
      <trkpt lat="43.60176" lon="6.30471">
        <ele>703</ele>
        <time>2022-12-11T12:11:30Z</time>
      </trkpt>
      <trkpt lat="43.60175" lon="6.30471">
        <ele>703</ele>
        <time>2022-12-11T12:11:31Z</time>
      </trkpt>
      <trkpt lat="43.60174" lon="6.30471">
        <ele>703</ele>
        <time>2022-12-11T12:11:32Z</time>
      </trkpt>
      <trkpt lat="43.60173" lon="6.30472">
        <ele>703</ele>
        <time>2022-12-11T12:11:33Z</time>
      </trkpt>
      <trkpt lat="43.60173" lon="6.30473">
        <ele>703</ele>
        <time>2022-12-11T12:11:34Z</time>
      </trkpt>
      <trkpt lat="43.60173" lon="6.30474">
        <ele>703</ele>
        <time>2022-12-11T12:11:35Z</time>
      </trkpt>
      <trkpt lat="43.60174" lon="6.30475">
        <ele>703</ele>
        <time>2022-12-11T12:11:36Z</time>
      </trkpt>
      <trkpt lat="43.60174" lon="6.30476">
        <ele>703</ele>
        <time>2022-12-11T12:11:37Z</time>
      </trkpt>
      <trkpt lat="43.60175" lon="6.30476">
        <ele>703</ele>
        <time>2022-12-11T12:11:38Z</time>
      </trkpt>
      <trkpt lat="43.60175" lon="6.30476">
        <ele>703</ele>
        <time>2022-12-11T12:11:39Z</time>
      </trkpt>
      <trkpt lat="43.60175" lon="6.30476">
        <ele>703</ele>
        <time>2022-12-11T12:11:40Z</time>
      </trkpt>
      <trkpt lat="43.60175" lon="6.30476">
        <ele>703</ele>
        <time>2022-12-11T12:11:41Z</time>
      </trkpt>
      <trkpt lat="43.60176" lon="6.30476">
        <ele>703</ele>
        <time>2022-12-11T12:11:42Z</time>
      </trkpt>
      <trkpt lat="43.60176" lon="6.30476">
        <ele>703</ele>
        <time>2022-12-11T12:11:43Z</time>
      </trkpt>
      <trkpt lat="43.60176" lon="6.30476">
        <ele>703</ele>
        <time>2022-12-11T12:11:44Z</time>
      </trkpt>
      <trkpt lat="43.60176" lon="6.30476">
        <ele>703</ele>
        <time>2022-12-11T12:11:45Z</time>
      </trkpt>
      <trkpt lat="43.60176" lon="6.30476">
        <ele>703</ele>
        <time>2022-12-11T12:11:46Z</time>
      </trkpt>
      <trkpt lat="43.60176" lon="6.30476">
        <ele>703</ele>
        <time>2022-12-11T12:11:47Z</time>
      </trkpt>
      <trkpt lat="43.60176" lon="6.30476">
        <ele>703</ele>
        <time>2022-12-11T12:11:48Z</time>
      </trkpt>
      <trkpt lat="43.60176" lon="6.30476">
        <ele>703</ele>
        <time>2022-12-11T12:11:49Z</time>
      </trkpt>
      <trkpt lat="43.60176" lon="6.30476">
        <ele>703</ele>
        <time>2022-12-11T12:11:50Z</time>
      </trkpt>
      <trkpt lat="43.60176" lon="6.30476">
        <ele>703</ele>
        <time>2022-12-11T12:11:51Z</time>
      </trkpt>
      <trkpt lat="43.60176" lon="6.30476">
        <ele>703</ele>
        <time>2022-12-11T12:11:52Z</time>
      </trkpt>
      <trkpt lat="43.60176" lon="6.30476">
        <ele>703</ele>
        <time>2022-12-11T12:11:53Z</time>
      </trkpt>
      <trkpt lat="43.60176" lon="6.30476">
        <ele>703</ele>
        <time>2022-12-11T12:11:54Z</time>
      </trkpt>
      <trkpt lat="43.60176" lon="6.30476">
        <ele>703</ele>
        <time>2022-12-11T12:11:55Z</time>
      </trkpt>
      <trkpt lat="43.60176" lon="6.30476">
        <ele>703</ele>
        <time>2022-12-11T12:11:56Z</time>
      </trkpt>
      <trkpt lat="43.60176" lon="6.30476">
        <ele>703</ele>
        <time>2022-12-11T12:11:57Z</time>
      </trkpt>
      <trkpt lat="43.60176" lon="6.30476">
        <ele>703</ele>
        <time>2022-12-11T12:11:58Z</time>
      </trkpt>
      <trkpt lat="43.60176" lon="6.30476">
        <ele>703</ele>
        <time>2022-12-11T12:11:59Z</time>
      </trkpt>
      <trkpt lat="43.60176" lon="6.30476">
        <ele>703</ele>
        <time>2022-12-11T12:12:00Z</time>
      </trkpt>
      <trkpt lat="43.60176" lon="6.30476">
        <ele>703</ele>
        <time>2022-12-11T12:12:01Z</time>
      </trkpt>
      <trkpt lat="43.60176" lon="6.30476">
        <ele>702</ele>
        <time>2022-12-11T12:12:02Z</time>
      </trkpt>
      <trkpt lat="43.60176" lon="6.30476">
        <ele>702</ele>
        <time>2022-12-11T12:12:03Z</time>
      </trkpt>
      <trkpt lat="43.60176" lon="6.30476">
        <ele>702</ele>
        <time>2022-12-11T12:12:04Z</time>
      </trkpt>
      <trkpt lat="43.60176" lon="6.30476">
        <ele>702</ele>
        <time>2022-12-11T12:12:05Z</time>
      </trkpt>
      <trkpt lat="43.60176" lon="6.30476">
        <ele>702</ele>
        <time>2022-12-11T12:12:06Z</time>
      </trkpt>
      <trkpt lat="43.60176" lon="6.30476">
        <ele>702</ele>
        <time>2022-12-11T12:12:07Z</time>
      </trkpt>
      <trkpt lat="43.60176" lon="6.30476">
        <ele>702</ele>
        <time>2022-12-11T12:12:08Z</time>
      </trkpt>
      <trkpt lat="43.60176" lon="6.30476">
        <ele>702</ele>
        <time>2022-12-11T12:12:09Z</time>
      </trkpt>
      <trkpt lat="43.60176" lon="6.30476">
        <ele>702</ele>
        <time>2022-12-11T12:12:10Z</time>
      </trkpt>
      <trkpt lat="43.60176" lon="6.30476">
        <ele>702</ele>
        <time>2022-12-11T12:12:11Z</time>
      </trkpt>
      <trkpt lat="43.60176" lon="6.30476">
        <ele>702</ele>
        <time>2022-12-11T12:12:12Z</time>
      </trkpt>
      <trkpt lat="43.60174" lon="6.30472">
        <ele>702</ele>
        <time>2022-12-11T12:12:13Z</time>
      </trkpt>
      <trkpt lat="43.60174" lon="6.30472">
        <ele>702</ele>
        <time>2022-12-11T12:12:14Z</time>
      </trkpt>
      <trkpt lat="43.60174" lon="6.30472">
        <ele>702</ele>
        <time>2022-12-11T12:12:15Z</time>
      </trkpt>
      <trkpt lat="43.60174" lon="6.30471">
        <ele>702</ele>
        <time>2022-12-11T12:12:16Z</time>
      </trkpt>
      <trkpt lat="43.60174" lon="6.30471">
        <ele>702</ele>
        <time>2022-12-11T12:12:17Z</time>
      </trkpt>
      <trkpt lat="43.60174" lon="6.30471">
        <ele>702</ele>
        <time>2022-12-11T12:12:18Z</time>
      </trkpt>
      <trkpt lat="43.60174" lon="6.30471">
        <ele>702</ele>
        <time>2022-12-11T12:12:19Z</time>
      </trkpt>
      <trkpt lat="43.60174" lon="6.30471">
        <ele>702</ele>
        <time>2022-12-11T12:12:20Z</time>
      </trkpt>
      <trkpt lat="43.60174" lon="6.3047">
        <ele>702</ele>
        <time>2022-12-11T12:12:21Z</time>
      </trkpt>
      <trkpt lat="43.60174" lon="6.3047">
        <ele>702</ele>
        <time>2022-12-11T12:12:22Z</time>
      </trkpt>
      <trkpt lat="43.60174" lon="6.3047">
        <ele>702</ele>
        <time>2022-12-11T12:12:23Z</time>
      </trkpt>
      <trkpt lat="43.60174" lon="6.3047">
        <ele>702</ele>
        <time>2022-12-11T12:12:24Z</time>
      </trkpt>
      <trkpt lat="43.60174" lon="6.3047">
        <ele>702</ele>
        <time>2022-12-11T12:12:25Z</time>
      </trkpt>
      <trkpt lat="43.60174" lon="6.3047">
        <ele>702</ele>
        <time>2022-12-11T12:12:26Z</time>
      </trkpt>
      <trkpt lat="43.60174" lon="6.3047">
        <ele>702</ele>
        <time>2022-12-11T12:12:27Z</time>
      </trkpt>
      <trkpt lat="43.60174" lon="6.3047">
        <ele>702</ele>
        <time>2022-12-11T12:12:28Z</time>
      </trkpt>
      <trkpt lat="43.60174" lon="6.3047">
        <ele>702</ele>
        <time>2022-12-11T12:12:29Z</time>
      </trkpt>
      <trkpt lat="43.60174" lon="6.3047">
        <ele>702</ele>
        <time>2022-12-11T12:12:30Z</time>
      </trkpt>
      <trkpt lat="43.60174" lon="6.3047">
        <ele>702</ele>
        <time>2022-12-11T12:12:31Z</time>
      </trkpt>
      <trkpt lat="43.60174" lon="6.3047">
        <ele>702</ele>
        <time>2022-12-11T12:12:32Z</time>
      </trkpt>
      <trkpt lat="43.60174" lon="6.3047">
        <ele>702</ele>
        <time>2022-12-11T12:12:33Z</time>
      </trkpt>
      <trkpt lat="43.60173" lon="6.30471">
        <ele>702</ele>
        <time>2022-12-11T12:12:34Z</time>
      </trkpt>
      <trkpt lat="43.60173" lon="6.30471">
        <ele>703</ele>
        <time>2022-12-11T12:12:35Z</time>
      </trkpt>
      <trkpt lat="43.60172" lon="6.30471">
        <ele>703</ele>
        <time>2022-12-11T12:12:36Z</time>
      </trkpt>
      <trkpt lat="43.60172" lon="6.30471">
        <ele>703</ele>
        <time>2022-12-11T12:12:37Z</time>
      </trkpt>
      <trkpt lat="43.60171" lon="6.30472">
        <ele>703</ele>
        <time>2022-12-11T12:12:38Z</time>
      </trkpt>
      <trkpt lat="43.60171" lon="6.30472">
        <ele>703</ele>
        <time>2022-12-11T12:12:39Z</time>
      </trkpt>
      <trkpt lat="43.6017" lon="6.30472">
        <ele>703</ele>
        <time>2022-12-11T12:12:40Z</time>
      </trkpt>
      <trkpt lat="43.60169" lon="6.30472">
        <ele>703</ele>
        <time>2022-12-11T12:12:41Z</time>
      </trkpt>
      <trkpt lat="43.60169" lon="6.30473">
        <ele>703</ele>
        <time>2022-12-11T12:12:42Z</time>
      </trkpt>
      <trkpt lat="43.60169" lon="6.30473">
        <ele>703</ele>
        <time>2022-12-11T12:12:43Z</time>
      </trkpt>
      <trkpt lat="43.60169" lon="6.30474">
        <ele>703</ele>
        <time>2022-12-11T12:12:44Z</time>
      </trkpt>
      <trkpt lat="43.60168" lon="6.30475">
        <ele>703</ele>
        <time>2022-12-11T12:12:45Z</time>
      </trkpt>
      <trkpt lat="43.60168" lon="6.30477">
        <ele>703</ele>
        <time>2022-12-11T12:12:46Z</time>
      </trkpt>
      <trkpt lat="43.60168" lon="6.30478">
        <ele>703</ele>
        <time>2022-12-11T12:12:47Z</time>
      </trkpt>
      <trkpt lat="43.60167" lon="6.30478">
        <ele>703</ele>
        <time>2022-12-11T12:12:48Z</time>
      </trkpt>
      <trkpt lat="43.60167" lon="6.30479">
        <ele>702</ele>
        <time>2022-12-11T12:12:49Z</time>
      </trkpt>
      <trkpt lat="43.60167" lon="6.3048">
        <ele>702</ele>
        <time>2022-12-11T12:12:50Z</time>
      </trkpt>
      <trkpt lat="43.60166" lon="6.3048">
        <ele>702</ele>
        <time>2022-12-11T12:12:51Z</time>
      </trkpt>
      <trkpt lat="43.60165" lon="6.30481">
        <ele>702</ele>
        <time>2022-12-11T12:12:52Z</time>
      </trkpt>
      <trkpt lat="43.60165" lon="6.30482">
        <ele>702</ele>
        <time>2022-12-11T12:12:53Z</time>
      </trkpt>
      <trkpt lat="43.60164" lon="6.30483">
        <ele>702</ele>
        <time>2022-12-11T12:12:54Z</time>
      </trkpt>
      <trkpt lat="43.60164" lon="6.30484">
        <ele>702</ele>
        <time>2022-12-11T12:12:55Z</time>
      </trkpt>
      <trkpt lat="43.60163" lon="6.30485">
        <ele>702</ele>
        <time>2022-12-11T12:12:56Z</time>
      </trkpt>
      <trkpt lat="43.60162" lon="6.30487">
        <ele>702</ele>
        <time>2022-12-11T12:12:57Z</time>
      </trkpt>
      <trkpt lat="43.60161" lon="6.30489">
        <ele>703</ele>
        <time>2022-12-11T12:12:58Z</time>
      </trkpt>
      <trkpt lat="43.6016" lon="6.3049">
        <ele>703</ele>
        <time>2022-12-11T12:12:59Z</time>
      </trkpt>
      <trkpt lat="43.6016" lon="6.30491">
        <ele>703</ele>
        <time>2022-12-11T12:13:00Z</time>
      </trkpt>
      <trkpt lat="43.6016" lon="6.30491">
        <ele>703</ele>
        <time>2022-12-11T12:13:01Z</time>
      </trkpt>
      <trkpt lat="43.6016" lon="6.30491">
        <ele>703</ele>
        <time>2022-12-11T12:13:02Z</time>
      </trkpt>
      <trkpt lat="43.60159" lon="6.30492">
        <ele>703</ele>
        <time>2022-12-11T12:13:03Z</time>
      </trkpt>
      <trkpt lat="43.60158" lon="6.30493">
        <ele>703</ele>
        <time>2022-12-11T12:13:04Z</time>
      </trkpt>
      <trkpt lat="43.60156" lon="6.30495">
        <ele>703</ele>
        <time>2022-12-11T12:13:05Z</time>
      </trkpt>
      <trkpt lat="43.60155" lon="6.30496">
        <ele>703</ele>
        <time>2022-12-11T12:13:06Z</time>
      </trkpt>
      <trkpt lat="43.60154" lon="6.30498">
        <ele>703</ele>
        <time>2022-12-11T12:13:07Z</time>
      </trkpt>
      <trkpt lat="43.60154" lon="6.30499">
        <ele>703</ele>
        <time>2022-12-11T12:13:08Z</time>
      </trkpt>
      <trkpt lat="43.60153" lon="6.305">
        <ele>704</ele>
        <time>2022-12-11T12:13:09Z</time>
      </trkpt>
      <trkpt lat="43.60151" lon="6.30501">
        <ele>704</ele>
        <time>2022-12-11T12:13:11Z</time>
      </trkpt>
      <trkpt lat="43.6015" lon="6.30502">
        <ele>704</ele>
        <time>2022-12-11T12:13:12Z</time>
      </trkpt>
      <trkpt lat="43.60149" lon="6.30503">
        <ele>704</ele>
        <time>2022-12-11T12:13:13Z</time>
      </trkpt>
      <trkpt lat="43.60149" lon="6.30504">
        <ele>704</ele>
        <time>2022-12-11T12:13:14Z</time>
      </trkpt>
      <trkpt lat="43.60148" lon="6.30505">
        <ele>704</ele>
        <time>2022-12-11T12:13:15Z</time>
      </trkpt>
      <trkpt lat="43.60147" lon="6.30506">
        <ele>704</ele>
        <time>2022-12-11T12:13:16Z</time>
      </trkpt>
      <trkpt lat="43.60146" lon="6.30507">
        <ele>705</ele>
        <time>2022-12-11T12:13:17Z</time>
      </trkpt>
      <trkpt lat="43.60145" lon="6.30508">
        <ele>705</ele>
        <time>2022-12-11T12:13:18Z</time>
      </trkpt>
      <trkpt lat="43.60145" lon="6.30508">
        <ele>705</ele>
        <time>2022-12-11T12:13:19Z</time>
      </trkpt>
      <trkpt lat="43.60144" lon="6.30509">
        <ele>705</ele>
        <time>2022-12-11T12:13:20Z</time>
      </trkpt>
      <trkpt lat="43.60144" lon="6.30509">
        <ele>705</ele>
        <time>2022-12-11T12:13:21Z</time>
      </trkpt>
      <trkpt lat="43.60143" lon="6.30509">
        <ele>705</ele>
        <time>2022-12-11T12:13:22Z</time>
      </trkpt>
      <trkpt lat="43.60142" lon="6.3051">
        <ele>706</ele>
        <time>2022-12-11T12:13:23Z</time>
      </trkpt>
      <trkpt lat="43.60141" lon="6.3051">
        <ele>706</ele>
        <time>2022-12-11T12:13:24Z</time>
      </trkpt>
      <trkpt lat="43.60141" lon="6.30511">
        <ele>706</ele>
        <time>2022-12-11T12:13:25Z</time>
      </trkpt>
      <trkpt lat="43.60141" lon="6.30511">
        <ele>706</ele>
        <time>2022-12-11T12:13:26Z</time>
      </trkpt>
      <trkpt lat="43.6014" lon="6.30513">
        <ele>706</ele>
        <time>2022-12-11T12:13:27Z</time>
      </trkpt>
      <trkpt lat="43.6014" lon="6.30514">
        <ele>706</ele>
        <time>2022-12-11T12:13:28Z</time>
      </trkpt>
      <trkpt lat="43.60139" lon="6.30516">
        <ele>707</ele>
        <time>2022-12-11T12:13:29Z</time>
      </trkpt>
      <trkpt lat="43.60139" lon="6.30518">
        <ele>707</ele>
        <time>2022-12-11T12:13:30Z</time>
      </trkpt>
      <trkpt lat="43.60139" lon="6.3052">
        <ele>707</ele>
        <time>2022-12-11T12:13:31Z</time>
      </trkpt>
      <trkpt lat="43.60139" lon="6.30521">
        <ele>707</ele>
        <time>2022-12-11T12:13:32Z</time>
      </trkpt>
      <trkpt lat="43.60139" lon="6.30523">
        <ele>707</ele>
        <time>2022-12-11T12:13:33Z</time>
      </trkpt>
      <trkpt lat="43.60138" lon="6.30524">
        <ele>707</ele>
        <time>2022-12-11T12:13:34Z</time>
      </trkpt>
      <trkpt lat="43.60138" lon="6.30525">
        <ele>707</ele>
        <time>2022-12-11T12:13:35Z</time>
      </trkpt>
      <trkpt lat="43.60137" lon="6.30526">
        <ele>707</ele>
        <time>2022-12-11T12:13:36Z</time>
      </trkpt>
      <trkpt lat="43.60136" lon="6.30527">
        <ele>707</ele>
        <time>2022-12-11T12:13:37Z</time>
      </trkpt>
      <trkpt lat="43.60136" lon="6.30526">
        <ele>707</ele>
        <time>2022-12-11T12:13:38Z</time>
      </trkpt>
      <trkpt lat="43.60136" lon="6.30526">
        <ele>707</ele>
        <time>2022-12-11T12:13:39Z</time>
      </trkpt>
      <trkpt lat="43.60136" lon="6.30525">
        <ele>707</ele>
        <time>2022-12-11T12:13:40Z</time>
      </trkpt>
      <trkpt lat="43.60136" lon="6.30525">
        <ele>707</ele>
        <time>2022-12-11T12:13:41Z</time>
      </trkpt>
      <trkpt lat="43.60137" lon="6.30524">
        <ele>707</ele>
        <time>2022-12-11T12:13:42Z</time>
      </trkpt>
      <trkpt lat="43.60137" lon="6.30524">
        <ele>707</ele>
        <time>2022-12-11T12:13:43Z</time>
      </trkpt>
      <trkpt lat="43.60137" lon="6.30523">
        <ele>707</ele>
        <time>2022-12-11T12:13:44Z</time>
      </trkpt>
      <trkpt lat="43.60137" lon="6.30523">
        <ele>707</ele>
        <time>2022-12-11T12:13:45Z</time>
      </trkpt>
      <trkpt lat="43.60137" lon="6.30523">
        <ele>707</ele>
        <time>2022-12-11T12:13:46Z</time>
      </trkpt>
      <trkpt lat="43.60137" lon="6.30523">
        <ele>707</ele>
        <time>2022-12-11T12:13:47Z</time>
      </trkpt>
      <trkpt lat="43.60137" lon="6.30522">
        <ele>707</ele>
        <time>2022-12-11T12:13:48Z</time>
      </trkpt>
      <trkpt lat="43.60137" lon="6.30522">
        <ele>707</ele>
        <time>2022-12-11T12:13:49Z</time>
      </trkpt>
      <trkpt lat="43.60138" lon="6.30522">
        <ele>707</ele>
        <time>2022-12-11T12:13:50Z</time>
      </trkpt>
      <trkpt lat="43.60138" lon="6.30522">
        <ele>707</ele>
        <time>2022-12-11T12:13:51Z</time>
      </trkpt>
      <trkpt lat="43.60138" lon="6.30522">
        <ele>707</ele>
        <time>2022-12-11T12:13:52Z</time>
      </trkpt>
      <trkpt lat="43.60138" lon="6.30522">
        <ele>707</ele>
        <time>2022-12-11T12:13:53Z</time>
      </trkpt>
      <trkpt lat="43.60138" lon="6.30522">
        <ele>707</ele>
        <time>2022-12-11T12:13:54Z</time>
      </trkpt>
      <trkpt lat="43.60138" lon="6.30522">
        <ele>707</ele>
        <time>2022-12-11T12:13:55Z</time>
      </trkpt>
      <trkpt lat="43.60138" lon="6.30522">
        <ele>707</ele>
        <time>2022-12-11T12:13:56Z</time>
      </trkpt>
      <trkpt lat="43.60138" lon="6.30522">
        <ele>707</ele>
        <time>2022-12-11T12:13:57Z</time>
      </trkpt>
      <trkpt lat="43.60138" lon="6.30521">
        <ele>707</ele>
        <time>2022-12-11T12:13:58Z</time>
      </trkpt>
      <trkpt lat="43.60138" lon="6.30521">
        <ele>707</ele>
        <time>2022-12-11T12:13:59Z</time>
      </trkpt>
      <trkpt lat="43.60137" lon="6.3052">
        <ele>707</ele>
        <time>2022-12-11T12:14:00Z</time>
      </trkpt>
      <trkpt lat="43.60136" lon="6.30519">
        <ele>707</ele>
        <time>2022-12-11T12:14:01Z</time>
      </trkpt>
      <trkpt lat="43.60135" lon="6.30519">
        <ele>707</ele>
        <time>2022-12-11T12:14:02Z</time>
      </trkpt>
      <trkpt lat="43.60135" lon="6.30518">
        <ele>707</ele>
        <time>2022-12-11T12:14:03Z</time>
      </trkpt>
      <trkpt lat="43.60135" lon="6.30518">
        <ele>707</ele>
        <time>2022-12-11T12:14:04Z</time>
      </trkpt>
      <trkpt lat="43.60135" lon="6.30518">
        <ele>707</ele>
        <time>2022-12-11T12:14:05Z</time>
      </trkpt>
      <trkpt lat="43.60135" lon="6.30517">
        <ele>707</ele>
        <time>2022-12-11T12:14:06Z</time>
      </trkpt>
      <trkpt lat="43.60135" lon="6.30517">
        <ele>706</ele>
        <time>2022-12-11T12:14:07Z</time>
      </trkpt>
      <trkpt lat="43.60135" lon="6.30517">
        <ele>706</ele>
        <time>2022-12-11T12:14:08Z</time>
      </trkpt>
      <trkpt lat="43.60134" lon="6.30516">
        <ele>706</ele>
        <time>2022-12-11T12:14:09Z</time>
      </trkpt>
      <trkpt lat="43.60134" lon="6.30516">
        <ele>706</ele>
        <time>2022-12-11T12:14:10Z</time>
      </trkpt>
      <trkpt lat="43.60134" lon="6.30515">
        <ele>706</ele>
        <time>2022-12-11T12:14:11Z</time>
      </trkpt>
      <trkpt lat="43.60134" lon="6.30513">
        <ele>706</ele>
        <time>2022-12-11T12:14:12Z</time>
      </trkpt>
      <trkpt lat="43.60134" lon="6.30511">
        <ele>706</ele>
        <time>2022-12-11T12:14:13Z</time>
      </trkpt>
      <trkpt lat="43.60133" lon="6.30509">
        <ele>706</ele>
        <time>2022-12-11T12:14:14Z</time>
      </trkpt>
      <trkpt lat="43.60133" lon="6.30507">
        <ele>706</ele>
        <time>2022-12-11T12:14:15Z</time>
      </trkpt>
      <trkpt lat="43.60132" lon="6.30506">
        <ele>705</ele>
        <time>2022-12-11T12:14:16Z</time>
      </trkpt>
      <trkpt lat="43.60132" lon="6.30504">
        <ele>705</ele>
        <time>2022-12-11T12:14:17Z</time>
      </trkpt>
      <trkpt lat="43.60132" lon="6.30503">
        <ele>705</ele>
        <time>2022-12-11T12:14:18Z</time>
      </trkpt>
      <trkpt lat="43.60131" lon="6.30502">
        <ele>705</ele>
        <time>2022-12-11T12:14:19Z</time>
      </trkpt>
      <trkpt lat="43.60131" lon="6.30501">
        <ele>705</ele>
        <time>2022-12-11T12:14:20Z</time>
      </trkpt>
      <trkpt lat="43.60131" lon="6.305">
        <ele>705</ele>
        <time>2022-12-11T12:14:21Z</time>
      </trkpt>
      <trkpt lat="43.60131" lon="6.30499">
        <ele>705</ele>
        <time>2022-12-11T12:14:22Z</time>
      </trkpt>
      <trkpt lat="43.60131" lon="6.30498">
        <ele>705</ele>
        <time>2022-12-11T12:14:23Z</time>
      </trkpt>
      <trkpt lat="43.60131" lon="6.30497">
        <ele>705</ele>
        <time>2022-12-11T12:14:24Z</time>
      </trkpt>
      <trkpt lat="43.60131" lon="6.30494">
        <ele>705</ele>
        <time>2022-12-11T12:14:25Z</time>
      </trkpt>
      <trkpt lat="43.60131" lon="6.30492">
        <ele>705</ele>
        <time>2022-12-11T12:14:26Z</time>
      </trkpt>
      <trkpt lat="43.60131" lon="6.3049">
        <ele>705</ele>
        <time>2022-12-11T12:14:27Z</time>
      </trkpt>
      <trkpt lat="43.60131" lon="6.30489">
        <ele>705</ele>
        <time>2022-12-11T12:14:28Z</time>
      </trkpt>
      <trkpt lat="43.60131" lon="6.30488">
        <ele>705</ele>
        <time>2022-12-11T12:14:29Z</time>
      </trkpt>
      <trkpt lat="43.60131" lon="6.30487">
        <ele>705</ele>
        <time>2022-12-11T12:14:30Z</time>
      </trkpt>
      <trkpt lat="43.60131" lon="6.30486">
        <ele>705</ele>
        <time>2022-12-11T12:14:31Z</time>
      </trkpt>
      <trkpt lat="43.6013" lon="6.30484">
        <ele>705</ele>
        <time>2022-12-11T12:14:32Z</time>
      </trkpt>
      <trkpt lat="43.6013" lon="6.30483">
        <ele>705</ele>
        <time>2022-12-11T12:14:33Z</time>
      </trkpt>
      <trkpt lat="43.6013" lon="6.30481">
        <ele>705</ele>
        <time>2022-12-11T12:14:34Z</time>
      </trkpt>
      <trkpt lat="43.6013" lon="6.3048">
        <ele>705</ele>
        <time>2022-12-11T12:14:35Z</time>
      </trkpt>
      <trkpt lat="43.6013" lon="6.30478">
        <ele>706</ele>
        <time>2022-12-11T12:14:36Z</time>
      </trkpt>
      <trkpt lat="43.60131" lon="6.30477">
        <ele>706</ele>
        <time>2022-12-11T12:14:37Z</time>
      </trkpt>
      <trkpt lat="43.60131" lon="6.30475">
        <ele>706</ele>
        <time>2022-12-11T12:14:38Z</time>
      </trkpt>
      <trkpt lat="43.60131" lon="6.30473">
        <ele>706</ele>
        <time>2022-12-11T12:14:39Z</time>
      </trkpt>
      <trkpt lat="43.60131" lon="6.30472">
        <ele>706</ele>
        <time>2022-12-11T12:14:40Z</time>
      </trkpt>
      <trkpt lat="43.60131" lon="6.3047">
        <ele>706</ele>
        <time>2022-12-11T12:14:41Z</time>
      </trkpt>
      <trkpt lat="43.60131" lon="6.30469">
        <ele>706</ele>
        <time>2022-12-11T12:14:42Z</time>
      </trkpt>
      <trkpt lat="43.60131" lon="6.30468">
        <ele>706</ele>
        <time>2022-12-11T12:14:43Z</time>
      </trkpt>
      <trkpt lat="43.6013" lon="6.30467">
        <ele>706</ele>
        <time>2022-12-11T12:14:44Z</time>
      </trkpt>
      <trkpt lat="43.6013" lon="6.30466">
        <ele>706</ele>
        <time>2022-12-11T12:14:45Z</time>
      </trkpt>
      <trkpt lat="43.6013" lon="6.30465">
        <ele>706</ele>
        <time>2022-12-11T12:14:46Z</time>
      </trkpt>
      <trkpt lat="43.60129" lon="6.30463">
        <ele>706</ele>
        <time>2022-12-11T12:14:47Z</time>
      </trkpt>
      <trkpt lat="43.60129" lon="6.30462">
        <ele>705</ele>
        <time>2022-12-11T12:14:48Z</time>
      </trkpt>
      <trkpt lat="43.60128" lon="6.30461">
        <ele>705</ele>
        <time>2022-12-11T12:14:49Z</time>
      </trkpt>
      <trkpt lat="43.60127" lon="6.30459">
        <ele>705</ele>
        <time>2022-12-11T12:14:50Z</time>
      </trkpt>
      <trkpt lat="43.60127" lon="6.30458">
        <ele>705</ele>
        <time>2022-12-11T12:14:51Z</time>
      </trkpt>
      <trkpt lat="43.60126" lon="6.30457">
        <ele>705</ele>
        <time>2022-12-11T12:14:52Z</time>
      </trkpt>
      <trkpt lat="43.60126" lon="6.30456">
        <ele>705</ele>
        <time>2022-12-11T12:14:53Z</time>
      </trkpt>
      <trkpt lat="43.60125" lon="6.30455">
        <ele>704</ele>
        <time>2022-12-11T12:14:54Z</time>
      </trkpt>
      <trkpt lat="43.60124" lon="6.30453">
        <ele>704</ele>
        <time>2022-12-11T12:14:55Z</time>
      </trkpt>
      <trkpt lat="43.60124" lon="6.30452">
        <ele>704</ele>
        <time>2022-12-11T12:14:56Z</time>
      </trkpt>
      <trkpt lat="43.60123" lon="6.30451">
        <ele>704</ele>
        <time>2022-12-11T12:14:57Z</time>
      </trkpt>
      <trkpt lat="43.60122" lon="6.30449">
        <ele>704</ele>
        <time>2022-12-11T12:14:58Z</time>
      </trkpt>
      <trkpt lat="43.60121" lon="6.30448">
        <ele>704</ele>
        <time>2022-12-11T12:14:59Z</time>
      </trkpt>
      <trkpt lat="43.60119" lon="6.30447">
        <ele>704</ele>
        <time>2022-12-11T12:15:00Z</time>
      </trkpt>
      <trkpt lat="43.60118" lon="6.30446">
        <ele>703</ele>
        <time>2022-12-11T12:15:01Z</time>
      </trkpt>
      <trkpt lat="43.60117" lon="6.30445">
        <ele>702</ele>
        <time>2022-12-11T12:15:02Z</time>
      </trkpt>
      <trkpt lat="43.60116" lon="6.30444">
        <ele>702</ele>
        <time>2022-12-11T12:15:03Z</time>
      </trkpt>
      <trkpt lat="43.60115" lon="6.30444">
        <ele>702</ele>
        <time>2022-12-11T12:15:04Z</time>
      </trkpt>
      <trkpt lat="43.60114" lon="6.30443">
        <ele>702</ele>
        <time>2022-12-11T12:15:05Z</time>
      </trkpt>
      <trkpt lat="43.60113" lon="6.30442">
        <ele>702</ele>
        <time>2022-12-11T12:15:06Z</time>
      </trkpt>
      <trkpt lat="43.60112" lon="6.30441">
        <ele>702</ele>
        <time>2022-12-11T12:15:07Z</time>
      </trkpt>
      <trkpt lat="43.60111" lon="6.3044">
        <ele>702</ele>
        <time>2022-12-11T12:15:08Z</time>
      </trkpt>
      <trkpt lat="43.6011" lon="6.30439">
        <ele>702</ele>
        <time>2022-12-11T12:15:09Z</time>
      </trkpt>
      <trkpt lat="43.60109" lon="6.30438">
        <ele>702</ele>
        <time>2022-12-11T12:15:10Z</time>
      </trkpt>
      <trkpt lat="43.60108" lon="6.30437">
        <ele>702</ele>
        <time>2022-12-11T12:15:11Z</time>
      </trkpt>
      <trkpt lat="43.60107" lon="6.30437">
        <ele>702</ele>
        <time>2022-12-11T12:15:12Z</time>
      </trkpt>
      <trkpt lat="43.60106" lon="6.30436">
        <ele>702</ele>
        <time>2022-12-11T12:15:13Z</time>
      </trkpt>
      <trkpt lat="43.60105" lon="6.30435">
        <ele>702</ele>
        <time>2022-12-11T12:15:14Z</time>
      </trkpt>
      <trkpt lat="43.60104" lon="6.30434">
        <ele>702</ele>
        <time>2022-12-11T12:15:15Z</time>
      </trkpt>
      <trkpt lat="43.60103" lon="6.30433">
        <ele>702</ele>
        <time>2022-12-11T12:15:16Z</time>
      </trkpt>
      <trkpt lat="43.60102" lon="6.30432">
        <ele>702</ele>
        <time>2022-12-11T12:15:17Z</time>
      </trkpt>
      <trkpt lat="43.60101" lon="6.30431">
        <ele>702</ele>
        <time>2022-12-11T12:15:18Z</time>
      </trkpt>
      <trkpt lat="43.601" lon="6.3043">
        <ele>702</ele>
        <time>2022-12-11T12:15:19Z</time>
      </trkpt>
      <trkpt lat="43.60098" lon="6.30429">
        <ele>702</ele>
        <time>2022-12-11T12:15:20Z</time>
      </trkpt>
      <trkpt lat="43.60097" lon="6.30428">
        <ele>702</ele>
        <time>2022-12-11T12:15:21Z</time>
      </trkpt>
      <trkpt lat="43.60097" lon="6.30426">
        <ele>702</ele>
        <time>2022-12-11T12:15:22Z</time>
      </trkpt>
      <trkpt lat="43.60096" lon="6.30425">
        <ele>702</ele>
        <time>2022-12-11T12:15:23Z</time>
      </trkpt>
      <trkpt lat="43.60096" lon="6.30423">
        <ele>702</ele>
        <time>2022-12-11T12:15:24Z</time>
      </trkpt>
      <trkpt lat="43.60096" lon="6.30422">
        <ele>702</ele>
        <time>2022-12-11T12:15:25Z</time>
      </trkpt>
      <trkpt lat="43.60097" lon="6.30421">
        <ele>702</ele>
        <time>2022-12-11T12:15:26Z</time>
      </trkpt>
      <trkpt lat="43.60097" lon="6.3042">
        <ele>702</ele>
        <time>2022-12-11T12:15:27Z</time>
      </trkpt>
      <trkpt lat="43.60098" lon="6.3042">
        <ele>702</ele>
        <time>2022-12-11T12:15:28Z</time>
      </trkpt>
      <trkpt lat="43.60098" lon="6.3042">
        <ele>702</ele>
        <time>2022-12-11T12:15:29Z</time>
      </trkpt>
      <trkpt lat="43.60098" lon="6.30421">
        <ele>702</ele>
        <time>2022-12-11T12:15:30Z</time>
      </trkpt>
      <trkpt lat="43.60098" lon="6.30421">
        <ele>702</ele>
        <time>2022-12-11T12:15:31Z</time>
      </trkpt>
      <trkpt lat="43.60098" lon="6.30421">
        <ele>702</ele>
        <time>2022-12-11T12:15:32Z</time>
      </trkpt>
      <trkpt lat="43.60098" lon="6.30421">
        <ele>702</ele>
        <time>2022-12-11T12:15:33Z</time>
      </trkpt>
      <trkpt lat="43.60098" lon="6.30421">
        <ele>703</ele>
        <time>2022-12-11T12:15:34Z</time>
      </trkpt>
      <trkpt lat="43.60098" lon="6.30421">
        <ele>703</ele>
        <time>2022-12-11T12:15:35Z</time>
      </trkpt>
      <trkpt lat="43.60098" lon="6.30421">
        <ele>703</ele>
        <time>2022-12-11T12:15:36Z</time>
      </trkpt>
      <trkpt lat="43.60098" lon="6.30421">
        <ele>703</ele>
        <time>2022-12-11T12:15:37Z</time>
      </trkpt>
      <trkpt lat="43.60098" lon="6.30421">
        <ele>703</ele>
        <time>2022-12-11T12:15:38Z</time>
      </trkpt>
      <trkpt lat="43.60098" lon="6.30421">
        <ele>703</ele>
        <time>2022-12-11T12:15:39Z</time>
      </trkpt>
      <trkpt lat="43.60098" lon="6.30421">
        <ele>703</ele>
        <time>2022-12-11T12:15:40Z</time>
      </trkpt>
      <trkpt lat="43.60098" lon="6.30421">
        <ele>703</ele>
        <time>2022-12-11T12:15:41Z</time>
      </trkpt>
      <trkpt lat="43.60098" lon="6.30421">
        <ele>703</ele>
        <time>2022-12-11T12:15:42Z</time>
      </trkpt>
      <trkpt lat="43.60098" lon="6.30421">
        <ele>703</ele>
        <time>2022-12-11T12:15:43Z</time>
      </trkpt>
      <trkpt lat="43.60098" lon="6.30421">
        <ele>703</ele>
        <time>2022-12-11T12:15:44Z</time>
      </trkpt>
      <trkpt lat="43.60098" lon="6.30424">
        <ele>703</ele>
        <time>2022-12-11T12:15:45Z</time>
      </trkpt>
      <trkpt lat="43.60097" lon="6.30424">
        <ele>703</ele>
        <time>2022-12-11T12:15:46Z</time>
      </trkpt>
      <trkpt lat="43.60097" lon="6.30425">
        <ele>703</ele>
        <time>2022-12-11T12:15:47Z</time>
      </trkpt>
      <trkpt lat="43.60097" lon="6.30425">
        <ele>703</ele>
        <time>2022-12-11T12:15:48Z</time>
      </trkpt>
      <trkpt lat="43.60096" lon="6.30426">
        <ele>703</ele>
        <time>2022-12-11T12:15:49Z</time>
      </trkpt>
      <trkpt lat="43.60096" lon="6.30426">
        <ele>703</ele>
        <time>2022-12-11T12:15:50Z</time>
      </trkpt>
      <trkpt lat="43.60096" lon="6.30426">
        <ele>703</ele>
        <time>2022-12-11T12:15:51Z</time>
      </trkpt>
      <trkpt lat="43.60096" lon="6.30426">
        <ele>703</ele>
        <time>2022-12-11T12:15:52Z</time>
      </trkpt>
      <trkpt lat="43.60096" lon="6.30426">
        <ele>703</ele>
        <time>2022-12-11T12:15:53Z</time>
      </trkpt>
      <trkpt lat="43.60095" lon="6.30425">
        <ele>703</ele>
        <time>2022-12-11T12:15:54Z</time>
      </trkpt>
      <trkpt lat="43.60094" lon="6.30425">
        <ele>703</ele>
        <time>2022-12-11T12:15:55Z</time>
      </trkpt>
      <trkpt lat="43.60094" lon="6.30425">
        <ele>703</ele>
        <time>2022-12-11T12:15:56Z</time>
      </trkpt>
      <trkpt lat="43.60093" lon="6.30424">
        <ele>703</ele>
        <time>2022-12-11T12:15:57Z</time>
      </trkpt>
      <trkpt lat="43.60092" lon="6.30424">
        <ele>703</ele>
        <time>2022-12-11T12:15:58Z</time>
      </trkpt>
      <trkpt lat="43.60091" lon="6.30424">
        <ele>703</ele>
        <time>2022-12-11T12:15:59Z</time>
      </trkpt>
      <trkpt lat="43.6009" lon="6.30423">
        <ele>703</ele>
        <time>2022-12-11T12:16:00Z</time>
      </trkpt>
      <trkpt lat="43.60089" lon="6.30423">
        <ele>703</ele>
        <time>2022-12-11T12:16:01Z</time>
      </trkpt>
      <trkpt lat="43.60089" lon="6.30424">
        <ele>703</ele>
        <time>2022-12-11T12:16:02Z</time>
      </trkpt>
      <trkpt lat="43.60089" lon="6.30424">
        <ele>703</ele>
        <time>2022-12-11T12:16:03Z</time>
      </trkpt>
      <trkpt lat="43.60088" lon="6.30423">
        <ele>703</ele>
        <time>2022-12-11T12:16:04Z</time>
      </trkpt>
      <trkpt lat="43.60088" lon="6.30422">
        <ele>703</ele>
        <time>2022-12-11T12:16:05Z</time>
      </trkpt>
      <trkpt lat="43.60087" lon="6.30421">
        <ele>703</ele>
        <time>2022-12-11T12:16:06Z</time>
      </trkpt>
      <trkpt lat="43.60086" lon="6.30421">
        <ele>703</ele>
        <time>2022-12-11T12:16:07Z</time>
      </trkpt>
      <trkpt lat="43.60085" lon="6.3042">
        <ele>703</ele>
        <time>2022-12-11T12:16:08Z</time>
      </trkpt>
      <trkpt lat="43.60084" lon="6.30419">
        <ele>703</ele>
        <time>2022-12-11T12:16:09Z</time>
      </trkpt>
      <trkpt lat="43.60082" lon="6.30418">
        <ele>703</ele>
        <time>2022-12-11T12:16:10Z</time>
      </trkpt>
      <trkpt lat="43.60081" lon="6.30418">
        <ele>703</ele>
        <time>2022-12-11T12:16:11Z</time>
      </trkpt>
      <trkpt lat="43.6008" lon="6.30418">
        <ele>704</ele>
        <time>2022-12-11T12:16:12Z</time>
      </trkpt>
      <trkpt lat="43.60078" lon="6.30417">
        <ele>704</ele>
        <time>2022-12-11T12:16:13Z</time>
      </trkpt>
      <trkpt lat="43.60077" lon="6.30417">
        <ele>704</ele>
        <time>2022-12-11T12:16:14Z</time>
      </trkpt>
      <trkpt lat="43.60075" lon="6.30418">
        <ele>704</ele>
        <time>2022-12-11T12:16:15Z</time>
      </trkpt>
      <trkpt lat="43.60074" lon="6.30418">
        <ele>704</ele>
        <time>2022-12-11T12:16:16Z</time>
      </trkpt>
      <trkpt lat="43.60072" lon="6.30418">
        <ele>704</ele>
        <time>2022-12-11T12:16:17Z</time>
      </trkpt>
      <trkpt lat="43.60071" lon="6.30418">
        <ele>704</ele>
        <time>2022-12-11T12:16:18Z</time>
      </trkpt>
      <trkpt lat="43.6007" lon="6.30418">
        <ele>704</ele>
        <time>2022-12-11T12:16:19Z</time>
      </trkpt>
      <trkpt lat="43.60069" lon="6.30419">
        <ele>704</ele>
        <time>2022-12-11T12:16:20Z</time>
      </trkpt>
      <trkpt lat="43.60069" lon="6.30419">
        <ele>704</ele>
        <time>2022-12-11T12:16:21Z</time>
      </trkpt>
      <trkpt lat="43.60068" lon="6.30419">
        <ele>704</ele>
        <time>2022-12-11T12:16:22Z</time>
      </trkpt>
      <trkpt lat="43.60067" lon="6.30419">
        <ele>704</ele>
        <time>2022-12-11T12:16:23Z</time>
      </trkpt>
      <trkpt lat="43.60066" lon="6.30419">
        <ele>704</ele>
        <time>2022-12-11T12:16:24Z</time>
      </trkpt>
      <trkpt lat="43.60065" lon="6.3042">
        <ele>704</ele>
        <time>2022-12-11T12:16:25Z</time>
      </trkpt>
      <trkpt lat="43.60065" lon="6.3042">
        <ele>704</ele>
        <time>2022-12-11T12:16:26Z</time>
      </trkpt>
      <trkpt lat="43.60064" lon="6.3042">
        <ele>704</ele>
        <time>2022-12-11T12:16:27Z</time>
      </trkpt>
      <trkpt lat="43.60063" lon="6.30421">
        <ele>704</ele>
        <time>2022-12-11T12:16:28Z</time>
      </trkpt>
      <trkpt lat="43.60062" lon="6.30421">
        <ele>704</ele>
        <time>2022-12-11T12:16:29Z</time>
      </trkpt>
      <trkpt lat="43.60061" lon="6.30421">
        <ele>704</ele>
        <time>2022-12-11T12:16:30Z</time>
      </trkpt>
      <trkpt lat="43.6006" lon="6.30422">
        <ele>704</ele>
        <time>2022-12-11T12:16:31Z</time>
      </trkpt>
      <trkpt lat="43.6006" lon="6.30422">
        <ele>704</ele>
        <time>2022-12-11T12:16:32Z</time>
      </trkpt>
      <trkpt lat="43.60059" lon="6.30422">
        <ele>704</ele>
        <time>2022-12-11T12:16:33Z</time>
      </trkpt>
      <trkpt lat="43.60057" lon="6.30423">
        <ele>704</ele>
        <time>2022-12-11T12:16:34Z</time>
      </trkpt>
      <trkpt lat="43.60055" lon="6.30424">
        <ele>704</ele>
        <time>2022-12-11T12:16:35Z</time>
      </trkpt>
      <trkpt lat="43.60053" lon="6.30424">
        <ele>704</ele>
        <time>2022-12-11T12:16:36Z</time>
      </trkpt>
      <trkpt lat="43.60051" lon="6.30425">
        <ele>704</ele>
        <time>2022-12-11T12:16:37Z</time>
      </trkpt>
      <trkpt lat="43.6005" lon="6.30425">
        <ele>705</ele>
        <time>2022-12-11T12:16:38Z</time>
      </trkpt>
      <trkpt lat="43.60048" lon="6.30426">
        <ele>705</ele>
        <time>2022-12-11T12:16:39Z</time>
      </trkpt>
      <trkpt lat="43.60047" lon="6.30426">
        <ele>705</ele>
        <time>2022-12-11T12:16:40Z</time>
      </trkpt>
      <trkpt lat="43.60046" lon="6.30426">
        <ele>705</ele>
        <time>2022-12-11T12:16:41Z</time>
      </trkpt>
      <trkpt lat="43.60045" lon="6.30427">
        <ele>705</ele>
        <time>2022-12-11T12:16:42Z</time>
      </trkpt>
      <trkpt lat="43.60044" lon="6.30427">
        <ele>706</ele>
        <time>2022-12-11T12:16:43Z</time>
      </trkpt>
      <trkpt lat="43.60043" lon="6.30427">
        <ele>706</ele>
        <time>2022-12-11T12:16:44Z</time>
      </trkpt>
      <trkpt lat="43.60042" lon="6.30427">
        <ele>706</ele>
        <time>2022-12-11T12:16:45Z</time>
      </trkpt>
      <trkpt lat="43.60041" lon="6.30428">
        <ele>706</ele>
        <time>2022-12-11T12:16:46Z</time>
      </trkpt>
      <trkpt lat="43.6004" lon="6.30428">
        <ele>706</ele>
        <time>2022-12-11T12:16:47Z</time>
      </trkpt>
      <trkpt lat="43.6004" lon="6.30428">
        <ele>706</ele>
        <time>2022-12-11T12:16:48Z</time>
      </trkpt>
      <trkpt lat="43.60039" lon="6.30428">
        <ele>707</ele>
        <time>2022-12-11T12:16:49Z</time>
      </trkpt>
      <trkpt lat="43.60039" lon="6.30428">
        <ele>707</ele>
        <time>2022-12-11T12:16:50Z</time>
      </trkpt>
      <trkpt lat="43.60039" lon="6.30428">
        <ele>707</ele>
        <time>2022-12-11T12:16:51Z</time>
      </trkpt>
      <trkpt lat="43.60039" lon="6.30428">
        <ele>707</ele>
        <time>2022-12-11T12:16:52Z</time>
      </trkpt>
      <trkpt lat="43.60039" lon="6.30428">
        <ele>707</ele>
        <time>2022-12-11T12:16:53Z</time>
      </trkpt>
      <trkpt lat="43.60039" lon="6.30428">
        <ele>707</ele>
        <time>2022-12-11T12:16:54Z</time>
      </trkpt>
      <trkpt lat="43.60039" lon="6.30428">
        <ele>707</ele>
        <time>2022-12-11T12:16:55Z</time>
      </trkpt>
      <trkpt lat="43.60039" lon="6.30428">
        <ele>707</ele>
        <time>2022-12-11T12:16:56Z</time>
      </trkpt>
      <trkpt lat="43.60039" lon="6.30428">
        <ele>707</ele>
        <time>2022-12-11T12:16:57Z</time>
      </trkpt>
      <trkpt lat="43.60039" lon="6.30428">
        <ele>707</ele>
        <time>2022-12-11T12:16:58Z</time>
      </trkpt>
      <trkpt lat="43.60039" lon="6.30428">
        <ele>707</ele>
        <time>2022-12-11T12:16:59Z</time>
      </trkpt>
      <trkpt lat="43.6004" lon="6.30428">
        <ele>707</ele>
        <time>2022-12-11T12:17:00Z</time>
      </trkpt>
      <trkpt lat="43.6004" lon="6.30428">
        <ele>707</ele>
        <time>2022-12-11T12:17:01Z</time>
      </trkpt>
      <trkpt lat="43.60039" lon="6.30428">
        <ele>707</ele>
        <time>2022-12-11T12:17:02Z</time>
      </trkpt>
      <trkpt lat="43.60039" lon="6.30428">
        <ele>707</ele>
        <time>2022-12-11T12:17:03Z</time>
      </trkpt>
      <trkpt lat="43.60038" lon="6.30428">
        <ele>707</ele>
        <time>2022-12-11T12:17:04Z</time>
      </trkpt>
      <trkpt lat="43.60038" lon="6.30429">
        <ele>707</ele>
        <time>2022-12-11T12:17:05Z</time>
      </trkpt>
      <trkpt lat="43.60038" lon="6.30429">
        <ele>707</ele>
        <time>2022-12-11T12:17:06Z</time>
      </trkpt>
      <trkpt lat="43.60038" lon="6.30429">
        <ele>706</ele>
        <time>2022-12-11T12:17:07Z</time>
      </trkpt>
      <trkpt lat="43.60038" lon="6.30429">
        <ele>706</ele>
        <time>2022-12-11T12:17:08Z</time>
      </trkpt>
      <trkpt lat="43.60037" lon="6.30429">
        <ele>706</ele>
        <time>2022-12-11T12:17:09Z</time>
      </trkpt>
      <trkpt lat="43.60036" lon="6.30429">
        <ele>706</ele>
        <time>2022-12-11T12:17:10Z</time>
      </trkpt>
      <trkpt lat="43.60035" lon="6.30429">
        <ele>706</ele>
        <time>2022-12-11T12:17:11Z</time>
      </trkpt>
      <trkpt lat="43.60035" lon="6.30429">
        <ele>706</ele>
        <time>2022-12-11T12:17:12Z</time>
      </trkpt>
      <trkpt lat="43.60034" lon="6.30429">
        <ele>706</ele>
        <time>2022-12-11T12:17:13Z</time>
      </trkpt>
      <trkpt lat="43.60033" lon="6.30429">
        <ele>706</ele>
        <time>2022-12-11T12:17:14Z</time>
      </trkpt>
      <trkpt lat="43.60032" lon="6.30429">
        <ele>706</ele>
        <time>2022-12-11T12:17:15Z</time>
      </trkpt>
      <trkpt lat="43.60031" lon="6.30429">
        <ele>706</ele>
        <time>2022-12-11T12:17:16Z</time>
      </trkpt>
      <trkpt lat="43.6003" lon="6.30429">
        <ele>706</ele>
        <time>2022-12-11T12:17:17Z</time>
      </trkpt>
      <trkpt lat="43.6003" lon="6.30429">
        <ele>706</ele>
        <time>2022-12-11T12:17:18Z</time>
      </trkpt>
      <trkpt lat="43.60029" lon="6.30429">
        <ele>706</ele>
        <time>2022-12-11T12:17:19Z</time>
      </trkpt>
      <trkpt lat="43.60028" lon="6.3043">
        <ele>706</ele>
        <time>2022-12-11T12:17:20Z</time>
      </trkpt>
      <trkpt lat="43.60027" lon="6.30431">
        <ele>706</ele>
        <time>2022-12-11T12:17:21Z</time>
      </trkpt>
      <trkpt lat="43.60026" lon="6.30431">
        <ele>706</ele>
        <time>2022-12-11T12:17:22Z</time>
      </trkpt>
      <trkpt lat="43.60026" lon="6.30432">
        <ele>706</ele>
        <time>2022-12-11T12:17:23Z</time>
      </trkpt>
      <trkpt lat="43.60025" lon="6.30432">
        <ele>706</ele>
        <time>2022-12-11T12:17:24Z</time>
      </trkpt>
      <trkpt lat="43.60025" lon="6.30433">
        <ele>706</ele>
        <time>2022-12-11T12:17:25Z</time>
      </trkpt>
      <trkpt lat="43.60024" lon="6.30433">
        <ele>706</ele>
        <time>2022-12-11T12:17:26Z</time>
      </trkpt>
      <trkpt lat="43.60024" lon="6.30433">
        <ele>706</ele>
        <time>2022-12-11T12:17:27Z</time>
      </trkpt>
      <trkpt lat="43.60023" lon="6.30433">
        <ele>707</ele>
        <time>2022-12-11T12:17:28Z</time>
      </trkpt>
      <trkpt lat="43.60023" lon="6.30434">
        <ele>707</ele>
        <time>2022-12-11T12:17:29Z</time>
      </trkpt>
      <trkpt lat="43.60022" lon="6.30434">
        <ele>707</ele>
        <time>2022-12-11T12:17:30Z</time>
      </trkpt>
      <trkpt lat="43.60021" lon="6.30435">
        <ele>707</ele>
        <time>2022-12-11T12:17:31Z</time>
      </trkpt>
      <trkpt lat="43.60021" lon="6.30435">
        <ele>707</ele>
        <time>2022-12-11T12:17:32Z</time>
      </trkpt>
      <trkpt lat="43.6002" lon="6.30436">
        <ele>707</ele>
        <time>2022-12-11T12:17:33Z</time>
      </trkpt>
      <trkpt lat="43.60019" lon="6.30437">
        <ele>707</ele>
        <time>2022-12-11T12:17:34Z</time>
      </trkpt>
      <trkpt lat="43.60018" lon="6.30438">
        <ele>707</ele>
        <time>2022-12-11T12:17:35Z</time>
      </trkpt>
      <trkpt lat="43.60017" lon="6.30439">
        <ele>708</ele>
        <time>2022-12-11T12:17:36Z</time>
      </trkpt>
      <trkpt lat="43.60016" lon="6.30439">
        <ele>708</ele>
        <time>2022-12-11T12:17:37Z</time>
      </trkpt>
      <trkpt lat="43.60014" lon="6.3044">
        <ele>709</ele>
        <time>2022-12-11T12:17:38Z</time>
      </trkpt>
      <trkpt lat="43.60013" lon="6.30441">
        <ele>709</ele>
        <time>2022-12-11T12:17:39Z</time>
      </trkpt>
      <trkpt lat="43.60013" lon="6.30442">
        <ele>709</ele>
        <time>2022-12-11T12:17:40Z</time>
      </trkpt>
      <trkpt lat="43.60012" lon="6.30442">
        <ele>709</ele>
        <time>2022-12-11T12:17:41Z</time>
      </trkpt>
      <trkpt lat="43.60011" lon="6.30443">
        <ele>709</ele>
        <time>2022-12-11T12:17:42Z</time>
      </trkpt>
      <trkpt lat="43.6001" lon="6.30444">
        <ele>709</ele>
        <time>2022-12-11T12:17:43Z</time>
      </trkpt>
      <trkpt lat="43.60009" lon="6.30444">
        <ele>709</ele>
        <time>2022-12-11T12:17:44Z</time>
      </trkpt>
      <trkpt lat="43.60008" lon="6.30445">
        <ele>709</ele>
        <time>2022-12-11T12:17:45Z</time>
      </trkpt>
      <trkpt lat="43.60007" lon="6.30446">
        <ele>709</ele>
        <time>2022-12-11T12:17:46Z</time>
      </trkpt>
      <trkpt lat="43.60006" lon="6.30446">
        <ele>709</ele>
        <time>2022-12-11T12:17:47Z</time>
      </trkpt>
      <trkpt lat="43.60005" lon="6.30447">
        <ele>709</ele>
        <time>2022-12-11T12:17:48Z</time>
      </trkpt>
      <trkpt lat="43.60004" lon="6.30448">
        <ele>709</ele>
        <time>2022-12-11T12:17:49Z</time>
      </trkpt>
      <trkpt lat="43.60003" lon="6.30449">
        <ele>709</ele>
        <time>2022-12-11T12:17:50Z</time>
      </trkpt>
      <trkpt lat="43.60003" lon="6.3045">
        <ele>709</ele>
        <time>2022-12-11T12:17:51Z</time>
      </trkpt>
      <trkpt lat="43.60002" lon="6.30451">
        <ele>709</ele>
        <time>2022-12-11T12:17:52Z</time>
      </trkpt>
      <trkpt lat="43.60001" lon="6.30452">
        <ele>709</ele>
        <time>2022-12-11T12:17:53Z</time>
      </trkpt>
      <trkpt lat="43.6" lon="6.30453">
        <ele>709</ele>
        <time>2022-12-11T12:17:54Z</time>
      </trkpt>
      <trkpt lat="43.59999" lon="6.30454">
        <ele>709</ele>
        <time>2022-12-11T12:17:55Z</time>
      </trkpt>
      <trkpt lat="43.59999" lon="6.30455">
        <ele>709</ele>
        <time>2022-12-11T12:17:56Z</time>
      </trkpt>
      <trkpt lat="43.59998" lon="6.30456">
        <ele>709</ele>
        <time>2022-12-11T12:17:57Z</time>
      </trkpt>
      <trkpt lat="43.59997" lon="6.30457">
        <ele>709</ele>
        <time>2022-12-11T12:17:58Z</time>
      </trkpt>
      <trkpt lat="43.59996" lon="6.30457">
        <ele>709</ele>
        <time>2022-12-11T12:17:59Z</time>
      </trkpt>
      <trkpt lat="43.59995" lon="6.30458">
        <ele>709</ele>
        <time>2022-12-11T12:18:00Z</time>
      </trkpt>
      <trkpt lat="43.59994" lon="6.30459">
        <ele>709</ele>
        <time>2022-12-11T12:18:01Z</time>
      </trkpt>
      <trkpt lat="43.59993" lon="6.30459">
        <ele>708</ele>
        <time>2022-12-11T12:18:02Z</time>
      </trkpt>
      <trkpt lat="43.59993" lon="6.3046">
        <ele>708</ele>
        <time>2022-12-11T12:18:03Z</time>
      </trkpt>
      <trkpt lat="43.59992" lon="6.3046">
        <ele>708</ele>
        <time>2022-12-11T12:18:04Z</time>
      </trkpt>
      <trkpt lat="43.59991" lon="6.3046">
        <ele>708</ele>
        <time>2022-12-11T12:18:05Z</time>
      </trkpt>
      <trkpt lat="43.5999" lon="6.3046">
        <ele>708</ele>
        <time>2022-12-11T12:18:06Z</time>
      </trkpt>
      <trkpt lat="43.59989" lon="6.3046">
        <ele>708</ele>
        <time>2022-12-11T12:18:07Z</time>
      </trkpt>
      <trkpt lat="43.59988" lon="6.30461">
        <ele>708</ele>
        <time>2022-12-11T12:18:08Z</time>
      </trkpt>
      <trkpt lat="43.59987" lon="6.30461">
        <ele>708</ele>
        <time>2022-12-11T12:18:09Z</time>
      </trkpt>
      <trkpt lat="43.59986" lon="6.30461">
        <ele>708</ele>
        <time>2022-12-11T12:18:10Z</time>
      </trkpt>
      <trkpt lat="43.59985" lon="6.30461">
        <ele>708</ele>
        <time>2022-12-11T12:18:11Z</time>
      </trkpt>
      <trkpt lat="43.59984" lon="6.30461">
        <ele>708</ele>
        <time>2022-12-11T12:18:12Z</time>
      </trkpt>
      <trkpt lat="43.59983" lon="6.30461">
        <ele>708</ele>
        <time>2022-12-11T12:18:13Z</time>
      </trkpt>
      <trkpt lat="43.59983" lon="6.30461">
        <ele>707</ele>
        <time>2022-12-11T12:18:14Z</time>
      </trkpt>
      <trkpt lat="43.59982" lon="6.30461">
        <ele>707</ele>
        <time>2022-12-11T12:18:15Z</time>
      </trkpt>
      <trkpt lat="43.59981" lon="6.30461">
        <ele>706</ele>
        <time>2022-12-11T12:18:16Z</time>
      </trkpt>
      <trkpt lat="43.5998" lon="6.30461">
        <ele>706</ele>
        <time>2022-12-11T12:18:17Z</time>
      </trkpt>
      <trkpt lat="43.59979" lon="6.30461">
        <ele>706</ele>
        <time>2022-12-11T12:18:18Z</time>
      </trkpt>
      <trkpt lat="43.59978" lon="6.30461">
        <ele>706</ele>
        <time>2022-12-11T12:18:19Z</time>
      </trkpt>
      <trkpt lat="43.59977" lon="6.30462">
        <ele>706</ele>
        <time>2022-12-11T12:18:20Z</time>
      </trkpt>
      <trkpt lat="43.59976" lon="6.30462">
        <ele>706</ele>
        <time>2022-12-11T12:18:21Z</time>
      </trkpt>
      <trkpt lat="43.59975" lon="6.30462">
        <ele>705</ele>
        <time>2022-12-11T12:18:22Z</time>
      </trkpt>
      <trkpt lat="43.59974" lon="6.30461">
        <ele>705</ele>
        <time>2022-12-11T12:18:23Z</time>
      </trkpt>
      <trkpt lat="43.59973" lon="6.30461">
        <ele>705</ele>
        <time>2022-12-11T12:18:24Z</time>
      </trkpt>
      <trkpt lat="43.59972" lon="6.3046">
        <ele>705</ele>
        <time>2022-12-11T12:18:25Z</time>
      </trkpt>
      <trkpt lat="43.59971" lon="6.3046">
        <ele>705</ele>
        <time>2022-12-11T12:18:26Z</time>
      </trkpt>
      <trkpt lat="43.59971" lon="6.3046">
        <ele>705</ele>
        <time>2022-12-11T12:18:27Z</time>
      </trkpt>
      <trkpt lat="43.59969" lon="6.3046">
        <ele>705</ele>
        <time>2022-12-11T12:18:28Z</time>
      </trkpt>
      <trkpt lat="43.59968" lon="6.3046">
        <ele>705</ele>
        <time>2022-12-11T12:18:29Z</time>
      </trkpt>
      <trkpt lat="43.59967" lon="6.3046">
        <ele>705</ele>
        <time>2022-12-11T12:18:30Z</time>
      </trkpt>
      <trkpt lat="43.59966" lon="6.3046">
        <ele>705</ele>
        <time>2022-12-11T12:18:31Z</time>
      </trkpt>
      <trkpt lat="43.59965" lon="6.30461">
        <ele>705</ele>
        <time>2022-12-11T12:18:32Z</time>
      </trkpt>
      <trkpt lat="43.59964" lon="6.30461">
        <ele>705</ele>
        <time>2022-12-11T12:18:33Z</time>
      </trkpt>
      <trkpt lat="43.59963" lon="6.30461">
        <ele>705</ele>
        <time>2022-12-11T12:18:34Z</time>
      </trkpt>
      <trkpt lat="43.59962" lon="6.30462">
        <ele>705</ele>
        <time>2022-12-11T12:18:35Z</time>
      </trkpt>
      <trkpt lat="43.59961" lon="6.30462">
        <ele>705</ele>
        <time>2022-12-11T12:18:36Z</time>
      </trkpt>
      <trkpt lat="43.59961" lon="6.30462">
        <ele>704</ele>
        <time>2022-12-11T12:18:37Z</time>
      </trkpt>
      <trkpt lat="43.5996" lon="6.30462">
        <ele>704</ele>
        <time>2022-12-11T12:18:38Z</time>
      </trkpt>
      <trkpt lat="43.59959" lon="6.30462">
        <ele>704</ele>
        <time>2022-12-11T12:18:39Z</time>
      </trkpt>
      <trkpt lat="43.59958" lon="6.30462">
        <ele>704</ele>
        <time>2022-12-11T12:18:40Z</time>
      </trkpt>
      <trkpt lat="43.59957" lon="6.30463">
        <ele>704</ele>
        <time>2022-12-11T12:18:41Z</time>
      </trkpt>
      <trkpt lat="43.59956" lon="6.30463">
        <ele>704</ele>
        <time>2022-12-11T12:18:42Z</time>
      </trkpt>
      <trkpt lat="43.59955" lon="6.30464">
        <ele>704</ele>
        <time>2022-12-11T12:18:43Z</time>
      </trkpt>
      <trkpt lat="43.59954" lon="6.30464">
        <ele>704</ele>
        <time>2022-12-11T12:18:44Z</time>
      </trkpt>
      <trkpt lat="43.59953" lon="6.30465">
        <ele>704</ele>
        <time>2022-12-11T12:18:45Z</time>
      </trkpt>
      <trkpt lat="43.59952" lon="6.30465">
        <ele>704</ele>
        <time>2022-12-11T12:18:46Z</time>
      </trkpt>
      <trkpt lat="43.59951" lon="6.30466">
        <ele>704</ele>
        <time>2022-12-11T12:18:47Z</time>
      </trkpt>
      <trkpt lat="43.5995" lon="6.30467">
        <ele>704</ele>
        <time>2022-12-11T12:18:48Z</time>
      </trkpt>
      <trkpt lat="43.59949" lon="6.30467">
        <ele>704</ele>
        <time>2022-12-11T12:18:49Z</time>
      </trkpt>
      <trkpt lat="43.59949" lon="6.30467">
        <ele>703</ele>
        <time>2022-12-11T12:18:50Z</time>
      </trkpt>
      <trkpt lat="43.59948" lon="6.30468">
        <ele>703</ele>
        <time>2022-12-11T12:18:51Z</time>
      </trkpt>
      <trkpt lat="43.59947" lon="6.30468">
        <ele>703</ele>
        <time>2022-12-11T12:18:52Z</time>
      </trkpt>
      <trkpt lat="43.59946" lon="6.30468">
        <ele>703</ele>
        <time>2022-12-11T12:18:53Z</time>
      </trkpt>
      <trkpt lat="43.59945" lon="6.30469">
        <ele>703</ele>
        <time>2022-12-11T12:18:54Z</time>
      </trkpt>
      <trkpt lat="43.59944" lon="6.30469">
        <ele>702</ele>
        <time>2022-12-11T12:18:55Z</time>
      </trkpt>
      <trkpt lat="43.59943" lon="6.30469">
        <ele>702</ele>
        <time>2022-12-11T12:18:56Z</time>
      </trkpt>
      <trkpt lat="43.59942" lon="6.30469">
        <ele>702</ele>
        <time>2022-12-11T12:18:57Z</time>
      </trkpt>
      <trkpt lat="43.59941" lon="6.3047">
        <ele>702</ele>
        <time>2022-12-11T12:18:58Z</time>
      </trkpt>
      <trkpt lat="43.5994" lon="6.3047">
        <ele>702</ele>
        <time>2022-12-11T12:18:59Z</time>
      </trkpt>
      <trkpt lat="43.59939" lon="6.30469">
        <ele>702</ele>
        <time>2022-12-11T12:19:00Z</time>
      </trkpt>
      <trkpt lat="43.59937" lon="6.30469">
        <ele>703</ele>
        <time>2022-12-11T12:19:01Z</time>
      </trkpt>
      <trkpt lat="43.59936" lon="6.30469">
        <ele>703</ele>
        <time>2022-12-11T12:19:02Z</time>
      </trkpt>
      <trkpt lat="43.59935" lon="6.30469">
        <ele>703</ele>
        <time>2022-12-11T12:19:03Z</time>
      </trkpt>
      <trkpt lat="43.59934" lon="6.30469">
        <ele>703</ele>
        <time>2022-12-11T12:19:04Z</time>
      </trkpt>
      <trkpt lat="43.59934" lon="6.30469">
        <ele>703</ele>
        <time>2022-12-11T12:19:05Z</time>
      </trkpt>
      <trkpt lat="43.59933" lon="6.30469">
        <ele>703</ele>
        <time>2022-12-11T12:19:06Z</time>
      </trkpt>
      <trkpt lat="43.59932" lon="6.30469">
        <ele>703</ele>
        <time>2022-12-11T12:19:07Z</time>
      </trkpt>
      <trkpt lat="43.59931" lon="6.30469">
        <ele>703</ele>
        <time>2022-12-11T12:19:08Z</time>
      </trkpt>
      <trkpt lat="43.59931" lon="6.30469">
        <ele>703</ele>
        <time>2022-12-11T12:19:09Z</time>
      </trkpt>
      <trkpt lat="43.59931" lon="6.30468">
        <ele>703</ele>
        <time>2022-12-11T12:19:10Z</time>
      </trkpt>
      <trkpt lat="43.59931" lon="6.30468">
        <ele>703</ele>
        <time>2022-12-11T12:19:11Z</time>
      </trkpt>
      <trkpt lat="43.59931" lon="6.30468">
        <ele>703</ele>
        <time>2022-12-11T12:19:12Z</time>
      </trkpt>
      <trkpt lat="43.59931" lon="6.30468">
        <ele>703</ele>
        <time>2022-12-11T12:19:13Z</time>
      </trkpt>
      <trkpt lat="43.59931" lon="6.30468">
        <ele>703</ele>
        <time>2022-12-11T12:19:14Z</time>
      </trkpt>
      <trkpt lat="43.59931" lon="6.30468">
        <ele>703</ele>
        <time>2022-12-11T12:19:15Z</time>
      </trkpt>
      <trkpt lat="43.59931" lon="6.30468">
        <ele>702</ele>
        <time>2022-12-11T12:19:16Z</time>
      </trkpt>
      <trkpt lat="43.59931" lon="6.30468">
        <ele>702</ele>
        <time>2022-12-11T12:19:17Z</time>
      </trkpt>
      <trkpt lat="43.59931" lon="6.30468">
        <ele>702</ele>
        <time>2022-12-11T12:19:18Z</time>
      </trkpt>
      <trkpt lat="43.59931" lon="6.30468">
        <ele>702</ele>
        <time>2022-12-11T12:19:19Z</time>
      </trkpt>
      <trkpt lat="43.59931" lon="6.30468">
        <ele>702</ele>
        <time>2022-12-11T12:19:20Z</time>
      </trkpt>
      <trkpt lat="43.59931" lon="6.30468">
        <ele>702</ele>
        <time>2022-12-11T12:19:21Z</time>
      </trkpt>
      <trkpt lat="43.5993" lon="6.3047">
        <ele>702</ele>
        <time>2022-12-11T12:19:23Z</time>
      </trkpt>
      <trkpt lat="43.5993" lon="6.30471">
        <ele>702</ele>
        <time>2022-12-11T12:19:24Z</time>
      </trkpt>
      <trkpt lat="43.59929" lon="6.30471">
        <ele>702</ele>
        <time>2022-12-11T12:19:25Z</time>
      </trkpt>
      <trkpt lat="43.59929" lon="6.30471">
        <ele>702</ele>
        <time>2022-12-11T12:19:26Z</time>
      </trkpt>
      <trkpt lat="43.59929" lon="6.30471">
        <ele>702</ele>
        <time>2022-12-11T12:19:27Z</time>
      </trkpt>
      <trkpt lat="43.59929" lon="6.30471">
        <ele>702</ele>
        <time>2022-12-11T12:19:28Z</time>
      </trkpt>
      <trkpt lat="43.59929" lon="6.30471">
        <ele>702</ele>
        <time>2022-12-11T12:19:29Z</time>
      </trkpt>
      <trkpt lat="43.59929" lon="6.30471">
        <ele>702</ele>
        <time>2022-12-11T12:19:30Z</time>
      </trkpt>
      <trkpt lat="43.59928" lon="6.30471">
        <ele>702</ele>
        <time>2022-12-11T12:19:31Z</time>
      </trkpt>
      <trkpt lat="43.59928" lon="6.30471">
        <ele>702</ele>
        <time>2022-12-11T12:19:32Z</time>
      </trkpt>
      <trkpt lat="43.59927" lon="6.30471">
        <ele>702</ele>
        <time>2022-12-11T12:19:33Z</time>
      </trkpt>
      <trkpt lat="43.59925" lon="6.30471">
        <ele>702</ele>
        <time>2022-12-11T12:19:34Z</time>
      </trkpt>
      <trkpt lat="43.59924" lon="6.30471">
        <ele>702</ele>
        <time>2022-12-11T12:19:35Z</time>
      </trkpt>
      <trkpt lat="43.59922" lon="6.30471">
        <ele>702</ele>
        <time>2022-12-11T12:19:36Z</time>
      </trkpt>
      <trkpt lat="43.59921" lon="6.3047">
        <ele>702</ele>
        <time>2022-12-11T12:19:37Z</time>
      </trkpt>
      <trkpt lat="43.59921" lon="6.3047">
        <ele>702</ele>
        <time>2022-12-11T12:19:38Z</time>
      </trkpt>
      <trkpt lat="43.5992" lon="6.30469">
        <ele>701</ele>
        <time>2022-12-11T12:19:39Z</time>
      </trkpt>
      <trkpt lat="43.59919" lon="6.30469">
        <ele>700</ele>
        <time>2022-12-11T12:19:40Z</time>
      </trkpt>
      <trkpt lat="43.59918" lon="6.30468">
        <ele>700</ele>
        <time>2022-12-11T12:19:41Z</time>
      </trkpt>
      <trkpt lat="43.59917" lon="6.30468">
        <ele>700</ele>
        <time>2022-12-11T12:19:42Z</time>
      </trkpt>
      <trkpt lat="43.59917" lon="6.30468">
        <ele>700</ele>
        <time>2022-12-11T12:19:43Z</time>
      </trkpt>
      <trkpt lat="43.59916" lon="6.30467">
        <ele>700</ele>
        <time>2022-12-11T12:19:44Z</time>
      </trkpt>
      <trkpt lat="43.59915" lon="6.30467">
        <ele>700</ele>
        <time>2022-12-11T12:19:45Z</time>
      </trkpt>
      <trkpt lat="43.59914" lon="6.30467">
        <ele>700</ele>
        <time>2022-12-11T12:19:46Z</time>
      </trkpt>
      <trkpt lat="43.59912" lon="6.30467">
        <ele>700</ele>
        <time>2022-12-11T12:19:47Z</time>
      </trkpt>
      <trkpt lat="43.59911" lon="6.30467">
        <ele>700</ele>
        <time>2022-12-11T12:19:48Z</time>
      </trkpt>
      <trkpt lat="43.5991" lon="6.30467">
        <ele>700</ele>
        <time>2022-12-11T12:19:49Z</time>
      </trkpt>
      <trkpt lat="43.59909" lon="6.30467">
        <ele>700</ele>
        <time>2022-12-11T12:19:50Z</time>
      </trkpt>
      <trkpt lat="43.59908" lon="6.30467">
        <ele>701</ele>
        <time>2022-12-11T12:19:51Z</time>
      </trkpt>
      <trkpt lat="43.59907" lon="6.30467">
        <ele>701</ele>
        <time>2022-12-11T12:19:52Z</time>
      </trkpt>
      <trkpt lat="43.59906" lon="6.30467">
        <ele>701</ele>
        <time>2022-12-11T12:19:53Z</time>
      </trkpt>
      <trkpt lat="43.59905" lon="6.30467">
        <ele>701</ele>
        <time>2022-12-11T12:19:54Z</time>
      </trkpt>
      <trkpt lat="43.59904" lon="6.30468">
        <ele>701</ele>
        <time>2022-12-11T12:19:55Z</time>
      </trkpt>
      <trkpt lat="43.59903" lon="6.30469">
        <ele>701</ele>
        <time>2022-12-11T12:19:56Z</time>
      </trkpt>
      <trkpt lat="43.59901" lon="6.3047">
        <ele>701</ele>
        <time>2022-12-11T12:19:57Z</time>
      </trkpt>
      <trkpt lat="43.59899" lon="6.3047">
        <ele>701</ele>
        <time>2022-12-11T12:19:58Z</time>
      </trkpt>
      <trkpt lat="43.59898" lon="6.3047">
        <ele>701</ele>
        <time>2022-12-11T12:19:59Z</time>
      </trkpt>
      <trkpt lat="43.59896" lon="6.30471">
        <ele>701</ele>
        <time>2022-12-11T12:20:00Z</time>
      </trkpt>
      <trkpt lat="43.59895" lon="6.30471">
        <ele>701</ele>
        <time>2022-12-11T12:20:01Z</time>
      </trkpt>
      <trkpt lat="43.59893" lon="6.30471">
        <ele>701</ele>
        <time>2022-12-11T12:20:02Z</time>
      </trkpt>
      <trkpt lat="43.59892" lon="6.30472">
        <ele>701</ele>
        <time>2022-12-11T12:20:03Z</time>
      </trkpt>
      <trkpt lat="43.59891" lon="6.30472">
        <ele>701</ele>
        <time>2022-12-11T12:20:04Z</time>
      </trkpt>
      <trkpt lat="43.59889" lon="6.30472">
        <ele>701</ele>
        <time>2022-12-11T12:20:05Z</time>
      </trkpt>
      <trkpt lat="43.59888" lon="6.30472">
        <ele>701</ele>
        <time>2022-12-11T12:20:06Z</time>
      </trkpt>
      <trkpt lat="43.59887" lon="6.30471">
        <ele>701</ele>
        <time>2022-12-11T12:20:07Z</time>
      </trkpt>
      <trkpt lat="43.59886" lon="6.30471">
        <ele>701</ele>
        <time>2022-12-11T12:20:08Z</time>
      </trkpt>
      <trkpt lat="43.59886" lon="6.30471">
        <ele>701</ele>
        <time>2022-12-11T12:20:09Z</time>
      </trkpt>
      <trkpt lat="43.59885" lon="6.30471">
        <ele>701</ele>
        <time>2022-12-11T12:20:10Z</time>
      </trkpt>
      <trkpt lat="43.59884" lon="6.30471">
        <ele>701</ele>
        <time>2022-12-11T12:20:11Z</time>
      </trkpt>
      <trkpt lat="43.59883" lon="6.30471">
        <ele>701</ele>
        <time>2022-12-11T12:20:12Z</time>
      </trkpt>
      <trkpt lat="43.59882" lon="6.30471">
        <ele>701</ele>
        <time>2022-12-11T12:20:13Z</time>
      </trkpt>
      <trkpt lat="43.59881" lon="6.30472">
        <ele>701</ele>
        <time>2022-12-11T12:20:14Z</time>
      </trkpt>
      <trkpt lat="43.59881" lon="6.30473">
        <ele>701</ele>
        <time>2022-12-11T12:20:15Z</time>
      </trkpt>
      <trkpt lat="43.5988" lon="6.30474">
        <ele>700</ele>
        <time>2022-12-11T12:20:16Z</time>
      </trkpt>
      <trkpt lat="43.59879" lon="6.30475">
        <ele>700</ele>
        <time>2022-12-11T12:20:17Z</time>
      </trkpt>
      <trkpt lat="43.59878" lon="6.30475">
        <ele>700</ele>
        <time>2022-12-11T12:20:18Z</time>
      </trkpt>
      <trkpt lat="43.59877" lon="6.30475">
        <ele>700</ele>
        <time>2022-12-11T12:20:19Z</time>
      </trkpt>
      <trkpt lat="43.59876" lon="6.30475">
        <ele>700</ele>
        <time>2022-12-11T12:20:20Z</time>
      </trkpt>
      <trkpt lat="43.59875" lon="6.30474">
        <ele>700</ele>
        <time>2022-12-11T12:20:21Z</time>
      </trkpt>
      <trkpt lat="43.59874" lon="6.30474">
        <ele>700</ele>
        <time>2022-12-11T12:20:22Z</time>
      </trkpt>
      <trkpt lat="43.59873" lon="6.30474">
        <ele>700</ele>
        <time>2022-12-11T12:20:23Z</time>
      </trkpt>
      <trkpt lat="43.59872" lon="6.30474">
        <ele>700</ele>
        <time>2022-12-11T12:20:24Z</time>
      </trkpt>
      <trkpt lat="43.59871" lon="6.30474">
        <ele>700</ele>
        <time>2022-12-11T12:20:25Z</time>
      </trkpt>
      <trkpt lat="43.5987" lon="6.30474">
        <ele>700</ele>
        <time>2022-12-11T12:20:26Z</time>
      </trkpt>
      <trkpt lat="43.59868" lon="6.30474">
        <ele>700</ele>
        <time>2022-12-11T12:20:27Z</time>
      </trkpt>
      <trkpt lat="43.59867" lon="6.30475">
        <ele>701</ele>
        <time>2022-12-11T12:20:28Z</time>
      </trkpt>
      <trkpt lat="43.59866" lon="6.30475">
        <ele>701</ele>
        <time>2022-12-11T12:20:29Z</time>
      </trkpt>
      <trkpt lat="43.59865" lon="6.30475">
        <ele>701</ele>
        <time>2022-12-11T12:20:30Z</time>
      </trkpt>
      <trkpt lat="43.59864" lon="6.30475">
        <ele>701</ele>
        <time>2022-12-11T12:20:31Z</time>
      </trkpt>
      <trkpt lat="43.59863" lon="6.30475">
        <ele>701</ele>
        <time>2022-12-11T12:20:32Z</time>
      </trkpt>
      <trkpt lat="43.59863" lon="6.30475">
        <ele>701</ele>
        <time>2022-12-11T12:20:33Z</time>
      </trkpt>
      <trkpt lat="43.59862" lon="6.30475">
        <ele>701</ele>
        <time>2022-12-11T12:20:34Z</time>
      </trkpt>
      <trkpt lat="43.59861" lon="6.30475">
        <ele>701</ele>
        <time>2022-12-11T12:20:35Z</time>
      </trkpt>
      <trkpt lat="43.5986" lon="6.30475">
        <ele>701</ele>
        <time>2022-12-11T12:20:36Z</time>
      </trkpt>
      <trkpt lat="43.59859" lon="6.30475">
        <ele>701</ele>
        <time>2022-12-11T12:20:37Z</time>
      </trkpt>
      <trkpt lat="43.59858" lon="6.30475">
        <ele>701</ele>
        <time>2022-12-11T12:20:38Z</time>
      </trkpt>
      <trkpt lat="43.59857" lon="6.30475">
        <ele>701</ele>
        <time>2022-12-11T12:20:39Z</time>
      </trkpt>
      <trkpt lat="43.59856" lon="6.30475">
        <ele>701</ele>
        <time>2022-12-11T12:20:40Z</time>
      </trkpt>
      <trkpt lat="43.59855" lon="6.30475">
        <ele>701</ele>
        <time>2022-12-11T12:20:41Z</time>
      </trkpt>
      <trkpt lat="43.59854" lon="6.30475">
        <ele>701</ele>
        <time>2022-12-11T12:20:42Z</time>
      </trkpt>
      <trkpt lat="43.59853" lon="6.30475">
        <ele>701</ele>
        <time>2022-12-11T12:20:43Z</time>
      </trkpt>
      <trkpt lat="43.59853" lon="6.30475">
        <ele>701</ele>
        <time>2022-12-11T12:20:44Z</time>
      </trkpt>
      <trkpt lat="43.59852" lon="6.30475">
        <ele>701</ele>
        <time>2022-12-11T12:20:45Z</time>
      </trkpt>
      <trkpt lat="43.59851" lon="6.30475">
        <ele>701</ele>
        <time>2022-12-11T12:20:46Z</time>
      </trkpt>
      <trkpt lat="43.5985" lon="6.30475">
        <ele>701</ele>
        <time>2022-12-11T12:20:47Z</time>
      </trkpt>
      <trkpt lat="43.59849" lon="6.30475">
        <ele>701</ele>
        <time>2022-12-11T12:20:48Z</time>
      </trkpt>
      <trkpt lat="43.59847" lon="6.30475">
        <ele>701</ele>
        <time>2022-12-11T12:20:49Z</time>
      </trkpt>
      <trkpt lat="43.59846" lon="6.30476">
        <ele>701</ele>
        <time>2022-12-11T12:20:50Z</time>
      </trkpt>
      <trkpt lat="43.59845" lon="6.30476">
        <ele>701</ele>
        <time>2022-12-11T12:20:51Z</time>
      </trkpt>
      <trkpt lat="43.59844" lon="6.30476">
        <ele>700</ele>
        <time>2022-12-11T12:20:52Z</time>
      </trkpt>
      <trkpt lat="43.59843" lon="6.30477">
        <ele>699</ele>
        <time>2022-12-11T12:20:53Z</time>
      </trkpt>
      <trkpt lat="43.59842" lon="6.30477">
        <ele>699</ele>
        <time>2022-12-11T12:20:54Z</time>
      </trkpt>
      <trkpt lat="43.59841" lon="6.30477">
        <ele>699</ele>
        <time>2022-12-11T12:20:55Z</time>
      </trkpt>
      <trkpt lat="43.5984" lon="6.30477">
        <ele>699</ele>
        <time>2022-12-11T12:20:56Z</time>
      </trkpt>
      <trkpt lat="43.59839" lon="6.30477">
        <ele>699</ele>
        <time>2022-12-11T12:20:57Z</time>
      </trkpt>
      <trkpt lat="43.59838" lon="6.30478">
        <ele>698</ele>
        <time>2022-12-11T12:20:58Z</time>
      </trkpt>
      <trkpt lat="43.59837" lon="6.30478">
        <ele>698</ele>
        <time>2022-12-11T12:20:59Z</time>
      </trkpt>
      <trkpt lat="43.59836" lon="6.30478">
        <ele>698</ele>
        <time>2022-12-11T12:21:00Z</time>
      </trkpt>
      <trkpt lat="43.59836" lon="6.30478">
        <ele>698</ele>
        <time>2022-12-11T12:21:01Z</time>
      </trkpt>
      <trkpt lat="43.59835" lon="6.30479">
        <ele>698</ele>
        <time>2022-12-11T12:21:02Z</time>
      </trkpt>
      <trkpt lat="43.59834" lon="6.30479">
        <ele>698</ele>
        <time>2022-12-11T12:21:03Z</time>
      </trkpt>
      <trkpt lat="43.59833" lon="6.30479">
        <ele>698</ele>
        <time>2022-12-11T12:21:04Z</time>
      </trkpt>
      <trkpt lat="43.59832" lon="6.30479">
        <ele>698</ele>
        <time>2022-12-11T12:21:05Z</time>
      </trkpt>
      <trkpt lat="43.59832" lon="6.3048">
        <ele>698</ele>
        <time>2022-12-11T12:21:06Z</time>
      </trkpt>
      <trkpt lat="43.59831" lon="6.3048">
        <ele>698</ele>
        <time>2022-12-11T12:21:07Z</time>
      </trkpt>
      <trkpt lat="43.5983" lon="6.30481">
        <ele>698</ele>
        <time>2022-12-11T12:21:08Z</time>
      </trkpt>
      <trkpt lat="43.59829" lon="6.30481">
        <ele>698</ele>
        <time>2022-12-11T12:21:09Z</time>
      </trkpt>
      <trkpt lat="43.59828" lon="6.30482">
        <ele>698</ele>
        <time>2022-12-11T12:21:10Z</time>
      </trkpt>
      <trkpt lat="43.59827" lon="6.30483">
        <ele>698</ele>
        <time>2022-12-11T12:21:11Z</time>
      </trkpt>
      <trkpt lat="43.59826" lon="6.30483">
        <ele>698</ele>
        <time>2022-12-11T12:21:12Z</time>
      </trkpt>
      <trkpt lat="43.59825" lon="6.30484">
        <ele>698</ele>
        <time>2022-12-11T12:21:13Z</time>
      </trkpt>
      <trkpt lat="43.59824" lon="6.30485">
        <ele>698</ele>
        <time>2022-12-11T12:21:14Z</time>
      </trkpt>
      <trkpt lat="43.59823" lon="6.30486">
        <ele>698</ele>
        <time>2022-12-11T12:21:15Z</time>
      </trkpt>
      <trkpt lat="43.59822" lon="6.30488">
        <ele>698</ele>
        <time>2022-12-11T12:21:16Z</time>
      </trkpt>
      <trkpt lat="43.59821" lon="6.30489">
        <ele>698</ele>
        <time>2022-12-11T12:21:17Z</time>
      </trkpt>
      <trkpt lat="43.5982" lon="6.3049">
        <ele>698</ele>
        <time>2022-12-11T12:21:18Z</time>
      </trkpt>
      <trkpt lat="43.5982" lon="6.3049">
        <ele>698</ele>
        <time>2022-12-11T12:21:19Z</time>
      </trkpt>
      <trkpt lat="43.59819" lon="6.30491">
        <ele>698</ele>
        <time>2022-12-11T12:21:20Z</time>
      </trkpt>
      <trkpt lat="43.59818" lon="6.30492">
        <ele>697</ele>
        <time>2022-12-11T12:21:21Z</time>
      </trkpt>
      <trkpt lat="43.59817" lon="6.30493">
        <ele>697</ele>
        <time>2022-12-11T12:21:22Z</time>
      </trkpt>
      <trkpt lat="43.59817" lon="6.30494">
        <ele>697</ele>
        <time>2022-12-11T12:21:23Z</time>
      </trkpt>
      <trkpt lat="43.59816" lon="6.30494">
        <ele>697</ele>
        <time>2022-12-11T12:21:24Z</time>
      </trkpt>
      <trkpt lat="43.59816" lon="6.30495">
        <ele>697</ele>
        <time>2022-12-11T12:21:25Z</time>
      </trkpt>
      <trkpt lat="43.59815" lon="6.30496">
        <ele>696</ele>
        <time>2022-12-11T12:21:26Z</time>
      </trkpt>
      <trkpt lat="43.59815" lon="6.30497">
        <ele>696</ele>
        <time>2022-12-11T12:21:27Z</time>
      </trkpt>
      <trkpt lat="43.59815" lon="6.30499">
        <ele>696</ele>
        <time>2022-12-11T12:21:28Z</time>
      </trkpt>
      <trkpt lat="43.59815" lon="6.305">
        <ele>695</ele>
        <time>2022-12-11T12:21:29Z</time>
      </trkpt>
      <trkpt lat="43.59814" lon="6.30501">
        <ele>695</ele>
        <time>2022-12-11T12:21:30Z</time>
      </trkpt>
      <trkpt lat="43.59813" lon="6.30501">
        <ele>695</ele>
        <time>2022-12-11T12:21:31Z</time>
      </trkpt>
      <trkpt lat="43.59812" lon="6.30502">
        <ele>694</ele>
        <time>2022-12-11T12:21:32Z</time>
      </trkpt>
      <trkpt lat="43.59811" lon="6.30502">
        <ele>694</ele>
        <time>2022-12-11T12:21:33Z</time>
      </trkpt>
      <trkpt lat="43.5981" lon="6.30503">
        <ele>694</ele>
        <time>2022-12-11T12:21:34Z</time>
      </trkpt>
      <trkpt lat="43.59809" lon="6.30503">
        <ele>694</ele>
        <time>2022-12-11T12:21:35Z</time>
      </trkpt>
      <trkpt lat="43.59808" lon="6.30503">
        <ele>693</ele>
        <time>2022-12-11T12:21:36Z</time>
      </trkpt>
      <trkpt lat="43.59807" lon="6.30504">
        <ele>693</ele>
        <time>2022-12-11T12:21:37Z</time>
      </trkpt>
      <trkpt lat="43.59806" lon="6.30504">
        <ele>693</ele>
        <time>2022-12-11T12:21:38Z</time>
      </trkpt>
      <trkpt lat="43.59805" lon="6.30504">
        <ele>693</ele>
        <time>2022-12-11T12:21:39Z</time>
      </trkpt>
      <trkpt lat="43.59804" lon="6.30504">
        <ele>693</ele>
        <time>2022-12-11T12:21:40Z</time>
      </trkpt>
      <trkpt lat="43.59804" lon="6.30504">
        <ele>693</ele>
        <time>2022-12-11T12:21:41Z</time>
      </trkpt>
      <trkpt lat="43.59803" lon="6.30504">
        <ele>693</ele>
        <time>2022-12-11T12:21:42Z</time>
      </trkpt>
      <trkpt lat="43.59801" lon="6.30504">
        <ele>693</ele>
        <time>2022-12-11T12:21:43Z</time>
      </trkpt>
      <trkpt lat="43.598" lon="6.30504">
        <ele>693</ele>
        <time>2022-12-11T12:21:44Z</time>
      </trkpt>
      <trkpt lat="43.59799" lon="6.30505">
        <ele>693</ele>
        <time>2022-12-11T12:21:45Z</time>
      </trkpt>
      <trkpt lat="43.59798" lon="6.30505">
        <ele>693</ele>
        <time>2022-12-11T12:21:46Z</time>
      </trkpt>
      <trkpt lat="43.59797" lon="6.30506">
        <ele>693</ele>
        <time>2022-12-11T12:21:47Z</time>
      </trkpt>
      <trkpt lat="43.59796" lon="6.30506">
        <ele>693</ele>
        <time>2022-12-11T12:21:48Z</time>
      </trkpt>
      <trkpt lat="43.59795" lon="6.30507">
        <ele>693</ele>
        <time>2022-12-11T12:21:49Z</time>
      </trkpt>
      <trkpt lat="43.59795" lon="6.30506">
        <ele>693</ele>
        <time>2022-12-11T12:21:50Z</time>
      </trkpt>
      <trkpt lat="43.59794" lon="6.30506">
        <ele>693</ele>
        <time>2022-12-11T12:21:51Z</time>
      </trkpt>
      <trkpt lat="43.59793" lon="6.30507">
        <ele>693</ele>
        <time>2022-12-11T12:21:52Z</time>
      </trkpt>
      <trkpt lat="43.59792" lon="6.30507">
        <ele>693</ele>
        <time>2022-12-11T12:21:53Z</time>
      </trkpt>
      <trkpt lat="43.59791" lon="6.30507">
        <ele>693</ele>
        <time>2022-12-11T12:21:54Z</time>
      </trkpt>
      <trkpt lat="43.5979" lon="6.30507">
        <ele>693</ele>
        <time>2022-12-11T12:21:55Z</time>
      </trkpt>
      <trkpt lat="43.59789" lon="6.30507">
        <ele>693</ele>
        <time>2022-12-11T12:21:56Z</time>
      </trkpt>
      <trkpt lat="43.59788" lon="6.30508">
        <ele>693</ele>
        <time>2022-12-11T12:21:57Z</time>
      </trkpt>
      <trkpt lat="43.59787" lon="6.30508">
        <ele>693</ele>
        <time>2022-12-11T12:21:58Z</time>
      </trkpt>
      <trkpt lat="43.59786" lon="6.30508">
        <ele>693</ele>
        <time>2022-12-11T12:21:59Z</time>
      </trkpt>
      <trkpt lat="43.59785" lon="6.30508">
        <ele>693</ele>
        <time>2022-12-11T12:22:00Z</time>
      </trkpt>
      <trkpt lat="43.59783" lon="6.30509">
        <ele>694</ele>
        <time>2022-12-11T12:22:01Z</time>
      </trkpt>
      <trkpt lat="43.59782" lon="6.30509">
        <ele>694</ele>
        <time>2022-12-11T12:22:02Z</time>
      </trkpt>
      <trkpt lat="43.59781" lon="6.3051">
        <ele>694</ele>
        <time>2022-12-11T12:22:03Z</time>
      </trkpt>
      <trkpt lat="43.5978" lon="6.3051">
        <ele>694</ele>
        <time>2022-12-11T12:22:04Z</time>
      </trkpt>
      <trkpt lat="43.59779" lon="6.3051">
        <ele>694</ele>
        <time>2022-12-11T12:22:05Z</time>
      </trkpt>
      <trkpt lat="43.59778" lon="6.3051">
        <ele>694</ele>
        <time>2022-12-11T12:22:06Z</time>
      </trkpt>
      <trkpt lat="43.59777" lon="6.3051">
        <ele>694</ele>
        <time>2022-12-11T12:22:07Z</time>
      </trkpt>
      <trkpt lat="43.59776" lon="6.30511">
        <ele>694</ele>
        <time>2022-12-11T12:22:08Z</time>
      </trkpt>
      <trkpt lat="43.59775" lon="6.30511">
        <ele>695</ele>
        <time>2022-12-11T12:22:09Z</time>
      </trkpt>
      <trkpt lat="43.59774" lon="6.30511">
        <ele>695</ele>
        <time>2022-12-11T12:22:10Z</time>
      </trkpt>
      <trkpt lat="43.59773" lon="6.30511">
        <ele>695</ele>
        <time>2022-12-11T12:22:11Z</time>
      </trkpt>
      <trkpt lat="43.59772" lon="6.30511">
        <ele>695</ele>
        <time>2022-12-11T12:22:12Z</time>
      </trkpt>
      <trkpt lat="43.5977" lon="6.30511">
        <ele>695</ele>
        <time>2022-12-11T12:22:13Z</time>
      </trkpt>
      <trkpt lat="43.59769" lon="6.30511">
        <ele>694</ele>
        <time>2022-12-11T12:22:14Z</time>
      </trkpt>
      <trkpt lat="43.59768" lon="6.30512">
        <ele>694</ele>
        <time>2022-12-11T12:22:15Z</time>
      </trkpt>
      <trkpt lat="43.59767" lon="6.30512">
        <ele>694</ele>
        <time>2022-12-11T12:22:16Z</time>
      </trkpt>
      <trkpt lat="43.59767" lon="6.30513">
        <ele>694</ele>
        <time>2022-12-11T12:22:17Z</time>
      </trkpt>
      <trkpt lat="43.59766" lon="6.30513">
        <ele>694</ele>
        <time>2022-12-11T12:22:18Z</time>
      </trkpt>
      <trkpt lat="43.59765" lon="6.30514">
        <ele>694</ele>
        <time>2022-12-11T12:22:19Z</time>
      </trkpt>
      <trkpt lat="43.59764" lon="6.30514">
        <ele>694</ele>
        <time>2022-12-11T12:22:20Z</time>
      </trkpt>
      <trkpt lat="43.59763" lon="6.30515">
        <ele>694</ele>
        <time>2022-12-11T12:22:21Z</time>
      </trkpt>
      <trkpt lat="43.59762" lon="6.30515">
        <ele>694</ele>
        <time>2022-12-11T12:22:22Z</time>
      </trkpt>
      <trkpt lat="43.59761" lon="6.30515">
        <ele>694</ele>
        <time>2022-12-11T12:22:23Z</time>
      </trkpt>
      <trkpt lat="43.5976" lon="6.30515">
        <ele>694</ele>
        <time>2022-12-11T12:22:24Z</time>
      </trkpt>
      <trkpt lat="43.59759" lon="6.30516">
        <ele>694</ele>
        <time>2022-12-11T12:22:25Z</time>
      </trkpt>
      <trkpt lat="43.59758" lon="6.30516">
        <ele>694</ele>
        <time>2022-12-11T12:22:26Z</time>
      </trkpt>
      <trkpt lat="43.59757" lon="6.30516">
        <ele>694</ele>
        <time>2022-12-11T12:22:27Z</time>
      </trkpt>
      <trkpt lat="43.59756" lon="6.30516">
        <ele>694</ele>
        <time>2022-12-11T12:22:28Z</time>
      </trkpt>
      <trkpt lat="43.59755" lon="6.30516">
        <ele>694</ele>
        <time>2022-12-11T12:22:29Z</time>
      </trkpt>
      <trkpt lat="43.59754" lon="6.30516">
        <ele>694</ele>
        <time>2022-12-11T12:22:30Z</time>
      </trkpt>
      <trkpt lat="43.59753" lon="6.30516">
        <ele>694</ele>
        <time>2022-12-11T12:22:31Z</time>
      </trkpt>
      <trkpt lat="43.59752" lon="6.30516">
        <ele>694</ele>
        <time>2022-12-11T12:22:32Z</time>
      </trkpt>
      <trkpt lat="43.59752" lon="6.30516">
        <ele>694</ele>
        <time>2022-12-11T12:22:33Z</time>
      </trkpt>
      <trkpt lat="43.5975" lon="6.30516">
        <ele>694</ele>
        <time>2022-12-11T12:22:34Z</time>
      </trkpt>
      <trkpt lat="43.59749" lon="6.30516">
        <ele>693</ele>
        <time>2022-12-11T12:22:35Z</time>
      </trkpt>
      <trkpt lat="43.59748" lon="6.30516">
        <ele>693</ele>
        <time>2022-12-11T12:22:36Z</time>
      </trkpt>
      <trkpt lat="43.59747" lon="6.30516">
        <ele>693</ele>
        <time>2022-12-11T12:22:37Z</time>
      </trkpt>
      <trkpt lat="43.59747" lon="6.30516">
        <ele>693</ele>
        <time>2022-12-11T12:22:38Z</time>
      </trkpt>
      <trkpt lat="43.59746" lon="6.30516">
        <ele>692</ele>
        <time>2022-12-11T12:22:39Z</time>
      </trkpt>
      <trkpt lat="43.59745" lon="6.30516">
        <ele>692</ele>
        <time>2022-12-11T12:22:40Z</time>
      </trkpt>
      <trkpt lat="43.59744" lon="6.30517">
        <ele>692</ele>
        <time>2022-12-11T12:22:41Z</time>
      </trkpt>
      <trkpt lat="43.59743" lon="6.30516">
        <ele>692</ele>
        <time>2022-12-11T12:22:42Z</time>
      </trkpt>
      <trkpt lat="43.59742" lon="6.30516">
        <ele>692</ele>
        <time>2022-12-11T12:22:43Z</time>
      </trkpt>
      <trkpt lat="43.59741" lon="6.30516">
        <ele>693</ele>
        <time>2022-12-11T12:22:44Z</time>
      </trkpt>
      <trkpt lat="43.5974" lon="6.30517">
        <ele>693</ele>
        <time>2022-12-11T12:22:45Z</time>
      </trkpt>
      <trkpt lat="43.59739" lon="6.30517">
        <ele>693</ele>
        <time>2022-12-11T12:22:46Z</time>
      </trkpt>
      <trkpt lat="43.59738" lon="6.30517">
        <ele>693</ele>
        <time>2022-12-11T12:22:47Z</time>
      </trkpt>
      <trkpt lat="43.59737" lon="6.30517">
        <ele>693</ele>
        <time>2022-12-11T12:22:48Z</time>
      </trkpt>
      <trkpt lat="43.59736" lon="6.30517">
        <ele>693</ele>
        <time>2022-12-11T12:22:49Z</time>
      </trkpt>
      <trkpt lat="43.59735" lon="6.30517">
        <ele>693</ele>
        <time>2022-12-11T12:22:50Z</time>
      </trkpt>
      <trkpt lat="43.59734" lon="6.30518">
        <ele>693</ele>
        <time>2022-12-11T12:22:51Z</time>
      </trkpt>
      <trkpt lat="43.59733" lon="6.30518">
        <ele>693</ele>
        <time>2022-12-11T12:22:52Z</time>
      </trkpt>
      <trkpt lat="43.59732" lon="6.30518">
        <ele>694</ele>
        <time>2022-12-11T12:22:53Z</time>
      </trkpt>
      <trkpt lat="43.59731" lon="6.30519">
        <ele>694</ele>
        <time>2022-12-11T12:22:54Z</time>
      </trkpt>
      <trkpt lat="43.5973" lon="6.30519">
        <ele>694</ele>
        <time>2022-12-11T12:22:55Z</time>
      </trkpt>
      <trkpt lat="43.59729" lon="6.3052">
        <ele>694</ele>
        <time>2022-12-11T12:22:56Z</time>
      </trkpt>
      <trkpt lat="43.59728" lon="6.30521">
        <ele>694</ele>
        <time>2022-12-11T12:22:57Z</time>
      </trkpt>
      <trkpt lat="43.59727" lon="6.30521">
        <ele>694</ele>
        <time>2022-12-11T12:22:58Z</time>
      </trkpt>
      <trkpt lat="43.59726" lon="6.30522">
        <ele>694</ele>
        <time>2022-12-11T12:22:59Z</time>
      </trkpt>
      <trkpt lat="43.59726" lon="6.30522">
        <ele>694</ele>
        <time>2022-12-11T12:23:00Z</time>
      </trkpt>
      <trkpt lat="43.59725" lon="6.30522">
        <ele>694</ele>
        <time>2022-12-11T12:23:01Z</time>
      </trkpt>
      <trkpt lat="43.59724" lon="6.30523">
        <ele>694</ele>
        <time>2022-12-11T12:23:02Z</time>
      </trkpt>
      <trkpt lat="43.59723" lon="6.30523">
        <ele>695</ele>
        <time>2022-12-11T12:23:03Z</time>
      </trkpt>
      <trkpt lat="43.59722" lon="6.30523">
        <ele>695</ele>
        <time>2022-12-11T12:23:04Z</time>
      </trkpt>
      <trkpt lat="43.59721" lon="6.30524">
        <ele>695</ele>
        <time>2022-12-11T12:23:05Z</time>
      </trkpt>
      <trkpt lat="43.5972" lon="6.30525">
        <ele>695</ele>
        <time>2022-12-11T12:23:06Z</time>
      </trkpt>
      <trkpt lat="43.59718" lon="6.30525">
        <ele>695</ele>
        <time>2022-12-11T12:23:07Z</time>
      </trkpt>
      <trkpt lat="43.59717" lon="6.30525">
        <ele>695</ele>
        <time>2022-12-11T12:23:08Z</time>
      </trkpt>
      <trkpt lat="43.59716" lon="6.30526">
        <ele>696</ele>
        <time>2022-12-11T12:23:09Z</time>
      </trkpt>
      <trkpt lat="43.59715" lon="6.30526">
        <ele>696</ele>
        <time>2022-12-11T12:23:10Z</time>
      </trkpt>
      <trkpt lat="43.59714" lon="6.30525">
        <ele>696</ele>
        <time>2022-12-11T12:23:11Z</time>
      </trkpt>
      <trkpt lat="43.59714" lon="6.30526">
        <ele>696</ele>
        <time>2022-12-11T12:23:12Z</time>
      </trkpt>
      <trkpt lat="43.59713" lon="6.30526">
        <ele>696</ele>
        <time>2022-12-11T12:23:13Z</time>
      </trkpt>
      <trkpt lat="43.59712" lon="6.30526">
        <ele>696</ele>
        <time>2022-12-11T12:23:14Z</time>
      </trkpt>
      <trkpt lat="43.59711" lon="6.30526">
        <ele>696</ele>
        <time>2022-12-11T12:23:15Z</time>
      </trkpt>
      <trkpt lat="43.5971" lon="6.30527">
        <ele>696</ele>
        <time>2022-12-11T12:23:16Z</time>
      </trkpt>
      <trkpt lat="43.59709" lon="6.30527">
        <ele>696</ele>
        <time>2022-12-11T12:23:17Z</time>
      </trkpt>
      <trkpt lat="43.59708" lon="6.30528">
        <ele>696</ele>
        <time>2022-12-11T12:23:18Z</time>
      </trkpt>
      <trkpt lat="43.59707" lon="6.30528">
        <ele>696</ele>
        <time>2022-12-11T12:23:19Z</time>
      </trkpt>
      <trkpt lat="43.59706" lon="6.30528">
        <ele>696</ele>
        <time>2022-12-11T12:23:20Z</time>
      </trkpt>
      <trkpt lat="43.59705" lon="6.30528">
        <ele>695</ele>
        <time>2022-12-11T12:23:21Z</time>
      </trkpt>
      <trkpt lat="43.59704" lon="6.30528">
        <ele>695</ele>
        <time>2022-12-11T12:23:22Z</time>
      </trkpt>
      <trkpt lat="43.59703" lon="6.30528">
        <ele>695</ele>
        <time>2022-12-11T12:23:23Z</time>
      </trkpt>
      <trkpt lat="43.59702" lon="6.30528">
        <ele>695</ele>
        <time>2022-12-11T12:23:24Z</time>
      </trkpt>
      <trkpt lat="43.59701" lon="6.30527">
        <ele>695</ele>
        <time>2022-12-11T12:23:25Z</time>
      </trkpt>
      <trkpt lat="43.59699" lon="6.30527">
        <ele>694</ele>
        <time>2022-12-11T12:23:26Z</time>
      </trkpt>
      <trkpt lat="43.59698" lon="6.30527">
        <ele>694</ele>
        <time>2022-12-11T12:23:27Z</time>
      </trkpt>
      <trkpt lat="43.59697" lon="6.30528">
        <ele>694</ele>
        <time>2022-12-11T12:23:28Z</time>
      </trkpt>
      <trkpt lat="43.59696" lon="6.30528">
        <ele>694</ele>
        <time>2022-12-11T12:23:29Z</time>
      </trkpt>
      <trkpt lat="43.59695" lon="6.30527">
        <ele>694</ele>
        <time>2022-12-11T12:23:30Z</time>
      </trkpt>
      <trkpt lat="43.59694" lon="6.30527">
        <ele>694</ele>
        <time>2022-12-11T12:23:31Z</time>
      </trkpt>
      <trkpt lat="43.59693" lon="6.30527">
        <ele>693</ele>
        <time>2022-12-11T12:23:32Z</time>
      </trkpt>
      <trkpt lat="43.59693" lon="6.30527">
        <ele>693</ele>
        <time>2022-12-11T12:23:33Z</time>
      </trkpt>
      <trkpt lat="43.59692" lon="6.30526">
        <ele>693</ele>
        <time>2022-12-11T12:23:34Z</time>
      </trkpt>
      <trkpt lat="43.59691" lon="6.30526">
        <ele>693</ele>
        <time>2022-12-11T12:23:35Z</time>
      </trkpt>
      <trkpt lat="43.5969" lon="6.30526">
        <ele>693</ele>
        <time>2022-12-11T12:23:36Z</time>
      </trkpt>
      <trkpt lat="43.59689" lon="6.30525">
        <ele>693</ele>
        <time>2022-12-11T12:23:37Z</time>
      </trkpt>
      <trkpt lat="43.59688" lon="6.30525">
        <ele>693</ele>
        <time>2022-12-11T12:23:38Z</time>
      </trkpt>
      <trkpt lat="43.59687" lon="6.30525">
        <ele>693</ele>
        <time>2022-12-11T12:23:39Z</time>
      </trkpt>
      <trkpt lat="43.59686" lon="6.30525">
        <ele>692</ele>
        <time>2022-12-11T12:23:40Z</time>
      </trkpt>
      <trkpt lat="43.59685" lon="6.30525">
        <ele>692</ele>
        <time>2022-12-11T12:23:41Z</time>
      </trkpt>
      <trkpt lat="43.59684" lon="6.30526">
        <ele>692</ele>
        <time>2022-12-11T12:23:42Z</time>
      </trkpt>
      <trkpt lat="43.59683" lon="6.30526">
        <ele>692</ele>
        <time>2022-12-11T12:23:43Z</time>
      </trkpt>
      <trkpt lat="43.59682" lon="6.30526">
        <ele>692</ele>
        <time>2022-12-11T12:23:44Z</time>
      </trkpt>
      <trkpt lat="43.59682" lon="6.30526">
        <ele>692</ele>
        <time>2022-12-11T12:23:45Z</time>
      </trkpt>
      <trkpt lat="43.59681" lon="6.30526">
        <ele>692</ele>
        <time>2022-12-11T12:23:46Z</time>
      </trkpt>
      <trkpt lat="43.5968" lon="6.30527">
        <ele>692</ele>
        <time>2022-12-11T12:23:47Z</time>
      </trkpt>
      <trkpt lat="43.5968" lon="6.30527">
        <ele>692</ele>
        <time>2022-12-11T12:23:48Z</time>
      </trkpt>
      <trkpt lat="43.59679" lon="6.30528">
        <ele>691</ele>
        <time>2022-12-11T12:23:49Z</time>
      </trkpt>
      <trkpt lat="43.59678" lon="6.30529">
        <ele>691</ele>
        <time>2022-12-11T12:23:50Z</time>
      </trkpt>
      <trkpt lat="43.59677" lon="6.30529">
        <ele>691</ele>
        <time>2022-12-11T12:23:51Z</time>
      </trkpt>
      <trkpt lat="43.59677" lon="6.30529">
        <ele>691</ele>
        <time>2022-12-11T12:23:52Z</time>
      </trkpt>
      <trkpt lat="43.59677" lon="6.30529">
        <ele>691</ele>
        <time>2022-12-11T12:23:53Z</time>
      </trkpt>
      <trkpt lat="43.59676" lon="6.3053">
        <ele>691</ele>
        <time>2022-12-11T12:23:54Z</time>
      </trkpt>
      <trkpt lat="43.59675" lon="6.3053">
        <ele>691</ele>
        <time>2022-12-11T12:23:55Z</time>
      </trkpt>
      <trkpt lat="43.59674" lon="6.3053">
        <ele>690</ele>
        <time>2022-12-11T12:23:56Z</time>
      </trkpt>
      <trkpt lat="43.59673" lon="6.30531">
        <ele>690</ele>
        <time>2022-12-11T12:23:57Z</time>
      </trkpt>
      <trkpt lat="43.59672" lon="6.30531">
        <ele>690</ele>
        <time>2022-12-11T12:23:58Z</time>
      </trkpt>
      <trkpt lat="43.59671" lon="6.30532">
        <ele>690</ele>
        <time>2022-12-11T12:23:59Z</time>
      </trkpt>
      <trkpt lat="43.59669" lon="6.30532">
        <ele>690</ele>
        <time>2022-12-11T12:24:00Z</time>
      </trkpt>
      <trkpt lat="43.59668" lon="6.30532">
        <ele>689</ele>
        <time>2022-12-11T12:24:01Z</time>
      </trkpt>
      <trkpt lat="43.59667" lon="6.30533">
        <ele>688</ele>
        <time>2022-12-11T12:24:02Z</time>
      </trkpt>
      <trkpt lat="43.59666" lon="6.30534">
        <ele>688</ele>
        <time>2022-12-11T12:24:03Z</time>
      </trkpt>
      <trkpt lat="43.59664" lon="6.30534">
        <ele>688</ele>
        <time>2022-12-11T12:24:04Z</time>
      </trkpt>
      <trkpt lat="43.59663" lon="6.30535">
        <ele>688</ele>
        <time>2022-12-11T12:24:05Z</time>
      </trkpt>
      <trkpt lat="43.59661" lon="6.30535">
        <ele>688</ele>
        <time>2022-12-11T12:24:06Z</time>
      </trkpt>
      <trkpt lat="43.5966" lon="6.30536">
        <ele>688</ele>
        <time>2022-12-11T12:24:07Z</time>
      </trkpt>
      <trkpt lat="43.59659" lon="6.30536">
        <ele>688</ele>
        <time>2022-12-11T12:24:08Z</time>
      </trkpt>
      <trkpt lat="43.59658" lon="6.30536">
        <ele>688</ele>
        <time>2022-12-11T12:24:09Z</time>
      </trkpt>
      <trkpt lat="43.59656" lon="6.30536">
        <ele>688</ele>
        <time>2022-12-11T12:24:10Z</time>
      </trkpt>
      <trkpt lat="43.59655" lon="6.30536">
        <ele>688</ele>
        <time>2022-12-11T12:24:11Z</time>
      </trkpt>
      <trkpt lat="43.59654" lon="6.30536">
        <ele>688</ele>
        <time>2022-12-11T12:24:12Z</time>
      </trkpt>
      <trkpt lat="43.59653" lon="6.30536">
        <ele>688</ele>
        <time>2022-12-11T12:24:13Z</time>
      </trkpt>
      <trkpt lat="43.59652" lon="6.30536">
        <ele>687</ele>
        <time>2022-12-11T12:24:14Z</time>
      </trkpt>
      <trkpt lat="43.59651" lon="6.30536">
        <ele>687</ele>
        <time>2022-12-11T12:24:15Z</time>
      </trkpt>
      <trkpt lat="43.59651" lon="6.30536">
        <ele>686</ele>
        <time>2022-12-11T12:24:16Z</time>
      </trkpt>
      <trkpt lat="43.5965" lon="6.30536">
        <ele>686</ele>
        <time>2022-12-11T12:24:17Z</time>
      </trkpt>
      <trkpt lat="43.59649" lon="6.30536">
        <ele>686</ele>
        <time>2022-12-11T12:24:18Z</time>
      </trkpt>
      <trkpt lat="43.59648" lon="6.30536">
        <ele>686</ele>
        <time>2022-12-11T12:24:19Z</time>
      </trkpt>
      <trkpt lat="43.59647" lon="6.30536">
        <ele>686</ele>
        <time>2022-12-11T12:24:20Z</time>
      </trkpt>
      <trkpt lat="43.59646" lon="6.30535">
        <ele>686</ele>
        <time>2022-12-11T12:24:21Z</time>
      </trkpt>
      <trkpt lat="43.59644" lon="6.30535">
        <ele>686</ele>
        <time>2022-12-11T12:24:22Z</time>
      </trkpt>
      <trkpt lat="43.59644" lon="6.30534">
        <ele>686</ele>
        <time>2022-12-11T12:24:23Z</time>
      </trkpt>
      <trkpt lat="43.59642" lon="6.30534">
        <ele>686</ele>
        <time>2022-12-11T12:24:24Z</time>
      </trkpt>
      <trkpt lat="43.59641" lon="6.30533">
        <ele>685</ele>
        <time>2022-12-11T12:24:25Z</time>
      </trkpt>
      <trkpt lat="43.5964" lon="6.30533">
        <ele>685</ele>
        <time>2022-12-11T12:24:26Z</time>
      </trkpt>
      <trkpt lat="43.59639" lon="6.30533">
        <ele>685</ele>
        <time>2022-12-11T12:24:27Z</time>
      </trkpt>
      <trkpt lat="43.59638" lon="6.30532">
        <ele>685</ele>
        <time>2022-12-11T12:24:28Z</time>
      </trkpt>
      <trkpt lat="43.59638" lon="6.30532">
        <ele>685</ele>
        <time>2022-12-11T12:24:29Z</time>
      </trkpt>
      <trkpt lat="43.59637" lon="6.30532">
        <ele>685</ele>
        <time>2022-12-11T12:24:30Z</time>
      </trkpt>
      <trkpt lat="43.59636" lon="6.30532">
        <ele>685</ele>
        <time>2022-12-11T12:24:31Z</time>
      </trkpt>
      <trkpt lat="43.59635" lon="6.30532">
        <ele>685</ele>
        <time>2022-12-11T12:24:32Z</time>
      </trkpt>
      <trkpt lat="43.59634" lon="6.30532">
        <ele>684</ele>
        <time>2022-12-11T12:24:33Z</time>
      </trkpt>
      <trkpt lat="43.59633" lon="6.30532">
        <ele>684</ele>
        <time>2022-12-11T12:24:34Z</time>
      </trkpt>
      <trkpt lat="43.59632" lon="6.30533">
        <ele>684</ele>
        <time>2022-12-11T12:24:35Z</time>
      </trkpt>
      <trkpt lat="43.59631" lon="6.30533">
        <ele>684</ele>
        <time>2022-12-11T12:24:36Z</time>
      </trkpt>
      <trkpt lat="43.5963" lon="6.30534">
        <ele>683</ele>
        <time>2022-12-11T12:24:37Z</time>
      </trkpt>
      <trkpt lat="43.5963" lon="6.30534">
        <ele>683</ele>
        <time>2022-12-11T12:24:38Z</time>
      </trkpt>
      <trkpt lat="43.59629" lon="6.30535">
        <ele>683</ele>
        <time>2022-12-11T12:24:39Z</time>
      </trkpt>
      <trkpt lat="43.59628" lon="6.30535">
        <ele>683</ele>
        <time>2022-12-11T12:24:40Z</time>
      </trkpt>
      <trkpt lat="43.59627" lon="6.30535">
        <ele>683</ele>
        <time>2022-12-11T12:24:41Z</time>
      </trkpt>
      <trkpt lat="43.59626" lon="6.30535">
        <ele>683</ele>
        <time>2022-12-11T12:24:42Z</time>
      </trkpt>
      <trkpt lat="43.59625" lon="6.30535">
        <ele>683</ele>
        <time>2022-12-11T12:24:43Z</time>
      </trkpt>
      <trkpt lat="43.59624" lon="6.30535">
        <ele>684</ele>
        <time>2022-12-11T12:24:44Z</time>
      </trkpt>
      <trkpt lat="43.59622" lon="6.30535">
        <ele>684</ele>
        <time>2022-12-11T12:24:45Z</time>
      </trkpt>
      <trkpt lat="43.59621" lon="6.30535">
        <ele>684</ele>
        <time>2022-12-11T12:24:46Z</time>
      </trkpt>
      <trkpt lat="43.5962" lon="6.30534">
        <ele>684</ele>
        <time>2022-12-11T12:24:47Z</time>
      </trkpt>
      <trkpt lat="43.59619" lon="6.30534">
        <ele>684</ele>
        <time>2022-12-11T12:24:48Z</time>
      </trkpt>
      <trkpt lat="43.59617" lon="6.30534">
        <ele>684</ele>
        <time>2022-12-11T12:24:49Z</time>
      </trkpt>
      <trkpt lat="43.59616" lon="6.30533">
        <ele>684</ele>
        <time>2022-12-11T12:24:50Z</time>
      </trkpt>
      <trkpt lat="43.59615" lon="6.30532">
        <ele>685</ele>
        <time>2022-12-11T12:24:51Z</time>
      </trkpt>
      <trkpt lat="43.59614" lon="6.30531">
        <ele>685</ele>
        <time>2022-12-11T12:24:52Z</time>
      </trkpt>
      <trkpt lat="43.59613" lon="6.30529">
        <ele>685</ele>
        <time>2022-12-11T12:24:53Z</time>
      </trkpt>
      <trkpt lat="43.59612" lon="6.30527">
        <ele>685</ele>
        <time>2022-12-11T12:24:54Z</time>
      </trkpt>
      <trkpt lat="43.59612" lon="6.30525">
        <ele>685</ele>
        <time>2022-12-11T12:24:55Z</time>
      </trkpt>
      <trkpt lat="43.59611" lon="6.30524">
        <ele>685</ele>
        <time>2022-12-11T12:24:56Z</time>
      </trkpt>
      <trkpt lat="43.59611" lon="6.30522">
        <ele>685</ele>
        <time>2022-12-11T12:24:57Z</time>
      </trkpt>
      <trkpt lat="43.59611" lon="6.30521">
        <ele>685</ele>
        <time>2022-12-11T12:24:58Z</time>
      </trkpt>
      <trkpt lat="43.5961" lon="6.3052">
        <ele>685</ele>
        <time>2022-12-11T12:24:59Z</time>
      </trkpt>
      <trkpt lat="43.5961" lon="6.30519">
        <ele>685</ele>
        <time>2022-12-11T12:25:00Z</time>
      </trkpt>
      <trkpt lat="43.59611" lon="6.30517">
        <ele>685</ele>
        <time>2022-12-11T12:25:01Z</time>
      </trkpt>
      <trkpt lat="43.59611" lon="6.30516">
        <ele>685</ele>
        <time>2022-12-11T12:25:02Z</time>
      </trkpt>
      <trkpt lat="43.59611" lon="6.30514">
        <ele>685</ele>
        <time>2022-12-11T12:25:03Z</time>
      </trkpt>
      <trkpt lat="43.59611" lon="6.30513">
        <ele>685</ele>
        <time>2022-12-11T12:25:04Z</time>
      </trkpt>
      <trkpt lat="43.59612" lon="6.30512">
        <ele>685</ele>
        <time>2022-12-11T12:25:05Z</time>
      </trkpt>
      <trkpt lat="43.59612" lon="6.3051">
        <ele>685</ele>
        <time>2022-12-11T12:25:06Z</time>
      </trkpt>
      <trkpt lat="43.59612" lon="6.30509">
        <ele>685</ele>
        <time>2022-12-11T12:25:07Z</time>
      </trkpt>
      <trkpt lat="43.59613" lon="6.30509">
        <ele>685</ele>
        <time>2022-12-11T12:25:08Z</time>
      </trkpt>
      <trkpt lat="43.59613" lon="6.30508">
        <ele>685</ele>
        <time>2022-12-11T12:25:09Z</time>
      </trkpt>
      <trkpt lat="43.59614" lon="6.30507">
        <ele>685</ele>
        <time>2022-12-11T12:25:10Z</time>
      </trkpt>
      <trkpt lat="43.59614" lon="6.30506">
        <ele>685</ele>
        <time>2022-12-11T12:25:11Z</time>
      </trkpt>
      <trkpt lat="43.59614" lon="6.30505">
        <ele>685</ele>
        <time>2022-12-11T12:25:12Z</time>
      </trkpt>
      <trkpt lat="43.59615" lon="6.30505">
        <ele>685</ele>
        <time>2022-12-11T12:25:13Z</time>
      </trkpt>
      <trkpt lat="43.59615" lon="6.30504">
        <ele>685</ele>
        <time>2022-12-11T12:25:14Z</time>
      </trkpt>
      <trkpt lat="43.59615" lon="6.30504">
        <ele>685</ele>
        <time>2022-12-11T12:25:15Z</time>
      </trkpt>
      <trkpt lat="43.59616" lon="6.30503">
        <ele>685</ele>
        <time>2022-12-11T12:25:16Z</time>
      </trkpt>
      <trkpt lat="43.59616" lon="6.30503">
        <ele>684</ele>
        <time>2022-12-11T12:25:17Z</time>
      </trkpt>
      <trkpt lat="43.59616" lon="6.30503">
        <ele>684</ele>
        <time>2022-12-11T12:25:18Z</time>
      </trkpt>
      <trkpt lat="43.59617" lon="6.30503">
        <ele>684</ele>
        <time>2022-12-11T12:25:19Z</time>
      </trkpt>
      <trkpt lat="43.59617" lon="6.30503">
        <ele>684</ele>
        <time>2022-12-11T12:25:20Z</time>
      </trkpt>
      <trkpt lat="43.59619" lon="6.30503">
        <ele>684</ele>
        <time>2022-12-11T12:25:21Z</time>
      </trkpt>
      <trkpt lat="43.5962" lon="6.30502">
        <ele>684</ele>
        <time>2022-12-11T12:25:22Z</time>
      </trkpt>
      <trkpt lat="43.5962" lon="6.30502">
        <ele>684</ele>
        <time>2022-12-11T12:25:23Z</time>
      </trkpt>
      <trkpt lat="43.5962" lon="6.30501">
        <ele>684</ele>
        <time>2022-12-11T12:25:24Z</time>
      </trkpt>
      <trkpt lat="43.5962" lon="6.305">
        <ele>684</ele>
        <time>2022-12-11T12:25:25Z</time>
      </trkpt>
      <trkpt lat="43.5962" lon="6.305">
        <ele>684</ele>
        <time>2022-12-11T12:25:26Z</time>
      </trkpt>
      <trkpt lat="43.5962" lon="6.30499">
        <ele>684</ele>
        <time>2022-12-11T12:25:27Z</time>
      </trkpt>
      <trkpt lat="43.5962" lon="6.30499">
        <ele>684</ele>
        <time>2022-12-11T12:25:28Z</time>
      </trkpt>
      <trkpt lat="43.59619" lon="6.30498">
        <ele>684</ele>
        <time>2022-12-11T12:25:29Z</time>
      </trkpt>
      <trkpt lat="43.59619" lon="6.30498">
        <ele>684</ele>
        <time>2022-12-11T12:25:30Z</time>
      </trkpt>
      <trkpt lat="43.59618" lon="6.30497">
        <ele>684</ele>
        <time>2022-12-11T12:25:31Z</time>
      </trkpt>
      <trkpt lat="43.59618" lon="6.30497">
        <ele>684</ele>
        <time>2022-12-11T12:25:32Z</time>
      </trkpt>
      <trkpt lat="43.59617" lon="6.30496">
        <ele>684</ele>
        <time>2022-12-11T12:25:33Z</time>
      </trkpt>
      <trkpt lat="43.59616" lon="6.30496">
        <ele>684</ele>
        <time>2022-12-11T12:25:34Z</time>
      </trkpt>
      <trkpt lat="43.59615" lon="6.30495">
        <ele>684</ele>
        <time>2022-12-11T12:25:35Z</time>
      </trkpt>
      <trkpt lat="43.59614" lon="6.30495">
        <ele>684</ele>
        <time>2022-12-11T12:25:36Z</time>
      </trkpt>
      <trkpt lat="43.59613" lon="6.30494">
        <ele>684</ele>
        <time>2022-12-11T12:25:37Z</time>
      </trkpt>
      <trkpt lat="43.59613" lon="6.30494">
        <ele>684</ele>
        <time>2022-12-11T12:25:38Z</time>
      </trkpt>
      <trkpt lat="43.59612" lon="6.30494">
        <ele>683</ele>
        <time>2022-12-11T12:25:39Z</time>
      </trkpt>
      <trkpt lat="43.59611" lon="6.30493">
        <ele>683</ele>
        <time>2022-12-11T12:25:40Z</time>
      </trkpt>
      <trkpt lat="43.5961" lon="6.30493">
        <ele>683</ele>
        <time>2022-12-11T12:25:41Z</time>
      </trkpt>
      <trkpt lat="43.59609" lon="6.30493">
        <ele>683</ele>
        <time>2022-12-11T12:25:42Z</time>
      </trkpt>
      <trkpt lat="43.59607" lon="6.30493">
        <ele>681</ele>
        <time>2022-12-11T12:25:43Z</time>
      </trkpt>
      <trkpt lat="43.59606" lon="6.30492">
        <ele>681</ele>
        <time>2022-12-11T12:25:44Z</time>
      </trkpt>
      <trkpt lat="43.59605" lon="6.30492">
        <ele>680</ele>
        <time>2022-12-11T12:25:45Z</time>
      </trkpt>
      <trkpt lat="43.59604" lon="6.30491">
        <ele>680</ele>
        <time>2022-12-11T12:25:46Z</time>
      </trkpt>
      <trkpt lat="43.59603" lon="6.30491">
        <ele>680</ele>
        <time>2022-12-11T12:25:47Z</time>
      </trkpt>
      <trkpt lat="43.59601" lon="6.3049">
        <ele>680</ele>
        <time>2022-12-11T12:25:48Z</time>
      </trkpt>
      <trkpt lat="43.596" lon="6.30489">
        <ele>680</ele>
        <time>2022-12-11T12:25:49Z</time>
      </trkpt>
      <trkpt lat="43.59599" lon="6.30488">
        <ele>679</ele>
        <time>2022-12-11T12:25:50Z</time>
      </trkpt>
      <trkpt lat="43.59598" lon="6.30488">
        <ele>679</ele>
        <time>2022-12-11T12:25:51Z</time>
      </trkpt>
      <trkpt lat="43.59597" lon="6.30487">
        <ele>679</ele>
        <time>2022-12-11T12:25:52Z</time>
      </trkpt>
      <trkpt lat="43.59596" lon="6.30486">
        <ele>679</ele>
        <time>2022-12-11T12:25:53Z</time>
      </trkpt>
      <trkpt lat="43.59595" lon="6.30486">
        <ele>678</ele>
        <time>2022-12-11T12:25:54Z</time>
      </trkpt>
      <trkpt lat="43.59594" lon="6.30486">
        <ele>678</ele>
        <time>2022-12-11T12:25:55Z</time>
      </trkpt>
      <trkpt lat="43.59593" lon="6.30486">
        <ele>678</ele>
        <time>2022-12-11T12:25:56Z</time>
      </trkpt>
      <trkpt lat="43.59592" lon="6.30486">
        <ele>678</ele>
        <time>2022-12-11T12:25:57Z</time>
      </trkpt>
      <trkpt lat="43.59591" lon="6.30485">
        <ele>678</ele>
        <time>2022-12-11T12:25:58Z</time>
      </trkpt>
      <trkpt lat="43.5959" lon="6.30485">
        <ele>678</ele>
        <time>2022-12-11T12:25:59Z</time>
      </trkpt>
      <trkpt lat="43.59589" lon="6.30485">
        <ele>678</ele>
        <time>2022-12-11T12:26:00Z</time>
      </trkpt>
      <trkpt lat="43.59588" lon="6.30485">
        <ele>678</ele>
        <time>2022-12-11T12:26:01Z</time>
      </trkpt>
      <trkpt lat="43.59587" lon="6.30485">
        <ele>677</ele>
        <time>2022-12-11T12:26:02Z</time>
      </trkpt>
      <trkpt lat="43.59586" lon="6.30484">
        <ele>677</ele>
        <time>2022-12-11T12:26:03Z</time>
      </trkpt>
      <trkpt lat="43.59586" lon="6.30483">
        <ele>677</ele>
        <time>2022-12-11T12:26:04Z</time>
      </trkpt>
      <trkpt lat="43.59585" lon="6.30482">
        <ele>677</ele>
        <time>2022-12-11T12:26:05Z</time>
      </trkpt>
      <trkpt lat="43.59585" lon="6.30481">
        <ele>677</ele>
        <time>2022-12-11T12:26:06Z</time>
      </trkpt>
      <trkpt lat="43.59584" lon="6.3048">
        <ele>677</ele>
        <time>2022-12-11T12:26:07Z</time>
      </trkpt>
      <trkpt lat="43.59584" lon="6.30479">
        <ele>677</ele>
        <time>2022-12-11T12:26:08Z</time>
      </trkpt>
      <trkpt lat="43.59583" lon="6.30478">
        <ele>677</ele>
        <time>2022-12-11T12:26:09Z</time>
      </trkpt>
      <trkpt lat="43.59582" lon="6.30477">
        <ele>677</ele>
        <time>2022-12-11T12:26:10Z</time>
      </trkpt>
      <trkpt lat="43.59582" lon="6.30476">
        <ele>676</ele>
        <time>2022-12-11T12:26:11Z</time>
      </trkpt>
      <trkpt lat="43.59581" lon="6.30476">
        <ele>676</ele>
        <time>2022-12-11T12:26:12Z</time>
      </trkpt>
      <trkpt lat="43.5958" lon="6.30475">
        <ele>676</ele>
        <time>2022-12-11T12:26:13Z</time>
      </trkpt>
      <trkpt lat="43.5958" lon="6.30474">
        <ele>676</ele>
        <time>2022-12-11T12:26:14Z</time>
      </trkpt>
      <trkpt lat="43.59579" lon="6.30474">
        <ele>675</ele>
        <time>2022-12-11T12:26:15Z</time>
      </trkpt>
      <trkpt lat="43.59578" lon="6.30473">
        <ele>675</ele>
        <time>2022-12-11T12:26:16Z</time>
      </trkpt>
      <trkpt lat="43.59577" lon="6.30472">
        <ele>674</ele>
        <time>2022-12-11T12:26:17Z</time>
      </trkpt>
      <trkpt lat="43.59577" lon="6.30472">
        <ele>674</ele>
        <time>2022-12-11T12:26:18Z</time>
      </trkpt>
      <trkpt lat="43.59575" lon="6.30472">
        <ele>674</ele>
        <time>2022-12-11T12:26:19Z</time>
      </trkpt>
      <trkpt lat="43.59574" lon="6.30471">
        <ele>673</ele>
        <time>2022-12-11T12:26:20Z</time>
      </trkpt>
      <trkpt lat="43.59573" lon="6.30471">
        <ele>673</ele>
        <time>2022-12-11T12:26:21Z</time>
      </trkpt>
      <trkpt lat="43.59572" lon="6.30471">
        <ele>673</ele>
        <time>2022-12-11T12:26:22Z</time>
      </trkpt>
      <trkpt lat="43.59571" lon="6.30471">
        <ele>672</ele>
        <time>2022-12-11T12:26:23Z</time>
      </trkpt>
      <trkpt lat="43.5957" lon="6.30471">
        <ele>672</ele>
        <time>2022-12-11T12:26:24Z</time>
      </trkpt>
      <trkpt lat="43.59569" lon="6.30472">
        <ele>672</ele>
        <time>2022-12-11T12:26:25Z</time>
      </trkpt>
      <trkpt lat="43.59568" lon="6.30472">
        <ele>672</ele>
        <time>2022-12-11T12:26:26Z</time>
      </trkpt>
      <trkpt lat="43.59568" lon="6.30472">
        <ele>672</ele>
        <time>2022-12-11T12:26:27Z</time>
      </trkpt>
      <trkpt lat="43.59568" lon="6.30472">
        <ele>671</ele>
        <time>2022-12-11T12:26:28Z</time>
      </trkpt>
      <trkpt lat="43.59568" lon="6.30472">
        <ele>671</ele>
        <time>2022-12-11T12:26:29Z</time>
      </trkpt>
      <trkpt lat="43.59568" lon="6.30472">
        <ele>671</ele>
        <time>2022-12-11T12:26:30Z</time>
      </trkpt>
      <trkpt lat="43.59568" lon="6.30472">
        <ele>671</ele>
        <time>2022-12-11T12:26:31Z</time>
      </trkpt>
      <trkpt lat="43.59568" lon="6.30472">
        <ele>671</ele>
        <time>2022-12-11T12:26:32Z</time>
      </trkpt>
      <trkpt lat="43.59568" lon="6.30472">
        <ele>671</ele>
        <time>2022-12-11T12:26:33Z</time>
      </trkpt>
      <trkpt lat="43.59568" lon="6.30472">
        <ele>671</ele>
        <time>2022-12-11T12:26:34Z</time>
      </trkpt>
      <trkpt lat="43.59568" lon="6.30472">
        <ele>671</ele>
        <time>2022-12-11T12:26:35Z</time>
      </trkpt>
      <trkpt lat="43.59568" lon="6.30472">
        <ele>671</ele>
        <time>2022-12-11T12:26:36Z</time>
      </trkpt>
      <trkpt lat="43.59567" lon="6.30471">
        <ele>671</ele>
        <time>2022-12-11T12:26:37Z</time>
      </trkpt>
      <trkpt lat="43.59567" lon="6.30471">
        <ele>671</ele>
        <time>2022-12-11T12:26:38Z</time>
      </trkpt>
      <trkpt lat="43.59566" lon="6.30471">
        <ele>671</ele>
        <time>2022-12-11T12:26:39Z</time>
      </trkpt>
      <trkpt lat="43.59565" lon="6.30471">
        <ele>671</ele>
        <time>2022-12-11T12:26:40Z</time>
      </trkpt>
      <trkpt lat="43.59565" lon="6.30471">
        <ele>671</ele>
        <time>2022-12-11T12:26:41Z</time>
      </trkpt>
      <trkpt lat="43.59564" lon="6.30471">
        <ele>671</ele>
        <time>2022-12-11T12:26:42Z</time>
      </trkpt>
      <trkpt lat="43.59564" lon="6.30471">
        <ele>671</ele>
        <time>2022-12-11T12:26:43Z</time>
      </trkpt>
      <trkpt lat="43.59563" lon="6.30471">
        <ele>671</ele>
        <time>2022-12-11T12:26:44Z</time>
      </trkpt>
      <trkpt lat="43.59563" lon="6.30471">
        <ele>671</ele>
        <time>2022-12-11T12:26:45Z</time>
      </trkpt>
      <trkpt lat="43.59563" lon="6.30471">
        <ele>671</ele>
        <time>2022-12-11T12:26:46Z</time>
      </trkpt>
      <trkpt lat="43.59562" lon="6.30471">
        <ele>671</ele>
        <time>2022-12-11T12:26:47Z</time>
      </trkpt>
      <trkpt lat="43.59562" lon="6.30472">
        <ele>671</ele>
        <time>2022-12-11T12:26:48Z</time>
      </trkpt>
      <trkpt lat="43.59561" lon="6.30472">
        <ele>671</ele>
        <time>2022-12-11T12:26:49Z</time>
      </trkpt>
      <trkpt lat="43.59561" lon="6.30472">
        <ele>670</ele>
        <time>2022-12-11T12:26:50Z</time>
      </trkpt>
      <trkpt lat="43.5956" lon="6.30472">
        <ele>670</ele>
        <time>2022-12-11T12:26:51Z</time>
      </trkpt>
      <trkpt lat="43.59559" lon="6.30472">
        <ele>669</ele>
        <time>2022-12-11T12:26:52Z</time>
      </trkpt>
      <trkpt lat="43.59558" lon="6.30472">
        <ele>669</ele>
        <time>2022-12-11T12:26:53Z</time>
      </trkpt>
      <trkpt lat="43.59557" lon="6.30472">
        <ele>669</ele>
        <time>2022-12-11T12:26:54Z</time>
      </trkpt>
      <trkpt lat="43.59556" lon="6.30472">
        <ele>669</ele>
        <time>2022-12-11T12:26:55Z</time>
      </trkpt>
      <trkpt lat="43.59556" lon="6.30471">
        <ele>669</ele>
        <time>2022-12-11T12:26:56Z</time>
      </trkpt>
      <trkpt lat="43.59555" lon="6.30471">
        <ele>669</ele>
        <time>2022-12-11T12:26:57Z</time>
      </trkpt>
      <trkpt lat="43.59554" lon="6.30472">
        <ele>669</ele>
        <time>2022-12-11T12:26:58Z</time>
      </trkpt>
      <trkpt lat="43.59553" lon="6.30472">
        <ele>669</ele>
        <time>2022-12-11T12:26:59Z</time>
      </trkpt>
      <trkpt lat="43.59552" lon="6.30472">
        <ele>669</ele>
        <time>2022-12-11T12:27:00Z</time>
      </trkpt>
      <trkpt lat="43.59551" lon="6.30472">
        <ele>668</ele>
        <time>2022-12-11T12:27:01Z</time>
      </trkpt>
      <trkpt lat="43.5955" lon="6.30473">
        <ele>667</ele>
        <time>2022-12-11T12:27:02Z</time>
      </trkpt>
      <trkpt lat="43.59549" lon="6.30473">
        <ele>667</ele>
        <time>2022-12-11T12:27:03Z</time>
      </trkpt>
      <trkpt lat="43.59548" lon="6.30473">
        <ele>667</ele>
        <time>2022-12-11T12:27:04Z</time>
      </trkpt>
      <trkpt lat="43.59547" lon="6.30472">
        <ele>667</ele>
        <time>2022-12-11T12:27:05Z</time>
      </trkpt>
      <trkpt lat="43.59546" lon="6.30472">
        <ele>667</ele>
        <time>2022-12-11T12:27:06Z</time>
      </trkpt>
      <trkpt lat="43.59545" lon="6.30472">
        <ele>667</ele>
        <time>2022-12-11T12:27:07Z</time>
      </trkpt>
      <trkpt lat="43.59544" lon="6.30472">
        <ele>667</ele>
        <time>2022-12-11T12:27:08Z</time>
      </trkpt>
      <trkpt lat="43.59543" lon="6.30471">
        <ele>667</ele>
        <time>2022-12-11T12:27:09Z</time>
      </trkpt>
      <trkpt lat="43.59541" lon="6.30471">
        <ele>667</ele>
        <time>2022-12-11T12:27:10Z</time>
      </trkpt>
      <trkpt lat="43.5954" lon="6.3047">
        <ele>667</ele>
        <time>2022-12-11T12:27:11Z</time>
      </trkpt>
      <trkpt lat="43.59539" lon="6.3047">
        <ele>667</ele>
        <time>2022-12-11T12:27:12Z</time>
      </trkpt>
      <trkpt lat="43.59538" lon="6.3047">
        <ele>667</ele>
        <time>2022-12-11T12:27:13Z</time>
      </trkpt>
      <trkpt lat="43.59537" lon="6.3047">
        <ele>668</ele>
        <time>2022-12-11T12:27:14Z</time>
      </trkpt>
      <trkpt lat="43.59535" lon="6.3047">
        <ele>668</ele>
        <time>2022-12-11T12:27:15Z</time>
      </trkpt>
      <trkpt lat="43.59534" lon="6.3047">
        <ele>669</ele>
        <time>2022-12-11T12:27:16Z</time>
      </trkpt>
      <trkpt lat="43.59533" lon="6.3047">
        <ele>669</ele>
        <time>2022-12-11T12:27:17Z</time>
      </trkpt>
      <trkpt lat="43.59531" lon="6.30469">
        <ele>669</ele>
        <time>2022-12-11T12:27:18Z</time>
      </trkpt>
      <trkpt lat="43.5953" lon="6.30469">
        <ele>669</ele>
        <time>2022-12-11T12:27:19Z</time>
      </trkpt>
      <trkpt lat="43.59529" lon="6.30469">
        <ele>669</ele>
        <time>2022-12-11T12:27:20Z</time>
      </trkpt>
      <trkpt lat="43.59528" lon="6.30469">
        <ele>669</ele>
        <time>2022-12-11T12:27:21Z</time>
      </trkpt>
      <trkpt lat="43.59527" lon="6.30469">
        <ele>669</ele>
        <time>2022-12-11T12:27:22Z</time>
      </trkpt>
      <trkpt lat="43.59526" lon="6.30469">
        <ele>669</ele>
        <time>2022-12-11T12:27:23Z</time>
      </trkpt>
      <trkpt lat="43.59525" lon="6.30469">
        <ele>669</ele>
        <time>2022-12-11T12:27:24Z</time>
      </trkpt>
      <trkpt lat="43.59524" lon="6.30469">
        <ele>669</ele>
        <time>2022-12-11T12:27:25Z</time>
      </trkpt>
      <trkpt lat="43.59523" lon="6.30469">
        <ele>669</ele>
        <time>2022-12-11T12:27:26Z</time>
      </trkpt>
      <trkpt lat="43.59522" lon="6.30469">
        <ele>669</ele>
        <time>2022-12-11T12:27:27Z</time>
      </trkpt>
      <trkpt lat="43.59521" lon="6.30469">
        <ele>669</ele>
        <time>2022-12-11T12:27:28Z</time>
      </trkpt>
      <trkpt lat="43.5952" lon="6.30469">
        <ele>669</ele>
        <time>2022-12-11T12:27:29Z</time>
      </trkpt>
      <trkpt lat="43.59519" lon="6.30469">
        <ele>669</ele>
        <time>2022-12-11T12:27:30Z</time>
      </trkpt>
      <trkpt lat="43.59519" lon="6.30469">
        <ele>669</ele>
        <time>2022-12-11T12:27:31Z</time>
      </trkpt>
      <trkpt lat="43.59518" lon="6.3047">
        <ele>669</ele>
        <time>2022-12-11T12:27:32Z</time>
      </trkpt>
      <trkpt lat="43.59517" lon="6.3047">
        <ele>669</ele>
        <time>2022-12-11T12:27:33Z</time>
      </trkpt>
      <trkpt lat="43.59516" lon="6.3047">
        <ele>669</ele>
        <time>2022-12-11T12:27:34Z</time>
      </trkpt>
      <trkpt lat="43.59515" lon="6.30471">
        <ele>669</ele>
        <time>2022-12-11T12:27:35Z</time>
      </trkpt>
      <trkpt lat="43.59514" lon="6.30471">
        <ele>669</ele>
        <time>2022-12-11T12:27:36Z</time>
      </trkpt>
      <trkpt lat="43.59513" lon="6.30471">
        <ele>669</ele>
        <time>2022-12-11T12:27:37Z</time>
      </trkpt>
      <trkpt lat="43.59512" lon="6.30471">
        <ele>670</ele>
        <time>2022-12-11T12:27:38Z</time>
      </trkpt>
      <trkpt lat="43.59511" lon="6.30472">
        <ele>670</ele>
        <time>2022-12-11T12:27:39Z</time>
      </trkpt>
      <trkpt lat="43.5951" lon="6.30472">
        <ele>670</ele>
        <time>2022-12-11T12:27:40Z</time>
      </trkpt>
      <trkpt lat="43.59509" lon="6.30472">
        <ele>670</ele>
        <time>2022-12-11T12:27:41Z</time>
      </trkpt>
      <trkpt lat="43.59508" lon="6.30472">
        <ele>671</ele>
        <time>2022-12-11T12:27:42Z</time>
      </trkpt>
      <trkpt lat="43.59507" lon="6.30472">
        <ele>671</ele>
        <time>2022-12-11T12:27:43Z</time>
      </trkpt>
      <trkpt lat="43.59506" lon="6.30472">
        <ele>671</ele>
        <time>2022-12-11T12:27:44Z</time>
      </trkpt>
      <trkpt lat="43.59505" lon="6.30472">
        <ele>671</ele>
        <time>2022-12-11T12:27:45Z</time>
      </trkpt>
      <trkpt lat="43.59504" lon="6.30471">
        <ele>671</ele>
        <time>2022-12-11T12:27:46Z</time>
      </trkpt>
      <trkpt lat="43.59503" lon="6.30471">
        <ele>671</ele>
        <time>2022-12-11T12:27:47Z</time>
      </trkpt>
      <trkpt lat="43.59502" lon="6.3047">
        <ele>671</ele>
        <time>2022-12-11T12:27:48Z</time>
      </trkpt>
      <trkpt lat="43.59501" lon="6.3047">
        <ele>671</ele>
        <time>2022-12-11T12:27:49Z</time>
      </trkpt>
      <trkpt lat="43.595" lon="6.3047">
        <ele>670</ele>
        <time>2022-12-11T12:27:50Z</time>
      </trkpt>
      <trkpt lat="43.595" lon="6.30469">
        <ele>669</ele>
        <time>2022-12-11T12:27:51Z</time>
      </trkpt>
      <trkpt lat="43.59499" lon="6.30469">
        <ele>669</ele>
        <time>2022-12-11T12:27:52Z</time>
      </trkpt>
      <trkpt lat="43.59498" lon="6.30468">
        <ele>669</ele>
        <time>2022-12-11T12:27:53Z</time>
      </trkpt>
      <trkpt lat="43.59497" lon="6.30467">
        <ele>668</ele>
        <time>2022-12-11T12:27:54Z</time>
      </trkpt>
      <trkpt lat="43.59496" lon="6.30466">
        <ele>668</ele>
        <time>2022-12-11T12:27:55Z</time>
      </trkpt>
      <trkpt lat="43.59495" lon="6.30465">
        <ele>668</ele>
        <time>2022-12-11T12:27:56Z</time>
      </trkpt>
      <trkpt lat="43.59494" lon="6.30465">
        <ele>668</ele>
        <time>2022-12-11T12:27:57Z</time>
      </trkpt>
      <trkpt lat="43.59494" lon="6.30464">
        <ele>668</ele>
        <time>2022-12-11T12:27:58Z</time>
      </trkpt>
      <trkpt lat="43.59493" lon="6.30463">
        <ele>668</ele>
        <time>2022-12-11T12:27:59Z</time>
      </trkpt>
      <trkpt lat="43.59492" lon="6.30463">
        <ele>667</ele>
        <time>2022-12-11T12:28:00Z</time>
      </trkpt>
      <trkpt lat="43.59491" lon="6.30462">
        <ele>667</ele>
        <time>2022-12-11T12:28:01Z</time>
      </trkpt>
      <trkpt lat="43.59491" lon="6.30461">
        <ele>667</ele>
        <time>2022-12-11T12:28:02Z</time>
      </trkpt>
      <trkpt lat="43.5949" lon="6.30461">
        <ele>667</ele>
        <time>2022-12-11T12:28:03Z</time>
      </trkpt>
      <trkpt lat="43.59489" lon="6.3046">
        <ele>666</ele>
        <time>2022-12-11T12:28:04Z</time>
      </trkpt>
      <trkpt lat="43.59489" lon="6.3046">
        <ele>666</ele>
        <time>2022-12-11T12:28:05Z</time>
      </trkpt>
      <trkpt lat="43.59488" lon="6.30459">
        <ele>666</ele>
        <time>2022-12-11T12:28:06Z</time>
      </trkpt>
      <trkpt lat="43.59487" lon="6.30458">
        <ele>666</ele>
        <time>2022-12-11T12:28:07Z</time>
      </trkpt>
      <trkpt lat="43.59486" lon="6.30457">
        <ele>666</ele>
        <time>2022-12-11T12:28:08Z</time>
      </trkpt>
      <trkpt lat="43.59485" lon="6.30457">
        <ele>666</ele>
        <time>2022-12-11T12:28:09Z</time>
      </trkpt>
      <trkpt lat="43.59485" lon="6.30456">
        <ele>666</ele>
        <time>2022-12-11T12:28:10Z</time>
      </trkpt>
      <trkpt lat="43.59484" lon="6.30455">
        <ele>666</ele>
        <time>2022-12-11T12:28:11Z</time>
      </trkpt>
      <trkpt lat="43.59483" lon="6.30455">
        <ele>666</ele>
        <time>2022-12-11T12:28:12Z</time>
      </trkpt>
      <trkpt lat="43.59482" lon="6.30454">
        <ele>666</ele>
        <time>2022-12-11T12:28:13Z</time>
      </trkpt>
      <trkpt lat="43.59481" lon="6.30454">
        <ele>666</ele>
        <time>2022-12-11T12:28:14Z</time>
      </trkpt>
      <trkpt lat="43.59481" lon="6.30453">
        <ele>666</ele>
        <time>2022-12-11T12:28:15Z</time>
      </trkpt>
      <trkpt lat="43.5948" lon="6.30453">
        <ele>665</ele>
        <time>2022-12-11T12:28:16Z</time>
      </trkpt>
      <trkpt lat="43.59479" lon="6.30452">
        <ele>665</ele>
        <time>2022-12-11T12:28:17Z</time>
      </trkpt>
      <trkpt lat="43.59478" lon="6.30452">
        <ele>665</ele>
        <time>2022-12-11T12:28:18Z</time>
      </trkpt>
      <trkpt lat="43.59477" lon="6.30452">
        <ele>665</ele>
        <time>2022-12-11T12:28:19Z</time>
      </trkpt>
      <trkpt lat="43.59476" lon="6.30451">
        <ele>665</ele>
        <time>2022-12-11T12:28:20Z</time>
      </trkpt>
      <trkpt lat="43.59475" lon="6.3045">
        <ele>665</ele>
        <time>2022-12-11T12:28:21Z</time>
      </trkpt>
      <trkpt lat="43.59474" lon="6.3045">
        <ele>665</ele>
        <time>2022-12-11T12:28:22Z</time>
      </trkpt>
      <trkpt lat="43.59473" lon="6.3045">
        <ele>665</ele>
        <time>2022-12-11T12:28:23Z</time>
      </trkpt>
      <trkpt lat="43.59472" lon="6.30449">
        <ele>665</ele>
        <time>2022-12-11T12:28:24Z</time>
      </trkpt>
      <trkpt lat="43.59472" lon="6.30449">
        <ele>664</ele>
        <time>2022-12-11T12:28:25Z</time>
      </trkpt>
      <trkpt lat="43.59471" lon="6.30448">
        <ele>664</ele>
        <time>2022-12-11T12:28:26Z</time>
      </trkpt>
      <trkpt lat="43.5947" lon="6.30448">
        <ele>664</ele>
        <time>2022-12-11T12:28:27Z</time>
      </trkpt>
      <trkpt lat="43.59469" lon="6.30447">
        <ele>664</ele>
        <time>2022-12-11T12:28:28Z</time>
      </trkpt>
      <trkpt lat="43.59469" lon="6.30447">
        <ele>664</ele>
        <time>2022-12-11T12:28:29Z</time>
      </trkpt>
      <trkpt lat="43.59468" lon="6.30446">
        <ele>664</ele>
        <time>2022-12-11T12:28:30Z</time>
      </trkpt>
      <trkpt lat="43.59468" lon="6.30446">
        <ele>664</ele>
        <time>2022-12-11T12:28:31Z</time>
      </trkpt>
      <trkpt lat="43.59467" lon="6.30445">
        <ele>664</ele>
        <time>2022-12-11T12:28:32Z</time>
      </trkpt>
      <trkpt lat="43.59467" lon="6.30444">
        <ele>664</ele>
        <time>2022-12-11T12:28:33Z</time>
      </trkpt>
      <trkpt lat="43.59467" lon="6.30442">
        <ele>664</ele>
        <time>2022-12-11T12:28:34Z</time>
      </trkpt>
      <trkpt lat="43.59466" lon="6.30441">
        <ele>664</ele>
        <time>2022-12-11T12:28:35Z</time>
      </trkpt>
      <trkpt lat="43.59466" lon="6.3044">
        <ele>664</ele>
        <time>2022-12-11T12:28:36Z</time>
      </trkpt>
      <trkpt lat="43.59466" lon="6.3044">
        <ele>663</ele>
        <time>2022-12-11T12:28:37Z</time>
      </trkpt>
      <trkpt lat="43.59465" lon="6.3044">
        <ele>663</ele>
        <time>2022-12-11T12:28:38Z</time>
      </trkpt>
      <trkpt lat="43.59464" lon="6.30441">
        <ele>663</ele>
        <time>2022-12-11T12:28:39Z</time>
      </trkpt>
      <trkpt lat="43.59464" lon="6.30442">
        <ele>663</ele>
        <time>2022-12-11T12:28:40Z</time>
      </trkpt>
      <trkpt lat="43.59464" lon="6.30441">
        <ele>663</ele>
        <time>2022-12-11T12:28:41Z</time>
      </trkpt>
      <trkpt lat="43.59463" lon="6.30441">
        <ele>663</ele>
        <time>2022-12-11T12:28:42Z</time>
      </trkpt>
      <trkpt lat="43.59463" lon="6.30441">
        <ele>663</ele>
        <time>2022-12-11T12:28:43Z</time>
      </trkpt>
      <trkpt lat="43.59462" lon="6.3044">
        <ele>663</ele>
        <time>2022-12-11T12:28:44Z</time>
      </trkpt>
      <trkpt lat="43.59461" lon="6.3044">
        <ele>663</ele>
        <time>2022-12-11T12:28:45Z</time>
      </trkpt>
      <trkpt lat="43.59461" lon="6.3044">
        <ele>664</ele>
        <time>2022-12-11T12:28:46Z</time>
      </trkpt>
      <trkpt lat="43.5946" lon="6.30439">
        <ele>664</ele>
        <time>2022-12-11T12:28:47Z</time>
      </trkpt>
      <trkpt lat="43.59459" lon="6.30439">
        <ele>664</ele>
        <time>2022-12-11T12:28:48Z</time>
      </trkpt>
      <trkpt lat="43.59458" lon="6.30438">
        <ele>664</ele>
        <time>2022-12-11T12:28:49Z</time>
      </trkpt>
      <trkpt lat="43.59456" lon="6.30438">
        <ele>664</ele>
        <time>2022-12-11T12:28:50Z</time>
      </trkpt>
      <trkpt lat="43.59455" lon="6.30437">
        <ele>664</ele>
        <time>2022-12-11T12:28:51Z</time>
      </trkpt>
      <trkpt lat="43.59454" lon="6.30435">
        <ele>664</ele>
        <time>2022-12-11T12:28:52Z</time>
      </trkpt>
      <trkpt lat="43.59454" lon="6.30434">
        <ele>664</ele>
        <time>2022-12-11T12:28:53Z</time>
      </trkpt>
      <trkpt lat="43.59453" lon="6.30433">
        <ele>664</ele>
        <time>2022-12-11T12:28:54Z</time>
      </trkpt>
      <trkpt lat="43.59452" lon="6.30431">
        <ele>664</ele>
        <time>2022-12-11T12:28:55Z</time>
      </trkpt>
      <trkpt lat="43.59452" lon="6.3043">
        <ele>664</ele>
        <time>2022-12-11T12:28:56Z</time>
      </trkpt>
      <trkpt lat="43.59451" lon="6.30428">
        <ele>664</ele>
        <time>2022-12-11T12:28:57Z</time>
      </trkpt>
      <trkpt lat="43.5945" lon="6.30426">
        <ele>664</ele>
        <time>2022-12-11T12:28:58Z</time>
      </trkpt>
      <trkpt lat="43.5945" lon="6.30425">
        <ele>664</ele>
        <time>2022-12-11T12:28:59Z</time>
      </trkpt>
      <trkpt lat="43.59449" lon="6.30423">
        <ele>664</ele>
        <time>2022-12-11T12:29:00Z</time>
      </trkpt>
      <trkpt lat="43.59449" lon="6.30422">
        <ele>664</ele>
        <time>2022-12-11T12:29:01Z</time>
      </trkpt>
      <trkpt lat="43.59449" lon="6.30421">
        <ele>663</ele>
        <time>2022-12-11T12:29:02Z</time>
      </trkpt>
      <trkpt lat="43.59448" lon="6.3042">
        <ele>663</ele>
        <time>2022-12-11T12:29:03Z</time>
      </trkpt>
      <trkpt lat="43.59448" lon="6.30418">
        <ele>663</ele>
        <time>2022-12-11T12:29:04Z</time>
      </trkpt>
      <trkpt lat="43.59448" lon="6.30417">
        <ele>663</ele>
        <time>2022-12-11T12:29:05Z</time>
      </trkpt>
      <trkpt lat="43.59448" lon="6.30416">
        <ele>663</ele>
        <time>2022-12-11T12:29:06Z</time>
      </trkpt>
      <trkpt lat="43.59448" lon="6.30414">
        <ele>663</ele>
        <time>2022-12-11T12:29:07Z</time>
      </trkpt>
      <trkpt lat="43.59448" lon="6.30413">
        <ele>663</ele>
        <time>2022-12-11T12:29:08Z</time>
      </trkpt>
      <trkpt lat="43.59448" lon="6.30413">
        <ele>663</ele>
        <time>2022-12-11T12:29:09Z</time>
      </trkpt>
      <trkpt lat="43.59448" lon="6.30412">
        <ele>663</ele>
        <time>2022-12-11T12:29:10Z</time>
      </trkpt>
      <trkpt lat="43.59448" lon="6.30411">
        <ele>663</ele>
        <time>2022-12-11T12:29:11Z</time>
      </trkpt>
      <trkpt lat="43.59448" lon="6.30411">
        <ele>663</ele>
        <time>2022-12-11T12:29:12Z</time>
      </trkpt>
      <trkpt lat="43.59449" lon="6.30411">
        <ele>663</ele>
        <time>2022-12-11T12:29:13Z</time>
      </trkpt>
      <trkpt lat="43.59449" lon="6.30411">
        <ele>663</ele>
        <time>2022-12-11T12:29:14Z</time>
      </trkpt>
      <trkpt lat="43.59449" lon="6.30411">
        <ele>663</ele>
        <time>2022-12-11T12:29:15Z</time>
      </trkpt>
      <trkpt lat="43.59449" lon="6.30411">
        <ele>662</ele>
        <time>2022-12-11T12:29:16Z</time>
      </trkpt>
      <trkpt lat="43.59449" lon="6.30412">
        <ele>662</ele>
        <time>2022-12-11T12:29:17Z</time>
      </trkpt>
      <trkpt lat="43.59449" lon="6.30412">
        <ele>662</ele>
        <time>2022-12-11T12:29:18Z</time>
      </trkpt>
      <trkpt lat="43.59449" lon="6.30412">
        <ele>662</ele>
        <time>2022-12-11T12:29:19Z</time>
      </trkpt>
      <trkpt lat="43.59449" lon="6.30412">
        <ele>662</ele>
        <time>2022-12-11T12:29:20Z</time>
      </trkpt>
      <trkpt lat="43.59449" lon="6.30412">
        <ele>662</ele>
        <time>2022-12-11T12:29:21Z</time>
      </trkpt>
      <trkpt lat="43.59449" lon="6.30412">
        <ele>662</ele>
        <time>2022-12-11T12:29:22Z</time>
      </trkpt>
      <trkpt lat="43.59449" lon="6.30412">
        <ele>662</ele>
        <time>2022-12-11T12:29:23Z</time>
      </trkpt>
      <trkpt lat="43.59449" lon="6.30412">
        <ele>662</ele>
        <time>2022-12-11T12:29:24Z</time>
      </trkpt>
      <trkpt lat="43.59449" lon="6.30412">
        <ele>662</ele>
        <time>2022-12-11T12:29:25Z</time>
      </trkpt>
      <trkpt lat="43.59449" lon="6.30412">
        <ele>662</ele>
        <time>2022-12-11T12:29:26Z</time>
      </trkpt>
      <trkpt lat="43.59449" lon="6.30412">
        <ele>662</ele>
        <time>2022-12-11T12:29:27Z</time>
      </trkpt>
      <trkpt lat="43.59449" lon="6.30412">
        <ele>662</ele>
        <time>2022-12-11T12:29:28Z</time>
      </trkpt>
      <trkpt lat="43.59449" lon="6.30412">
        <ele>662</ele>
        <time>2022-12-11T12:29:29Z</time>
      </trkpt>
      <trkpt lat="43.59449" lon="6.30412">
        <ele>662</ele>
        <time>2022-12-11T12:29:30Z</time>
      </trkpt>
      <trkpt lat="43.59449" lon="6.30412">
        <ele>662</ele>
        <time>2022-12-11T12:29:31Z</time>
      </trkpt>
      <trkpt lat="43.59449" lon="6.30412">
        <ele>662</ele>
        <time>2022-12-11T12:29:32Z</time>
      </trkpt>
      <trkpt lat="43.59449" lon="6.30413">
        <ele>662</ele>
        <time>2022-12-11T12:29:33Z</time>
      </trkpt>
      <trkpt lat="43.59449" lon="6.30413">
        <ele>662</ele>
        <time>2022-12-11T12:29:34Z</time>
      </trkpt>
      <trkpt lat="43.59449" lon="6.30413">
        <ele>662</ele>
        <time>2022-12-11T12:29:35Z</time>
      </trkpt>
      <trkpt lat="43.59449" lon="6.30413">
        <ele>662</ele>
        <time>2022-12-11T12:29:36Z</time>
      </trkpt>
      <trkpt lat="43.59449" lon="6.30413">
        <ele>662</ele>
        <time>2022-12-11T12:29:37Z</time>
      </trkpt>
      <trkpt lat="43.59449" lon="6.30413">
        <ele>662</ele>
        <time>2022-12-11T12:29:38Z</time>
      </trkpt>
      <trkpt lat="43.59449" lon="6.30413">
        <ele>662</ele>
        <time>2022-12-11T12:29:39Z</time>
      </trkpt>
      <trkpt lat="43.59449" lon="6.30413">
        <ele>662</ele>
        <time>2022-12-11T12:29:40Z</time>
      </trkpt>
      <trkpt lat="43.59449" lon="6.30413">
        <ele>662</ele>
        <time>2022-12-11T12:29:41Z</time>
      </trkpt>
      <trkpt lat="43.59449" lon="6.30413">
        <ele>662</ele>
        <time>2022-12-11T12:29:42Z</time>
      </trkpt>
      <trkpt lat="43.59449" lon="6.30413">
        <ele>662</ele>
        <time>2022-12-11T12:29:43Z</time>
      </trkpt>
      <trkpt lat="43.59449" lon="6.30413">
        <ele>662</ele>
        <time>2022-12-11T12:29:44Z</time>
      </trkpt>
      <trkpt lat="43.59449" lon="6.30413">
        <ele>662</ele>
        <time>2022-12-11T12:29:45Z</time>
      </trkpt>
      <trkpt lat="43.59449" lon="6.30413">
        <ele>662</ele>
        <time>2022-12-11T12:29:46Z</time>
      </trkpt>
      <trkpt lat="43.59449" lon="6.30413">
        <ele>662</ele>
        <time>2022-12-11T12:29:47Z</time>
      </trkpt>
      <trkpt lat="43.59449" lon="6.30413">
        <ele>662</ele>
        <time>2022-12-11T12:29:48Z</time>
      </trkpt>
      <trkpt lat="43.59449" lon="6.30413">
        <ele>662</ele>
        <time>2022-12-11T12:29:49Z</time>
      </trkpt>
      <trkpt lat="43.59448" lon="6.30413">
        <ele>662</ele>
        <time>2022-12-11T12:29:50Z</time>
      </trkpt>
      <trkpt lat="43.59448" lon="6.30413">
        <ele>662</ele>
        <time>2022-12-11T12:29:51Z</time>
      </trkpt>
      <trkpt lat="43.59448" lon="6.30413">
        <ele>662</ele>
        <time>2022-12-11T12:29:52Z</time>
      </trkpt>
      <trkpt lat="43.59448" lon="6.30413">
        <ele>663</ele>
        <time>2022-12-11T12:29:53Z</time>
      </trkpt>
      <trkpt lat="43.59448" lon="6.30414">
        <ele>663</ele>
        <time>2022-12-11T12:29:54Z</time>
      </trkpt>
      <trkpt lat="43.59447" lon="6.30414">
        <ele>663</ele>
        <time>2022-12-11T12:29:55Z</time>
      </trkpt>
      <trkpt lat="43.59447" lon="6.30415">
        <ele>663</ele>
        <time>2022-12-11T12:29:56Z</time>
      </trkpt>
      <trkpt lat="43.59447" lon="6.30416">
        <ele>663</ele>
        <time>2022-12-11T12:29:57Z</time>
      </trkpt>
      <trkpt lat="43.59447" lon="6.30416">
        <ele>663</ele>
        <time>2022-12-11T12:29:58Z</time>
      </trkpt>
      <trkpt lat="43.59447" lon="6.30417">
        <ele>663</ele>
        <time>2022-12-11T12:29:59Z</time>
      </trkpt>
      <trkpt lat="43.59446" lon="6.30417">
        <ele>663</ele>
        <time>2022-12-11T12:30:00Z</time>
      </trkpt>
    </trkseg>
  </trk>
</gpx>